<?xml version="1.0" encoding="UTF-8" standalone="no" ?>
<gpx xmlns="http://www.topografix.com/GPX/1/1" xmlns:xsi="http://www.w3.org/2001/XMLSchema-instance" xsi:schemaLocation="http://www.topografix.com/GPX/1/1 http://www.topografix.com/GPX/1/1/gpx.xsd" version="1.1" creator="VisuGPX - https://www.visugpx.com">
  <metadata>
    <name>2019-07-09 17:39:02</name>
  </metadata>
  <trk>
    <name><![CDATA[2019-07-09 17:39:02]]></name>
    <trkseg>
      <trkpt lat="48.48845" lon="7.16275">
        <ele>446.67</ele>
        <time>2019-07-09T04:32:08Z</time>
      </trkpt>
      <trkpt lat="48.48847" lon="7.16273">
        <ele>446.67</ele>
        <time>2019-07-09T04:32:17Z</time>
      </trkpt>
      <trkpt lat="48.48847" lon="7.16279">
        <ele>447.15</ele>
        <time>2019-07-09T04:32:27Z</time>
      </trkpt>
      <trkpt lat="48.48846" lon="7.16278">
        <ele>447.63</ele>
        <time>2019-07-09T04:32:39Z</time>
      </trkpt>
      <trkpt lat="48.48847" lon="7.16282">
        <ele>447.63</ele>
        <time>2019-07-09T04:33:00Z</time>
      </trkpt>
      <trkpt lat="48.48846" lon="7.16281">
        <ele>444.75</ele>
        <time>2019-07-09T04:33:34Z</time>
      </trkpt>
      <trkpt lat="48.48846" lon="7.16278">
        <ele>445.71</ele>
        <time>2019-07-09T04:34:01Z</time>
      </trkpt>
      <trkpt lat="48.48845" lon="7.16278">
        <ele>448.59</ele>
        <time>2019-07-09T04:34:25Z</time>
      </trkpt>
      <trkpt lat="48.4884" lon="7.16273">
        <ele>449.07</ele>
        <time>2019-07-09T04:34:30Z</time>
      </trkpt>
      <trkpt lat="48.48821" lon="7.16298">
        <ele>448.11</ele>
        <time>2019-07-09T04:34:41Z</time>
      </trkpt>
      <trkpt lat="48.48793" lon="7.16311">
        <ele>446.67</ele>
        <time>2019-07-09T04:34:51Z</time>
      </trkpt>
      <trkpt lat="48.48772" lon="7.16304">
        <ele>452.92</ele>
        <time>2019-07-09T04:35:05Z</time>
      </trkpt>
      <trkpt lat="48.48766" lon="7.16306">
        <ele>452.92</ele>
        <time>2019-07-09T04:35:09Z</time>
      </trkpt>
      <trkpt lat="48.48765" lon="7.16306">
        <ele>452.44</ele>
        <time>2019-07-09T04:35:10Z</time>
      </trkpt>
      <trkpt lat="48.48764" lon="7.16306">
        <ele>452.44</ele>
        <time>2019-07-09T04:35:11Z</time>
      </trkpt>
      <trkpt lat="48.48763" lon="7.16306">
        <ele>452.44</ele>
        <time>2019-07-09T04:35:12Z</time>
      </trkpt>
      <trkpt lat="48.48762" lon="7.16307">
        <ele>452.44</ele>
        <time>2019-07-09T04:35:13Z</time>
      </trkpt>
      <trkpt lat="48.4876" lon="7.16307">
        <ele>452.44</ele>
        <time>2019-07-09T04:35:14Z</time>
      </trkpt>
      <trkpt lat="48.48743" lon="7.16312">
        <ele>453.4</ele>
        <time>2019-07-09T04:35:29Z</time>
      </trkpt>
      <trkpt lat="48.48726" lon="7.16321">
        <ele>457.24</ele>
        <time>2019-07-09T04:35:44Z</time>
      </trkpt>
      <trkpt lat="48.48714" lon="7.16325">
        <ele>461.57</ele>
        <time>2019-07-09T04:35:57Z</time>
      </trkpt>
      <trkpt lat="48.48697" lon="7.16333">
        <ele>467.34</ele>
        <time>2019-07-09T04:36:12Z</time>
      </trkpt>
      <trkpt lat="48.48682" lon="7.16341">
        <ele>470.22</ele>
        <time>2019-07-09T04:36:25Z</time>
      </trkpt>
      <trkpt lat="48.4867" lon="7.1635">
        <ele>472.14</ele>
        <time>2019-07-09T04:36:37Z</time>
      </trkpt>
      <trkpt lat="48.48661" lon="7.16359">
        <ele>474.07</ele>
        <time>2019-07-09T04:36:49Z</time>
      </trkpt>
      <trkpt lat="48.48645" lon="7.16373">
        <ele>474.55</ele>
        <time>2019-07-09T04:37:04Z</time>
      </trkpt>
      <trkpt lat="48.48626" lon="7.16387">
        <ele>478.87</ele>
        <time>2019-07-09T04:37:16Z</time>
      </trkpt>
      <trkpt lat="48.48608" lon="7.16379">
        <ele>481.28</ele>
        <time>2019-07-09T04:37:30Z</time>
      </trkpt>
      <trkpt lat="48.48598" lon="7.16364">
        <ele>481.76</ele>
        <time>2019-07-09T04:37:42Z</time>
      </trkpt>
      <trkpt lat="48.48594" lon="7.16351">
        <ele>481.76</ele>
        <time>2019-07-09T04:37:50Z</time>
      </trkpt>
      <trkpt lat="48.4859" lon="7.16339">
        <ele>482.24</ele>
        <time>2019-07-09T04:37:58Z</time>
      </trkpt>
      <trkpt lat="48.48589" lon="7.1633">
        <ele>481.76</ele>
        <time>2019-07-09T04:38:03Z</time>
      </trkpt>
      <trkpt lat="48.48588" lon="7.16328">
        <ele>482.24</ele>
        <time>2019-07-09T04:38:04Z</time>
      </trkpt>
      <trkpt lat="48.48585" lon="7.16302">
        <ele>482.72</ele>
        <time>2019-07-09T04:38:18Z</time>
      </trkpt>
      <trkpt lat="48.48582" lon="7.16277">
        <ele>484.64</ele>
        <time>2019-07-09T04:38:33Z</time>
      </trkpt>
      <trkpt lat="48.48577" lon="7.1626">
        <ele>487.53</ele>
        <time>2019-07-09T04:38:45Z</time>
      </trkpt>
      <trkpt lat="48.48576" lon="7.16258">
        <ele>487.53</ele>
        <time>2019-07-09T04:38:46Z</time>
      </trkpt>
      <trkpt lat="48.4857" lon="7.16234">
        <ele>494.74</ele>
        <time>2019-07-09T04:39:00Z</time>
      </trkpt>
      <trkpt lat="48.48566" lon="7.1621">
        <ele>501.95</ele>
        <time>2019-07-09T04:39:15Z</time>
      </trkpt>
      <trkpt lat="48.48563" lon="7.16188">
        <ele>512.52</ele>
        <time>2019-07-09T04:39:29Z</time>
      </trkpt>
      <trkpt lat="48.4856" lon="7.16161">
        <ele>513</ele>
        <time>2019-07-09T04:39:44Z</time>
      </trkpt>
      <trkpt lat="48.48556" lon="7.16144">
        <ele>516.37</ele>
        <time>2019-07-09T04:39:55Z</time>
      </trkpt>
      <trkpt lat="48.48556" lon="7.16133">
        <ele>517.81</ele>
        <time>2019-07-09T04:40:01Z</time>
      </trkpt>
      <trkpt lat="48.48556" lon="7.1613">
        <ele>518.77</ele>
        <time>2019-07-09T04:40:03Z</time>
      </trkpt>
      <trkpt lat="48.48556" lon="7.16128">
        <ele>519.25</ele>
        <time>2019-07-09T04:40:04Z</time>
      </trkpt>
      <trkpt lat="48.48551" lon="7.16107">
        <ele>523.58</ele>
        <time>2019-07-09T04:40:19Z</time>
      </trkpt>
      <trkpt lat="48.48551" lon="7.16085">
        <ele>524.06</ele>
        <time>2019-07-09T04:40:32Z</time>
      </trkpt>
      <trkpt lat="48.48548" lon="7.16064">
        <ele>523.58</ele>
        <time>2019-07-09T04:40:43Z</time>
      </trkpt>
      <trkpt lat="48.48548" lon="7.16062">
        <ele>523.09</ele>
        <time>2019-07-09T04:40:44Z</time>
      </trkpt>
      <trkpt lat="48.48547" lon="7.16036">
        <ele>524.06</ele>
        <time>2019-07-09T04:40:59Z</time>
      </trkpt>
      <trkpt lat="48.48547" lon="7.16018">
        <ele>524.06</ele>
        <time>2019-07-09T04:41:09Z</time>
      </trkpt>
      <trkpt lat="48.48544" lon="7.1599">
        <ele>525.02</ele>
        <time>2019-07-09T04:41:23Z</time>
      </trkpt>
      <trkpt lat="48.4854" lon="7.15962">
        <ele>522.61</ele>
        <time>2019-07-09T04:41:38Z</time>
      </trkpt>
      <trkpt lat="48.48539" lon="7.15943">
        <ele>520.69</ele>
        <time>2019-07-09T04:41:50Z</time>
      </trkpt>
      <trkpt lat="48.48538" lon="7.15942">
        <ele>520.69</ele>
        <time>2019-07-09T04:41:51Z</time>
      </trkpt>
      <trkpt lat="48.48536" lon="7.15939">
        <ele>520.69</ele>
        <time>2019-07-09T04:41:53Z</time>
      </trkpt>
      <trkpt lat="48.48535" lon="7.15937">
        <ele>520.69</ele>
        <time>2019-07-09T04:41:54Z</time>
      </trkpt>
      <trkpt lat="48.48529" lon="7.15918">
        <ele>522.61</ele>
        <time>2019-07-09T04:42:08Z</time>
      </trkpt>
      <trkpt lat="48.48524" lon="7.15892">
        <ele>520.69</ele>
        <time>2019-07-09T04:42:23Z</time>
      </trkpt>
      <trkpt lat="48.48523" lon="7.15883">
        <ele>519.73</ele>
        <time>2019-07-09T04:42:29Z</time>
      </trkpt>
      <trkpt lat="48.48523" lon="7.15881">
        <ele>519.73</ele>
        <time>2019-07-09T04:42:30Z</time>
      </trkpt>
      <trkpt lat="48.48522" lon="7.15879">
        <ele>519.73</ele>
        <time>2019-07-09T04:42:31Z</time>
      </trkpt>
      <trkpt lat="48.48518" lon="7.1586">
        <ele>516.37</ele>
        <time>2019-07-09T04:42:44Z</time>
      </trkpt>
      <trkpt lat="48.48517" lon="7.15854">
        <ele>516.85</ele>
        <time>2019-07-09T04:42:50Z</time>
      </trkpt>
      <trkpt lat="48.48509" lon="7.15835">
        <ele>518.29</ele>
        <time>2019-07-09T04:43:04Z</time>
      </trkpt>
      <trkpt lat="48.48505" lon="7.15822">
        <ele>518.29</ele>
        <time>2019-07-09T04:43:11Z</time>
      </trkpt>
      <trkpt lat="48.48504" lon="7.1582">
        <ele>518.29</ele>
        <time>2019-07-09T04:43:12Z</time>
      </trkpt>
      <trkpt lat="48.48495" lon="7.15806">
        <ele>522.13</ele>
        <time>2019-07-09T04:43:24Z</time>
      </trkpt>
      <trkpt lat="48.48489" lon="7.158">
        <ele>526.94</ele>
        <time>2019-07-09T04:43:31Z</time>
      </trkpt>
      <trkpt lat="48.48483" lon="7.15797">
        <ele>530.79</ele>
        <time>2019-07-09T04:43:35Z</time>
      </trkpt>
      <trkpt lat="48.48481" lon="7.15796">
        <ele>531.75</ele>
        <time>2019-07-09T04:43:36Z</time>
      </trkpt>
      <trkpt lat="48.4848" lon="7.15795">
        <ele>532.23</ele>
        <time>2019-07-09T04:43:37Z</time>
      </trkpt>
      <trkpt lat="48.48463" lon="7.1578">
        <ele>539.44</ele>
        <time>2019-07-09T04:43:50Z</time>
      </trkpt>
      <trkpt lat="48.48462" lon="7.15779">
        <ele>540.4</ele>
        <time>2019-07-09T04:43:51Z</time>
      </trkpt>
      <trkpt lat="48.48461" lon="7.15778">
        <ele>540.88</ele>
        <time>2019-07-09T04:43:52Z</time>
      </trkpt>
      <trkpt lat="48.48458" lon="7.15775">
        <ele>541.36</ele>
        <time>2019-07-09T04:43:54Z</time>
      </trkpt>
      <trkpt lat="48.48457" lon="7.15775">
        <ele>541.84</ele>
        <time>2019-07-09T04:43:55Z</time>
      </trkpt>
      <trkpt lat="48.48456" lon="7.15775">
        <ele>542.8</ele>
        <time>2019-07-09T04:43:56Z</time>
      </trkpt>
      <trkpt lat="48.48454" lon="7.15774">
        <ele>543.28</ele>
        <time>2019-07-09T04:43:57Z</time>
      </trkpt>
      <trkpt lat="48.48453" lon="7.15773">
        <ele>544.24</ele>
        <time>2019-07-09T04:43:58Z</time>
      </trkpt>
      <trkpt lat="48.48451" lon="7.15772">
        <ele>545.2</ele>
        <time>2019-07-09T04:43:59Z</time>
      </trkpt>
      <trkpt lat="48.48441" lon="7.15765">
        <ele>550.49</ele>
        <time>2019-07-09T04:44:07Z</time>
      </trkpt>
      <trkpt lat="48.4844" lon="7.15764">
        <ele>551.45</ele>
        <time>2019-07-09T04:44:08Z</time>
      </trkpt>
      <trkpt lat="48.48437" lon="7.15759">
        <ele>552.9</ele>
        <time>2019-07-09T04:44:11Z</time>
      </trkpt>
      <trkpt lat="48.48436" lon="7.15757">
        <ele>553.38</ele>
        <time>2019-07-09T04:44:12Z</time>
      </trkpt>
      <trkpt lat="48.48426" lon="7.15745">
        <ele>557.7</ele>
        <time>2019-07-09T04:44:20Z</time>
      </trkpt>
      <trkpt lat="48.48426" lon="7.15743">
        <ele>557.7</ele>
        <time>2019-07-09T04:44:21Z</time>
      </trkpt>
      <trkpt lat="48.48413" lon="7.15726">
        <ele>560.11</ele>
        <time>2019-07-09T04:44:35Z</time>
      </trkpt>
      <trkpt lat="48.48402" lon="7.15711">
        <ele>561.07</ele>
        <time>2019-07-09T04:44:48Z</time>
      </trkpt>
      <trkpt lat="48.48401" lon="7.1571">
        <ele>561.07</ele>
        <time>2019-07-09T04:44:49Z</time>
      </trkpt>
      <trkpt lat="48.484" lon="7.15709">
        <ele>561.07</ele>
        <time>2019-07-09T04:44:50Z</time>
      </trkpt>
      <trkpt lat="48.48396" lon="7.15706">
        <ele>562.03</ele>
        <time>2019-07-09T04:44:53Z</time>
      </trkpt>
      <trkpt lat="48.48395" lon="7.15705">
        <ele>562.51</ele>
        <time>2019-07-09T04:44:54Z</time>
      </trkpt>
      <trkpt lat="48.48394" lon="7.15703">
        <ele>562.99</ele>
        <time>2019-07-09T04:44:55Z</time>
      </trkpt>
      <trkpt lat="48.48393" lon="7.15702">
        <ele>562.99</ele>
        <time>2019-07-09T04:44:56Z</time>
      </trkpt>
      <trkpt lat="48.48392" lon="7.15701">
        <ele>563.47</ele>
        <time>2019-07-09T04:44:57Z</time>
      </trkpt>
      <trkpt lat="48.48375" lon="7.15686">
        <ele>562.03</ele>
        <time>2019-07-09T04:45:10Z</time>
      </trkpt>
      <trkpt lat="48.4837" lon="7.15678">
        <ele>561.55</ele>
        <time>2019-07-09T04:45:15Z</time>
      </trkpt>
      <trkpt lat="48.48368" lon="7.15676">
        <ele>561.55</ele>
        <time>2019-07-09T04:45:16Z</time>
      </trkpt>
      <trkpt lat="48.48366" lon="7.15675">
        <ele>561.55</ele>
        <time>2019-07-09T04:45:17Z</time>
      </trkpt>
      <trkpt lat="48.48341" lon="7.1565">
        <ele>559.62</ele>
        <time>2019-07-09T04:45:33Z</time>
      </trkpt>
      <trkpt lat="48.48334" lon="7.15642">
        <ele>559.62</ele>
        <time>2019-07-09T04:45:38Z</time>
      </trkpt>
      <trkpt lat="48.48329" lon="7.1564">
        <ele>560.11</ele>
        <time>2019-07-09T04:45:40Z</time>
      </trkpt>
      <trkpt lat="48.48327" lon="7.15639">
        <ele>560.59</ele>
        <time>2019-07-09T04:45:41Z</time>
      </trkpt>
      <trkpt lat="48.48325" lon="7.15638">
        <ele>561.55</ele>
        <time>2019-07-09T04:45:42Z</time>
      </trkpt>
      <trkpt lat="48.48322" lon="7.15636">
        <ele>562.03</ele>
        <time>2019-07-09T04:45:43Z</time>
      </trkpt>
      <trkpt lat="48.48321" lon="7.15635">
        <ele>562.51</ele>
        <time>2019-07-09T04:45:44Z</time>
      </trkpt>
      <trkpt lat="48.48319" lon="7.15633">
        <ele>562.99</ele>
        <time>2019-07-09T04:45:45Z</time>
      </trkpt>
      <trkpt lat="48.48317" lon="7.15632">
        <ele>563.95</ele>
        <time>2019-07-09T04:45:46Z</time>
      </trkpt>
      <trkpt lat="48.48303" lon="7.15617">
        <ele>564.91</ele>
        <time>2019-07-09T04:45:55Z</time>
      </trkpt>
      <trkpt lat="48.48302" lon="7.15614">
        <ele>564.91</ele>
        <time>2019-07-09T04:45:56Z</time>
      </trkpt>
      <trkpt lat="48.48301" lon="7.15612">
        <ele>564.43</ele>
        <time>2019-07-09T04:45:57Z</time>
      </trkpt>
      <trkpt lat="48.48289" lon="7.15592">
        <ele>562.03</ele>
        <time>2019-07-09T04:46:09Z</time>
      </trkpt>
      <trkpt lat="48.48271" lon="7.15566">
        <ele>562.03</ele>
        <time>2019-07-09T04:46:25Z</time>
      </trkpt>
      <trkpt lat="48.48254" lon="7.15538">
        <ele>562.99</ele>
        <time>2019-07-09T04:46:39Z</time>
      </trkpt>
      <trkpt lat="48.4824" lon="7.15515">
        <ele>566.35</ele>
        <time>2019-07-09T04:46:54Z</time>
      </trkpt>
      <trkpt lat="48.48226" lon="7.15483">
        <ele>565.39</ele>
        <time>2019-07-09T04:47:11Z</time>
      </trkpt>
      <trkpt lat="48.48215" lon="7.1546">
        <ele>566.35</ele>
        <time>2019-07-09T04:47:23Z</time>
      </trkpt>
      <trkpt lat="48.48214" lon="7.15458">
        <ele>566.83</ele>
        <time>2019-07-09T04:47:24Z</time>
      </trkpt>
      <trkpt lat="48.48213" lon="7.15457">
        <ele>566.35</ele>
        <time>2019-07-09T04:47:25Z</time>
      </trkpt>
      <trkpt lat="48.48212" lon="7.15456">
        <ele>566.35</ele>
        <time>2019-07-09T04:47:26Z</time>
      </trkpt>
      <trkpt lat="48.48211" lon="7.15454">
        <ele>566.83</ele>
        <time>2019-07-09T04:47:27Z</time>
      </trkpt>
      <trkpt lat="48.4821" lon="7.15452">
        <ele>567.32</ele>
        <time>2019-07-09T04:47:28Z</time>
      </trkpt>
      <trkpt lat="48.48209" lon="7.1545">
        <ele>567.32</ele>
        <time>2019-07-09T04:47:29Z</time>
      </trkpt>
      <trkpt lat="48.48207" lon="7.15448">
        <ele>567.32</ele>
        <time>2019-07-09T04:47:30Z</time>
      </trkpt>
      <trkpt lat="48.48206" lon="7.15447">
        <ele>567.32</ele>
        <time>2019-07-09T04:47:31Z</time>
      </trkpt>
      <trkpt lat="48.48205" lon="7.15446">
        <ele>567.32</ele>
        <time>2019-07-09T04:47:32Z</time>
      </trkpt>
      <trkpt lat="48.48203" lon="7.15444">
        <ele>567.8</ele>
        <time>2019-07-09T04:47:33Z</time>
      </trkpt>
      <trkpt lat="48.48193" lon="7.15418">
        <ele>568.28</ele>
        <time>2019-07-09T04:47:47Z</time>
      </trkpt>
      <trkpt lat="48.48182" lon="7.15396">
        <ele>570.2</ele>
        <time>2019-07-09T04:48:01Z</time>
      </trkpt>
      <trkpt lat="48.48177" lon="7.15369">
        <ele>572.6</ele>
        <time>2019-07-09T04:48:14Z</time>
      </trkpt>
      <trkpt lat="48.48175" lon="7.15366">
        <ele>573.08</ele>
        <time>2019-07-09T04:48:16Z</time>
      </trkpt>
      <trkpt lat="48.48166" lon="7.15338">
        <ele>578.85</ele>
        <time>2019-07-09T04:48:30Z</time>
      </trkpt>
      <trkpt lat="48.48165" lon="7.15334">
        <ele>579.81</ele>
        <time>2019-07-09T04:48:32Z</time>
      </trkpt>
      <trkpt lat="48.48164" lon="7.15332">
        <ele>580.29</ele>
        <time>2019-07-09T04:48:33Z</time>
      </trkpt>
      <trkpt lat="48.48164" lon="7.1533">
        <ele>580.77</ele>
        <time>2019-07-09T04:48:34Z</time>
      </trkpt>
      <trkpt lat="48.48163" lon="7.15327">
        <ele>581.25</ele>
        <time>2019-07-09T04:48:35Z</time>
      </trkpt>
      <trkpt lat="48.48163" lon="7.15325">
        <ele>581.25</ele>
        <time>2019-07-09T04:48:36Z</time>
      </trkpt>
      <trkpt lat="48.48162" lon="7.15323">
        <ele>581.73</ele>
        <time>2019-07-09T04:48:37Z</time>
      </trkpt>
      <trkpt lat="48.48162" lon="7.15321">
        <ele>582.22</ele>
        <time>2019-07-09T04:48:38Z</time>
      </trkpt>
      <trkpt lat="48.48161" lon="7.15318">
        <ele>582.7</ele>
        <time>2019-07-09T04:48:39Z</time>
      </trkpt>
      <trkpt lat="48.48161" lon="7.15316">
        <ele>583.18</ele>
        <time>2019-07-09T04:48:40Z</time>
      </trkpt>
      <trkpt lat="48.48157" lon="7.15304">
        <ele>584.62</ele>
        <time>2019-07-09T04:48:46Z</time>
      </trkpt>
      <trkpt lat="48.48156" lon="7.15302">
        <ele>585.1</ele>
        <time>2019-07-09T04:48:47Z</time>
      </trkpt>
      <trkpt lat="48.48155" lon="7.153">
        <ele>586.06</ele>
        <time>2019-07-09T04:48:48Z</time>
      </trkpt>
      <trkpt lat="48.48155" lon="7.15298">
        <ele>586.06</ele>
        <time>2019-07-09T04:48:49Z</time>
      </trkpt>
      <trkpt lat="48.48154" lon="7.15296">
        <ele>586.54</ele>
        <time>2019-07-09T04:48:50Z</time>
      </trkpt>
      <trkpt lat="48.48154" lon="7.15294">
        <ele>587.02</ele>
        <time>2019-07-09T04:48:51Z</time>
      </trkpt>
      <trkpt lat="48.48154" lon="7.15291">
        <ele>587.5</ele>
        <time>2019-07-09T04:48:52Z</time>
      </trkpt>
      <trkpt lat="48.48153" lon="7.15288">
        <ele>587.98</ele>
        <time>2019-07-09T04:48:53Z</time>
      </trkpt>
      <trkpt lat="48.48153" lon="7.15285">
        <ele>587.98</ele>
        <time>2019-07-09T04:48:54Z</time>
      </trkpt>
      <trkpt lat="48.48152" lon="7.15282">
        <ele>588.46</ele>
        <time>2019-07-09T04:48:55Z</time>
      </trkpt>
      <trkpt lat="48.48151" lon="7.15279">
        <ele>588.95</ele>
        <time>2019-07-09T04:48:56Z</time>
      </trkpt>
      <trkpt lat="48.4815" lon="7.15276">
        <ele>588.95</ele>
        <time>2019-07-09T04:48:57Z</time>
      </trkpt>
      <trkpt lat="48.4815" lon="7.15273">
        <ele>589.43</ele>
        <time>2019-07-09T04:48:58Z</time>
      </trkpt>
      <trkpt lat="48.48149" lon="7.1527">
        <ele>588.95</ele>
        <time>2019-07-09T04:48:59Z</time>
      </trkpt>
      <trkpt lat="48.48149" lon="7.15267">
        <ele>589.43</ele>
        <time>2019-07-09T04:49:00Z</time>
      </trkpt>
      <trkpt lat="48.48148" lon="7.15264">
        <ele>589.43</ele>
        <time>2019-07-09T04:49:01Z</time>
      </trkpt>
      <trkpt lat="48.48135" lon="7.15224">
        <ele>591.35</ele>
        <time>2019-07-09T04:49:17Z</time>
      </trkpt>
      <trkpt lat="48.48125" lon="7.1519">
        <ele>591.83</ele>
        <time>2019-07-09T04:49:33Z</time>
      </trkpt>
      <trkpt lat="48.48115" lon="7.1516">
        <ele>591.83</ele>
        <time>2019-07-09T04:49:47Z</time>
      </trkpt>
      <trkpt lat="48.48105" lon="7.15133">
        <ele>593.27</ele>
        <time>2019-07-09T04:50:01Z</time>
      </trkpt>
      <trkpt lat="48.48104" lon="7.15128">
        <ele>593.75</ele>
        <time>2019-07-09T04:50:03Z</time>
      </trkpt>
      <trkpt lat="48.48103" lon="7.15126">
        <ele>593.27</ele>
        <time>2019-07-09T04:50:04Z</time>
      </trkpt>
      <trkpt lat="48.481" lon="7.15113">
        <ele>592.31</ele>
        <time>2019-07-09T04:50:10Z</time>
      </trkpt>
      <trkpt lat="48.48097" lon="7.15106">
        <ele>592.79</ele>
        <time>2019-07-09T04:50:14Z</time>
      </trkpt>
      <trkpt lat="48.48097" lon="7.15104">
        <ele>592.79</ele>
        <time>2019-07-09T04:50:15Z</time>
      </trkpt>
      <trkpt lat="48.48092" lon="7.15087">
        <ele>593.27</ele>
        <time>2019-07-09T04:50:24Z</time>
      </trkpt>
      <trkpt lat="48.48086" lon="7.15046">
        <ele>596.64</ele>
        <time>2019-07-09T04:50:39Z</time>
      </trkpt>
      <trkpt lat="48.48084" lon="7.15012">
        <ele>601.44</ele>
        <time>2019-07-09T04:50:53Z</time>
      </trkpt>
      <trkpt lat="48.4808" lon="7.1498">
        <ele>604.33</ele>
        <time>2019-07-09T04:51:06Z</time>
      </trkpt>
      <trkpt lat="48.4808" lon="7.14977">
        <ele>604.33</ele>
        <time>2019-07-09T04:51:07Z</time>
      </trkpt>
      <trkpt lat="48.48075" lon="7.14943">
        <ele>603.36</ele>
        <time>2019-07-09T04:51:20Z</time>
      </trkpt>
      <trkpt lat="48.48074" lon="7.14938">
        <ele>602.88</ele>
        <time>2019-07-09T04:51:22Z</time>
      </trkpt>
      <trkpt lat="48.48074" lon="7.14936">
        <ele>602.88</ele>
        <time>2019-07-09T04:51:23Z</time>
      </trkpt>
      <trkpt lat="48.48074" lon="7.14934">
        <ele>602.88</ele>
        <time>2019-07-09T04:51:24Z</time>
      </trkpt>
      <trkpt lat="48.48073" lon="7.14933">
        <ele>602.88</ele>
        <time>2019-07-09T04:51:25Z</time>
      </trkpt>
      <trkpt lat="48.48072" lon="7.14931">
        <ele>602.88</ele>
        <time>2019-07-09T04:51:26Z</time>
      </trkpt>
      <trkpt lat="48.48071" lon="7.14929">
        <ele>602.88</ele>
        <time>2019-07-09T04:51:27Z</time>
      </trkpt>
      <trkpt lat="48.4807" lon="7.14927">
        <ele>602.88</ele>
        <time>2019-07-09T04:51:28Z</time>
      </trkpt>
      <trkpt lat="48.48067" lon="7.14917">
        <ele>603.36</ele>
        <time>2019-07-09T04:51:34Z</time>
      </trkpt>
      <trkpt lat="48.48067" lon="7.14914">
        <ele>603.36</ele>
        <time>2019-07-09T04:51:35Z</time>
      </trkpt>
      <trkpt lat="48.48065" lon="7.14905">
        <ele>603.36</ele>
        <time>2019-07-09T04:51:40Z</time>
      </trkpt>
      <trkpt lat="48.48065" lon="7.14903">
        <ele>603.36</ele>
        <time>2019-07-09T04:51:41Z</time>
      </trkpt>
      <trkpt lat="48.48064" lon="7.149">
        <ele>602.88</ele>
        <time>2019-07-09T04:51:43Z</time>
      </trkpt>
      <trkpt lat="48.48063" lon="7.14898">
        <ele>602.88</ele>
        <time>2019-07-09T04:51:44Z</time>
      </trkpt>
      <trkpt lat="48.48062" lon="7.14896">
        <ele>602.4</ele>
        <time>2019-07-09T04:51:45Z</time>
      </trkpt>
      <trkpt lat="48.48057" lon="7.14878">
        <ele>601.44</ele>
        <time>2019-07-09T04:51:53Z</time>
      </trkpt>
      <trkpt lat="48.48055" lon="7.14876">
        <ele>601.44</ele>
        <time>2019-07-09T04:51:54Z</time>
      </trkpt>
      <trkpt lat="48.48054" lon="7.14874">
        <ele>601.44</ele>
        <time>2019-07-09T04:51:55Z</time>
      </trkpt>
      <trkpt lat="48.4804" lon="7.14852">
        <ele>604.81</ele>
        <time>2019-07-09T04:52:10Z</time>
      </trkpt>
      <trkpt lat="48.48014" lon="7.14824">
        <ele>610.57</ele>
        <time>2019-07-09T04:52:24Z</time>
      </trkpt>
      <trkpt lat="48.48012" lon="7.14822">
        <ele>610.57</ele>
        <time>2019-07-09T04:52:25Z</time>
      </trkpt>
      <trkpt lat="48.4801" lon="7.1482">
        <ele>610.57</ele>
        <time>2019-07-09T04:52:26Z</time>
      </trkpt>
      <trkpt lat="48.48006" lon="7.14814">
        <ele>611.54</ele>
        <time>2019-07-09T04:52:29Z</time>
      </trkpt>
      <trkpt lat="48.47999" lon="7.14806">
        <ele>612.5</ele>
        <time>2019-07-09T04:52:33Z</time>
      </trkpt>
      <trkpt lat="48.47998" lon="7.14803">
        <ele>612.5</ele>
        <time>2019-07-09T04:52:34Z</time>
      </trkpt>
      <trkpt lat="48.47997" lon="7.148">
        <ele>612.5</ele>
        <time>2019-07-09T04:52:35Z</time>
      </trkpt>
      <trkpt lat="48.47993" lon="7.14792">
        <ele>612.02</ele>
        <time>2019-07-09T04:52:38Z</time>
      </trkpt>
      <trkpt lat="48.47991" lon="7.14789">
        <ele>612.5</ele>
        <time>2019-07-09T04:52:39Z</time>
      </trkpt>
      <trkpt lat="48.4799" lon="7.14786">
        <ele>612.02</ele>
        <time>2019-07-09T04:52:40Z</time>
      </trkpt>
      <trkpt lat="48.47989" lon="7.14783">
        <ele>612.02</ele>
        <time>2019-07-09T04:52:41Z</time>
      </trkpt>
      <trkpt lat="48.47988" lon="7.14781">
        <ele>612.02</ele>
        <time>2019-07-09T04:52:42Z</time>
      </trkpt>
      <trkpt lat="48.47976" lon="7.14741">
        <ele>612.02</ele>
        <time>2019-07-09T04:52:57Z</time>
      </trkpt>
      <trkpt lat="48.47958" lon="7.14707">
        <ele>613.46</ele>
        <time>2019-07-09T04:53:14Z</time>
      </trkpt>
      <trkpt lat="48.47942" lon="7.14674">
        <ele>614.42</ele>
        <time>2019-07-09T04:53:30Z</time>
      </trkpt>
      <trkpt lat="48.47928" lon="7.14634">
        <ele>615.38</ele>
        <time>2019-07-09T04:53:48Z</time>
      </trkpt>
      <trkpt lat="48.47918" lon="7.14595">
        <ele>616.34</ele>
        <time>2019-07-09T04:54:05Z</time>
      </trkpt>
      <trkpt lat="48.47914" lon="7.14551">
        <ele>620.67</ele>
        <time>2019-07-09T04:54:24Z</time>
      </trkpt>
      <trkpt lat="48.47912" lon="7.14512">
        <ele>623.55</ele>
        <time>2019-07-09T04:54:41Z</time>
      </trkpt>
      <trkpt lat="48.47908" lon="7.14466">
        <ele>624.03</ele>
        <time>2019-07-09T04:54:58Z</time>
      </trkpt>
      <trkpt lat="48.47902" lon="7.14433">
        <ele>624.03</ele>
        <time>2019-07-09T04:55:12Z</time>
      </trkpt>
      <trkpt lat="48.47891" lon="7.14396">
        <ele>623.55</ele>
        <time>2019-07-09T04:55:28Z</time>
      </trkpt>
      <trkpt lat="48.47885" lon="7.14379">
        <ele>626.44</ele>
        <time>2019-07-09T04:55:36Z</time>
      </trkpt>
      <trkpt lat="48.47884" lon="7.14376">
        <ele>626.92</ele>
        <time>2019-07-09T04:55:37Z</time>
      </trkpt>
      <trkpt lat="48.47883" lon="7.14374">
        <ele>627.4</ele>
        <time>2019-07-09T04:55:38Z</time>
      </trkpt>
      <trkpt lat="48.47882" lon="7.14372">
        <ele>627.4</ele>
        <time>2019-07-09T04:55:39Z</time>
      </trkpt>
      <trkpt lat="48.47881" lon="7.1437">
        <ele>627.88</ele>
        <time>2019-07-09T04:55:40Z</time>
      </trkpt>
      <trkpt lat="48.47864" lon="7.1435">
        <ele>633.65</ele>
        <time>2019-07-09T04:55:51Z</time>
      </trkpt>
      <trkpt lat="48.47863" lon="7.14349">
        <ele>633.65</ele>
        <time>2019-07-09T04:55:52Z</time>
      </trkpt>
      <trkpt lat="48.4786" lon="7.14343">
        <ele>634.13</ele>
        <time>2019-07-09T04:55:55Z</time>
      </trkpt>
      <trkpt lat="48.47859" lon="7.14341">
        <ele>634.61</ele>
        <time>2019-07-09T04:55:56Z</time>
      </trkpt>
      <trkpt lat="48.47858" lon="7.1434">
        <ele>634.61</ele>
        <time>2019-07-09T04:55:57Z</time>
      </trkpt>
      <trkpt lat="48.47857" lon="7.14338">
        <ele>635.09</ele>
        <time>2019-07-09T04:55:58Z</time>
      </trkpt>
      <trkpt lat="48.47856" lon="7.14336">
        <ele>635.09</ele>
        <time>2019-07-09T04:55:59Z</time>
      </trkpt>
      <trkpt lat="48.47855" lon="7.14333">
        <ele>635.57</ele>
        <time>2019-07-09T04:56:00Z</time>
      </trkpt>
      <trkpt lat="48.47853" lon="7.14331">
        <ele>636.05</ele>
        <time>2019-07-09T04:56:01Z</time>
      </trkpt>
      <trkpt lat="48.47852" lon="7.14329">
        <ele>636.05</ele>
        <time>2019-07-09T04:56:02Z</time>
      </trkpt>
      <trkpt lat="48.47851" lon="7.14327">
        <ele>636.05</ele>
        <time>2019-07-09T04:56:03Z</time>
      </trkpt>
      <trkpt lat="48.4785" lon="7.14325">
        <ele>636.05</ele>
        <time>2019-07-09T04:56:04Z</time>
      </trkpt>
      <trkpt lat="48.47849" lon="7.14322">
        <ele>636.05</ele>
        <time>2019-07-09T04:56:05Z</time>
      </trkpt>
      <trkpt lat="48.47834" lon="7.1428">
        <ele>635.57</ele>
        <time>2019-07-09T04:56:23Z</time>
      </trkpt>
      <trkpt lat="48.47823" lon="7.14246">
        <ele>637.01</ele>
        <time>2019-07-09T04:56:37Z</time>
      </trkpt>
      <trkpt lat="48.47818" lon="7.14222">
        <ele>638.93</ele>
        <time>2019-07-09T04:56:48Z</time>
      </trkpt>
      <trkpt lat="48.47817" lon="7.14219">
        <ele>639.41</ele>
        <time>2019-07-09T04:56:49Z</time>
      </trkpt>
      <trkpt lat="48.47809" lon="7.14184">
        <ele>644.7</ele>
        <time>2019-07-09T04:57:05Z</time>
      </trkpt>
      <trkpt lat="48.47806" lon="7.14158">
        <ele>647.59</ele>
        <time>2019-07-09T04:57:17Z</time>
      </trkpt>
      <trkpt lat="48.478" lon="7.14123">
        <ele>649.99</ele>
        <time>2019-07-09T04:57:31Z</time>
      </trkpt>
      <trkpt lat="48.47796" lon="7.14087">
        <ele>651.43</ele>
        <time>2019-07-09T04:57:46Z</time>
      </trkpt>
      <trkpt lat="48.47796" lon="7.14056">
        <ele>652.87</ele>
        <time>2019-07-09T04:58:00Z</time>
      </trkpt>
      <trkpt lat="48.47795" lon="7.14053">
        <ele>653.35</ele>
        <time>2019-07-09T04:58:01Z</time>
      </trkpt>
      <trkpt lat="48.47795" lon="7.14051">
        <ele>653.35</ele>
        <time>2019-07-09T04:58:02Z</time>
      </trkpt>
      <trkpt lat="48.47795" lon="7.14048">
        <ele>653.35</ele>
        <time>2019-07-09T04:58:03Z</time>
      </trkpt>
      <trkpt lat="48.47794" lon="7.14046">
        <ele>653.35</ele>
        <time>2019-07-09T04:58:04Z</time>
      </trkpt>
      <trkpt lat="48.47796" lon="7.14013">
        <ele>655.76</ele>
        <time>2019-07-09T04:58:18Z</time>
      </trkpt>
      <trkpt lat="48.47799" lon="7.13977">
        <ele>656.24</ele>
        <time>2019-07-09T04:58:32Z</time>
      </trkpt>
      <trkpt lat="48.47801" lon="7.13941">
        <ele>657.2</ele>
        <time>2019-07-09T04:58:47Z</time>
      </trkpt>
      <trkpt lat="48.47809" lon="7.13909">
        <ele>657.2</ele>
        <time>2019-07-09T04:59:01Z</time>
      </trkpt>
      <trkpt lat="48.47817" lon="7.13876">
        <ele>659.12</ele>
        <time>2019-07-09T04:59:14Z</time>
      </trkpt>
      <trkpt lat="48.47818" lon="7.13836">
        <ele>662.01</ele>
        <time>2019-07-09T04:59:31Z</time>
      </trkpt>
      <trkpt lat="48.47818" lon="7.13834">
        <ele>662.01</ele>
        <time>2019-07-09T04:59:32Z</time>
      </trkpt>
      <trkpt lat="48.47818" lon="7.13832">
        <ele>662.01</ele>
        <time>2019-07-09T04:59:33Z</time>
      </trkpt>
      <trkpt lat="48.47819" lon="7.13829">
        <ele>662.01</ele>
        <time>2019-07-09T04:59:34Z</time>
      </trkpt>
      <trkpt lat="48.47819" lon="7.13827">
        <ele>662.01</ele>
        <time>2019-07-09T04:59:35Z</time>
      </trkpt>
      <trkpt lat="48.47819" lon="7.13825">
        <ele>662.01</ele>
        <time>2019-07-09T04:59:36Z</time>
      </trkpt>
      <trkpt lat="48.47822" lon="7.13784">
        <ele>662.97</ele>
        <time>2019-07-09T04:59:52Z</time>
      </trkpt>
      <trkpt lat="48.47824" lon="7.13741">
        <ele>665.37</ele>
        <time>2019-07-09T05:00:09Z</time>
      </trkpt>
      <trkpt lat="48.47824" lon="7.1371">
        <ele>667.77</ele>
        <time>2019-07-09T05:00:21Z</time>
      </trkpt>
      <trkpt lat="48.47824" lon="7.13675">
        <ele>668.73</ele>
        <time>2019-07-09T05:00:35Z</time>
      </trkpt>
      <trkpt lat="48.4782" lon="7.13632">
        <ele>666.81</ele>
        <time>2019-07-09T05:00:52Z</time>
      </trkpt>
      <trkpt lat="48.47817" lon="7.13625">
        <ele>666.33</ele>
        <time>2019-07-09T05:01:03Z</time>
      </trkpt>
      <trkpt lat="48.47816" lon="7.13618">
        <ele>668.73</ele>
        <time>2019-07-09T05:01:25Z</time>
      </trkpt>
      <trkpt lat="48.47815" lon="7.13609">
        <ele>669.22</ele>
        <time>2019-07-09T05:01:30Z</time>
      </trkpt>
      <trkpt lat="48.47815" lon="7.13607">
        <ele>669.22</ele>
        <time>2019-07-09T05:01:31Z</time>
      </trkpt>
      <trkpt lat="48.47814" lon="7.13604">
        <ele>669.22</ele>
        <time>2019-07-09T05:01:32Z</time>
      </trkpt>
      <trkpt lat="48.47818" lon="7.13564">
        <ele>672.1</ele>
        <time>2019-07-09T05:01:48Z</time>
      </trkpt>
      <trkpt lat="48.47824" lon="7.13529">
        <ele>673.54</ele>
        <time>2019-07-09T05:02:03Z</time>
      </trkpt>
      <trkpt lat="48.47833" lon="7.13492">
        <ele>675.46</ele>
        <time>2019-07-09T05:02:19Z</time>
      </trkpt>
      <trkpt lat="48.47843" lon="7.13462">
        <ele>677.87</ele>
        <time>2019-07-09T05:02:33Z</time>
      </trkpt>
      <trkpt lat="48.47853" lon="7.13431">
        <ele>681.23</ele>
        <time>2019-07-09T05:02:47Z</time>
      </trkpt>
      <trkpt lat="48.47863" lon="7.13397">
        <ele>683.63</ele>
        <time>2019-07-09T05:03:02Z</time>
      </trkpt>
      <trkpt lat="48.4787" lon="7.13378">
        <ele>684.6</ele>
        <time>2019-07-09T05:03:10Z</time>
      </trkpt>
      <trkpt lat="48.47871" lon="7.13376">
        <ele>684.6</ele>
        <time>2019-07-09T05:03:11Z</time>
      </trkpt>
      <trkpt lat="48.47871" lon="7.13374">
        <ele>685.08</ele>
        <time>2019-07-09T05:03:12Z</time>
      </trkpt>
      <trkpt lat="48.47872" lon="7.13371">
        <ele>685.08</ele>
        <time>2019-07-09T05:03:13Z</time>
      </trkpt>
      <trkpt lat="48.47873" lon="7.13369">
        <ele>685.08</ele>
        <time>2019-07-09T05:03:14Z</time>
      </trkpt>
      <trkpt lat="48.47885" lon="7.13336">
        <ele>687</ele>
        <time>2019-07-09T05:03:28Z</time>
      </trkpt>
      <trkpt lat="48.47897" lon="7.133">
        <ele>691.81</ele>
        <time>2019-07-09T05:03:42Z</time>
      </trkpt>
      <trkpt lat="48.47911" lon="7.13263">
        <ele>698.05</ele>
        <time>2019-07-09T05:03:57Z</time>
      </trkpt>
      <trkpt lat="48.47914" lon="7.13248">
        <ele>700.46</ele>
        <time>2019-07-09T05:04:03Z</time>
      </trkpt>
      <trkpt lat="48.47914" lon="7.13243">
        <ele>701.42</ele>
        <time>2019-07-09T05:04:05Z</time>
      </trkpt>
      <trkpt lat="48.47915" lon="7.13241">
        <ele>701.9</ele>
        <time>2019-07-09T05:04:06Z</time>
      </trkpt>
      <trkpt lat="48.47916" lon="7.13239">
        <ele>702.38</ele>
        <time>2019-07-09T05:04:07Z</time>
      </trkpt>
      <trkpt lat="48.47916" lon="7.13237">
        <ele>702.86</ele>
        <time>2019-07-09T05:04:08Z</time>
      </trkpt>
      <trkpt lat="48.47917" lon="7.13234">
        <ele>703.34</ele>
        <time>2019-07-09T05:04:09Z</time>
      </trkpt>
      <trkpt lat="48.47926" lon="7.13205">
        <ele>707.19</ele>
        <time>2019-07-09T05:04:21Z</time>
      </trkpt>
      <trkpt lat="48.47927" lon="7.13202">
        <ele>707.19</ele>
        <time>2019-07-09T05:04:22Z</time>
      </trkpt>
      <trkpt lat="48.47937" lon="7.13164">
        <ele>707.67</ele>
        <time>2019-07-09T05:04:37Z</time>
      </trkpt>
      <trkpt lat="48.47938" lon="7.13161">
        <ele>707.67</ele>
        <time>2019-07-09T05:04:38Z</time>
      </trkpt>
      <trkpt lat="48.47939" lon="7.13158">
        <ele>708.15</ele>
        <time>2019-07-09T05:04:39Z</time>
      </trkpt>
      <trkpt lat="48.47939" lon="7.13156">
        <ele>708.15</ele>
        <time>2019-07-09T05:04:40Z</time>
      </trkpt>
      <trkpt lat="48.4794" lon="7.13153">
        <ele>708.15</ele>
        <time>2019-07-09T05:04:41Z</time>
      </trkpt>
      <trkpt lat="48.47941" lon="7.13151">
        <ele>708.63</ele>
        <time>2019-07-09T05:04:42Z</time>
      </trkpt>
      <trkpt lat="48.47941" lon="7.1315">
        <ele>708.63</ele>
        <time>2019-07-09T05:04:43Z</time>
      </trkpt>
      <trkpt lat="48.47942" lon="7.13147">
        <ele>709.11</ele>
        <time>2019-07-09T05:04:44Z</time>
      </trkpt>
      <trkpt lat="48.4795" lon="7.13104">
        <ele>712.95</ele>
        <time>2019-07-09T05:04:59Z</time>
      </trkpt>
      <trkpt lat="48.47953" lon="7.13073">
        <ele>716.8</ele>
        <time>2019-07-09T05:05:13Z</time>
      </trkpt>
      <trkpt lat="48.47956" lon="7.13056">
        <ele>717.76</ele>
        <time>2019-07-09T05:05:20Z</time>
      </trkpt>
      <trkpt lat="48.47956" lon="7.13053">
        <ele>717.76</ele>
        <time>2019-07-09T05:05:21Z</time>
      </trkpt>
      <trkpt lat="48.47956" lon="7.13051">
        <ele>717.76</ele>
        <time>2019-07-09T05:05:22Z</time>
      </trkpt>
      <trkpt lat="48.47957" lon="7.13049">
        <ele>718.24</ele>
        <time>2019-07-09T05:05:23Z</time>
      </trkpt>
      <trkpt lat="48.47957" lon="7.13046">
        <ele>718.24</ele>
        <time>2019-07-09T05:05:24Z</time>
      </trkpt>
      <trkpt lat="48.47958" lon="7.13043">
        <ele>718.72</ele>
        <time>2019-07-09T05:05:25Z</time>
      </trkpt>
      <trkpt lat="48.47963" lon="7.13006">
        <ele>721.13</ele>
        <time>2019-07-09T05:05:38Z</time>
      </trkpt>
      <trkpt lat="48.47965" lon="7.12989">
        <ele>723.05</ele>
        <time>2019-07-09T05:05:44Z</time>
      </trkpt>
      <trkpt lat="48.47965" lon="7.12986">
        <ele>723.53</ele>
        <time>2019-07-09T05:05:45Z</time>
      </trkpt>
      <trkpt lat="48.47966" lon="7.12983">
        <ele>723.53</ele>
        <time>2019-07-09T05:05:46Z</time>
      </trkpt>
      <trkpt lat="48.47966" lon="7.1298">
        <ele>724.49</ele>
        <time>2019-07-09T05:05:47Z</time>
      </trkpt>
      <trkpt lat="48.47966" lon="7.12977">
        <ele>724.49</ele>
        <time>2019-07-09T05:05:48Z</time>
      </trkpt>
      <trkpt lat="48.47966" lon="7.12975">
        <ele>724.97</ele>
        <time>2019-07-09T05:05:49Z</time>
      </trkpt>
      <trkpt lat="48.47967" lon="7.12973">
        <ele>725.45</ele>
        <time>2019-07-09T05:05:50Z</time>
      </trkpt>
      <trkpt lat="48.47968" lon="7.1297">
        <ele>725.93</ele>
        <time>2019-07-09T05:05:51Z</time>
      </trkpt>
      <trkpt lat="48.47968" lon="7.12968">
        <ele>725.93</ele>
        <time>2019-07-09T05:05:52Z</time>
      </trkpt>
      <trkpt lat="48.47968" lon="7.12965">
        <ele>726.41</ele>
        <time>2019-07-09T05:05:53Z</time>
      </trkpt>
      <trkpt lat="48.47969" lon="7.12963">
        <ele>726.41</ele>
        <time>2019-07-09T05:05:54Z</time>
      </trkpt>
      <trkpt lat="48.47969" lon="7.1296">
        <ele>726.89</ele>
        <time>2019-07-09T05:05:55Z</time>
      </trkpt>
      <trkpt lat="48.4797" lon="7.12957">
        <ele>727.37</ele>
        <time>2019-07-09T05:05:56Z</time>
      </trkpt>
      <trkpt lat="48.47974" lon="7.12916">
        <ele>729.3</ele>
        <time>2019-07-09T05:06:11Z</time>
      </trkpt>
      <trkpt lat="48.47977" lon="7.12891">
        <ele>731.22</ele>
        <time>2019-07-09T05:06:21Z</time>
      </trkpt>
      <trkpt lat="48.47978" lon="7.12889">
        <ele>731.7</ele>
        <time>2019-07-09T05:06:22Z</time>
      </trkpt>
      <trkpt lat="48.47978" lon="7.12886">
        <ele>731.7</ele>
        <time>2019-07-09T05:06:23Z</time>
      </trkpt>
      <trkpt lat="48.47984" lon="7.12858">
        <ele>732.66</ele>
        <time>2019-07-09T05:06:36Z</time>
      </trkpt>
      <trkpt lat="48.47989" lon="7.12845">
        <ele>732.18</ele>
        <time>2019-07-09T05:06:41Z</time>
      </trkpt>
      <trkpt lat="48.47996" lon="7.12808">
        <ele>734.1</ele>
        <time>2019-07-09T05:06:55Z</time>
      </trkpt>
      <trkpt lat="48.48005" lon="7.12773">
        <ele>734.58</ele>
        <time>2019-07-09T05:07:08Z</time>
      </trkpt>
      <trkpt lat="48.48014" lon="7.12748">
        <ele>736.51</ele>
        <time>2019-07-09T05:07:19Z</time>
      </trkpt>
      <trkpt lat="48.48015" lon="7.12745">
        <ele>736.51</ele>
        <time>2019-07-09T05:07:20Z</time>
      </trkpt>
      <trkpt lat="48.48016" lon="7.12742">
        <ele>736.51</ele>
        <time>2019-07-09T05:07:21Z</time>
      </trkpt>
      <trkpt lat="48.48017" lon="7.1274">
        <ele>736.51</ele>
        <time>2019-07-09T05:07:22Z</time>
      </trkpt>
      <trkpt lat="48.48018" lon="7.12737">
        <ele>736.51</ele>
        <time>2019-07-09T05:07:23Z</time>
      </trkpt>
      <trkpt lat="48.48019" lon="7.12735">
        <ele>736.51</ele>
        <time>2019-07-09T05:07:24Z</time>
      </trkpt>
      <trkpt lat="48.4802" lon="7.12732">
        <ele>736.51</ele>
        <time>2019-07-09T05:07:25Z</time>
      </trkpt>
      <trkpt lat="48.48021" lon="7.12729">
        <ele>736.03</ele>
        <time>2019-07-09T05:07:26Z</time>
      </trkpt>
      <trkpt lat="48.48022" lon="7.12726">
        <ele>736.03</ele>
        <time>2019-07-09T05:07:27Z</time>
      </trkpt>
      <trkpt lat="48.48022" lon="7.12723">
        <ele>735.55</ele>
        <time>2019-07-09T05:07:28Z</time>
      </trkpt>
      <trkpt lat="48.48023" lon="7.12721">
        <ele>735.07</ele>
        <time>2019-07-09T05:07:29Z</time>
      </trkpt>
      <trkpt lat="48.48024" lon="7.12718">
        <ele>734.58</ele>
        <time>2019-07-09T05:07:30Z</time>
      </trkpt>
      <trkpt lat="48.48025" lon="7.12715">
        <ele>734.1</ele>
        <time>2019-07-09T05:07:31Z</time>
      </trkpt>
      <trkpt lat="48.48025" lon="7.12712">
        <ele>734.1</ele>
        <time>2019-07-09T05:07:32Z</time>
      </trkpt>
      <trkpt lat="48.48026" lon="7.1271">
        <ele>734.1</ele>
        <time>2019-07-09T05:07:33Z</time>
      </trkpt>
      <trkpt lat="48.48026" lon="7.12707">
        <ele>734.1</ele>
        <time>2019-07-09T05:07:34Z</time>
      </trkpt>
      <trkpt lat="48.48027" lon="7.12704">
        <ele>734.1</ele>
        <time>2019-07-09T05:07:35Z</time>
      </trkpt>
      <trkpt lat="48.48028" lon="7.12668">
        <ele>731.7</ele>
        <time>2019-07-09T05:07:49Z</time>
      </trkpt>
      <trkpt lat="48.48029" lon="7.12659">
        <ele>731.22</ele>
        <time>2019-07-09T05:07:52Z</time>
      </trkpt>
      <trkpt lat="48.4803" lon="7.12657">
        <ele>731.22</ele>
        <time>2019-07-09T05:07:53Z</time>
      </trkpt>
      <trkpt lat="48.4803" lon="7.12654">
        <ele>731.22</ele>
        <time>2019-07-09T05:07:54Z</time>
      </trkpt>
      <trkpt lat="48.48032" lon="7.12626">
        <ele>730.74</ele>
        <time>2019-07-09T05:08:05Z</time>
      </trkpt>
      <trkpt lat="48.48032" lon="7.12623">
        <ele>730.74</ele>
        <time>2019-07-09T05:08:06Z</time>
      </trkpt>
      <trkpt lat="48.4804" lon="7.12588">
        <ele>730.74</ele>
        <time>2019-07-09T05:08:20Z</time>
      </trkpt>
      <trkpt lat="48.4805" lon="7.12555">
        <ele>735.07</ele>
        <time>2019-07-09T05:08:34Z</time>
      </trkpt>
      <trkpt lat="48.48053" lon="7.12546">
        <ele>735.07</ele>
        <time>2019-07-09T05:08:38Z</time>
      </trkpt>
      <trkpt lat="48.48054" lon="7.12545">
        <ele>735.07</ele>
        <time>2019-07-09T05:08:39Z</time>
      </trkpt>
      <trkpt lat="48.48054" lon="7.12543">
        <ele>735.07</ele>
        <time>2019-07-09T05:08:40Z</time>
      </trkpt>
      <trkpt lat="48.48055" lon="7.12541">
        <ele>735.07</ele>
        <time>2019-07-09T05:08:41Z</time>
      </trkpt>
      <trkpt lat="48.48057" lon="7.12539">
        <ele>735.55</ele>
        <time>2019-07-09T05:08:42Z</time>
      </trkpt>
      <trkpt lat="48.48071" lon="7.12523">
        <ele>737.47</ele>
        <time>2019-07-09T05:08:53Z</time>
      </trkpt>
      <trkpt lat="48.4809" lon="7.12504">
        <ele>736.99</ele>
        <time>2019-07-09T05:09:07Z</time>
      </trkpt>
      <trkpt lat="48.48114" lon="7.12482">
        <ele>740.83</ele>
        <time>2019-07-09T05:09:21Z</time>
      </trkpt>
      <trkpt lat="48.48119" lon="7.12467">
        <ele>741.31</ele>
        <time>2019-07-09T05:09:27Z</time>
      </trkpt>
      <trkpt lat="48.4812" lon="7.12465">
        <ele>741.31</ele>
        <time>2019-07-09T05:09:28Z</time>
      </trkpt>
      <trkpt lat="48.48121" lon="7.12462">
        <ele>741.31</ele>
        <time>2019-07-09T05:09:29Z</time>
      </trkpt>
      <trkpt lat="48.48121" lon="7.1246">
        <ele>741.31</ele>
        <time>2019-07-09T05:09:30Z</time>
      </trkpt>
      <trkpt lat="48.48122" lon="7.12457">
        <ele>740.83</ele>
        <time>2019-07-09T05:09:31Z</time>
      </trkpt>
      <trkpt lat="48.48123" lon="7.12455">
        <ele>740.83</ele>
        <time>2019-07-09T05:09:32Z</time>
      </trkpt>
      <trkpt lat="48.48124" lon="7.12452">
        <ele>740.35</ele>
        <time>2019-07-09T05:09:33Z</time>
      </trkpt>
      <trkpt lat="48.48124" lon="7.12449">
        <ele>740.35</ele>
        <time>2019-07-09T05:09:34Z</time>
      </trkpt>
      <trkpt lat="48.48125" lon="7.12446">
        <ele>740.35</ele>
        <time>2019-07-09T05:09:35Z</time>
      </trkpt>
      <trkpt lat="48.48125" lon="7.12443">
        <ele>739.87</ele>
        <time>2019-07-09T05:09:36Z</time>
      </trkpt>
      <trkpt lat="48.48125" lon="7.1244">
        <ele>739.87</ele>
        <time>2019-07-09T05:09:37Z</time>
      </trkpt>
      <trkpt lat="48.48126" lon="7.12437">
        <ele>739.87</ele>
        <time>2019-07-09T05:09:38Z</time>
      </trkpt>
      <trkpt lat="48.48126" lon="7.12435">
        <ele>739.87</ele>
        <time>2019-07-09T05:09:39Z</time>
      </trkpt>
      <trkpt lat="48.48126" lon="7.12432">
        <ele>739.87</ele>
        <time>2019-07-09T05:09:40Z</time>
      </trkpt>
      <trkpt lat="48.48126" lon="7.1243">
        <ele>739.87</ele>
        <time>2019-07-09T05:09:41Z</time>
      </trkpt>
      <trkpt lat="48.48127" lon="7.12386">
        <ele>739.87</ele>
        <time>2019-07-09T05:09:57Z</time>
      </trkpt>
      <trkpt lat="48.48127" lon="7.12377">
        <ele>739.87</ele>
        <time>2019-07-09T05:10:00Z</time>
      </trkpt>
      <trkpt lat="48.48127" lon="7.12375">
        <ele>739.87</ele>
        <time>2019-07-09T05:10:01Z</time>
      </trkpt>
      <trkpt lat="48.48126" lon="7.12372">
        <ele>739.87</ele>
        <time>2019-07-09T05:10:02Z</time>
      </trkpt>
      <trkpt lat="48.48126" lon="7.12369">
        <ele>739.87</ele>
        <time>2019-07-09T05:10:03Z</time>
      </trkpt>
      <trkpt lat="48.48126" lon="7.12368">
        <ele>739.87</ele>
        <time>2019-07-09T05:10:04Z</time>
      </trkpt>
      <trkpt lat="48.48125" lon="7.12365">
        <ele>740.35</ele>
        <time>2019-07-09T05:10:05Z</time>
      </trkpt>
      <trkpt lat="48.48117" lon="7.12328">
        <ele>741.79</ele>
        <time>2019-07-09T05:10:21Z</time>
      </trkpt>
      <trkpt lat="48.48115" lon="7.12307">
        <ele>742.76</ele>
        <time>2019-07-09T05:10:29Z</time>
      </trkpt>
      <trkpt lat="48.48115" lon="7.12303">
        <ele>742.76</ele>
        <time>2019-07-09T05:10:30Z</time>
      </trkpt>
      <trkpt lat="48.48115" lon="7.123">
        <ele>742.28</ele>
        <time>2019-07-09T05:10:31Z</time>
      </trkpt>
      <trkpt lat="48.48113" lon="7.12265">
        <ele>746.6</ele>
        <time>2019-07-09T05:10:44Z</time>
      </trkpt>
      <trkpt lat="48.4812" lon="7.12225">
        <ele>749.49</ele>
        <time>2019-07-09T05:11:01Z</time>
      </trkpt>
      <trkpt lat="48.48122" lon="7.12215">
        <ele>750.45</ele>
        <time>2019-07-09T05:11:06Z</time>
      </trkpt>
      <trkpt lat="48.48121" lon="7.12213">
        <ele>750.93</ele>
        <time>2019-07-09T05:11:07Z</time>
      </trkpt>
      <trkpt lat="48.48121" lon="7.12211">
        <ele>750.93</ele>
        <time>2019-07-09T05:11:08Z</time>
      </trkpt>
      <trkpt lat="48.48121" lon="7.12209">
        <ele>751.41</ele>
        <time>2019-07-09T05:11:09Z</time>
      </trkpt>
      <trkpt lat="48.48122" lon="7.12207">
        <ele>751.41</ele>
        <time>2019-07-09T05:11:10Z</time>
      </trkpt>
      <trkpt lat="48.4812" lon="7.12199">
        <ele>752.37</ele>
        <time>2019-07-09T05:11:15Z</time>
      </trkpt>
      <trkpt lat="48.48119" lon="7.12198">
        <ele>752.37</ele>
        <time>2019-07-09T05:11:16Z</time>
      </trkpt>
      <trkpt lat="48.48097" lon="7.12181">
        <ele>751.89</ele>
        <time>2019-07-09T05:11:29Z</time>
      </trkpt>
      <trkpt lat="48.48094" lon="7.12179">
        <ele>752.37</ele>
        <time>2019-07-09T05:11:31Z</time>
      </trkpt>
      <trkpt lat="48.48092" lon="7.12177">
        <ele>752.37</ele>
        <time>2019-07-09T05:11:32Z</time>
      </trkpt>
      <trkpt lat="48.48089" lon="7.12176">
        <ele>752.37</ele>
        <time>2019-07-09T05:11:33Z</time>
      </trkpt>
      <trkpt lat="48.48081" lon="7.12173">
        <ele>752.37</ele>
        <time>2019-07-09T05:11:41Z</time>
      </trkpt>
      <trkpt lat="48.48087" lon="7.12176">
        <ele>753.33</ele>
        <time>2019-07-09T05:11:46Z</time>
      </trkpt>
      <trkpt lat="48.48108" lon="7.12193">
        <ele>750.45</ele>
        <time>2019-07-09T05:11:58Z</time>
      </trkpt>
      <trkpt lat="48.48117" lon="7.12197">
        <ele>750.45</ele>
        <time>2019-07-09T05:12:03Z</time>
      </trkpt>
      <trkpt lat="48.48118" lon="7.12196">
        <ele>750.93</ele>
        <time>2019-07-09T05:12:04Z</time>
      </trkpt>
      <trkpt lat="48.48119" lon="7.12194">
        <ele>750.93</ele>
        <time>2019-07-09T05:12:05Z</time>
      </trkpt>
      <trkpt lat="48.4812" lon="7.12191">
        <ele>751.41</ele>
        <time>2019-07-09T05:12:06Z</time>
      </trkpt>
      <trkpt lat="48.48119" lon="7.12189">
        <ele>751.89</ele>
        <time>2019-07-09T05:12:07Z</time>
      </trkpt>
      <trkpt lat="48.48119" lon="7.12187">
        <ele>752.37</ele>
        <time>2019-07-09T05:12:08Z</time>
      </trkpt>
      <trkpt lat="48.48117" lon="7.12185">
        <ele>752.37</ele>
        <time>2019-07-09T05:12:09Z</time>
      </trkpt>
      <trkpt lat="48.48116" lon="7.12184">
        <ele>752.37</ele>
        <time>2019-07-09T05:12:10Z</time>
      </trkpt>
      <trkpt lat="48.48115" lon="7.12183">
        <ele>752.85</ele>
        <time>2019-07-09T05:12:11Z</time>
      </trkpt>
      <trkpt lat="48.48114" lon="7.12181">
        <ele>753.33</ele>
        <time>2019-07-09T05:12:12Z</time>
      </trkpt>
      <trkpt lat="48.48113" lon="7.12179">
        <ele>753.81</ele>
        <time>2019-07-09T05:12:13Z</time>
      </trkpt>
      <trkpt lat="48.48112" lon="7.12178">
        <ele>754.29</ele>
        <time>2019-07-09T05:12:14Z</time>
      </trkpt>
      <trkpt lat="48.481" lon="7.12161">
        <ele>760.06</ele>
        <time>2019-07-09T05:12:25Z</time>
      </trkpt>
      <trkpt lat="48.48098" lon="7.12159">
        <ele>760.06</ele>
        <time>2019-07-09T05:12:26Z</time>
      </trkpt>
      <trkpt lat="48.48097" lon="7.12158">
        <ele>760.54</ele>
        <time>2019-07-09T05:12:27Z</time>
      </trkpt>
      <trkpt lat="48.48096" lon="7.12157">
        <ele>761.02</ele>
        <time>2019-07-09T05:12:28Z</time>
      </trkpt>
      <trkpt lat="48.48095" lon="7.12155">
        <ele>761.5</ele>
        <time>2019-07-09T05:12:29Z</time>
      </trkpt>
      <trkpt lat="48.48094" lon="7.12154">
        <ele>761.98</ele>
        <time>2019-07-09T05:12:30Z</time>
      </trkpt>
      <trkpt lat="48.48081" lon="7.12146">
        <ele>763.9</ele>
        <time>2019-07-09T05:12:40Z</time>
      </trkpt>
      <trkpt lat="48.4808" lon="7.12144">
        <ele>764.39</ele>
        <time>2019-07-09T05:12:41Z</time>
      </trkpt>
      <trkpt lat="48.48078" lon="7.12142">
        <ele>764.87</ele>
        <time>2019-07-09T05:12:43Z</time>
      </trkpt>
      <trkpt lat="48.48076" lon="7.12141">
        <ele>765.35</ele>
        <time>2019-07-09T05:12:44Z</time>
      </trkpt>
      <trkpt lat="48.48072" lon="7.12136">
        <ele>766.79</ele>
        <time>2019-07-09T05:12:48Z</time>
      </trkpt>
      <trkpt lat="48.48058" lon="7.12114">
        <ele>771.11</ele>
        <time>2019-07-09T05:13:01Z</time>
      </trkpt>
      <trkpt lat="48.48044" lon="7.12084">
        <ele>774.48</ele>
        <time>2019-07-09T05:13:14Z</time>
      </trkpt>
      <trkpt lat="48.48042" lon="7.12082">
        <ele>774.48</ele>
        <time>2019-07-09T05:13:15Z</time>
      </trkpt>
      <trkpt lat="48.48041" lon="7.1208">
        <ele>774.96</ele>
        <time>2019-07-09T05:13:16Z</time>
      </trkpt>
      <trkpt lat="48.4804" lon="7.12078">
        <ele>775.44</ele>
        <time>2019-07-09T05:13:17Z</time>
      </trkpt>
      <trkpt lat="48.48039" lon="7.12076">
        <ele>775.92</ele>
        <time>2019-07-09T05:13:18Z</time>
      </trkpt>
      <trkpt lat="48.48038" lon="7.12074">
        <ele>776.4</ele>
        <time>2019-07-09T05:13:19Z</time>
      </trkpt>
      <trkpt lat="48.48037" lon="7.12072">
        <ele>776.4</ele>
        <time>2019-07-09T05:13:20Z</time>
      </trkpt>
      <trkpt lat="48.48036" lon="7.12071">
        <ele>776.88</ele>
        <time>2019-07-09T05:13:21Z</time>
      </trkpt>
      <trkpt lat="48.48035" lon="7.12069">
        <ele>776.88</ele>
        <time>2019-07-09T05:13:22Z</time>
      </trkpt>
      <trkpt lat="48.48033" lon="7.12067">
        <ele>777.36</ele>
        <time>2019-07-09T05:13:23Z</time>
      </trkpt>
      <trkpt lat="48.48032" lon="7.12065">
        <ele>777.84</ele>
        <time>2019-07-09T05:13:24Z</time>
      </trkpt>
      <trkpt lat="48.48031" lon="7.12064">
        <ele>777.84</ele>
        <time>2019-07-09T05:13:25Z</time>
      </trkpt>
      <trkpt lat="48.48016" lon="7.12035">
        <ele>778.81</ele>
        <time>2019-07-09T05:13:38Z</time>
      </trkpt>
      <trkpt lat="48.48001" lon="7.12001">
        <ele>780.73</ele>
        <time>2019-07-09T05:13:53Z</time>
      </trkpt>
      <trkpt lat="48.48" lon="7.11999">
        <ele>780.73</ele>
        <time>2019-07-09T05:13:54Z</time>
      </trkpt>
      <trkpt lat="48.47999" lon="7.11997">
        <ele>780.73</ele>
        <time>2019-07-09T05:13:55Z</time>
      </trkpt>
      <trkpt lat="48.47998" lon="7.11995">
        <ele>781.21</ele>
        <time>2019-07-09T05:13:56Z</time>
      </trkpt>
      <trkpt lat="48.47997" lon="7.11992">
        <ele>781.21</ele>
        <time>2019-07-09T05:13:57Z</time>
      </trkpt>
      <trkpt lat="48.47996" lon="7.1199">
        <ele>781.69</ele>
        <time>2019-07-09T05:13:58Z</time>
      </trkpt>
      <trkpt lat="48.47995" lon="7.11988">
        <ele>781.69</ele>
        <time>2019-07-09T05:13:59Z</time>
      </trkpt>
      <trkpt lat="48.47995" lon="7.11985">
        <ele>782.17</ele>
        <time>2019-07-09T05:14:00Z</time>
      </trkpt>
      <trkpt lat="48.47994" lon="7.11983">
        <ele>782.17</ele>
        <time>2019-07-09T05:14:01Z</time>
      </trkpt>
      <trkpt lat="48.47978" lon="7.11956">
        <ele>783.13</ele>
        <time>2019-07-09T05:14:14Z</time>
      </trkpt>
      <trkpt lat="48.47967" lon="7.11937">
        <ele>785.53</ele>
        <time>2019-07-09T05:14:26Z</time>
      </trkpt>
      <trkpt lat="48.47966" lon="7.11936">
        <ele>785.53</ele>
        <time>2019-07-09T05:14:27Z</time>
      </trkpt>
      <trkpt lat="48.47957" lon="7.11925">
        <ele>787.46</ele>
        <time>2019-07-09T05:14:35Z</time>
      </trkpt>
      <trkpt lat="48.47956" lon="7.11923">
        <ele>787.46</ele>
        <time>2019-07-09T05:14:36Z</time>
      </trkpt>
      <trkpt lat="48.47955" lon="7.11922">
        <ele>787.94</ele>
        <time>2019-07-09T05:14:37Z</time>
      </trkpt>
      <trkpt lat="48.47954" lon="7.1192">
        <ele>787.94</ele>
        <time>2019-07-09T05:14:38Z</time>
      </trkpt>
      <trkpt lat="48.47953" lon="7.11918">
        <ele>788.42</ele>
        <time>2019-07-09T05:14:39Z</time>
      </trkpt>
      <trkpt lat="48.47952" lon="7.11917">
        <ele>788.42</ele>
        <time>2019-07-09T05:14:40Z</time>
      </trkpt>
      <trkpt lat="48.47951" lon="7.11916">
        <ele>788.9</ele>
        <time>2019-07-09T05:14:41Z</time>
      </trkpt>
      <trkpt lat="48.47949" lon="7.11914">
        <ele>789.38</ele>
        <time>2019-07-09T05:14:42Z</time>
      </trkpt>
      <trkpt lat="48.47948" lon="7.11913">
        <ele>789.86</ele>
        <time>2019-07-09T05:14:43Z</time>
      </trkpt>
      <trkpt lat="48.47947" lon="7.11912">
        <ele>789.86</ele>
        <time>2019-07-09T05:14:44Z</time>
      </trkpt>
      <trkpt lat="48.47934" lon="7.11891">
        <ele>794.19</ele>
        <time>2019-07-09T05:14:58Z</time>
      </trkpt>
      <trkpt lat="48.47917" lon="7.11855">
        <ele>792.74</ele>
        <time>2019-07-09T05:15:12Z</time>
      </trkpt>
      <trkpt lat="48.47901" lon="7.11821">
        <ele>791.78</ele>
        <time>2019-07-09T05:15:27Z</time>
      </trkpt>
      <trkpt lat="48.47883" lon="7.1178">
        <ele>792.74</ele>
        <time>2019-07-09T05:15:45Z</time>
      </trkpt>
      <trkpt lat="48.4787" lon="7.11744">
        <ele>791.78</ele>
        <time>2019-07-09T05:16:01Z</time>
      </trkpt>
      <trkpt lat="48.47868" lon="7.11734">
        <ele>791.78</ele>
        <time>2019-07-09T05:16:05Z</time>
      </trkpt>
      <trkpt lat="48.47867" lon="7.11732">
        <ele>791.78</ele>
        <time>2019-07-09T05:16:06Z</time>
      </trkpt>
      <trkpt lat="48.47867" lon="7.1173">
        <ele>791.78</ele>
        <time>2019-07-09T05:16:07Z</time>
      </trkpt>
      <trkpt lat="48.47866" lon="7.11728">
        <ele>792.26</ele>
        <time>2019-07-09T05:16:08Z</time>
      </trkpt>
      <trkpt lat="48.47865" lon="7.11726">
        <ele>792.26</ele>
        <time>2019-07-09T05:16:09Z</time>
      </trkpt>
      <trkpt lat="48.47858" lon="7.11712">
        <ele>792.26</ele>
        <time>2019-07-09T05:16:17Z</time>
      </trkpt>
      <trkpt lat="48.47856" lon="7.11712">
        <ele>792.26</ele>
        <time>2019-07-09T05:16:18Z</time>
      </trkpt>
      <trkpt lat="48.47855" lon="7.11713">
        <ele>791.78</ele>
        <time>2019-07-09T05:16:19Z</time>
      </trkpt>
      <trkpt lat="48.47831" lon="7.11716">
        <ele>792.26</ele>
        <time>2019-07-09T05:16:35Z</time>
      </trkpt>
      <trkpt lat="48.47808" lon="7.11723">
        <ele>794.19</ele>
        <time>2019-07-09T05:16:51Z</time>
      </trkpt>
      <trkpt lat="48.47804" lon="7.11729">
        <ele>794.67</ele>
        <time>2019-07-09T05:16:57Z</time>
      </trkpt>
      <trkpt lat="48.47802" lon="7.11732">
        <ele>795.63</ele>
        <time>2019-07-09T05:17:07Z</time>
      </trkpt>
      <trkpt lat="48.47797" lon="7.11738">
        <ele>796.59</ele>
        <time>2019-07-09T05:17:17Z</time>
      </trkpt>
      <trkpt lat="48.47802" lon="7.11743">
        <ele>794.67</ele>
        <time>2019-07-09T05:17:56Z</time>
      </trkpt>
      <trkpt lat="48.47796" lon="7.11744">
        <ele>793.71</ele>
        <time>2019-07-09T05:18:21Z</time>
      </trkpt>
      <trkpt lat="48.47786" lon="7.11758">
        <ele>794.19</ele>
        <time>2019-07-09T05:18:32Z</time>
      </trkpt>
      <trkpt lat="48.47785" lon="7.1176">
        <ele>793.71</ele>
        <time>2019-07-09T05:18:33Z</time>
      </trkpt>
      <trkpt lat="48.47784" lon="7.11761">
        <ele>793.71</ele>
        <time>2019-07-09T05:18:34Z</time>
      </trkpt>
      <trkpt lat="48.47783" lon="7.11763">
        <ele>793.22</ele>
        <time>2019-07-09T05:18:35Z</time>
      </trkpt>
      <trkpt lat="48.47778" lon="7.11771">
        <ele>792.74</ele>
        <time>2019-07-09T05:18:40Z</time>
      </trkpt>
      <trkpt lat="48.47777" lon="7.11772">
        <ele>792.74</ele>
        <time>2019-07-09T05:18:41Z</time>
      </trkpt>
      <trkpt lat="48.47776" lon="7.11773">
        <ele>792.74</ele>
        <time>2019-07-09T05:18:42Z</time>
      </trkpt>
      <trkpt lat="48.47775" lon="7.11775">
        <ele>792.74</ele>
        <time>2019-07-09T05:18:43Z</time>
      </trkpt>
      <trkpt lat="48.47774" lon="7.11776">
        <ele>792.74</ele>
        <time>2019-07-09T05:18:44Z</time>
      </trkpt>
      <trkpt lat="48.47773" lon="7.11777">
        <ele>792.26</ele>
        <time>2019-07-09T05:18:45Z</time>
      </trkpt>
      <trkpt lat="48.47773" lon="7.11779">
        <ele>792.74</ele>
        <time>2019-07-09T05:18:46Z</time>
      </trkpt>
      <trkpt lat="48.47772" lon="7.1178">
        <ele>792.74</ele>
        <time>2019-07-09T05:18:47Z</time>
      </trkpt>
      <trkpt lat="48.47761" lon="7.11801">
        <ele>795.15</ele>
        <time>2019-07-09T05:19:00Z</time>
      </trkpt>
      <trkpt lat="48.47761" lon="7.11803">
        <ele>795.63</ele>
        <time>2019-07-09T05:19:04Z</time>
      </trkpt>
      <trkpt lat="48.47756" lon="7.11814">
        <ele>797.07</ele>
        <time>2019-07-09T05:19:13Z</time>
      </trkpt>
      <trkpt lat="48.47751" lon="7.11825">
        <ele>796.59</ele>
        <time>2019-07-09T05:19:24Z</time>
      </trkpt>
      <trkpt lat="48.47742" lon="7.11847">
        <ele>800.44</ele>
        <time>2019-07-09T05:19:37Z</time>
      </trkpt>
      <trkpt lat="48.4774" lon="7.1185">
        <ele>800.92</ele>
        <time>2019-07-09T05:19:39Z</time>
      </trkpt>
      <trkpt lat="48.4774" lon="7.11852">
        <ele>800.92</ele>
        <time>2019-07-09T05:19:40Z</time>
      </trkpt>
      <trkpt lat="48.4774" lon="7.11854">
        <ele>800.92</ele>
        <time>2019-07-09T05:19:41Z</time>
      </trkpt>
      <trkpt lat="48.47739" lon="7.11857">
        <ele>800.92</ele>
        <time>2019-07-09T05:19:42Z</time>
      </trkpt>
      <trkpt lat="48.47739" lon="7.11859">
        <ele>800.92</ele>
        <time>2019-07-09T05:19:43Z</time>
      </trkpt>
      <trkpt lat="48.47739" lon="7.11861">
        <ele>800.92</ele>
        <time>2019-07-09T05:19:44Z</time>
      </trkpt>
      <trkpt lat="48.47731" lon="7.11879">
        <ele>800.44</ele>
        <time>2019-07-09T05:19:55Z</time>
      </trkpt>
      <trkpt lat="48.47722" lon="7.11898">
        <ele>797.55</ele>
        <time>2019-07-09T05:20:05Z</time>
      </trkpt>
      <trkpt lat="48.47713" lon="7.1192">
        <ele>791.3</ele>
        <time>2019-07-09T05:20:19Z</time>
      </trkpt>
      <trkpt lat="48.47711" lon="7.11934">
        <ele>789.38</ele>
        <time>2019-07-09T05:20:27Z</time>
      </trkpt>
      <trkpt lat="48.47709" lon="7.11946">
        <ele>789.38</ele>
        <time>2019-07-09T05:20:32Z</time>
      </trkpt>
      <trkpt lat="48.47709" lon="7.11947">
        <ele>788.9</ele>
        <time>2019-07-09T05:20:33Z</time>
      </trkpt>
      <trkpt lat="48.47708" lon="7.11949">
        <ele>788.9</ele>
        <time>2019-07-09T05:20:34Z</time>
      </trkpt>
      <trkpt lat="48.47707" lon="7.11951">
        <ele>788.9</ele>
        <time>2019-07-09T05:20:35Z</time>
      </trkpt>
      <trkpt lat="48.47707" lon="7.11953">
        <ele>788.42</ele>
        <time>2019-07-09T05:20:36Z</time>
      </trkpt>
      <trkpt lat="48.47706" lon="7.11955">
        <ele>787.94</ele>
        <time>2019-07-09T05:20:37Z</time>
      </trkpt>
      <trkpt lat="48.47705" lon="7.11957">
        <ele>787.46</ele>
        <time>2019-07-09T05:20:38Z</time>
      </trkpt>
      <trkpt lat="48.47704" lon="7.11959">
        <ele>786.98</ele>
        <time>2019-07-09T05:20:39Z</time>
      </trkpt>
      <trkpt lat="48.47693" lon="7.11979">
        <ele>781.69</ele>
        <time>2019-07-09T05:20:51Z</time>
      </trkpt>
      <trkpt lat="48.47688" lon="7.12001">
        <ele>785.05</ele>
        <time>2019-07-09T05:21:04Z</time>
      </trkpt>
      <trkpt lat="48.47688" lon="7.12023">
        <ele>789.86</ele>
        <time>2019-07-09T05:21:15Z</time>
      </trkpt>
      <trkpt lat="48.47688" lon="7.12029">
        <ele>792.26</ele>
        <time>2019-07-09T05:21:18Z</time>
      </trkpt>
      <trkpt lat="48.47686" lon="7.12054">
        <ele>798.03</ele>
        <time>2019-07-09T05:21:32Z</time>
      </trkpt>
      <trkpt lat="48.47682" lon="7.12067">
        <ele>798.99</ele>
        <time>2019-07-09T05:21:39Z</time>
      </trkpt>
      <trkpt lat="48.47681" lon="7.12068">
        <ele>798.03</ele>
        <time>2019-07-09T05:21:40Z</time>
      </trkpt>
      <trkpt lat="48.47678" lon="7.12094">
        <ele>803.32</ele>
        <time>2019-07-09T05:21:54Z</time>
      </trkpt>
      <trkpt lat="48.47677" lon="7.12099">
        <ele>804.76</ele>
        <time>2019-07-09T05:21:57Z</time>
      </trkpt>
      <trkpt lat="48.47676" lon="7.12125">
        <ele>810.05</ele>
        <time>2019-07-09T05:22:10Z</time>
      </trkpt>
      <trkpt lat="48.47676" lon="7.12151">
        <ele>815.82</ele>
        <time>2019-07-09T05:22:23Z</time>
      </trkpt>
      <trkpt lat="48.47674" lon="7.12175">
        <ele>817.74</ele>
        <time>2019-07-09T05:22:37Z</time>
      </trkpt>
      <trkpt lat="48.47672" lon="7.12194">
        <ele>820.62</ele>
        <time>2019-07-09T05:22:47Z</time>
      </trkpt>
      <trkpt lat="48.47672" lon="7.12196">
        <ele>820.62</ele>
        <time>2019-07-09T05:22:48Z</time>
      </trkpt>
      <trkpt lat="48.47673" lon="7.12202">
        <ele>822.55</ele>
        <time>2019-07-09T05:22:51Z</time>
      </trkpt>
      <trkpt lat="48.47679" lon="7.12237">
        <ele>836.96</ele>
        <time>2019-07-09T05:23:07Z</time>
      </trkpt>
      <trkpt lat="48.47679" lon="7.12239">
        <ele>837.45</ele>
        <time>2019-07-09T05:23:08Z</time>
      </trkpt>
      <trkpt lat="48.47678" lon="7.1224">
        <ele>837.45</ele>
        <time>2019-07-09T05:23:09Z</time>
      </trkpt>
      <trkpt lat="48.47678" lon="7.12242">
        <ele>837.45</ele>
        <time>2019-07-09T05:23:10Z</time>
      </trkpt>
      <trkpt lat="48.47673" lon="7.12268">
        <ele>839.85</ele>
        <time>2019-07-09T05:23:23Z</time>
      </trkpt>
      <trkpt lat="48.47672" lon="7.12272">
        <ele>840.81</ele>
        <time>2019-07-09T05:23:26Z</time>
      </trkpt>
      <trkpt lat="48.47669" lon="7.12293">
        <ele>842.73</ele>
        <time>2019-07-09T05:23:38Z</time>
      </trkpt>
      <trkpt lat="48.47659" lon="7.12311">
        <ele>843.69</ele>
        <time>2019-07-09T05:23:50Z</time>
      </trkpt>
      <trkpt lat="48.47655" lon="7.12316">
        <ele>849.94</ele>
        <time>2019-07-09T05:24:01Z</time>
      </trkpt>
      <trkpt lat="48.47654" lon="7.12321">
        <ele>861.48</ele>
        <time>2019-07-09T05:24:15Z</time>
      </trkpt>
      <trkpt lat="48.47651" lon="7.1232">
        <ele>864.36</ele>
        <time>2019-07-09T05:24:23Z</time>
      </trkpt>
      <trkpt lat="48.47651" lon="7.12317">
        <ele>864.84</ele>
        <time>2019-07-09T05:24:25Z</time>
      </trkpt>
      <trkpt lat="48.47649" lon="7.12316">
        <ele>864.84</ele>
        <time>2019-07-09T05:24:35Z</time>
      </trkpt>
      <trkpt lat="48.4765" lon="7.12313">
        <ele>865.32</ele>
        <time>2019-07-09T05:25:08Z</time>
      </trkpt>
      <trkpt lat="48.47646" lon="7.12298">
        <ele>865.8</ele>
        <time>2019-07-09T05:25:17Z</time>
      </trkpt>
      <trkpt lat="48.47639" lon="7.12275">
        <ele>866.77</ele>
        <time>2019-07-09T05:25:29Z</time>
      </trkpt>
      <trkpt lat="48.47639" lon="7.12276">
        <ele>866.77</ele>
        <time>2019-07-09T05:25:33Z</time>
      </trkpt>
      <trkpt lat="48.4764" lon="7.12282">
        <ele>866.77</ele>
        <time>2019-07-09T05:25:38Z</time>
      </trkpt>
      <trkpt lat="48.4764" lon="7.12284">
        <ele>866.77</ele>
        <time>2019-07-09T05:25:39Z</time>
      </trkpt>
      <trkpt lat="48.47638" lon="7.12291">
        <ele>865.8</ele>
        <time>2019-07-09T05:25:53Z</time>
      </trkpt>
      <trkpt lat="48.47638" lon="7.12292">
        <ele>865.8</ele>
        <time>2019-07-09T05:25:54Z</time>
      </trkpt>
      <trkpt lat="48.47636" lon="7.12292">
        <ele>867.25</ele>
        <time>2019-07-09T05:26:06Z</time>
      </trkpt>
      <trkpt lat="48.47635" lon="7.1229">
        <ele>867.25</ele>
        <time>2019-07-09T05:26:07Z</time>
      </trkpt>
      <trkpt lat="48.47635" lon="7.12288">
        <ele>866.77</ele>
        <time>2019-07-09T05:26:08Z</time>
      </trkpt>
      <trkpt lat="48.47634" lon="7.12286">
        <ele>866.29</ele>
        <time>2019-07-09T05:26:09Z</time>
      </trkpt>
      <trkpt lat="48.47634" lon="7.12284">
        <ele>866.29</ele>
        <time>2019-07-09T05:26:10Z</time>
      </trkpt>
      <trkpt lat="48.47631" lon="7.12276">
        <ele>865.32</ele>
        <time>2019-07-09T05:26:29Z</time>
      </trkpt>
      <trkpt lat="48.47632" lon="7.1228">
        <ele>865.8</ele>
        <time>2019-07-09T05:26:37Z</time>
      </trkpt>
      <trkpt lat="48.47632" lon="7.12282">
        <ele>866.29</ele>
        <time>2019-07-09T05:26:38Z</time>
      </trkpt>
      <trkpt lat="48.47632" lon="7.12284">
        <ele>866.29</ele>
        <time>2019-07-09T05:26:39Z</time>
      </trkpt>
      <trkpt lat="48.47635" lon="7.1229">
        <ele>867.25</ele>
        <time>2019-07-09T05:26:43Z</time>
      </trkpt>
      <trkpt lat="48.47639" lon="7.12298">
        <ele>866.77</ele>
        <time>2019-07-09T05:26:49Z</time>
      </trkpt>
      <trkpt lat="48.47645" lon="7.12318">
        <ele>867.25</ele>
        <time>2019-07-09T05:27:02Z</time>
      </trkpt>
      <trkpt lat="48.4765" lon="7.12328">
        <ele>867.25</ele>
        <time>2019-07-09T05:27:06Z</time>
      </trkpt>
      <trkpt lat="48.47651" lon="7.1233">
        <ele>867.25</ele>
        <time>2019-07-09T05:27:07Z</time>
      </trkpt>
      <trkpt lat="48.4765" lon="7.12333">
        <ele>867.25</ele>
        <time>2019-07-09T05:27:08Z</time>
      </trkpt>
      <trkpt lat="48.4765" lon="7.12335">
        <ele>867.25</ele>
        <time>2019-07-09T05:27:09Z</time>
      </trkpt>
      <trkpt lat="48.4765" lon="7.12337">
        <ele>867.25</ele>
        <time>2019-07-09T05:27:10Z</time>
      </trkpt>
      <trkpt lat="48.47651" lon="7.12345">
        <ele>866.29</ele>
        <time>2019-07-09T05:27:21Z</time>
      </trkpt>
      <trkpt lat="48.47655" lon="7.12367">
        <ele>866.29</ele>
        <time>2019-07-09T05:27:35Z</time>
      </trkpt>
      <trkpt lat="48.47657" lon="7.12384">
        <ele>866.77</ele>
        <time>2019-07-09T05:27:46Z</time>
      </trkpt>
      <trkpt lat="48.47658" lon="7.12384">
        <ele>865.32</ele>
        <time>2019-07-09T05:28:04Z</time>
      </trkpt>
      <trkpt lat="48.47656" lon="7.12382">
        <ele>865.8</ele>
        <time>2019-07-09T05:28:14Z</time>
      </trkpt>
      <trkpt lat="48.47654" lon="7.1237">
        <ele>865.32</ele>
        <time>2019-07-09T05:28:28Z</time>
      </trkpt>
      <trkpt lat="48.47656" lon="7.12363">
        <ele>865.8</ele>
        <time>2019-07-09T05:28:38Z</time>
      </trkpt>
      <trkpt lat="48.47651" lon="7.12332">
        <ele>865.32</ele>
        <time>2019-07-09T05:28:49Z</time>
      </trkpt>
      <trkpt lat="48.47654" lon="7.12324">
        <ele>864.84</ele>
        <time>2019-07-09T05:28:57Z</time>
      </trkpt>
      <trkpt lat="48.47654" lon="7.12325">
        <ele>864.84</ele>
        <time>2019-07-09T05:28:58Z</time>
      </trkpt>
      <trkpt lat="48.4766" lon="7.12333">
        <ele>864.36</ele>
        <time>2019-07-09T05:29:15Z</time>
      </trkpt>
      <trkpt lat="48.47665" lon="7.12341">
        <ele>863.4</ele>
        <time>2019-07-09T05:29:43Z</time>
      </trkpt>
      <trkpt lat="48.47668" lon="7.12347">
        <ele>861.96</ele>
        <time>2019-07-09T05:29:46Z</time>
      </trkpt>
      <trkpt lat="48.47667" lon="7.12347">
        <ele>859.08</ele>
        <time>2019-07-09T05:29:59Z</time>
      </trkpt>
      <trkpt lat="48.47667" lon="7.12344">
        <ele>861</ele>
        <time>2019-07-09T05:30:04Z</time>
      </trkpt>
      <trkpt lat="48.4766" lon="7.12332">
        <ele>866.29</ele>
        <time>2019-07-09T05:30:16Z</time>
      </trkpt>
      <trkpt lat="48.47659" lon="7.12331">
        <ele>866.29</ele>
        <time>2019-07-09T05:30:17Z</time>
      </trkpt>
      <trkpt lat="48.47655" lon="7.12326">
        <ele>866.29</ele>
        <time>2019-07-09T05:30:22Z</time>
      </trkpt>
      <trkpt lat="48.47657" lon="7.12323">
        <ele>865.32</ele>
        <time>2019-07-09T05:30:33Z</time>
      </trkpt>
      <trkpt lat="48.47658" lon="7.12322">
        <ele>866.77</ele>
        <time>2019-07-09T05:31:06Z</time>
      </trkpt>
      <trkpt lat="48.47658" lon="7.1232">
        <ele>866.77</ele>
        <time>2019-07-09T05:31:39Z</time>
      </trkpt>
      <trkpt lat="48.47658" lon="7.12322">
        <ele>866.29</ele>
        <time>2019-07-09T05:32:11Z</time>
      </trkpt>
      <trkpt lat="48.47658" lon="7.12324">
        <ele>866.29</ele>
        <time>2019-07-09T05:32:12Z</time>
      </trkpt>
      <trkpt lat="48.47659" lon="7.12325">
        <ele>866.29</ele>
        <time>2019-07-09T05:32:13Z</time>
      </trkpt>
      <trkpt lat="48.4766" lon="7.12328">
        <ele>866.29</ele>
        <time>2019-07-09T05:32:14Z</time>
      </trkpt>
      <trkpt lat="48.47661" lon="7.12329">
        <ele>866.29</ele>
        <time>2019-07-09T05:32:15Z</time>
      </trkpt>
      <trkpt lat="48.47662" lon="7.12331">
        <ele>866.29</ele>
        <time>2019-07-09T05:32:16Z</time>
      </trkpt>
      <trkpt lat="48.47663" lon="7.12333">
        <ele>865.8</ele>
        <time>2019-07-09T05:32:17Z</time>
      </trkpt>
      <trkpt lat="48.47667" lon="7.12342">
        <ele>863.88</ele>
        <time>2019-07-09T05:32:26Z</time>
      </trkpt>
      <trkpt lat="48.47676" lon="7.12361">
        <ele>861</ele>
        <time>2019-07-09T05:32:44Z</time>
      </trkpt>
      <trkpt lat="48.47676" lon="7.12364">
        <ele>860.04</ele>
        <time>2019-07-09T05:32:45Z</time>
      </trkpt>
      <trkpt lat="48.47677" lon="7.12367">
        <ele>859.56</ele>
        <time>2019-07-09T05:32:46Z</time>
      </trkpt>
      <trkpt lat="48.47676" lon="7.12369">
        <ele>859.08</ele>
        <time>2019-07-09T05:32:47Z</time>
      </trkpt>
      <trkpt lat="48.47675" lon="7.12372">
        <ele>858.11</ele>
        <time>2019-07-09T05:32:48Z</time>
      </trkpt>
      <trkpt lat="48.47675" lon="7.12375">
        <ele>857.63</ele>
        <time>2019-07-09T05:32:49Z</time>
      </trkpt>
      <trkpt lat="48.47674" lon="7.12378">
        <ele>856.67</ele>
        <time>2019-07-09T05:32:50Z</time>
      </trkpt>
      <trkpt lat="48.47671" lon="7.12384">
        <ele>854.27</ele>
        <time>2019-07-09T05:32:58Z</time>
      </trkpt>
      <trkpt lat="48.47671" lon="7.12386">
        <ele>854.27</ele>
        <time>2019-07-09T05:33:09Z</time>
      </trkpt>
      <trkpt lat="48.47669" lon="7.12392">
        <ele>857.63</ele>
        <time>2019-07-09T05:33:19Z</time>
      </trkpt>
      <trkpt lat="48.47664" lon="7.124">
        <ele>858.59</ele>
        <time>2019-07-09T05:33:31Z</time>
      </trkpt>
      <trkpt lat="48.47666" lon="7.12401">
        <ele>859.08</ele>
        <time>2019-07-09T05:33:49Z</time>
      </trkpt>
      <trkpt lat="48.4767" lon="7.12396">
        <ele>859.56</ele>
        <time>2019-07-09T05:34:01Z</time>
      </trkpt>
      <trkpt lat="48.47674" lon="7.12392">
        <ele>861</ele>
        <time>2019-07-09T05:34:23Z</time>
      </trkpt>
      <trkpt lat="48.47678" lon="7.12387">
        <ele>861.96</ele>
        <time>2019-07-09T05:34:31Z</time>
      </trkpt>
      <trkpt lat="48.47678" lon="7.12381">
        <ele>862.92</ele>
        <time>2019-07-09T05:34:42Z</time>
      </trkpt>
      <trkpt lat="48.47679" lon="7.1237">
        <ele>865.8</ele>
        <time>2019-07-09T05:34:51Z</time>
      </trkpt>
      <trkpt lat="48.47679" lon="7.12368">
        <ele>865.8</ele>
        <time>2019-07-09T05:34:52Z</time>
      </trkpt>
      <trkpt lat="48.47673" lon="7.12353">
        <ele>870.61</ele>
        <time>2019-07-09T05:35:05Z</time>
      </trkpt>
      <trkpt lat="48.4767" lon="7.12346">
        <ele>870.61</ele>
        <time>2019-07-09T05:35:20Z</time>
      </trkpt>
      <trkpt lat="48.47666" lon="7.12338">
        <ele>871.09</ele>
        <time>2019-07-09T05:35:26Z</time>
      </trkpt>
      <trkpt lat="48.47655" lon="7.12326">
        <ele>869.65</ele>
        <time>2019-07-09T05:35:40Z</time>
      </trkpt>
      <trkpt lat="48.47655" lon="7.12325">
        <ele>867.73</ele>
        <time>2019-07-09T05:36:07Z</time>
      </trkpt>
      <trkpt lat="48.47653" lon="7.12326">
        <ele>865.8</ele>
        <time>2019-07-09T05:36:40Z</time>
      </trkpt>
      <trkpt lat="48.47652" lon="7.12322">
        <ele>865.32</ele>
        <time>2019-07-09T05:36:59Z</time>
      </trkpt>
      <trkpt lat="48.47651" lon="7.12325">
        <ele>872.53</ele>
        <time>2019-07-09T05:37:36Z</time>
      </trkpt>
      <trkpt lat="48.47652" lon="7.12325">
        <ele>867.25</ele>
        <time>2019-07-09T05:38:09Z</time>
      </trkpt>
      <trkpt lat="48.47652" lon="7.12321">
        <ele>866.29</ele>
        <time>2019-07-09T05:38:45Z</time>
      </trkpt>
      <trkpt lat="48.47653" lon="7.1232">
        <ele>868.69</ele>
        <time>2019-07-09T05:39:15Z</time>
      </trkpt>
      <trkpt lat="48.47652" lon="7.12326">
        <ele>868.21</ele>
        <time>2019-07-09T05:39:54Z</time>
      </trkpt>
      <trkpt lat="48.47652" lon="7.12319">
        <ele>868.21</ele>
        <time>2019-07-09T05:40:32Z</time>
      </trkpt>
      <trkpt lat="48.47653" lon="7.12324">
        <ele>867.73</ele>
        <time>2019-07-09T05:41:02Z</time>
      </trkpt>
      <trkpt lat="48.47654" lon="7.12326">
        <ele>871.57</ele>
        <time>2019-07-09T05:41:33Z</time>
      </trkpt>
      <trkpt lat="48.47653" lon="7.12323">
        <ele>871.09</ele>
        <time>2019-07-09T05:41:59Z</time>
      </trkpt>
      <trkpt lat="48.47652" lon="7.12324">
        <ele>867.25</ele>
        <time>2019-07-09T05:42:36Z</time>
      </trkpt>
      <trkpt lat="48.47652" lon="7.12327">
        <ele>866.77</ele>
        <time>2019-07-09T05:42:47Z</time>
      </trkpt>
      <trkpt lat="48.47651" lon="7.12336">
        <ele>867.25</ele>
        <time>2019-07-09T05:42:58Z</time>
      </trkpt>
      <trkpt lat="48.47653" lon="7.12326">
        <ele>866.29</ele>
        <time>2019-07-09T05:43:11Z</time>
      </trkpt>
      <trkpt lat="48.47653" lon="7.12324">
        <ele>865.8</ele>
        <time>2019-07-09T05:43:12Z</time>
      </trkpt>
      <trkpt lat="48.47653" lon="7.12323">
        <ele>865.8</ele>
        <time>2019-07-09T05:43:13Z</time>
      </trkpt>
      <trkpt lat="48.47652" lon="7.12319">
        <ele>866.29</ele>
        <time>2019-07-09T05:43:22Z</time>
      </trkpt>
      <trkpt lat="48.47647" lon="7.123">
        <ele>866.77</ele>
        <time>2019-07-09T05:43:34Z</time>
      </trkpt>
      <trkpt lat="48.47643" lon="7.12289">
        <ele>866.77</ele>
        <time>2019-07-09T05:43:46Z</time>
      </trkpt>
      <trkpt lat="48.47641" lon="7.12283">
        <ele>867.25</ele>
        <time>2019-07-09T05:43:53Z</time>
      </trkpt>
      <trkpt lat="48.47633" lon="7.12241">
        <ele>866.77</ele>
        <time>2019-07-09T05:44:08Z</time>
      </trkpt>
      <trkpt lat="48.47628" lon="7.12212">
        <ele>867.73</ele>
        <time>2019-07-09T05:44:19Z</time>
      </trkpt>
      <trkpt lat="48.47618" lon="7.12182">
        <ele>869.65</ele>
        <time>2019-07-09T05:44:32Z</time>
      </trkpt>
      <trkpt lat="48.47615" lon="7.12173">
        <ele>869.65</ele>
        <time>2019-07-09T05:44:36Z</time>
      </trkpt>
      <trkpt lat="48.47614" lon="7.12171">
        <ele>869.65</ele>
        <time>2019-07-09T05:44:37Z</time>
      </trkpt>
      <trkpt lat="48.47613" lon="7.12169">
        <ele>870.13</ele>
        <time>2019-07-09T05:44:38Z</time>
      </trkpt>
      <trkpt lat="48.47612" lon="7.12167">
        <ele>870.13</ele>
        <time>2019-07-09T05:44:39Z</time>
      </trkpt>
      <trkpt lat="48.47612" lon="7.12165">
        <ele>870.13</ele>
        <time>2019-07-09T05:44:40Z</time>
      </trkpt>
      <trkpt lat="48.47611" lon="7.12163">
        <ele>870.13</ele>
        <time>2019-07-09T05:44:41Z</time>
      </trkpt>
      <trkpt lat="48.4761" lon="7.1216">
        <ele>870.13</ele>
        <time>2019-07-09T05:44:42Z</time>
      </trkpt>
      <trkpt lat="48.47609" lon="7.12158">
        <ele>870.13</ele>
        <time>2019-07-09T05:44:43Z</time>
      </trkpt>
      <trkpt lat="48.47597" lon="7.1213">
        <ele>871.09</ele>
        <time>2019-07-09T05:44:57Z</time>
      </trkpt>
      <trkpt lat="48.4759" lon="7.12112">
        <ele>876.86</ele>
        <time>2019-07-09T05:45:14Z</time>
      </trkpt>
      <trkpt lat="48.47589" lon="7.12109">
        <ele>876.86</ele>
        <time>2019-07-09T05:45:33Z</time>
      </trkpt>
      <trkpt lat="48.47584" lon="7.12097">
        <ele>877.34</ele>
        <time>2019-07-09T05:45:49Z</time>
      </trkpt>
      <trkpt lat="48.47579" lon="7.12089">
        <ele>877.82</ele>
        <time>2019-07-09T05:45:57Z</time>
      </trkpt>
      <trkpt lat="48.47579" lon="7.12087">
        <ele>877.82</ele>
        <time>2019-07-09T05:45:58Z</time>
      </trkpt>
      <trkpt lat="48.47578" lon="7.12086">
        <ele>877.82</ele>
        <time>2019-07-09T05:45:59Z</time>
      </trkpt>
      <trkpt lat="48.47576" lon="7.12084">
        <ele>877.82</ele>
        <time>2019-07-09T05:46:00Z</time>
      </trkpt>
      <trkpt lat="48.47575" lon="7.12082">
        <ele>877.82</ele>
        <time>2019-07-09T05:46:01Z</time>
      </trkpt>
      <trkpt lat="48.47574" lon="7.12081">
        <ele>878.3</ele>
        <time>2019-07-09T05:46:02Z</time>
      </trkpt>
      <trkpt lat="48.47572" lon="7.12079">
        <ele>878.78</ele>
        <time>2019-07-09T05:46:03Z</time>
      </trkpt>
      <trkpt lat="48.47572" lon="7.12077">
        <ele>878.78</ele>
        <time>2019-07-09T05:46:04Z</time>
      </trkpt>
      <trkpt lat="48.47571" lon="7.12075">
        <ele>878.78</ele>
        <time>2019-07-09T05:46:05Z</time>
      </trkpt>
      <trkpt lat="48.4757" lon="7.12074">
        <ele>879.26</ele>
        <time>2019-07-09T05:46:06Z</time>
      </trkpt>
      <trkpt lat="48.47569" lon="7.12072">
        <ele>879.26</ele>
        <time>2019-07-09T05:46:07Z</time>
      </trkpt>
      <trkpt lat="48.47568" lon="7.1207">
        <ele>879.26</ele>
        <time>2019-07-09T05:46:08Z</time>
      </trkpt>
      <trkpt lat="48.47567" lon="7.12068">
        <ele>879.26</ele>
        <time>2019-07-09T05:46:09Z</time>
      </trkpt>
      <trkpt lat="48.47559" lon="7.12057">
        <ele>880.22</ele>
        <time>2019-07-09T05:46:19Z</time>
      </trkpt>
      <trkpt lat="48.47555" lon="7.12051">
        <ele>881.19</ele>
        <time>2019-07-09T05:46:33Z</time>
      </trkpt>
      <trkpt lat="48.47552" lon="7.12046">
        <ele>881.19</ele>
        <time>2019-07-09T05:46:48Z</time>
      </trkpt>
      <trkpt lat="48.4755" lon="7.12045">
        <ele>882.15</ele>
        <time>2019-07-09T05:46:54Z</time>
      </trkpt>
      <trkpt lat="48.47546" lon="7.12045">
        <ele>882.63</ele>
        <time>2019-07-09T05:47:04Z</time>
      </trkpt>
      <trkpt lat="48.47547" lon="7.12044">
        <ele>882.15</ele>
        <time>2019-07-09T05:47:15Z</time>
      </trkpt>
      <trkpt lat="48.47551" lon="7.12044">
        <ele>882.63</ele>
        <time>2019-07-09T05:47:22Z</time>
      </trkpt>
      <trkpt lat="48.4755" lon="7.12043">
        <ele>882.63</ele>
        <time>2019-07-09T05:47:26Z</time>
      </trkpt>
      <trkpt lat="48.4754" lon="7.12027">
        <ele>884.07</ele>
        <time>2019-07-09T05:47:46Z</time>
      </trkpt>
      <trkpt lat="48.4754" lon="7.12026">
        <ele>882.15</ele>
        <time>2019-07-09T05:48:19Z</time>
      </trkpt>
      <trkpt lat="48.4754" lon="7.12027">
        <ele>883.11</ele>
        <time>2019-07-09T05:48:38Z</time>
      </trkpt>
      <trkpt lat="48.47541" lon="7.12029">
        <ele>883.59</ele>
        <time>2019-07-09T05:49:09Z</time>
      </trkpt>
      <trkpt lat="48.47541" lon="7.1203">
        <ele>882.63</ele>
        <time>2019-07-09T05:49:31Z</time>
      </trkpt>
      <trkpt lat="48.47561" lon="7.12061">
        <ele>877.34</ele>
        <time>2019-07-09T05:49:41Z</time>
      </trkpt>
      <trkpt lat="48.47565" lon="7.12066">
        <ele>876.38</ele>
        <time>2019-07-09T05:49:42Z</time>
      </trkpt>
      <trkpt lat="48.47568" lon="7.12072">
        <ele>875.9</ele>
        <time>2019-07-09T05:49:43Z</time>
      </trkpt>
      <trkpt lat="48.4757" lon="7.12077">
        <ele>875.42</ele>
        <time>2019-07-09T05:49:44Z</time>
      </trkpt>
      <trkpt lat="48.47573" lon="7.12082">
        <ele>875.42</ele>
        <time>2019-07-09T05:49:45Z</time>
      </trkpt>
      <trkpt lat="48.47576" lon="7.12086">
        <ele>874.94</ele>
        <time>2019-07-09T05:49:46Z</time>
      </trkpt>
      <trkpt lat="48.47579" lon="7.1209">
        <ele>874.94</ele>
        <time>2019-07-09T05:49:47Z</time>
      </trkpt>
      <trkpt lat="48.47582" lon="7.12095">
        <ele>874.46</ele>
        <time>2019-07-09T05:49:48Z</time>
      </trkpt>
      <trkpt lat="48.47584" lon="7.12099">
        <ele>873.98</ele>
        <time>2019-07-09T05:49:49Z</time>
      </trkpt>
      <trkpt lat="48.47586" lon="7.12103">
        <ele>873.98</ele>
        <time>2019-07-09T05:49:50Z</time>
      </trkpt>
      <trkpt lat="48.47588" lon="7.12107">
        <ele>873.5</ele>
        <time>2019-07-09T05:49:51Z</time>
      </trkpt>
      <trkpt lat="48.4759" lon="7.1211">
        <ele>873.5</ele>
        <time>2019-07-09T05:49:52Z</time>
      </trkpt>
      <trkpt lat="48.47591" lon="7.12114">
        <ele>873.01</ele>
        <time>2019-07-09T05:49:53Z</time>
      </trkpt>
      <trkpt lat="48.47592" lon="7.12117">
        <ele>872.53</ele>
        <time>2019-07-09T05:49:54Z</time>
      </trkpt>
      <trkpt lat="48.47594" lon="7.1212">
        <ele>871.57</ele>
        <time>2019-07-09T05:49:55Z</time>
      </trkpt>
      <trkpt lat="48.47596" lon="7.12126">
        <ele>870.61</ele>
        <time>2019-07-09T05:49:56Z</time>
      </trkpt>
      <trkpt lat="48.47598" lon="7.12132">
        <ele>869.65</ele>
        <time>2019-07-09T05:49:57Z</time>
      </trkpt>
      <trkpt lat="48.47601" lon="7.1214">
        <ele>868.21</ele>
        <time>2019-07-09T05:49:58Z</time>
      </trkpt>
      <trkpt lat="48.47606" lon="7.12155">
        <ele>867.25</ele>
        <time>2019-07-09T05:50:00Z</time>
      </trkpt>
      <trkpt lat="48.47609" lon="7.12161">
        <ele>866.77</ele>
        <time>2019-07-09T05:50:01Z</time>
      </trkpt>
      <trkpt lat="48.47614" lon="7.12174">
        <ele>866.77</ele>
        <time>2019-07-09T05:50:03Z</time>
      </trkpt>
      <trkpt lat="48.47617" lon="7.1218">
        <ele>866.29</ele>
        <time>2019-07-09T05:50:04Z</time>
      </trkpt>
      <trkpt lat="48.47631" lon="7.12225">
        <ele>865.32</ele>
        <time>2019-07-09T05:50:11Z</time>
      </trkpt>
      <trkpt lat="48.47632" lon="7.12231">
        <ele>865.32</ele>
        <time>2019-07-09T05:50:12Z</time>
      </trkpt>
      <trkpt lat="48.47633" lon="7.12237">
        <ele>865.32</ele>
        <time>2019-07-09T05:50:13Z</time>
      </trkpt>
      <trkpt lat="48.47634" lon="7.12243">
        <ele>864.84</ele>
        <time>2019-07-09T05:50:14Z</time>
      </trkpt>
      <trkpt lat="48.47635" lon="7.12248">
        <ele>864.84</ele>
        <time>2019-07-09T05:50:15Z</time>
      </trkpt>
      <trkpt lat="48.47642" lon="7.12291">
        <ele>864.36</ele>
        <time>2019-07-09T05:50:26Z</time>
      </trkpt>
      <trkpt lat="48.47641" lon="7.12296">
        <ele>863.88</ele>
        <time>2019-07-09T05:50:37Z</time>
      </trkpt>
      <trkpt lat="48.47639" lon="7.12299">
        <ele>864.36</ele>
        <time>2019-07-09T05:50:52Z</time>
      </trkpt>
      <trkpt lat="48.47639" lon="7.12302">
        <ele>869.17</ele>
        <time>2019-07-09T05:51:29Z</time>
      </trkpt>
      <trkpt lat="48.47638" lon="7.123">
        <ele>869.65</ele>
        <time>2019-07-09T05:51:33Z</time>
      </trkpt>
      <trkpt lat="48.47631" lon="7.12277">
        <ele>866.77</ele>
        <time>2019-07-09T05:51:44Z</time>
      </trkpt>
      <trkpt lat="48.47631" lon="7.12273">
        <ele>866.77</ele>
        <time>2019-07-09T05:51:45Z</time>
      </trkpt>
      <trkpt lat="48.4763" lon="7.12269">
        <ele>866.29</ele>
        <time>2019-07-09T05:51:46Z</time>
      </trkpt>
      <trkpt lat="48.4763" lon="7.12265">
        <ele>866.29</ele>
        <time>2019-07-09T05:51:47Z</time>
      </trkpt>
      <trkpt lat="48.47629" lon="7.12261">
        <ele>866.29</ele>
        <time>2019-07-09T05:51:48Z</time>
      </trkpt>
      <trkpt lat="48.47627" lon="7.12258">
        <ele>866.29</ele>
        <time>2019-07-09T05:51:49Z</time>
      </trkpt>
      <trkpt lat="48.47626" lon="7.12255">
        <ele>866.29</ele>
        <time>2019-07-09T05:51:50Z</time>
      </trkpt>
      <trkpt lat="48.4762" lon="7.12242">
        <ele>864.36</ele>
        <time>2019-07-09T05:51:59Z</time>
      </trkpt>
      <trkpt lat="48.47607" lon="7.12219">
        <ele>863.4</ele>
        <time>2019-07-09T05:52:16Z</time>
      </trkpt>
      <trkpt lat="48.47594" lon="7.122">
        <ele>861.48</ele>
        <time>2019-07-09T05:52:25Z</time>
      </trkpt>
      <trkpt lat="48.47589" lon="7.12186">
        <ele>861.96</ele>
        <time>2019-07-09T05:52:38Z</time>
      </trkpt>
      <trkpt lat="48.47583" lon="7.12179">
        <ele>861.96</ele>
        <time>2019-07-09T05:52:47Z</time>
      </trkpt>
      <trkpt lat="48.47575" lon="7.12162">
        <ele>864.36</ele>
        <time>2019-07-09T05:52:55Z</time>
      </trkpt>
      <trkpt lat="48.47557" lon="7.12141">
        <ele>867.25</ele>
        <time>2019-07-09T05:53:05Z</time>
      </trkpt>
      <trkpt lat="48.47546" lon="7.12132">
        <ele>869.17</ele>
        <time>2019-07-09T05:53:12Z</time>
      </trkpt>
      <trkpt lat="48.47533" lon="7.12118">
        <ele>872.05</ele>
        <time>2019-07-09T05:53:23Z</time>
      </trkpt>
      <trkpt lat="48.47527" lon="7.12116">
        <ele>872.53</ele>
        <time>2019-07-09T05:53:27Z</time>
      </trkpt>
      <trkpt lat="48.47523" lon="7.12114">
        <ele>872.53</ele>
        <time>2019-07-09T05:53:29Z</time>
      </trkpt>
      <trkpt lat="48.47517" lon="7.12109">
        <ele>873.5</ele>
        <time>2019-07-09T05:53:36Z</time>
      </trkpt>
      <trkpt lat="48.47507" lon="7.12098">
        <ele>873.98</ele>
        <time>2019-07-09T05:53:55Z</time>
      </trkpt>
      <trkpt lat="48.47497" lon="7.12086">
        <ele>871.57</ele>
        <time>2019-07-09T05:54:01Z</time>
      </trkpt>
      <trkpt lat="48.47491" lon="7.12078">
        <ele>869.65</ele>
        <time>2019-07-09T05:54:11Z</time>
      </trkpt>
      <trkpt lat="48.47484" lon="7.12071">
        <ele>871.57</ele>
        <time>2019-07-09T05:54:22Z</time>
      </trkpt>
      <trkpt lat="48.4747" lon="7.12058">
        <ele>871.09</ele>
        <time>2019-07-09T05:54:31Z</time>
      </trkpt>
      <trkpt lat="48.47469" lon="7.12057">
        <ele>871.09</ele>
        <time>2019-07-09T05:54:33Z</time>
      </trkpt>
      <trkpt lat="48.47467" lon="7.12056">
        <ele>870.61</ele>
        <time>2019-07-09T05:54:34Z</time>
      </trkpt>
      <trkpt lat="48.47461" lon="7.1205">
        <ele>871.09</ele>
        <time>2019-07-09T05:54:39Z</time>
      </trkpt>
      <trkpt lat="48.4746" lon="7.12049">
        <ele>871.09</ele>
        <time>2019-07-09T05:54:40Z</time>
      </trkpt>
      <trkpt lat="48.47455" lon="7.12043">
        <ele>870.61</ele>
        <time>2019-07-09T05:54:44Z</time>
      </trkpt>
      <trkpt lat="48.47445" lon="7.12035">
        <ele>869.65</ele>
        <time>2019-07-09T05:54:55Z</time>
      </trkpt>
      <trkpt lat="48.47438" lon="7.12025">
        <ele>865.8</ele>
        <time>2019-07-09T05:55:02Z</time>
      </trkpt>
      <trkpt lat="48.47422" lon="7.12016">
        <ele>862.92</ele>
        <time>2019-07-09T05:55:14Z</time>
      </trkpt>
      <trkpt lat="48.47417" lon="7.12011">
        <ele>861.96</ele>
        <time>2019-07-09T05:55:18Z</time>
      </trkpt>
      <trkpt lat="48.47408" lon="7.12009">
        <ele>861.96</ele>
        <time>2019-07-09T05:55:22Z</time>
      </trkpt>
      <trkpt lat="48.47388" lon="7.12003">
        <ele>861.96</ele>
        <time>2019-07-09T05:55:33Z</time>
      </trkpt>
      <trkpt lat="48.47382" lon="7.12">
        <ele>861.96</ele>
        <time>2019-07-09T05:55:42Z</time>
      </trkpt>
      <trkpt lat="48.47372" lon="7.11991">
        <ele>859.08</ele>
        <time>2019-07-09T05:55:54Z</time>
      </trkpt>
      <trkpt lat="48.47364" lon="7.11987">
        <ele>858.59</ele>
        <time>2019-07-09T05:56:00Z</time>
      </trkpt>
      <trkpt lat="48.47361" lon="7.11986">
        <ele>858.59</ele>
        <time>2019-07-09T05:56:02Z</time>
      </trkpt>
      <trkpt lat="48.47347" lon="7.11978">
        <ele>861</ele>
        <time>2019-07-09T05:56:13Z</time>
      </trkpt>
      <trkpt lat="48.47335" lon="7.11973">
        <ele>864.36</ele>
        <time>2019-07-09T05:56:28Z</time>
      </trkpt>
      <trkpt lat="48.47325" lon="7.11967">
        <ele>863.88</ele>
        <time>2019-07-09T05:56:40Z</time>
      </trkpt>
      <trkpt lat="48.47313" lon="7.11967">
        <ele>864.36</ele>
        <time>2019-07-09T05:56:53Z</time>
      </trkpt>
      <trkpt lat="48.47303" lon="7.11963">
        <ele>861.96</ele>
        <time>2019-07-09T05:57:05Z</time>
      </trkpt>
      <trkpt lat="48.47292" lon="7.11961">
        <ele>860.04</ele>
        <time>2019-07-09T05:57:17Z</time>
      </trkpt>
      <trkpt lat="48.47276" lon="7.11959">
        <ele>857.15</ele>
        <time>2019-07-09T05:57:27Z</time>
      </trkpt>
      <trkpt lat="48.47274" lon="7.11958">
        <ele>857.15</ele>
        <time>2019-07-09T05:57:28Z</time>
      </trkpt>
      <trkpt lat="48.47263" lon="7.11959">
        <ele>853.79</ele>
        <time>2019-07-09T05:57:38Z</time>
      </trkpt>
      <trkpt lat="48.47253" lon="7.11954">
        <ele>850.42</ele>
        <time>2019-07-09T05:57:52Z</time>
      </trkpt>
      <trkpt lat="48.47243" lon="7.11951">
        <ele>849.46</ele>
        <time>2019-07-09T05:58:04Z</time>
      </trkpt>
      <trkpt lat="48.47233" lon="7.11953">
        <ele>850.42</ele>
        <time>2019-07-09T05:58:16Z</time>
      </trkpt>
      <trkpt lat="48.47227" lon="7.11955">
        <ele>849.94</ele>
        <time>2019-07-09T05:58:21Z</time>
      </trkpt>
      <trkpt lat="48.4721" lon="7.11952">
        <ele>842.73</ele>
        <time>2019-07-09T05:58:36Z</time>
      </trkpt>
      <trkpt lat="48.47196" lon="7.11934">
        <ele>836</ele>
        <time>2019-07-09T05:58:46Z</time>
      </trkpt>
      <trkpt lat="48.47189" lon="7.11918">
        <ele>834.08</ele>
        <time>2019-07-09T05:58:52Z</time>
      </trkpt>
      <trkpt lat="48.47187" lon="7.11914">
        <ele>833.12</ele>
        <time>2019-07-09T05:58:54Z</time>
      </trkpt>
      <trkpt lat="48.47177" lon="7.11877">
        <ele>829.27</ele>
        <time>2019-07-09T05:59:07Z</time>
      </trkpt>
      <trkpt lat="48.47166" lon="7.11834">
        <ele>829.76</ele>
        <time>2019-07-09T05:59:20Z</time>
      </trkpt>
      <trkpt lat="48.4716" lon="7.11793">
        <ele>831.2</ele>
        <time>2019-07-09T05:59:35Z</time>
      </trkpt>
      <trkpt lat="48.47156" lon="7.1178">
        <ele>832.64</ele>
        <time>2019-07-09T05:59:41Z</time>
      </trkpt>
      <trkpt lat="48.47155" lon="7.11777">
        <ele>832.64</ele>
        <time>2019-07-09T05:59:42Z</time>
      </trkpt>
      <trkpt lat="48.47153" lon="7.11771">
        <ele>833.12</ele>
        <time>2019-07-09T05:59:44Z</time>
      </trkpt>
      <trkpt lat="48.47153" lon="7.11768">
        <ele>833.12</ele>
        <time>2019-07-09T05:59:45Z</time>
      </trkpt>
      <trkpt lat="48.47152" lon="7.11765">
        <ele>832.64</ele>
        <time>2019-07-09T05:59:47Z</time>
      </trkpt>
      <trkpt lat="48.47151" lon="7.11763">
        <ele>832.64</ele>
        <time>2019-07-09T05:59:48Z</time>
      </trkpt>
      <trkpt lat="48.4715" lon="7.11761">
        <ele>832.64</ele>
        <time>2019-07-09T05:59:49Z</time>
      </trkpt>
      <trkpt lat="48.4715" lon="7.11759">
        <ele>832.64</ele>
        <time>2019-07-09T05:59:50Z</time>
      </trkpt>
      <trkpt lat="48.47149" lon="7.11751">
        <ele>832.16</ele>
        <time>2019-07-09T05:59:57Z</time>
      </trkpt>
      <trkpt lat="48.47144" lon="7.11736">
        <ele>830.24</ele>
        <time>2019-07-09T06:00:09Z</time>
      </trkpt>
      <trkpt lat="48.47137" lon="7.11727">
        <ele>830.24</ele>
        <time>2019-07-09T06:00:31Z</time>
      </trkpt>
      <trkpt lat="48.47135" lon="7.11726">
        <ele>829.76</ele>
        <time>2019-07-09T06:00:34Z</time>
      </trkpt>
      <trkpt lat="48.47127" lon="7.11723">
        <ele>828.79</ele>
        <time>2019-07-09T06:00:46Z</time>
      </trkpt>
      <trkpt lat="48.47126" lon="7.11722">
        <ele>829.27</ele>
        <time>2019-07-09T06:00:48Z</time>
      </trkpt>
      <trkpt lat="48.47109" lon="7.11722">
        <ele>828.79</ele>
        <time>2019-07-09T06:00:56Z</time>
      </trkpt>
      <trkpt lat="48.47102" lon="7.11719">
        <ele>827.35</ele>
        <time>2019-07-09T06:01:01Z</time>
      </trkpt>
      <trkpt lat="48.47081" lon="7.11718">
        <ele>826.87</ele>
        <time>2019-07-09T06:01:13Z</time>
      </trkpt>
      <trkpt lat="48.47076" lon="7.1171">
        <ele>826.39</ele>
        <time>2019-07-09T06:01:23Z</time>
      </trkpt>
      <trkpt lat="48.47067" lon="7.1171">
        <ele>821.58</ele>
        <time>2019-07-09T06:01:33Z</time>
      </trkpt>
      <trkpt lat="48.47065" lon="7.1171">
        <ele>820.62</ele>
        <time>2019-07-09T06:01:34Z</time>
      </trkpt>
      <trkpt lat="48.47055" lon="7.11694">
        <ele>818.22</ele>
        <time>2019-07-09T06:01:46Z</time>
      </trkpt>
      <trkpt lat="48.47054" lon="7.1169">
        <ele>818.7</ele>
        <time>2019-07-09T06:01:50Z</time>
      </trkpt>
      <trkpt lat="48.4705" lon="7.11681">
        <ele>819.18</ele>
        <time>2019-07-09T06:02:01Z</time>
      </trkpt>
      <trkpt lat="48.47048" lon="7.11679">
        <ele>819.18</ele>
        <time>2019-07-09T06:02:03Z</time>
      </trkpt>
      <trkpt lat="48.47023" lon="7.11645">
        <ele>818.7</ele>
        <time>2019-07-09T06:02:26Z</time>
      </trkpt>
      <trkpt lat="48.47018" lon="7.11634">
        <ele>818.22</ele>
        <time>2019-07-09T06:02:31Z</time>
      </trkpt>
      <trkpt lat="48.47014" lon="7.11622">
        <ele>818.22</ele>
        <time>2019-07-09T06:02:36Z</time>
      </trkpt>
      <trkpt lat="48.47008" lon="7.11613">
        <ele>818.7</ele>
        <time>2019-07-09T06:02:49Z</time>
      </trkpt>
      <trkpt lat="48.47001" lon="7.11593">
        <ele>821.58</ele>
        <time>2019-07-09T06:03:05Z</time>
      </trkpt>
      <trkpt lat="48.46999" lon="7.11593">
        <ele>821.58</ele>
        <time>2019-07-09T06:03:07Z</time>
      </trkpt>
      <trkpt lat="48.46996" lon="7.1159">
        <ele>821.58</ele>
        <time>2019-07-09T06:03:10Z</time>
      </trkpt>
      <trkpt lat="48.46992" lon="7.11581">
        <ele>821.1</ele>
        <time>2019-07-09T06:03:16Z</time>
      </trkpt>
      <trkpt lat="48.46991" lon="7.11578">
        <ele>821.1</ele>
        <time>2019-07-09T06:03:17Z</time>
      </trkpt>
      <trkpt lat="48.46989" lon="7.11569">
        <ele>820.14</ele>
        <time>2019-07-09T06:03:22Z</time>
      </trkpt>
      <trkpt lat="48.46978" lon="7.11547">
        <ele>817.26</ele>
        <time>2019-07-09T06:03:37Z</time>
      </trkpt>
      <trkpt lat="48.46968" lon="7.11526">
        <ele>818.22</ele>
        <time>2019-07-09T06:03:47Z</time>
      </trkpt>
      <trkpt lat="48.46962" lon="7.11513">
        <ele>817.74</ele>
        <time>2019-07-09T06:03:56Z</time>
      </trkpt>
      <trkpt lat="48.46955" lon="7.11498">
        <ele>823.51</ele>
        <time>2019-07-09T06:04:09Z</time>
      </trkpt>
      <trkpt lat="48.46949" lon="7.11486">
        <ele>828.31</ele>
        <time>2019-07-09T06:04:21Z</time>
      </trkpt>
      <trkpt lat="48.46948" lon="7.11482">
        <ele>829.27</ele>
        <time>2019-07-09T06:04:23Z</time>
      </trkpt>
      <trkpt lat="48.46941" lon="7.11459">
        <ele>830.24</ele>
        <time>2019-07-09T06:04:36Z</time>
      </trkpt>
      <trkpt lat="48.46935" lon="7.11446">
        <ele>831.2</ele>
        <time>2019-07-09T06:04:44Z</time>
      </trkpt>
      <trkpt lat="48.46934" lon="7.11445">
        <ele>831.2</ele>
        <time>2019-07-09T06:04:45Z</time>
      </trkpt>
      <trkpt lat="48.46933" lon="7.11443">
        <ele>831.68</ele>
        <time>2019-07-09T06:04:46Z</time>
      </trkpt>
      <trkpt lat="48.46931" lon="7.1144">
        <ele>831.68</ele>
        <time>2019-07-09T06:04:48Z</time>
      </trkpt>
      <trkpt lat="48.46921" lon="7.11426">
        <ele>833.12</ele>
        <time>2019-07-09T06:05:01Z</time>
      </trkpt>
      <trkpt lat="48.46918" lon="7.11416">
        <ele>835.52</ele>
        <time>2019-07-09T06:05:12Z</time>
      </trkpt>
      <trkpt lat="48.46911" lon="7.11401">
        <ele>836.96</ele>
        <time>2019-07-09T06:05:26Z</time>
      </trkpt>
      <trkpt lat="48.46907" lon="7.11393">
        <ele>834.08</ele>
        <time>2019-07-09T06:05:34Z</time>
      </trkpt>
      <trkpt lat="48.46903" lon="7.11387">
        <ele>833.12</ele>
        <time>2019-07-09T06:05:39Z</time>
      </trkpt>
      <trkpt lat="48.46903" lon="7.11385">
        <ele>832.64</ele>
        <time>2019-07-09T06:05:40Z</time>
      </trkpt>
      <trkpt lat="48.46902" lon="7.11382">
        <ele>832.16</ele>
        <time>2019-07-09T06:05:41Z</time>
      </trkpt>
      <trkpt lat="48.46893" lon="7.11361">
        <ele>831.2</ele>
        <time>2019-07-09T06:05:53Z</time>
      </trkpt>
      <trkpt lat="48.46885" lon="7.11341">
        <ele>827.35</ele>
        <time>2019-07-09T06:06:07Z</time>
      </trkpt>
      <trkpt lat="48.4688" lon="7.11325">
        <ele>827.83</ele>
        <time>2019-07-09T06:06:20Z</time>
      </trkpt>
      <trkpt lat="48.46875" lon="7.11305">
        <ele>827.35</ele>
        <time>2019-07-09T06:06:32Z</time>
      </trkpt>
      <trkpt lat="48.46872" lon="7.11294">
        <ele>831.68</ele>
        <time>2019-07-09T06:06:44Z</time>
      </trkpt>
      <trkpt lat="48.4687" lon="7.11285">
        <ele>831.2</ele>
        <time>2019-07-09T06:06:53Z</time>
      </trkpt>
      <trkpt lat="48.46863" lon="7.11275">
        <ele>833.12</ele>
        <time>2019-07-09T06:07:02Z</time>
      </trkpt>
      <trkpt lat="48.46854" lon="7.11257">
        <ele>834.08</ele>
        <time>2019-07-09T06:07:13Z</time>
      </trkpt>
      <trkpt lat="48.4684" lon="7.11238">
        <ele>839.37</ele>
        <time>2019-07-09T06:07:24Z</time>
      </trkpt>
      <trkpt lat="48.46837" lon="7.11235">
        <ele>840.33</ele>
        <time>2019-07-09T06:07:26Z</time>
      </trkpt>
      <trkpt lat="48.46831" lon="7.11229">
        <ele>842.73</ele>
        <time>2019-07-09T06:07:38Z</time>
      </trkpt>
      <trkpt lat="48.46829" lon="7.11226">
        <ele>844.18</ele>
        <time>2019-07-09T06:07:46Z</time>
      </trkpt>
      <trkpt lat="48.46823" lon="7.11216">
        <ele>843.69</ele>
        <time>2019-07-09T06:07:54Z</time>
      </trkpt>
      <trkpt lat="48.46818" lon="7.11212">
        <ele>844.18</ele>
        <time>2019-07-09T06:08:03Z</time>
      </trkpt>
      <trkpt lat="48.46817" lon="7.11212">
        <ele>844.66</ele>
        <time>2019-07-09T06:08:04Z</time>
      </trkpt>
      <trkpt lat="48.46815" lon="7.11211">
        <ele>844.66</ele>
        <time>2019-07-09T06:08:05Z</time>
      </trkpt>
      <trkpt lat="48.46814" lon="7.11211">
        <ele>844.66</ele>
        <time>2019-07-09T06:08:06Z</time>
      </trkpt>
      <trkpt lat="48.46812" lon="7.1121">
        <ele>845.14</ele>
        <time>2019-07-09T06:08:07Z</time>
      </trkpt>
      <trkpt lat="48.46805" lon="7.11201">
        <ele>846.58</ele>
        <time>2019-07-09T06:08:14Z</time>
      </trkpt>
      <trkpt lat="48.46795" lon="7.11195">
        <ele>848.5</ele>
        <time>2019-07-09T06:08:19Z</time>
      </trkpt>
      <trkpt lat="48.46787" lon="7.11191">
        <ele>851.87</ele>
        <time>2019-07-09T06:08:29Z</time>
      </trkpt>
      <trkpt lat="48.46772" lon="7.11177">
        <ele>847.54</ele>
        <time>2019-07-09T06:08:44Z</time>
      </trkpt>
      <trkpt lat="48.46771" lon="7.11175">
        <ele>845.62</ele>
        <time>2019-07-09T06:08:47Z</time>
      </trkpt>
      <trkpt lat="48.46767" lon="7.1117">
        <ele>843.21</ele>
        <time>2019-07-09T06:08:55Z</time>
      </trkpt>
      <trkpt lat="48.46766" lon="7.11168">
        <ele>843.21</ele>
        <time>2019-07-09T06:08:56Z</time>
      </trkpt>
      <trkpt lat="48.46754" lon="7.11152">
        <ele>837.45</ele>
        <time>2019-07-09T06:09:07Z</time>
      </trkpt>
      <trkpt lat="48.46745" lon="7.11146">
        <ele>835.52</ele>
        <time>2019-07-09T06:09:17Z</time>
      </trkpt>
      <trkpt lat="48.46739" lon="7.11142">
        <ele>836</ele>
        <time>2019-07-09T06:09:24Z</time>
      </trkpt>
      <trkpt lat="48.46738" lon="7.11142">
        <ele>836</ele>
        <time>2019-07-09T06:09:25Z</time>
      </trkpt>
      <trkpt lat="48.46737" lon="7.1114">
        <ele>836</ele>
        <time>2019-07-09T06:09:26Z</time>
      </trkpt>
      <trkpt lat="48.46734" lon="7.11134">
        <ele>834.56</ele>
        <time>2019-07-09T06:09:39Z</time>
      </trkpt>
      <trkpt lat="48.46729" lon="7.11127">
        <ele>832.64</ele>
        <time>2019-07-09T06:09:58Z</time>
      </trkpt>
      <trkpt lat="48.46724" lon="7.11123">
        <ele>830.72</ele>
        <time>2019-07-09T06:10:10Z</time>
      </trkpt>
      <trkpt lat="48.46723" lon="7.11123">
        <ele>830.24</ele>
        <time>2019-07-09T06:10:11Z</time>
      </trkpt>
      <trkpt lat="48.46717" lon="7.11124">
        <ele>825.91</ele>
        <time>2019-07-09T06:10:25Z</time>
      </trkpt>
      <trkpt lat="48.4671" lon="7.11111">
        <ele>826.39</ele>
        <time>2019-07-09T06:10:40Z</time>
      </trkpt>
      <trkpt lat="48.46701" lon="7.11104">
        <ele>827.83</ele>
        <time>2019-07-09T06:10:53Z</time>
      </trkpt>
      <trkpt lat="48.46699" lon="7.11105">
        <ele>827.35</ele>
        <time>2019-07-09T06:11:11Z</time>
      </trkpt>
      <trkpt lat="48.46693" lon="7.111">
        <ele>826.39</ele>
        <time>2019-07-09T06:11:25Z</time>
      </trkpt>
      <trkpt lat="48.46693" lon="7.11098">
        <ele>827.35</ele>
        <time>2019-07-09T06:11:46Z</time>
      </trkpt>
      <trkpt lat="48.46694" lon="7.11097">
        <ele>827.35</ele>
        <time>2019-07-09T06:11:47Z</time>
      </trkpt>
      <trkpt lat="48.46694" lon="7.11093">
        <ele>828.31</ele>
        <time>2019-07-09T06:12:06Z</time>
      </trkpt>
      <trkpt lat="48.46692" lon="7.11089">
        <ele>831.2</ele>
        <time>2019-07-09T06:12:34Z</time>
      </trkpt>
      <trkpt lat="48.46696" lon="7.11088">
        <ele>831.2</ele>
        <time>2019-07-09T06:13:00Z</time>
      </trkpt>
      <trkpt lat="48.46679" lon="7.11085">
        <ele>831.2</ele>
        <time>2019-07-09T06:13:15Z</time>
      </trkpt>
      <trkpt lat="48.46658" lon="7.11083">
        <ele>830.72</ele>
        <time>2019-07-09T06:13:30Z</time>
      </trkpt>
      <trkpt lat="48.46635" lon="7.11085">
        <ele>830.24</ele>
        <time>2019-07-09T06:13:45Z</time>
      </trkpt>
      <trkpt lat="48.46625" lon="7.11084">
        <ele>829.76</ele>
        <time>2019-07-09T06:13:52Z</time>
      </trkpt>
      <trkpt lat="48.46603" lon="7.11092">
        <ele>831.2</ele>
        <time>2019-07-09T06:14:08Z</time>
      </trkpt>
      <trkpt lat="48.46602" lon="7.11092">
        <ele>831.68</ele>
        <time>2019-07-09T06:14:09Z</time>
      </trkpt>
      <trkpt lat="48.46598" lon="7.11096">
        <ele>832.64</ele>
        <time>2019-07-09T06:14:13Z</time>
      </trkpt>
      <trkpt lat="48.46576" lon="7.11107">
        <ele>834.08</ele>
        <time>2019-07-09T06:14:27Z</time>
      </trkpt>
      <trkpt lat="48.46572" lon="7.11111">
        <ele>835.04</ele>
        <time>2019-07-09T06:14:31Z</time>
      </trkpt>
      <trkpt lat="48.46553" lon="7.11127">
        <ele>837.93</ele>
        <time>2019-07-09T06:14:46Z</time>
      </trkpt>
      <trkpt lat="48.46534" lon="7.11144">
        <ele>838.89</ele>
        <time>2019-07-09T06:15:01Z</time>
      </trkpt>
      <trkpt lat="48.4652" lon="7.11158">
        <ele>838.89</ele>
        <time>2019-07-09T06:15:12Z</time>
      </trkpt>
      <trkpt lat="48.46514" lon="7.11162">
        <ele>837.45</ele>
        <time>2019-07-09T06:15:17Z</time>
      </trkpt>
      <trkpt lat="48.46491" lon="7.11175">
        <ele>838.41</ele>
        <time>2019-07-09T06:15:31Z</time>
      </trkpt>
      <trkpt lat="48.4647" lon="7.1119">
        <ele>839.85</ele>
        <time>2019-07-09T06:15:45Z</time>
      </trkpt>
      <trkpt lat="48.46447" lon="7.11219">
        <ele>842.73</ele>
        <time>2019-07-09T06:16:03Z</time>
      </trkpt>
      <trkpt lat="48.46445" lon="7.11223">
        <ele>842.73</ele>
        <time>2019-07-09T06:16:05Z</time>
      </trkpt>
      <trkpt lat="48.46441" lon="7.11242">
        <ele>842.73</ele>
        <time>2019-07-09T06:16:15Z</time>
      </trkpt>
      <trkpt lat="48.4643" lon="7.11276">
        <ele>846.1</ele>
        <time>2019-07-09T06:16:31Z</time>
      </trkpt>
      <trkpt lat="48.46428" lon="7.11293">
        <ele>847.54</ele>
        <time>2019-07-09T06:16:40Z</time>
      </trkpt>
      <trkpt lat="48.46417" lon="7.11312">
        <ele>848.02</ele>
        <time>2019-07-09T06:16:50Z</time>
      </trkpt>
      <trkpt lat="48.46415" lon="7.11314">
        <ele>848.02</ele>
        <time>2019-07-09T06:16:51Z</time>
      </trkpt>
      <trkpt lat="48.46414" lon="7.11315">
        <ele>847.54</ele>
        <time>2019-07-09T06:16:52Z</time>
      </trkpt>
      <trkpt lat="48.46413" lon="7.11316">
        <ele>847.54</ele>
        <time>2019-07-09T06:16:53Z</time>
      </trkpt>
      <trkpt lat="48.46412" lon="7.11318">
        <ele>847.54</ele>
        <time>2019-07-09T06:16:54Z</time>
      </trkpt>
      <trkpt lat="48.46411" lon="7.1132">
        <ele>847.54</ele>
        <time>2019-07-09T06:16:55Z</time>
      </trkpt>
      <trkpt lat="48.46391" lon="7.11335">
        <ele>847.54</ele>
        <time>2019-07-09T06:17:08Z</time>
      </trkpt>
      <trkpt lat="48.4636" lon="7.11342">
        <ele>844.18</ele>
        <time>2019-07-09T06:17:18Z</time>
      </trkpt>
      <trkpt lat="48.46356" lon="7.11341">
        <ele>843.69</ele>
        <time>2019-07-09T06:17:19Z</time>
      </trkpt>
      <trkpt lat="48.46351" lon="7.11338">
        <ele>843.69</ele>
        <time>2019-07-09T06:17:20Z</time>
      </trkpt>
      <trkpt lat="48.46347" lon="7.11333">
        <ele>843.21</ele>
        <time>2019-07-09T06:17:21Z</time>
      </trkpt>
      <trkpt lat="48.46341" lon="7.11329">
        <ele>842.73</ele>
        <time>2019-07-09T06:17:22Z</time>
      </trkpt>
      <trkpt lat="48.46336" lon="7.11324">
        <ele>841.77</ele>
        <time>2019-07-09T06:17:23Z</time>
      </trkpt>
      <trkpt lat="48.4633" lon="7.11318">
        <ele>841.29</ele>
        <time>2019-07-09T06:17:24Z</time>
      </trkpt>
      <trkpt lat="48.46324" lon="7.11313">
        <ele>840.81</ele>
        <time>2019-07-09T06:17:25Z</time>
      </trkpt>
      <trkpt lat="48.46318" lon="7.11309">
        <ele>840.33</ele>
        <time>2019-07-09T06:17:26Z</time>
      </trkpt>
      <trkpt lat="48.46312" lon="7.11303">
        <ele>839.37</ele>
        <time>2019-07-09T06:17:27Z</time>
      </trkpt>
      <trkpt lat="48.46307" lon="7.11296">
        <ele>838.89</ele>
        <time>2019-07-09T06:17:28Z</time>
      </trkpt>
      <trkpt lat="48.46302" lon="7.1129">
        <ele>837.93</ele>
        <time>2019-07-09T06:17:29Z</time>
      </trkpt>
      <trkpt lat="48.46297" lon="7.11283">
        <ele>837.45</ele>
        <time>2019-07-09T06:17:30Z</time>
      </trkpt>
      <trkpt lat="48.46282" lon="7.11266">
        <ele>836</ele>
        <time>2019-07-09T06:17:33Z</time>
      </trkpt>
      <trkpt lat="48.46277" lon="7.11262">
        <ele>835.52</ele>
        <time>2019-07-09T06:17:34Z</time>
      </trkpt>
      <trkpt lat="48.46272" lon="7.11257">
        <ele>835.04</ele>
        <time>2019-07-09T06:17:35Z</time>
      </trkpt>
      <trkpt lat="48.46264" lon="7.1125">
        <ele>833.6</ele>
        <time>2019-07-09T06:17:37Z</time>
      </trkpt>
      <trkpt lat="48.46216" lon="7.11243">
        <ele>832.64</ele>
        <time>2019-07-09T06:17:50Z</time>
      </trkpt>
      <trkpt lat="48.46181" lon="7.11251">
        <ele>836</ele>
        <time>2019-07-09T06:18:03Z</time>
      </trkpt>
      <trkpt lat="48.46151" lon="7.11245">
        <ele>835.52</ele>
        <time>2019-07-09T06:18:13Z</time>
      </trkpt>
      <trkpt lat="48.46112" lon="7.1125">
        <ele>835.04</ele>
        <time>2019-07-09T06:18:24Z</time>
      </trkpt>
      <trkpt lat="48.46087" lon="7.11262">
        <ele>835.04</ele>
        <time>2019-07-09T06:18:37Z</time>
      </trkpt>
      <trkpt lat="48.46083" lon="7.11268">
        <ele>837.45</ele>
        <time>2019-07-09T06:18:50Z</time>
      </trkpt>
      <trkpt lat="48.46083" lon="7.1127">
        <ele>837.45</ele>
        <time>2019-07-09T06:18:51Z</time>
      </trkpt>
      <trkpt lat="48.46083" lon="7.11273">
        <ele>836.96</ele>
        <time>2019-07-09T06:18:55Z</time>
      </trkpt>
      <trkpt lat="48.46081" lon="7.11284">
        <ele>835.04</ele>
        <time>2019-07-09T06:19:05Z</time>
      </trkpt>
      <trkpt lat="48.46078" lon="7.11294">
        <ele>833.6</ele>
        <time>2019-07-09T06:19:14Z</time>
      </trkpt>
      <trkpt lat="48.46074" lon="7.11323">
        <ele>834.56</ele>
        <time>2019-07-09T06:19:22Z</time>
      </trkpt>
      <trkpt lat="48.46073" lon="7.11356">
        <ele>833.6</ele>
        <time>2019-07-09T06:19:31Z</time>
      </trkpt>
      <trkpt lat="48.46072" lon="7.11388">
        <ele>833.12</ele>
        <time>2019-07-09T06:19:40Z</time>
      </trkpt>
      <trkpt lat="48.46072" lon="7.1141">
        <ele>834.08</ele>
        <time>2019-07-09T06:19:50Z</time>
      </trkpt>
      <trkpt lat="48.46073" lon="7.11434">
        <ele>834.56</ele>
        <time>2019-07-09T06:19:59Z</time>
      </trkpt>
      <trkpt lat="48.46072" lon="7.11452">
        <ele>835.52</ele>
        <time>2019-07-09T06:20:05Z</time>
      </trkpt>
      <trkpt lat="48.46076" lon="7.11478">
        <ele>835.04</ele>
        <time>2019-07-09T06:20:12Z</time>
      </trkpt>
      <trkpt lat="48.46075" lon="7.11499">
        <ele>835.04</ele>
        <time>2019-07-09T06:20:21Z</time>
      </trkpt>
      <trkpt lat="48.46076" lon="7.11504">
        <ele>834.08</ele>
        <time>2019-07-09T06:20:26Z</time>
      </trkpt>
      <trkpt lat="48.46076" lon="7.11508">
        <ele>834.08</ele>
        <time>2019-07-09T06:20:29Z</time>
      </trkpt>
      <trkpt lat="48.46076" lon="7.11517">
        <ele>833.6</ele>
        <time>2019-07-09T06:20:34Z</time>
      </trkpt>
      <trkpt lat="48.46078" lon="7.11537">
        <ele>833.12</ele>
        <time>2019-07-09T06:20:47Z</time>
      </trkpt>
      <trkpt lat="48.46078" lon="7.11539">
        <ele>833.12</ele>
        <time>2019-07-09T06:20:48Z</time>
      </trkpt>
      <trkpt lat="48.46078" lon="7.11544">
        <ele>832.64</ele>
        <time>2019-07-09T06:20:50Z</time>
      </trkpt>
      <trkpt lat="48.46079" lon="7.1156">
        <ele>834.08</ele>
        <time>2019-07-09T06:20:56Z</time>
      </trkpt>
      <trkpt lat="48.46072" lon="7.11594">
        <ele>832.64</ele>
        <time>2019-07-09T06:21:07Z</time>
      </trkpt>
      <trkpt lat="48.46069" lon="7.11603">
        <ele>831.2</ele>
        <time>2019-07-09T06:21:10Z</time>
      </trkpt>
      <trkpt lat="48.46067" lon="7.11603">
        <ele>830.72</ele>
        <time>2019-07-09T06:21:11Z</time>
      </trkpt>
      <trkpt lat="48.46066" lon="7.11604">
        <ele>830.72</ele>
        <time>2019-07-09T06:21:12Z</time>
      </trkpt>
      <trkpt lat="48.46062" lon="7.11605">
        <ele>828.31</ele>
        <time>2019-07-09T06:21:24Z</time>
      </trkpt>
      <trkpt lat="48.46061" lon="7.11599">
        <ele>828.31</ele>
        <time>2019-07-09T06:21:29Z</time>
      </trkpt>
      <trkpt lat="48.4606" lon="7.11589">
        <ele>830.24</ele>
        <time>2019-07-09T06:21:44Z</time>
      </trkpt>
      <trkpt lat="48.4606" lon="7.11584">
        <ele>831.2</ele>
        <time>2019-07-09T06:21:59Z</time>
      </trkpt>
      <trkpt lat="48.46056" lon="7.11565">
        <ele>832.16</ele>
        <time>2019-07-09T06:22:08Z</time>
      </trkpt>
      <trkpt lat="48.46051" lon="7.11532">
        <ele>834.08</ele>
        <time>2019-07-09T06:22:21Z</time>
      </trkpt>
      <trkpt lat="48.46047" lon="7.11498">
        <ele>836.48</ele>
        <time>2019-07-09T06:22:34Z</time>
      </trkpt>
      <trkpt lat="48.46047" lon="7.11494">
        <ele>836.48</ele>
        <time>2019-07-09T06:22:36Z</time>
      </trkpt>
      <trkpt lat="48.46047" lon="7.11492">
        <ele>836.48</ele>
        <time>2019-07-09T06:22:37Z</time>
      </trkpt>
      <trkpt lat="48.46046" lon="7.11489">
        <ele>836.48</ele>
        <time>2019-07-09T06:22:38Z</time>
      </trkpt>
      <trkpt lat="48.46042" lon="7.11452">
        <ele>836</ele>
        <time>2019-07-09T06:22:52Z</time>
      </trkpt>
      <trkpt lat="48.46039" lon="7.11421">
        <ele>836.96</ele>
        <time>2019-07-09T06:23:06Z</time>
      </trkpt>
      <trkpt lat="48.46037" lon="7.11413">
        <ele>836.48</ele>
        <time>2019-07-09T06:23:10Z</time>
      </trkpt>
      <trkpt lat="48.46037" lon="7.11411">
        <ele>836.48</ele>
        <time>2019-07-09T06:23:11Z</time>
      </trkpt>
      <trkpt lat="48.46037" lon="7.11409">
        <ele>836.48</ele>
        <time>2019-07-09T06:23:12Z</time>
      </trkpt>
      <trkpt lat="48.46037" lon="7.11407">
        <ele>836.48</ele>
        <time>2019-07-09T06:23:13Z</time>
      </trkpt>
      <trkpt lat="48.46036" lon="7.11405">
        <ele>836.48</ele>
        <time>2019-07-09T06:23:14Z</time>
      </trkpt>
      <trkpt lat="48.46036" lon="7.11403">
        <ele>836.96</ele>
        <time>2019-07-09T06:23:15Z</time>
      </trkpt>
      <trkpt lat="48.46032" lon="7.11373">
        <ele>838.89</ele>
        <time>2019-07-09T06:23:28Z</time>
      </trkpt>
      <trkpt lat="48.46028" lon="7.11334">
        <ele>838.89</ele>
        <time>2019-07-09T06:23:43Z</time>
      </trkpt>
      <trkpt lat="48.46024" lon="7.11301">
        <ele>840.81</ele>
        <time>2019-07-09T06:23:57Z</time>
      </trkpt>
      <trkpt lat="48.46019" lon="7.11259">
        <ele>844.66</ele>
        <time>2019-07-09T06:24:12Z</time>
      </trkpt>
      <trkpt lat="48.46012" lon="7.1123">
        <ele>847.54</ele>
        <time>2019-07-09T06:24:26Z</time>
      </trkpt>
      <trkpt lat="48.4601" lon="7.11204">
        <ele>847.54</ele>
        <time>2019-07-09T06:24:39Z</time>
      </trkpt>
      <trkpt lat="48.4601" lon="7.11197">
        <ele>846.58</ele>
        <time>2019-07-09T06:24:42Z</time>
      </trkpt>
      <trkpt lat="48.4601" lon="7.11195">
        <ele>846.1</ele>
        <time>2019-07-09T06:24:43Z</time>
      </trkpt>
      <trkpt lat="48.4601" lon="7.11192">
        <ele>845.62</ele>
        <time>2019-07-09T06:24:44Z</time>
      </trkpt>
      <trkpt lat="48.4601" lon="7.1119">
        <ele>845.14</ele>
        <time>2019-07-09T06:24:45Z</time>
      </trkpt>
      <trkpt lat="48.46011" lon="7.11188">
        <ele>845.14</ele>
        <time>2019-07-09T06:24:46Z</time>
      </trkpt>
      <trkpt lat="48.46011" lon="7.11186">
        <ele>845.14</ele>
        <time>2019-07-09T06:24:47Z</time>
      </trkpt>
      <trkpt lat="48.46011" lon="7.11183">
        <ele>845.14</ele>
        <time>2019-07-09T06:24:48Z</time>
      </trkpt>
      <trkpt lat="48.46011" lon="7.11181">
        <ele>845.14</ele>
        <time>2019-07-09T06:24:49Z</time>
      </trkpt>
      <trkpt lat="48.46011" lon="7.11178">
        <ele>845.62</ele>
        <time>2019-07-09T06:24:50Z</time>
      </trkpt>
      <trkpt lat="48.46011" lon="7.11175">
        <ele>845.62</ele>
        <time>2019-07-09T06:24:51Z</time>
      </trkpt>
      <trkpt lat="48.4601" lon="7.11173">
        <ele>845.62</ele>
        <time>2019-07-09T06:24:52Z</time>
      </trkpt>
      <trkpt lat="48.4601" lon="7.11171">
        <ele>845.14</ele>
        <time>2019-07-09T06:24:53Z</time>
      </trkpt>
      <trkpt lat="48.46011" lon="7.11169">
        <ele>845.14</ele>
        <time>2019-07-09T06:24:54Z</time>
      </trkpt>
      <trkpt lat="48.46011" lon="7.11167">
        <ele>845.14</ele>
        <time>2019-07-09T06:24:55Z</time>
      </trkpt>
      <trkpt lat="48.46011" lon="7.11165">
        <ele>845.14</ele>
        <time>2019-07-09T06:24:56Z</time>
      </trkpt>
      <trkpt lat="48.46012" lon="7.11162">
        <ele>845.14</ele>
        <time>2019-07-09T06:24:57Z</time>
      </trkpt>
      <trkpt lat="48.46011" lon="7.1116">
        <ele>845.14</ele>
        <time>2019-07-09T06:24:58Z</time>
      </trkpt>
      <trkpt lat="48.46011" lon="7.11157">
        <ele>845.14</ele>
        <time>2019-07-09T06:24:59Z</time>
      </trkpt>
      <trkpt lat="48.46012" lon="7.11154">
        <ele>845.14</ele>
        <time>2019-07-09T06:25:00Z</time>
      </trkpt>
      <trkpt lat="48.46012" lon="7.11151">
        <ele>844.66</ele>
        <time>2019-07-09T06:25:01Z</time>
      </trkpt>
      <trkpt lat="48.46013" lon="7.11149">
        <ele>844.66</ele>
        <time>2019-07-09T06:25:02Z</time>
      </trkpt>
      <trkpt lat="48.46013" lon="7.11146">
        <ele>844.66</ele>
        <time>2019-07-09T06:25:03Z</time>
      </trkpt>
      <trkpt lat="48.46014" lon="7.11144">
        <ele>845.14</ele>
        <time>2019-07-09T06:25:04Z</time>
      </trkpt>
      <trkpt lat="48.46014" lon="7.11141">
        <ele>844.66</ele>
        <time>2019-07-09T06:25:05Z</time>
      </trkpt>
      <trkpt lat="48.46014" lon="7.11138">
        <ele>844.66</ele>
        <time>2019-07-09T06:25:06Z</time>
      </trkpt>
      <trkpt lat="48.46014" lon="7.11136">
        <ele>844.66</ele>
        <time>2019-07-09T06:25:07Z</time>
      </trkpt>
      <trkpt lat="48.46015" lon="7.11133">
        <ele>844.66</ele>
        <time>2019-07-09T06:25:08Z</time>
      </trkpt>
      <trkpt lat="48.46015" lon="7.11131">
        <ele>844.66</ele>
        <time>2019-07-09T06:25:09Z</time>
      </trkpt>
      <trkpt lat="48.46016" lon="7.11114">
        <ele>846.58</ele>
        <time>2019-07-09T06:25:16Z</time>
      </trkpt>
      <trkpt lat="48.46016" lon="7.11112">
        <ele>846.58</ele>
        <time>2019-07-09T06:25:17Z</time>
      </trkpt>
      <trkpt lat="48.46015" lon="7.11103">
        <ele>848.02</ele>
        <time>2019-07-09T06:25:21Z</time>
      </trkpt>
      <trkpt lat="48.46015" lon="7.11101">
        <ele>848.5</ele>
        <time>2019-07-09T06:25:22Z</time>
      </trkpt>
      <trkpt lat="48.46016" lon="7.11091">
        <ele>851.38</ele>
        <time>2019-07-09T06:25:26Z</time>
      </trkpt>
      <trkpt lat="48.46015" lon="7.11089">
        <ele>851.87</ele>
        <time>2019-07-09T06:25:27Z</time>
      </trkpt>
      <trkpt lat="48.46016" lon="7.11077">
        <ele>856.19</ele>
        <time>2019-07-09T06:25:39Z</time>
      </trkpt>
      <trkpt lat="48.46021" lon="7.11063">
        <ele>859.56</ele>
        <time>2019-07-09T06:25:50Z</time>
      </trkpt>
      <trkpt lat="48.46029" lon="7.11055">
        <ele>863.88</ele>
        <time>2019-07-09T06:26:06Z</time>
      </trkpt>
      <trkpt lat="48.46033" lon="7.11051">
        <ele>869.65</ele>
        <time>2019-07-09T06:26:19Z</time>
      </trkpt>
      <trkpt lat="48.46038" lon="7.11048">
        <ele>873.5</ele>
        <time>2019-07-09T06:26:33Z</time>
      </trkpt>
      <trkpt lat="48.46045" lon="7.11046">
        <ele>876.38</ele>
        <time>2019-07-09T06:26:46Z</time>
      </trkpt>
      <trkpt lat="48.46052" lon="7.11045">
        <ele>877.34</ele>
        <time>2019-07-09T06:26:58Z</time>
      </trkpt>
      <trkpt lat="48.46062" lon="7.11043">
        <ele>881.67</ele>
        <time>2019-07-09T06:27:14Z</time>
      </trkpt>
      <trkpt lat="48.46072" lon="7.11042">
        <ele>882.15</ele>
        <time>2019-07-09T06:27:29Z</time>
      </trkpt>
      <trkpt lat="48.46082" lon="7.11042">
        <ele>885.03</ele>
        <time>2019-07-09T06:27:44Z</time>
      </trkpt>
      <trkpt lat="48.4609" lon="7.11043">
        <ele>888.4</ele>
        <time>2019-07-09T06:27:56Z</time>
      </trkpt>
      <trkpt lat="48.46101" lon="7.1105">
        <ele>892.72</ele>
        <time>2019-07-09T06:28:07Z</time>
      </trkpt>
      <trkpt lat="48.46104" lon="7.11051">
        <ele>892.72</ele>
        <time>2019-07-09T06:28:09Z</time>
      </trkpt>
      <trkpt lat="48.46112" lon="7.11054">
        <ele>890.8</ele>
        <time>2019-07-09T06:28:20Z</time>
      </trkpt>
      <trkpt lat="48.46123" lon="7.11065">
        <ele>890.32</ele>
        <time>2019-07-09T06:28:30Z</time>
      </trkpt>
      <trkpt lat="48.46126" lon="7.11072">
        <ele>889.36</ele>
        <time>2019-07-09T06:28:43Z</time>
      </trkpt>
      <trkpt lat="48.4613" lon="7.11073">
        <ele>887.91</ele>
        <time>2019-07-09T06:29:19Z</time>
      </trkpt>
      <trkpt lat="48.46131" lon="7.11069">
        <ele>886.47</ele>
        <time>2019-07-09T06:29:31Z</time>
      </trkpt>
      <trkpt lat="48.46137" lon="7.11063">
        <ele>886.47</ele>
        <time>2019-07-09T06:29:45Z</time>
      </trkpt>
      <trkpt lat="48.46141" lon="7.11058">
        <ele>888.4</ele>
        <time>2019-07-09T06:29:57Z</time>
      </trkpt>
      <trkpt lat="48.46144" lon="7.1105">
        <ele>888.88</ele>
        <time>2019-07-09T06:30:11Z</time>
      </trkpt>
      <trkpt lat="48.46148" lon="7.11045">
        <ele>893.2</ele>
        <time>2019-07-09T06:30:28Z</time>
      </trkpt>
      <trkpt lat="48.46154" lon="7.11038">
        <ele>898.01</ele>
        <time>2019-07-09T06:30:41Z</time>
      </trkpt>
      <trkpt lat="48.4616" lon="7.11031">
        <ele>898.97</ele>
        <time>2019-07-09T06:30:52Z</time>
      </trkpt>
      <trkpt lat="48.46163" lon="7.1102">
        <ele>900.89</ele>
        <time>2019-07-09T06:31:06Z</time>
      </trkpt>
      <trkpt lat="48.46168" lon="7.11012">
        <ele>905.22</ele>
        <time>2019-07-09T06:31:21Z</time>
      </trkpt>
      <trkpt lat="48.46172" lon="7.11011">
        <ele>906.18</ele>
        <time>2019-07-09T06:31:33Z</time>
      </trkpt>
      <trkpt lat="48.46177" lon="7.11007">
        <ele>907.14</ele>
        <time>2019-07-09T06:31:52Z</time>
      </trkpt>
      <trkpt lat="48.4618" lon="7.10999">
        <ele>906.18</ele>
        <time>2019-07-09T06:32:05Z</time>
      </trkpt>
      <trkpt lat="48.46182" lon="7.10995">
        <ele>907.14</ele>
        <time>2019-07-09T06:32:18Z</time>
      </trkpt>
      <trkpt lat="48.46196" lon="7.11002">
        <ele>905.7</ele>
        <time>2019-07-09T06:32:29Z</time>
      </trkpt>
      <trkpt lat="48.46217" lon="7.11013">
        <ele>907.14</ele>
        <time>2019-07-09T06:32:41Z</time>
      </trkpt>
      <trkpt lat="48.46244" lon="7.11028">
        <ele>908.1</ele>
        <time>2019-07-09T06:32:54Z</time>
      </trkpt>
      <trkpt lat="48.46246" lon="7.11029">
        <ele>908.1</ele>
        <time>2019-07-09T06:32:55Z</time>
      </trkpt>
      <trkpt lat="48.46274" lon="7.11044">
        <ele>905.7</ele>
        <time>2019-07-09T06:33:07Z</time>
      </trkpt>
      <trkpt lat="48.46295" lon="7.11054">
        <ele>906.66</ele>
        <time>2019-07-09T06:33:17Z</time>
      </trkpt>
      <trkpt lat="48.46326" lon="7.11063">
        <ele>910.99</ele>
        <time>2019-07-09T06:33:29Z</time>
      </trkpt>
      <trkpt lat="48.46349" lon="7.11067">
        <ele>913.87</ele>
        <time>2019-07-09T06:33:40Z</time>
      </trkpt>
      <trkpt lat="48.46361" lon="7.11065">
        <ele>914.83</ele>
        <time>2019-07-09T06:33:47Z</time>
      </trkpt>
      <trkpt lat="48.46362" lon="7.11065">
        <ele>914.83</ele>
        <time>2019-07-09T06:33:48Z</time>
      </trkpt>
      <trkpt lat="48.46365" lon="7.11065">
        <ele>915.31</ele>
        <time>2019-07-09T06:33:49Z</time>
      </trkpt>
      <trkpt lat="48.46367" lon="7.11066">
        <ele>915.79</ele>
        <time>2019-07-09T06:33:50Z</time>
      </trkpt>
      <trkpt lat="48.46369" lon="7.11066">
        <ele>916.27</ele>
        <time>2019-07-09T06:33:51Z</time>
      </trkpt>
      <trkpt lat="48.46398" lon="7.11069">
        <ele>915.31</ele>
        <time>2019-07-09T06:34:02Z</time>
      </trkpt>
      <trkpt lat="48.4643" lon="7.11066">
        <ele>915.79</ele>
        <time>2019-07-09T06:34:14Z</time>
      </trkpt>
      <trkpt lat="48.46464" lon="7.11057">
        <ele>917.24</ele>
        <time>2019-07-09T06:34:26Z</time>
      </trkpt>
      <trkpt lat="48.46479" lon="7.11044">
        <ele>914.35</ele>
        <time>2019-07-09T06:34:31Z</time>
      </trkpt>
      <trkpt lat="48.46483" lon="7.11042">
        <ele>913.87</ele>
        <time>2019-07-09T06:34:32Z</time>
      </trkpt>
      <trkpt lat="48.4652" lon="7.11013">
        <ele>908.1</ele>
        <time>2019-07-09T06:34:42Z</time>
      </trkpt>
      <trkpt lat="48.46527" lon="7.11006">
        <ele>903.78</ele>
        <time>2019-07-09T06:34:53Z</time>
      </trkpt>
      <trkpt lat="48.46529" lon="7.11004">
        <ele>903.3</ele>
        <time>2019-07-09T06:34:54Z</time>
      </trkpt>
      <trkpt lat="48.46532" lon="7.11002">
        <ele>902.82</ele>
        <time>2019-07-09T06:34:55Z</time>
      </trkpt>
      <trkpt lat="48.46535" lon="7.11">
        <ele>902.82</ele>
        <time>2019-07-09T06:34:56Z</time>
      </trkpt>
      <trkpt lat="48.46561" lon="7.10979">
        <ele>900.41</ele>
        <time>2019-07-09T06:35:07Z</time>
      </trkpt>
      <trkpt lat="48.46591" lon="7.10942">
        <ele>896.57</ele>
        <time>2019-07-09T06:35:17Z</time>
      </trkpt>
      <trkpt lat="48.46614" lon="7.10922">
        <ele>894.16</ele>
        <time>2019-07-09T06:35:24Z</time>
      </trkpt>
      <trkpt lat="48.46618" lon="7.10921">
        <ele>894.16</ele>
        <time>2019-07-09T06:35:25Z</time>
      </trkpt>
      <trkpt lat="48.46621" lon="7.10919">
        <ele>893.68</ele>
        <time>2019-07-09T06:35:26Z</time>
      </trkpt>
      <trkpt lat="48.46624" lon="7.10918">
        <ele>893.68</ele>
        <time>2019-07-09T06:35:27Z</time>
      </trkpt>
      <trkpt lat="48.46627" lon="7.10916">
        <ele>893.68</ele>
        <time>2019-07-09T06:35:28Z</time>
      </trkpt>
      <trkpt lat="48.4663" lon="7.10916">
        <ele>893.2</ele>
        <time>2019-07-09T06:35:29Z</time>
      </trkpt>
      <trkpt lat="48.46635" lon="7.10916">
        <ele>892.72</ele>
        <time>2019-07-09T06:35:30Z</time>
      </trkpt>
      <trkpt lat="48.4668" lon="7.10918">
        <ele>890.8</ele>
        <time>2019-07-09T06:35:40Z</time>
      </trkpt>
      <trkpt lat="48.46714" lon="7.10921">
        <ele>890.8</ele>
        <time>2019-07-09T06:35:49Z</time>
      </trkpt>
      <trkpt lat="48.46722" lon="7.10917">
        <ele>891.28</ele>
        <time>2019-07-09T06:35:52Z</time>
      </trkpt>
      <trkpt lat="48.46754" lon="7.10888">
        <ele>887.43</ele>
        <time>2019-07-09T06:36:02Z</time>
      </trkpt>
      <trkpt lat="48.46783" lon="7.10861">
        <ele>875.9</ele>
        <time>2019-07-09T06:36:12Z</time>
      </trkpt>
      <trkpt lat="48.46813" lon="7.10841">
        <ele>867.73</ele>
        <time>2019-07-09T06:36:23Z</time>
      </trkpt>
      <trkpt lat="48.46841" lon="7.10838">
        <ele>864.36</ele>
        <time>2019-07-09T06:36:33Z</time>
      </trkpt>
      <trkpt lat="48.46846" lon="7.10835">
        <ele>863.4</ele>
        <time>2019-07-09T06:36:44Z</time>
      </trkpt>
      <trkpt lat="48.46847" lon="7.10835">
        <ele>863.4</ele>
        <time>2019-07-09T06:36:45Z</time>
      </trkpt>
      <trkpt lat="48.46849" lon="7.10834">
        <ele>862.92</ele>
        <time>2019-07-09T06:36:46Z</time>
      </trkpt>
      <trkpt lat="48.46851" lon="7.10834">
        <ele>862.92</ele>
        <time>2019-07-09T06:36:47Z</time>
      </trkpt>
      <trkpt lat="48.46853" lon="7.10835">
        <ele>861.96</ele>
        <time>2019-07-09T06:36:48Z</time>
      </trkpt>
      <trkpt lat="48.46855" lon="7.10836">
        <ele>861.48</ele>
        <time>2019-07-09T06:36:49Z</time>
      </trkpt>
      <trkpt lat="48.46857" lon="7.10838">
        <ele>861</ele>
        <time>2019-07-09T06:36:50Z</time>
      </trkpt>
      <trkpt lat="48.46859" lon="7.10841">
        <ele>860.52</ele>
        <time>2019-07-09T06:36:51Z</time>
      </trkpt>
      <trkpt lat="48.46861" lon="7.10844">
        <ele>860.52</ele>
        <time>2019-07-09T06:36:52Z</time>
      </trkpt>
      <trkpt lat="48.46863" lon="7.10846">
        <ele>860.04</ele>
        <time>2019-07-09T06:36:53Z</time>
      </trkpt>
      <trkpt lat="48.46896" lon="7.10865">
        <ele>859.56</ele>
        <time>2019-07-09T06:37:05Z</time>
      </trkpt>
      <trkpt lat="48.46932" lon="7.10884">
        <ele>860.04</ele>
        <time>2019-07-09T06:37:16Z</time>
      </trkpt>
      <trkpt lat="48.46963" lon="7.10899">
        <ele>860.52</ele>
        <time>2019-07-09T06:37:29Z</time>
      </trkpt>
      <trkpt lat="48.47002" lon="7.10913">
        <ele>860.52</ele>
        <time>2019-07-09T06:37:48Z</time>
      </trkpt>
      <trkpt lat="48.4703" lon="7.10921">
        <ele>862.44</ele>
        <time>2019-07-09T06:38:02Z</time>
      </trkpt>
      <trkpt lat="48.47059" lon="7.10918">
        <ele>865.32</ele>
        <time>2019-07-09T06:38:18Z</time>
      </trkpt>
      <trkpt lat="48.47086" lon="7.10911">
        <ele>868.69</ele>
        <time>2019-07-09T06:38:33Z</time>
      </trkpt>
      <trkpt lat="48.47118" lon="7.10906">
        <ele>872.53</ele>
        <time>2019-07-09T06:38:50Z</time>
      </trkpt>
      <trkpt lat="48.47141" lon="7.10897">
        <ele>875.9</ele>
        <time>2019-07-09T06:39:03Z</time>
      </trkpt>
      <trkpt lat="48.4717" lon="7.10886">
        <ele>879.26</ele>
        <time>2019-07-09T06:39:19Z</time>
      </trkpt>
      <trkpt lat="48.47197" lon="7.10878">
        <ele>882.63</ele>
        <time>2019-07-09T06:39:35Z</time>
      </trkpt>
      <trkpt lat="48.4722" lon="7.10875">
        <ele>883.11</ele>
        <time>2019-07-09T06:39:48Z</time>
      </trkpt>
      <trkpt lat="48.47248" lon="7.10882">
        <ele>882.63</ele>
        <time>2019-07-09T06:40:04Z</time>
      </trkpt>
      <trkpt lat="48.4727" lon="7.109">
        <ele>883.11</ele>
        <time>2019-07-09T06:40:17Z</time>
      </trkpt>
      <trkpt lat="48.4729" lon="7.10924">
        <ele>882.15</ele>
        <time>2019-07-09T06:40:29Z</time>
      </trkpt>
      <trkpt lat="48.47305" lon="7.10945">
        <ele>881.67</ele>
        <time>2019-07-09T06:40:41Z</time>
      </trkpt>
      <trkpt lat="48.47306" lon="7.10944">
        <ele>881.67</ele>
        <time>2019-07-09T06:40:42Z</time>
      </trkpt>
      <trkpt lat="48.47307" lon="7.10944">
        <ele>881.19</ele>
        <time>2019-07-09T06:40:43Z</time>
      </trkpt>
      <trkpt lat="48.47309" lon="7.10942">
        <ele>881.19</ele>
        <time>2019-07-09T06:40:44Z</time>
      </trkpt>
      <trkpt lat="48.47311" lon="7.10939">
        <ele>880.71</ele>
        <time>2019-07-09T06:40:45Z</time>
      </trkpt>
      <trkpt lat="48.47314" lon="7.1093">
        <ele>880.22</ele>
        <time>2019-07-09T06:40:47Z</time>
      </trkpt>
      <trkpt lat="48.47316" lon="7.10924">
        <ele>879.74</ele>
        <time>2019-07-09T06:40:48Z</time>
      </trkpt>
      <trkpt lat="48.47317" lon="7.10917">
        <ele>879.26</ele>
        <time>2019-07-09T06:40:49Z</time>
      </trkpt>
      <trkpt lat="48.47317" lon="7.10909">
        <ele>878.78</ele>
        <time>2019-07-09T06:40:50Z</time>
      </trkpt>
      <trkpt lat="48.47318" lon="7.10901">
        <ele>878.3</ele>
        <time>2019-07-09T06:40:51Z</time>
      </trkpt>
      <trkpt lat="48.47319" lon="7.10893">
        <ele>877.82</ele>
        <time>2019-07-09T06:40:52Z</time>
      </trkpt>
      <trkpt lat="48.47321" lon="7.10885">
        <ele>877.82</ele>
        <time>2019-07-09T06:40:53Z</time>
      </trkpt>
      <trkpt lat="48.47322" lon="7.10877">
        <ele>877.34</ele>
        <time>2019-07-09T06:40:54Z</time>
      </trkpt>
      <trkpt lat="48.47325" lon="7.10871">
        <ele>877.34</ele>
        <time>2019-07-09T06:40:55Z</time>
      </trkpt>
      <trkpt lat="48.47329" lon="7.10866">
        <ele>876.86</ele>
        <time>2019-07-09T06:40:56Z</time>
      </trkpt>
      <trkpt lat="48.47332" lon="7.10861">
        <ele>876.86</ele>
        <time>2019-07-09T06:40:57Z</time>
      </trkpt>
      <trkpt lat="48.47336" lon="7.10857">
        <ele>876.86</ele>
        <time>2019-07-09T06:40:58Z</time>
      </trkpt>
      <trkpt lat="48.4734" lon="7.10853">
        <ele>876.38</ele>
        <time>2019-07-09T06:40:59Z</time>
      </trkpt>
      <trkpt lat="48.47343" lon="7.1085">
        <ele>876.38</ele>
        <time>2019-07-09T06:41:00Z</time>
      </trkpt>
      <trkpt lat="48.47372" lon="7.1083">
        <ele>874.94</ele>
        <time>2019-07-09T06:41:07Z</time>
      </trkpt>
      <trkpt lat="48.47381" lon="7.10822">
        <ele>873.98</ele>
        <time>2019-07-09T06:41:09Z</time>
      </trkpt>
      <trkpt lat="48.47447" lon="7.10752">
        <ele>863.88</ele>
        <time>2019-07-09T06:41:20Z</time>
      </trkpt>
      <trkpt lat="48.47491" lon="7.10694">
        <ele>857.15</ele>
        <time>2019-07-09T06:41:29Z</time>
      </trkpt>
      <trkpt lat="48.47498" lon="7.10681">
        <ele>856.19</ele>
        <time>2019-07-09T06:41:31Z</time>
      </trkpt>
      <trkpt lat="48.47502" lon="7.10675">
        <ele>855.23</ele>
        <time>2019-07-09T06:41:32Z</time>
      </trkpt>
      <trkpt lat="48.47516" lon="7.10651">
        <ele>852.83</ele>
        <time>2019-07-09T06:41:39Z</time>
      </trkpt>
      <trkpt lat="48.47517" lon="7.10652">
        <ele>852.83</ele>
        <time>2019-07-09T06:41:40Z</time>
      </trkpt>
      <trkpt lat="48.47516" lon="7.10652">
        <ele>852.35</ele>
        <time>2019-07-09T06:41:49Z</time>
      </trkpt>
      <trkpt lat="48.47516" lon="7.10655">
        <ele>853.79</ele>
        <time>2019-07-09T06:42:24Z</time>
      </trkpt>
      <trkpt lat="48.47515" lon="7.10653">
        <ele>851.87</ele>
        <time>2019-07-09T06:43:00Z</time>
      </trkpt>
      <trkpt lat="48.47515" lon="7.10653">
        <ele>854.27</ele>
        <time>2019-07-09T06:43:36Z</time>
      </trkpt>
      <trkpt lat="48.47514" lon="7.10655">
        <ele>859.08</ele>
        <time>2019-07-09T06:44:07Z</time>
      </trkpt>
      <trkpt lat="48.47514" lon="7.10652">
        <ele>862.92</ele>
        <time>2019-07-09T06:44:41Z</time>
      </trkpt>
      <trkpt lat="48.47515" lon="7.10651">
        <ele>861.96</ele>
        <time>2019-07-09T06:44:55Z</time>
      </trkpt>
      <trkpt lat="48.47515" lon="7.10649">
        <ele>861.96</ele>
        <time>2019-07-09T06:44:56Z</time>
      </trkpt>
      <trkpt lat="48.47516" lon="7.10647">
        <ele>861.48</ele>
        <time>2019-07-09T06:44:57Z</time>
      </trkpt>
      <trkpt lat="48.47517" lon="7.10645">
        <ele>861.48</ele>
        <time>2019-07-09T06:44:58Z</time>
      </trkpt>
      <trkpt lat="48.47519" lon="7.10642">
        <ele>861</ele>
        <time>2019-07-09T06:44:59Z</time>
      </trkpt>
      <trkpt lat="48.47521" lon="7.10638">
        <ele>860.52</ele>
        <time>2019-07-09T06:45:00Z</time>
      </trkpt>
      <trkpt lat="48.47523" lon="7.10633">
        <ele>860.04</ele>
        <time>2019-07-09T06:45:01Z</time>
      </trkpt>
      <trkpt lat="48.47526" lon="7.10628">
        <ele>859.56</ele>
        <time>2019-07-09T06:45:02Z</time>
      </trkpt>
      <trkpt lat="48.47528" lon="7.10622">
        <ele>858.59</ele>
        <time>2019-07-09T06:45:03Z</time>
      </trkpt>
      <trkpt lat="48.47545" lon="7.10577">
        <ele>851.38</ele>
        <time>2019-07-09T06:45:12Z</time>
      </trkpt>
      <trkpt lat="48.47546" lon="7.10577">
        <ele>850.9</ele>
        <time>2019-07-09T06:45:17Z</time>
      </trkpt>
      <trkpt lat="48.47547" lon="7.10575">
        <ele>850.42</ele>
        <time>2019-07-09T06:45:18Z</time>
      </trkpt>
      <trkpt lat="48.47548" lon="7.10572">
        <ele>849.94</ele>
        <time>2019-07-09T06:45:19Z</time>
      </trkpt>
      <trkpt lat="48.47549" lon="7.10567">
        <ele>849.94</ele>
        <time>2019-07-09T06:45:20Z</time>
      </trkpt>
      <trkpt lat="48.4755" lon="7.10563">
        <ele>849.46</ele>
        <time>2019-07-09T06:45:21Z</time>
      </trkpt>
      <trkpt lat="48.47552" lon="7.10557">
        <ele>848.98</ele>
        <time>2019-07-09T06:45:22Z</time>
      </trkpt>
      <trkpt lat="48.47554" lon="7.1055">
        <ele>848.5</ele>
        <time>2019-07-09T06:45:23Z</time>
      </trkpt>
      <trkpt lat="48.47555" lon="7.10543">
        <ele>848.02</ele>
        <time>2019-07-09T06:45:24Z</time>
      </trkpt>
      <trkpt lat="48.47567" lon="7.10425">
        <ele>837.93</ele>
        <time>2019-07-09T06:45:36Z</time>
      </trkpt>
      <trkpt lat="48.47568" lon="7.10342">
        <ele>830.72</ele>
        <time>2019-07-09T06:45:44Z</time>
      </trkpt>
      <trkpt lat="48.47562" lon="7.10259">
        <ele>822.55</ele>
        <time>2019-07-09T06:45:54Z</time>
      </trkpt>
      <trkpt lat="48.47556" lon="7.10224">
        <ele>820.62</ele>
        <time>2019-07-09T06:46:01Z</time>
      </trkpt>
      <trkpt lat="48.47554" lon="7.10218">
        <ele>820.62</ele>
        <time>2019-07-09T06:46:02Z</time>
      </trkpt>
      <trkpt lat="48.47551" lon="7.10213">
        <ele>820.62</ele>
        <time>2019-07-09T06:46:03Z</time>
      </trkpt>
      <trkpt lat="48.47513" lon="7.10133">
        <ele>817.74</ele>
        <time>2019-07-09T06:46:15Z</time>
      </trkpt>
      <trkpt lat="48.47505" lon="7.10115">
        <ele>816.78</ele>
        <time>2019-07-09T06:46:18Z</time>
      </trkpt>
      <trkpt lat="48.47503" lon="7.10109">
        <ele>816.78</ele>
        <time>2019-07-09T06:46:19Z</time>
      </trkpt>
      <trkpt lat="48.47494" lon="7.10083">
        <ele>815.34</ele>
        <time>2019-07-09T06:46:24Z</time>
      </trkpt>
      <trkpt lat="48.47495" lon="7.10082">
        <ele>814.85</ele>
        <time>2019-07-09T06:46:26Z</time>
      </trkpt>
      <trkpt lat="48.47519" lon="7.10078">
        <ele>813.89</ele>
        <time>2019-07-09T06:46:35Z</time>
      </trkpt>
      <trkpt lat="48.47541" lon="7.1009">
        <ele>813.41</ele>
        <time>2019-07-09T06:46:41Z</time>
      </trkpt>
      <trkpt lat="48.47582" lon="7.10112">
        <ele>810.53</ele>
        <time>2019-07-09T06:46:48Z</time>
      </trkpt>
      <trkpt lat="48.47654" lon="7.10168">
        <ele>802.84</ele>
        <time>2019-07-09T06:46:58Z</time>
      </trkpt>
      <trkpt lat="48.47667" lon="7.10179">
        <ele>800.92</ele>
        <time>2019-07-09T06:47:00Z</time>
      </trkpt>
      <trkpt lat="48.47673" lon="7.10185">
        <ele>799.95</ele>
        <time>2019-07-09T06:47:01Z</time>
      </trkpt>
      <trkpt lat="48.47734" lon="7.10281">
        <ele>788.9</ele>
        <time>2019-07-09T06:47:12Z</time>
      </trkpt>
      <trkpt lat="48.47743" lon="7.10303">
        <ele>787.46</ele>
        <time>2019-07-09T06:47:14Z</time>
      </trkpt>
      <trkpt lat="48.47782" lon="7.10385">
        <ele>780.25</ele>
        <time>2019-07-09T06:47:22Z</time>
      </trkpt>
      <trkpt lat="48.47787" lon="7.10391">
        <ele>779.29</ele>
        <time>2019-07-09T06:47:23Z</time>
      </trkpt>
      <trkpt lat="48.47791" lon="7.10396">
        <ele>778.32</ele>
        <time>2019-07-09T06:47:24Z</time>
      </trkpt>
      <trkpt lat="48.47795" lon="7.10399">
        <ele>777.36</ele>
        <time>2019-07-09T06:47:25Z</time>
      </trkpt>
      <trkpt lat="48.478" lon="7.10402">
        <ele>776.88</ele>
        <time>2019-07-09T06:47:26Z</time>
      </trkpt>
      <trkpt lat="48.47804" lon="7.10404">
        <ele>776.4</ele>
        <time>2019-07-09T06:47:27Z</time>
      </trkpt>
      <trkpt lat="48.47809" lon="7.10406">
        <ele>775.92</ele>
        <time>2019-07-09T06:47:28Z</time>
      </trkpt>
      <trkpt lat="48.47829" lon="7.10411">
        <ele>774</ele>
        <time>2019-07-09T06:47:32Z</time>
      </trkpt>
      <trkpt lat="48.47855" lon="7.10401">
        <ele>774.48</ele>
        <time>2019-07-09T06:47:42Z</time>
      </trkpt>
      <trkpt lat="48.47855" lon="7.10397">
        <ele>774.48</ele>
        <time>2019-07-09T06:47:43Z</time>
      </trkpt>
      <trkpt lat="48.47855" lon="7.10393">
        <ele>774.48</ele>
        <time>2019-07-09T06:47:44Z</time>
      </trkpt>
      <trkpt lat="48.4786" lon="7.10324">
        <ele>772.08</ele>
        <time>2019-07-09T06:47:56Z</time>
      </trkpt>
      <trkpt lat="48.47861" lon="7.10317">
        <ele>772.08</ele>
        <time>2019-07-09T06:47:57Z</time>
      </trkpt>
      <trkpt lat="48.47852" lon="7.10218">
        <ele>767.27</ele>
        <time>2019-07-09T06:48:11Z</time>
      </trkpt>
      <trkpt lat="48.47837" lon="7.10147">
        <ele>764.87</ele>
        <time>2019-07-09T06:48:21Z</time>
      </trkpt>
      <trkpt lat="48.47836" lon="7.10141">
        <ele>764.87</ele>
        <time>2019-07-09T06:48:22Z</time>
      </trkpt>
      <trkpt lat="48.47835" lon="7.10134">
        <ele>764.39</ele>
        <time>2019-07-09T06:48:23Z</time>
      </trkpt>
      <trkpt lat="48.47834" lon="7.10127">
        <ele>764.39</ele>
        <time>2019-07-09T06:48:24Z</time>
      </trkpt>
      <trkpt lat="48.47832" lon="7.10121">
        <ele>764.39</ele>
        <time>2019-07-09T06:48:25Z</time>
      </trkpt>
      <trkpt lat="48.47831" lon="7.10114">
        <ele>764.39</ele>
        <time>2019-07-09T06:48:26Z</time>
      </trkpt>
      <trkpt lat="48.47829" lon="7.10107">
        <ele>764.39</ele>
        <time>2019-07-09T06:48:27Z</time>
      </trkpt>
      <trkpt lat="48.47828" lon="7.101">
        <ele>763.9</ele>
        <time>2019-07-09T06:48:28Z</time>
      </trkpt>
      <trkpt lat="48.47826" lon="7.10093">
        <ele>763.9</ele>
        <time>2019-07-09T06:48:29Z</time>
      </trkpt>
      <trkpt lat="48.47825" lon="7.10086">
        <ele>763.9</ele>
        <time>2019-07-09T06:48:30Z</time>
      </trkpt>
      <trkpt lat="48.47823" lon="7.10079">
        <ele>763.9</ele>
        <time>2019-07-09T06:48:31Z</time>
      </trkpt>
      <trkpt lat="48.47816" lon="7.10059">
        <ele>763.42</ele>
        <time>2019-07-09T06:48:34Z</time>
      </trkpt>
      <trkpt lat="48.47806" lon="7.10027">
        <ele>762.94</ele>
        <time>2019-07-09T06:48:38Z</time>
      </trkpt>
      <trkpt lat="48.47799" lon="7.10009">
        <ele>761.98</ele>
        <time>2019-07-09T06:48:40Z</time>
      </trkpt>
      <trkpt lat="48.47751" lon="7.09861">
        <ele>754.29</ele>
        <time>2019-07-09T06:48:53Z</time>
      </trkpt>
      <trkpt lat="48.47731" lon="7.098">
        <ele>752.37</ele>
        <time>2019-07-09T06:48:58Z</time>
      </trkpt>
      <trkpt lat="48.47721" lon="7.09778">
        <ele>751.41</ele>
        <time>2019-07-09T06:49:00Z</time>
      </trkpt>
      <trkpt lat="48.47642" lon="7.09651">
        <ele>749</ele>
        <time>2019-07-09T06:49:13Z</time>
      </trkpt>
      <trkpt lat="48.4757" lon="7.09539">
        <ele>747.08</ele>
        <time>2019-07-09T06:49:27Z</time>
      </trkpt>
      <trkpt lat="48.47566" lon="7.09531">
        <ele>747.08</ele>
        <time>2019-07-09T06:49:28Z</time>
      </trkpt>
      <trkpt lat="48.47537" lon="7.09474">
        <ele>747.56</ele>
        <time>2019-07-09T06:49:36Z</time>
      </trkpt>
      <trkpt lat="48.47534" lon="7.09467">
        <ele>747.56</ele>
        <time>2019-07-09T06:49:37Z</time>
      </trkpt>
      <trkpt lat="48.47498" lon="7.09388">
        <ele>747.08</ele>
        <time>2019-07-09T06:49:49Z</time>
      </trkpt>
      <trkpt lat="48.47454" lon="7.09289">
        <ele>745.16</ele>
        <time>2019-07-09T06:50:05Z</time>
      </trkpt>
      <trkpt lat="48.47431" lon="7.09223">
        <ele>743.24</ele>
        <time>2019-07-09T06:50:17Z</time>
      </trkpt>
      <trkpt lat="48.47427" lon="7.09206">
        <ele>741.79</ele>
        <time>2019-07-09T06:50:20Z</time>
      </trkpt>
      <trkpt lat="48.4742" lon="7.09182">
        <ele>740.83</ele>
        <time>2019-07-09T06:50:28Z</time>
      </trkpt>
      <trkpt lat="48.47421" lon="7.09182">
        <ele>741.31</ele>
        <time>2019-07-09T06:50:31Z</time>
      </trkpt>
      <trkpt lat="48.47426" lon="7.09162">
        <ele>744.2</ele>
        <time>2019-07-09T06:50:41Z</time>
      </trkpt>
      <trkpt lat="48.47423" lon="7.09112">
        <ele>741.79</ele>
        <time>2019-07-09T06:50:53Z</time>
      </trkpt>
      <trkpt lat="48.47425" lon="7.09048">
        <ele>743.24</ele>
        <time>2019-07-09T06:51:07Z</time>
      </trkpt>
      <trkpt lat="48.4743" lon="7.08988">
        <ele>743.72</ele>
        <time>2019-07-09T06:51:21Z</time>
      </trkpt>
      <trkpt lat="48.47435" lon="7.08943">
        <ele>743.24</ele>
        <time>2019-07-09T06:51:32Z</time>
      </trkpt>
      <trkpt lat="48.47437" lon="7.08884">
        <ele>741.79</ele>
        <time>2019-07-09T06:51:46Z</time>
      </trkpt>
      <trkpt lat="48.47435" lon="7.08835">
        <ele>741.31</ele>
        <time>2019-07-09T06:51:58Z</time>
      </trkpt>
      <trkpt lat="48.47421" lon="7.08785">
        <ele>744.68</ele>
        <time>2019-07-09T06:52:11Z</time>
      </trkpt>
      <trkpt lat="48.47419" lon="7.08779">
        <ele>745.16</ele>
        <time>2019-07-09T06:52:13Z</time>
      </trkpt>
      <trkpt lat="48.47418" lon="7.08776">
        <ele>746.12</ele>
        <time>2019-07-09T06:52:14Z</time>
      </trkpt>
      <trkpt lat="48.47417" lon="7.08773">
        <ele>749</ele>
        <time>2019-07-09T06:52:28Z</time>
      </trkpt>
      <trkpt lat="48.47416" lon="7.08771">
        <ele>749</ele>
        <time>2019-07-09T06:52:29Z</time>
      </trkpt>
      <trkpt lat="48.47415" lon="7.08768">
        <ele>749.49</ele>
        <time>2019-07-09T06:52:30Z</time>
      </trkpt>
      <trkpt lat="48.47414" lon="7.08765">
        <ele>749.49</ele>
        <time>2019-07-09T06:52:31Z</time>
      </trkpt>
      <trkpt lat="48.47412" lon="7.08761">
        <ele>749.97</ele>
        <time>2019-07-09T06:52:32Z</time>
      </trkpt>
      <trkpt lat="48.4741" lon="7.08758">
        <ele>749.97</ele>
        <time>2019-07-09T06:52:33Z</time>
      </trkpt>
      <trkpt lat="48.47409" lon="7.08755">
        <ele>750.45</ele>
        <time>2019-07-09T06:52:34Z</time>
      </trkpt>
      <trkpt lat="48.47393" lon="7.08703">
        <ele>753.33</ele>
        <time>2019-07-09T06:52:48Z</time>
      </trkpt>
      <trkpt lat="48.47378" lon="7.08654">
        <ele>756.21</ele>
        <time>2019-07-09T06:53:00Z</time>
      </trkpt>
      <trkpt lat="48.4737" lon="7.08616">
        <ele>755.73</ele>
        <time>2019-07-09T06:53:09Z</time>
      </trkpt>
      <trkpt lat="48.47362" lon="7.0856">
        <ele>754.77</ele>
        <time>2019-07-09T06:53:22Z</time>
      </trkpt>
      <trkpt lat="48.4736" lon="7.08549">
        <ele>754.29</ele>
        <time>2019-07-09T06:53:25Z</time>
      </trkpt>
      <trkpt lat="48.47357" lon="7.08497">
        <ele>751.89</ele>
        <time>2019-07-09T06:53:37Z</time>
      </trkpt>
      <trkpt lat="48.47358" lon="7.08445">
        <ele>750.45</ele>
        <time>2019-07-09T06:53:49Z</time>
      </trkpt>
      <trkpt lat="48.47356" lon="7.08398">
        <ele>748.04</ele>
        <time>2019-07-09T06:54:00Z</time>
      </trkpt>
      <trkpt lat="48.4735" lon="7.08339">
        <ele>748.04</ele>
        <time>2019-07-09T06:54:14Z</time>
      </trkpt>
      <trkpt lat="48.47327" lon="7.08282">
        <ele>754.77</ele>
        <time>2019-07-09T06:54:28Z</time>
      </trkpt>
      <trkpt lat="48.47308" lon="7.08244">
        <ele>759.58</ele>
        <time>2019-07-09T06:54:38Z</time>
      </trkpt>
      <trkpt lat="48.47289" lon="7.08197">
        <ele>761.02</ele>
        <time>2019-07-09T06:54:50Z</time>
      </trkpt>
      <trkpt lat="48.47263" lon="7.08147">
        <ele>767.27</ele>
        <time>2019-07-09T06:55:03Z</time>
      </trkpt>
      <trkpt lat="48.47242" lon="7.08101">
        <ele>770.15</ele>
        <time>2019-07-09T06:55:16Z</time>
      </trkpt>
      <trkpt lat="48.47223" lon="7.08054">
        <ele>770.15</ele>
        <time>2019-07-09T06:55:28Z</time>
      </trkpt>
      <trkpt lat="48.4721" lon="7.07996">
        <ele>771.11</ele>
        <time>2019-07-09T06:55:41Z</time>
      </trkpt>
      <trkpt lat="48.47216" lon="7.07928">
        <ele>768.23</ele>
        <time>2019-07-09T06:55:56Z</time>
      </trkpt>
      <trkpt lat="48.47224" lon="7.07861">
        <ele>765.83</ele>
        <time>2019-07-09T06:56:11Z</time>
      </trkpt>
      <trkpt lat="48.47226" lon="7.07792">
        <ele>763.42</ele>
        <time>2019-07-09T06:56:26Z</time>
      </trkpt>
      <trkpt lat="48.47227" lon="7.07716">
        <ele>763.9</ele>
        <time>2019-07-09T06:56:42Z</time>
      </trkpt>
      <trkpt lat="48.47237" lon="7.07653">
        <ele>763.9</ele>
        <time>2019-07-09T06:56:56Z</time>
      </trkpt>
      <trkpt lat="48.47256" lon="7.07603">
        <ele>767.27</ele>
        <time>2019-07-09T06:57:09Z</time>
      </trkpt>
      <trkpt lat="48.47286" lon="7.07559">
        <ele>775.44</ele>
        <time>2019-07-09T06:57:24Z</time>
      </trkpt>
      <trkpt lat="48.47312" lon="7.0753">
        <ele>783.13</ele>
        <time>2019-07-09T06:57:35Z</time>
      </trkpt>
      <trkpt lat="48.47342" lon="7.07498">
        <ele>789.86</ele>
        <time>2019-07-09T06:57:48Z</time>
      </trkpt>
      <trkpt lat="48.47358" lon="7.07439">
        <ele>788.42</ele>
        <time>2019-07-09T06:58:03Z</time>
      </trkpt>
      <trkpt lat="48.47346" lon="7.07394">
        <ele>787.94</ele>
        <time>2019-07-09T06:58:17Z</time>
      </trkpt>
      <trkpt lat="48.47346" lon="7.07392">
        <ele>787.46</ele>
        <time>2019-07-09T06:58:18Z</time>
      </trkpt>
      <trkpt lat="48.47346" lon="7.0739">
        <ele>787.46</ele>
        <time>2019-07-09T06:58:19Z</time>
      </trkpt>
      <trkpt lat="48.47345" lon="7.07388">
        <ele>787.46</ele>
        <time>2019-07-09T06:58:20Z</time>
      </trkpt>
      <trkpt lat="48.47344" lon="7.07386">
        <ele>787.46</ele>
        <time>2019-07-09T06:58:21Z</time>
      </trkpt>
      <trkpt lat="48.47343" lon="7.07384">
        <ele>786.98</ele>
        <time>2019-07-09T06:58:22Z</time>
      </trkpt>
      <trkpt lat="48.47341" lon="7.07382">
        <ele>787.46</ele>
        <time>2019-07-09T06:58:23Z</time>
      </trkpt>
      <trkpt lat="48.4734" lon="7.0738">
        <ele>787.46</ele>
        <time>2019-07-09T06:58:24Z</time>
      </trkpt>
      <trkpt lat="48.47338" lon="7.07378">
        <ele>787.46</ele>
        <time>2019-07-09T06:58:25Z</time>
      </trkpt>
      <trkpt lat="48.47336" lon="7.07375">
        <ele>787.94</ele>
        <time>2019-07-09T06:58:26Z</time>
      </trkpt>
      <trkpt lat="48.47316" lon="7.07341">
        <ele>789.38</ele>
        <time>2019-07-09T06:58:38Z</time>
      </trkpt>
      <trkpt lat="48.47284" lon="7.07295">
        <ele>788.9</ele>
        <time>2019-07-09T06:58:53Z</time>
      </trkpt>
      <trkpt lat="48.47263" lon="7.07258">
        <ele>788.42</ele>
        <time>2019-07-09T06:59:06Z</time>
      </trkpt>
      <trkpt lat="48.47243" lon="7.07229">
        <ele>789.86</ele>
        <time>2019-07-09T06:59:16Z</time>
      </trkpt>
      <trkpt lat="48.4721" lon="7.0719">
        <ele>792.74</ele>
        <time>2019-07-09T06:59:30Z</time>
      </trkpt>
      <trkpt lat="48.47184" lon="7.07163">
        <ele>791.3</ele>
        <time>2019-07-09T06:59:41Z</time>
      </trkpt>
      <trkpt lat="48.47147" lon="7.07142">
        <ele>788.9</ele>
        <time>2019-07-09T06:59:54Z</time>
      </trkpt>
      <trkpt lat="48.47116" lon="7.07131">
        <ele>787.94</ele>
        <time>2019-07-09T07:00:05Z</time>
      </trkpt>
      <trkpt lat="48.47075" lon="7.07115">
        <ele>788.42</ele>
        <time>2019-07-09T07:00:15Z</time>
      </trkpt>
      <trkpt lat="48.47025" lon="7.07088">
        <ele>788.42</ele>
        <time>2019-07-09T07:00:29Z</time>
      </trkpt>
      <trkpt lat="48.46982" lon="7.07049">
        <ele>787.46</ele>
        <time>2019-07-09T07:00:43Z</time>
      </trkpt>
      <trkpt lat="48.46938" lon="7.06998">
        <ele>787.94</ele>
        <time>2019-07-09T07:00:58Z</time>
      </trkpt>
      <trkpt lat="48.46894" lon="7.06948">
        <ele>785.05</ele>
        <time>2019-07-09T07:01:13Z</time>
      </trkpt>
      <trkpt lat="48.46855" lon="7.06912">
        <ele>785.05</ele>
        <time>2019-07-09T07:01:25Z</time>
      </trkpt>
      <trkpt lat="48.46817" lon="7.0686">
        <ele>783.61</ele>
        <time>2019-07-09T07:01:39Z</time>
      </trkpt>
      <trkpt lat="48.46789" lon="7.06805">
        <ele>782.17</ele>
        <time>2019-07-09T07:01:52Z</time>
      </trkpt>
      <trkpt lat="48.46761" lon="7.06741">
        <ele>782.17</ele>
        <time>2019-07-09T07:02:06Z</time>
      </trkpt>
      <trkpt lat="48.46728" lon="7.06686">
        <ele>782.65</ele>
        <time>2019-07-09T07:02:20Z</time>
      </trkpt>
      <trkpt lat="48.46691" lon="7.06643">
        <ele>782.17</ele>
        <time>2019-07-09T07:02:32Z</time>
      </trkpt>
      <trkpt lat="48.46666" lon="7.06613">
        <ele>781.69</ele>
        <time>2019-07-09T07:02:40Z</time>
      </trkpt>
      <trkpt lat="48.4666" lon="7.06604">
        <ele>782.17</ele>
        <time>2019-07-09T07:02:42Z</time>
      </trkpt>
      <trkpt lat="48.46643" lon="7.06572">
        <ele>781.69</ele>
        <time>2019-07-09T07:02:48Z</time>
      </trkpt>
      <trkpt lat="48.46641" lon="7.06566">
        <ele>781.69</ele>
        <time>2019-07-09T07:02:49Z</time>
      </trkpt>
      <trkpt lat="48.46639" lon="7.0656">
        <ele>781.69</ele>
        <time>2019-07-09T07:02:50Z</time>
      </trkpt>
      <trkpt lat="48.46637" lon="7.06554">
        <ele>781.21</ele>
        <time>2019-07-09T07:02:51Z</time>
      </trkpt>
      <trkpt lat="48.46634" lon="7.06548">
        <ele>781.21</ele>
        <time>2019-07-09T07:02:52Z</time>
      </trkpt>
      <trkpt lat="48.46611" lon="7.06459">
        <ele>780.25</ele>
        <time>2019-07-09T07:03:06Z</time>
      </trkpt>
      <trkpt lat="48.46611" lon="7.06452">
        <ele>780.25</ele>
        <time>2019-07-09T07:03:07Z</time>
      </trkpt>
      <trkpt lat="48.4661" lon="7.06439">
        <ele>780.25</ele>
        <time>2019-07-09T07:03:09Z</time>
      </trkpt>
      <trkpt lat="48.4661" lon="7.06432">
        <ele>780.25</ele>
        <time>2019-07-09T07:03:10Z</time>
      </trkpt>
      <trkpt lat="48.4661" lon="7.06426">
        <ele>780.25</ele>
        <time>2019-07-09T07:03:11Z</time>
      </trkpt>
      <trkpt lat="48.46611" lon="7.06421">
        <ele>779.77</ele>
        <time>2019-07-09T07:03:12Z</time>
      </trkpt>
      <trkpt lat="48.46611" lon="7.06414">
        <ele>779.77</ele>
        <time>2019-07-09T07:03:13Z</time>
      </trkpt>
      <trkpt lat="48.46612" lon="7.06407">
        <ele>779.77</ele>
        <time>2019-07-09T07:03:14Z</time>
      </trkpt>
      <trkpt lat="48.46614" lon="7.06388">
        <ele>779.77</ele>
        <time>2019-07-09T07:03:17Z</time>
      </trkpt>
      <trkpt lat="48.46618" lon="7.0637">
        <ele>779.77</ele>
        <time>2019-07-09T07:03:20Z</time>
      </trkpt>
      <trkpt lat="48.46632" lon="7.06322">
        <ele>777.84</ele>
        <time>2019-07-09T07:03:29Z</time>
      </trkpt>
      <trkpt lat="48.46649" lon="7.06252">
        <ele>778.32</ele>
        <time>2019-07-09T07:03:42Z</time>
      </trkpt>
      <trkpt lat="48.46637" lon="7.06189">
        <ele>779.29</ele>
        <time>2019-07-09T07:03:53Z</time>
      </trkpt>
      <trkpt lat="48.46635" lon="7.06183">
        <ele>779.29</ele>
        <time>2019-07-09T07:03:54Z</time>
      </trkpt>
      <trkpt lat="48.4662" lon="7.06145">
        <ele>779.77</ele>
        <time>2019-07-09T07:04:01Z</time>
      </trkpt>
      <trkpt lat="48.46618" lon="7.0614">
        <ele>779.77</ele>
        <time>2019-07-09T07:04:02Z</time>
      </trkpt>
      <trkpt lat="48.46591" lon="7.06074">
        <ele>780.73</ele>
        <time>2019-07-09T07:04:15Z</time>
      </trkpt>
      <trkpt lat="48.46563" lon="7.06009">
        <ele>783.13</ele>
        <time>2019-07-09T07:04:28Z</time>
      </trkpt>
      <trkpt lat="48.46551" lon="7.05981">
        <ele>784.09</ele>
        <time>2019-07-09T07:04:33Z</time>
      </trkpt>
      <trkpt lat="48.46519" lon="7.05905">
        <ele>785.05</ele>
        <time>2019-07-09T07:04:47Z</time>
      </trkpt>
      <trkpt lat="48.46506" lon="7.05875">
        <ele>785.53</ele>
        <time>2019-07-09T07:04:53Z</time>
      </trkpt>
      <trkpt lat="48.46499" lon="7.05857">
        <ele>785.05</ele>
        <time>2019-07-09T07:04:56Z</time>
      </trkpt>
      <trkpt lat="48.46497" lon="7.05851">
        <ele>785.05</ele>
        <time>2019-07-09T07:04:57Z</time>
      </trkpt>
      <trkpt lat="48.46491" lon="7.05834">
        <ele>784.09</ele>
        <time>2019-07-09T07:05:00Z</time>
      </trkpt>
      <trkpt lat="48.46488" lon="7.05829">
        <ele>784.09</ele>
        <time>2019-07-09T07:05:01Z</time>
      </trkpt>
      <trkpt lat="48.46485" lon="7.05824">
        <ele>784.09</ele>
        <time>2019-07-09T07:05:02Z</time>
      </trkpt>
      <trkpt lat="48.46466" lon="7.05797">
        <ele>784.57</ele>
        <time>2019-07-09T07:05:08Z</time>
      </trkpt>
      <trkpt lat="48.46463" lon="7.05793">
        <ele>784.57</ele>
        <time>2019-07-09T07:05:09Z</time>
      </trkpt>
      <trkpt lat="48.46451" lon="7.05785">
        <ele>785.05</ele>
        <time>2019-07-09T07:05:12Z</time>
      </trkpt>
      <trkpt lat="48.46401" lon="7.05785">
        <ele>782.65</ele>
        <time>2019-07-09T07:05:25Z</time>
      </trkpt>
      <trkpt lat="48.46369" lon="7.05797">
        <ele>780.73</ele>
        <time>2019-07-09T07:05:33Z</time>
      </trkpt>
      <trkpt lat="48.46321" lon="7.05805">
        <ele>779.77</ele>
        <time>2019-07-09T07:05:46Z</time>
      </trkpt>
      <trkpt lat="48.4628" lon="7.05784">
        <ele>778.32</ele>
        <time>2019-07-09T07:06:00Z</time>
      </trkpt>
      <trkpt lat="48.46244" lon="7.05759">
        <ele>778.32</ele>
        <time>2019-07-09T07:06:14Z</time>
      </trkpt>
      <trkpt lat="48.46207" lon="7.05722">
        <ele>781.21</ele>
        <time>2019-07-09T07:06:31Z</time>
      </trkpt>
      <trkpt lat="48.46189" lon="7.05694">
        <ele>784.57</ele>
        <time>2019-07-09T07:06:42Z</time>
      </trkpt>
      <trkpt lat="48.46165" lon="7.05653">
        <ele>788.42</ele>
        <time>2019-07-09T07:06:56Z</time>
      </trkpt>
      <trkpt lat="48.46144" lon="7.056">
        <ele>789.38</ele>
        <time>2019-07-09T07:07:11Z</time>
      </trkpt>
      <trkpt lat="48.46131" lon="7.05556">
        <ele>790.82</ele>
        <time>2019-07-09T07:07:24Z</time>
      </trkpt>
      <trkpt lat="48.46115" lon="7.05511">
        <ele>790.82</ele>
        <time>2019-07-09T07:07:36Z</time>
      </trkpt>
      <trkpt lat="48.46096" lon="7.05463">
        <ele>793.22</ele>
        <time>2019-07-09T07:07:50Z</time>
      </trkpt>
      <trkpt lat="48.46078" lon="7.05424">
        <ele>791.78</ele>
        <time>2019-07-09T07:08:02Z</time>
      </trkpt>
      <trkpt lat="48.46065" lon="7.05383">
        <ele>795.15</ele>
        <time>2019-07-09T07:08:14Z</time>
      </trkpt>
      <trkpt lat="48.4605" lon="7.05342">
        <ele>798.03</ele>
        <time>2019-07-09T07:08:25Z</time>
      </trkpt>
      <trkpt lat="48.4603" lon="7.05287">
        <ele>802.36</ele>
        <time>2019-07-09T07:08:40Z</time>
      </trkpt>
      <trkpt lat="48.46015" lon="7.05239">
        <ele>802.36</ele>
        <time>2019-07-09T07:08:53Z</time>
      </trkpt>
      <trkpt lat="48.45998" lon="7.0519">
        <ele>802.84</ele>
        <time>2019-07-09T07:09:07Z</time>
      </trkpt>
      <trkpt lat="48.45972" lon="7.05145">
        <ele>805.24</ele>
        <time>2019-07-09T07:09:22Z</time>
      </trkpt>
      <trkpt lat="48.4595" lon="7.05107">
        <ele>807.16</ele>
        <time>2019-07-09T07:09:35Z</time>
      </trkpt>
      <trkpt lat="48.45921" lon="7.05069">
        <ele>808.13</ele>
        <time>2019-07-09T07:09:51Z</time>
      </trkpt>
      <trkpt lat="48.45889" lon="7.05041">
        <ele>804.28</ele>
        <time>2019-07-09T07:10:06Z</time>
      </trkpt>
      <trkpt lat="48.45856" lon="7.05028">
        <ele>807.64</ele>
        <time>2019-07-09T07:10:19Z</time>
      </trkpt>
      <trkpt lat="48.45824" lon="7.05024">
        <ele>809.09</ele>
        <time>2019-07-09T07:10:32Z</time>
      </trkpt>
      <trkpt lat="48.45788" lon="7.0501">
        <ele>810.05</ele>
        <time>2019-07-09T07:10:46Z</time>
      </trkpt>
      <trkpt lat="48.45762" lon="7.04971">
        <ele>811.49</ele>
        <time>2019-07-09T07:11:00Z</time>
      </trkpt>
      <trkpt lat="48.45749" lon="7.04913">
        <ele>810.05</ele>
        <time>2019-07-09T07:11:15Z</time>
      </trkpt>
      <trkpt lat="48.4574" lon="7.04861">
        <ele>811.01</ele>
        <time>2019-07-09T07:11:29Z</time>
      </trkpt>
      <trkpt lat="48.45729" lon="7.04803">
        <ele>811.49</ele>
        <time>2019-07-09T07:11:44Z</time>
      </trkpt>
      <trkpt lat="48.45716" lon="7.04752">
        <ele>812.45</ele>
        <time>2019-07-09T07:11:59Z</time>
      </trkpt>
      <trkpt lat="48.45699" lon="7.04701">
        <ele>813.41</ele>
        <time>2019-07-09T07:12:13Z</time>
      </trkpt>
      <trkpt lat="48.45679" lon="7.04654">
        <ele>816.78</ele>
        <time>2019-07-09T07:12:26Z</time>
      </trkpt>
      <trkpt lat="48.45654" lon="7.04601">
        <ele>817.74</ele>
        <time>2019-07-09T07:12:40Z</time>
      </trkpt>
      <trkpt lat="48.4564" lon="7.04565">
        <ele>819.66</ele>
        <time>2019-07-09T07:12:50Z</time>
      </trkpt>
      <trkpt lat="48.45614" lon="7.045">
        <ele>823.51</ele>
        <time>2019-07-09T07:13:05Z</time>
      </trkpt>
      <trkpt lat="48.45597" lon="7.04434">
        <ele>823.51</ele>
        <time>2019-07-09T07:13:18Z</time>
      </trkpt>
      <trkpt lat="48.45593" lon="7.0439">
        <ele>821.58</ele>
        <time>2019-07-09T07:13:25Z</time>
      </trkpt>
      <trkpt lat="48.45593" lon="7.04383">
        <ele>821.1</ele>
        <time>2019-07-09T07:13:26Z</time>
      </trkpt>
      <trkpt lat="48.45592" lon="7.04376">
        <ele>820.62</ele>
        <time>2019-07-09T07:13:27Z</time>
      </trkpt>
      <trkpt lat="48.45591" lon="7.04368">
        <ele>820.14</ele>
        <time>2019-07-09T07:13:28Z</time>
      </trkpt>
      <trkpt lat="48.4559" lon="7.04361">
        <ele>820.14</ele>
        <time>2019-07-09T07:13:29Z</time>
      </trkpt>
      <trkpt lat="48.45589" lon="7.04353">
        <ele>819.66</ele>
        <time>2019-07-09T07:13:30Z</time>
      </trkpt>
      <trkpt lat="48.45577" lon="7.04264">
        <ele>818.7</ele>
        <time>2019-07-09T07:13:42Z</time>
      </trkpt>
      <trkpt lat="48.45575" lon="7.04257">
        <ele>818.7</ele>
        <time>2019-07-09T07:13:43Z</time>
      </trkpt>
      <trkpt lat="48.45574" lon="7.04249">
        <ele>818.22</ele>
        <time>2019-07-09T07:13:44Z</time>
      </trkpt>
      <trkpt lat="48.45573" lon="7.04241">
        <ele>817.74</ele>
        <time>2019-07-09T07:13:45Z</time>
      </trkpt>
      <trkpt lat="48.45571" lon="7.04234">
        <ele>817.74</ele>
        <time>2019-07-09T07:13:46Z</time>
      </trkpt>
      <trkpt lat="48.45569" lon="7.04226">
        <ele>817.26</ele>
        <time>2019-07-09T07:13:47Z</time>
      </trkpt>
      <trkpt lat="48.45563" lon="7.04199">
        <ele>816.3</ele>
        <time>2019-07-09T07:13:51Z</time>
      </trkpt>
      <trkpt lat="48.45561" lon="7.04194">
        <ele>816.3</ele>
        <time>2019-07-09T07:13:52Z</time>
      </trkpt>
      <trkpt lat="48.4553" lon="7.0412">
        <ele>818.22</ele>
        <time>2019-07-09T07:14:06Z</time>
      </trkpt>
      <trkpt lat="48.45512" lon="7.04063">
        <ele>818.7</ele>
        <time>2019-07-09T07:14:16Z</time>
      </trkpt>
      <trkpt lat="48.45489" lon="7.03992">
        <ele>817.26</ele>
        <time>2019-07-09T07:14:29Z</time>
      </trkpt>
      <trkpt lat="48.45457" lon="7.0393">
        <ele>818.7</ele>
        <time>2019-07-09T07:14:40Z</time>
      </trkpt>
      <trkpt lat="48.45454" lon="7.03924">
        <ele>818.22</ele>
        <time>2019-07-09T07:14:41Z</time>
      </trkpt>
      <trkpt lat="48.45452" lon="7.03919">
        <ele>818.7</ele>
        <time>2019-07-09T07:14:42Z</time>
      </trkpt>
      <trkpt lat="48.45408" lon="7.03863">
        <ele>817.74</ele>
        <time>2019-07-09T07:14:55Z</time>
      </trkpt>
      <trkpt lat="48.45373" lon="7.03824">
        <ele>814.85</ele>
        <time>2019-07-09T07:15:06Z</time>
      </trkpt>
      <trkpt lat="48.45369" lon="7.0382">
        <ele>814.37</ele>
        <time>2019-07-09T07:15:07Z</time>
      </trkpt>
      <trkpt lat="48.4532" lon="7.03779">
        <ele>809.57</ele>
        <time>2019-07-09T07:15:22Z</time>
      </trkpt>
      <trkpt lat="48.45286" lon="7.03738">
        <ele>808.13</ele>
        <time>2019-07-09T07:15:34Z</time>
      </trkpt>
      <trkpt lat="48.45271" lon="7.037">
        <ele>810.05</ele>
        <time>2019-07-09T07:15:44Z</time>
      </trkpt>
      <trkpt lat="48.4527" lon="7.03696">
        <ele>810.53</ele>
        <time>2019-07-09T07:15:45Z</time>
      </trkpt>
      <trkpt lat="48.45248" lon="7.03618">
        <ele>813.41</ele>
        <time>2019-07-09T07:16:02Z</time>
      </trkpt>
      <trkpt lat="48.45232" lon="7.0355">
        <ele>811.97</ele>
        <time>2019-07-09T07:16:15Z</time>
      </trkpt>
      <trkpt lat="48.45217" lon="7.03471">
        <ele>810.53</ele>
        <time>2019-07-09T07:16:29Z</time>
      </trkpt>
      <trkpt lat="48.45201" lon="7.03405">
        <ele>807.64</ele>
        <time>2019-07-09T07:16:41Z</time>
      </trkpt>
      <trkpt lat="48.45181" lon="7.03346">
        <ele>804.28</ele>
        <time>2019-07-09T07:16:51Z</time>
      </trkpt>
      <trkpt lat="48.45178" lon="7.03339">
        <ele>803.8</ele>
        <time>2019-07-09T07:16:52Z</time>
      </trkpt>
      <trkpt lat="48.45165" lon="7.03318">
        <ele>803.32</ele>
        <time>2019-07-09T07:16:55Z</time>
      </trkpt>
      <trkpt lat="48.4516" lon="7.03312">
        <ele>803.32</ele>
        <time>2019-07-09T07:16:56Z</time>
      </trkpt>
      <trkpt lat="48.45155" lon="7.03307">
        <ele>802.84</ele>
        <time>2019-07-09T07:16:57Z</time>
      </trkpt>
      <trkpt lat="48.45148" lon="7.03302">
        <ele>802.84</ele>
        <time>2019-07-09T07:16:58Z</time>
      </trkpt>
      <trkpt lat="48.45142" lon="7.03298">
        <ele>802.36</ele>
        <time>2019-07-09T07:16:59Z</time>
      </trkpt>
      <trkpt lat="48.4507" lon="7.03231">
        <ele>794.67</ele>
        <time>2019-07-09T07:17:10Z</time>
      </trkpt>
      <trkpt lat="48.4504" lon="7.03186">
        <ele>789.86</ele>
        <time>2019-07-09T07:17:15Z</time>
      </trkpt>
      <trkpt lat="48.45028" lon="7.03156">
        <ele>787.94</ele>
        <time>2019-07-09T07:17:18Z</time>
      </trkpt>
      <trkpt lat="48.45004" lon="7.03038">
        <ele>783.13</ele>
        <time>2019-07-09T07:17:30Z</time>
      </trkpt>
      <trkpt lat="48.44998" lon="7.03022">
        <ele>782.65</ele>
        <time>2019-07-09T07:17:32Z</time>
      </trkpt>
      <trkpt lat="48.4497" lon="7.02979">
        <ele>782.65</ele>
        <time>2019-07-09T07:17:42Z</time>
      </trkpt>
      <trkpt lat="48.44932" lon="7.02943">
        <ele>787.94</ele>
        <time>2019-07-09T07:17:58Z</time>
      </trkpt>
      <trkpt lat="48.44893" lon="7.02922">
        <ele>788.42</ele>
        <time>2019-07-09T07:18:11Z</time>
      </trkpt>
      <trkpt lat="48.44857" lon="7.02883">
        <ele>788.42</ele>
        <time>2019-07-09T07:18:22Z</time>
      </trkpt>
      <trkpt lat="48.44826" lon="7.02832">
        <ele>787.94</ele>
        <time>2019-07-09T07:18:35Z</time>
      </trkpt>
      <trkpt lat="48.44817" lon="7.02818">
        <ele>786.98</ele>
        <time>2019-07-09T07:18:38Z</time>
      </trkpt>
      <trkpt lat="48.44814" lon="7.02814">
        <ele>786.98</ele>
        <time>2019-07-09T07:18:39Z</time>
      </trkpt>
      <trkpt lat="48.4481" lon="7.02809">
        <ele>786.5</ele>
        <time>2019-07-09T07:18:40Z</time>
      </trkpt>
      <trkpt lat="48.44804" lon="7.02799">
        <ele>785.53</ele>
        <time>2019-07-09T07:18:42Z</time>
      </trkpt>
      <trkpt lat="48.44794" lon="7.02783">
        <ele>784.57</ele>
        <time>2019-07-09T07:18:45Z</time>
      </trkpt>
      <trkpt lat="48.44752" lon="7.02722">
        <ele>779.29</ele>
        <time>2019-07-09T07:18:54Z</time>
      </trkpt>
      <trkpt lat="48.44748" lon="7.02715">
        <ele>778.81</ele>
        <time>2019-07-09T07:18:55Z</time>
      </trkpt>
      <trkpt lat="48.44746" lon="7.02708">
        <ele>778.81</ele>
        <time>2019-07-09T07:18:56Z</time>
      </trkpt>
      <trkpt lat="48.44744" lon="7.02701">
        <ele>778.32</ele>
        <time>2019-07-09T07:18:57Z</time>
      </trkpt>
      <trkpt lat="48.44742" lon="7.02694">
        <ele>777.84</ele>
        <time>2019-07-09T07:18:58Z</time>
      </trkpt>
      <trkpt lat="48.44741" lon="7.02682">
        <ele>778.32</ele>
        <time>2019-07-09T07:19:01Z</time>
      </trkpt>
      <trkpt lat="48.44743" lon="7.0268">
        <ele>778.32</ele>
        <time>2019-07-09T07:19:02Z</time>
      </trkpt>
      <trkpt lat="48.44745" lon="7.02679">
        <ele>778.32</ele>
        <time>2019-07-09T07:19:03Z</time>
      </trkpt>
      <trkpt lat="48.44747" lon="7.02679">
        <ele>778.81</ele>
        <time>2019-07-09T07:19:04Z</time>
      </trkpt>
      <trkpt lat="48.44747" lon="7.02678">
        <ele>782.17</ele>
        <time>2019-07-09T07:19:16Z</time>
      </trkpt>
      <trkpt lat="48.44753" lon="7.02676">
        <ele>782.65</ele>
        <time>2019-07-09T07:19:27Z</time>
      </trkpt>
      <trkpt lat="48.44754" lon="7.02675">
        <ele>780.25</ele>
        <time>2019-07-09T07:19:47Z</time>
      </trkpt>
      <trkpt lat="48.44737" lon="7.02666">
        <ele>781.21</ele>
        <time>2019-07-09T07:19:59Z</time>
      </trkpt>
      <trkpt lat="48.44732" lon="7.02661">
        <ele>781.69</ele>
        <time>2019-07-09T07:20:02Z</time>
      </trkpt>
      <trkpt lat="48.44727" lon="7.02632">
        <ele>781.69</ele>
        <time>2019-07-09T07:20:15Z</time>
      </trkpt>
      <trkpt lat="48.44732" lon="7.02597">
        <ele>784.57</ele>
        <time>2019-07-09T07:20:32Z</time>
      </trkpt>
      <trkpt lat="48.44733" lon="7.02579">
        <ele>786.02</ele>
        <time>2019-07-09T07:20:41Z</time>
      </trkpt>
      <trkpt lat="48.44733" lon="7.02578">
        <ele>786.02</ele>
        <time>2019-07-09T07:20:42Z</time>
      </trkpt>
      <trkpt lat="48.44734" lon="7.02576">
        <ele>786.5</ele>
        <time>2019-07-09T07:20:43Z</time>
      </trkpt>
      <trkpt lat="48.44734" lon="7.02574">
        <ele>786.5</ele>
        <time>2019-07-09T07:20:44Z</time>
      </trkpt>
      <trkpt lat="48.44734" lon="7.02572">
        <ele>786.5</ele>
        <time>2019-07-09T07:20:45Z</time>
      </trkpt>
      <trkpt lat="48.44735" lon="7.02564">
        <ele>787.94</ele>
        <time>2019-07-09T07:20:49Z</time>
      </trkpt>
      <trkpt lat="48.44735" lon="7.02562">
        <ele>788.9</ele>
        <time>2019-07-09T07:20:50Z</time>
      </trkpt>
      <trkpt lat="48.44736" lon="7.02552">
        <ele>793.71</ele>
        <time>2019-07-09T07:21:02Z</time>
      </trkpt>
      <trkpt lat="48.44736" lon="7.02544">
        <ele>795.63</ele>
        <time>2019-07-09T07:21:15Z</time>
      </trkpt>
      <trkpt lat="48.44736" lon="7.02532">
        <ele>800.44</ele>
        <time>2019-07-09T07:21:29Z</time>
      </trkpt>
      <trkpt lat="48.44741" lon="7.02516">
        <ele>804.28</ele>
        <time>2019-07-09T07:21:46Z</time>
      </trkpt>
      <trkpt lat="48.44745" lon="7.02502">
        <ele>807.64</ele>
        <time>2019-07-09T07:22:00Z</time>
      </trkpt>
      <trkpt lat="48.44747" lon="7.02497">
        <ele>808.61</ele>
        <time>2019-07-09T07:22:04Z</time>
      </trkpt>
      <trkpt lat="48.44748" lon="7.02495">
        <ele>809.09</ele>
        <time>2019-07-09T07:22:05Z</time>
      </trkpt>
      <trkpt lat="48.44749" lon="7.02493">
        <ele>809.09</ele>
        <time>2019-07-09T07:22:06Z</time>
      </trkpt>
      <trkpt lat="48.4475" lon="7.02491">
        <ele>809.57</ele>
        <time>2019-07-09T07:22:07Z</time>
      </trkpt>
      <trkpt lat="48.44751" lon="7.02489">
        <ele>809.57</ele>
        <time>2019-07-09T07:22:08Z</time>
      </trkpt>
      <trkpt lat="48.44761" lon="7.02466">
        <ele>813.41</ele>
        <time>2019-07-09T07:22:23Z</time>
      </trkpt>
      <trkpt lat="48.44764" lon="7.02455">
        <ele>814.85</ele>
        <time>2019-07-09T07:22:29Z</time>
      </trkpt>
      <trkpt lat="48.44768" lon="7.02442">
        <ele>814.85</ele>
        <time>2019-07-09T07:22:37Z</time>
      </trkpt>
      <trkpt lat="48.44769" lon="7.0244">
        <ele>814.85</ele>
        <time>2019-07-09T07:22:38Z</time>
      </trkpt>
      <trkpt lat="48.44776" lon="7.02417">
        <ele>818.7</ele>
        <time>2019-07-09T07:22:51Z</time>
      </trkpt>
      <trkpt lat="48.44783" lon="7.0239">
        <ele>821.58</ele>
        <time>2019-07-09T07:23:07Z</time>
      </trkpt>
      <trkpt lat="48.44787" lon="7.02359">
        <ele>821.58</ele>
        <time>2019-07-09T07:23:22Z</time>
      </trkpt>
      <trkpt lat="48.44787" lon="7.02356">
        <ele>821.58</ele>
        <time>2019-07-09T07:23:24Z</time>
      </trkpt>
      <trkpt lat="48.44786" lon="7.0234">
        <ele>821.58</ele>
        <time>2019-07-09T07:23:37Z</time>
      </trkpt>
      <trkpt lat="48.44789" lon="7.02326">
        <ele>826.87</ele>
        <time>2019-07-09T07:23:47Z</time>
      </trkpt>
      <trkpt lat="48.44791" lon="7.02318">
        <ele>826.87</ele>
        <time>2019-07-09T07:23:51Z</time>
      </trkpt>
      <trkpt lat="48.448" lon="7.02297">
        <ele>828.79</ele>
        <time>2019-07-09T07:24:02Z</time>
      </trkpt>
      <trkpt lat="48.44803" lon="7.02288">
        <ele>829.76</ele>
        <time>2019-07-09T07:24:06Z</time>
      </trkpt>
      <trkpt lat="48.44808" lon="7.02253">
        <ele>831.68</ele>
        <time>2019-07-09T07:24:18Z</time>
      </trkpt>
      <trkpt lat="48.44809" lon="7.02227">
        <ele>830.24</ele>
        <time>2019-07-09T07:24:30Z</time>
      </trkpt>
      <trkpt lat="48.44811" lon="7.02222">
        <ele>829.27</ele>
        <time>2019-07-09T07:24:35Z</time>
      </trkpt>
      <trkpt lat="48.44811" lon="7.02216">
        <ele>828.31</ele>
        <time>2019-07-09T07:24:41Z</time>
      </trkpt>
      <trkpt lat="48.44811" lon="7.02185">
        <ele>827.83</ele>
        <time>2019-07-09T07:24:53Z</time>
      </trkpt>
      <trkpt lat="48.4481" lon="7.0214">
        <ele>826.39</ele>
        <time>2019-07-09T07:25:05Z</time>
      </trkpt>
      <trkpt lat="48.4481" lon="7.0212">
        <ele>822.55</ele>
        <time>2019-07-09T07:25:14Z</time>
      </trkpt>
      <trkpt lat="48.4481" lon="7.02118">
        <ele>821.58</ele>
        <time>2019-07-09T07:25:15Z</time>
      </trkpt>
      <trkpt lat="48.44804" lon="7.0209">
        <ele>819.18</ele>
        <time>2019-07-09T07:25:24Z</time>
      </trkpt>
      <trkpt lat="48.44805" lon="7.02065">
        <ele>817.26</ele>
        <time>2019-07-09T07:25:29Z</time>
      </trkpt>
      <trkpt lat="48.44806" lon="7.02003">
        <ele>810.05</ele>
        <time>2019-07-09T07:25:40Z</time>
      </trkpt>
      <trkpt lat="48.44805" lon="7.01991">
        <ele>808.13</ele>
        <time>2019-07-09T07:25:42Z</time>
      </trkpt>
      <trkpt lat="48.44805" lon="7.01988">
        <ele>807.64</ele>
        <time>2019-07-09T07:25:43Z</time>
      </trkpt>
      <trkpt lat="48.44806" lon="7.01986">
        <ele>807.64</ele>
        <time>2019-07-09T07:25:44Z</time>
      </trkpt>
      <trkpt lat="48.44806" lon="7.01984">
        <ele>807.16</ele>
        <time>2019-07-09T07:25:45Z</time>
      </trkpt>
      <trkpt lat="48.44805" lon="7.01981">
        <ele>807.16</ele>
        <time>2019-07-09T07:25:46Z</time>
      </trkpt>
      <trkpt lat="48.44804" lon="7.01978">
        <ele>806.68</ele>
        <time>2019-07-09T07:25:47Z</time>
      </trkpt>
      <trkpt lat="48.44798" lon="7.01916">
        <ele>803.8</ele>
        <time>2019-07-09T07:26:00Z</time>
      </trkpt>
      <trkpt lat="48.44798" lon="7.01842">
        <ele>802.36</ele>
        <time>2019-07-09T07:26:14Z</time>
      </trkpt>
      <trkpt lat="48.448" lon="7.01771">
        <ele>800.44</ele>
        <time>2019-07-09T07:26:28Z</time>
      </trkpt>
      <trkpt lat="48.44809" lon="7.01704">
        <ele>799.95</ele>
        <time>2019-07-09T07:26:42Z</time>
      </trkpt>
      <trkpt lat="48.44824" lon="7.01678">
        <ele>800.44</ele>
        <time>2019-07-09T07:26:48Z</time>
      </trkpt>
      <trkpt lat="48.44827" lon="7.01673">
        <ele>800.44</ele>
        <time>2019-07-09T07:26:49Z</time>
      </trkpt>
      <trkpt lat="48.44843" lon="7.01634">
        <ele>798.99</ele>
        <time>2019-07-09T07:26:57Z</time>
      </trkpt>
      <trkpt lat="48.44844" lon="7.01628">
        <ele>798.99</ele>
        <time>2019-07-09T07:26:58Z</time>
      </trkpt>
      <trkpt lat="48.44844" lon="7.01621">
        <ele>798.51</ele>
        <time>2019-07-09T07:26:59Z</time>
      </trkpt>
      <trkpt lat="48.44844" lon="7.01613">
        <ele>797.55</ele>
        <time>2019-07-09T07:27:00Z</time>
      </trkpt>
      <trkpt lat="48.44843" lon="7.01606">
        <ele>797.07</ele>
        <time>2019-07-09T07:27:01Z</time>
      </trkpt>
      <trkpt lat="48.44842" lon="7.01598">
        <ele>796.59</ele>
        <time>2019-07-09T07:27:02Z</time>
      </trkpt>
      <trkpt lat="48.4484" lon="7.01589">
        <ele>795.63</ele>
        <time>2019-07-09T07:27:03Z</time>
      </trkpt>
      <trkpt lat="48.44839" lon="7.01581">
        <ele>795.15</ele>
        <time>2019-07-09T07:27:04Z</time>
      </trkpt>
      <trkpt lat="48.44838" lon="7.01572">
        <ele>795.15</ele>
        <time>2019-07-09T07:27:05Z</time>
      </trkpt>
      <trkpt lat="48.44835" lon="7.01544">
        <ele>793.71</ele>
        <time>2019-07-09T07:27:08Z</time>
      </trkpt>
      <trkpt lat="48.44835" lon="7.01534">
        <ele>793.22</ele>
        <time>2019-07-09T07:27:09Z</time>
      </trkpt>
      <trkpt lat="48.44833" lon="7.01514">
        <ele>792.74</ele>
        <time>2019-07-09T07:27:11Z</time>
      </trkpt>
      <trkpt lat="48.4483" lon="7.01411">
        <ele>787.94</ele>
        <time>2019-07-09T07:27:22Z</time>
      </trkpt>
      <trkpt lat="48.4483" lon="7.01403">
        <ele>787.46</ele>
        <time>2019-07-09T07:27:23Z</time>
      </trkpt>
      <trkpt lat="48.44831" lon="7.01376">
        <ele>786.02</ele>
        <time>2019-07-09T07:27:26Z</time>
      </trkpt>
      <trkpt lat="48.44834" lon="7.01328">
        <ele>784.57</ele>
        <time>2019-07-09T07:27:31Z</time>
      </trkpt>
      <trkpt lat="48.44836" lon="7.013">
        <ele>784.09</ele>
        <time>2019-07-09T07:27:34Z</time>
      </trkpt>
      <trkpt lat="48.44838" lon="7.01291">
        <ele>783.61</ele>
        <time>2019-07-09T07:27:35Z</time>
      </trkpt>
      <trkpt lat="48.44841" lon="7.01284">
        <ele>783.61</ele>
        <time>2019-07-09T07:27:36Z</time>
      </trkpt>
      <trkpt lat="48.44845" lon="7.01277">
        <ele>783.13</ele>
        <time>2019-07-09T07:27:37Z</time>
      </trkpt>
      <trkpt lat="48.44849" lon="7.0127">
        <ele>782.65</ele>
        <time>2019-07-09T07:27:38Z</time>
      </trkpt>
      <trkpt lat="48.44854" lon="7.01263">
        <ele>782.65</ele>
        <time>2019-07-09T07:27:39Z</time>
      </trkpt>
      <trkpt lat="48.44922" lon="7.01185">
        <ele>778.32</ele>
        <time>2019-07-09T07:27:51Z</time>
      </trkpt>
      <trkpt lat="48.44935" lon="7.01174">
        <ele>776.4</ele>
        <time>2019-07-09T07:27:53Z</time>
      </trkpt>
      <trkpt lat="48.44943" lon="7.01169">
        <ele>775.44</ele>
        <time>2019-07-09T07:27:54Z</time>
      </trkpt>
      <trkpt lat="48.4495" lon="7.01166">
        <ele>774.48</ele>
        <time>2019-07-09T07:27:55Z</time>
      </trkpt>
      <trkpt lat="48.44958" lon="7.01163">
        <ele>774</ele>
        <time>2019-07-09T07:27:56Z</time>
      </trkpt>
      <trkpt lat="48.44966" lon="7.01161">
        <ele>773.52</ele>
        <time>2019-07-09T07:27:57Z</time>
      </trkpt>
      <trkpt lat="48.45015" lon="7.01143">
        <ele>772.56</ele>
        <time>2019-07-09T07:28:04Z</time>
      </trkpt>
      <trkpt lat="48.45019" lon="7.01139">
        <ele>772.08</ele>
        <time>2019-07-09T07:28:05Z</time>
      </trkpt>
      <trkpt lat="48.45042" lon="7.01124">
        <ele>771.6</ele>
        <time>2019-07-09T07:28:15Z</time>
      </trkpt>
      <trkpt lat="48.45043" lon="7.01126">
        <ele>771.6</ele>
        <time>2019-07-09T07:28:16Z</time>
      </trkpt>
      <trkpt lat="48.45058" lon="7.01137">
        <ele>773.04</ele>
        <time>2019-07-09T07:28:28Z</time>
      </trkpt>
      <trkpt lat="48.45066" lon="7.01137">
        <ele>773.52</ele>
        <time>2019-07-09T07:28:34Z</time>
      </trkpt>
      <trkpt lat="48.45068" lon="7.01136">
        <ele>773.52</ele>
        <time>2019-07-09T07:28:35Z</time>
      </trkpt>
      <trkpt lat="48.45069" lon="7.01136">
        <ele>773.52</ele>
        <time>2019-07-09T07:28:36Z</time>
      </trkpt>
      <trkpt lat="48.45081" lon="7.01135">
        <ele>774.48</ele>
        <time>2019-07-09T07:28:45Z</time>
      </trkpt>
      <trkpt lat="48.45082" lon="7.01134">
        <ele>774.96</ele>
        <time>2019-07-09T07:28:46Z</time>
      </trkpt>
      <trkpt lat="48.45098" lon="7.01126">
        <ele>778.32</ele>
        <time>2019-07-09T07:28:58Z</time>
      </trkpt>
      <trkpt lat="48.45122" lon="7.01137">
        <ele>780.25</ele>
        <time>2019-07-09T07:29:16Z</time>
      </trkpt>
      <trkpt lat="48.45138" lon="7.0114">
        <ele>782.65</ele>
        <time>2019-07-09T07:29:28Z</time>
      </trkpt>
      <trkpt lat="48.4514" lon="7.0114">
        <ele>782.65</ele>
        <time>2019-07-09T07:29:29Z</time>
      </trkpt>
      <trkpt lat="48.45141" lon="7.01139">
        <ele>783.13</ele>
        <time>2019-07-09T07:29:30Z</time>
      </trkpt>
      <trkpt lat="48.45142" lon="7.01139">
        <ele>783.13</ele>
        <time>2019-07-09T07:29:31Z</time>
      </trkpt>
      <trkpt lat="48.45144" lon="7.01138">
        <ele>783.61</ele>
        <time>2019-07-09T07:29:32Z</time>
      </trkpt>
      <trkpt lat="48.45145" lon="7.01137">
        <ele>783.61</ele>
        <time>2019-07-09T07:29:33Z</time>
      </trkpt>
      <trkpt lat="48.45146" lon="7.01137">
        <ele>784.09</ele>
        <time>2019-07-09T07:29:34Z</time>
      </trkpt>
      <trkpt lat="48.45149" lon="7.01136">
        <ele>785.05</ele>
        <time>2019-07-09T07:29:37Z</time>
      </trkpt>
      <trkpt lat="48.45151" lon="7.01136">
        <ele>785.05</ele>
        <time>2019-07-09T07:29:38Z</time>
      </trkpt>
      <trkpt lat="48.45153" lon="7.01136">
        <ele>785.53</ele>
        <time>2019-07-09T07:29:39Z</time>
      </trkpt>
      <trkpt lat="48.45154" lon="7.01136">
        <ele>785.53</ele>
        <time>2019-07-09T07:29:40Z</time>
      </trkpt>
      <trkpt lat="48.45156" lon="7.01136">
        <ele>786.02</ele>
        <time>2019-07-09T07:29:41Z</time>
      </trkpt>
      <trkpt lat="48.45163" lon="7.01133">
        <ele>786.98</ele>
        <time>2019-07-09T07:29:46Z</time>
      </trkpt>
      <trkpt lat="48.45164" lon="7.01132">
        <ele>786.98</ele>
        <time>2019-07-09T07:29:47Z</time>
      </trkpt>
      <trkpt lat="48.45165" lon="7.0113">
        <ele>786.98</ele>
        <time>2019-07-09T07:29:48Z</time>
      </trkpt>
      <trkpt lat="48.45166" lon="7.01128">
        <ele>787.46</ele>
        <time>2019-07-09T07:29:49Z</time>
      </trkpt>
      <trkpt lat="48.45167" lon="7.01126">
        <ele>787.94</ele>
        <time>2019-07-09T07:29:51Z</time>
      </trkpt>
      <trkpt lat="48.45169" lon="7.01125">
        <ele>787.94</ele>
        <time>2019-07-09T07:29:52Z</time>
      </trkpt>
      <trkpt lat="48.4517" lon="7.01125">
        <ele>788.42</ele>
        <time>2019-07-09T07:29:53Z</time>
      </trkpt>
      <trkpt lat="48.45172" lon="7.01125">
        <ele>788.9</ele>
        <time>2019-07-09T07:29:54Z</time>
      </trkpt>
      <trkpt lat="48.45173" lon="7.01125">
        <ele>789.38</ele>
        <time>2019-07-09T07:29:55Z</time>
      </trkpt>
      <trkpt lat="48.45179" lon="7.01125">
        <ele>791.3</ele>
        <time>2019-07-09T07:30:05Z</time>
      </trkpt>
      <trkpt lat="48.45183" lon="7.01126">
        <ele>794.19</ele>
        <time>2019-07-09T07:30:17Z</time>
      </trkpt>
      <trkpt lat="48.45192" lon="7.0113">
        <ele>796.11</ele>
        <time>2019-07-09T07:30:29Z</time>
      </trkpt>
      <trkpt lat="48.45202" lon="7.01137">
        <ele>800.44</ele>
        <time>2019-07-09T07:30:43Z</time>
      </trkpt>
      <trkpt lat="48.45211" lon="7.01135">
        <ele>802.84</ele>
        <time>2019-07-09T07:30:55Z</time>
      </trkpt>
      <trkpt lat="48.45212" lon="7.01122">
        <ele>802.84</ele>
        <time>2019-07-09T07:31:09Z</time>
      </trkpt>
      <trkpt lat="48.45215" lon="7.01107">
        <ele>807.64</ele>
        <time>2019-07-09T07:31:20Z</time>
      </trkpt>
      <trkpt lat="48.4522" lon="7.01089">
        <ele>809.57</ele>
        <time>2019-07-09T07:31:33Z</time>
      </trkpt>
      <trkpt lat="48.4522" lon="7.01087">
        <ele>809.57</ele>
        <time>2019-07-09T07:31:34Z</time>
      </trkpt>
      <trkpt lat="48.45223" lon="7.0107">
        <ele>812.45</ele>
        <time>2019-07-09T07:31:46Z</time>
      </trkpt>
      <trkpt lat="48.45225" lon="7.01057">
        <ele>815.34</ele>
        <time>2019-07-09T07:31:53Z</time>
      </trkpt>
      <trkpt lat="48.45232" lon="7.01036">
        <ele>819.18</ele>
        <time>2019-07-09T07:32:06Z</time>
      </trkpt>
      <trkpt lat="48.45238" lon="7.01025">
        <ele>822.55</ele>
        <time>2019-07-09T07:32:18Z</time>
      </trkpt>
      <trkpt lat="48.45244" lon="7.01007">
        <ele>820.14</ele>
        <time>2019-07-09T07:32:26Z</time>
      </trkpt>
      <trkpt lat="48.45256" lon="7.00981">
        <ele>818.7</ele>
        <time>2019-07-09T07:32:41Z</time>
      </trkpt>
      <trkpt lat="48.45269" lon="7.00957">
        <ele>820.62</ele>
        <time>2019-07-09T07:32:56Z</time>
      </trkpt>
      <trkpt lat="48.45281" lon="7.00946">
        <ele>824.95</ele>
        <time>2019-07-09T07:33:11Z</time>
      </trkpt>
      <trkpt lat="48.45292" lon="7.00936">
        <ele>827.83</ele>
        <time>2019-07-09T07:33:25Z</time>
      </trkpt>
      <trkpt lat="48.45306" lon="7.00936">
        <ele>831.2</ele>
        <time>2019-07-09T07:33:38Z</time>
      </trkpt>
      <trkpt lat="48.45316" lon="7.0094">
        <ele>832.64</ele>
        <time>2019-07-09T07:33:49Z</time>
      </trkpt>
      <trkpt lat="48.45314" lon="7.00944">
        <ele>832.64</ele>
        <time>2019-07-09T07:33:57Z</time>
      </trkpt>
      <trkpt lat="48.45302" lon="7.00961">
        <ele>831.2</ele>
        <time>2019-07-09T07:34:10Z</time>
      </trkpt>
      <trkpt lat="48.45298" lon="7.0097">
        <ele>830.72</ele>
        <time>2019-07-09T07:34:15Z</time>
      </trkpt>
      <trkpt lat="48.45296" lon="7.00984">
        <ele>832.64</ele>
        <time>2019-07-09T07:34:25Z</time>
      </trkpt>
      <trkpt lat="48.45292" lon="7.01008">
        <ele>831.68</ele>
        <time>2019-07-09T07:34:39Z</time>
      </trkpt>
      <trkpt lat="48.45294" lon="7.01024">
        <ele>831.68</ele>
        <time>2019-07-09T07:34:52Z</time>
      </trkpt>
      <trkpt lat="48.45296" lon="7.01039">
        <ele>831.68</ele>
        <time>2019-07-09T07:35:03Z</time>
      </trkpt>
      <trkpt lat="48.45302" lon="7.01054">
        <ele>834.56</ele>
        <time>2019-07-09T07:35:18Z</time>
      </trkpt>
      <trkpt lat="48.45305" lon="7.01058">
        <ele>836.48</ele>
        <time>2019-07-09T07:35:30Z</time>
      </trkpt>
      <trkpt lat="48.45308" lon="7.01058">
        <ele>837.93</ele>
        <time>2019-07-09T07:35:44Z</time>
      </trkpt>
      <trkpt lat="48.45309" lon="7.01054">
        <ele>837.93</ele>
        <time>2019-07-09T07:35:57Z</time>
      </trkpt>
      <trkpt lat="48.45312" lon="7.01048">
        <ele>839.37</ele>
        <time>2019-07-09T07:36:14Z</time>
      </trkpt>
      <trkpt lat="48.45316" lon="7.01045">
        <ele>840.33</ele>
        <time>2019-07-09T07:36:25Z</time>
      </trkpt>
      <trkpt lat="48.45317" lon="7.01046">
        <ele>840.81</ele>
        <time>2019-07-09T07:36:27Z</time>
      </trkpt>
      <trkpt lat="48.45319" lon="7.01049">
        <ele>841.29</ele>
        <time>2019-07-09T07:36:30Z</time>
      </trkpt>
      <trkpt lat="48.45323" lon="7.01062">
        <ele>841.77</ele>
        <time>2019-07-09T07:36:44Z</time>
      </trkpt>
      <trkpt lat="48.45323" lon="7.01067">
        <ele>840.81</ele>
        <time>2019-07-09T07:37:01Z</time>
      </trkpt>
      <trkpt lat="48.45323" lon="7.01069">
        <ele>841.77</ele>
        <time>2019-07-09T07:37:15Z</time>
      </trkpt>
      <trkpt lat="48.45321" lon="7.01068">
        <ele>842.25</ele>
        <time>2019-07-09T07:37:38Z</time>
      </trkpt>
      <trkpt lat="48.45322" lon="7.01072">
        <ele>837.93</ele>
        <time>2019-07-09T07:38:15Z</time>
      </trkpt>
      <trkpt lat="48.45322" lon="7.0107">
        <ele>838.89</ele>
        <time>2019-07-09T07:38:47Z</time>
      </trkpt>
      <trkpt lat="48.45323" lon="7.01067">
        <ele>844.18</ele>
        <time>2019-07-09T07:39:26Z</time>
      </trkpt>
      <trkpt lat="48.45322" lon="7.0107">
        <ele>839.37</ele>
        <time>2019-07-09T07:39:55Z</time>
      </trkpt>
      <trkpt lat="48.45324" lon="7.01068">
        <ele>838.41</ele>
        <time>2019-07-09T07:40:25Z</time>
      </trkpt>
      <trkpt lat="48.45324" lon="7.01068">
        <ele>841.29</ele>
        <time>2019-07-09T07:41:11Z</time>
      </trkpt>
      <trkpt lat="48.45323" lon="7.0107">
        <ele>837.45</ele>
        <time>2019-07-09T07:41:43Z</time>
      </trkpt>
      <trkpt lat="48.45322" lon="7.01068">
        <ele>837.45</ele>
        <time>2019-07-09T07:41:51Z</time>
      </trkpt>
      <trkpt lat="48.45324" lon="7.01064">
        <ele>840.33</ele>
        <time>2019-07-09T07:42:07Z</time>
      </trkpt>
      <trkpt lat="48.45322" lon="7.01065">
        <ele>841.77</ele>
        <time>2019-07-09T07:42:36Z</time>
      </trkpt>
      <trkpt lat="48.45322" lon="7.0106">
        <ele>842.25</ele>
        <time>2019-07-09T07:42:50Z</time>
      </trkpt>
      <trkpt lat="48.45323" lon="7.01053">
        <ele>841.77</ele>
        <time>2019-07-09T07:42:53Z</time>
      </trkpt>
      <trkpt lat="48.45322" lon="7.01051">
        <ele>841.77</ele>
        <time>2019-07-09T07:42:54Z</time>
      </trkpt>
      <trkpt lat="48.45318" lon="7.01047">
        <ele>841.29</ele>
        <time>2019-07-09T07:43:00Z</time>
      </trkpt>
      <trkpt lat="48.45315" lon="7.01044">
        <ele>841.29</ele>
        <time>2019-07-09T07:43:03Z</time>
      </trkpt>
      <trkpt lat="48.45311" lon="7.01055">
        <ele>837.45</ele>
        <time>2019-07-09T07:43:12Z</time>
      </trkpt>
      <trkpt lat="48.45308" lon="7.01062">
        <ele>836</ele>
        <time>2019-07-09T07:43:20Z</time>
      </trkpt>
      <trkpt lat="48.45295" lon="7.01043">
        <ele>831.68</ele>
        <time>2019-07-09T07:43:31Z</time>
      </trkpt>
      <trkpt lat="48.45294" lon="7.01029">
        <ele>829.27</ele>
        <time>2019-07-09T07:43:38Z</time>
      </trkpt>
      <trkpt lat="48.45294" lon="7.01028">
        <ele>828.79</ele>
        <time>2019-07-09T07:43:39Z</time>
      </trkpt>
      <trkpt lat="48.45292" lon="7.01019">
        <ele>830.72</ele>
        <time>2019-07-09T07:43:51Z</time>
      </trkpt>
      <trkpt lat="48.45291" lon="7.01016">
        <ele>830.72</ele>
        <time>2019-07-09T07:43:52Z</time>
      </trkpt>
      <trkpt lat="48.45297" lon="7.00985">
        <ele>825.91</ele>
        <time>2019-07-09T07:44:01Z</time>
      </trkpt>
      <trkpt lat="48.45318" lon="7.00948">
        <ele>819.66</ele>
        <time>2019-07-09T07:44:12Z</time>
      </trkpt>
      <trkpt lat="48.45317" lon="7.00945">
        <ele>819.66</ele>
        <time>2019-07-09T07:44:13Z</time>
      </trkpt>
      <trkpt lat="48.45316" lon="7.00944">
        <ele>819.18</ele>
        <time>2019-07-09T07:44:14Z</time>
      </trkpt>
      <trkpt lat="48.45314" lon="7.00942">
        <ele>819.18</ele>
        <time>2019-07-09T07:44:15Z</time>
      </trkpt>
      <trkpt lat="48.45311" lon="7.00941">
        <ele>818.7</ele>
        <time>2019-07-09T07:44:16Z</time>
      </trkpt>
      <trkpt lat="48.45285" lon="7.00942">
        <ele>814.37</ele>
        <time>2019-07-09T07:44:25Z</time>
      </trkpt>
      <trkpt lat="48.45264" lon="7.00966">
        <ele>811.97</ele>
        <time>2019-07-09T07:44:33Z</time>
      </trkpt>
      <trkpt lat="48.45261" lon="7.00971">
        <ele>811.97</ele>
        <time>2019-07-09T07:44:34Z</time>
      </trkpt>
      <trkpt lat="48.45259" lon="7.00976">
        <ele>811.49</ele>
        <time>2019-07-09T07:44:35Z</time>
      </trkpt>
      <trkpt lat="48.45257" lon="7.0098">
        <ele>811.01</ele>
        <time>2019-07-09T07:44:36Z</time>
      </trkpt>
      <trkpt lat="48.45256" lon="7.00985">
        <ele>811.01</ele>
        <time>2019-07-09T07:44:37Z</time>
      </trkpt>
      <trkpt lat="48.45254" lon="7.00988">
        <ele>810.53</ele>
        <time>2019-07-09T07:44:38Z</time>
      </trkpt>
      <trkpt lat="48.45253" lon="7.00992">
        <ele>810.05</ele>
        <time>2019-07-09T07:44:39Z</time>
      </trkpt>
      <trkpt lat="48.45252" lon="7.00997">
        <ele>809.57</ele>
        <time>2019-07-09T07:44:40Z</time>
      </trkpt>
      <trkpt lat="48.4525" lon="7.01002">
        <ele>808.61</ele>
        <time>2019-07-09T07:44:41Z</time>
      </trkpt>
      <trkpt lat="48.45248" lon="7.01007">
        <ele>808.13</ele>
        <time>2019-07-09T07:44:42Z</time>
      </trkpt>
      <trkpt lat="48.45246" lon="7.01012">
        <ele>807.64</ele>
        <time>2019-07-09T07:44:43Z</time>
      </trkpt>
      <trkpt lat="48.45236" lon="7.01031">
        <ele>805.24</ele>
        <time>2019-07-09T07:44:50Z</time>
      </trkpt>
      <trkpt lat="48.45234" lon="7.0104">
        <ele>804.28</ele>
        <time>2019-07-09T07:44:54Z</time>
      </trkpt>
      <trkpt lat="48.45233" lon="7.01043">
        <ele>803.8</ele>
        <time>2019-07-09T07:44:55Z</time>
      </trkpt>
      <trkpt lat="48.45229" lon="7.01053">
        <ele>802.84</ele>
        <time>2019-07-09T07:44:57Z</time>
      </trkpt>
      <trkpt lat="48.45228" lon="7.01061">
        <ele>802.36</ele>
        <time>2019-07-09T07:44:58Z</time>
      </trkpt>
      <trkpt lat="48.45227" lon="7.01068">
        <ele>801.4</ele>
        <time>2019-07-09T07:44:59Z</time>
      </trkpt>
      <trkpt lat="48.45225" lon="7.01075">
        <ele>800.92</ele>
        <time>2019-07-09T07:45:00Z</time>
      </trkpt>
      <trkpt lat="48.45223" lon="7.01082">
        <ele>799.95</ele>
        <time>2019-07-09T07:45:01Z</time>
      </trkpt>
      <trkpt lat="48.45222" lon="7.01088">
        <ele>799.47</ele>
        <time>2019-07-09T07:45:02Z</time>
      </trkpt>
      <trkpt lat="48.45221" lon="7.01093">
        <ele>798.51</ele>
        <time>2019-07-09T07:45:03Z</time>
      </trkpt>
      <trkpt lat="48.45221" lon="7.01097">
        <ele>797.55</ele>
        <time>2019-07-09T07:45:04Z</time>
      </trkpt>
      <trkpt lat="48.45221" lon="7.011">
        <ele>796.59</ele>
        <time>2019-07-09T07:45:05Z</time>
      </trkpt>
      <trkpt lat="48.45221" lon="7.01104">
        <ele>796.11</ele>
        <time>2019-07-09T07:45:06Z</time>
      </trkpt>
      <trkpt lat="48.45221" lon="7.01109">
        <ele>795.15</ele>
        <time>2019-07-09T07:45:07Z</time>
      </trkpt>
      <trkpt lat="48.4522" lon="7.01114">
        <ele>794.19</ele>
        <time>2019-07-09T07:45:08Z</time>
      </trkpt>
      <trkpt lat="48.4522" lon="7.01118">
        <ele>793.71</ele>
        <time>2019-07-09T07:45:09Z</time>
      </trkpt>
      <trkpt lat="48.45219" lon="7.01121">
        <ele>793.71</ele>
        <time>2019-07-09T07:45:10Z</time>
      </trkpt>
      <trkpt lat="48.45217" lon="7.01123">
        <ele>793.22</ele>
        <time>2019-07-09T07:45:11Z</time>
      </trkpt>
      <trkpt lat="48.45214" lon="7.01122">
        <ele>793.71</ele>
        <time>2019-07-09T07:45:12Z</time>
      </trkpt>
      <trkpt lat="48.45212" lon="7.01121">
        <ele>793.22</ele>
        <time>2019-07-09T07:45:13Z</time>
      </trkpt>
      <trkpt lat="48.45185" lon="7.01116">
        <ele>788.42</ele>
        <time>2019-07-09T07:45:22Z</time>
      </trkpt>
      <trkpt lat="48.45172" lon="7.0112">
        <ele>786.02</ele>
        <time>2019-07-09T07:45:26Z</time>
      </trkpt>
      <trkpt lat="48.4517" lon="7.01123">
        <ele>785.05</ele>
        <time>2019-07-09T07:45:27Z</time>
      </trkpt>
      <trkpt lat="48.45168" lon="7.01126">
        <ele>784.57</ele>
        <time>2019-07-09T07:45:28Z</time>
      </trkpt>
      <trkpt lat="48.45144" lon="7.01138">
        <ele>780.25</ele>
        <time>2019-07-09T07:45:36Z</time>
      </trkpt>
      <trkpt lat="48.45113" lon="7.01133">
        <ele>777.36</ele>
        <time>2019-07-09T07:45:46Z</time>
      </trkpt>
      <trkpt lat="48.45104" lon="7.01127">
        <ele>776.4</ele>
        <time>2019-07-09T07:45:49Z</time>
      </trkpt>
      <trkpt lat="48.45102" lon="7.01127">
        <ele>775.92</ele>
        <time>2019-07-09T07:45:50Z</time>
      </trkpt>
      <trkpt lat="48.451" lon="7.01126">
        <ele>775.44</ele>
        <time>2019-07-09T07:45:51Z</time>
      </trkpt>
      <trkpt lat="48.45087" lon="7.01131">
        <ele>774.48</ele>
        <time>2019-07-09T07:45:55Z</time>
      </trkpt>
      <trkpt lat="48.45083" lon="7.01134">
        <ele>774</ele>
        <time>2019-07-09T07:45:56Z</time>
      </trkpt>
      <trkpt lat="48.45079" lon="7.01135">
        <ele>773.52</ele>
        <time>2019-07-09T07:45:57Z</time>
      </trkpt>
      <trkpt lat="48.45074" lon="7.01135">
        <ele>773.04</ele>
        <time>2019-07-09T07:45:58Z</time>
      </trkpt>
      <trkpt lat="48.45069" lon="7.01136">
        <ele>772.56</ele>
        <time>2019-07-09T07:45:59Z</time>
      </trkpt>
      <trkpt lat="48.45063" lon="7.01137">
        <ele>772.08</ele>
        <time>2019-07-09T07:46:00Z</time>
      </trkpt>
      <trkpt lat="48.45058" lon="7.01137">
        <ele>772.08</ele>
        <time>2019-07-09T07:46:01Z</time>
      </trkpt>
      <trkpt lat="48.45054" lon="7.01136">
        <ele>771.6</ele>
        <time>2019-07-09T07:46:02Z</time>
      </trkpt>
      <trkpt lat="48.45049" lon="7.01133">
        <ele>771.6</ele>
        <time>2019-07-09T07:46:03Z</time>
      </trkpt>
      <trkpt lat="48.45045" lon="7.01128">
        <ele>771.11</ele>
        <time>2019-07-09T07:46:04Z</time>
      </trkpt>
      <trkpt lat="48.45043" lon="7.01123">
        <ele>770.63</ele>
        <time>2019-07-09T07:46:05Z</time>
      </trkpt>
      <trkpt lat="48.45039" lon="7.01116">
        <ele>767.75</ele>
        <time>2019-07-09T07:46:13Z</time>
      </trkpt>
      <trkpt lat="48.45039" lon="7.01116">
        <ele>766.79</ele>
        <time>2019-07-09T07:46:47Z</time>
      </trkpt>
      <trkpt lat="48.45039" lon="7.01116">
        <ele>766.31</ele>
        <time>2019-07-09T07:46:48Z</time>
      </trkpt>
      <trkpt lat="48.4504" lon="7.01114">
        <ele>766.79</ele>
        <time>2019-07-09T07:46:50Z</time>
      </trkpt>
      <trkpt lat="48.45023" lon="7.01086">
        <ele>765.83</ele>
        <time>2019-07-09T07:47:02Z</time>
      </trkpt>
      <trkpt lat="48.45006" lon="7.01073">
        <ele>764.39</ele>
        <time>2019-07-09T07:47:11Z</time>
      </trkpt>
      <trkpt lat="48.45007" lon="7.01072">
        <ele>765.35</ele>
        <time>2019-07-09T07:47:18Z</time>
      </trkpt>
      <trkpt lat="48.45008" lon="7.01075">
        <ele>765.35</ele>
        <time>2019-07-09T07:47:22Z</time>
      </trkpt>
      <trkpt lat="48.45024" lon="7.01083">
        <ele>769.19</ele>
        <time>2019-07-09T07:47:38Z</time>
      </trkpt>
      <trkpt lat="48.45027" lon="7.0108">
        <ele>769.19</ele>
        <time>2019-07-09T07:47:42Z</time>
      </trkpt>
      <trkpt lat="48.45029" lon="7.01074">
        <ele>769.19</ele>
        <time>2019-07-09T07:47:45Z</time>
      </trkpt>
      <trkpt lat="48.45033" lon="7.01053">
        <ele>769.19</ele>
        <time>2019-07-09T07:47:55Z</time>
      </trkpt>
      <trkpt lat="48.45032" lon="7.01045">
        <ele>768.71</ele>
        <time>2019-07-09T07:47:58Z</time>
      </trkpt>
      <trkpt lat="48.45027" lon="7.01034">
        <ele>768.23</ele>
        <time>2019-07-09T07:48:02Z</time>
      </trkpt>
      <trkpt lat="48.45025" lon="7.01028">
        <ele>767.27</ele>
        <time>2019-07-09T07:48:04Z</time>
      </trkpt>
      <trkpt lat="48.45024" lon="7.01026">
        <ele>765.35</ele>
        <time>2019-07-09T07:48:13Z</time>
      </trkpt>
      <trkpt lat="48.45025" lon="7.01032">
        <ele>765.83</ele>
        <time>2019-07-09T07:48:19Z</time>
      </trkpt>
      <trkpt lat="48.45032" lon="7.01048">
        <ele>767.27</ele>
        <time>2019-07-09T07:48:32Z</time>
      </trkpt>
      <trkpt lat="48.45033" lon="7.01055">
        <ele>768.23</ele>
        <time>2019-07-09T07:48:36Z</time>
      </trkpt>
      <trkpt lat="48.45036" lon="7.01055">
        <ele>768.71</ele>
        <time>2019-07-09T07:48:49Z</time>
      </trkpt>
      <trkpt lat="48.45036" lon="7.01056">
        <ele>767.75</ele>
        <time>2019-07-09T07:48:58Z</time>
      </trkpt>
      <trkpt lat="48.45034" lon="7.01055">
        <ele>767.75</ele>
        <time>2019-07-09T07:49:03Z</time>
      </trkpt>
      <trkpt lat="48.45033" lon="7.01046">
        <ele>767.75</ele>
        <time>2019-07-09T07:49:06Z</time>
      </trkpt>
      <trkpt lat="48.45019" lon="7.01016">
        <ele>763.42</ele>
        <time>2019-07-09T07:49:16Z</time>
      </trkpt>
      <trkpt lat="48.45003" lon="7.00982">
        <ele>756.69</ele>
        <time>2019-07-09T07:49:28Z</time>
      </trkpt>
      <trkpt lat="48.45002" lon="7.00979">
        <ele>755.73</ele>
        <time>2019-07-09T07:49:29Z</time>
      </trkpt>
      <trkpt lat="48.45" lon="7.00976">
        <ele>754.77</ele>
        <time>2019-07-09T07:49:30Z</time>
      </trkpt>
      <trkpt lat="48.44998" lon="7.00973">
        <ele>754.29</ele>
        <time>2019-07-09T07:49:31Z</time>
      </trkpt>
      <trkpt lat="48.44996" lon="7.00971">
        <ele>753.33</ele>
        <time>2019-07-09T07:49:32Z</time>
      </trkpt>
      <trkpt lat="48.44993" lon="7.00968">
        <ele>753.81</ele>
        <time>2019-07-09T07:49:41Z</time>
      </trkpt>
      <trkpt lat="48.44991" lon="7.00967">
        <ele>753.33</ele>
        <time>2019-07-09T07:49:42Z</time>
      </trkpt>
      <trkpt lat="48.4499" lon="7.00967">
        <ele>752.85</ele>
        <time>2019-07-09T07:49:43Z</time>
      </trkpt>
      <trkpt lat="48.44988" lon="7.00966">
        <ele>752.37</ele>
        <time>2019-07-09T07:49:44Z</time>
      </trkpt>
      <trkpt lat="48.44986" lon="7.00965">
        <ele>751.89</ele>
        <time>2019-07-09T07:49:45Z</time>
      </trkpt>
      <trkpt lat="48.44981" lon="7.00963">
        <ele>751.89</ele>
        <time>2019-07-09T07:49:49Z</time>
      </trkpt>
      <trkpt lat="48.44979" lon="7.00963">
        <ele>752.37</ele>
        <time>2019-07-09T07:49:50Z</time>
      </trkpt>
      <trkpt lat="48.44975" lon="7.00963">
        <ele>753.81</ele>
        <time>2019-07-09T07:49:59Z</time>
      </trkpt>
      <trkpt lat="48.44974" lon="7.0096">
        <ele>758.62</ele>
        <time>2019-07-09T07:50:30Z</time>
      </trkpt>
      <trkpt lat="48.44972" lon="7.00961">
        <ele>759.58</ele>
        <time>2019-07-09T07:50:56Z</time>
      </trkpt>
      <trkpt lat="48.44971" lon="7.00961">
        <ele>759.1</ele>
        <time>2019-07-09T07:50:57Z</time>
      </trkpt>
      <trkpt lat="48.4497" lon="7.00961">
        <ele>759.1</ele>
        <time>2019-07-09T07:50:58Z</time>
      </trkpt>
      <trkpt lat="48.44958" lon="7.0096">
        <ele>755.73</ele>
        <time>2019-07-09T07:51:10Z</time>
      </trkpt>
      <trkpt lat="48.44946" lon="7.00955">
        <ele>754.77</ele>
        <time>2019-07-09T07:51:27Z</time>
      </trkpt>
      <trkpt lat="48.4491" lon="7.0094">
        <ele>749</ele>
        <time>2019-07-09T07:51:37Z</time>
      </trkpt>
      <trkpt lat="48.44881" lon="7.00926">
        <ele>743.24</ele>
        <time>2019-07-09T07:51:46Z</time>
      </trkpt>
      <trkpt lat="48.44867" lon="7.00919">
        <ele>739.39</ele>
        <time>2019-07-09T07:51:52Z</time>
      </trkpt>
      <trkpt lat="48.4484" lon="7.00898">
        <ele>733.62</ele>
        <time>2019-07-09T07:52:03Z</time>
      </trkpt>
      <trkpt lat="48.44829" lon="7.00891">
        <ele>734.1</ele>
        <time>2019-07-09T07:52:14Z</time>
      </trkpt>
      <trkpt lat="48.4482" lon="7.00885">
        <ele>735.07</ele>
        <time>2019-07-09T07:52:34Z</time>
      </trkpt>
      <trkpt lat="48.44819" lon="7.00884">
        <ele>734.58</ele>
        <time>2019-07-09T07:52:35Z</time>
      </trkpt>
      <trkpt lat="48.44818" lon="7.00881">
        <ele>735.55</ele>
        <time>2019-07-09T07:52:44Z</time>
      </trkpt>
      <trkpt lat="48.44817" lon="7.00884">
        <ele>735.07</ele>
        <time>2019-07-09T07:53:00Z</time>
      </trkpt>
      <trkpt lat="48.44816" lon="7.00887">
        <ele>733.14</ele>
        <time>2019-07-09T07:53:18Z</time>
      </trkpt>
      <trkpt lat="48.44818" lon="7.00893">
        <ele>735.07</ele>
        <time>2019-07-09T07:53:57Z</time>
      </trkpt>
      <trkpt lat="48.44819" lon="7.0089">
        <ele>737.47</ele>
        <time>2019-07-09T07:54:33Z</time>
      </trkpt>
      <trkpt lat="48.44819" lon="7.00884">
        <ele>739.39</ele>
        <time>2019-07-09T07:54:55Z</time>
      </trkpt>
      <trkpt lat="48.44819" lon="7.00883">
        <ele>738.91</ele>
        <time>2019-07-09T07:54:56Z</time>
      </trkpt>
      <trkpt lat="48.44819" lon="7.0088">
        <ele>738.91</ele>
        <time>2019-07-09T07:54:57Z</time>
      </trkpt>
      <trkpt lat="48.44816" lon="7.00871">
        <ele>734.58</ele>
        <time>2019-07-09T07:55:07Z</time>
      </trkpt>
      <trkpt lat="48.44814" lon="7.00872">
        <ele>733.14</ele>
        <time>2019-07-09T07:55:40Z</time>
      </trkpt>
      <trkpt lat="48.44815" lon="7.00866">
        <ele>732.18</ele>
        <time>2019-07-09T07:56:01Z</time>
      </trkpt>
      <trkpt lat="48.44817" lon="7.00861">
        <ele>730.26</ele>
        <time>2019-07-09T07:56:13Z</time>
      </trkpt>
      <trkpt lat="48.44815" lon="7.00859">
        <ele>730.26</ele>
        <time>2019-07-09T07:56:25Z</time>
      </trkpt>
      <trkpt lat="48.44814" lon="7.00858">
        <ele>730.26</ele>
        <time>2019-07-09T07:56:26Z</time>
      </trkpt>
      <trkpt lat="48.44807" lon="7.0085">
        <ele>729.78</ele>
        <time>2019-07-09T07:56:38Z</time>
      </trkpt>
      <trkpt lat="48.44805" lon="7.00848">
        <ele>728.82</ele>
        <time>2019-07-09T07:56:52Z</time>
      </trkpt>
      <trkpt lat="48.44803" lon="7.00844">
        <ele>728.34</ele>
        <time>2019-07-09T07:56:58Z</time>
      </trkpt>
      <trkpt lat="48.44803" lon="7.00841">
        <ele>727.86</ele>
        <time>2019-07-09T07:56:59Z</time>
      </trkpt>
      <trkpt lat="48.44802" lon="7.00839">
        <ele>727.86</ele>
        <time>2019-07-09T07:57:00Z</time>
      </trkpt>
      <trkpt lat="48.44801" lon="7.00837">
        <ele>727.86</ele>
        <time>2019-07-09T07:57:01Z</time>
      </trkpt>
      <trkpt lat="48.448" lon="7.00835">
        <ele>727.37</ele>
        <time>2019-07-09T07:57:02Z</time>
      </trkpt>
      <trkpt lat="48.44799" lon="7.00833">
        <ele>727.37</ele>
        <time>2019-07-09T07:57:03Z</time>
      </trkpt>
      <trkpt lat="48.44784" lon="7.00802">
        <ele>722.57</ele>
        <time>2019-07-09T07:57:13Z</time>
      </trkpt>
      <trkpt lat="48.44771" lon="7.00776">
        <ele>718.72</ele>
        <time>2019-07-09T07:57:22Z</time>
      </trkpt>
      <trkpt lat="48.44763" lon="7.0076">
        <ele>719.2</ele>
        <time>2019-07-09T07:57:45Z</time>
      </trkpt>
      <trkpt lat="48.44748" lon="7.00733">
        <ele>715.36</ele>
        <time>2019-07-09T07:57:54Z</time>
      </trkpt>
      <trkpt lat="48.44735" lon="7.00716">
        <ele>712.95</ele>
        <time>2019-07-09T07:58:06Z</time>
      </trkpt>
      <trkpt lat="48.44721" lon="7.00688">
        <ele>708.63</ele>
        <time>2019-07-09T07:58:15Z</time>
      </trkpt>
      <trkpt lat="48.44717" lon="7.00682">
        <ele>708.15</ele>
        <time>2019-07-09T07:58:17Z</time>
      </trkpt>
      <trkpt lat="48.44715" lon="7.00679">
        <ele>707.67</ele>
        <time>2019-07-09T07:58:18Z</time>
      </trkpt>
      <trkpt lat="48.44713" lon="7.00676">
        <ele>707.19</ele>
        <time>2019-07-09T07:58:19Z</time>
      </trkpt>
      <trkpt lat="48.44711" lon="7.00673">
        <ele>707.19</ele>
        <time>2019-07-09T07:58:20Z</time>
      </trkpt>
      <trkpt lat="48.44708" lon="7.0067">
        <ele>707.19</ele>
        <time>2019-07-09T07:58:21Z</time>
      </trkpt>
      <trkpt lat="48.44706" lon="7.00665">
        <ele>706.71</ele>
        <time>2019-07-09T07:58:22Z</time>
      </trkpt>
      <trkpt lat="48.44703" lon="7.00662">
        <ele>706.71</ele>
        <time>2019-07-09T07:58:23Z</time>
      </trkpt>
      <trkpt lat="48.44701" lon="7.00659">
        <ele>706.23</ele>
        <time>2019-07-09T07:58:24Z</time>
      </trkpt>
      <trkpt lat="48.44698" lon="7.00652">
        <ele>705.75</ele>
        <time>2019-07-09T07:58:28Z</time>
      </trkpt>
      <trkpt lat="48.44697" lon="7.0065">
        <ele>705.26</ele>
        <time>2019-07-09T07:58:29Z</time>
      </trkpt>
      <trkpt lat="48.44696" lon="7.00648">
        <ele>705.26</ele>
        <time>2019-07-09T07:58:30Z</time>
      </trkpt>
      <trkpt lat="48.44693" lon="7.00637">
        <ele>704.3</ele>
        <time>2019-07-09T07:58:33Z</time>
      </trkpt>
      <trkpt lat="48.44689" lon="7.00604">
        <ele>702.38</ele>
        <time>2019-07-09T07:58:39Z</time>
      </trkpt>
      <trkpt lat="48.44685" lon="7.00564">
        <ele>698.53</ele>
        <time>2019-07-09T07:58:49Z</time>
      </trkpt>
      <trkpt lat="48.44686" lon="7.00559">
        <ele>698.05</ele>
        <time>2019-07-09T07:58:50Z</time>
      </trkpt>
      <trkpt lat="48.44686" lon="7.00552">
        <ele>697.57</ele>
        <time>2019-07-09T07:58:51Z</time>
      </trkpt>
      <trkpt lat="48.44686" lon="7.00545">
        <ele>697.57</ele>
        <time>2019-07-09T07:58:52Z</time>
      </trkpt>
      <trkpt lat="48.44685" lon="7.00539">
        <ele>697.57</ele>
        <time>2019-07-09T07:58:53Z</time>
      </trkpt>
      <trkpt lat="48.44685" lon="7.00532">
        <ele>697.09</ele>
        <time>2019-07-09T07:58:54Z</time>
      </trkpt>
      <trkpt lat="48.44686" lon="7.00524">
        <ele>696.61</ele>
        <time>2019-07-09T07:58:55Z</time>
      </trkpt>
      <trkpt lat="48.44688" lon="7.00508">
        <ele>696.13</ele>
        <time>2019-07-09T07:58:57Z</time>
      </trkpt>
      <trkpt lat="48.44721" lon="7.00418">
        <ele>688.92</ele>
        <time>2019-07-09T07:59:08Z</time>
      </trkpt>
      <trkpt lat="48.44739" lon="7.00341">
        <ele>682.67</ele>
        <time>2019-07-09T07:59:16Z</time>
      </trkpt>
      <trkpt lat="48.4474" lon="7.00311">
        <ele>681.23</ele>
        <time>2019-07-09T07:59:19Z</time>
      </trkpt>
      <trkpt lat="48.44739" lon="7.0029">
        <ele>679.79</ele>
        <time>2019-07-09T07:59:21Z</time>
      </trkpt>
      <trkpt lat="48.44737" lon="7.0028">
        <ele>678.83</ele>
        <time>2019-07-09T07:59:22Z</time>
      </trkpt>
      <trkpt lat="48.44728" lon="7.00253">
        <ele>676.42</ele>
        <time>2019-07-09T07:59:25Z</time>
      </trkpt>
      <trkpt lat="48.44725" lon="7.00245">
        <ele>675.94</ele>
        <time>2019-07-09T07:59:26Z</time>
      </trkpt>
      <trkpt lat="48.4472" lon="7.00237">
        <ele>674.98</ele>
        <time>2019-07-09T07:59:27Z</time>
      </trkpt>
      <trkpt lat="48.44694" lon="7.00203">
        <ele>670.66</ele>
        <time>2019-07-09T07:59:36Z</time>
      </trkpt>
      <trkpt lat="48.44693" lon="7.00204">
        <ele>673.06</ele>
        <time>2019-07-09T08:00:00Z</time>
      </trkpt>
      <trkpt lat="48.44689" lon="7.00207">
        <ele>676.91</ele>
        <time>2019-07-09T08:00:42Z</time>
      </trkpt>
      <trkpt lat="48.44688" lon="7.00206">
        <ele>678.83</ele>
        <time>2019-07-09T08:01:17Z</time>
      </trkpt>
      <trkpt lat="48.44692" lon="7.002">
        <ele>676.42</ele>
        <time>2019-07-09T08:01:49Z</time>
      </trkpt>
      <trkpt lat="48.44694" lon="7.00203">
        <ele>683.63</ele>
        <time>2019-07-09T08:02:23Z</time>
      </trkpt>
      <trkpt lat="48.44696" lon="7.002">
        <ele>683.15</ele>
        <time>2019-07-09T08:02:48Z</time>
      </trkpt>
      <trkpt lat="48.44705" lon="7.002">
        <ele>679.79</ele>
        <time>2019-07-09T08:03:04Z</time>
      </trkpt>
      <trkpt lat="48.44711" lon="7.00201">
        <ele>676.42</ele>
        <time>2019-07-09T08:03:19Z</time>
      </trkpt>
      <trkpt lat="48.44715" lon="7.00198">
        <ele>673.54</ele>
        <time>2019-07-09T08:03:31Z</time>
      </trkpt>
      <trkpt lat="48.44715" lon="7.00195">
        <ele>673.06</ele>
        <time>2019-07-09T08:03:37Z</time>
      </trkpt>
      <trkpt lat="48.44714" lon="7.00194">
        <ele>673.06</ele>
        <time>2019-07-09T08:03:38Z</time>
      </trkpt>
      <trkpt lat="48.44713" lon="7.00192">
        <ele>672.58</ele>
        <time>2019-07-09T08:03:39Z</time>
      </trkpt>
      <trkpt lat="48.44711" lon="7.0019">
        <ele>672.1</ele>
        <time>2019-07-09T08:03:40Z</time>
      </trkpt>
      <trkpt lat="48.4471" lon="7.00188">
        <ele>671.62</ele>
        <time>2019-07-09T08:03:41Z</time>
      </trkpt>
      <trkpt lat="48.44692" lon="7.00171">
        <ele>668.25</ele>
        <time>2019-07-09T08:03:50Z</time>
      </trkpt>
      <trkpt lat="48.44665" lon="7.00153">
        <ele>662.97</ele>
        <time>2019-07-09T08:04:01Z</time>
      </trkpt>
      <trkpt lat="48.44632" lon="7.00139">
        <ele>658.64</ele>
        <time>2019-07-09T08:04:11Z</time>
      </trkpt>
      <trkpt lat="48.44627" lon="7.00137">
        <ele>658.16</ele>
        <time>2019-07-09T08:04:12Z</time>
      </trkpt>
      <trkpt lat="48.44623" lon="7.00137">
        <ele>657.68</ele>
        <time>2019-07-09T08:04:13Z</time>
      </trkpt>
      <trkpt lat="48.44619" lon="7.00136">
        <ele>657.2</ele>
        <time>2019-07-09T08:04:14Z</time>
      </trkpt>
      <trkpt lat="48.44616" lon="7.00136">
        <ele>656.24</ele>
        <time>2019-07-09T08:04:15Z</time>
      </trkpt>
      <trkpt lat="48.44613" lon="7.00136">
        <ele>655.76</ele>
        <time>2019-07-09T08:04:16Z</time>
      </trkpt>
      <trkpt lat="48.4461" lon="7.00136">
        <ele>654.8</ele>
        <time>2019-07-09T08:04:17Z</time>
      </trkpt>
      <trkpt lat="48.44608" lon="7.00135">
        <ele>654.31</ele>
        <time>2019-07-09T08:04:18Z</time>
      </trkpt>
      <trkpt lat="48.44591" lon="7.00135">
        <ele>652.87</ele>
        <time>2019-07-09T08:04:24Z</time>
      </trkpt>
      <trkpt lat="48.44588" lon="7.00137">
        <ele>652.87</ele>
        <time>2019-07-09T08:04:25Z</time>
      </trkpt>
      <trkpt lat="48.44585" lon="7.00138">
        <ele>652.87</ele>
        <time>2019-07-09T08:04:26Z</time>
      </trkpt>
      <trkpt lat="48.44577" lon="7.00138">
        <ele>651.91</ele>
        <time>2019-07-09T08:04:29Z</time>
      </trkpt>
      <trkpt lat="48.44573" lon="7.00136">
        <ele>651.91</ele>
        <time>2019-07-09T08:04:30Z</time>
      </trkpt>
      <trkpt lat="48.44564" lon="7.00132">
        <ele>650.95</ele>
        <time>2019-07-09T08:04:33Z</time>
      </trkpt>
      <trkpt lat="48.44562" lon="7.00132">
        <ele>650.95</ele>
        <time>2019-07-09T08:04:34Z</time>
      </trkpt>
      <trkpt lat="48.4456" lon="7.00131">
        <ele>650.47</ele>
        <time>2019-07-09T08:04:35Z</time>
      </trkpt>
      <trkpt lat="48.44557" lon="7.0013">
        <ele>649.99</ele>
        <time>2019-07-09T08:04:36Z</time>
      </trkpt>
      <trkpt lat="48.44554" lon="7.00128">
        <ele>649.51</ele>
        <time>2019-07-09T08:04:37Z</time>
      </trkpt>
      <trkpt lat="48.44551" lon="7.00127">
        <ele>649.03</ele>
        <time>2019-07-09T08:04:38Z</time>
      </trkpt>
      <trkpt lat="48.44547" lon="7.00124">
        <ele>648.55</ele>
        <time>2019-07-09T08:04:39Z</time>
      </trkpt>
      <trkpt lat="48.44543" lon="7.00122">
        <ele>648.07</ele>
        <time>2019-07-09T08:04:40Z</time>
      </trkpt>
      <trkpt lat="48.4454" lon="7.00119">
        <ele>647.59</ele>
        <time>2019-07-09T08:04:41Z</time>
      </trkpt>
      <trkpt lat="48.44537" lon="7.00116">
        <ele>646.62</ele>
        <time>2019-07-09T08:04:42Z</time>
      </trkpt>
      <trkpt lat="48.44533" lon="7.00114">
        <ele>646.14</ele>
        <time>2019-07-09T08:04:43Z</time>
      </trkpt>
      <trkpt lat="48.44529" lon="7.00112">
        <ele>645.18</ele>
        <time>2019-07-09T08:04:44Z</time>
      </trkpt>
      <trkpt lat="48.44524" lon="7.00111">
        <ele>645.18</ele>
        <time>2019-07-09T08:04:45Z</time>
      </trkpt>
      <trkpt lat="48.44503" lon="7.00106">
        <ele>643.26</ele>
        <time>2019-07-09T08:04:49Z</time>
      </trkpt>
      <trkpt lat="48.44499" lon="7.00104">
        <ele>642.78</ele>
        <time>2019-07-09T08:04:50Z</time>
      </trkpt>
      <trkpt lat="48.44483" lon="7.00098">
        <ele>641.34</ele>
        <time>2019-07-09T08:04:53Z</time>
      </trkpt>
      <trkpt lat="48.44479" lon="7.00096">
        <ele>640.86</ele>
        <time>2019-07-09T08:04:54Z</time>
      </trkpt>
      <trkpt lat="48.44476" lon="7.00095">
        <ele>640.38</ele>
        <time>2019-07-09T08:04:55Z</time>
      </trkpt>
      <trkpt lat="48.44472" lon="7.00095">
        <ele>639.89</ele>
        <time>2019-07-09T08:04:56Z</time>
      </trkpt>
      <trkpt lat="48.4447" lon="7.00095">
        <ele>639.41</ele>
        <time>2019-07-09T08:04:57Z</time>
      </trkpt>
      <trkpt lat="48.44468" lon="7.00094">
        <ele>639.41</ele>
        <time>2019-07-09T08:04:58Z</time>
      </trkpt>
      <trkpt lat="48.44466" lon="7.00093">
        <ele>638.93</ele>
        <time>2019-07-09T08:04:59Z</time>
      </trkpt>
      <trkpt lat="48.44441" lon="7.00078">
        <ele>635.57</ele>
        <time>2019-07-09T08:05:07Z</time>
      </trkpt>
      <trkpt lat="48.44414" lon="7.00059">
        <ele>632.68</ele>
        <time>2019-07-09T08:05:16Z</time>
      </trkpt>
      <trkpt lat="48.444" lon="7.0005">
        <ele>628.36</ele>
        <time>2019-07-09T08:05:26Z</time>
      </trkpt>
      <trkpt lat="48.44395" lon="7.00043">
        <ele>627.4</ele>
        <time>2019-07-09T08:05:39Z</time>
      </trkpt>
      <trkpt lat="48.44395" lon="7.00041">
        <ele>627.4</ele>
        <time>2019-07-09T08:05:40Z</time>
      </trkpt>
      <trkpt lat="48.44394" lon="7.00038">
        <ele>627.4</ele>
        <time>2019-07-09T08:05:41Z</time>
      </trkpt>
      <trkpt lat="48.44392" lon="7.00035">
        <ele>627.4</ele>
        <time>2019-07-09T08:05:42Z</time>
      </trkpt>
      <trkpt lat="48.44386" lon="7.00019">
        <ele>628.36</ele>
        <time>2019-07-09T08:05:47Z</time>
      </trkpt>
      <trkpt lat="48.44385" lon="7.00016">
        <ele>628.84</ele>
        <time>2019-07-09T08:05:48Z</time>
      </trkpt>
      <trkpt lat="48.44383" lon="7.00013">
        <ele>629.32</ele>
        <time>2019-07-09T08:05:49Z</time>
      </trkpt>
      <trkpt lat="48.44382" lon="7.0001">
        <ele>629.8</ele>
        <time>2019-07-09T08:05:50Z</time>
      </trkpt>
      <trkpt lat="48.4438" lon="7.00006">
        <ele>630.28</ele>
        <time>2019-07-09T08:05:51Z</time>
      </trkpt>
      <trkpt lat="48.44379" lon="7.00003">
        <ele>630.28</ele>
        <time>2019-07-09T08:05:52Z</time>
      </trkpt>
      <trkpt lat="48.44377" lon="6.99999">
        <ele>630.76</ele>
        <time>2019-07-09T08:05:53Z</time>
      </trkpt>
      <trkpt lat="48.44375" lon="6.99995">
        <ele>631.24</ele>
        <time>2019-07-09T08:05:54Z</time>
      </trkpt>
      <trkpt lat="48.44371" lon="6.9998">
        <ele>634.13</ele>
        <time>2019-07-09T08:06:03Z</time>
      </trkpt>
      <trkpt lat="48.44366" lon="6.99977">
        <ele>637.97</ele>
        <time>2019-07-09T08:06:28Z</time>
      </trkpt>
      <trkpt lat="48.44364" lon="6.99963">
        <ele>639.89</ele>
        <time>2019-07-09T08:06:41Z</time>
      </trkpt>
      <trkpt lat="48.44373" lon="6.99929">
        <ele>638.93</ele>
        <time>2019-07-09T08:06:51Z</time>
      </trkpt>
      <trkpt lat="48.44383" lon="6.99906">
        <ele>635.57</ele>
        <time>2019-07-09T08:06:56Z</time>
      </trkpt>
      <trkpt lat="48.4439" lon="6.9988">
        <ele>629.8</ele>
        <time>2019-07-09T08:07:04Z</time>
      </trkpt>
      <trkpt lat="48.44391" lon="6.99878">
        <ele>629.32</ele>
        <time>2019-07-09T08:07:05Z</time>
      </trkpt>
      <trkpt lat="48.44392" lon="6.99874">
        <ele>627.88</ele>
        <time>2019-07-09T08:07:07Z</time>
      </trkpt>
      <trkpt lat="48.44393" lon="6.99868">
        <ele>625.96</ele>
        <time>2019-07-09T08:07:11Z</time>
      </trkpt>
      <trkpt lat="48.44394" lon="6.99864">
        <ele>625.47</ele>
        <time>2019-07-09T08:07:12Z</time>
      </trkpt>
      <trkpt lat="48.44395" lon="6.99859">
        <ele>624.99</ele>
        <time>2019-07-09T08:07:13Z</time>
      </trkpt>
      <trkpt lat="48.44403" lon="6.99822">
        <ele>617.78</ele>
        <time>2019-07-09T08:07:23Z</time>
      </trkpt>
      <trkpt lat="48.44405" lon="6.99819">
        <ele>617.3</ele>
        <time>2019-07-09T08:07:24Z</time>
      </trkpt>
      <trkpt lat="48.44407" lon="6.99817">
        <ele>616.34</ele>
        <time>2019-07-09T08:07:25Z</time>
      </trkpt>
      <trkpt lat="48.4441" lon="6.99811">
        <ele>614.9</ele>
        <time>2019-07-09T08:07:27Z</time>
      </trkpt>
      <trkpt lat="48.44411" lon="6.99808">
        <ele>614.42</ele>
        <time>2019-07-09T08:07:28Z</time>
      </trkpt>
      <trkpt lat="48.44412" lon="6.99803">
        <ele>613.46</ele>
        <time>2019-07-09T08:07:29Z</time>
      </trkpt>
      <trkpt lat="48.44413" lon="6.99798">
        <ele>612.98</ele>
        <time>2019-07-09T08:07:30Z</time>
      </trkpt>
      <trkpt lat="48.44415" lon="6.99793">
        <ele>612.02</ele>
        <time>2019-07-09T08:07:31Z</time>
      </trkpt>
      <trkpt lat="48.44419" lon="6.99781">
        <ele>610.57</ele>
        <time>2019-07-09T08:07:33Z</time>
      </trkpt>
      <trkpt lat="48.44421" lon="6.99774">
        <ele>610.09</ele>
        <time>2019-07-09T08:07:34Z</time>
      </trkpt>
      <trkpt lat="48.44423" lon="6.99769">
        <ele>609.13</ele>
        <time>2019-07-09T08:07:35Z</time>
      </trkpt>
      <trkpt lat="48.44426" lon="6.99765">
        <ele>608.17</ele>
        <time>2019-07-09T08:07:36Z</time>
      </trkpt>
      <trkpt lat="48.44428" lon="6.9976">
        <ele>607.69</ele>
        <time>2019-07-09T08:07:37Z</time>
      </trkpt>
      <trkpt lat="48.4443" lon="6.99756">
        <ele>607.21</ele>
        <time>2019-07-09T08:07:38Z</time>
      </trkpt>
      <trkpt lat="48.44449" lon="6.9972">
        <ele>604.33</ele>
        <time>2019-07-09T08:07:49Z</time>
      </trkpt>
      <trkpt lat="48.44449" lon="6.99717">
        <ele>604.33</ele>
        <time>2019-07-09T08:07:50Z</time>
      </trkpt>
      <trkpt lat="48.44449" lon="6.99715">
        <ele>604.33</ele>
        <time>2019-07-09T08:07:51Z</time>
      </trkpt>
      <trkpt lat="48.4445" lon="6.99714">
        <ele>604.33</ele>
        <time>2019-07-09T08:07:52Z</time>
      </trkpt>
      <trkpt lat="48.44474" lon="6.99671">
        <ele>602.4</ele>
        <time>2019-07-09T08:08:03Z</time>
      </trkpt>
      <trkpt lat="48.44482" lon="6.99659">
        <ele>602.4</ele>
        <time>2019-07-09T08:08:07Z</time>
      </trkpt>
      <trkpt lat="48.44483" lon="6.99657">
        <ele>601.92</ele>
        <time>2019-07-09T08:08:08Z</time>
      </trkpt>
      <trkpt lat="48.44486" lon="6.99654">
        <ele>602.4</ele>
        <time>2019-07-09T08:08:19Z</time>
      </trkpt>
      <trkpt lat="48.44487" lon="6.99653">
        <ele>602.4</ele>
        <time>2019-07-09T08:08:20Z</time>
      </trkpt>
      <trkpt lat="48.44489" lon="6.99651">
        <ele>601.92</ele>
        <time>2019-07-09T08:08:21Z</time>
      </trkpt>
      <trkpt lat="48.44512" lon="6.99621">
        <ele>597.12</ele>
        <time>2019-07-09T08:08:31Z</time>
      </trkpt>
      <trkpt lat="48.44532" lon="6.99603">
        <ele>596.64</ele>
        <time>2019-07-09T08:08:41Z</time>
      </trkpt>
      <trkpt lat="48.44547" lon="6.99587">
        <ele>595.67</ele>
        <time>2019-07-09T08:08:50Z</time>
      </trkpt>
      <trkpt lat="48.44557" lon="6.99577">
        <ele>595.19</ele>
        <time>2019-07-09T08:08:54Z</time>
      </trkpt>
      <trkpt lat="48.44561" lon="6.99573">
        <ele>591.35</ele>
        <time>2019-07-09T08:09:04Z</time>
      </trkpt>
      <trkpt lat="48.44576" lon="6.99562">
        <ele>592.31</ele>
        <time>2019-07-09T08:09:16Z</time>
      </trkpt>
      <trkpt lat="48.44596" lon="6.99541">
        <ele>590.39</ele>
        <time>2019-07-09T08:09:24Z</time>
      </trkpt>
      <trkpt lat="48.44598" lon="6.99537">
        <ele>590.39</ele>
        <time>2019-07-09T08:09:25Z</time>
      </trkpt>
      <trkpt lat="48.446" lon="6.99533">
        <ele>589.91</ele>
        <time>2019-07-09T08:09:26Z</time>
      </trkpt>
      <trkpt lat="48.44603" lon="6.99529">
        <ele>589.43</ele>
        <time>2019-07-09T08:09:27Z</time>
      </trkpt>
      <trkpt lat="48.44606" lon="6.99526">
        <ele>588.95</ele>
        <time>2019-07-09T08:09:28Z</time>
      </trkpt>
      <trkpt lat="48.44609" lon="6.99524">
        <ele>588.46</ele>
        <time>2019-07-09T08:09:29Z</time>
      </trkpt>
      <trkpt lat="48.44612" lon="6.99523">
        <ele>588.46</ele>
        <time>2019-07-09T08:09:30Z</time>
      </trkpt>
      <trkpt lat="48.44615" lon="6.99522">
        <ele>587.98</ele>
        <time>2019-07-09T08:09:31Z</time>
      </trkpt>
      <trkpt lat="48.44617" lon="6.9952">
        <ele>587.5</ele>
        <time>2019-07-09T08:09:32Z</time>
      </trkpt>
      <trkpt lat="48.44619" lon="6.99519">
        <ele>587.02</ele>
        <time>2019-07-09T08:09:33Z</time>
      </trkpt>
      <trkpt lat="48.44622" lon="6.99519">
        <ele>586.54</ele>
        <time>2019-07-09T08:09:34Z</time>
      </trkpt>
      <trkpt lat="48.44625" lon="6.99518">
        <ele>586.06</ele>
        <time>2019-07-09T08:09:35Z</time>
      </trkpt>
      <trkpt lat="48.44628" lon="6.99517">
        <ele>586.06</ele>
        <time>2019-07-09T08:09:36Z</time>
      </trkpt>
      <trkpt lat="48.44655" lon="6.99494">
        <ele>582.22</ele>
        <time>2019-07-09T08:09:44Z</time>
      </trkpt>
      <trkpt lat="48.44663" lon="6.99491">
        <ele>580.77</ele>
        <time>2019-07-09T08:09:47Z</time>
      </trkpt>
      <trkpt lat="48.44665" lon="6.99488">
        <ele>580.29</ele>
        <time>2019-07-09T08:09:48Z</time>
      </trkpt>
      <trkpt lat="48.44668" lon="6.99483">
        <ele>579.81</ele>
        <time>2019-07-09T08:09:49Z</time>
      </trkpt>
      <trkpt lat="48.44671" lon="6.9948">
        <ele>578.85</ele>
        <time>2019-07-09T08:09:50Z</time>
      </trkpt>
      <trkpt lat="48.44675" lon="6.99478">
        <ele>578.37</ele>
        <time>2019-07-09T08:09:51Z</time>
      </trkpt>
      <trkpt lat="48.44679" lon="6.99478">
        <ele>577.41</ele>
        <time>2019-07-09T08:09:52Z</time>
      </trkpt>
      <trkpt lat="48.44683" lon="6.99479">
        <ele>576.93</ele>
        <time>2019-07-09T08:09:53Z</time>
      </trkpt>
      <trkpt lat="48.44713" lon="6.99463">
        <ele>569.24</ele>
        <time>2019-07-09T08:10:01Z</time>
      </trkpt>
      <trkpt lat="48.44727" lon="6.99454">
        <ele>568.76</ele>
        <time>2019-07-09T08:10:04Z</time>
      </trkpt>
      <trkpt lat="48.44739" lon="6.99447">
        <ele>568.28</ele>
        <time>2019-07-09T08:10:07Z</time>
      </trkpt>
      <trkpt lat="48.44751" lon="6.99438">
        <ele>567.8</ele>
        <time>2019-07-09T08:10:10Z</time>
      </trkpt>
      <trkpt lat="48.44754" lon="6.99439">
        <ele>567.8</ele>
        <time>2019-07-09T08:10:11Z</time>
      </trkpt>
      <trkpt lat="48.44758" lon="6.99439">
        <ele>567.8</ele>
        <time>2019-07-09T08:10:12Z</time>
      </trkpt>
      <trkpt lat="48.44761" lon="6.9944">
        <ele>567.32</ele>
        <time>2019-07-09T08:10:13Z</time>
      </trkpt>
      <trkpt lat="48.44765" lon="6.9944">
        <ele>566.83</ele>
        <time>2019-07-09T08:10:14Z</time>
      </trkpt>
      <trkpt lat="48.44767" lon="6.9944">
        <ele>566.35</ele>
        <time>2019-07-09T08:10:15Z</time>
      </trkpt>
      <trkpt lat="48.44776" lon="6.99441">
        <ele>565.87</ele>
        <time>2019-07-09T08:10:17Z</time>
      </trkpt>
      <trkpt lat="48.4478" lon="6.99441">
        <ele>565.39</ele>
        <time>2019-07-09T08:10:18Z</time>
      </trkpt>
      <trkpt lat="48.44784" lon="6.99441">
        <ele>564.91</ele>
        <time>2019-07-09T08:10:19Z</time>
      </trkpt>
      <trkpt lat="48.44788" lon="6.9944">
        <ele>564.43</ele>
        <time>2019-07-09T08:10:20Z</time>
      </trkpt>
      <trkpt lat="48.44793" lon="6.99438">
        <ele>563.47</ele>
        <time>2019-07-09T08:10:21Z</time>
      </trkpt>
      <trkpt lat="48.44808" lon="6.9943">
        <ele>562.03</ele>
        <time>2019-07-09T08:10:24Z</time>
      </trkpt>
      <trkpt lat="48.44813" lon="6.99428">
        <ele>561.55</ele>
        <time>2019-07-09T08:10:25Z</time>
      </trkpt>
      <trkpt lat="48.44818" lon="6.99425">
        <ele>560.59</ele>
        <time>2019-07-09T08:10:26Z</time>
      </trkpt>
      <trkpt lat="48.44829" lon="6.9942">
        <ele>559.14</ele>
        <time>2019-07-09T08:10:28Z</time>
      </trkpt>
      <trkpt lat="48.44872" lon="6.99393">
        <ele>556.26</ele>
        <time>2019-07-09T08:10:39Z</time>
      </trkpt>
      <trkpt lat="48.44887" lon="6.9938">
        <ele>555.3</ele>
        <time>2019-07-09T08:10:43Z</time>
      </trkpt>
      <trkpt lat="48.44891" lon="6.99377">
        <ele>554.82</ele>
        <time>2019-07-09T08:10:44Z</time>
      </trkpt>
      <trkpt lat="48.44905" lon="6.99365">
        <ele>553.86</ele>
        <time>2019-07-09T08:10:47Z</time>
      </trkpt>
      <trkpt lat="48.44913" lon="6.99357">
        <ele>552.9</ele>
        <time>2019-07-09T08:10:49Z</time>
      </trkpt>
      <trkpt lat="48.44916" lon="6.99353">
        <ele>552.9</ele>
        <time>2019-07-09T08:10:50Z</time>
      </trkpt>
      <trkpt lat="48.4492" lon="6.9935">
        <ele>552.41</ele>
        <time>2019-07-09T08:10:51Z</time>
      </trkpt>
      <trkpt lat="48.44923" lon="6.99347">
        <ele>551.93</ele>
        <time>2019-07-09T08:10:52Z</time>
      </trkpt>
      <trkpt lat="48.44926" lon="6.99344">
        <ele>551.45</ele>
        <time>2019-07-09T08:10:53Z</time>
      </trkpt>
      <trkpt lat="48.4493" lon="6.9934">
        <ele>551.45</ele>
        <time>2019-07-09T08:10:54Z</time>
      </trkpt>
      <trkpt lat="48.44934" lon="6.99337">
        <ele>550.49</ele>
        <time>2019-07-09T08:10:55Z</time>
      </trkpt>
      <trkpt lat="48.44964" lon="6.99294">
        <ele>544.24</ele>
        <time>2019-07-09T08:11:06Z</time>
      </trkpt>
      <trkpt lat="48.44967" lon="6.99283">
        <ele>542.8</ele>
        <time>2019-07-09T08:11:08Z</time>
      </trkpt>
      <trkpt lat="48.4497" lon="6.99278">
        <ele>542.32</ele>
        <time>2019-07-09T08:11:09Z</time>
      </trkpt>
      <trkpt lat="48.44974" lon="6.99273">
        <ele>541.36</ele>
        <time>2019-07-09T08:11:10Z</time>
      </trkpt>
      <trkpt lat="48.44978" lon="6.99267">
        <ele>540.88</ele>
        <time>2019-07-09T08:11:11Z</time>
      </trkpt>
      <trkpt lat="48.44981" lon="6.99261">
        <ele>539.92</ele>
        <time>2019-07-09T08:11:12Z</time>
      </trkpt>
      <trkpt lat="48.44984" lon="6.99255">
        <ele>539.44</ele>
        <time>2019-07-09T08:11:13Z</time>
      </trkpt>
      <trkpt lat="48.44986" lon="6.99248">
        <ele>538.48</ele>
        <time>2019-07-09T08:11:14Z</time>
      </trkpt>
      <trkpt lat="48.44988" lon="6.99242">
        <ele>537.51</ele>
        <time>2019-07-09T08:11:15Z</time>
      </trkpt>
      <trkpt lat="48.4499" lon="6.99236">
        <ele>536.55</ele>
        <time>2019-07-09T08:11:16Z</time>
      </trkpt>
      <trkpt lat="48.44992" lon="6.99233">
        <ele>536.07</ele>
        <time>2019-07-09T08:11:17Z</time>
      </trkpt>
      <trkpt lat="48.44995" lon="6.99231">
        <ele>535.59</ele>
        <time>2019-07-09T08:11:18Z</time>
      </trkpt>
      <trkpt lat="48.45004" lon="6.9922">
        <ele>534.63</ele>
        <time>2019-07-09T08:11:21Z</time>
      </trkpt>
      <trkpt lat="48.45008" lon="6.99215">
        <ele>534.63</ele>
        <time>2019-07-09T08:11:22Z</time>
      </trkpt>
      <trkpt lat="48.45012" lon="6.99211">
        <ele>534.63</ele>
        <time>2019-07-09T08:11:23Z</time>
      </trkpt>
      <trkpt lat="48.45017" lon="6.99207">
        <ele>534.15</ele>
        <time>2019-07-09T08:11:24Z</time>
      </trkpt>
      <trkpt lat="48.45021" lon="6.99204">
        <ele>534.15</ele>
        <time>2019-07-09T08:11:25Z</time>
      </trkpt>
      <trkpt lat="48.45026" lon="6.99202">
        <ele>534.15</ele>
        <time>2019-07-09T08:11:26Z</time>
      </trkpt>
      <trkpt lat="48.45041" lon="6.99196">
        <ele>534.63</ele>
        <time>2019-07-09T08:11:29Z</time>
      </trkpt>
      <trkpt lat="48.45047" lon="6.99195">
        <ele>534.63</ele>
        <time>2019-07-09T08:11:30Z</time>
      </trkpt>
      <trkpt lat="48.45052" lon="6.99193">
        <ele>534.63</ele>
        <time>2019-07-09T08:11:31Z</time>
      </trkpt>
      <trkpt lat="48.45056" lon="6.9919">
        <ele>534.63</ele>
        <time>2019-07-09T08:11:32Z</time>
      </trkpt>
      <trkpt lat="48.4506" lon="6.99188">
        <ele>534.15</ele>
        <time>2019-07-09T08:11:33Z</time>
      </trkpt>
      <trkpt lat="48.45065" lon="6.99185">
        <ele>534.15</ele>
        <time>2019-07-09T08:11:34Z</time>
      </trkpt>
      <trkpt lat="48.45068" lon="6.99182">
        <ele>534.15</ele>
        <time>2019-07-09T08:11:35Z</time>
      </trkpt>
      <trkpt lat="48.45071" lon="6.99179">
        <ele>533.67</ele>
        <time>2019-07-09T08:11:36Z</time>
      </trkpt>
      <trkpt lat="48.45074" lon="6.99174">
        <ele>532.71</ele>
        <time>2019-07-09T08:11:37Z</time>
      </trkpt>
      <trkpt lat="48.45077" lon="6.9917">
        <ele>532.23</ele>
        <time>2019-07-09T08:11:38Z</time>
      </trkpt>
      <trkpt lat="48.4508" lon="6.99165">
        <ele>531.75</ele>
        <time>2019-07-09T08:11:39Z</time>
      </trkpt>
      <trkpt lat="48.45082" lon="6.9916">
        <ele>530.79</ele>
        <time>2019-07-09T08:11:40Z</time>
      </trkpt>
      <trkpt lat="48.45095" lon="6.99132">
        <ele>519.73</ele>
        <time>2019-07-09T08:11:48Z</time>
      </trkpt>
      <trkpt lat="48.45098" lon="6.99129">
        <ele>518.29</ele>
        <time>2019-07-09T08:11:49Z</time>
      </trkpt>
      <trkpt lat="48.45101" lon="6.99126">
        <ele>516.85</ele>
        <time>2019-07-09T08:11:50Z</time>
      </trkpt>
      <trkpt lat="48.45104" lon="6.99121">
        <ele>515.88</ele>
        <time>2019-07-09T08:11:51Z</time>
      </trkpt>
      <trkpt lat="48.45106" lon="6.99116">
        <ele>514.92</ele>
        <time>2019-07-09T08:11:52Z</time>
      </trkpt>
      <trkpt lat="48.45108" lon="6.9911">
        <ele>513.96</ele>
        <time>2019-07-09T08:11:53Z</time>
      </trkpt>
      <trkpt lat="48.4511" lon="6.99104">
        <ele>513</ele>
        <time>2019-07-09T08:11:54Z</time>
      </trkpt>
      <trkpt lat="48.45141" lon="6.9904">
        <ele>507.71</ele>
        <time>2019-07-09T08:12:04Z</time>
      </trkpt>
      <trkpt lat="48.45182" lon="6.98925">
        <ele>494.74</ele>
        <time>2019-07-09T08:12:16Z</time>
      </trkpt>
      <trkpt lat="48.45185" lon="6.98915">
        <ele>494.26</ele>
        <time>2019-07-09T08:12:17Z</time>
      </trkpt>
      <trkpt lat="48.45186" lon="6.98904">
        <ele>493.29</ele>
        <time>2019-07-09T08:12:18Z</time>
      </trkpt>
      <trkpt lat="48.45187" lon="6.98893">
        <ele>492.33</ele>
        <time>2019-07-09T08:12:19Z</time>
      </trkpt>
      <trkpt lat="48.45188" lon="6.98881">
        <ele>491.37</ele>
        <time>2019-07-09T08:12:20Z</time>
      </trkpt>
      <trkpt lat="48.45188" lon="6.9887">
        <ele>490.89</ele>
        <time>2019-07-09T08:12:21Z</time>
      </trkpt>
      <trkpt lat="48.45187" lon="6.9886">
        <ele>489.93</ele>
        <time>2019-07-09T08:12:22Z</time>
      </trkpt>
      <trkpt lat="48.45186" lon="6.98854">
        <ele>489.45</ele>
        <time>2019-07-09T08:12:23Z</time>
      </trkpt>
      <trkpt lat="48.4518" lon="6.9882">
        <ele>486.08</ele>
        <time>2019-07-09T08:12:29Z</time>
      </trkpt>
      <trkpt lat="48.4518" lon="6.98813">
        <ele>485.6</ele>
        <time>2019-07-09T08:12:30Z</time>
      </trkpt>
      <trkpt lat="48.4518" lon="6.98805">
        <ele>485.12</ele>
        <time>2019-07-09T08:12:31Z</time>
      </trkpt>
      <trkpt lat="48.4518" lon="6.98797">
        <ele>484.64</ele>
        <time>2019-07-09T08:12:32Z</time>
      </trkpt>
      <trkpt lat="48.45179" lon="6.98788">
        <ele>484.16</ele>
        <time>2019-07-09T08:12:33Z</time>
      </trkpt>
      <trkpt lat="48.45178" lon="6.9878">
        <ele>483.68</ele>
        <time>2019-07-09T08:12:34Z</time>
      </trkpt>
      <trkpt lat="48.45177" lon="6.98772">
        <ele>482.72</ele>
        <time>2019-07-09T08:12:35Z</time>
      </trkpt>
      <trkpt lat="48.45171" lon="6.98745">
        <ele>480.32</ele>
        <time>2019-07-09T08:12:38Z</time>
      </trkpt>
      <trkpt lat="48.4517" lon="6.98736">
        <ele>479.84</ele>
        <time>2019-07-09T08:12:39Z</time>
      </trkpt>
      <trkpt lat="48.45168" lon="6.98727">
        <ele>479.35</ele>
        <time>2019-07-09T08:12:40Z</time>
      </trkpt>
      <trkpt lat="48.45167" lon="6.98717">
        <ele>478.87</ele>
        <time>2019-07-09T08:12:41Z</time>
      </trkpt>
      <trkpt lat="48.45166" lon="6.98708">
        <ele>477.91</ele>
        <time>2019-07-09T08:12:42Z</time>
      </trkpt>
      <trkpt lat="48.45162" lon="6.98661">
        <ele>474.55</ele>
        <time>2019-07-09T08:12:47Z</time>
      </trkpt>
      <trkpt lat="48.45153" lon="6.98605">
        <ele>469.74</ele>
        <time>2019-07-09T08:12:53Z</time>
      </trkpt>
      <trkpt lat="48.45149" lon="6.98589">
        <ele>467.34</ele>
        <time>2019-07-09T08:12:55Z</time>
      </trkpt>
      <trkpt lat="48.45148" lon="6.98584">
        <ele>466.86</ele>
        <time>2019-07-09T08:12:56Z</time>
      </trkpt>
      <trkpt lat="48.45148" lon="6.98578">
        <ele>466.38</ele>
        <time>2019-07-09T08:12:57Z</time>
      </trkpt>
      <trkpt lat="48.45148" lon="6.98571">
        <ele>465.9</ele>
        <time>2019-07-09T08:12:58Z</time>
      </trkpt>
      <trkpt lat="48.45148" lon="6.98565">
        <ele>465.42</ele>
        <time>2019-07-09T08:12:59Z</time>
      </trkpt>
      <trkpt lat="48.45146" lon="6.98549">
        <ele>464.93</ele>
        <time>2019-07-09T08:13:02Z</time>
      </trkpt>
      <trkpt lat="48.45144" lon="6.98546">
        <ele>464.93</ele>
        <time>2019-07-09T08:13:03Z</time>
      </trkpt>
      <trkpt lat="48.45142" lon="6.98545">
        <ele>465.42</ele>
        <time>2019-07-09T08:13:04Z</time>
      </trkpt>
      <trkpt lat="48.45137" lon="6.9854">
        <ele>467.34</ele>
        <time>2019-07-09T08:13:09Z</time>
      </trkpt>
      <trkpt lat="48.45136" lon="6.98539">
        <ele>467.82</ele>
        <time>2019-07-09T08:13:10Z</time>
      </trkpt>
      <trkpt lat="48.45134" lon="6.98538">
        <ele>467.82</ele>
        <time>2019-07-09T08:13:11Z</time>
      </trkpt>
      <trkpt lat="48.4513" lon="6.98534">
        <ele>471.66</ele>
        <time>2019-07-09T08:13:24Z</time>
      </trkpt>
      <trkpt lat="48.45117" lon="6.98522">
        <ele>477.91</ele>
        <time>2019-07-09T08:13:37Z</time>
      </trkpt>
      <trkpt lat="48.45102" lon="6.98507">
        <ele>481.76</ele>
        <time>2019-07-09T08:13:50Z</time>
      </trkpt>
      <trkpt lat="48.45093" lon="6.985">
        <ele>484.16</ele>
        <time>2019-07-09T08:14:03Z</time>
      </trkpt>
      <trkpt lat="48.45086" lon="6.98494">
        <ele>484.64</ele>
        <time>2019-07-09T08:14:15Z</time>
      </trkpt>
      <trkpt lat="48.45084" lon="6.98497">
        <ele>484.64</ele>
        <time>2019-07-09T08:14:29Z</time>
      </trkpt>
      <trkpt lat="48.45086" lon="6.98496">
        <ele>482.72</ele>
        <time>2019-07-09T08:14:58Z</time>
      </trkpt>
      <trkpt lat="48.45086" lon="6.98494">
        <ele>484.16</ele>
        <time>2019-07-09T08:15:27Z</time>
      </trkpt>
      <trkpt lat="48.45085" lon="6.98492">
        <ele>482.24</ele>
        <time>2019-07-09T08:15:50Z</time>
      </trkpt>
      <trkpt lat="48.45084" lon="6.98493">
        <ele>484.16</ele>
        <time>2019-07-09T08:16:09Z</time>
      </trkpt>
      <trkpt lat="48.45084" lon="6.98493">
        <ele>482.72</ele>
        <time>2019-07-09T08:16:20Z</time>
      </trkpt>
      <trkpt lat="48.45085" lon="6.98489">
        <ele>482.72</ele>
        <time>2019-07-09T08:16:30Z</time>
      </trkpt>
      <trkpt lat="48.45089" lon="6.98486">
        <ele>481.28</ele>
        <time>2019-07-09T08:17:06Z</time>
      </trkpt>
      <trkpt lat="48.45093" lon="6.98485">
        <ele>482.72</ele>
        <time>2019-07-09T08:17:41Z</time>
      </trkpt>
      <trkpt lat="48.45092" lon="6.98486">
        <ele>480.8</ele>
        <time>2019-07-09T08:18:18Z</time>
      </trkpt>
      <trkpt lat="48.4509" lon="6.98484">
        <ele>480.8</ele>
        <time>2019-07-09T08:18:52Z</time>
      </trkpt>
      <trkpt lat="48.45093" lon="6.98482">
        <ele>479.35</ele>
        <time>2019-07-09T08:19:31Z</time>
      </trkpt>
      <trkpt lat="48.45091" lon="6.98483">
        <ele>478.87</ele>
        <time>2019-07-09T08:20:13Z</time>
      </trkpt>
      <trkpt lat="48.45091" lon="6.98482">
        <ele>479.35</ele>
        <time>2019-07-09T08:20:45Z</time>
      </trkpt>
      <trkpt lat="48.45091" lon="6.98481">
        <ele>478.39</ele>
        <time>2019-07-09T08:21:25Z</time>
      </trkpt>
      <trkpt lat="48.45091" lon="6.98484">
        <ele>476.95</ele>
        <time>2019-07-09T08:22:10Z</time>
      </trkpt>
      <trkpt lat="48.4509" lon="6.98486">
        <ele>478.87</ele>
        <time>2019-07-09T08:22:50Z</time>
      </trkpt>
      <trkpt lat="48.45093" lon="6.98484">
        <ele>480.32</ele>
        <time>2019-07-09T08:23:30Z</time>
      </trkpt>
      <trkpt lat="48.45099" lon="6.98482">
        <ele>488.01</ele>
        <time>2019-07-09T08:24:09Z</time>
      </trkpt>
      <trkpt lat="48.45099" lon="6.9849">
        <ele>486.56</ele>
        <time>2019-07-09T08:24:44Z</time>
      </trkpt>
      <trkpt lat="48.45104" lon="6.98489">
        <ele>489.93</ele>
        <time>2019-07-09T08:25:16Z</time>
      </trkpt>
      <trkpt lat="48.45099" lon="6.98485">
        <ele>485.6</ele>
        <time>2019-07-09T08:25:56Z</time>
      </trkpt>
      <trkpt lat="48.45093" lon="6.98489">
        <ele>484.64</ele>
        <time>2019-07-09T08:26:22Z</time>
      </trkpt>
      <trkpt lat="48.45094" lon="6.98488">
        <ele>482.24</ele>
        <time>2019-07-09T08:26:59Z</time>
      </trkpt>
      <trkpt lat="48.45091" lon="6.98486">
        <ele>485.12</ele>
        <time>2019-07-09T08:27:12Z</time>
      </trkpt>
      <trkpt lat="48.45089" lon="6.98492">
        <ele>482.24</ele>
        <time>2019-07-09T08:27:24Z</time>
      </trkpt>
      <trkpt lat="48.45088" lon="6.98499">
        <ele>481.76</ele>
        <time>2019-07-09T08:27:54Z</time>
      </trkpt>
      <trkpt lat="48.45085" lon="6.98496">
        <ele>482.72</ele>
        <time>2019-07-09T08:28:21Z</time>
      </trkpt>
      <trkpt lat="48.45086" lon="6.985">
        <ele>483.2</ele>
        <time>2019-07-09T08:28:49Z</time>
      </trkpt>
      <trkpt lat="48.45084" lon="6.985">
        <ele>479.84</ele>
        <time>2019-07-09T08:29:16Z</time>
      </trkpt>
      <trkpt lat="48.45088" lon="6.98501">
        <ele>485.12</ele>
        <time>2019-07-09T08:29:39Z</time>
      </trkpt>
      <trkpt lat="48.45087" lon="6.98503">
        <ele>484.64</ele>
        <time>2019-07-09T08:29:45Z</time>
      </trkpt>
      <trkpt lat="48.45085" lon="6.98493">
        <ele>486.56</ele>
        <time>2019-07-09T08:29:54Z</time>
      </trkpt>
      <trkpt lat="48.45082" lon="6.9849">
        <ele>486.08</ele>
        <time>2019-07-09T08:29:56Z</time>
      </trkpt>
      <trkpt lat="48.45065" lon="6.98479">
        <ele>488.49</ele>
        <time>2019-07-09T08:30:08Z</time>
      </trkpt>
      <trkpt lat="48.45049" lon="6.98471">
        <ele>489.93</ele>
        <time>2019-07-09T08:30:18Z</time>
      </trkpt>
      <trkpt lat="48.45023" lon="6.98458">
        <ele>489.93</ele>
        <time>2019-07-09T08:30:33Z</time>
      </trkpt>
      <trkpt lat="48.45005" lon="6.98454">
        <ele>491.85</ele>
        <time>2019-07-09T08:30:44Z</time>
      </trkpt>
      <trkpt lat="48.45003" lon="6.98453">
        <ele>492.33</ele>
        <time>2019-07-09T08:30:45Z</time>
      </trkpt>
      <trkpt lat="48.44975" lon="6.98452">
        <ele>496.66</ele>
        <time>2019-07-09T08:31:00Z</time>
      </trkpt>
      <trkpt lat="48.44969" lon="6.98454">
        <ele>498.58</ele>
        <time>2019-07-09T08:31:04Z</time>
      </trkpt>
      <trkpt lat="48.44967" lon="6.98453">
        <ele>498.58</ele>
        <time>2019-07-09T08:31:05Z</time>
      </trkpt>
      <trkpt lat="48.44964" lon="6.98453">
        <ele>498.58</ele>
        <time>2019-07-09T08:31:06Z</time>
      </trkpt>
      <trkpt lat="48.44962" lon="6.98453">
        <ele>499.06</ele>
        <time>2019-07-09T08:31:07Z</time>
      </trkpt>
      <trkpt lat="48.4496" lon="6.98453">
        <ele>499.06</ele>
        <time>2019-07-09T08:31:08Z</time>
      </trkpt>
      <trkpt lat="48.44955" lon="6.98453">
        <ele>499.54</ele>
        <time>2019-07-09T08:31:10Z</time>
      </trkpt>
      <trkpt lat="48.44952" lon="6.98452">
        <ele>499.54</ele>
        <time>2019-07-09T08:31:22Z</time>
      </trkpt>
      <trkpt lat="48.44954" lon="6.98451">
        <ele>499.54</ele>
        <time>2019-07-09T08:31:24Z</time>
      </trkpt>
      <trkpt lat="48.44955" lon="6.98451">
        <ele>499.54</ele>
        <time>2019-07-09T08:31:25Z</time>
      </trkpt>
      <trkpt lat="48.44954" lon="6.98448">
        <ele>498.1</ele>
        <time>2019-07-09T08:31:33Z</time>
      </trkpt>
      <trkpt lat="48.44949" lon="6.98442">
        <ele>496.66</ele>
        <time>2019-07-09T08:31:36Z</time>
      </trkpt>
      <trkpt lat="48.44943" lon="6.98427">
        <ele>493.77</ele>
        <time>2019-07-09T08:31:42Z</time>
      </trkpt>
      <trkpt lat="48.4494" lon="6.98426">
        <ele>493.29</ele>
        <time>2019-07-09T08:31:43Z</time>
      </trkpt>
      <trkpt lat="48.44939" lon="6.98425">
        <ele>493.29</ele>
        <time>2019-07-09T08:31:44Z</time>
      </trkpt>
      <trkpt lat="48.44923" lon="6.98408">
        <ele>490.41</ele>
        <time>2019-07-09T08:31:52Z</time>
      </trkpt>
      <trkpt lat="48.44907" lon="6.98373">
        <ele>488.01</ele>
        <time>2019-07-09T08:32:02Z</time>
      </trkpt>
      <trkpt lat="48.44902" lon="6.9835">
        <ele>482.72</ele>
        <time>2019-07-09T08:32:07Z</time>
      </trkpt>
      <trkpt lat="48.44898" lon="6.98314">
        <ele>471.66</ele>
        <time>2019-07-09T08:32:16Z</time>
      </trkpt>
      <trkpt lat="48.44891" lon="6.98303">
        <ele>467.82</ele>
        <time>2019-07-09T08:32:27Z</time>
      </trkpt>
      <trkpt lat="48.44892" lon="6.98295">
        <ele>466.86</ele>
        <time>2019-07-09T08:32:30Z</time>
      </trkpt>
      <trkpt lat="48.44898" lon="6.98264">
        <ele>463.01</ele>
        <time>2019-07-09T08:32:36Z</time>
      </trkpt>
      <trkpt lat="48.44898" lon="6.98257">
        <ele>462.53</ele>
        <time>2019-07-09T08:32:37Z</time>
      </trkpt>
      <trkpt lat="48.44898" lon="6.98251">
        <ele>462.05</ele>
        <time>2019-07-09T08:32:38Z</time>
      </trkpt>
      <trkpt lat="48.44897" lon="6.98247">
        <ele>461.57</ele>
        <time>2019-07-09T08:32:39Z</time>
      </trkpt>
      <trkpt lat="48.44897" lon="6.98241">
        <ele>460.61</ele>
        <time>2019-07-09T08:32:40Z</time>
      </trkpt>
      <trkpt lat="48.44896" lon="6.98236">
        <ele>460.13</ele>
        <time>2019-07-09T08:32:41Z</time>
      </trkpt>
      <trkpt lat="48.44896" lon="6.98229">
        <ele>459.65</ele>
        <time>2019-07-09T08:32:42Z</time>
      </trkpt>
      <trkpt lat="48.44896" lon="6.98223">
        <ele>458.69</ele>
        <time>2019-07-09T08:32:43Z</time>
      </trkpt>
      <trkpt lat="48.44897" lon="6.98216">
        <ele>458.21</ele>
        <time>2019-07-09T08:32:44Z</time>
      </trkpt>
      <trkpt lat="48.44898" lon="6.9821">
        <ele>457.24</ele>
        <time>2019-07-09T08:32:45Z</time>
      </trkpt>
      <trkpt lat="48.44899" lon="6.98204">
        <ele>456.28</ele>
        <time>2019-07-09T08:32:46Z</time>
      </trkpt>
      <trkpt lat="48.44901" lon="6.98198">
        <ele>455.32</ele>
        <time>2019-07-09T08:32:47Z</time>
      </trkpt>
      <trkpt lat="48.449" lon="6.98148">
        <ele>445.71</ele>
        <time>2019-07-09T08:32:57Z</time>
      </trkpt>
      <trkpt lat="48.44902" lon="6.98101">
        <ele>440.9</ele>
        <time>2019-07-09T08:33:07Z</time>
      </trkpt>
      <trkpt lat="48.44899" lon="6.98077">
        <ele>435.13</ele>
        <time>2019-07-09T08:33:17Z</time>
      </trkpt>
      <trkpt lat="48.44898" lon="6.98065">
        <ele>433.21</ele>
        <time>2019-07-09T08:33:23Z</time>
      </trkpt>
      <trkpt lat="48.44901" lon="6.98006">
        <ele>431.77</ele>
        <time>2019-07-09T08:33:33Z</time>
      </trkpt>
      <trkpt lat="48.44903" lon="6.97985">
        <ele>431.77</ele>
        <time>2019-07-09T08:33:37Z</time>
      </trkpt>
      <trkpt lat="48.44913" lon="6.97935">
        <ele>430.81</ele>
        <time>2019-07-09T08:33:46Z</time>
      </trkpt>
      <trkpt lat="48.44932" lon="6.97887">
        <ele>426.96</ele>
        <time>2019-07-09T08:33:55Z</time>
      </trkpt>
      <trkpt lat="48.44935" lon="6.97878">
        <ele>426</ele>
        <time>2019-07-09T08:33:56Z</time>
      </trkpt>
      <trkpt lat="48.44937" lon="6.97868">
        <ele>425.04</ele>
        <time>2019-07-09T08:33:57Z</time>
      </trkpt>
      <trkpt lat="48.44943" lon="6.97831">
        <ele>421.19</ele>
        <time>2019-07-09T08:34:01Z</time>
      </trkpt>
      <trkpt lat="48.44949" lon="6.97768">
        <ele>410.62</ele>
        <time>2019-07-09T08:34:10Z</time>
      </trkpt>
      <trkpt lat="48.44949" lon="6.97755">
        <ele>408.22</ele>
        <time>2019-07-09T08:34:12Z</time>
      </trkpt>
      <trkpt lat="48.44948" lon="6.97747">
        <ele>407.26</ele>
        <time>2019-07-09T08:34:13Z</time>
      </trkpt>
      <trkpt lat="48.44949" lon="6.9774">
        <ele>406.29</ele>
        <time>2019-07-09T08:34:14Z</time>
      </trkpt>
      <trkpt lat="48.44951" lon="6.97732">
        <ele>405.33</ele>
        <time>2019-07-09T08:34:15Z</time>
      </trkpt>
      <trkpt lat="48.44953" lon="6.97723">
        <ele>404.37</ele>
        <time>2019-07-09T08:34:16Z</time>
      </trkpt>
      <trkpt lat="48.44956" lon="6.97714">
        <ele>403.41</ele>
        <time>2019-07-09T08:34:17Z</time>
      </trkpt>
      <trkpt lat="48.44958" lon="6.97706">
        <ele>401.97</ele>
        <time>2019-07-09T08:34:18Z</time>
      </trkpt>
      <trkpt lat="48.44965" lon="6.97679">
        <ele>398.6</ele>
        <time>2019-07-09T08:34:21Z</time>
      </trkpt>
      <trkpt lat="48.44967" lon="6.97671">
        <ele>397.16</ele>
        <time>2019-07-09T08:34:22Z</time>
      </trkpt>
      <trkpt lat="48.44971" lon="6.97656">
        <ele>394.76</ele>
        <time>2019-07-09T08:34:24Z</time>
      </trkpt>
      <trkpt lat="48.44972" lon="6.97649">
        <ele>393.8</ele>
        <time>2019-07-09T08:34:25Z</time>
      </trkpt>
      <trkpt lat="48.44975" lon="6.97615">
        <ele>388.99</ele>
        <time>2019-07-09T08:34:29Z</time>
      </trkpt>
      <trkpt lat="48.44977" lon="6.97607">
        <ele>388.03</ele>
        <time>2019-07-09T08:34:30Z</time>
      </trkpt>
      <trkpt lat="48.44982" lon="6.97579">
        <ele>384.18</ele>
        <time>2019-07-09T08:34:33Z</time>
      </trkpt>
      <trkpt lat="48.44983" lon="6.97569">
        <ele>383.22</ele>
        <time>2019-07-09T08:34:34Z</time>
      </trkpt>
      <trkpt lat="48.44991" lon="6.97544">
        <ele>380.82</ele>
        <time>2019-07-09T08:34:37Z</time>
      </trkpt>
      <trkpt lat="48.44998" lon="6.97529">
        <ele>379.86</ele>
        <time>2019-07-09T08:34:39Z</time>
      </trkpt>
      <trkpt lat="48.45001" lon="6.97523">
        <ele>378.9</ele>
        <time>2019-07-09T08:34:40Z</time>
      </trkpt>
      <trkpt lat="48.4502" lon="6.97503">
        <ele>374.09</ele>
        <time>2019-07-09T08:34:46Z</time>
      </trkpt>
      <trkpt lat="48.45024" lon="6.97503">
        <ele>371.69</ele>
        <time>2019-07-09T08:34:48Z</time>
      </trkpt>
      <trkpt lat="48.45027" lon="6.97502">
        <ele>370.24</ele>
        <time>2019-07-09T08:34:49Z</time>
      </trkpt>
      <trkpt lat="48.45029" lon="6.97501">
        <ele>368.32</ele>
        <time>2019-07-09T08:34:50Z</time>
      </trkpt>
      <trkpt lat="48.45031" lon="6.97497">
        <ele>367.84</ele>
        <time>2019-07-09T08:34:51Z</time>
      </trkpt>
      <trkpt lat="48.45033" lon="6.97493">
        <ele>367.36</ele>
        <time>2019-07-09T08:34:52Z</time>
      </trkpt>
      <trkpt lat="48.45035" lon="6.97489">
        <ele>366.88</ele>
        <time>2019-07-09T08:34:53Z</time>
      </trkpt>
      <trkpt lat="48.45071" lon="6.97442">
        <ele>361.59</ele>
        <time>2019-07-09T08:35:06Z</time>
      </trkpt>
      <trkpt lat="48.45093" lon="6.97379">
        <ele>358.71</ele>
        <time>2019-07-09T08:35:18Z</time>
      </trkpt>
      <trkpt lat="48.45119" lon="6.97277">
        <ele>358.23</ele>
        <time>2019-07-09T08:35:36Z</time>
      </trkpt>
      <trkpt lat="48.45126" lon="6.9724">
        <ele>357.27</ele>
        <time>2019-07-09T08:35:42Z</time>
      </trkpt>
      <trkpt lat="48.45127" lon="6.97233">
        <ele>357.27</ele>
        <time>2019-07-09T08:35:43Z</time>
      </trkpt>
      <trkpt lat="48.45135" lon="6.97187">
        <ele>356.31</ele>
        <time>2019-07-09T08:35:50Z</time>
      </trkpt>
      <trkpt lat="48.45137" lon="6.97174">
        <ele>355.83</ele>
        <time>2019-07-09T08:35:52Z</time>
      </trkpt>
      <trkpt lat="48.45138" lon="6.97168">
        <ele>355.83</ele>
        <time>2019-07-09T08:35:53Z</time>
      </trkpt>
      <trkpt lat="48.4514" lon="6.97162">
        <ele>355.83</ele>
        <time>2019-07-09T08:35:54Z</time>
      </trkpt>
      <trkpt lat="48.45141" lon="6.97156">
        <ele>355.83</ele>
        <time>2019-07-09T08:35:55Z</time>
      </trkpt>
      <trkpt lat="48.45143" lon="6.97151">
        <ele>355.83</ele>
        <time>2019-07-09T08:35:56Z</time>
      </trkpt>
      <trkpt lat="48.45146" lon="6.97145">
        <ele>355.83</ele>
        <time>2019-07-09T08:35:57Z</time>
      </trkpt>
      <trkpt lat="48.45152" lon="6.97135">
        <ele>355.83</ele>
        <time>2019-07-09T08:35:59Z</time>
      </trkpt>
      <trkpt lat="48.45168" lon="6.9711">
        <ele>354.86</ele>
        <time>2019-07-09T08:36:04Z</time>
      </trkpt>
      <trkpt lat="48.45173" lon="6.97106">
        <ele>354.86</ele>
        <time>2019-07-09T08:36:05Z</time>
      </trkpt>
      <trkpt lat="48.45218" lon="6.97057">
        <ele>350.54</ele>
        <time>2019-07-09T08:36:13Z</time>
      </trkpt>
      <trkpt lat="48.45269" lon="6.97005">
        <ele>344.29</ele>
        <time>2019-07-09T08:36:19Z</time>
      </trkpt>
      <trkpt lat="48.45277" lon="6.96993">
        <ele>343.33</ele>
        <time>2019-07-09T08:36:20Z</time>
      </trkpt>
      <trkpt lat="48.45343" lon="6.96864">
        <ele>339.96</ele>
        <time>2019-07-09T08:36:31Z</time>
      </trkpt>
      <trkpt lat="48.45348" lon="6.96855">
        <ele>339.96</ele>
        <time>2019-07-09T08:36:32Z</time>
      </trkpt>
      <trkpt lat="48.45359" lon="6.96839">
        <ele>339.48</ele>
        <time>2019-07-09T08:36:34Z</time>
      </trkpt>
      <trkpt lat="48.45365" lon="6.96833">
        <ele>339.48</ele>
        <time>2019-07-09T08:36:35Z</time>
      </trkpt>
      <trkpt lat="48.4541" lon="6.9678">
        <ele>339</ele>
        <time>2019-07-09T08:36:44Z</time>
      </trkpt>
      <trkpt lat="48.45414" lon="6.96774">
        <ele>339</ele>
        <time>2019-07-09T08:36:45Z</time>
      </trkpt>
      <trkpt lat="48.45418" lon="6.96767">
        <ele>339</ele>
        <time>2019-07-09T08:36:46Z</time>
      </trkpt>
      <trkpt lat="48.45427" lon="6.96744">
        <ele>338.52</ele>
        <time>2019-07-09T08:36:49Z</time>
      </trkpt>
      <trkpt lat="48.45459" lon="6.96666">
        <ele>338.04</ele>
        <time>2019-07-09T08:36:59Z</time>
      </trkpt>
      <trkpt lat="48.45462" lon="6.96658">
        <ele>338.04</ele>
        <time>2019-07-09T08:37:00Z</time>
      </trkpt>
      <trkpt lat="48.45466" lon="6.96642">
        <ele>338.04</ele>
        <time>2019-07-09T08:37:02Z</time>
      </trkpt>
      <trkpt lat="48.45467" lon="6.96634">
        <ele>338.04</ele>
        <time>2019-07-09T08:37:03Z</time>
      </trkpt>
      <trkpt lat="48.45468" lon="6.96625">
        <ele>337.56</ele>
        <time>2019-07-09T08:37:04Z</time>
      </trkpt>
      <trkpt lat="48.45468" lon="6.96617">
        <ele>337.56</ele>
        <time>2019-07-09T08:37:05Z</time>
      </trkpt>
      <trkpt lat="48.45468" lon="6.96609">
        <ele>337.56</ele>
        <time>2019-07-09T08:37:06Z</time>
      </trkpt>
      <trkpt lat="48.45469" lon="6.96579">
        <ele>337.56</ele>
        <time>2019-07-09T08:37:10Z</time>
      </trkpt>
      <trkpt lat="48.45472" lon="6.96559">
        <ele>337.56</ele>
        <time>2019-07-09T08:37:13Z</time>
      </trkpt>
      <trkpt lat="48.45486" lon="6.96499">
        <ele>338.52</ele>
        <time>2019-07-09T08:37:22Z</time>
      </trkpt>
      <trkpt lat="48.45488" lon="6.96493">
        <ele>338.52</ele>
        <time>2019-07-09T08:37:23Z</time>
      </trkpt>
      <trkpt lat="48.4551" lon="6.96409">
        <ele>338.04</ele>
        <time>2019-07-09T08:37:37Z</time>
      </trkpt>
      <trkpt lat="48.45511" lon="6.96403">
        <ele>338.04</ele>
        <time>2019-07-09T08:37:38Z</time>
      </trkpt>
      <trkpt lat="48.45512" lon="6.96397">
        <ele>338.04</ele>
        <time>2019-07-09T08:37:39Z</time>
      </trkpt>
      <trkpt lat="48.45525" lon="6.96315">
        <ele>339.96</ele>
        <time>2019-07-09T08:37:53Z</time>
      </trkpt>
      <trkpt lat="48.45545" lon="6.9624">
        <ele>341.41</ele>
        <time>2019-07-09T08:38:07Z</time>
      </trkpt>
      <trkpt lat="48.45561" lon="6.9615">
        <ele>341.89</ele>
        <time>2019-07-09T08:38:23Z</time>
      </trkpt>
      <trkpt lat="48.45565" lon="6.96117">
        <ele>341.89</ele>
        <time>2019-07-09T08:38:28Z</time>
      </trkpt>
      <trkpt lat="48.45566" lon="6.9611">
        <ele>341.41</ele>
        <time>2019-07-09T08:38:29Z</time>
      </trkpt>
      <trkpt lat="48.45572" lon="6.96055">
        <ele>340.92</ele>
        <time>2019-07-09T08:38:37Z</time>
      </trkpt>
      <trkpt lat="48.45575" lon="6.96034">
        <ele>340.92</ele>
        <time>2019-07-09T08:38:40Z</time>
      </trkpt>
      <trkpt lat="48.45575" lon="6.96027">
        <ele>340.44</ele>
        <time>2019-07-09T08:38:41Z</time>
      </trkpt>
      <trkpt lat="48.45589" lon="6.95904">
        <ele>337.56</ele>
        <time>2019-07-09T08:38:56Z</time>
      </trkpt>
      <trkpt lat="48.45598" lon="6.95823">
        <ele>334.68</ele>
        <time>2019-07-09T08:39:04Z</time>
      </trkpt>
      <trkpt lat="48.45625" lon="6.95681">
        <ele>330.35</ele>
        <time>2019-07-09T08:39:18Z</time>
      </trkpt>
      <trkpt lat="48.45643" lon="6.95635">
        <ele>328.91</ele>
        <time>2019-07-09T08:39:23Z</time>
      </trkpt>
      <trkpt lat="48.4568" lon="6.95527">
        <ele>326.99</ele>
        <time>2019-07-09T08:39:35Z</time>
      </trkpt>
      <trkpt lat="48.45684" lon="6.95486">
        <ele>325.06</ele>
        <time>2019-07-09T08:39:39Z</time>
      </trkpt>
      <trkpt lat="48.45682" lon="6.95451">
        <ele>323.62</ele>
        <time>2019-07-09T08:39:42Z</time>
      </trkpt>
      <trkpt lat="48.4568" lon="6.9544">
        <ele>323.14</ele>
        <time>2019-07-09T08:39:43Z</time>
      </trkpt>
      <trkpt lat="48.45677" lon="6.9543">
        <ele>322.66</ele>
        <time>2019-07-09T08:39:44Z</time>
      </trkpt>
      <trkpt lat="48.45674" lon="6.95419">
        <ele>322.18</ele>
        <time>2019-07-09T08:39:45Z</time>
      </trkpt>
      <trkpt lat="48.45672" lon="6.95409">
        <ele>322.18</ele>
        <time>2019-07-09T08:39:46Z</time>
      </trkpt>
      <trkpt lat="48.45672" lon="6.95399">
        <ele>322.18</ele>
        <time>2019-07-09T08:39:47Z</time>
      </trkpt>
      <trkpt lat="48.45673" lon="6.95389">
        <ele>321.7</ele>
        <time>2019-07-09T08:39:48Z</time>
      </trkpt>
      <trkpt lat="48.45677" lon="6.9538">
        <ele>321.7</ele>
        <time>2019-07-09T08:39:49Z</time>
      </trkpt>
      <trkpt lat="48.4568" lon="6.95372">
        <ele>321.22</ele>
        <time>2019-07-09T08:39:50Z</time>
      </trkpt>
      <trkpt lat="48.45696" lon="6.95334">
        <ele>321.7</ele>
        <time>2019-07-09T08:39:55Z</time>
      </trkpt>
      <trkpt lat="48.45709" lon="6.95314">
        <ele>322.18</ele>
        <time>2019-07-09T08:39:59Z</time>
      </trkpt>
      <trkpt lat="48.45712" lon="6.95311">
        <ele>322.66</ele>
        <time>2019-07-09T08:40:00Z</time>
      </trkpt>
      <trkpt lat="48.45714" lon="6.95309">
        <ele>322.66</ele>
        <time>2019-07-09T08:40:01Z</time>
      </trkpt>
      <trkpt lat="48.45718" lon="6.95301">
        <ele>323.14</ele>
        <time>2019-07-09T08:40:04Z</time>
      </trkpt>
      <trkpt lat="48.45718" lon="6.95295">
        <ele>323.14</ele>
        <time>2019-07-09T08:40:05Z</time>
      </trkpt>
      <trkpt lat="48.45717" lon="6.95291">
        <ele>323.14</ele>
        <time>2019-07-09T08:40:06Z</time>
      </trkpt>
      <trkpt lat="48.45715" lon="6.95285">
        <ele>323.14</ele>
        <time>2019-07-09T08:40:07Z</time>
      </trkpt>
      <trkpt lat="48.45713" lon="6.9528">
        <ele>323.14</ele>
        <time>2019-07-09T08:40:08Z</time>
      </trkpt>
      <trkpt lat="48.45703" lon="6.95247">
        <ele>323.14</ele>
        <time>2019-07-09T08:40:13Z</time>
      </trkpt>
      <trkpt lat="48.457" lon="6.95241">
        <ele>323.14</ele>
        <time>2019-07-09T08:40:14Z</time>
      </trkpt>
      <trkpt lat="48.45678" lon="6.95179">
        <ele>323.14</ele>
        <time>2019-07-09T08:40:23Z</time>
      </trkpt>
      <trkpt lat="48.45675" lon="6.95171">
        <ele>323.62</ele>
        <time>2019-07-09T08:40:24Z</time>
      </trkpt>
      <trkpt lat="48.45636" lon="6.95076">
        <ele>323.14</ele>
        <time>2019-07-09T08:40:38Z</time>
      </trkpt>
      <trkpt lat="48.45633" lon="6.95069">
        <ele>323.14</ele>
        <time>2019-07-09T08:40:39Z</time>
      </trkpt>
      <trkpt lat="48.45629" lon="6.95056">
        <ele>322.66</ele>
        <time>2019-07-09T08:40:41Z</time>
      </trkpt>
      <trkpt lat="48.45629" lon="6.95049">
        <ele>323.14</ele>
        <time>2019-07-09T08:40:42Z</time>
      </trkpt>
      <trkpt lat="48.4563" lon="6.95042">
        <ele>323.14</ele>
        <time>2019-07-09T08:40:43Z</time>
      </trkpt>
      <trkpt lat="48.45632" lon="6.95035">
        <ele>323.62</ele>
        <time>2019-07-09T08:40:44Z</time>
      </trkpt>
      <trkpt lat="48.45633" lon="6.9503">
        <ele>323.62</ele>
        <time>2019-07-09T08:40:45Z</time>
      </trkpt>
      <trkpt lat="48.45633" lon="6.95025">
        <ele>323.62</ele>
        <time>2019-07-09T08:40:46Z</time>
      </trkpt>
      <trkpt lat="48.45633" lon="6.9502">
        <ele>323.62</ele>
        <time>2019-07-09T08:40:47Z</time>
      </trkpt>
      <trkpt lat="48.45639" lon="6.94979">
        <ele>323.14</ele>
        <time>2019-07-09T08:40:56Z</time>
      </trkpt>
      <trkpt lat="48.45637" lon="6.94965">
        <ele>322.66</ele>
        <time>2019-07-09T08:40:58Z</time>
      </trkpt>
      <trkpt lat="48.45637" lon="6.94957">
        <ele>322.66</ele>
        <time>2019-07-09T08:40:59Z</time>
      </trkpt>
      <trkpt lat="48.45635" lon="6.9495">
        <ele>321.7</ele>
        <time>2019-07-09T08:41:00Z</time>
      </trkpt>
      <trkpt lat="48.45618" lon="6.94916">
        <ele>319.78</ele>
        <time>2019-07-09T08:41:08Z</time>
      </trkpt>
      <trkpt lat="48.4561" lon="6.94909">
        <ele>319.78</ele>
        <time>2019-07-09T08:41:13Z</time>
      </trkpt>
      <trkpt lat="48.4561" lon="6.94911">
        <ele>319.78</ele>
        <time>2019-07-09T08:41:14Z</time>
      </trkpt>
      <trkpt lat="48.45611" lon="6.94912">
        <ele>319.78</ele>
        <time>2019-07-09T08:41:15Z</time>
      </trkpt>
      <trkpt lat="48.45613" lon="6.94912">
        <ele>319.78</ele>
        <time>2019-07-09T08:41:16Z</time>
      </trkpt>
      <trkpt lat="48.45615" lon="6.94914">
        <ele>320.26</ele>
        <time>2019-07-09T08:41:17Z</time>
      </trkpt>
      <trkpt lat="48.45618" lon="6.94916">
        <ele>320.26</ele>
        <time>2019-07-09T08:41:18Z</time>
      </trkpt>
      <trkpt lat="48.45646" lon="6.94911">
        <ele>321.22</ele>
        <time>2019-07-09T08:41:27Z</time>
      </trkpt>
      <trkpt lat="48.45663" lon="6.94886">
        <ele>320.74</ele>
        <time>2019-07-09T08:41:33Z</time>
      </trkpt>
      <trkpt lat="48.45669" lon="6.94865">
        <ele>319.78</ele>
        <time>2019-07-09T08:41:36Z</time>
      </trkpt>
      <trkpt lat="48.4567" lon="6.94857">
        <ele>319.78</ele>
        <time>2019-07-09T08:41:37Z</time>
      </trkpt>
      <trkpt lat="48.4567" lon="6.94849">
        <ele>319.78</ele>
        <time>2019-07-09T08:41:38Z</time>
      </trkpt>
      <trkpt lat="48.45673" lon="6.948">
        <ele>319.3</ele>
        <time>2019-07-09T08:41:44Z</time>
      </trkpt>
      <trkpt lat="48.45675" lon="6.94793">
        <ele>319.3</ele>
        <time>2019-07-09T08:41:45Z</time>
      </trkpt>
      <trkpt lat="48.45677" lon="6.94787">
        <ele>318.81</ele>
        <time>2019-07-09T08:41:46Z</time>
      </trkpt>
      <trkpt lat="48.4568" lon="6.9478">
        <ele>319.3</ele>
        <time>2019-07-09T08:41:47Z</time>
      </trkpt>
      <trkpt lat="48.45683" lon="6.94776">
        <ele>319.3</ele>
        <time>2019-07-09T08:41:48Z</time>
      </trkpt>
      <trkpt lat="48.45687" lon="6.9477">
        <ele>319.3</ele>
        <time>2019-07-09T08:41:49Z</time>
      </trkpt>
      <trkpt lat="48.45689" lon="6.94765">
        <ele>319.3</ele>
        <time>2019-07-09T08:41:50Z</time>
      </trkpt>
      <trkpt lat="48.45718" lon="6.94711">
        <ele>319.78</ele>
        <time>2019-07-09T08:42:00Z</time>
      </trkpt>
      <trkpt lat="48.4572" lon="6.94704">
        <ele>319.78</ele>
        <time>2019-07-09T08:42:01Z</time>
      </trkpt>
      <trkpt lat="48.4572" lon="6.94698">
        <ele>319.78</ele>
        <time>2019-07-09T08:42:02Z</time>
      </trkpt>
      <trkpt lat="48.45719" lon="6.94691">
        <ele>319.78</ele>
        <time>2019-07-09T08:42:03Z</time>
      </trkpt>
      <trkpt lat="48.45718" lon="6.94686">
        <ele>319.78</ele>
        <time>2019-07-09T08:42:04Z</time>
      </trkpt>
      <trkpt lat="48.45716" lon="6.94681">
        <ele>319.78</ele>
        <time>2019-07-09T08:42:05Z</time>
      </trkpt>
      <trkpt lat="48.45714" lon="6.94676">
        <ele>319.78</ele>
        <time>2019-07-09T08:42:06Z</time>
      </trkpt>
      <trkpt lat="48.45704" lon="6.94653">
        <ele>318.81</ele>
        <time>2019-07-09T08:42:15Z</time>
      </trkpt>
      <trkpt lat="48.45694" lon="6.94633">
        <ele>319.78</ele>
        <time>2019-07-09T08:42:27Z</time>
      </trkpt>
      <trkpt lat="48.45694" lon="6.94631">
        <ele>319.3</ele>
        <time>2019-07-09T08:42:28Z</time>
      </trkpt>
      <trkpt lat="48.45693" lon="6.9463">
        <ele>319.78</ele>
        <time>2019-07-09T08:42:29Z</time>
      </trkpt>
      <trkpt lat="48.45693" lon="6.94628">
        <ele>319.78</ele>
        <time>2019-07-09T08:42:30Z</time>
      </trkpt>
      <trkpt lat="48.45691" lon="6.9462">
        <ele>320.26</ele>
        <time>2019-07-09T08:42:39Z</time>
      </trkpt>
      <trkpt lat="48.45691" lon="6.94619">
        <ele>320.26</ele>
        <time>2019-07-09T08:42:40Z</time>
      </trkpt>
      <trkpt lat="48.45693" lon="6.94617">
        <ele>320.26</ele>
        <time>2019-07-09T08:42:42Z</time>
      </trkpt>
      <trkpt lat="48.45703" lon="6.94617">
        <ele>323.14</ele>
        <time>2019-07-09T08:42:57Z</time>
      </trkpt>
      <trkpt lat="48.45709" lon="6.94616">
        <ele>325.54</ele>
        <time>2019-07-09T08:43:09Z</time>
      </trkpt>
      <trkpt lat="48.45719" lon="6.94613">
        <ele>334.2</ele>
        <time>2019-07-09T08:43:20Z</time>
      </trkpt>
      <trkpt lat="48.45731" lon="6.94617">
        <ele>339</ele>
        <time>2019-07-09T08:43:33Z</time>
      </trkpt>
      <trkpt lat="48.45744" lon="6.94622">
        <ele>342.85</ele>
        <time>2019-07-09T08:43:46Z</time>
      </trkpt>
      <trkpt lat="48.45757" lon="6.94622">
        <ele>344.77</ele>
        <time>2019-07-09T08:43:58Z</time>
      </trkpt>
      <trkpt lat="48.45769" lon="6.94622">
        <ele>347.65</ele>
        <time>2019-07-09T08:44:09Z</time>
      </trkpt>
      <trkpt lat="48.45773" lon="6.94623">
        <ele>348.62</ele>
        <time>2019-07-09T08:44:14Z</time>
      </trkpt>
      <trkpt lat="48.45784" lon="6.94628">
        <ele>350.54</ele>
        <time>2019-07-09T08:44:30Z</time>
      </trkpt>
      <trkpt lat="48.45798" lon="6.94632">
        <ele>352.94</ele>
        <time>2019-07-09T08:44:45Z</time>
      </trkpt>
      <trkpt lat="48.45808" lon="6.94639">
        <ele>356.79</ele>
        <time>2019-07-09T08:44:56Z</time>
      </trkpt>
      <trkpt lat="48.45829" lon="6.9464">
        <ele>361.59</ele>
        <time>2019-07-09T08:45:10Z</time>
      </trkpt>
      <trkpt lat="48.45841" lon="6.94637">
        <ele>363.52</ele>
        <time>2019-07-09T08:45:23Z</time>
      </trkpt>
      <trkpt lat="48.45837" lon="6.94634">
        <ele>364.96</ele>
        <time>2019-07-09T08:45:37Z</time>
      </trkpt>
      <trkpt lat="48.4583" lon="6.94625">
        <ele>364</ele>
        <time>2019-07-09T08:45:49Z</time>
      </trkpt>
      <trkpt lat="48.45829" lon="6.94623">
        <ele>364</ele>
        <time>2019-07-09T08:45:52Z</time>
      </trkpt>
      <trkpt lat="48.45816" lon="6.94596">
        <ele>363.04</ele>
        <time>2019-07-09T08:46:07Z</time>
      </trkpt>
      <trkpt lat="48.45805" lon="6.94572">
        <ele>364.96</ele>
        <time>2019-07-09T08:46:20Z</time>
      </trkpt>
      <trkpt lat="48.45793" lon="6.94554">
        <ele>367.36</ele>
        <time>2019-07-09T08:46:31Z</time>
      </trkpt>
      <trkpt lat="48.45778" lon="6.94543">
        <ele>369.76</ele>
        <time>2019-07-09T08:46:44Z</time>
      </trkpt>
      <trkpt lat="48.4577" lon="6.94541">
        <ele>371.21</ele>
        <time>2019-07-09T08:46:49Z</time>
      </trkpt>
      <trkpt lat="48.45768" lon="6.94541">
        <ele>371.69</ele>
        <time>2019-07-09T08:46:50Z</time>
      </trkpt>
      <trkpt lat="48.45766" lon="6.9454">
        <ele>371.69</ele>
        <time>2019-07-09T08:46:51Z</time>
      </trkpt>
      <trkpt lat="48.45764" lon="6.9454">
        <ele>371.69</ele>
        <time>2019-07-09T08:46:52Z</time>
      </trkpt>
      <trkpt lat="48.45762" lon="6.94539">
        <ele>371.69</ele>
        <time>2019-07-09T08:46:53Z</time>
      </trkpt>
      <trkpt lat="48.4576" lon="6.94538">
        <ele>372.17</ele>
        <time>2019-07-09T08:46:54Z</time>
      </trkpt>
      <trkpt lat="48.45747" lon="6.94532">
        <ele>374.57</ele>
        <time>2019-07-09T08:47:04Z</time>
      </trkpt>
      <trkpt lat="48.45745" lon="6.94531">
        <ele>374.57</ele>
        <time>2019-07-09T08:47:05Z</time>
      </trkpt>
      <trkpt lat="48.45731" lon="6.94518">
        <ele>375.05</ele>
        <time>2019-07-09T08:47:16Z</time>
      </trkpt>
      <trkpt lat="48.45725" lon="6.94505">
        <ele>375.53</ele>
        <time>2019-07-09T08:47:24Z</time>
      </trkpt>
      <trkpt lat="48.45724" lon="6.94504">
        <ele>375.53</ele>
        <time>2019-07-09T08:47:25Z</time>
      </trkpt>
      <trkpt lat="48.45718" lon="6.94486">
        <ele>377.45</ele>
        <time>2019-07-09T08:47:36Z</time>
      </trkpt>
      <trkpt lat="48.45716" lon="6.94484">
        <ele>377.94</ele>
        <time>2019-07-09T08:47:37Z</time>
      </trkpt>
      <trkpt lat="48.4571" lon="6.9448">
        <ele>380.82</ele>
        <time>2019-07-09T08:47:42Z</time>
      </trkpt>
      <trkpt lat="48.457" lon="6.94462">
        <ele>381.3</ele>
        <time>2019-07-09T08:47:53Z</time>
      </trkpt>
      <trkpt lat="48.45699" lon="6.94461">
        <ele>381.3</ele>
        <time>2019-07-09T08:47:54Z</time>
      </trkpt>
      <trkpt lat="48.45698" lon="6.94459">
        <ele>381.78</ele>
        <time>2019-07-09T08:47:55Z</time>
      </trkpt>
      <trkpt lat="48.45696" lon="6.94457">
        <ele>381.3</ele>
        <time>2019-07-09T08:47:56Z</time>
      </trkpt>
      <trkpt lat="48.45691" lon="6.94451">
        <ele>382.26</ele>
        <time>2019-07-09T08:48:06Z</time>
      </trkpt>
      <trkpt lat="48.45691" lon="6.9445">
        <ele>382.26</ele>
        <time>2019-07-09T08:48:07Z</time>
      </trkpt>
      <trkpt lat="48.45688" lon="6.94449">
        <ele>383.22</ele>
        <time>2019-07-09T08:48:19Z</time>
      </trkpt>
      <trkpt lat="48.45687" lon="6.94445">
        <ele>383.7</ele>
        <time>2019-07-09T08:48:30Z</time>
      </trkpt>
      <trkpt lat="48.45686" lon="6.94435">
        <ele>386.11</ele>
        <time>2019-07-09T08:48:46Z</time>
      </trkpt>
      <trkpt lat="48.45684" lon="6.94435">
        <ele>385.15</ele>
        <time>2019-07-09T08:48:53Z</time>
      </trkpt>
      <trkpt lat="48.45668" lon="6.94425">
        <ele>385.63</ele>
        <time>2019-07-09T08:49:04Z</time>
      </trkpt>
      <trkpt lat="48.45657" lon="6.94399">
        <ele>384.66</ele>
        <time>2019-07-09T08:49:16Z</time>
      </trkpt>
      <trkpt lat="48.45651" lon="6.94386">
        <ele>384.66</ele>
        <time>2019-07-09T08:49:25Z</time>
      </trkpt>
      <trkpt lat="48.45649" lon="6.94384">
        <ele>384.18</ele>
        <time>2019-07-09T08:49:27Z</time>
      </trkpt>
      <trkpt lat="48.45638" lon="6.94372">
        <ele>386.11</ele>
        <time>2019-07-09T08:49:40Z</time>
      </trkpt>
      <trkpt lat="48.45635" lon="6.94372">
        <ele>386.11</ele>
        <time>2019-07-09T08:50:01Z</time>
      </trkpt>
      <trkpt lat="48.45636" lon="6.94371">
        <ele>387.55</ele>
        <time>2019-07-09T08:50:32Z</time>
      </trkpt>
      <trkpt lat="48.45644" lon="6.94377">
        <ele>392.36</ele>
        <time>2019-07-09T08:50:47Z</time>
      </trkpt>
      <trkpt lat="48.45646" lon="6.94378">
        <ele>393.32</ele>
        <time>2019-07-09T08:50:49Z</time>
      </trkpt>
      <trkpt lat="48.45653" lon="6.94385">
        <ele>397.64</ele>
        <time>2019-07-09T08:51:02Z</time>
      </trkpt>
      <trkpt lat="48.45664" lon="6.94397">
        <ele>398.6</ele>
        <time>2019-07-09T08:51:13Z</time>
      </trkpt>
      <trkpt lat="48.45681" lon="6.94407">
        <ele>404.37</ele>
        <time>2019-07-09T08:51:24Z</time>
      </trkpt>
      <trkpt lat="48.45686" lon="6.94409">
        <ele>405.33</ele>
        <time>2019-07-09T08:51:28Z</time>
      </trkpt>
      <trkpt lat="48.45697" lon="6.94421">
        <ele>406.77</ele>
        <time>2019-07-09T08:51:38Z</time>
      </trkpt>
      <trkpt lat="48.45704" lon="6.94426">
        <ele>408.22</ele>
        <time>2019-07-09T08:51:45Z</time>
      </trkpt>
      <trkpt lat="48.45719" lon="6.94436">
        <ele>410.62</ele>
        <time>2019-07-09T08:51:57Z</time>
      </trkpt>
      <trkpt lat="48.45724" lon="6.94436">
        <ele>409.66</ele>
        <time>2019-07-09T08:52:01Z</time>
      </trkpt>
      <trkpt lat="48.45736" lon="6.94441">
        <ele>409.18</ele>
        <time>2019-07-09T08:52:14Z</time>
      </trkpt>
      <trkpt lat="48.45745" lon="6.94446">
        <ele>408.7</ele>
        <time>2019-07-09T08:52:25Z</time>
      </trkpt>
      <trkpt lat="48.45747" lon="6.94445">
        <ele>409.18</ele>
        <time>2019-07-09T08:52:27Z</time>
      </trkpt>
      <trkpt lat="48.45757" lon="6.94444">
        <ele>410.62</ele>
        <time>2019-07-09T08:52:33Z</time>
      </trkpt>
      <trkpt lat="48.45781" lon="6.94443">
        <ele>411.58</ele>
        <time>2019-07-09T08:52:47Z</time>
      </trkpt>
      <trkpt lat="48.45787" lon="6.94443">
        <ele>412.06</ele>
        <time>2019-07-09T08:52:50Z</time>
      </trkpt>
      <trkpt lat="48.45807" lon="6.94439">
        <ele>410.62</ele>
        <time>2019-07-09T08:53:04Z</time>
      </trkpt>
      <trkpt lat="48.45817" lon="6.94435">
        <ele>411.58</ele>
        <time>2019-07-09T08:53:13Z</time>
      </trkpt>
      <trkpt lat="48.45839" lon="6.9443">
        <ele>414.47</ele>
        <time>2019-07-09T08:53:27Z</time>
      </trkpt>
      <trkpt lat="48.45859" lon="6.94441">
        <ele>419.27</ele>
        <time>2019-07-09T08:53:40Z</time>
      </trkpt>
      <trkpt lat="48.4586" lon="6.94442">
        <ele>419.75</ele>
        <time>2019-07-09T08:53:41Z</time>
      </trkpt>
      <trkpt lat="48.45864" lon="6.94443">
        <ele>420.71</ele>
        <time>2019-07-09T08:53:44Z</time>
      </trkpt>
      <trkpt lat="48.45876" lon="6.94449">
        <ele>423.12</ele>
        <time>2019-07-09T08:53:56Z</time>
      </trkpt>
      <trkpt lat="48.45887" lon="6.94456">
        <ele>424.08</ele>
        <time>2019-07-09T08:54:07Z</time>
      </trkpt>
      <trkpt lat="48.4589" lon="6.94458">
        <ele>425.52</ele>
        <time>2019-07-09T08:54:11Z</time>
      </trkpt>
      <trkpt lat="48.45902" lon="6.94459">
        <ele>427.44</ele>
        <time>2019-07-09T08:54:23Z</time>
      </trkpt>
      <trkpt lat="48.4592" lon="6.94464">
        <ele>431.77</ele>
        <time>2019-07-09T08:54:36Z</time>
      </trkpt>
      <trkpt lat="48.45941" lon="6.94469">
        <ele>433.69</ele>
        <time>2019-07-09T08:54:49Z</time>
      </trkpt>
      <trkpt lat="48.45942" lon="6.94469">
        <ele>434.17</ele>
        <time>2019-07-09T08:54:50Z</time>
      </trkpt>
      <trkpt lat="48.45957" lon="6.94475">
        <ele>437.06</ele>
        <time>2019-07-09T08:55:02Z</time>
      </trkpt>
      <trkpt lat="48.45965" lon="6.94479">
        <ele>436.1</ele>
        <time>2019-07-09T08:55:14Z</time>
      </trkpt>
      <trkpt lat="48.45969" lon="6.9448">
        <ele>436.1</ele>
        <time>2019-07-09T08:55:16Z</time>
      </trkpt>
      <trkpt lat="48.45978" lon="6.94479">
        <ele>435.13</ele>
        <time>2019-07-09T08:55:24Z</time>
      </trkpt>
      <trkpt lat="48.46001" lon="6.94481">
        <ele>434.17</ele>
        <time>2019-07-09T08:55:40Z</time>
      </trkpt>
      <trkpt lat="48.46002" lon="6.94481">
        <ele>434.17</ele>
        <time>2019-07-09T08:55:41Z</time>
      </trkpt>
      <trkpt lat="48.46016" lon="6.94481">
        <ele>435.61</ele>
        <time>2019-07-09T08:55:50Z</time>
      </trkpt>
      <trkpt lat="48.46026" lon="6.94478">
        <ele>437.06</ele>
        <time>2019-07-09T08:56:03Z</time>
      </trkpt>
      <trkpt lat="48.46032" lon="6.94473">
        <ele>438.02</ele>
        <time>2019-07-09T08:56:16Z</time>
      </trkpt>
      <trkpt lat="48.46034" lon="6.94473">
        <ele>438.02</ele>
        <time>2019-07-09T08:56:18Z</time>
      </trkpt>
      <trkpt lat="48.46043" lon="6.94475">
        <ele>438.5</ele>
        <time>2019-07-09T08:56:24Z</time>
      </trkpt>
      <trkpt lat="48.46077" lon="6.94474">
        <ele>438.5</ele>
        <time>2019-07-09T08:56:40Z</time>
      </trkpt>
      <trkpt lat="48.46098" lon="6.94444">
        <ele>435.13</ele>
        <time>2019-07-09T08:56:49Z</time>
      </trkpt>
      <trkpt lat="48.46113" lon="6.94389">
        <ele>431.29</ele>
        <time>2019-07-09T08:57:00Z</time>
      </trkpt>
      <trkpt lat="48.46131" lon="6.94372">
        <ele>429.85</ele>
        <time>2019-07-09T08:57:09Z</time>
      </trkpt>
      <trkpt lat="48.46143" lon="6.94366">
        <ele>430.33</ele>
        <time>2019-07-09T08:57:25Z</time>
      </trkpt>
      <trkpt lat="48.4616" lon="6.94366">
        <ele>434.17</ele>
        <time>2019-07-09T08:57:35Z</time>
      </trkpt>
      <trkpt lat="48.46158" lon="6.94368">
        <ele>433.69</ele>
        <time>2019-07-09T08:57:49Z</time>
      </trkpt>
      <trkpt lat="48.46157" lon="6.94367">
        <ele>433.21</ele>
        <time>2019-07-09T08:57:50Z</time>
      </trkpt>
      <trkpt lat="48.46156" lon="6.94367">
        <ele>433.21</ele>
        <time>2019-07-09T08:57:51Z</time>
      </trkpt>
      <trkpt lat="48.46143" lon="6.94366">
        <ele>438.5</ele>
        <time>2019-07-09T08:58:05Z</time>
      </trkpt>
      <trkpt lat="48.46129" lon="6.94372">
        <ele>441.38</ele>
        <time>2019-07-09T08:58:18Z</time>
      </trkpt>
      <trkpt lat="48.46126" lon="6.94372">
        <ele>441.86</ele>
        <time>2019-07-09T08:58:21Z</time>
      </trkpt>
      <trkpt lat="48.46126" lon="6.94371">
        <ele>442.34</ele>
        <time>2019-07-09T08:58:34Z</time>
      </trkpt>
      <trkpt lat="48.46124" lon="6.94372">
        <ele>444.75</ele>
        <time>2019-07-09T08:58:54Z</time>
      </trkpt>
      <trkpt lat="48.46124" lon="6.94377">
        <ele>443.31</ele>
        <time>2019-07-09T08:58:59Z</time>
      </trkpt>
      <trkpt lat="48.46122" lon="6.9438">
        <ele>442.34</ele>
        <time>2019-07-09T08:59:00Z</time>
      </trkpt>
      <trkpt lat="48.46121" lon="6.94381">
        <ele>442.34</ele>
        <time>2019-07-09T08:59:01Z</time>
      </trkpt>
      <trkpt lat="48.46115" lon="6.94386">
        <ele>441.38</ele>
        <time>2019-07-09T08:59:05Z</time>
      </trkpt>
      <trkpt lat="48.46101" lon="6.94417">
        <ele>438.98</ele>
        <time>2019-07-09T08:59:17Z</time>
      </trkpt>
      <trkpt lat="48.46099" lon="6.94453">
        <ele>439.46</ele>
        <time>2019-07-09T08:59:29Z</time>
      </trkpt>
      <trkpt lat="48.46098" lon="6.94456">
        <ele>439.46</ele>
        <time>2019-07-09T08:59:30Z</time>
      </trkpt>
      <trkpt lat="48.46096" lon="6.94459">
        <ele>439.46</ele>
        <time>2019-07-09T08:59:31Z</time>
      </trkpt>
      <trkpt lat="48.46095" lon="6.94461">
        <ele>439.46</ele>
        <time>2019-07-09T08:59:32Z</time>
      </trkpt>
      <trkpt lat="48.46094" lon="6.94463">
        <ele>438.98</ele>
        <time>2019-07-09T08:59:33Z</time>
      </trkpt>
      <trkpt lat="48.46093" lon="6.94465">
        <ele>438.5</ele>
        <time>2019-07-09T08:59:34Z</time>
      </trkpt>
      <trkpt lat="48.46092" lon="6.94466">
        <ele>438.98</ele>
        <time>2019-07-09T08:59:35Z</time>
      </trkpt>
      <trkpt lat="48.46091" lon="6.94468">
        <ele>438.98</ele>
        <time>2019-07-09T08:59:36Z</time>
      </trkpt>
      <trkpt lat="48.4609" lon="6.94469">
        <ele>438.98</ele>
        <time>2019-07-09T08:59:37Z</time>
      </trkpt>
      <trkpt lat="48.46089" lon="6.9447">
        <ele>438.5</ele>
        <time>2019-07-09T08:59:38Z</time>
      </trkpt>
      <trkpt lat="48.46087" lon="6.9447">
        <ele>438.02</ele>
        <time>2019-07-09T08:59:39Z</time>
      </trkpt>
      <trkpt lat="48.46084" lon="6.94466">
        <ele>437.06</ele>
        <time>2019-07-09T08:59:48Z</time>
      </trkpt>
      <trkpt lat="48.46089" lon="6.9446">
        <ele>436.58</ele>
        <time>2019-07-09T08:59:57Z</time>
      </trkpt>
      <trkpt lat="48.4609" lon="6.94458">
        <ele>436.58</ele>
        <time>2019-07-09T08:59:58Z</time>
      </trkpt>
      <trkpt lat="48.4609" lon="6.94455">
        <ele>436.1</ele>
        <time>2019-07-09T08:59:59Z</time>
      </trkpt>
      <trkpt lat="48.46089" lon="6.94452">
        <ele>435.61</ele>
        <time>2019-07-09T09:00:00Z</time>
      </trkpt>
      <trkpt lat="48.46089" lon="6.94449">
        <ele>435.13</ele>
        <time>2019-07-09T09:00:01Z</time>
      </trkpt>
      <trkpt lat="48.46088" lon="6.94439">
        <ele>434.17</ele>
        <time>2019-07-09T09:00:05Z</time>
      </trkpt>
      <trkpt lat="48.46087" lon="6.94437">
        <ele>433.69</ele>
        <time>2019-07-09T09:00:06Z</time>
      </trkpt>
      <trkpt lat="48.46087" lon="6.94435">
        <ele>433.21</ele>
        <time>2019-07-09T09:00:07Z</time>
      </trkpt>
      <trkpt lat="48.46087" lon="6.94432">
        <ele>432.73</ele>
        <time>2019-07-09T09:00:08Z</time>
      </trkpt>
      <trkpt lat="48.46087" lon="6.94429">
        <ele>432.25</ele>
        <time>2019-07-09T09:00:09Z</time>
      </trkpt>
      <trkpt lat="48.46086" lon="6.94427">
        <ele>431.77</ele>
        <time>2019-07-09T09:00:10Z</time>
      </trkpt>
      <trkpt lat="48.46086" lon="6.94425">
        <ele>431.77</ele>
        <time>2019-07-09T09:00:11Z</time>
      </trkpt>
      <trkpt lat="48.46086" lon="6.94424">
        <ele>431.29</ele>
        <time>2019-07-09T09:00:12Z</time>
      </trkpt>
      <trkpt lat="48.46087" lon="6.94421">
        <ele>430.81</ele>
        <time>2019-07-09T09:00:13Z</time>
      </trkpt>
      <trkpt lat="48.46088" lon="6.94397">
        <ele>428.4</ele>
        <time>2019-07-09T09:00:25Z</time>
      </trkpt>
      <trkpt lat="48.46089" lon="6.94394">
        <ele>428.89</ele>
        <time>2019-07-09T09:00:26Z</time>
      </trkpt>
      <trkpt lat="48.46089" lon="6.94391">
        <ele>428.89</ele>
        <time>2019-07-09T09:00:27Z</time>
      </trkpt>
      <trkpt lat="48.46091" lon="6.94388">
        <ele>429.85</ele>
        <time>2019-07-09T09:00:28Z</time>
      </trkpt>
      <trkpt lat="48.46092" lon="6.94385">
        <ele>430.33</ele>
        <time>2019-07-09T09:00:29Z</time>
      </trkpt>
      <trkpt lat="48.46097" lon="6.94376">
        <ele>432.25</ele>
        <time>2019-07-09T09:00:38Z</time>
      </trkpt>
      <trkpt lat="48.46098" lon="6.94375">
        <ele>432.25</ele>
        <time>2019-07-09T09:00:39Z</time>
      </trkpt>
      <trkpt lat="48.461" lon="6.94373">
        <ele>432.73</ele>
        <time>2019-07-09T09:00:40Z</time>
      </trkpt>
      <trkpt lat="48.46103" lon="6.94372">
        <ele>433.21</ele>
        <time>2019-07-09T09:00:41Z</time>
      </trkpt>
      <trkpt lat="48.46105" lon="6.94369">
        <ele>433.69</ele>
        <time>2019-07-09T09:00:42Z</time>
      </trkpt>
      <trkpt lat="48.46107" lon="6.94367">
        <ele>434.17</ele>
        <time>2019-07-09T09:00:43Z</time>
      </trkpt>
      <trkpt lat="48.4611" lon="6.94364">
        <ele>435.61</ele>
        <time>2019-07-09T09:00:45Z</time>
      </trkpt>
      <trkpt lat="48.46111" lon="6.94362">
        <ele>436.1</ele>
        <time>2019-07-09T09:00:46Z</time>
      </trkpt>
      <trkpt lat="48.46126" lon="6.94348">
        <ele>439.46</ele>
        <time>2019-07-09T09:00:56Z</time>
      </trkpt>
      <trkpt lat="48.46127" lon="6.94347">
        <ele>439.46</ele>
        <time>2019-07-09T09:00:57Z</time>
      </trkpt>
      <trkpt lat="48.46146" lon="6.94337">
        <ele>438.5</ele>
        <time>2019-07-09T09:01:08Z</time>
      </trkpt>
      <trkpt lat="48.46147" lon="6.94336">
        <ele>438.5</ele>
        <time>2019-07-09T09:01:09Z</time>
      </trkpt>
      <trkpt lat="48.46167" lon="6.94324">
        <ele>440.9</ele>
        <time>2019-07-09T09:01:22Z</time>
      </trkpt>
      <trkpt lat="48.46175" lon="6.9432">
        <ele>440.9</ele>
        <time>2019-07-09T09:01:26Z</time>
      </trkpt>
      <trkpt lat="48.46177" lon="6.94318">
        <ele>440.9</ele>
        <time>2019-07-09T09:01:27Z</time>
      </trkpt>
      <trkpt lat="48.46179" lon="6.94317">
        <ele>440.9</ele>
        <time>2019-07-09T09:01:28Z</time>
      </trkpt>
      <trkpt lat="48.46192" lon="6.94301">
        <ele>438.98</ele>
        <time>2019-07-09T09:01:39Z</time>
      </trkpt>
      <trkpt lat="48.46193" lon="6.94299">
        <ele>438.98</ele>
        <time>2019-07-09T09:01:40Z</time>
      </trkpt>
      <trkpt lat="48.46193" lon="6.94297">
        <ele>438.98</ele>
        <time>2019-07-09T09:01:41Z</time>
      </trkpt>
      <trkpt lat="48.46198" lon="6.94278">
        <ele>442.34</ele>
        <time>2019-07-09T09:01:54Z</time>
      </trkpt>
      <trkpt lat="48.46198" lon="6.94269">
        <ele>442.82</ele>
        <time>2019-07-09T09:02:01Z</time>
      </trkpt>
      <trkpt lat="48.46197" lon="6.94265">
        <ele>442.82</ele>
        <time>2019-07-09T09:02:03Z</time>
      </trkpt>
      <trkpt lat="48.46196" lon="6.94243">
        <ele>442.82</ele>
        <time>2019-07-09T09:02:17Z</time>
      </trkpt>
      <trkpt lat="48.46192" lon="6.94226">
        <ele>445.71</ele>
        <time>2019-07-09T09:02:30Z</time>
      </trkpt>
      <trkpt lat="48.46187" lon="6.94214">
        <ele>449.55</ele>
        <time>2019-07-09T09:02:42Z</time>
      </trkpt>
      <trkpt lat="48.46179" lon="6.94193">
        <ele>452.44</ele>
        <time>2019-07-09T09:02:58Z</time>
      </trkpt>
      <trkpt lat="48.46173" lon="6.94178">
        <ele>454.84</ele>
        <time>2019-07-09T09:03:11Z</time>
      </trkpt>
      <trkpt lat="48.46167" lon="6.94162">
        <ele>457.24</ele>
        <time>2019-07-09T09:03:25Z</time>
      </trkpt>
      <trkpt lat="48.46162" lon="6.94151">
        <ele>462.53</ele>
        <time>2019-07-09T09:03:38Z</time>
      </trkpt>
      <trkpt lat="48.46154" lon="6.94132">
        <ele>464.93</ele>
        <time>2019-07-09T09:03:53Z</time>
      </trkpt>
      <trkpt lat="48.46148" lon="6.94125">
        <ele>467.82</ele>
        <time>2019-07-09T09:04:07Z</time>
      </trkpt>
      <trkpt lat="48.4614" lon="6.94111">
        <ele>469.26</ele>
        <time>2019-07-09T09:04:22Z</time>
      </trkpt>
      <trkpt lat="48.46136" lon="6.94104">
        <ele>470.22</ele>
        <time>2019-07-09T09:04:33Z</time>
      </trkpt>
      <trkpt lat="48.46128" lon="6.94088">
        <ele>473.11</ele>
        <time>2019-07-09T09:04:49Z</time>
      </trkpt>
      <trkpt lat="48.4612" lon="6.94071">
        <ele>476.47</ele>
        <time>2019-07-09T09:05:05Z</time>
      </trkpt>
      <trkpt lat="48.46118" lon="6.94053">
        <ele>478.39</ele>
        <time>2019-07-09T09:05:18Z</time>
      </trkpt>
      <trkpt lat="48.46115" lon="6.94033">
        <ele>480.32</ele>
        <time>2019-07-09T09:05:34Z</time>
      </trkpt>
      <trkpt lat="48.46122" lon="6.94015">
        <ele>483.68</ele>
        <time>2019-07-09T09:05:49Z</time>
      </trkpt>
      <trkpt lat="48.46127" lon="6.94009">
        <ele>487.05</ele>
        <time>2019-07-09T09:05:57Z</time>
      </trkpt>
      <trkpt lat="48.46134" lon="6.93997">
        <ele>491.37</ele>
        <time>2019-07-09T09:06:12Z</time>
      </trkpt>
      <trkpt lat="48.46144" lon="6.93981">
        <ele>494.26</ele>
        <time>2019-07-09T09:06:26Z</time>
      </trkpt>
      <trkpt lat="48.46157" lon="6.93968">
        <ele>496.18</ele>
        <time>2019-07-09T09:06:43Z</time>
      </trkpt>
      <trkpt lat="48.46171" lon="6.93956">
        <ele>497.14</ele>
        <time>2019-07-09T09:06:58Z</time>
      </trkpt>
      <trkpt lat="48.46175" lon="6.93951">
        <ele>498.1</ele>
        <time>2019-07-09T09:07:03Z</time>
      </trkpt>
      <trkpt lat="48.46176" lon="6.9395">
        <ele>498.1</ele>
        <time>2019-07-09T09:07:04Z</time>
      </trkpt>
      <trkpt lat="48.46177" lon="6.93949">
        <ele>498.1</ele>
        <time>2019-07-09T09:07:05Z</time>
      </trkpt>
      <trkpt lat="48.4618" lon="6.93942">
        <ele>497.62</ele>
        <time>2019-07-09T09:07:09Z</time>
      </trkpt>
      <trkpt lat="48.46181" lon="6.93941">
        <ele>498.1</ele>
        <time>2019-07-09T09:07:10Z</time>
      </trkpt>
      <trkpt lat="48.46194" lon="6.9392">
        <ele>499.06</ele>
        <time>2019-07-09T09:07:25Z</time>
      </trkpt>
      <trkpt lat="48.46207" lon="6.93905">
        <ele>500.5</ele>
        <time>2019-07-09T09:07:40Z</time>
      </trkpt>
      <trkpt lat="48.46216" lon="6.93886">
        <ele>503.87</ele>
        <time>2019-07-09T09:07:55Z</time>
      </trkpt>
      <trkpt lat="48.46215" lon="6.93877">
        <ele>504.35</ele>
        <time>2019-07-09T09:08:01Z</time>
      </trkpt>
      <trkpt lat="48.46212" lon="6.93858">
        <ele>502.91</ele>
        <time>2019-07-09T09:08:13Z</time>
      </trkpt>
      <trkpt lat="48.46211" lon="6.93819">
        <ele>501.95</ele>
        <time>2019-07-09T09:08:26Z</time>
      </trkpt>
      <trkpt lat="48.46211" lon="6.93818">
        <ele>501.95</ele>
        <time>2019-07-09T09:08:27Z</time>
      </trkpt>
      <trkpt lat="48.46212" lon="6.93816">
        <ele>501.95</ele>
        <time>2019-07-09T09:08:28Z</time>
      </trkpt>
      <trkpt lat="48.46213" lon="6.93815">
        <ele>501.95</ele>
        <time>2019-07-09T09:08:29Z</time>
      </trkpt>
      <trkpt lat="48.46215" lon="6.93814">
        <ele>501.95</ele>
        <time>2019-07-09T09:08:30Z</time>
      </trkpt>
      <trkpt lat="48.46216" lon="6.93813">
        <ele>502.43</ele>
        <time>2019-07-09T09:08:31Z</time>
      </trkpt>
      <trkpt lat="48.46216" lon="6.93812">
        <ele>502.91</ele>
        <time>2019-07-09T09:08:43Z</time>
      </trkpt>
      <trkpt lat="48.46215" lon="6.93807">
        <ele>500.5</ele>
        <time>2019-07-09T09:09:06Z</time>
      </trkpt>
      <trkpt lat="48.46237" lon="6.93795">
        <ele>499.06</ele>
        <time>2019-07-09T09:09:16Z</time>
      </trkpt>
      <trkpt lat="48.46247" lon="6.93781">
        <ele>497.62</ele>
        <time>2019-07-09T09:09:29Z</time>
      </trkpt>
      <trkpt lat="48.46249" lon="6.93768">
        <ele>498.1</ele>
        <time>2019-07-09T09:09:46Z</time>
      </trkpt>
      <trkpt lat="48.46248" lon="6.93767">
        <ele>498.1</ele>
        <time>2019-07-09T09:09:47Z</time>
      </trkpt>
      <trkpt lat="48.46241" lon="6.93758">
        <ele>497.14</ele>
        <time>2019-07-09T09:09:55Z</time>
      </trkpt>
      <trkpt lat="48.4624" lon="6.93755">
        <ele>496.66</ele>
        <time>2019-07-09T09:09:56Z</time>
      </trkpt>
      <trkpt lat="48.46237" lon="6.93712">
        <ele>493.29</ele>
        <time>2019-07-09T09:10:08Z</time>
      </trkpt>
      <trkpt lat="48.46234" lon="6.93644">
        <ele>489.45</ele>
        <time>2019-07-09T09:10:20Z</time>
      </trkpt>
      <trkpt lat="48.46234" lon="6.93638">
        <ele>489.45</ele>
        <time>2019-07-09T09:10:21Z</time>
      </trkpt>
      <trkpt lat="48.46233" lon="6.93624">
        <ele>489.45</ele>
        <time>2019-07-09T09:10:23Z</time>
      </trkpt>
      <trkpt lat="48.46234" lon="6.93605">
        <ele>488.97</ele>
        <time>2019-07-09T09:10:26Z</time>
      </trkpt>
      <trkpt lat="48.46232" lon="6.93584">
        <ele>488.01</ele>
        <time>2019-07-09T09:10:29Z</time>
      </trkpt>
      <trkpt lat="48.4623" lon="6.93577">
        <ele>488.01</ele>
        <time>2019-07-09T09:10:30Z</time>
      </trkpt>
      <trkpt lat="48.46228" lon="6.9357">
        <ele>488.01</ele>
        <time>2019-07-09T09:10:31Z</time>
      </trkpt>
      <trkpt lat="48.46224" lon="6.93555">
        <ele>488.49</ele>
        <time>2019-07-09T09:10:33Z</time>
      </trkpt>
      <trkpt lat="48.46214" lon="6.93511">
        <ele>487.05</ele>
        <time>2019-07-09T09:10:40Z</time>
      </trkpt>
      <trkpt lat="48.46206" lon="6.93483">
        <ele>485.6</ele>
        <time>2019-07-09T09:10:44Z</time>
      </trkpt>
      <trkpt lat="48.46194" lon="6.93452">
        <ele>484.64</ele>
        <time>2019-07-09T09:10:48Z</time>
      </trkpt>
      <trkpt lat="48.46191" lon="6.93446">
        <ele>484.64</ele>
        <time>2019-07-09T09:10:49Z</time>
      </trkpt>
      <trkpt lat="48.46188" lon="6.93441">
        <ele>484.16</ele>
        <time>2019-07-09T09:10:50Z</time>
      </trkpt>
      <trkpt lat="48.46166" lon="6.93381">
        <ele>482.72</ele>
        <time>2019-07-09T09:10:59Z</time>
      </trkpt>
      <trkpt lat="48.46161" lon="6.93361">
        <ele>481.28</ele>
        <time>2019-07-09T09:11:02Z</time>
      </trkpt>
      <trkpt lat="48.46159" lon="6.93356">
        <ele>480.8</ele>
        <time>2019-07-09T09:11:03Z</time>
      </trkpt>
      <trkpt lat="48.46157" lon="6.9335">
        <ele>480.32</ele>
        <time>2019-07-09T09:11:04Z</time>
      </trkpt>
      <trkpt lat="48.46155" lon="6.93344">
        <ele>480.32</ele>
        <time>2019-07-09T09:11:05Z</time>
      </trkpt>
      <trkpt lat="48.46154" lon="6.93338">
        <ele>479.84</ele>
        <time>2019-07-09T09:11:06Z</time>
      </trkpt>
      <trkpt lat="48.46151" lon="6.93331">
        <ele>479.84</ele>
        <time>2019-07-09T09:11:07Z</time>
      </trkpt>
      <trkpt lat="48.4615" lon="6.93325">
        <ele>479.35</ele>
        <time>2019-07-09T09:11:08Z</time>
      </trkpt>
      <trkpt lat="48.46148" lon="6.93319">
        <ele>478.87</ele>
        <time>2019-07-09T09:11:09Z</time>
      </trkpt>
      <trkpt lat="48.46139" lon="6.93291">
        <ele>477.43</ele>
        <time>2019-07-09T09:11:13Z</time>
      </trkpt>
      <trkpt lat="48.46133" lon="6.93278">
        <ele>476.47</ele>
        <time>2019-07-09T09:11:15Z</time>
      </trkpt>
      <trkpt lat="48.46121" lon="6.93253">
        <ele>474.55</ele>
        <time>2019-07-09T09:11:19Z</time>
      </trkpt>
      <trkpt lat="48.46098" lon="6.93202">
        <ele>471.66</ele>
        <time>2019-07-09T09:11:26Z</time>
      </trkpt>
      <trkpt lat="48.46094" lon="6.93195">
        <ele>471.66</ele>
        <time>2019-07-09T09:11:27Z</time>
      </trkpt>
      <trkpt lat="48.4609" lon="6.93188">
        <ele>471.18</ele>
        <time>2019-07-09T09:11:28Z</time>
      </trkpt>
      <trkpt lat="48.46085" lon="6.93173">
        <ele>470.7</ele>
        <time>2019-07-09T09:11:30Z</time>
      </trkpt>
      <trkpt lat="48.46077" lon="6.93159">
        <ele>470.22</ele>
        <time>2019-07-09T09:11:32Z</time>
      </trkpt>
      <trkpt lat="48.46069" lon="6.93137">
        <ele>469.26</ele>
        <time>2019-07-09T09:11:35Z</time>
      </trkpt>
      <trkpt lat="48.46068" lon="6.93132">
        <ele>468.78</ele>
        <time>2019-07-09T09:11:36Z</time>
      </trkpt>
      <trkpt lat="48.46066" lon="6.93129">
        <ele>468.3</ele>
        <time>2019-07-09T09:11:37Z</time>
      </trkpt>
      <trkpt lat="48.46063" lon="6.93125">
        <ele>467.82</ele>
        <time>2019-07-09T09:11:38Z</time>
      </trkpt>
      <trkpt lat="48.4606" lon="6.93122">
        <ele>467.82</ele>
        <time>2019-07-09T09:11:39Z</time>
      </trkpt>
      <trkpt lat="48.46057" lon="6.9312">
        <ele>468.3</ele>
        <time>2019-07-09T09:11:40Z</time>
      </trkpt>
      <trkpt lat="48.46053" lon="6.93117">
        <ele>468.3</ele>
        <time>2019-07-09T09:11:41Z</time>
      </trkpt>
      <trkpt lat="48.46027" lon="6.93102">
        <ele>469.74</ele>
        <time>2019-07-09T09:11:47Z</time>
      </trkpt>
      <trkpt lat="48.45975" lon="6.93061">
        <ele>464.45</ele>
        <time>2019-07-09T09:11:59Z</time>
      </trkpt>
      <trkpt lat="48.45971" lon="6.93058">
        <ele>464.45</ele>
        <time>2019-07-09T09:12:00Z</time>
      </trkpt>
      <trkpt lat="48.45936" lon="6.93012">
        <ele>462.53</ele>
        <time>2019-07-09T09:12:11Z</time>
      </trkpt>
      <trkpt lat="48.45936" lon="6.93005">
        <ele>462.05</ele>
        <time>2019-07-09T09:12:12Z</time>
      </trkpt>
      <trkpt lat="48.45935" lon="6.93">
        <ele>461.57</ele>
        <time>2019-07-09T09:12:13Z</time>
      </trkpt>
      <trkpt lat="48.45934" lon="6.92993">
        <ele>461.09</ele>
        <time>2019-07-09T09:12:14Z</time>
      </trkpt>
      <trkpt lat="48.45933" lon="6.92987">
        <ele>460.61</ele>
        <time>2019-07-09T09:12:15Z</time>
      </trkpt>
      <trkpt lat="48.45932" lon="6.92979">
        <ele>457.24</ele>
        <time>2019-07-09T09:12:22Z</time>
      </trkpt>
      <trkpt lat="48.45932" lon="6.92947">
        <ele>451</ele>
        <time>2019-07-09T09:12:32Z</time>
      </trkpt>
      <trkpt lat="48.45931" lon="6.92941">
        <ele>450.52</ele>
        <time>2019-07-09T09:12:33Z</time>
      </trkpt>
      <trkpt lat="48.45915" lon="6.9287">
        <ele>444.75</ele>
        <time>2019-07-09T09:12:42Z</time>
      </trkpt>
      <trkpt lat="48.45913" lon="6.92849">
        <ele>442.82</ele>
        <time>2019-07-09T09:12:44Z</time>
      </trkpt>
      <trkpt lat="48.45908" lon="6.92827">
        <ele>440.9</ele>
        <time>2019-07-09T09:12:46Z</time>
      </trkpt>
      <trkpt lat="48.45902" lon="6.92794">
        <ele>438.5</ele>
        <time>2019-07-09T09:12:49Z</time>
      </trkpt>
      <trkpt lat="48.4588" lon="6.92732">
        <ele>432.73</ele>
        <time>2019-07-09T09:12:57Z</time>
      </trkpt>
      <trkpt lat="48.45884" lon="6.92696">
        <ele>428.4</ele>
        <time>2019-07-09T09:13:01Z</time>
      </trkpt>
      <trkpt lat="48.45896" lon="6.9266">
        <ele>423.6</ele>
        <time>2019-07-09T09:13:07Z</time>
      </trkpt>
      <trkpt lat="48.45883" lon="6.9258">
        <ele>419.75</ele>
        <time>2019-07-09T09:13:19Z</time>
      </trkpt>
      <trkpt lat="48.45868" lon="6.92536">
        <ele>415.91</ele>
        <time>2019-07-09T09:13:26Z</time>
      </trkpt>
      <trkpt lat="48.45865" lon="6.92528">
        <ele>415.43</ele>
        <time>2019-07-09T09:13:27Z</time>
      </trkpt>
      <trkpt lat="48.45864" lon="6.9252">
        <ele>414.95</ele>
        <time>2019-07-09T09:13:28Z</time>
      </trkpt>
      <trkpt lat="48.45862" lon="6.92513">
        <ele>414.47</ele>
        <time>2019-07-09T09:13:29Z</time>
      </trkpt>
      <trkpt lat="48.4586" lon="6.92506">
        <ele>413.5</ele>
        <time>2019-07-09T09:13:30Z</time>
      </trkpt>
      <trkpt lat="48.45858" lon="6.92499">
        <ele>413.02</ele>
        <time>2019-07-09T09:13:31Z</time>
      </trkpt>
      <trkpt lat="48.45855" lon="6.92493">
        <ele>412.54</ele>
        <time>2019-07-09T09:13:32Z</time>
      </trkpt>
      <trkpt lat="48.45852" lon="6.92488">
        <ele>411.58</ele>
        <time>2019-07-09T09:13:33Z</time>
      </trkpt>
      <trkpt lat="48.45848" lon="6.92483">
        <ele>411.1</ele>
        <time>2019-07-09T09:13:34Z</time>
      </trkpt>
      <trkpt lat="48.45843" lon="6.92478">
        <ele>410.62</ele>
        <time>2019-07-09T09:13:35Z</time>
      </trkpt>
      <trkpt lat="48.45839" lon="6.92474">
        <ele>410.14</ele>
        <time>2019-07-09T09:13:36Z</time>
      </trkpt>
      <trkpt lat="48.45828" lon="6.92468">
        <ele>409.66</ele>
        <time>2019-07-09T09:13:38Z</time>
      </trkpt>
      <trkpt lat="48.45814" lon="6.92462">
        <ele>408.7</ele>
        <time>2019-07-09T09:13:41Z</time>
      </trkpt>
      <trkpt lat="48.45791" lon="6.92459">
        <ele>407.74</ele>
        <time>2019-07-09T09:13:46Z</time>
      </trkpt>
      <trkpt lat="48.45781" lon="6.92461">
        <ele>407.74</ele>
        <time>2019-07-09T09:13:48Z</time>
      </trkpt>
      <trkpt lat="48.4577" lon="6.92465">
        <ele>407.26</ele>
        <time>2019-07-09T09:13:50Z</time>
      </trkpt>
      <trkpt lat="48.45764" lon="6.92468">
        <ele>407.26</ele>
        <time>2019-07-09T09:13:51Z</time>
      </trkpt>
      <trkpt lat="48.45759" lon="6.92471">
        <ele>407.26</ele>
        <time>2019-07-09T09:13:52Z</time>
      </trkpt>
      <trkpt lat="48.45677" lon="6.92503">
        <ele>400.53</ele>
        <time>2019-07-09T09:14:05Z</time>
      </trkpt>
      <trkpt lat="48.45628" lon="6.92511">
        <ele>398.12</ele>
        <time>2019-07-09T09:14:15Z</time>
      </trkpt>
      <trkpt lat="48.45626" lon="6.92512">
        <ele>398.12</ele>
        <time>2019-07-09T09:14:16Z</time>
      </trkpt>
      <trkpt lat="48.45624" lon="6.92513">
        <ele>398.12</ele>
        <time>2019-07-09T09:14:17Z</time>
      </trkpt>
      <trkpt lat="48.45622" lon="6.92513">
        <ele>398.12</ele>
        <time>2019-07-09T09:14:18Z</time>
      </trkpt>
      <trkpt lat="48.4562" lon="6.92512">
        <ele>398.6</ele>
        <time>2019-07-09T09:14:19Z</time>
      </trkpt>
      <trkpt lat="48.45617" lon="6.9251">
        <ele>399.08</ele>
        <time>2019-07-09T09:14:20Z</time>
      </trkpt>
      <trkpt lat="48.45613" lon="6.92508">
        <ele>399.08</ele>
        <time>2019-07-09T09:14:21Z</time>
      </trkpt>
      <trkpt lat="48.45601" lon="6.92502">
        <ele>400.05</ele>
        <time>2019-07-09T09:14:24Z</time>
      </trkpt>
      <trkpt lat="48.45598" lon="6.92499">
        <ele>400.53</ele>
        <time>2019-07-09T09:14:25Z</time>
      </trkpt>
      <trkpt lat="48.45568" lon="6.92472">
        <ele>405.81</ele>
        <time>2019-07-09T09:14:36Z</time>
      </trkpt>
      <trkpt lat="48.45557" lon="6.92427">
        <ele>408.22</ele>
        <time>2019-07-09T09:14:48Z</time>
      </trkpt>
      <trkpt lat="48.45551" lon="6.92365">
        <ele>409.66</ele>
        <time>2019-07-09T09:14:59Z</time>
      </trkpt>
      <trkpt lat="48.45545" lon="6.92274">
        <ele>406.77</ele>
        <time>2019-07-09T09:15:10Z</time>
      </trkpt>
      <trkpt lat="48.45546" lon="6.92263">
        <ele>406.77</ele>
        <time>2019-07-09T09:15:11Z</time>
      </trkpt>
      <trkpt lat="48.45546" lon="6.92246">
        <ele>406.29</ele>
        <time>2019-07-09T09:15:13Z</time>
      </trkpt>
      <trkpt lat="48.45547" lon="6.92203">
        <ele>403.89</ele>
        <time>2019-07-09T09:15:20Z</time>
      </trkpt>
      <trkpt lat="48.45549" lon="6.92187">
        <ele>402.93</ele>
        <time>2019-07-09T09:15:22Z</time>
      </trkpt>
      <trkpt lat="48.45553" lon="6.92173">
        <ele>402.93</ele>
        <time>2019-07-09T09:15:24Z</time>
      </trkpt>
      <trkpt lat="48.45555" lon="6.92169">
        <ele>403.41</ele>
        <time>2019-07-09T09:15:25Z</time>
      </trkpt>
      <trkpt lat="48.45557" lon="6.92166">
        <ele>403.41</ele>
        <time>2019-07-09T09:15:26Z</time>
      </trkpt>
      <trkpt lat="48.45558" lon="6.92163">
        <ele>403.89</ele>
        <time>2019-07-09T09:15:27Z</time>
      </trkpt>
      <trkpt lat="48.45558" lon="6.9216">
        <ele>403.89</ele>
        <time>2019-07-09T09:15:28Z</time>
      </trkpt>
      <trkpt lat="48.45557" lon="6.92134">
        <ele>403.41</ele>
        <time>2019-07-09T09:15:37Z</time>
      </trkpt>
      <trkpt lat="48.45555" lon="6.92132">
        <ele>403.41</ele>
        <time>2019-07-09T09:15:38Z</time>
      </trkpt>
      <trkpt lat="48.45554" lon="6.9213">
        <ele>402.93</ele>
        <time>2019-07-09T09:15:39Z</time>
      </trkpt>
      <trkpt lat="48.45551" lon="6.92128">
        <ele>402.45</ele>
        <time>2019-07-09T09:15:40Z</time>
      </trkpt>
      <trkpt lat="48.45549" lon="6.92124">
        <ele>402.45</ele>
        <time>2019-07-09T09:15:41Z</time>
      </trkpt>
      <trkpt lat="48.45547" lon="6.9212">
        <ele>401.97</ele>
        <time>2019-07-09T09:15:42Z</time>
      </trkpt>
      <trkpt lat="48.45518" lon="6.92076">
        <ele>399.57</ele>
        <time>2019-07-09T09:15:54Z</time>
      </trkpt>
      <trkpt lat="48.4551" lon="6.92067">
        <ele>399.57</ele>
        <time>2019-07-09T09:15:59Z</time>
      </trkpt>
      <trkpt lat="48.45508" lon="6.92068">
        <ele>399.57</ele>
        <time>2019-07-09T09:16:00Z</time>
      </trkpt>
      <trkpt lat="48.45507" lon="6.92069">
        <ele>400.05</ele>
        <time>2019-07-09T09:16:01Z</time>
      </trkpt>
      <trkpt lat="48.45505" lon="6.9207">
        <ele>400.05</ele>
        <time>2019-07-09T09:16:02Z</time>
      </trkpt>
      <trkpt lat="48.45503" lon="6.9207">
        <ele>400.05</ele>
        <time>2019-07-09T09:16:03Z</time>
      </trkpt>
      <trkpt lat="48.455" lon="6.9207">
        <ele>400.05</ele>
        <time>2019-07-09T09:16:04Z</time>
      </trkpt>
      <trkpt lat="48.45497" lon="6.92072">
        <ele>399.57</ele>
        <time>2019-07-09T09:16:05Z</time>
      </trkpt>
      <trkpt lat="48.45493" lon="6.92074">
        <ele>398.6</ele>
        <time>2019-07-09T09:16:06Z</time>
      </trkpt>
      <trkpt lat="48.45489" lon="6.92075">
        <ele>398.12</ele>
        <time>2019-07-09T09:16:07Z</time>
      </trkpt>
      <trkpt lat="48.45474" lon="6.92077">
        <ele>396.68</ele>
        <time>2019-07-09T09:16:10Z</time>
      </trkpt>
      <trkpt lat="48.45464" lon="6.92081">
        <ele>396.2</ele>
        <time>2019-07-09T09:16:12Z</time>
      </trkpt>
      <trkpt lat="48.45459" lon="6.92083">
        <ele>395.72</ele>
        <time>2019-07-09T09:16:13Z</time>
      </trkpt>
      <trkpt lat="48.45448" lon="6.92088">
        <ele>394.76</ele>
        <time>2019-07-09T09:16:15Z</time>
      </trkpt>
      <trkpt lat="48.45443" lon="6.92089">
        <ele>394.76</ele>
        <time>2019-07-09T09:16:16Z</time>
      </trkpt>
      <trkpt lat="48.45439" lon="6.92089">
        <ele>394.28</ele>
        <time>2019-07-09T09:16:17Z</time>
      </trkpt>
      <trkpt lat="48.45435" lon="6.92087">
        <ele>394.28</ele>
        <time>2019-07-09T09:16:19Z</time>
      </trkpt>
      <trkpt lat="48.45433" lon="6.92087">
        <ele>394.28</ele>
        <time>2019-07-09T09:16:20Z</time>
      </trkpt>
      <trkpt lat="48.45431" lon="6.92086">
        <ele>393.8</ele>
        <time>2019-07-09T09:16:21Z</time>
      </trkpt>
      <trkpt lat="48.4543" lon="6.92084">
        <ele>393.8</ele>
        <time>2019-07-09T09:16:22Z</time>
      </trkpt>
      <trkpt lat="48.45429" lon="6.92082">
        <ele>393.8</ele>
        <time>2019-07-09T09:16:23Z</time>
      </trkpt>
      <trkpt lat="48.45428" lon="6.92079">
        <ele>393.8</ele>
        <time>2019-07-09T09:16:24Z</time>
      </trkpt>
      <trkpt lat="48.45428" lon="6.92077">
        <ele>393.8</ele>
        <time>2019-07-09T09:16:25Z</time>
      </trkpt>
      <trkpt lat="48.45427" lon="6.92075">
        <ele>393.8</ele>
        <time>2019-07-09T09:16:26Z</time>
      </trkpt>
      <trkpt lat="48.45426" lon="6.92073">
        <ele>393.8</ele>
        <time>2019-07-09T09:16:27Z</time>
      </trkpt>
      <trkpt lat="48.45425" lon="6.92071">
        <ele>393.8</ele>
        <time>2019-07-09T09:16:28Z</time>
      </trkpt>
      <trkpt lat="48.45424" lon="6.92068">
        <ele>393.32</ele>
        <time>2019-07-09T09:16:29Z</time>
      </trkpt>
      <trkpt lat="48.45424" lon="6.92065">
        <ele>393.32</ele>
        <time>2019-07-09T09:16:30Z</time>
      </trkpt>
      <trkpt lat="48.45423" lon="6.92062">
        <ele>393.32</ele>
        <time>2019-07-09T09:16:31Z</time>
      </trkpt>
      <trkpt lat="48.4542" lon="6.92052">
        <ele>391.39</ele>
        <time>2019-07-09T09:16:40Z</time>
      </trkpt>
      <trkpt lat="48.45418" lon="6.92051">
        <ele>386.59</ele>
        <time>2019-07-09T09:17:04Z</time>
      </trkpt>
      <trkpt lat="48.45416" lon="6.92052">
        <ele>388.51</ele>
        <time>2019-07-09T09:17:26Z</time>
      </trkpt>
      <trkpt lat="48.45415" lon="6.92051">
        <ele>388.51</ele>
        <time>2019-07-09T09:17:29Z</time>
      </trkpt>
      <trkpt lat="48.45414" lon="6.9205">
        <ele>388.99</ele>
        <time>2019-07-09T09:17:30Z</time>
      </trkpt>
      <trkpt lat="48.45413" lon="6.92048">
        <ele>388.99</ele>
        <time>2019-07-09T09:17:31Z</time>
      </trkpt>
      <trkpt lat="48.45412" lon="6.92046">
        <ele>389.47</ele>
        <time>2019-07-09T09:17:32Z</time>
      </trkpt>
      <trkpt lat="48.45411" lon="6.92043">
        <ele>389.47</ele>
        <time>2019-07-09T09:17:33Z</time>
      </trkpt>
      <trkpt lat="48.45393" lon="6.91993">
        <ele>391.87</ele>
        <time>2019-07-09T09:17:48Z</time>
      </trkpt>
      <trkpt lat="48.45375" lon="6.9195">
        <ele>392.84</ele>
        <time>2019-07-09T09:18:00Z</time>
      </trkpt>
      <trkpt lat="48.45362" lon="6.91928">
        <ele>391.39</ele>
        <time>2019-07-09T09:18:13Z</time>
      </trkpt>
      <trkpt lat="48.45361" lon="6.91927">
        <ele>389.95</ele>
        <time>2019-07-09T09:18:31Z</time>
      </trkpt>
      <trkpt lat="48.4536" lon="6.91926">
        <ele>390.43</ele>
        <time>2019-07-09T09:18:35Z</time>
      </trkpt>
      <trkpt lat="48.45347" lon="6.91887">
        <ele>391.87</ele>
        <time>2019-07-09T09:18:47Z</time>
      </trkpt>
      <trkpt lat="48.45327" lon="6.91836">
        <ele>393.32</ele>
        <time>2019-07-09T09:19:00Z</time>
      </trkpt>
      <trkpt lat="48.453" lon="6.9177">
        <ele>394.28</ele>
        <time>2019-07-09T09:19:17Z</time>
      </trkpt>
      <trkpt lat="48.45281" lon="6.91716">
        <ele>394.76</ele>
        <time>2019-07-09T09:19:30Z</time>
      </trkpt>
      <trkpt lat="48.45295" lon="6.9169">
        <ele>395.72</ele>
        <time>2019-07-09T09:19:40Z</time>
      </trkpt>
      <trkpt lat="48.45305" lon="6.91683">
        <ele>397.16</ele>
        <time>2019-07-09T09:19:47Z</time>
      </trkpt>
      <trkpt lat="48.45306" lon="6.91681">
        <ele>397.64</ele>
        <time>2019-07-09T09:19:48Z</time>
      </trkpt>
      <trkpt lat="48.45307" lon="6.9168">
        <ele>397.64</ele>
        <time>2019-07-09T09:19:49Z</time>
      </trkpt>
      <trkpt lat="48.45309" lon="6.91679">
        <ele>398.12</ele>
        <time>2019-07-09T09:19:50Z</time>
      </trkpt>
      <trkpt lat="48.4531" lon="6.91678">
        <ele>398.6</ele>
        <time>2019-07-09T09:19:51Z</time>
      </trkpt>
      <trkpt lat="48.45311" lon="6.91677">
        <ele>399.08</ele>
        <time>2019-07-09T09:19:52Z</time>
      </trkpt>
      <trkpt lat="48.45313" lon="6.91675">
        <ele>399.57</ele>
        <time>2019-07-09T09:19:53Z</time>
      </trkpt>
      <trkpt lat="48.45314" lon="6.91674">
        <ele>399.57</ele>
        <time>2019-07-09T09:19:54Z</time>
      </trkpt>
      <trkpt lat="48.4533" lon="6.91658">
        <ele>403.89</ele>
        <time>2019-07-09T09:20:08Z</time>
      </trkpt>
      <trkpt lat="48.45344" lon="6.91648">
        <ele>407.74</ele>
        <time>2019-07-09T09:20:20Z</time>
      </trkpt>
      <trkpt lat="48.45345" lon="6.91647">
        <ele>407.26</ele>
        <time>2019-07-09T09:20:21Z</time>
      </trkpt>
      <trkpt lat="48.45345" lon="6.91645">
        <ele>407.26</ele>
        <time>2019-07-09T09:20:22Z</time>
      </trkpt>
      <trkpt lat="48.45344" lon="6.91637">
        <ele>407.74</ele>
        <time>2019-07-09T09:20:30Z</time>
      </trkpt>
      <trkpt lat="48.45342" lon="6.91637">
        <ele>407.74</ele>
        <time>2019-07-09T09:20:31Z</time>
      </trkpt>
      <trkpt lat="48.45337" lon="6.91635">
        <ele>408.22</ele>
        <time>2019-07-09T09:20:36Z</time>
      </trkpt>
      <trkpt lat="48.45336" lon="6.91634">
        <ele>408.22</ele>
        <time>2019-07-09T09:20:37Z</time>
      </trkpt>
      <trkpt lat="48.45333" lon="6.91637">
        <ele>409.18</ele>
        <time>2019-07-09T09:20:53Z</time>
      </trkpt>
      <trkpt lat="48.45336" lon="6.91635">
        <ele>409.66</ele>
        <time>2019-07-09T09:20:58Z</time>
      </trkpt>
      <trkpt lat="48.45337" lon="6.91635">
        <ele>410.14</ele>
        <time>2019-07-09T09:20:59Z</time>
      </trkpt>
      <trkpt lat="48.45339" lon="6.91634">
        <ele>410.62</ele>
        <time>2019-07-09T09:21:00Z</time>
      </trkpt>
      <trkpt lat="48.4534" lon="6.91634">
        <ele>411.1</ele>
        <time>2019-07-09T09:21:01Z</time>
      </trkpt>
      <trkpt lat="48.45342" lon="6.91633">
        <ele>411.58</ele>
        <time>2019-07-09T09:21:02Z</time>
      </trkpt>
      <trkpt lat="48.45344" lon="6.91634">
        <ele>411.58</ele>
        <time>2019-07-09T09:21:03Z</time>
      </trkpt>
      <trkpt lat="48.45347" lon="6.91634">
        <ele>413.02</ele>
        <time>2019-07-09T09:21:06Z</time>
      </trkpt>
      <trkpt lat="48.45348" lon="6.91632">
        <ele>413.5</ele>
        <time>2019-07-09T09:21:07Z</time>
      </trkpt>
      <trkpt lat="48.45349" lon="6.9163">
        <ele>413.98</ele>
        <time>2019-07-09T09:21:08Z</time>
      </trkpt>
      <trkpt lat="48.4535" lon="6.91628">
        <ele>413.5</ele>
        <time>2019-07-09T09:21:09Z</time>
      </trkpt>
      <trkpt lat="48.45351" lon="6.91626">
        <ele>413.5</ele>
        <time>2019-07-09T09:21:10Z</time>
      </trkpt>
      <trkpt lat="48.45352" lon="6.91624">
        <ele>413.02</ele>
        <time>2019-07-09T09:21:11Z</time>
      </trkpt>
      <trkpt lat="48.45354" lon="6.91622">
        <ele>413.02</ele>
        <time>2019-07-09T09:21:12Z</time>
      </trkpt>
      <trkpt lat="48.45355" lon="6.91619">
        <ele>413.02</ele>
        <time>2019-07-09T09:21:13Z</time>
      </trkpt>
      <trkpt lat="48.45356" lon="6.91616">
        <ele>412.54</ele>
        <time>2019-07-09T09:21:14Z</time>
      </trkpt>
      <trkpt lat="48.45357" lon="6.91614">
        <ele>412.54</ele>
        <time>2019-07-09T09:21:15Z</time>
      </trkpt>
      <trkpt lat="48.45359" lon="6.91606">
        <ele>412.06</ele>
        <time>2019-07-09T09:21:18Z</time>
      </trkpt>
      <trkpt lat="48.4536" lon="6.91603">
        <ele>411.58</ele>
        <time>2019-07-09T09:21:19Z</time>
      </trkpt>
      <trkpt lat="48.45357" lon="6.9157">
        <ele>409.18</ele>
        <time>2019-07-09T09:21:32Z</time>
      </trkpt>
      <trkpt lat="48.45343" lon="6.91535">
        <ele>409.66</ele>
        <time>2019-07-09T09:21:46Z</time>
      </trkpt>
      <trkpt lat="48.45326" lon="6.91515">
        <ele>411.1</ele>
        <time>2019-07-09T09:21:58Z</time>
      </trkpt>
      <trkpt lat="48.45325" lon="6.91513">
        <ele>411.1</ele>
        <time>2019-07-09T09:21:59Z</time>
      </trkpt>
      <trkpt lat="48.45302" lon="6.91491">
        <ele>412.06</ele>
        <time>2019-07-09T09:22:14Z</time>
      </trkpt>
      <trkpt lat="48.45276" lon="6.91464">
        <ele>409.66</ele>
        <time>2019-07-09T09:22:28Z</time>
      </trkpt>
      <trkpt lat="48.45239" lon="6.91419">
        <ele>409.66</ele>
        <time>2019-07-09T09:22:46Z</time>
      </trkpt>
      <trkpt lat="48.45213" lon="6.91376">
        <ele>412.06</ele>
        <time>2019-07-09T09:23:01Z</time>
      </trkpt>
      <trkpt lat="48.45194" lon="6.91335">
        <ele>413.98</ele>
        <time>2019-07-09T09:23:15Z</time>
      </trkpt>
      <trkpt lat="48.4518" lon="6.91298">
        <ele>417.83</ele>
        <time>2019-07-09T09:23:28Z</time>
      </trkpt>
      <trkpt lat="48.45174" lon="6.91263">
        <ele>419.27</ele>
        <time>2019-07-09T09:23:40Z</time>
      </trkpt>
      <trkpt lat="48.45174" lon="6.91257">
        <ele>419.27</ele>
        <time>2019-07-09T09:23:42Z</time>
      </trkpt>
      <trkpt lat="48.45175" lon="6.91253">
        <ele>418.79</ele>
        <time>2019-07-09T09:23:43Z</time>
      </trkpt>
      <trkpt lat="48.45191" lon="6.91207">
        <ele>418.79</ele>
        <time>2019-07-09T09:23:56Z</time>
      </trkpt>
      <trkpt lat="48.4522" lon="6.91195">
        <ele>416.39</ele>
        <time>2019-07-09T09:24:10Z</time>
      </trkpt>
      <trkpt lat="48.45251" lon="6.91199">
        <ele>419.27</ele>
        <time>2019-07-09T09:24:22Z</time>
      </trkpt>
      <trkpt lat="48.45293" lon="6.91201">
        <ele>426</ele>
        <time>2019-07-09T09:24:35Z</time>
      </trkpt>
      <trkpt lat="48.45337" lon="6.91194">
        <ele>439.46</ele>
        <time>2019-07-09T09:24:48Z</time>
      </trkpt>
      <trkpt lat="48.45352" lon="6.91181">
        <ele>442.34</ele>
        <time>2019-07-09T09:24:53Z</time>
      </trkpt>
      <trkpt lat="48.45354" lon="6.91177">
        <ele>442.82</ele>
        <time>2019-07-09T09:24:54Z</time>
      </trkpt>
      <trkpt lat="48.45392" lon="6.91121">
        <ele>440.9</ele>
        <time>2019-07-09T09:25:08Z</time>
      </trkpt>
      <trkpt lat="48.45401" lon="6.91063">
        <ele>434.65</ele>
        <time>2019-07-09T09:25:19Z</time>
      </trkpt>
      <trkpt lat="48.45387" lon="6.90998">
        <ele>434.17</ele>
        <time>2019-07-09T09:25:32Z</time>
      </trkpt>
      <trkpt lat="48.4536" lon="6.90944">
        <ele>432.73</ele>
        <time>2019-07-09T09:25:44Z</time>
      </trkpt>
      <trkpt lat="48.45324" lon="6.90875">
        <ele>427.44</ele>
        <time>2019-07-09T09:26:00Z</time>
      </trkpt>
      <trkpt lat="48.45294" lon="6.90821">
        <ele>425.04</ele>
        <time>2019-07-09T09:26:12Z</time>
      </trkpt>
      <trkpt lat="48.45285" lon="6.90808">
        <ele>425.52</ele>
        <time>2019-07-09T09:26:15Z</time>
      </trkpt>
      <trkpt lat="48.45282" lon="6.90804">
        <ele>425.52</ele>
        <time>2019-07-09T09:26:16Z</time>
      </trkpt>
      <trkpt lat="48.45266" lon="6.90779">
        <ele>425.04</ele>
        <time>2019-07-09T09:26:21Z</time>
      </trkpt>
      <trkpt lat="48.45258" lon="6.90764">
        <ele>424.56</ele>
        <time>2019-07-09T09:26:24Z</time>
      </trkpt>
      <trkpt lat="48.45233" lon="6.90717">
        <ele>423.6</ele>
        <time>2019-07-09T09:26:33Z</time>
      </trkpt>
      <trkpt lat="48.45231" lon="6.90712">
        <ele>424.08</ele>
        <time>2019-07-09T09:26:34Z</time>
      </trkpt>
      <trkpt lat="48.45219" lon="6.90686">
        <ele>424.08</ele>
        <time>2019-07-09T09:26:39Z</time>
      </trkpt>
      <trkpt lat="48.45215" lon="6.90675">
        <ele>423.6</ele>
        <time>2019-07-09T09:26:41Z</time>
      </trkpt>
      <trkpt lat="48.45214" lon="6.90669">
        <ele>423.12</ele>
        <time>2019-07-09T09:26:42Z</time>
      </trkpt>
      <trkpt lat="48.45212" lon="6.90663">
        <ele>423.12</ele>
        <time>2019-07-09T09:26:43Z</time>
      </trkpt>
      <trkpt lat="48.45212" lon="6.90658">
        <ele>422.64</ele>
        <time>2019-07-09T09:26:44Z</time>
      </trkpt>
      <trkpt lat="48.45211" lon="6.90651">
        <ele>422.64</ele>
        <time>2019-07-09T09:26:45Z</time>
      </trkpt>
      <trkpt lat="48.45212" lon="6.90646">
        <ele>422.64</ele>
        <time>2019-07-09T09:26:46Z</time>
      </trkpt>
      <trkpt lat="48.45213" lon="6.9064">
        <ele>422.16</ele>
        <time>2019-07-09T09:26:47Z</time>
      </trkpt>
      <trkpt lat="48.45215" lon="6.90635">
        <ele>422.16</ele>
        <time>2019-07-09T09:26:48Z</time>
      </trkpt>
      <trkpt lat="48.45218" lon="6.9063">
        <ele>421.68</ele>
        <time>2019-07-09T09:26:49Z</time>
      </trkpt>
      <trkpt lat="48.45221" lon="6.90626">
        <ele>421.68</ele>
        <time>2019-07-09T09:26:50Z</time>
      </trkpt>
      <trkpt lat="48.45224" lon="6.90623">
        <ele>421.68</ele>
        <time>2019-07-09T09:26:51Z</time>
      </trkpt>
      <trkpt lat="48.45227" lon="6.9062">
        <ele>421.68</ele>
        <time>2019-07-09T09:26:52Z</time>
      </trkpt>
      <trkpt lat="48.4523" lon="6.90618">
        <ele>421.19</ele>
        <time>2019-07-09T09:26:53Z</time>
      </trkpt>
      <trkpt lat="48.45234" lon="6.90617">
        <ele>421.68</ele>
        <time>2019-07-09T09:26:54Z</time>
      </trkpt>
      <trkpt lat="48.45277" lon="6.90596">
        <ele>430.33</ele>
        <time>2019-07-09T09:27:09Z</time>
      </trkpt>
      <trkpt lat="48.45322" lon="6.90602">
        <ele>445.71</ele>
        <time>2019-07-09T09:27:23Z</time>
      </trkpt>
      <trkpt lat="48.45367" lon="6.90612">
        <ele>452.44</ele>
        <time>2019-07-09T09:27:34Z</time>
      </trkpt>
      <trkpt lat="48.45385" lon="6.9062">
        <ele>453.88</ele>
        <time>2019-07-09T09:27:38Z</time>
      </trkpt>
      <trkpt lat="48.4539" lon="6.90622">
        <ele>454.36</ele>
        <time>2019-07-09T09:27:39Z</time>
      </trkpt>
      <trkpt lat="48.45394" lon="6.90624">
        <ele>454.36</ele>
        <time>2019-07-09T09:27:40Z</time>
      </trkpt>
      <trkpt lat="48.45403" lon="6.90629">
        <ele>454.36</ele>
        <time>2019-07-09T09:27:42Z</time>
      </trkpt>
      <trkpt lat="48.45408" lon="6.90632">
        <ele>454.36</ele>
        <time>2019-07-09T09:27:43Z</time>
      </trkpt>
      <trkpt lat="48.45412" lon="6.90634">
        <ele>454.84</ele>
        <time>2019-07-09T09:27:44Z</time>
      </trkpt>
      <trkpt lat="48.45466" lon="6.90671">
        <ele>457.72</ele>
        <time>2019-07-09T09:27:57Z</time>
      </trkpt>
      <trkpt lat="48.45508" lon="6.90673">
        <ele>450.52</ele>
        <time>2019-07-09T09:28:08Z</time>
      </trkpt>
      <trkpt lat="48.45513" lon="6.90666">
        <ele>448.11</ele>
        <time>2019-07-09T09:28:10Z</time>
      </trkpt>
      <trkpt lat="48.45515" lon="6.90662">
        <ele>447.15</ele>
        <time>2019-07-09T09:28:11Z</time>
      </trkpt>
      <trkpt lat="48.45516" lon="6.90658">
        <ele>446.67</ele>
        <time>2019-07-09T09:28:12Z</time>
      </trkpt>
      <trkpt lat="48.45516" lon="6.90653">
        <ele>446.19</ele>
        <time>2019-07-09T09:28:13Z</time>
      </trkpt>
      <trkpt lat="48.45516" lon="6.90648">
        <ele>445.71</ele>
        <time>2019-07-09T09:28:14Z</time>
      </trkpt>
      <trkpt lat="48.45504" lon="6.90601">
        <ele>442.34</ele>
        <time>2019-07-09T09:28:26Z</time>
      </trkpt>
      <trkpt lat="48.45492" lon="6.90552">
        <ele>436.1</ele>
        <time>2019-07-09T09:28:39Z</time>
      </trkpt>
      <trkpt lat="48.45481" lon="6.905">
        <ele>433.69</ele>
        <time>2019-07-09T09:28:54Z</time>
      </trkpt>
      <trkpt lat="48.45479" lon="6.90446">
        <ele>432.73</ele>
        <time>2019-07-09T09:29:10Z</time>
      </trkpt>
      <trkpt lat="48.45472" lon="6.90398">
        <ele>432.73</ele>
        <time>2019-07-09T09:29:25Z</time>
      </trkpt>
      <trkpt lat="48.45474" lon="6.9035">
        <ele>431.77</ele>
        <time>2019-07-09T09:29:39Z</time>
      </trkpt>
      <trkpt lat="48.45481" lon="6.903">
        <ele>429.37</ele>
        <time>2019-07-09T09:29:54Z</time>
      </trkpt>
      <trkpt lat="48.45475" lon="6.90254">
        <ele>430.81</ele>
        <time>2019-07-09T09:30:08Z</time>
      </trkpt>
      <trkpt lat="48.45468" lon="6.90218">
        <ele>434.65</ele>
        <time>2019-07-09T09:30:20Z</time>
      </trkpt>
      <trkpt lat="48.45467" lon="6.90215">
        <ele>434.65</ele>
        <time>2019-07-09T09:30:21Z</time>
      </trkpt>
      <trkpt lat="48.45462" lon="6.9018">
        <ele>438.98</ele>
        <time>2019-07-09T09:30:33Z</time>
      </trkpt>
      <trkpt lat="48.45462" lon="6.9015">
        <ele>441.86</ele>
        <time>2019-07-09T09:30:43Z</time>
      </trkpt>
      <trkpt lat="48.45462" lon="6.90147">
        <ele>441.86</ele>
        <time>2019-07-09T09:30:44Z</time>
      </trkpt>
      <trkpt lat="48.45464" lon="6.90145">
        <ele>441.86</ele>
        <time>2019-07-09T09:30:45Z</time>
      </trkpt>
      <trkpt lat="48.45465" lon="6.90143">
        <ele>441.86</ele>
        <time>2019-07-09T09:30:46Z</time>
      </trkpt>
      <trkpt lat="48.45467" lon="6.90142">
        <ele>441.38</ele>
        <time>2019-07-09T09:30:47Z</time>
      </trkpt>
      <trkpt lat="48.45469" lon="6.90142">
        <ele>441.38</ele>
        <time>2019-07-09T09:30:48Z</time>
      </trkpt>
      <trkpt lat="48.45471" lon="6.90141">
        <ele>441.38</ele>
        <time>2019-07-09T09:30:49Z</time>
      </trkpt>
      <trkpt lat="48.45473" lon="6.90141">
        <ele>441.86</ele>
        <time>2019-07-09T09:30:50Z</time>
      </trkpt>
      <trkpt lat="48.45476" lon="6.90142">
        <ele>441.86</ele>
        <time>2019-07-09T09:30:51Z</time>
      </trkpt>
      <trkpt lat="48.45478" lon="6.90142">
        <ele>441.86</ele>
        <time>2019-07-09T09:30:52Z</time>
      </trkpt>
      <trkpt lat="48.4548" lon="6.90143">
        <ele>442.34</ele>
        <time>2019-07-09T09:30:53Z</time>
      </trkpt>
      <trkpt lat="48.45483" lon="6.90143">
        <ele>442.82</ele>
        <time>2019-07-09T09:30:54Z</time>
      </trkpt>
      <trkpt lat="48.45486" lon="6.90144">
        <ele>443.31</ele>
        <time>2019-07-09T09:30:55Z</time>
      </trkpt>
      <trkpt lat="48.45489" lon="6.90144">
        <ele>443.79</ele>
        <time>2019-07-09T09:30:56Z</time>
      </trkpt>
      <trkpt lat="48.45531" lon="6.90149">
        <ele>448.59</ele>
        <time>2019-07-09T09:31:10Z</time>
      </trkpt>
      <trkpt lat="48.45564" lon="6.90154">
        <ele>458.69</ele>
        <time>2019-07-09T09:31:20Z</time>
      </trkpt>
      <trkpt lat="48.45598" lon="6.9019">
        <ele>463.49</ele>
        <time>2019-07-09T09:31:31Z</time>
      </trkpt>
      <trkpt lat="48.45628" lon="6.90214">
        <ele>464.45</ele>
        <time>2019-07-09T09:31:43Z</time>
      </trkpt>
      <trkpt lat="48.45661" lon="6.90251">
        <ele>463.01</ele>
        <time>2019-07-09T09:31:58Z</time>
      </trkpt>
      <trkpt lat="48.4569" lon="6.90298">
        <ele>456.76</ele>
        <time>2019-07-09T09:32:11Z</time>
      </trkpt>
      <trkpt lat="48.45717" lon="6.90326">
        <ele>453.88</ele>
        <time>2019-07-09T09:32:23Z</time>
      </trkpt>
      <trkpt lat="48.45752" lon="6.90358">
        <ele>451.96</ele>
        <time>2019-07-09T09:32:36Z</time>
      </trkpt>
      <trkpt lat="48.45791" lon="6.9038">
        <ele>455.8</ele>
        <time>2019-07-09T09:32:48Z</time>
      </trkpt>
      <trkpt lat="48.45808" lon="6.90379">
        <ele>458.21</ele>
        <time>2019-07-09T09:32:52Z</time>
      </trkpt>
      <trkpt lat="48.45813" lon="6.9038">
        <ele>458.69</ele>
        <time>2019-07-09T09:32:53Z</time>
      </trkpt>
      <trkpt lat="48.45831" lon="6.90388">
        <ele>462.53</ele>
        <time>2019-07-09T09:32:58Z</time>
      </trkpt>
      <trkpt lat="48.45833" lon="6.9039">
        <ele>463.01</ele>
        <time>2019-07-09T09:32:59Z</time>
      </trkpt>
      <trkpt lat="48.45836" lon="6.90393">
        <ele>464.45</ele>
        <time>2019-07-09T09:33:08Z</time>
      </trkpt>
      <trkpt lat="48.45838" lon="6.90402">
        <ele>465.42</ele>
        <time>2019-07-09T09:33:12Z</time>
      </trkpt>
      <trkpt lat="48.45839" lon="6.90406">
        <ele>464.93</ele>
        <time>2019-07-09T09:33:13Z</time>
      </trkpt>
      <trkpt lat="48.45841" lon="6.90409">
        <ele>464.45</ele>
        <time>2019-07-09T09:33:14Z</time>
      </trkpt>
      <trkpt lat="48.45843" lon="6.90414">
        <ele>463.49</ele>
        <time>2019-07-09T09:33:15Z</time>
      </trkpt>
      <trkpt lat="48.45845" lon="6.90418">
        <ele>463.01</ele>
        <time>2019-07-09T09:33:16Z</time>
      </trkpt>
      <trkpt lat="48.45847" lon="6.90423">
        <ele>462.05</ele>
        <time>2019-07-09T09:33:17Z</time>
      </trkpt>
      <trkpt lat="48.45848" lon="6.90429">
        <ele>461.09</ele>
        <time>2019-07-09T09:33:18Z</time>
      </trkpt>
      <trkpt lat="48.45853" lon="6.90449">
        <ele>457.72</ele>
        <time>2019-07-09T09:33:21Z</time>
      </trkpt>
      <trkpt lat="48.45862" lon="6.90512">
        <ele>450.03</ele>
        <time>2019-07-09T09:33:29Z</time>
      </trkpt>
      <trkpt lat="48.45864" lon="6.90521">
        <ele>448.59</ele>
        <time>2019-07-09T09:33:30Z</time>
      </trkpt>
      <trkpt lat="48.45865" lon="6.90531">
        <ele>447.63</ele>
        <time>2019-07-09T09:33:31Z</time>
      </trkpt>
      <trkpt lat="48.45866" lon="6.90549">
        <ele>446.19</ele>
        <time>2019-07-09T09:33:33Z</time>
      </trkpt>
      <trkpt lat="48.45865" lon="6.90558">
        <ele>445.23</ele>
        <time>2019-07-09T09:33:34Z</time>
      </trkpt>
      <trkpt lat="48.45863" lon="6.90568">
        <ele>444.27</ele>
        <time>2019-07-09T09:33:35Z</time>
      </trkpt>
      <trkpt lat="48.4586" lon="6.90576">
        <ele>443.79</ele>
        <time>2019-07-09T09:33:36Z</time>
      </trkpt>
      <trkpt lat="48.45857" lon="6.90583">
        <ele>442.82</ele>
        <time>2019-07-09T09:33:37Z</time>
      </trkpt>
      <trkpt lat="48.45854" lon="6.90592">
        <ele>442.34</ele>
        <time>2019-07-09T09:33:38Z</time>
      </trkpt>
      <trkpt lat="48.4585" lon="6.906">
        <ele>440.9</ele>
        <time>2019-07-09T09:33:39Z</time>
      </trkpt>
      <trkpt lat="48.45847" lon="6.90609">
        <ele>440.42</ele>
        <time>2019-07-09T09:33:40Z</time>
      </trkpt>
      <trkpt lat="48.45845" lon="6.90619">
        <ele>439.46</ele>
        <time>2019-07-09T09:33:41Z</time>
      </trkpt>
      <trkpt lat="48.45843" lon="6.9063">
        <ele>438.02</ele>
        <time>2019-07-09T09:33:42Z</time>
      </trkpt>
      <trkpt lat="48.45843" lon="6.9064">
        <ele>436.58</ele>
        <time>2019-07-09T09:33:43Z</time>
      </trkpt>
      <trkpt lat="48.45843" lon="6.90651">
        <ele>435.13</ele>
        <time>2019-07-09T09:33:44Z</time>
      </trkpt>
      <trkpt lat="48.4585" lon="6.90726">
        <ele>429.37</ele>
        <time>2019-07-09T09:33:51Z</time>
      </trkpt>
      <trkpt lat="48.45849" lon="6.90735">
        <ele>428.4</ele>
        <time>2019-07-09T09:33:52Z</time>
      </trkpt>
      <trkpt lat="48.45846" lon="6.90741">
        <ele>427.44</ele>
        <time>2019-07-09T09:33:53Z</time>
      </trkpt>
      <trkpt lat="48.45841" lon="6.90746">
        <ele>426.96</ele>
        <time>2019-07-09T09:33:54Z</time>
      </trkpt>
      <trkpt lat="48.45836" lon="6.90749">
        <ele>426</ele>
        <time>2019-07-09T09:33:55Z</time>
      </trkpt>
      <trkpt lat="48.45832" lon="6.90753">
        <ele>425.52</ele>
        <time>2019-07-09T09:33:56Z</time>
      </trkpt>
      <trkpt lat="48.45828" lon="6.90759">
        <ele>425.04</ele>
        <time>2019-07-09T09:33:57Z</time>
      </trkpt>
      <trkpt lat="48.45825" lon="6.90766">
        <ele>424.08</ele>
        <time>2019-07-09T09:33:58Z</time>
      </trkpt>
      <trkpt lat="48.45823" lon="6.90775">
        <ele>423.6</ele>
        <time>2019-07-09T09:33:59Z</time>
      </trkpt>
      <trkpt lat="48.45821" lon="6.90783">
        <ele>422.64</ele>
        <time>2019-07-09T09:34:00Z</time>
      </trkpt>
      <trkpt lat="48.45821" lon="6.90791">
        <ele>422.16</ele>
        <time>2019-07-09T09:34:01Z</time>
      </trkpt>
      <trkpt lat="48.4582" lon="6.908">
        <ele>421.19</ele>
        <time>2019-07-09T09:34:02Z</time>
      </trkpt>
      <trkpt lat="48.4582" lon="6.90809">
        <ele>420.71</ele>
        <time>2019-07-09T09:34:03Z</time>
      </trkpt>
      <trkpt lat="48.45821" lon="6.90817">
        <ele>419.75</ele>
        <time>2019-07-09T09:34:04Z</time>
      </trkpt>
      <trkpt lat="48.4583" lon="6.90905">
        <ele>415.91</ele>
        <time>2019-07-09T09:34:16Z</time>
      </trkpt>
      <trkpt lat="48.45837" lon="6.90986">
        <ele>413.02</ele>
        <time>2019-07-09T09:34:32Z</time>
      </trkpt>
      <trkpt lat="48.45839" lon="6.91069">
        <ele>405.33</ele>
        <time>2019-07-09T09:34:47Z</time>
      </trkpt>
      <trkpt lat="48.45842" lon="6.91132">
        <ele>398.6</ele>
        <time>2019-07-09T09:34:58Z</time>
      </trkpt>
      <trkpt lat="48.45863" lon="6.91213">
        <ele>400.05</ele>
        <time>2019-07-09T09:35:13Z</time>
      </trkpt>
      <trkpt lat="48.45894" lon="6.91283">
        <ele>406.29</ele>
        <time>2019-07-09T09:35:28Z</time>
      </trkpt>
      <trkpt lat="48.4593" lon="6.9134">
        <ele>407.26</ele>
        <time>2019-07-09T09:35:43Z</time>
      </trkpt>
      <trkpt lat="48.45964" lon="6.91354">
        <ele>406.77</ele>
        <time>2019-07-09T09:35:54Z</time>
      </trkpt>
      <trkpt lat="48.46" lon="6.91387">
        <ele>408.7</ele>
        <time>2019-07-09T09:36:07Z</time>
      </trkpt>
      <trkpt lat="48.46038" lon="6.91437">
        <ele>411.58</ele>
        <time>2019-07-09T09:36:22Z</time>
      </trkpt>
      <trkpt lat="48.46073" lon="6.91464">
        <ele>412.06</ele>
        <time>2019-07-09T09:36:33Z</time>
      </trkpt>
      <trkpt lat="48.4611" lon="6.91483">
        <ele>415.43</ele>
        <time>2019-07-09T09:36:46Z</time>
      </trkpt>
      <trkpt lat="48.46142" lon="6.91502">
        <ele>417.35</ele>
        <time>2019-07-09T09:36:56Z</time>
      </trkpt>
      <trkpt lat="48.46149" lon="6.91506">
        <ele>417.83</ele>
        <time>2019-07-09T09:36:58Z</time>
      </trkpt>
      <trkpt lat="48.46151" lon="6.91507">
        <ele>417.83</ele>
        <time>2019-07-09T09:36:59Z</time>
      </trkpt>
      <trkpt lat="48.46154" lon="6.91508">
        <ele>417.83</ele>
        <time>2019-07-09T09:37:00Z</time>
      </trkpt>
      <trkpt lat="48.46157" lon="6.91511">
        <ele>417.83</ele>
        <time>2019-07-09T09:37:01Z</time>
      </trkpt>
      <trkpt lat="48.46159" lon="6.91513">
        <ele>417.83</ele>
        <time>2019-07-09T09:37:02Z</time>
      </trkpt>
      <trkpt lat="48.46162" lon="6.91515">
        <ele>418.31</ele>
        <time>2019-07-09T09:37:03Z</time>
      </trkpt>
      <trkpt lat="48.46165" lon="6.91517">
        <ele>418.31</ele>
        <time>2019-07-09T09:37:04Z</time>
      </trkpt>
      <trkpt lat="48.46167" lon="6.91518">
        <ele>418.31</ele>
        <time>2019-07-09T09:37:05Z</time>
      </trkpt>
      <trkpt lat="48.4617" lon="6.91519">
        <ele>418.79</ele>
        <time>2019-07-09T09:37:06Z</time>
      </trkpt>
      <trkpt lat="48.46172" lon="6.9152">
        <ele>419.27</ele>
        <time>2019-07-09T09:37:07Z</time>
      </trkpt>
      <trkpt lat="48.46175" lon="6.91521">
        <ele>419.75</ele>
        <time>2019-07-09T09:37:08Z</time>
      </trkpt>
      <trkpt lat="48.46178" lon="6.9152">
        <ele>420.23</ele>
        <time>2019-07-09T09:37:09Z</time>
      </trkpt>
      <trkpt lat="48.46181" lon="6.91519">
        <ele>420.71</ele>
        <time>2019-07-09T09:37:10Z</time>
      </trkpt>
      <trkpt lat="48.46183" lon="6.91518">
        <ele>421.19</ele>
        <time>2019-07-09T09:37:11Z</time>
      </trkpt>
      <trkpt lat="48.46186" lon="6.91512">
        <ele>422.16</ele>
        <time>2019-07-09T09:37:13Z</time>
      </trkpt>
      <trkpt lat="48.46187" lon="6.91507">
        <ele>422.16</ele>
        <time>2019-07-09T09:37:14Z</time>
      </trkpt>
      <trkpt lat="48.46187" lon="6.91504">
        <ele>422.16</ele>
        <time>2019-07-09T09:37:15Z</time>
      </trkpt>
      <trkpt lat="48.46187" lon="6.91452">
        <ele>422.16</ele>
        <time>2019-07-09T09:37:27Z</time>
      </trkpt>
      <trkpt lat="48.46182" lon="6.91404">
        <ele>424.08</ele>
        <time>2019-07-09T09:37:38Z</time>
      </trkpt>
      <trkpt lat="48.46181" lon="6.91399">
        <ele>424.08</ele>
        <time>2019-07-09T09:37:40Z</time>
      </trkpt>
      <trkpt lat="48.46181" lon="6.91398">
        <ele>419.27</ele>
        <time>2019-07-09T09:37:54Z</time>
      </trkpt>
      <trkpt lat="48.46181" lon="6.91393">
        <ele>419.75</ele>
        <time>2019-07-09T09:38:00Z</time>
      </trkpt>
      <trkpt lat="48.4618" lon="6.9139">
        <ele>420.23</ele>
        <time>2019-07-09T09:38:01Z</time>
      </trkpt>
      <trkpt lat="48.46179" lon="6.91387">
        <ele>420.23</ele>
        <time>2019-07-09T09:38:02Z</time>
      </trkpt>
      <trkpt lat="48.46167" lon="6.91331">
        <ele>422.64</ele>
        <time>2019-07-09T09:38:14Z</time>
      </trkpt>
      <trkpt lat="48.46154" lon="6.91258">
        <ele>426</ele>
        <time>2019-07-09T09:38:28Z</time>
      </trkpt>
      <trkpt lat="48.46146" lon="6.91191">
        <ele>426.96</ele>
        <time>2019-07-09T09:38:41Z</time>
      </trkpt>
      <trkpt lat="48.46138" lon="6.91143">
        <ele>425.04</ele>
        <time>2019-07-09T09:38:48Z</time>
      </trkpt>
      <trkpt lat="48.46127" lon="6.91086">
        <ele>424.08</ele>
        <time>2019-07-09T09:38:56Z</time>
      </trkpt>
      <trkpt lat="48.46124" lon="6.9107">
        <ele>424.08</ele>
        <time>2019-07-09T09:38:58Z</time>
      </trkpt>
      <trkpt lat="48.46123" lon="6.91062">
        <ele>424.08</ele>
        <time>2019-07-09T09:38:59Z</time>
      </trkpt>
      <trkpt lat="48.46121" lon="6.91046">
        <ele>423.6</ele>
        <time>2019-07-09T09:39:01Z</time>
      </trkpt>
      <trkpt lat="48.4612" lon="6.91038">
        <ele>423.12</ele>
        <time>2019-07-09T09:39:02Z</time>
      </trkpt>
      <trkpt lat="48.46121" lon="6.91016">
        <ele>422.64</ele>
        <time>2019-07-09T09:39:05Z</time>
      </trkpt>
      <trkpt lat="48.46122" lon="6.9101">
        <ele>422.16</ele>
        <time>2019-07-09T09:39:06Z</time>
      </trkpt>
      <trkpt lat="48.46123" lon="6.91003">
        <ele>422.16</ele>
        <time>2019-07-09T09:39:07Z</time>
      </trkpt>
      <trkpt lat="48.46125" lon="6.90989">
        <ele>422.16</ele>
        <time>2019-07-09T09:39:09Z</time>
      </trkpt>
      <trkpt lat="48.46125" lon="6.90983">
        <ele>422.16</ele>
        <time>2019-07-09T09:39:10Z</time>
      </trkpt>
      <trkpt lat="48.46125" lon="6.90928">
        <ele>421.68</ele>
        <time>2019-07-09T09:39:21Z</time>
      </trkpt>
      <trkpt lat="48.4614" lon="6.90897">
        <ele>422.64</ele>
        <time>2019-07-09T09:39:35Z</time>
      </trkpt>
      <trkpt lat="48.46154" lon="6.90862">
        <ele>424.56</ele>
        <time>2019-07-09T09:39:49Z</time>
      </trkpt>
      <trkpt lat="48.46153" lon="6.9086">
        <ele>424.56</ele>
        <time>2019-07-09T09:39:50Z</time>
      </trkpt>
      <trkpt lat="48.4613" lon="6.90832">
        <ele>425.52</ele>
        <time>2019-07-09T09:40:03Z</time>
      </trkpt>
      <trkpt lat="48.46095" lon="6.90815">
        <ele>426.96</ele>
        <time>2019-07-09T09:40:15Z</time>
      </trkpt>
      <trkpt lat="48.46071" lon="6.90776">
        <ele>426.96</ele>
        <time>2019-07-09T09:40:25Z</time>
      </trkpt>
      <trkpt lat="48.46061" lon="6.90723">
        <ele>426.48</ele>
        <time>2019-07-09T09:40:36Z</time>
      </trkpt>
      <trkpt lat="48.46077" lon="6.90677">
        <ele>426.96</ele>
        <time>2019-07-09T09:40:48Z</time>
      </trkpt>
      <trkpt lat="48.46098" lon="6.90618">
        <ele>424.56</ele>
        <time>2019-07-09T09:41:02Z</time>
      </trkpt>
      <trkpt lat="48.46105" lon="6.90581">
        <ele>423.6</ele>
        <time>2019-07-09T09:41:09Z</time>
      </trkpt>
      <trkpt lat="48.46105" lon="6.90574">
        <ele>423.12</ele>
        <time>2019-07-09T09:41:10Z</time>
      </trkpt>
      <trkpt lat="48.46105" lon="6.90504">
        <ele>420.71</ele>
        <time>2019-07-09T09:41:19Z</time>
      </trkpt>
      <trkpt lat="48.46104" lon="6.90487">
        <ele>419.75</ele>
        <time>2019-07-09T09:41:21Z</time>
      </trkpt>
      <trkpt lat="48.46088" lon="6.90367">
        <ele>414.47</ele>
        <time>2019-07-09T09:41:33Z</time>
      </trkpt>
      <trkpt lat="48.46088" lon="6.90356">
        <ele>413.98</ele>
        <time>2019-07-09T09:41:34Z</time>
      </trkpt>
      <trkpt lat="48.46091" lon="6.90304">
        <ele>411.1</ele>
        <time>2019-07-09T09:41:39Z</time>
      </trkpt>
      <trkpt lat="48.4609" lon="6.90294">
        <ele>410.62</ele>
        <time>2019-07-09T09:41:40Z</time>
      </trkpt>
      <trkpt lat="48.46088" lon="6.90285">
        <ele>410.14</ele>
        <time>2019-07-09T09:41:41Z</time>
      </trkpt>
      <trkpt lat="48.46086" lon="6.90274">
        <ele>409.18</ele>
        <time>2019-07-09T09:41:42Z</time>
      </trkpt>
      <trkpt lat="48.46083" lon="6.90265">
        <ele>408.7</ele>
        <time>2019-07-09T09:41:43Z</time>
      </trkpt>
      <trkpt lat="48.46079" lon="6.90255">
        <ele>407.74</ele>
        <time>2019-07-09T09:41:44Z</time>
      </trkpt>
      <trkpt lat="48.46075" lon="6.90247">
        <ele>407.26</ele>
        <time>2019-07-09T09:41:45Z</time>
      </trkpt>
      <trkpt lat="48.4607" lon="6.90239">
        <ele>406.29</ele>
        <time>2019-07-09T09:41:46Z</time>
      </trkpt>
      <trkpt lat="48.46065" lon="6.90231">
        <ele>405.81</ele>
        <time>2019-07-09T09:41:47Z</time>
      </trkpt>
      <trkpt lat="48.46059" lon="6.90225">
        <ele>405.33</ele>
        <time>2019-07-09T09:41:48Z</time>
      </trkpt>
      <trkpt lat="48.46043" lon="6.9021">
        <ele>403.89</ele>
        <time>2019-07-09T09:41:51Z</time>
      </trkpt>
      <trkpt lat="48.46038" lon="6.90207">
        <ele>403.41</ele>
        <time>2019-07-09T09:41:52Z</time>
      </trkpt>
      <trkpt lat="48.46027" lon="6.90202">
        <ele>403.41</ele>
        <time>2019-07-09T09:41:54Z</time>
      </trkpt>
      <trkpt lat="48.45989" lon="6.90167">
        <ele>405.33</ele>
        <time>2019-07-09T09:42:05Z</time>
      </trkpt>
      <trkpt lat="48.45958" lon="6.90126">
        <ele>406.77</ele>
        <time>2019-07-09T09:42:16Z</time>
      </trkpt>
      <trkpt lat="48.45937" lon="6.9008">
        <ele>410.62</ele>
        <time>2019-07-09T09:42:27Z</time>
      </trkpt>
      <trkpt lat="48.45932" lon="6.90063">
        <ele>412.06</ele>
        <time>2019-07-09T09:42:30Z</time>
      </trkpt>
      <trkpt lat="48.4593" lon="6.90043">
        <ele>413.98</ele>
        <time>2019-07-09T09:42:33Z</time>
      </trkpt>
      <trkpt lat="48.45931" lon="6.90035">
        <ele>414.47</ele>
        <time>2019-07-09T09:42:34Z</time>
      </trkpt>
      <trkpt lat="48.45932" lon="6.90028">
        <ele>414.95</ele>
        <time>2019-07-09T09:42:35Z</time>
      </trkpt>
      <trkpt lat="48.45934" lon="6.90022">
        <ele>414.95</ele>
        <time>2019-07-09T09:42:36Z</time>
      </trkpt>
      <trkpt lat="48.45936" lon="6.90016">
        <ele>414.95</ele>
        <time>2019-07-09T09:42:37Z</time>
      </trkpt>
      <trkpt lat="48.45938" lon="6.9001">
        <ele>415.43</ele>
        <time>2019-07-09T09:42:38Z</time>
      </trkpt>
      <trkpt lat="48.45941" lon="6.90005">
        <ele>415.43</ele>
        <time>2019-07-09T09:42:39Z</time>
      </trkpt>
      <trkpt lat="48.45944" lon="6.90002">
        <ele>415.91</ele>
        <time>2019-07-09T09:42:40Z</time>
      </trkpt>
      <trkpt lat="48.45947" lon="6.9">
        <ele>415.91</ele>
        <time>2019-07-09T09:42:41Z</time>
      </trkpt>
      <trkpt lat="48.4595" lon="6.9">
        <ele>415.91</ele>
        <time>2019-07-09T09:42:42Z</time>
      </trkpt>
      <trkpt lat="48.45952" lon="6.9">
        <ele>415.91</ele>
        <time>2019-07-09T09:42:43Z</time>
      </trkpt>
      <trkpt lat="48.45975" lon="6.90007">
        <ele>416.87</ele>
        <time>2019-07-09T09:42:55Z</time>
      </trkpt>
      <trkpt lat="48.45984" lon="6.90009">
        <ele>418.31</ele>
        <time>2019-07-09T09:43:01Z</time>
      </trkpt>
      <trkpt lat="48.45985" lon="6.90009">
        <ele>418.79</ele>
        <time>2019-07-09T09:43:02Z</time>
      </trkpt>
      <trkpt lat="48.45986" lon="6.90009">
        <ele>419.27</ele>
        <time>2019-07-09T09:43:03Z</time>
      </trkpt>
      <trkpt lat="48.45987" lon="6.90009">
        <ele>419.27</ele>
        <time>2019-07-09T09:43:04Z</time>
      </trkpt>
      <trkpt lat="48.45989" lon="6.90009">
        <ele>419.75</ele>
        <time>2019-07-09T09:43:05Z</time>
      </trkpt>
      <trkpt lat="48.4599" lon="6.90008">
        <ele>419.75</ele>
        <time>2019-07-09T09:43:06Z</time>
      </trkpt>
      <trkpt lat="48.45992" lon="6.90008">
        <ele>420.23</ele>
        <time>2019-07-09T09:43:07Z</time>
      </trkpt>
      <trkpt lat="48.45993" lon="6.90007">
        <ele>420.71</ele>
        <time>2019-07-09T09:43:08Z</time>
      </trkpt>
      <trkpt lat="48.45995" lon="6.90007">
        <ele>421.19</ele>
        <time>2019-07-09T09:43:09Z</time>
      </trkpt>
      <trkpt lat="48.45996" lon="6.90007">
        <ele>422.16</ele>
        <time>2019-07-09T09:43:10Z</time>
      </trkpt>
      <trkpt lat="48.45998" lon="6.90007">
        <ele>422.64</ele>
        <time>2019-07-09T09:43:11Z</time>
      </trkpt>
      <trkpt lat="48.46" lon="6.90006">
        <ele>423.12</ele>
        <time>2019-07-09T09:43:12Z</time>
      </trkpt>
      <trkpt lat="48.46001" lon="6.90004">
        <ele>423.12</ele>
        <time>2019-07-09T09:43:13Z</time>
      </trkpt>
      <trkpt lat="48.46003" lon="6.90002">
        <ele>422.64</ele>
        <time>2019-07-09T09:43:14Z</time>
      </trkpt>
      <trkpt lat="48.46005" lon="6.89999">
        <ele>423.12</ele>
        <time>2019-07-09T09:43:15Z</time>
      </trkpt>
      <trkpt lat="48.46006" lon="6.89998">
        <ele>422.64</ele>
        <time>2019-07-09T09:43:16Z</time>
      </trkpt>
      <trkpt lat="48.46007" lon="6.89995">
        <ele>422.64</ele>
        <time>2019-07-09T09:43:17Z</time>
      </trkpt>
      <trkpt lat="48.46008" lon="6.89994">
        <ele>423.12</ele>
        <time>2019-07-09T09:43:18Z</time>
      </trkpt>
      <trkpt lat="48.46009" lon="6.89991">
        <ele>422.64</ele>
        <time>2019-07-09T09:43:19Z</time>
      </trkpt>
      <trkpt lat="48.4601" lon="6.89989">
        <ele>422.64</ele>
        <time>2019-07-09T09:43:20Z</time>
      </trkpt>
      <trkpt lat="48.4602" lon="6.89951">
        <ele>421.19</ele>
        <time>2019-07-09T09:43:36Z</time>
      </trkpt>
      <trkpt lat="48.46022" lon="6.89942">
        <ele>421.68</ele>
        <time>2019-07-09T09:43:40Z</time>
      </trkpt>
      <trkpt lat="48.46023" lon="6.89939">
        <ele>421.68</ele>
        <time>2019-07-09T09:43:41Z</time>
      </trkpt>
      <trkpt lat="48.46024" lon="6.89936">
        <ele>421.68</ele>
        <time>2019-07-09T09:43:42Z</time>
      </trkpt>
      <trkpt lat="48.46025" lon="6.89933">
        <ele>421.68</ele>
        <time>2019-07-09T09:43:43Z</time>
      </trkpt>
      <trkpt lat="48.46025" lon="6.89931">
        <ele>421.68</ele>
        <time>2019-07-09T09:43:44Z</time>
      </trkpt>
      <trkpt lat="48.46026" lon="6.89929">
        <ele>421.68</ele>
        <time>2019-07-09T09:43:45Z</time>
      </trkpt>
      <trkpt lat="48.46026" lon="6.89926">
        <ele>421.68</ele>
        <time>2019-07-09T09:43:46Z</time>
      </trkpt>
      <trkpt lat="48.46025" lon="6.89923">
        <ele>421.68</ele>
        <time>2019-07-09T09:43:47Z</time>
      </trkpt>
      <trkpt lat="48.46024" lon="6.8992">
        <ele>421.68</ele>
        <time>2019-07-09T09:43:48Z</time>
      </trkpt>
      <trkpt lat="48.46023" lon="6.89916">
        <ele>421.68</ele>
        <time>2019-07-09T09:43:49Z</time>
      </trkpt>
      <trkpt lat="48.46021" lon="6.89913">
        <ele>422.16</ele>
        <time>2019-07-09T09:43:50Z</time>
      </trkpt>
      <trkpt lat="48.4602" lon="6.89909">
        <ele>422.16</ele>
        <time>2019-07-09T09:43:51Z</time>
      </trkpt>
      <trkpt lat="48.46019" lon="6.89906">
        <ele>422.64</ele>
        <time>2019-07-09T09:43:52Z</time>
      </trkpt>
      <trkpt lat="48.45996" lon="6.8986">
        <ele>426.48</ele>
        <time>2019-07-09T09:44:06Z</time>
      </trkpt>
      <trkpt lat="48.45991" lon="6.89847">
        <ele>427.92</ele>
        <time>2019-07-09T09:44:10Z</time>
      </trkpt>
      <trkpt lat="48.4599" lon="6.89844">
        <ele>427.92</ele>
        <time>2019-07-09T09:44:11Z</time>
      </trkpt>
      <trkpt lat="48.45975" lon="6.89796">
        <ele>430.33</ele>
        <time>2019-07-09T09:44:24Z</time>
      </trkpt>
      <trkpt lat="48.4596" lon="6.89762">
        <ele>431.77</ele>
        <time>2019-07-09T09:44:35Z</time>
      </trkpt>
      <trkpt lat="48.45958" lon="6.8976">
        <ele>432.25</ele>
        <time>2019-07-09T09:44:36Z</time>
      </trkpt>
      <trkpt lat="48.45956" lon="6.89757">
        <ele>432.25</ele>
        <time>2019-07-09T09:44:37Z</time>
      </trkpt>
      <trkpt lat="48.45932" lon="6.89718">
        <ele>430.81</ele>
        <time>2019-07-09T09:44:51Z</time>
      </trkpt>
      <trkpt lat="48.4591" lon="6.89681">
        <ele>434.17</ele>
        <time>2019-07-09T09:45:05Z</time>
      </trkpt>
      <trkpt lat="48.45881" lon="6.89643">
        <ele>436.58</ele>
        <time>2019-07-09T09:45:22Z</time>
      </trkpt>
      <trkpt lat="48.45856" lon="6.89609">
        <ele>438.98</ele>
        <time>2019-07-09T09:45:37Z</time>
      </trkpt>
      <trkpt lat="48.45831" lon="6.89567">
        <ele>437.06</ele>
        <time>2019-07-09T09:45:52Z</time>
      </trkpt>
      <trkpt lat="48.45807" lon="6.89522">
        <ele>436.58</ele>
        <time>2019-07-09T09:46:08Z</time>
      </trkpt>
      <trkpt lat="48.45788" lon="6.89483">
        <ele>435.61</ele>
        <time>2019-07-09T09:46:23Z</time>
      </trkpt>
      <trkpt lat="48.4578" lon="6.89474">
        <ele>436.1</ele>
        <time>2019-07-09T09:46:33Z</time>
      </trkpt>
      <trkpt lat="48.45773" lon="6.89473">
        <ele>438.5</ele>
        <time>2019-07-09T09:46:46Z</time>
      </trkpt>
      <trkpt lat="48.45777" lon="6.89471">
        <ele>438.5</ele>
        <time>2019-07-09T09:47:16Z</time>
      </trkpt>
      <trkpt lat="48.45774" lon="6.89469">
        <ele>438.5</ele>
        <time>2019-07-09T09:47:19Z</time>
      </trkpt>
      <trkpt lat="48.45751" lon="6.8945">
        <ele>437.54</ele>
        <time>2019-07-09T09:47:30Z</time>
      </trkpt>
      <trkpt lat="48.45748" lon="6.89425">
        <ele>436.58</ele>
        <time>2019-07-09T09:47:38Z</time>
      </trkpt>
      <trkpt lat="48.45749" lon="6.89422">
        <ele>436.1</ele>
        <time>2019-07-09T09:47:39Z</time>
      </trkpt>
      <trkpt lat="48.45749" lon="6.8942">
        <ele>436.1</ele>
        <time>2019-07-09T09:47:40Z</time>
      </trkpt>
      <trkpt lat="48.4575" lon="6.89417">
        <ele>436.1</ele>
        <time>2019-07-09T09:47:41Z</time>
      </trkpt>
      <trkpt lat="48.45751" lon="6.89414">
        <ele>436.1</ele>
        <time>2019-07-09T09:47:42Z</time>
      </trkpt>
      <trkpt lat="48.45764" lon="6.89372">
        <ele>435.61</ele>
        <time>2019-07-09T09:47:55Z</time>
      </trkpt>
      <trkpt lat="48.45765" lon="6.8937">
        <ele>435.61</ele>
        <time>2019-07-09T09:47:56Z</time>
      </trkpt>
      <trkpt lat="48.45763" lon="6.89367">
        <ele>431.29</ele>
        <time>2019-07-09T09:48:06Z</time>
      </trkpt>
      <trkpt lat="48.45769" lon="6.89347">
        <ele>431.77</ele>
        <time>2019-07-09T09:48:15Z</time>
      </trkpt>
      <trkpt lat="48.45771" lon="6.89337">
        <ele>431.29</ele>
        <time>2019-07-09T09:48:18Z</time>
      </trkpt>
      <trkpt lat="48.45772" lon="6.89334">
        <ele>431.29</ele>
        <time>2019-07-09T09:48:19Z</time>
      </trkpt>
      <trkpt lat="48.45773" lon="6.8933">
        <ele>431.29</ele>
        <time>2019-07-09T09:48:20Z</time>
      </trkpt>
      <trkpt lat="48.45777" lon="6.89305">
        <ele>430.81</ele>
        <time>2019-07-09T09:48:27Z</time>
      </trkpt>
      <trkpt lat="48.45784" lon="6.89254">
        <ele>432.73</ele>
        <time>2019-07-09T09:48:41Z</time>
      </trkpt>
      <trkpt lat="48.45793" lon="6.89209">
        <ele>431.77</ele>
        <time>2019-07-09T09:48:53Z</time>
      </trkpt>
      <trkpt lat="48.45805" lon="6.89139">
        <ele>431.77</ele>
        <time>2019-07-09T09:49:07Z</time>
      </trkpt>
      <trkpt lat="48.45814" lon="6.89084">
        <ele>430.33</ele>
        <time>2019-07-09T09:49:18Z</time>
      </trkpt>
      <trkpt lat="48.45835" lon="6.89027">
        <ele>429.85</ele>
        <time>2019-07-09T09:49:30Z</time>
      </trkpt>
      <trkpt lat="48.45867" lon="6.88977">
        <ele>430.33</ele>
        <time>2019-07-09T09:49:42Z</time>
      </trkpt>
      <trkpt lat="48.45903" lon="6.8892">
        <ele>433.69</ele>
        <time>2019-07-09T09:49:56Z</time>
      </trkpt>
      <trkpt lat="48.45946" lon="6.88854">
        <ele>435.61</ele>
        <time>2019-07-09T09:50:09Z</time>
      </trkpt>
      <trkpt lat="48.45966" lon="6.88823">
        <ele>437.06</ele>
        <time>2019-07-09T09:50:15Z</time>
      </trkpt>
      <trkpt lat="48.46002" lon="6.88787">
        <ele>442.82</ele>
        <time>2019-07-09T09:50:26Z</time>
      </trkpt>
      <trkpt lat="48.4605" lon="6.88754">
        <ele>450.52</ele>
        <time>2019-07-09T09:50:41Z</time>
      </trkpt>
      <trkpt lat="48.46063" lon="6.88751">
        <ele>450.52</ele>
        <time>2019-07-09T09:50:44Z</time>
      </trkpt>
      <trkpt lat="48.46067" lon="6.8875">
        <ele>450.52</ele>
        <time>2019-07-09T09:50:45Z</time>
      </trkpt>
      <trkpt lat="48.46072" lon="6.8875">
        <ele>450.52</ele>
        <time>2019-07-09T09:50:46Z</time>
      </trkpt>
      <trkpt lat="48.46091" lon="6.88746">
        <ele>449.55</ele>
        <time>2019-07-09T09:50:50Z</time>
      </trkpt>
      <trkpt lat="48.46095" lon="6.88744">
        <ele>449.55</ele>
        <time>2019-07-09T09:50:51Z</time>
      </trkpt>
      <trkpt lat="48.4612" lon="6.88726">
        <ele>448.59</ele>
        <time>2019-07-09T09:50:56Z</time>
      </trkpt>
      <trkpt lat="48.46125" lon="6.8872">
        <ele>448.59</ele>
        <time>2019-07-09T09:50:57Z</time>
      </trkpt>
      <trkpt lat="48.46149" lon="6.88688">
        <ele>444.27</ele>
        <time>2019-07-09T09:51:04Z</time>
      </trkpt>
      <trkpt lat="48.46152" lon="6.88686">
        <ele>443.31</ele>
        <time>2019-07-09T09:51:05Z</time>
      </trkpt>
      <trkpt lat="48.46189" lon="6.88638">
        <ele>442.82</ele>
        <time>2019-07-09T09:51:18Z</time>
      </trkpt>
      <trkpt lat="48.46223" lon="6.88604">
        <ele>441.38</ele>
        <time>2019-07-09T09:51:30Z</time>
      </trkpt>
      <trkpt lat="48.46229" lon="6.88602">
        <ele>440.9</ele>
        <time>2019-07-09T09:51:33Z</time>
      </trkpt>
      <trkpt lat="48.46231" lon="6.88602">
        <ele>440.9</ele>
        <time>2019-07-09T09:51:34Z</time>
      </trkpt>
      <trkpt lat="48.46232" lon="6.88603">
        <ele>440.42</ele>
        <time>2019-07-09T09:51:35Z</time>
      </trkpt>
      <trkpt lat="48.46238" lon="6.88602">
        <ele>436.1</ele>
        <time>2019-07-09T09:51:44Z</time>
      </trkpt>
      <trkpt lat="48.46241" lon="6.88605">
        <ele>434.65</ele>
        <time>2019-07-09T09:51:52Z</time>
      </trkpt>
      <trkpt lat="48.46242" lon="6.88608">
        <ele>434.65</ele>
        <time>2019-07-09T09:51:53Z</time>
      </trkpt>
      <trkpt lat="48.46243" lon="6.88615">
        <ele>432.25</ele>
        <time>2019-07-09T09:52:07Z</time>
      </trkpt>
      <trkpt lat="48.46256" lon="6.88636">
        <ele>430.81</ele>
        <time>2019-07-09T09:52:16Z</time>
      </trkpt>
      <trkpt lat="48.46275" lon="6.88657">
        <ele>430.33</ele>
        <time>2019-07-09T09:52:24Z</time>
      </trkpt>
      <trkpt lat="48.46284" lon="6.8866">
        <ele>431.29</ele>
        <time>2019-07-09T09:52:30Z</time>
      </trkpt>
      <trkpt lat="48.46315" lon="6.88707">
        <ele>426.96</ele>
        <time>2019-07-09T09:52:43Z</time>
      </trkpt>
      <trkpt lat="48.46336" lon="6.8874">
        <ele>423.6</ele>
        <time>2019-07-09T09:52:53Z</time>
      </trkpt>
      <trkpt lat="48.46354" lon="6.88779">
        <ele>424.56</ele>
        <time>2019-07-09T09:53:02Z</time>
      </trkpt>
      <trkpt lat="48.46372" lon="6.88832">
        <ele>422.64</ele>
        <time>2019-07-09T09:53:14Z</time>
      </trkpt>
      <trkpt lat="48.46395" lon="6.88889">
        <ele>425.52</ele>
        <time>2019-07-09T09:53:26Z</time>
      </trkpt>
      <trkpt lat="48.46418" lon="6.8894">
        <ele>424.56</ele>
        <time>2019-07-09T09:53:38Z</time>
      </trkpt>
      <trkpt lat="48.46443" lon="6.8898">
        <ele>426.48</ele>
        <time>2019-07-09T09:53:52Z</time>
      </trkpt>
      <trkpt lat="48.4645" lon="6.89011">
        <ele>428.4</ele>
        <time>2019-07-09T09:54:03Z</time>
      </trkpt>
      <trkpt lat="48.46444" lon="6.89049">
        <ele>425.52</ele>
        <time>2019-07-09T09:54:11Z</time>
      </trkpt>
      <trkpt lat="48.46434" lon="6.89074">
        <ele>422.64</ele>
        <time>2019-07-09T09:54:15Z</time>
      </trkpt>
      <trkpt lat="48.46419" lon="6.89102">
        <ele>419.75</ele>
        <time>2019-07-09T09:54:20Z</time>
      </trkpt>
      <trkpt lat="48.46399" lon="6.8913">
        <ele>415.91</ele>
        <time>2019-07-09T09:54:26Z</time>
      </trkpt>
      <trkpt lat="48.464" lon="6.89136">
        <ele>415.43</ele>
        <time>2019-07-09T09:54:27Z</time>
      </trkpt>
      <trkpt lat="48.46401" lon="6.8914">
        <ele>415.43</ele>
        <time>2019-07-09T09:54:28Z</time>
      </trkpt>
      <trkpt lat="48.46403" lon="6.89144">
        <ele>415.43</ele>
        <time>2019-07-09T09:54:29Z</time>
      </trkpt>
      <trkpt lat="48.46405" lon="6.89148">
        <ele>415.43</ele>
        <time>2019-07-09T09:54:30Z</time>
      </trkpt>
      <trkpt lat="48.46407" lon="6.89151">
        <ele>415.43</ele>
        <time>2019-07-09T09:54:31Z</time>
      </trkpt>
      <trkpt lat="48.46408" lon="6.89153">
        <ele>415.43</ele>
        <time>2019-07-09T09:54:32Z</time>
      </trkpt>
      <trkpt lat="48.4641" lon="6.89156">
        <ele>415.91</ele>
        <time>2019-07-09T09:54:33Z</time>
      </trkpt>
      <trkpt lat="48.46412" lon="6.89159">
        <ele>415.91</ele>
        <time>2019-07-09T09:54:34Z</time>
      </trkpt>
      <trkpt lat="48.46414" lon="6.89162">
        <ele>415.91</ele>
        <time>2019-07-09T09:54:35Z</time>
      </trkpt>
      <trkpt lat="48.46432" lon="6.89193">
        <ele>417.35</ele>
        <time>2019-07-09T09:54:48Z</time>
      </trkpt>
      <trkpt lat="48.46457" lon="6.89225">
        <ele>416.87</ele>
        <time>2019-07-09T09:55:01Z</time>
      </trkpt>
      <trkpt lat="48.46471" lon="6.89238">
        <ele>415.91</ele>
        <time>2019-07-09T09:55:11Z</time>
      </trkpt>
      <trkpt lat="48.46474" lon="6.8924">
        <ele>418.79</ele>
        <time>2019-07-09T09:55:26Z</time>
      </trkpt>
      <trkpt lat="48.46474" lon="6.89276">
        <ele>419.27</ele>
        <time>2019-07-09T09:55:35Z</time>
      </trkpt>
      <trkpt lat="48.46478" lon="6.89282">
        <ele>418.79</ele>
        <time>2019-07-09T09:55:37Z</time>
      </trkpt>
      <trkpt lat="48.46499" lon="6.893">
        <ele>416.39</ele>
        <time>2019-07-09T09:55:45Z</time>
      </trkpt>
      <trkpt lat="48.46525" lon="6.89273">
        <ele>413.98</ele>
        <time>2019-07-09T09:55:52Z</time>
      </trkpt>
      <trkpt lat="48.46533" lon="6.89262">
        <ele>413.98</ele>
        <time>2019-07-09T09:55:54Z</time>
      </trkpt>
      <trkpt lat="48.46552" lon="6.89235">
        <ele>413.02</ele>
        <time>2019-07-09T09:55:58Z</time>
      </trkpt>
      <trkpt lat="48.46573" lon="6.89216">
        <ele>412.54</ele>
        <time>2019-07-09T09:56:03Z</time>
      </trkpt>
      <trkpt lat="48.46595" lon="6.8921">
        <ele>413.02</ele>
        <time>2019-07-09T09:56:11Z</time>
      </trkpt>
      <trkpt lat="48.4662" lon="6.89227">
        <ele>414.95</ele>
        <time>2019-07-09T09:56:22Z</time>
      </trkpt>
      <trkpt lat="48.46646" lon="6.89258">
        <ele>418.79</ele>
        <time>2019-07-09T09:56:35Z</time>
      </trkpt>
      <trkpt lat="48.46669" lon="6.89286">
        <ele>421.68</ele>
        <time>2019-07-09T09:56:48Z</time>
      </trkpt>
      <trkpt lat="48.46686" lon="6.89311">
        <ele>421.68</ele>
        <time>2019-07-09T09:56:58Z</time>
      </trkpt>
      <trkpt lat="48.4669" lon="6.89314">
        <ele>421.68</ele>
        <time>2019-07-09T09:57:01Z</time>
      </trkpt>
      <trkpt lat="48.46691" lon="6.89328">
        <ele>421.68</ele>
        <time>2019-07-09T09:57:06Z</time>
      </trkpt>
      <trkpt lat="48.46712" lon="6.89385">
        <ele>422.16</ele>
        <time>2019-07-09T09:57:19Z</time>
      </trkpt>
      <trkpt lat="48.46723" lon="6.89437">
        <ele>420.71</ele>
        <time>2019-07-09T09:57:29Z</time>
      </trkpt>
      <trkpt lat="48.46744" lon="6.89478">
        <ele>422.16</ele>
        <time>2019-07-09T09:57:41Z</time>
      </trkpt>
      <trkpt lat="48.46761" lon="6.8951">
        <ele>424.08</ele>
        <time>2019-07-09T09:57:50Z</time>
      </trkpt>
      <trkpt lat="48.46785" lon="6.89539">
        <ele>423.6</ele>
        <time>2019-07-09T09:58:02Z</time>
      </trkpt>
      <trkpt lat="48.46804" lon="6.89578">
        <ele>424.56</ele>
        <time>2019-07-09T09:58:14Z</time>
      </trkpt>
      <trkpt lat="48.46812" lon="6.89587">
        <ele>425.04</ele>
        <time>2019-07-09T09:58:17Z</time>
      </trkpt>
      <trkpt lat="48.46815" lon="6.89596">
        <ele>425.52</ele>
        <time>2019-07-09T09:58:19Z</time>
      </trkpt>
      <trkpt lat="48.46817" lon="6.89602">
        <ele>426</ele>
        <time>2019-07-09T09:58:20Z</time>
      </trkpt>
      <trkpt lat="48.46818" lon="6.89606">
        <ele>426</ele>
        <time>2019-07-09T09:58:21Z</time>
      </trkpt>
      <trkpt lat="48.46819" lon="6.8961">
        <ele>426</ele>
        <time>2019-07-09T09:58:22Z</time>
      </trkpt>
      <trkpt lat="48.46822" lon="6.89624">
        <ele>424.56</ele>
        <time>2019-07-09T09:58:25Z</time>
      </trkpt>
      <trkpt lat="48.46828" lon="6.89631">
        <ele>424.08</ele>
        <time>2019-07-09T09:58:27Z</time>
      </trkpt>
      <trkpt lat="48.46858" lon="6.89654">
        <ele>422.64</ele>
        <time>2019-07-09T09:58:35Z</time>
      </trkpt>
      <trkpt lat="48.46879" lon="6.89642">
        <ele>426.96</ele>
        <time>2019-07-09T09:58:45Z</time>
      </trkpt>
      <trkpt lat="48.46898" lon="6.8963">
        <ele>432.25</ele>
        <time>2019-07-09T09:58:54Z</time>
      </trkpt>
      <trkpt lat="48.46911" lon="6.89624">
        <ele>435.13</ele>
        <time>2019-07-09T09:59:00Z</time>
      </trkpt>
      <trkpt lat="48.46945" lon="6.89615">
        <ele>447.15</ele>
        <time>2019-07-09T09:59:15Z</time>
      </trkpt>
      <trkpt lat="48.46965" lon="6.89589">
        <ele>451.48</ele>
        <time>2019-07-09T09:59:27Z</time>
      </trkpt>
      <trkpt lat="48.46987" lon="6.8956">
        <ele>451</ele>
        <time>2019-07-09T09:59:40Z</time>
      </trkpt>
      <trkpt lat="48.47003" lon="6.89511">
        <ele>448.59</ele>
        <time>2019-07-09T09:59:50Z</time>
      </trkpt>
      <trkpt lat="48.47027" lon="6.89486">
        <ele>443.79</ele>
        <time>2019-07-09T09:59:55Z</time>
      </trkpt>
      <trkpt lat="48.47037" lon="6.89474">
        <ele>441.38</ele>
        <time>2019-07-09T09:59:57Z</time>
      </trkpt>
      <trkpt lat="48.47059" lon="6.89467">
        <ele>437.06</ele>
        <time>2019-07-09T10:00:02Z</time>
      </trkpt>
      <trkpt lat="48.4707" lon="6.89459">
        <ele>435.61</ele>
        <time>2019-07-09T10:00:06Z</time>
      </trkpt>
      <trkpt lat="48.47104" lon="6.89454">
        <ele>436.58</ele>
        <time>2019-07-09T10:00:18Z</time>
      </trkpt>
      <trkpt lat="48.47135" lon="6.8946">
        <ele>438.5</ele>
        <time>2019-07-09T10:00:30Z</time>
      </trkpt>
      <trkpt lat="48.47168" lon="6.89474">
        <ele>438.5</ele>
        <time>2019-07-09T10:00:43Z</time>
      </trkpt>
      <trkpt lat="48.47174" lon="6.89487">
        <ele>436.58</ele>
        <time>2019-07-09T10:00:46Z</time>
      </trkpt>
      <trkpt lat="48.47189" lon="6.89498">
        <ele>432.73</ele>
        <time>2019-07-09T10:00:51Z</time>
      </trkpt>
      <trkpt lat="48.47204" lon="6.89514">
        <ele>429.37</ele>
        <time>2019-07-09T10:01:01Z</time>
      </trkpt>
      <trkpt lat="48.47205" lon="6.89518">
        <ele>429.37</ele>
        <time>2019-07-09T10:01:02Z</time>
      </trkpt>
      <trkpt lat="48.47205" lon="6.89529">
        <ele>428.4</ele>
        <time>2019-07-09T10:01:04Z</time>
      </trkpt>
      <trkpt lat="48.47207" lon="6.89544">
        <ele>427.44</ele>
        <time>2019-07-09T10:01:06Z</time>
      </trkpt>
      <trkpt lat="48.47207" lon="6.89562">
        <ele>426</ele>
        <time>2019-07-09T10:01:08Z</time>
      </trkpt>
      <trkpt lat="48.47208" lon="6.89572">
        <ele>425.52</ele>
        <time>2019-07-09T10:01:09Z</time>
      </trkpt>
      <trkpt lat="48.47209" lon="6.89605">
        <ele>423.12</ele>
        <time>2019-07-09T10:01:12Z</time>
      </trkpt>
      <trkpt lat="48.47207" lon="6.89642">
        <ele>420.71</ele>
        <time>2019-07-09T10:01:15Z</time>
      </trkpt>
      <trkpt lat="48.47201" lon="6.89677">
        <ele>418.79</ele>
        <time>2019-07-09T10:01:18Z</time>
      </trkpt>
      <trkpt lat="48.47159" lon="6.89807">
        <ele>409.66</ele>
        <time>2019-07-09T10:01:30Z</time>
      </trkpt>
      <trkpt lat="48.47139" lon="6.89873">
        <ele>404.85</ele>
        <time>2019-07-09T10:01:38Z</time>
      </trkpt>
      <trkpt lat="48.47133" lon="6.89891">
        <ele>402.93</ele>
        <time>2019-07-09T10:01:43Z</time>
      </trkpt>
      <trkpt lat="48.47129" lon="6.89887">
        <ele>402.45</ele>
        <time>2019-07-09T10:01:46Z</time>
      </trkpt>
      <trkpt lat="48.47107" lon="6.89871">
        <ele>399.08</ele>
        <time>2019-07-09T10:01:53Z</time>
      </trkpt>
      <trkpt lat="48.47092" lon="6.89853">
        <ele>396.2</ele>
        <time>2019-07-09T10:02:02Z</time>
      </trkpt>
      <trkpt lat="48.47097" lon="6.89853">
        <ele>402.93</ele>
        <time>2019-07-09T10:02:35Z</time>
      </trkpt>
      <trkpt lat="48.47096" lon="6.89851">
        <ele>400.05</ele>
        <time>2019-07-09T10:03:05Z</time>
      </trkpt>
      <trkpt lat="48.47097" lon="6.89852">
        <ele>397.16</ele>
        <time>2019-07-09T10:03:40Z</time>
      </trkpt>
      <trkpt lat="48.471" lon="6.89852">
        <ele>395.24</ele>
        <time>2019-07-09T10:04:23Z</time>
      </trkpt>
      <trkpt lat="48.47098" lon="6.89856">
        <ele>394.28</ele>
        <time>2019-07-09T10:04:43Z</time>
      </trkpt>
      <trkpt lat="48.47092" lon="6.89869">
        <ele>393.32</ele>
        <time>2019-07-09T10:04:49Z</time>
      </trkpt>
      <trkpt lat="48.4709" lon="6.89873">
        <ele>393.32</ele>
        <time>2019-07-09T10:04:50Z</time>
      </trkpt>
      <trkpt lat="48.47089" lon="6.89876">
        <ele>392.84</ele>
        <time>2019-07-09T10:04:51Z</time>
      </trkpt>
      <trkpt lat="48.47088" lon="6.89879">
        <ele>392.84</ele>
        <time>2019-07-09T10:04:52Z</time>
      </trkpt>
      <trkpt lat="48.47075" lon="6.89921">
        <ele>390.43</ele>
        <time>2019-07-09T10:05:02Z</time>
      </trkpt>
      <trkpt lat="48.47057" lon="6.89951">
        <ele>392.36</ele>
        <time>2019-07-09T10:05:12Z</time>
      </trkpt>
      <trkpt lat="48.47053" lon="6.8996">
        <ele>393.32</ele>
        <time>2019-07-09T10:05:14Z</time>
      </trkpt>
      <trkpt lat="48.47052" lon="6.89963">
        <ele>393.32</ele>
        <time>2019-07-09T10:05:15Z</time>
      </trkpt>
      <trkpt lat="48.4705" lon="6.89967">
        <ele>393.8</ele>
        <time>2019-07-09T10:05:16Z</time>
      </trkpt>
      <trkpt lat="48.47049" lon="6.89972">
        <ele>393.8</ele>
        <time>2019-07-09T10:05:17Z</time>
      </trkpt>
      <trkpt lat="48.47048" lon="6.89977">
        <ele>394.28</ele>
        <time>2019-07-09T10:05:18Z</time>
      </trkpt>
      <trkpt lat="48.47048" lon="6.8998">
        <ele>394.28</ele>
        <time>2019-07-09T10:05:19Z</time>
      </trkpt>
      <trkpt lat="48.47047" lon="6.89984">
        <ele>394.76</ele>
        <time>2019-07-09T10:05:20Z</time>
      </trkpt>
      <trkpt lat="48.47046" lon="6.89988">
        <ele>394.76</ele>
        <time>2019-07-09T10:05:21Z</time>
      </trkpt>
      <trkpt lat="48.47045" lon="6.89991">
        <ele>395.24</ele>
        <time>2019-07-09T10:05:22Z</time>
      </trkpt>
      <trkpt lat="48.47044" lon="6.89995">
        <ele>395.72</ele>
        <time>2019-07-09T10:05:23Z</time>
      </trkpt>
      <trkpt lat="48.47042" lon="6.90014">
        <ele>398.12</ele>
        <time>2019-07-09T10:05:30Z</time>
      </trkpt>
      <trkpt lat="48.47042" lon="6.90016">
        <ele>398.6</ele>
        <time>2019-07-09T10:05:31Z</time>
      </trkpt>
      <trkpt lat="48.47037" lon="6.90034">
        <ele>398.6</ele>
        <time>2019-07-09T10:05:38Z</time>
      </trkpt>
      <trkpt lat="48.47035" lon="6.90036">
        <ele>398.12</ele>
        <time>2019-07-09T10:05:39Z</time>
      </trkpt>
      <trkpt lat="48.47034" lon="6.90038">
        <ele>398.12</ele>
        <time>2019-07-09T10:05:40Z</time>
      </trkpt>
      <trkpt lat="48.47033" lon="6.90041">
        <ele>397.64</ele>
        <time>2019-07-09T10:05:41Z</time>
      </trkpt>
      <trkpt lat="48.47032" lon="6.90049">
        <ele>392.84</ele>
        <time>2019-07-09T10:05:54Z</time>
      </trkpt>
      <trkpt lat="48.47034" lon="6.90048">
        <ele>391.39</ele>
        <time>2019-07-09T10:06:05Z</time>
      </trkpt>
      <trkpt lat="48.47039" lon="6.90061">
        <ele>391.39</ele>
        <time>2019-07-09T10:06:14Z</time>
      </trkpt>
      <trkpt lat="48.47049" lon="6.90078">
        <ele>392.36</ele>
        <time>2019-07-09T10:06:25Z</time>
      </trkpt>
      <trkpt lat="48.4705" lon="6.90077">
        <ele>392.36</ele>
        <time>2019-07-09T10:06:26Z</time>
      </trkpt>
      <trkpt lat="48.47051" lon="6.90076">
        <ele>392.84</ele>
        <time>2019-07-09T10:06:27Z</time>
      </trkpt>
      <trkpt lat="48.47052" lon="6.90075">
        <ele>392.84</ele>
        <time>2019-07-09T10:06:28Z</time>
      </trkpt>
      <trkpt lat="48.47054" lon="6.90074">
        <ele>393.32</ele>
        <time>2019-07-09T10:06:29Z</time>
      </trkpt>
      <trkpt lat="48.47059" lon="6.90071">
        <ele>394.28</ele>
        <time>2019-07-09T10:06:32Z</time>
      </trkpt>
      <trkpt lat="48.47062" lon="6.90072">
        <ele>394.28</ele>
        <time>2019-07-09T10:06:33Z</time>
      </trkpt>
      <trkpt lat="48.47071" lon="6.90079">
        <ele>395.24</ele>
        <time>2019-07-09T10:06:38Z</time>
      </trkpt>
      <trkpt lat="48.47072" lon="6.90081">
        <ele>395.24</ele>
        <time>2019-07-09T10:06:39Z</time>
      </trkpt>
      <trkpt lat="48.47072" lon="6.90085">
        <ele>395.24</ele>
        <time>2019-07-09T10:06:40Z</time>
      </trkpt>
      <trkpt lat="48.47071" lon="6.90088">
        <ele>394.76</ele>
        <time>2019-07-09T10:06:41Z</time>
      </trkpt>
      <trkpt lat="48.4707" lon="6.90092">
        <ele>394.76</ele>
        <time>2019-07-09T10:06:42Z</time>
      </trkpt>
      <trkpt lat="48.47068" lon="6.90096">
        <ele>394.76</ele>
        <time>2019-07-09T10:06:43Z</time>
      </trkpt>
      <trkpt lat="48.47067" lon="6.901">
        <ele>394.28</ele>
        <time>2019-07-09T10:06:44Z</time>
      </trkpt>
      <trkpt lat="48.47055" lon="6.90147">
        <ele>390.91</ele>
        <time>2019-07-09T10:06:54Z</time>
      </trkpt>
      <trkpt lat="48.47056" lon="6.90147">
        <ele>389.95</ele>
        <time>2019-07-09T10:07:09Z</time>
      </trkpt>
      <trkpt lat="48.47047" lon="6.90161">
        <ele>385.63</ele>
        <time>2019-07-09T10:07:24Z</time>
      </trkpt>
      <trkpt lat="48.47029" lon="6.90167">
        <ele>384.18</ele>
        <time>2019-07-09T10:07:35Z</time>
      </trkpt>
      <trkpt lat="48.47011" lon="6.9016">
        <ele>383.22</ele>
        <time>2019-07-09T10:07:47Z</time>
      </trkpt>
      <trkpt lat="48.46989" lon="6.90188">
        <ele>384.18</ele>
        <time>2019-07-09T10:08:00Z</time>
      </trkpt>
      <trkpt lat="48.46981" lon="6.90191">
        <ele>384.66</ele>
        <time>2019-07-09T10:08:11Z</time>
      </trkpt>
      <trkpt lat="48.46971" lon="6.9019">
        <ele>385.63</ele>
        <time>2019-07-09T10:08:28Z</time>
      </trkpt>
      <trkpt lat="48.46929" lon="6.90177">
        <ele>385.63</ele>
        <time>2019-07-09T10:08:44Z</time>
      </trkpt>
      <trkpt lat="48.46911" lon="6.90187">
        <ele>386.11</ele>
        <time>2019-07-09T10:08:56Z</time>
      </trkpt>
      <trkpt lat="48.46907" lon="6.90193">
        <ele>384.18</ele>
        <time>2019-07-09T10:09:24Z</time>
      </trkpt>
      <trkpt lat="48.46895" lon="6.90209">
        <ele>383.7</ele>
        <time>2019-07-09T10:09:30Z</time>
      </trkpt>
      <trkpt lat="48.46891" lon="6.90216">
        <ele>383.22</ele>
        <time>2019-07-09T10:09:34Z</time>
      </trkpt>
      <trkpt lat="48.46877" lon="6.90245">
        <ele>383.22</ele>
        <time>2019-07-09T10:09:48Z</time>
      </trkpt>
      <trkpt lat="48.46877" lon="6.90247">
        <ele>385.15</ele>
        <time>2019-07-09T10:10:09Z</time>
      </trkpt>
      <trkpt lat="48.46878" lon="6.90246">
        <ele>382.74</ele>
        <time>2019-07-09T10:10:37Z</time>
      </trkpt>
      <trkpt lat="48.46871" lon="6.90269">
        <ele>384.66</ele>
        <time>2019-07-09T10:10:53Z</time>
      </trkpt>
      <trkpt lat="48.46865" lon="6.90311">
        <ele>385.63</ele>
        <time>2019-07-09T10:11:04Z</time>
      </trkpt>
      <trkpt lat="48.46873" lon="6.90352">
        <ele>386.59</ele>
        <time>2019-07-09T10:11:17Z</time>
      </trkpt>
      <trkpt lat="48.4688" lon="6.90366">
        <ele>385.63</ele>
        <time>2019-07-09T10:11:25Z</time>
      </trkpt>
      <trkpt lat="48.46884" lon="6.90376">
        <ele>385.63</ele>
        <time>2019-07-09T10:11:35Z</time>
      </trkpt>
      <trkpt lat="48.46888" lon="6.90386">
        <ele>385.15</ele>
        <time>2019-07-09T10:11:39Z</time>
      </trkpt>
      <trkpt lat="48.46895" lon="6.90408">
        <ele>384.66</ele>
        <time>2019-07-09T10:11:47Z</time>
      </trkpt>
      <trkpt lat="48.46911" lon="6.90464">
        <ele>382.26</ele>
        <time>2019-07-09T10:12:01Z</time>
      </trkpt>
      <trkpt lat="48.46917" lon="6.9049">
        <ele>382.74</ele>
        <time>2019-07-09T10:12:08Z</time>
      </trkpt>
      <trkpt lat="48.46923" lon="6.90501">
        <ele>384.18</ele>
        <time>2019-07-09T10:12:14Z</time>
      </trkpt>
      <trkpt lat="48.46933" lon="6.90518">
        <ele>384.66</ele>
        <time>2019-07-09T10:12:27Z</time>
      </trkpt>
      <trkpt lat="48.46935" lon="6.9053">
        <ele>386.59</ele>
        <time>2019-07-09T10:12:47Z</time>
      </trkpt>
      <trkpt lat="48.46938" lon="6.90539">
        <ele>386.11</ele>
        <time>2019-07-09T10:12:54Z</time>
      </trkpt>
      <trkpt lat="48.46946" lon="6.90556">
        <ele>387.55</ele>
        <time>2019-07-09T10:13:05Z</time>
      </trkpt>
      <trkpt lat="48.46953" lon="6.90571">
        <ele>389.47</ele>
        <time>2019-07-09T10:13:17Z</time>
      </trkpt>
      <trkpt lat="48.46954" lon="6.90578">
        <ele>391.87</ele>
        <time>2019-07-09T10:13:26Z</time>
      </trkpt>
      <trkpt lat="48.46936" lon="6.90564">
        <ele>392.84</ele>
        <time>2019-07-09T10:13:36Z</time>
      </trkpt>
      <trkpt lat="48.46926" lon="6.90551">
        <ele>393.32</ele>
        <time>2019-07-09T10:13:42Z</time>
      </trkpt>
      <trkpt lat="48.46923" lon="6.9055">
        <ele>393.32</ele>
        <time>2019-07-09T10:13:43Z</time>
      </trkpt>
      <trkpt lat="48.46922" lon="6.90549">
        <ele>393.8</ele>
        <time>2019-07-09T10:13:44Z</time>
      </trkpt>
      <trkpt lat="48.4692" lon="6.90549">
        <ele>394.28</ele>
        <time>2019-07-09T10:13:45Z</time>
      </trkpt>
      <trkpt lat="48.46919" lon="6.90549">
        <ele>394.28</ele>
        <time>2019-07-09T10:13:46Z</time>
      </trkpt>
      <trkpt lat="48.46917" lon="6.90549">
        <ele>394.76</ele>
        <time>2019-07-09T10:13:47Z</time>
      </trkpt>
      <trkpt lat="48.46916" lon="6.90549">
        <ele>394.76</ele>
        <time>2019-07-09T10:13:48Z</time>
      </trkpt>
      <trkpt lat="48.46911" lon="6.90552">
        <ele>396.68</ele>
        <time>2019-07-09T10:13:52Z</time>
      </trkpt>
      <trkpt lat="48.46905" lon="6.90559">
        <ele>399.08</ele>
        <time>2019-07-09T10:13:57Z</time>
      </trkpt>
      <trkpt lat="48.46878" lon="6.90567">
        <ele>403.41</ele>
        <time>2019-07-09T10:14:11Z</time>
      </trkpt>
      <trkpt lat="48.46854" lon="6.90581">
        <ele>408.22</ele>
        <time>2019-07-09T10:14:26Z</time>
      </trkpt>
      <trkpt lat="48.46855" lon="6.90574">
        <ele>403.41</ele>
        <time>2019-07-09T10:14:42Z</time>
      </trkpt>
      <trkpt lat="48.46854" lon="6.90572">
        <ele>405.81</ele>
        <time>2019-07-09T10:14:50Z</time>
      </trkpt>
      <trkpt lat="48.46841" lon="6.90589">
        <ele>408.22</ele>
        <time>2019-07-09T10:15:03Z</time>
      </trkpt>
      <trkpt lat="48.46838" lon="6.90592">
        <ele>408.7</ele>
        <time>2019-07-09T10:15:06Z</time>
      </trkpt>
      <trkpt lat="48.46837" lon="6.90607">
        <ele>410.14</ele>
        <time>2019-07-09T10:15:11Z</time>
      </trkpt>
      <trkpt lat="48.46815" lon="6.90628">
        <ele>413.98</ele>
        <time>2019-07-09T10:15:23Z</time>
      </trkpt>
      <trkpt lat="48.46793" lon="6.90645">
        <ele>422.16</ele>
        <time>2019-07-09T10:15:35Z</time>
      </trkpt>
      <trkpt lat="48.46766" lon="6.90672">
        <ele>428.4</ele>
        <time>2019-07-09T10:15:49Z</time>
      </trkpt>
      <trkpt lat="48.4676" lon="6.9068">
        <ele>430.33</ele>
        <time>2019-07-09T10:16:02Z</time>
      </trkpt>
      <trkpt lat="48.46747" lon="6.90706">
        <ele>430.81</ele>
        <time>2019-07-09T10:16:13Z</time>
      </trkpt>
      <trkpt lat="48.46731" lon="6.90737">
        <ele>433.21</ele>
        <time>2019-07-09T10:16:25Z</time>
      </trkpt>
      <trkpt lat="48.46711" lon="6.90783">
        <ele>438.5</ele>
        <time>2019-07-09T10:16:41Z</time>
      </trkpt>
      <trkpt lat="48.46707" lon="6.9082">
        <ele>439.94</ele>
        <time>2019-07-09T10:16:55Z</time>
      </trkpt>
      <trkpt lat="48.46713" lon="6.90871">
        <ele>437.06</ele>
        <time>2019-07-09T10:17:08Z</time>
      </trkpt>
      <trkpt lat="48.46713" lon="6.90936">
        <ele>434.65</ele>
        <time>2019-07-09T10:17:25Z</time>
      </trkpt>
      <trkpt lat="48.46719" lon="6.91003">
        <ele>430.81</ele>
        <time>2019-07-09T10:17:40Z</time>
      </trkpt>
      <trkpt lat="48.46746" lon="6.91054">
        <ele>430.33</ele>
        <time>2019-07-09T10:17:55Z</time>
      </trkpt>
      <trkpt lat="48.46783" lon="6.91094">
        <ele>431.77</ele>
        <time>2019-07-09T10:18:09Z</time>
      </trkpt>
      <trkpt lat="48.46809" lon="6.91123">
        <ele>430.81</ele>
        <time>2019-07-09T10:18:20Z</time>
      </trkpt>
      <trkpt lat="48.46836" lon="6.91164">
        <ele>431.77</ele>
        <time>2019-07-09T10:18:29Z</time>
      </trkpt>
      <trkpt lat="48.46839" lon="6.91171">
        <ele>431.77</ele>
        <time>2019-07-09T10:18:30Z</time>
      </trkpt>
      <trkpt lat="48.46841" lon="6.91178">
        <ele>431.77</ele>
        <time>2019-07-09T10:18:31Z</time>
      </trkpt>
      <trkpt lat="48.46852" lon="6.91215">
        <ele>430.81</ele>
        <time>2019-07-09T10:18:41Z</time>
      </trkpt>
      <trkpt lat="48.46854" lon="6.91241">
        <ele>432.25</ele>
        <time>2019-07-09T10:18:51Z</time>
      </trkpt>
      <trkpt lat="48.46853" lon="6.91244">
        <ele>432.25</ele>
        <time>2019-07-09T10:18:52Z</time>
      </trkpt>
      <trkpt lat="48.46852" lon="6.91249">
        <ele>432.25</ele>
        <time>2019-07-09T10:18:53Z</time>
      </trkpt>
      <trkpt lat="48.4685" lon="6.91261">
        <ele>432.25</ele>
        <time>2019-07-09T10:18:55Z</time>
      </trkpt>
      <trkpt lat="48.46848" lon="6.91266">
        <ele>432.25</ele>
        <time>2019-07-09T10:18:56Z</time>
      </trkpt>
      <trkpt lat="48.46845" lon="6.91272">
        <ele>432.73</ele>
        <time>2019-07-09T10:18:57Z</time>
      </trkpt>
      <trkpt lat="48.46842" lon="6.91275">
        <ele>432.73</ele>
        <time>2019-07-09T10:18:58Z</time>
      </trkpt>
      <trkpt lat="48.46839" lon="6.91278">
        <ele>432.25</ele>
        <time>2019-07-09T10:18:59Z</time>
      </trkpt>
      <trkpt lat="48.46828" lon="6.9128">
        <ele>431.77</ele>
        <time>2019-07-09T10:19:02Z</time>
      </trkpt>
      <trkpt lat="48.46806" lon="6.91276">
        <ele>429.37</ele>
        <time>2019-07-09T10:19:07Z</time>
      </trkpt>
      <trkpt lat="48.46788" lon="6.9127">
        <ele>426</ele>
        <time>2019-07-09T10:19:11Z</time>
      </trkpt>
      <trkpt lat="48.46767" lon="6.91265">
        <ele>421.68</ele>
        <time>2019-07-09T10:19:16Z</time>
      </trkpt>
      <trkpt lat="48.46758" lon="6.91265">
        <ele>419.75</ele>
        <time>2019-07-09T10:19:18Z</time>
      </trkpt>
      <trkpt lat="48.46753" lon="6.91265">
        <ele>418.79</ele>
        <time>2019-07-09T10:19:19Z</time>
      </trkpt>
      <trkpt lat="48.46741" lon="6.91268">
        <ele>416.87</ele>
        <time>2019-07-09T10:19:21Z</time>
      </trkpt>
      <trkpt lat="48.4666" lon="6.91295">
        <ele>412.06</ele>
        <time>2019-07-09T10:19:33Z</time>
      </trkpt>
      <trkpt lat="48.46605" lon="6.91309">
        <ele>410.14</ele>
        <time>2019-07-09T10:19:47Z</time>
      </trkpt>
      <trkpt lat="48.46573" lon="6.91341">
        <ele>407.74</ele>
        <time>2019-07-09T10:20:00Z</time>
      </trkpt>
      <trkpt lat="48.46566" lon="6.91351">
        <ele>406.77</ele>
        <time>2019-07-09T10:20:09Z</time>
      </trkpt>
      <trkpt lat="48.46566" lon="6.91353">
        <ele>406.29</ele>
        <time>2019-07-09T10:20:10Z</time>
      </trkpt>
      <trkpt lat="48.46565" lon="6.91355">
        <ele>406.29</ele>
        <time>2019-07-09T10:20:11Z</time>
      </trkpt>
      <trkpt lat="48.46563" lon="6.91358">
        <ele>405.81</ele>
        <time>2019-07-09T10:20:12Z</time>
      </trkpt>
      <trkpt lat="48.46562" lon="6.91361">
        <ele>405.81</ele>
        <time>2019-07-09T10:20:13Z</time>
      </trkpt>
      <trkpt lat="48.4656" lon="6.91365">
        <ele>405.33</ele>
        <time>2019-07-09T10:20:14Z</time>
      </trkpt>
      <trkpt lat="48.46558" lon="6.91368">
        <ele>405.33</ele>
        <time>2019-07-09T10:20:15Z</time>
      </trkpt>
      <trkpt lat="48.46546" lon="6.91436">
        <ele>406.29</ele>
        <time>2019-07-09T10:20:29Z</time>
      </trkpt>
      <trkpt lat="48.46544" lon="6.91517">
        <ele>408.7</ele>
        <time>2019-07-09T10:20:44Z</time>
      </trkpt>
      <trkpt lat="48.46545" lon="6.91525">
        <ele>408.7</ele>
        <time>2019-07-09T10:20:45Z</time>
      </trkpt>
      <trkpt lat="48.46545" lon="6.91531">
        <ele>408.7</ele>
        <time>2019-07-09T10:20:46Z</time>
      </trkpt>
      <trkpt lat="48.46549" lon="6.91552">
        <ele>408.7</ele>
        <time>2019-07-09T10:20:49Z</time>
      </trkpt>
      <trkpt lat="48.46551" lon="6.91558">
        <ele>408.22</ele>
        <time>2019-07-09T10:20:50Z</time>
      </trkpt>
      <trkpt lat="48.46553" lon="6.91564">
        <ele>408.22</ele>
        <time>2019-07-09T10:20:51Z</time>
      </trkpt>
      <trkpt lat="48.46586" lon="6.91605">
        <ele>408.22</ele>
        <time>2019-07-09T10:21:04Z</time>
      </trkpt>
      <trkpt lat="48.46618" lon="6.91595">
        <ele>407.74</ele>
        <time>2019-07-09T10:21:15Z</time>
      </trkpt>
      <trkpt lat="48.46628" lon="6.91584">
        <ele>406.77</ele>
        <time>2019-07-09T10:21:24Z</time>
      </trkpt>
      <trkpt lat="48.4663" lon="6.91583">
        <ele>404.85</ele>
        <time>2019-07-09T10:21:37Z</time>
      </trkpt>
      <trkpt lat="48.46632" lon="6.91586">
        <ele>404.85</ele>
        <time>2019-07-09T10:21:55Z</time>
      </trkpt>
      <trkpt lat="48.46635" lon="6.9158">
        <ele>404.85</ele>
        <time>2019-07-09T10:21:59Z</time>
      </trkpt>
      <trkpt lat="48.46636" lon="6.91577">
        <ele>404.85</ele>
        <time>2019-07-09T10:22:00Z</time>
      </trkpt>
      <trkpt lat="48.46638" lon="6.91575">
        <ele>404.37</ele>
        <time>2019-07-09T10:22:01Z</time>
      </trkpt>
      <trkpt lat="48.46659" lon="6.9154">
        <ele>408.22</ele>
        <time>2019-07-09T10:22:12Z</time>
      </trkpt>
      <trkpt lat="48.46692" lon="6.91495">
        <ele>416.39</ele>
        <time>2019-07-09T10:22:26Z</time>
      </trkpt>
      <trkpt lat="48.46724" lon="6.91448">
        <ele>418.79</ele>
        <time>2019-07-09T10:22:39Z</time>
      </trkpt>
      <trkpt lat="48.46742" lon="6.91438">
        <ele>421.19</ele>
        <time>2019-07-09T10:22:44Z</time>
      </trkpt>
      <trkpt lat="48.46751" lon="6.91436">
        <ele>421.68</ele>
        <time>2019-07-09T10:22:46Z</time>
      </trkpt>
      <trkpt lat="48.46755" lon="6.91434">
        <ele>422.16</ele>
        <time>2019-07-09T10:22:47Z</time>
      </trkpt>
      <trkpt lat="48.4676" lon="6.91431">
        <ele>422.64</ele>
        <time>2019-07-09T10:22:48Z</time>
      </trkpt>
      <trkpt lat="48.46764" lon="6.91429">
        <ele>423.12</ele>
        <time>2019-07-09T10:22:49Z</time>
      </trkpt>
      <trkpt lat="48.46768" lon="6.91427">
        <ele>423.6</ele>
        <time>2019-07-09T10:22:50Z</time>
      </trkpt>
      <trkpt lat="48.46773" lon="6.91426">
        <ele>424.08</ele>
        <time>2019-07-09T10:22:51Z</time>
      </trkpt>
      <trkpt lat="48.46777" lon="6.91424">
        <ele>424.56</ele>
        <time>2019-07-09T10:22:52Z</time>
      </trkpt>
      <trkpt lat="48.4678" lon="6.91423">
        <ele>425.04</ele>
        <time>2019-07-09T10:22:53Z</time>
      </trkpt>
      <trkpt lat="48.46784" lon="6.91421">
        <ele>425.52</ele>
        <time>2019-07-09T10:22:54Z</time>
      </trkpt>
      <trkpt lat="48.46788" lon="6.9142">
        <ele>426</ele>
        <time>2019-07-09T10:22:55Z</time>
      </trkpt>
      <trkpt lat="48.46791" lon="6.9142">
        <ele>426.48</ele>
        <time>2019-07-09T10:22:56Z</time>
      </trkpt>
      <trkpt lat="48.46794" lon="6.91419">
        <ele>426.96</ele>
        <time>2019-07-09T10:22:57Z</time>
      </trkpt>
      <trkpt lat="48.46797" lon="6.91418">
        <ele>426.96</ele>
        <time>2019-07-09T10:22:58Z</time>
      </trkpt>
      <trkpt lat="48.46821" lon="6.91408">
        <ele>427.44</ele>
        <time>2019-07-09T10:23:10Z</time>
      </trkpt>
      <trkpt lat="48.46832" lon="6.91402">
        <ele>428.4</ele>
        <time>2019-07-09T10:23:18Z</time>
      </trkpt>
      <trkpt lat="48.46834" lon="6.91402">
        <ele>428.4</ele>
        <time>2019-07-09T10:23:19Z</time>
      </trkpt>
      <trkpt lat="48.46835" lon="6.91401">
        <ele>428.4</ele>
        <time>2019-07-09T10:23:20Z</time>
      </trkpt>
      <trkpt lat="48.46854" lon="6.91396">
        <ele>428.89</ele>
        <time>2019-07-09T10:23:34Z</time>
      </trkpt>
      <trkpt lat="48.46863" lon="6.9139">
        <ele>428.89</ele>
        <time>2019-07-09T10:23:41Z</time>
      </trkpt>
      <trkpt lat="48.46889" lon="6.91385">
        <ele>428.4</ele>
        <time>2019-07-09T10:23:58Z</time>
      </trkpt>
      <trkpt lat="48.46892" lon="6.91386">
        <ele>427.92</ele>
        <time>2019-07-09T10:24:00Z</time>
      </trkpt>
      <trkpt lat="48.46896" lon="6.91388">
        <ele>427.92</ele>
        <time>2019-07-09T10:24:04Z</time>
      </trkpt>
      <trkpt lat="48.469" lon="6.91392">
        <ele>428.4</ele>
        <time>2019-07-09T10:24:07Z</time>
      </trkpt>
      <trkpt lat="48.46901" lon="6.91393">
        <ele>428.4</ele>
        <time>2019-07-09T10:24:08Z</time>
      </trkpt>
      <trkpt lat="48.46906" lon="6.91396">
        <ele>428.4</ele>
        <time>2019-07-09T10:24:12Z</time>
      </trkpt>
      <trkpt lat="48.46919" lon="6.91407">
        <ele>427.44</ele>
        <time>2019-07-09T10:24:24Z</time>
      </trkpt>
      <trkpt lat="48.46919" lon="6.91409">
        <ele>427.44</ele>
        <time>2019-07-09T10:24:25Z</time>
      </trkpt>
      <trkpt lat="48.4692" lon="6.9141">
        <ele>427.44</ele>
        <time>2019-07-09T10:24:26Z</time>
      </trkpt>
      <trkpt lat="48.46921" lon="6.91412">
        <ele>427.44</ele>
        <time>2019-07-09T10:24:27Z</time>
      </trkpt>
      <trkpt lat="48.46922" lon="6.91414">
        <ele>427.44</ele>
        <time>2019-07-09T10:24:28Z</time>
      </trkpt>
      <trkpt lat="48.46924" lon="6.91417">
        <ele>427.92</ele>
        <time>2019-07-09T10:24:31Z</time>
      </trkpt>
      <trkpt lat="48.46925" lon="6.91419">
        <ele>428.4</ele>
        <time>2019-07-09T10:24:32Z</time>
      </trkpt>
      <trkpt lat="48.46926" lon="6.9142">
        <ele>428.4</ele>
        <time>2019-07-09T10:24:33Z</time>
      </trkpt>
      <trkpt lat="48.46928" lon="6.91421">
        <ele>428.4</ele>
        <time>2019-07-09T10:24:34Z</time>
      </trkpt>
      <trkpt lat="48.46929" lon="6.91421">
        <ele>428.4</ele>
        <time>2019-07-09T10:24:35Z</time>
      </trkpt>
      <trkpt lat="48.46931" lon="6.91422">
        <ele>428.4</ele>
        <time>2019-07-09T10:24:36Z</time>
      </trkpt>
      <trkpt lat="48.46932" lon="6.91423">
        <ele>428.89</ele>
        <time>2019-07-09T10:24:37Z</time>
      </trkpt>
      <trkpt lat="48.46933" lon="6.91424">
        <ele>428.89</ele>
        <time>2019-07-09T10:24:38Z</time>
      </trkpt>
      <trkpt lat="48.46941" lon="6.91427">
        <ele>429.37</ele>
        <time>2019-07-09T10:24:44Z</time>
      </trkpt>
      <trkpt lat="48.46942" lon="6.91428">
        <ele>429.37</ele>
        <time>2019-07-09T10:24:45Z</time>
      </trkpt>
      <trkpt lat="48.46943" lon="6.91429">
        <ele>429.37</ele>
        <time>2019-07-09T10:24:46Z</time>
      </trkpt>
      <trkpt lat="48.46945" lon="6.9143">
        <ele>429.37</ele>
        <time>2019-07-09T10:24:47Z</time>
      </trkpt>
      <trkpt lat="48.46946" lon="6.91431">
        <ele>429.85</ele>
        <time>2019-07-09T10:24:48Z</time>
      </trkpt>
      <trkpt lat="48.46947" lon="6.91432">
        <ele>429.85</ele>
        <time>2019-07-09T10:24:49Z</time>
      </trkpt>
      <trkpt lat="48.46948" lon="6.91433">
        <ele>429.85</ele>
        <time>2019-07-09T10:24:50Z</time>
      </trkpt>
      <trkpt lat="48.46949" lon="6.91433">
        <ele>429.85</ele>
        <time>2019-07-09T10:24:51Z</time>
      </trkpt>
      <trkpt lat="48.46951" lon="6.91434">
        <ele>430.33</ele>
        <time>2019-07-09T10:24:52Z</time>
      </trkpt>
      <trkpt lat="48.46952" lon="6.91435">
        <ele>430.33</ele>
        <time>2019-07-09T10:24:53Z</time>
      </trkpt>
      <trkpt lat="48.46955" lon="6.91436">
        <ele>430.81</ele>
        <time>2019-07-09T10:24:56Z</time>
      </trkpt>
      <trkpt lat="48.46957" lon="6.91436">
        <ele>430.81</ele>
        <time>2019-07-09T10:24:57Z</time>
      </trkpt>
      <trkpt lat="48.46958" lon="6.91436">
        <ele>431.29</ele>
        <time>2019-07-09T10:24:58Z</time>
      </trkpt>
      <trkpt lat="48.46967" lon="6.91437">
        <ele>434.17</ele>
        <time>2019-07-09T10:25:06Z</time>
      </trkpt>
      <trkpt lat="48.46969" lon="6.9143">
        <ele>433.21</ele>
        <time>2019-07-09T10:25:19Z</time>
      </trkpt>
      <trkpt lat="48.4697" lon="6.91429">
        <ele>433.21</ele>
        <time>2019-07-09T10:25:20Z</time>
      </trkpt>
      <trkpt lat="48.46972" lon="6.9143">
        <ele>433.21</ele>
        <time>2019-07-09T10:25:21Z</time>
      </trkpt>
      <trkpt lat="48.4698" lon="6.91429">
        <ele>433.69</ele>
        <time>2019-07-09T10:25:26Z</time>
      </trkpt>
      <trkpt lat="48.46982" lon="6.91427">
        <ele>433.69</ele>
        <time>2019-07-09T10:25:27Z</time>
      </trkpt>
      <trkpt lat="48.46983" lon="6.91425">
        <ele>434.17</ele>
        <time>2019-07-09T10:25:28Z</time>
      </trkpt>
      <trkpt lat="48.46984" lon="6.91422">
        <ele>434.17</ele>
        <time>2019-07-09T10:25:29Z</time>
      </trkpt>
      <trkpt lat="48.46985" lon="6.91419">
        <ele>433.69</ele>
        <time>2019-07-09T10:25:30Z</time>
      </trkpt>
      <trkpt lat="48.46987" lon="6.91381">
        <ele>432.73</ele>
        <time>2019-07-09T10:25:44Z</time>
      </trkpt>
      <trkpt lat="48.46985" lon="6.91361">
        <ele>433.69</ele>
        <time>2019-07-09T10:25:54Z</time>
      </trkpt>
      <trkpt lat="48.46982" lon="6.91353">
        <ele>434.65</ele>
        <time>2019-07-09T10:25:58Z</time>
      </trkpt>
      <trkpt lat="48.46978" lon="6.91347">
        <ele>434.65</ele>
        <time>2019-07-09T10:26:02Z</time>
      </trkpt>
      <trkpt lat="48.46976" lon="6.91337">
        <ele>435.61</ele>
        <time>2019-07-09T10:26:06Z</time>
      </trkpt>
      <trkpt lat="48.46974" lon="6.91319">
        <ele>435.61</ele>
        <time>2019-07-09T10:26:12Z</time>
      </trkpt>
      <trkpt lat="48.46971" lon="6.913">
        <ele>437.06</ele>
        <time>2019-07-09T10:26:19Z</time>
      </trkpt>
      <trkpt lat="48.46968" lon="6.91292">
        <ele>438.5</ele>
        <time>2019-07-09T10:26:23Z</time>
      </trkpt>
      <trkpt lat="48.46966" lon="6.91284">
        <ele>439.94</ele>
        <time>2019-07-09T10:26:27Z</time>
      </trkpt>
      <trkpt lat="48.46964" lon="6.91281">
        <ele>440.42</ele>
        <time>2019-07-09T10:26:29Z</time>
      </trkpt>
      <trkpt lat="48.46962" lon="6.91265">
        <ele>442.82</ele>
        <time>2019-07-09T10:26:35Z</time>
      </trkpt>
      <trkpt lat="48.4696" lon="6.91248">
        <ele>443.79</ele>
        <time>2019-07-09T10:26:42Z</time>
      </trkpt>
      <trkpt lat="48.46959" lon="6.9123">
        <ele>444.27</ele>
        <time>2019-07-09T10:26:47Z</time>
      </trkpt>
      <trkpt lat="48.46958" lon="6.91226">
        <ele>444.27</ele>
        <time>2019-07-09T10:26:49Z</time>
      </trkpt>
      <trkpt lat="48.46966" lon="6.91177">
        <ele>445.71</ele>
        <time>2019-07-09T10:27:03Z</time>
      </trkpt>
      <trkpt lat="48.46972" lon="6.91153">
        <ele>447.63</ele>
        <time>2019-07-09T10:27:09Z</time>
      </trkpt>
      <trkpt lat="48.46981" lon="6.91106">
        <ele>450.03</ele>
        <time>2019-07-09T10:27:19Z</time>
      </trkpt>
      <trkpt lat="48.46984" lon="6.91091">
        <ele>451</ele>
        <time>2019-07-09T10:27:21Z</time>
      </trkpt>
      <trkpt lat="48.46987" lon="6.91084">
        <ele>450.52</ele>
        <time>2019-07-09T10:27:22Z</time>
      </trkpt>
      <trkpt lat="48.4699" lon="6.91071">
        <ele>450.52</ele>
        <time>2019-07-09T10:27:24Z</time>
      </trkpt>
      <trkpt lat="48.46991" lon="6.91064">
        <ele>450.52</ele>
        <time>2019-07-09T10:27:25Z</time>
      </trkpt>
      <trkpt lat="48.46994" lon="6.91059">
        <ele>450.52</ele>
        <time>2019-07-09T10:27:26Z</time>
      </trkpt>
      <trkpt lat="48.47002" lon="6.91044">
        <ele>450.03</ele>
        <time>2019-07-09T10:27:29Z</time>
      </trkpt>
      <trkpt lat="48.47004" lon="6.91039">
        <ele>449.55</ele>
        <time>2019-07-09T10:27:30Z</time>
      </trkpt>
      <trkpt lat="48.47007" lon="6.91035">
        <ele>449.55</ele>
        <time>2019-07-09T10:27:31Z</time>
      </trkpt>
      <trkpt lat="48.47009" lon="6.91034">
        <ele>449.07</ele>
        <time>2019-07-09T10:27:32Z</time>
      </trkpt>
      <trkpt lat="48.47016" lon="6.91031">
        <ele>448.59</ele>
        <time>2019-07-09T10:27:35Z</time>
      </trkpt>
      <trkpt lat="48.47048" lon="6.91001">
        <ele>445.23</ele>
        <time>2019-07-09T10:27:41Z</time>
      </trkpt>
      <trkpt lat="48.47077" lon="6.90984">
        <ele>441.86</ele>
        <time>2019-07-09T10:27:49Z</time>
      </trkpt>
      <trkpt lat="48.47094" lon="6.90989">
        <ele>439.94</ele>
        <time>2019-07-09T10:27:54Z</time>
      </trkpt>
      <trkpt lat="48.471" lon="6.90983">
        <ele>437.54</ele>
        <time>2019-07-09T10:27:57Z</time>
      </trkpt>
      <trkpt lat="48.47101" lon="6.9098">
        <ele>436.58</ele>
        <time>2019-07-09T10:27:58Z</time>
      </trkpt>
      <trkpt lat="48.47108" lon="6.90966">
        <ele>433.69</ele>
        <time>2019-07-09T10:28:05Z</time>
      </trkpt>
      <trkpt lat="48.4711" lon="6.90967">
        <ele>433.21</ele>
        <time>2019-07-09T10:28:06Z</time>
      </trkpt>
      <trkpt lat="48.47112" lon="6.90968">
        <ele>432.73</ele>
        <time>2019-07-09T10:28:07Z</time>
      </trkpt>
      <trkpt lat="48.47114" lon="6.90969">
        <ele>432.25</ele>
        <time>2019-07-09T10:28:08Z</time>
      </trkpt>
      <trkpt lat="48.47117" lon="6.90971">
        <ele>431.77</ele>
        <time>2019-07-09T10:28:09Z</time>
      </trkpt>
      <trkpt lat="48.47119" lon="6.90973">
        <ele>431.29</ele>
        <time>2019-07-09T10:28:10Z</time>
      </trkpt>
      <trkpt lat="48.47123" lon="6.90974">
        <ele>430.81</ele>
        <time>2019-07-09T10:28:11Z</time>
      </trkpt>
      <trkpt lat="48.47126" lon="6.90974">
        <ele>430.33</ele>
        <time>2019-07-09T10:28:12Z</time>
      </trkpt>
      <trkpt lat="48.47146" lon="6.90968">
        <ele>427.92</ele>
        <time>2019-07-09T10:28:18Z</time>
      </trkpt>
      <trkpt lat="48.47154" lon="6.90961">
        <ele>426.96</ele>
        <time>2019-07-09T10:28:20Z</time>
      </trkpt>
      <trkpt lat="48.47164" lon="6.90955">
        <ele>426</ele>
        <time>2019-07-09T10:28:22Z</time>
      </trkpt>
      <trkpt lat="48.47169" lon="6.90954">
        <ele>426</ele>
        <time>2019-07-09T10:28:23Z</time>
      </trkpt>
      <trkpt lat="48.47175" lon="6.90954">
        <ele>425.52</ele>
        <time>2019-07-09T10:28:24Z</time>
      </trkpt>
      <trkpt lat="48.47181" lon="6.90957">
        <ele>424.56</ele>
        <time>2019-07-09T10:28:25Z</time>
      </trkpt>
      <trkpt lat="48.47186" lon="6.90961">
        <ele>423.6</ele>
        <time>2019-07-09T10:28:26Z</time>
      </trkpt>
      <trkpt lat="48.47192" lon="6.90966">
        <ele>423.12</ele>
        <time>2019-07-09T10:28:27Z</time>
      </trkpt>
      <trkpt lat="48.47197" lon="6.90972">
        <ele>422.16</ele>
        <time>2019-07-09T10:28:28Z</time>
      </trkpt>
      <trkpt lat="48.47201" lon="6.90978">
        <ele>421.68</ele>
        <time>2019-07-09T10:28:29Z</time>
      </trkpt>
      <trkpt lat="48.47206" lon="6.90984">
        <ele>420.71</ele>
        <time>2019-07-09T10:28:30Z</time>
      </trkpt>
      <trkpt lat="48.47215" lon="6.90996">
        <ele>419.75</ele>
        <time>2019-07-09T10:28:32Z</time>
      </trkpt>
      <trkpt lat="48.47225" lon="6.91004">
        <ele>418.31</ele>
        <time>2019-07-09T10:28:34Z</time>
      </trkpt>
      <trkpt lat="48.47229" lon="6.91007">
        <ele>417.83</ele>
        <time>2019-07-09T10:28:35Z</time>
      </trkpt>
      <trkpt lat="48.47237" lon="6.91012">
        <ele>417.35</ele>
        <time>2019-07-09T10:28:37Z</time>
      </trkpt>
      <trkpt lat="48.47242" lon="6.91015">
        <ele>416.87</ele>
        <time>2019-07-09T10:28:38Z</time>
      </trkpt>
      <trkpt lat="48.47247" lon="6.91016">
        <ele>416.87</ele>
        <time>2019-07-09T10:28:39Z</time>
      </trkpt>
      <trkpt lat="48.47251" lon="6.91018">
        <ele>416.39</ele>
        <time>2019-07-09T10:28:40Z</time>
      </trkpt>
      <trkpt lat="48.47256" lon="6.91018">
        <ele>416.39</ele>
        <time>2019-07-09T10:28:41Z</time>
      </trkpt>
      <trkpt lat="48.47261" lon="6.91016">
        <ele>415.91</ele>
        <time>2019-07-09T10:28:42Z</time>
      </trkpt>
      <trkpt lat="48.47265" lon="6.91013">
        <ele>415.91</ele>
        <time>2019-07-09T10:28:43Z</time>
      </trkpt>
      <trkpt lat="48.47269" lon="6.9101">
        <ele>415.91</ele>
        <time>2019-07-09T10:28:44Z</time>
      </trkpt>
      <trkpt lat="48.47287" lon="6.90997">
        <ele>415.91</ele>
        <time>2019-07-09T10:28:48Z</time>
      </trkpt>
      <trkpt lat="48.47309" lon="6.9099">
        <ele>416.39</ele>
        <time>2019-07-09T10:28:53Z</time>
      </trkpt>
      <trkpt lat="48.47312" lon="6.90988">
        <ele>416.39</ele>
        <time>2019-07-09T10:28:54Z</time>
      </trkpt>
      <trkpt lat="48.47335" lon="6.90979">
        <ele>416.39</ele>
        <time>2019-07-09T10:29:00Z</time>
      </trkpt>
      <trkpt lat="48.47352" lon="6.9098">
        <ele>417.35</ele>
        <time>2019-07-09T10:29:04Z</time>
      </trkpt>
      <trkpt lat="48.47356" lon="6.90982">
        <ele>417.83</ele>
        <time>2019-07-09T10:29:05Z</time>
      </trkpt>
      <trkpt lat="48.47365" lon="6.90988">
        <ele>418.31</ele>
        <time>2019-07-09T10:29:07Z</time>
      </trkpt>
      <trkpt lat="48.47368" lon="6.90992">
        <ele>418.31</ele>
        <time>2019-07-09T10:29:08Z</time>
      </trkpt>
      <trkpt lat="48.47376" lon="6.91">
        <ele>418.31</ele>
        <time>2019-07-09T10:29:10Z</time>
      </trkpt>
      <trkpt lat="48.47386" lon="6.91015">
        <ele>418.31</ele>
        <time>2019-07-09T10:29:13Z</time>
      </trkpt>
      <trkpt lat="48.47391" lon="6.91018">
        <ele>418.31</ele>
        <time>2019-07-09T10:29:14Z</time>
      </trkpt>
      <trkpt lat="48.47396" lon="6.9102">
        <ele>418.31</ele>
        <time>2019-07-09T10:29:15Z</time>
      </trkpt>
      <trkpt lat="48.474" lon="6.9102">
        <ele>418.31</ele>
        <time>2019-07-09T10:29:16Z</time>
      </trkpt>
      <trkpt lat="48.47405" lon="6.91017">
        <ele>418.31</ele>
        <time>2019-07-09T10:29:17Z</time>
      </trkpt>
      <trkpt lat="48.47408" lon="6.91012">
        <ele>418.31</ele>
        <time>2019-07-09T10:29:18Z</time>
      </trkpt>
      <trkpt lat="48.47412" lon="6.91006">
        <ele>418.31</ele>
        <time>2019-07-09T10:29:19Z</time>
      </trkpt>
      <trkpt lat="48.47415" lon="6.90999">
        <ele>418.31</ele>
        <time>2019-07-09T10:29:20Z</time>
      </trkpt>
      <trkpt lat="48.47417" lon="6.90991">
        <ele>417.83</ele>
        <time>2019-07-09T10:29:21Z</time>
      </trkpt>
      <trkpt lat="48.47419" lon="6.90983">
        <ele>417.35</ele>
        <time>2019-07-09T10:29:22Z</time>
      </trkpt>
      <trkpt lat="48.47419" lon="6.90974">
        <ele>416.87</ele>
        <time>2019-07-09T10:29:23Z</time>
      </trkpt>
      <trkpt lat="48.47419" lon="6.90964">
        <ele>415.91</ele>
        <time>2019-07-09T10:29:24Z</time>
      </trkpt>
      <trkpt lat="48.47418" lon="6.90954">
        <ele>414.95</ele>
        <time>2019-07-09T10:29:25Z</time>
      </trkpt>
      <trkpt lat="48.47398" lon="6.90815">
        <ele>404.85</ele>
        <time>2019-07-09T10:29:37Z</time>
      </trkpt>
      <trkpt lat="48.47392" lon="6.9072">
        <ele>399.57</ele>
        <time>2019-07-09T10:29:45Z</time>
      </trkpt>
      <trkpt lat="48.47393" lon="6.90708">
        <ele>399.08</ele>
        <time>2019-07-09T10:29:46Z</time>
      </trkpt>
      <trkpt lat="48.47395" lon="6.90698">
        <ele>398.6</ele>
        <time>2019-07-09T10:29:47Z</time>
      </trkpt>
      <trkpt lat="48.47398" lon="6.90689">
        <ele>398.12</ele>
        <time>2019-07-09T10:29:48Z</time>
      </trkpt>
      <trkpt lat="48.47402" lon="6.90683">
        <ele>398.12</ele>
        <time>2019-07-09T10:29:49Z</time>
      </trkpt>
      <trkpt lat="48.47407" lon="6.90677">
        <ele>397.64</ele>
        <time>2019-07-09T10:29:50Z</time>
      </trkpt>
      <trkpt lat="48.47411" lon="6.90673">
        <ele>397.64</ele>
        <time>2019-07-09T10:29:51Z</time>
      </trkpt>
      <trkpt lat="48.47421" lon="6.90663">
        <ele>398.12</ele>
        <time>2019-07-09T10:29:53Z</time>
      </trkpt>
      <trkpt lat="48.47425" lon="6.90659">
        <ele>398.12</ele>
        <time>2019-07-09T10:29:54Z</time>
      </trkpt>
      <trkpt lat="48.47429" lon="6.90654">
        <ele>398.12</ele>
        <time>2019-07-09T10:29:55Z</time>
      </trkpt>
      <trkpt lat="48.47432" lon="6.90648">
        <ele>398.6</ele>
        <time>2019-07-09T10:29:56Z</time>
      </trkpt>
      <trkpt lat="48.47435" lon="6.90642">
        <ele>398.12</ele>
        <time>2019-07-09T10:29:57Z</time>
      </trkpt>
      <trkpt lat="48.47438" lon="6.90636">
        <ele>398.6</ele>
        <time>2019-07-09T10:29:58Z</time>
      </trkpt>
      <trkpt lat="48.47441" lon="6.90631">
        <ele>398.6</ele>
        <time>2019-07-09T10:29:59Z</time>
      </trkpt>
      <trkpt lat="48.47446" lon="6.90626">
        <ele>398.6</ele>
        <time>2019-07-09T10:30:00Z</time>
      </trkpt>
      <trkpt lat="48.4745" lon="6.90623">
        <ele>398.6</ele>
        <time>2019-07-09T10:30:01Z</time>
      </trkpt>
      <trkpt lat="48.47454" lon="6.90621">
        <ele>399.08</ele>
        <time>2019-07-09T10:30:02Z</time>
      </trkpt>
      <trkpt lat="48.47459" lon="6.9062">
        <ele>399.57</ele>
        <time>2019-07-09T10:30:03Z</time>
      </trkpt>
      <trkpt lat="48.47464" lon="6.90621">
        <ele>399.57</ele>
        <time>2019-07-09T10:30:04Z</time>
      </trkpt>
      <trkpt lat="48.47468" lon="6.90623">
        <ele>399.57</ele>
        <time>2019-07-09T10:30:05Z</time>
      </trkpt>
      <trkpt lat="48.47472" lon="6.90625">
        <ele>399.57</ele>
        <time>2019-07-09T10:30:06Z</time>
      </trkpt>
      <trkpt lat="48.47476" lon="6.90628">
        <ele>400.05</ele>
        <time>2019-07-09T10:30:07Z</time>
      </trkpt>
      <trkpt lat="48.47507" lon="6.90658">
        <ele>403.89</ele>
        <time>2019-07-09T10:30:19Z</time>
      </trkpt>
      <trkpt lat="48.47529" lon="6.90675">
        <ele>413.02</ele>
        <time>2019-07-09T10:30:30Z</time>
      </trkpt>
      <trkpt lat="48.47558" lon="6.90693">
        <ele>418.79</ele>
        <time>2019-07-09T10:30:44Z</time>
      </trkpt>
      <trkpt lat="48.47585" lon="6.90701">
        <ele>420.71</ele>
        <time>2019-07-09T10:30:58Z</time>
      </trkpt>
      <trkpt lat="48.47614" lon="6.90692">
        <ele>419.75</ele>
        <time>2019-07-09T10:31:14Z</time>
      </trkpt>
      <trkpt lat="48.47636" lon="6.90661">
        <ele>416.87</ele>
        <time>2019-07-09T10:31:28Z</time>
      </trkpt>
      <trkpt lat="48.47639" lon="6.90656">
        <ele>416.39</ele>
        <time>2019-07-09T10:31:31Z</time>
      </trkpt>
      <trkpt lat="48.4764" lon="6.90655">
        <ele>416.39</ele>
        <time>2019-07-09T10:31:32Z</time>
      </trkpt>
      <trkpt lat="48.47642" lon="6.90655">
        <ele>416.39</ele>
        <time>2019-07-09T10:31:33Z</time>
      </trkpt>
      <trkpt lat="48.47642" lon="6.90654">
        <ele>414.47</ele>
        <time>2019-07-09T10:31:45Z</time>
      </trkpt>
      <trkpt lat="48.47644" lon="6.90654">
        <ele>414.47</ele>
        <time>2019-07-09T10:31:51Z</time>
      </trkpt>
      <trkpt lat="48.47646" lon="6.90655">
        <ele>413.98</ele>
        <time>2019-07-09T10:31:52Z</time>
      </trkpt>
      <trkpt lat="48.47668" lon="6.90673">
        <ele>408.22</ele>
        <time>2019-07-09T10:32:02Z</time>
      </trkpt>
      <trkpt lat="48.4767" lon="6.90673">
        <ele>407.26</ele>
        <time>2019-07-09T10:32:03Z</time>
      </trkpt>
      <trkpt lat="48.47672" lon="6.90671">
        <ele>406.77</ele>
        <time>2019-07-09T10:32:04Z</time>
      </trkpt>
      <trkpt lat="48.4768" lon="6.90661">
        <ele>405.81</ele>
        <time>2019-07-09T10:32:07Z</time>
      </trkpt>
      <trkpt lat="48.47696" lon="6.90647">
        <ele>402.93</ele>
        <time>2019-07-09T10:32:14Z</time>
      </trkpt>
      <trkpt lat="48.47699" lon="6.90643">
        <ele>402.93</ele>
        <time>2019-07-09T10:32:15Z</time>
      </trkpt>
      <trkpt lat="48.47701" lon="6.90638">
        <ele>402.93</ele>
        <time>2019-07-09T10:32:16Z</time>
      </trkpt>
      <trkpt lat="48.47703" lon="6.90632">
        <ele>402.45</ele>
        <time>2019-07-09T10:32:17Z</time>
      </trkpt>
      <trkpt lat="48.47717" lon="6.90604">
        <ele>403.89</ele>
        <time>2019-07-09T10:32:26Z</time>
      </trkpt>
      <trkpt lat="48.47718" lon="6.90603">
        <ele>403.89</ele>
        <time>2019-07-09T10:32:27Z</time>
      </trkpt>
      <trkpt lat="48.4772" lon="6.90601">
        <ele>403.89</ele>
        <time>2019-07-09T10:32:29Z</time>
      </trkpt>
      <trkpt lat="48.4772" lon="6.90599">
        <ele>403.89</ele>
        <time>2019-07-09T10:32:30Z</time>
      </trkpt>
      <trkpt lat="48.47735" lon="6.90565">
        <ele>404.85</ele>
        <time>2019-07-09T10:32:42Z</time>
      </trkpt>
      <trkpt lat="48.47746" lon="6.90511">
        <ele>404.85</ele>
        <time>2019-07-09T10:32:52Z</time>
      </trkpt>
      <trkpt lat="48.47738" lon="6.90457">
        <ele>404.37</ele>
        <time>2019-07-09T10:33:02Z</time>
      </trkpt>
      <trkpt lat="48.47736" lon="6.90445">
        <ele>403.41</ele>
        <time>2019-07-09T10:33:04Z</time>
      </trkpt>
      <trkpt lat="48.47735" lon="6.90437">
        <ele>403.41</ele>
        <time>2019-07-09T10:33:05Z</time>
      </trkpt>
      <trkpt lat="48.47734" lon="6.9043">
        <ele>402.93</ele>
        <time>2019-07-09T10:33:06Z</time>
      </trkpt>
      <trkpt lat="48.47732" lon="6.90421">
        <ele>402.45</ele>
        <time>2019-07-09T10:33:07Z</time>
      </trkpt>
      <trkpt lat="48.4773" lon="6.90413">
        <ele>402.45</ele>
        <time>2019-07-09T10:33:08Z</time>
      </trkpt>
      <trkpt lat="48.47723" lon="6.90377">
        <ele>401.01</ele>
        <time>2019-07-09T10:33:12Z</time>
      </trkpt>
      <trkpt lat="48.47722" lon="6.90367">
        <ele>400.53</ele>
        <time>2019-07-09T10:33:13Z</time>
      </trkpt>
      <trkpt lat="48.47721" lon="6.90358">
        <ele>400.05</ele>
        <time>2019-07-09T10:33:14Z</time>
      </trkpt>
      <trkpt lat="48.47722" lon="6.90347">
        <ele>399.57</ele>
        <time>2019-07-09T10:33:15Z</time>
      </trkpt>
      <trkpt lat="48.47722" lon="6.90338">
        <ele>399.08</ele>
        <time>2019-07-09T10:33:16Z</time>
      </trkpt>
      <trkpt lat="48.47722" lon="6.90327">
        <ele>398.12</ele>
        <time>2019-07-09T10:33:17Z</time>
      </trkpt>
      <trkpt lat="48.47723" lon="6.90307">
        <ele>397.16</ele>
        <time>2019-07-09T10:33:19Z</time>
      </trkpt>
      <trkpt lat="48.47725" lon="6.90299">
        <ele>396.68</ele>
        <time>2019-07-09T10:33:20Z</time>
      </trkpt>
      <trkpt lat="48.47727" lon="6.90291">
        <ele>396.2</ele>
        <time>2019-07-09T10:33:21Z</time>
      </trkpt>
      <trkpt lat="48.47729" lon="6.90284">
        <ele>396.2</ele>
        <time>2019-07-09T10:33:22Z</time>
      </trkpt>
      <trkpt lat="48.47728" lon="6.9028">
        <ele>395.72</ele>
        <time>2019-07-09T10:33:23Z</time>
      </trkpt>
      <trkpt lat="48.47726" lon="6.90276">
        <ele>395.24</ele>
        <time>2019-07-09T10:33:24Z</time>
      </trkpt>
      <trkpt lat="48.47724" lon="6.90272">
        <ele>395.24</ele>
        <time>2019-07-09T10:33:25Z</time>
      </trkpt>
      <trkpt lat="48.47723" lon="6.90269">
        <ele>394.76</ele>
        <time>2019-07-09T10:33:26Z</time>
      </trkpt>
      <trkpt lat="48.47723" lon="6.90264">
        <ele>394.76</ele>
        <time>2019-07-09T10:33:27Z</time>
      </trkpt>
      <trkpt lat="48.47722" lon="6.9026">
        <ele>394.76</ele>
        <time>2019-07-09T10:33:28Z</time>
      </trkpt>
      <trkpt lat="48.47721" lon="6.90256">
        <ele>394.76</ele>
        <time>2019-07-09T10:33:29Z</time>
      </trkpt>
      <trkpt lat="48.4772" lon="6.90253">
        <ele>394.76</ele>
        <time>2019-07-09T10:33:30Z</time>
      </trkpt>
      <trkpt lat="48.47719" lon="6.90248">
        <ele>394.28</ele>
        <time>2019-07-09T10:33:31Z</time>
      </trkpt>
      <trkpt lat="48.47719" lon="6.90244">
        <ele>394.76</ele>
        <time>2019-07-09T10:33:32Z</time>
      </trkpt>
      <trkpt lat="48.47718" lon="6.9024">
        <ele>395.24</ele>
        <time>2019-07-09T10:33:33Z</time>
      </trkpt>
      <trkpt lat="48.47717" lon="6.90236">
        <ele>395.72</ele>
        <time>2019-07-09T10:33:34Z</time>
      </trkpt>
      <trkpt lat="48.47714" lon="6.90222">
        <ele>396.2</ele>
        <time>2019-07-09T10:33:38Z</time>
      </trkpt>
      <trkpt lat="48.47713" lon="6.90218">
        <ele>396.2</ele>
        <time>2019-07-09T10:33:39Z</time>
      </trkpt>
      <trkpt lat="48.47712" lon="6.90215">
        <ele>396.68</ele>
        <time>2019-07-09T10:33:40Z</time>
      </trkpt>
      <trkpt lat="48.47713" lon="6.90212">
        <ele>396.68</ele>
        <time>2019-07-09T10:33:41Z</time>
      </trkpt>
      <trkpt lat="48.47713" lon="6.90209">
        <ele>396.68</ele>
        <time>2019-07-09T10:33:42Z</time>
      </trkpt>
      <trkpt lat="48.47715" lon="6.90206">
        <ele>397.16</ele>
        <time>2019-07-09T10:33:43Z</time>
      </trkpt>
      <trkpt lat="48.47716" lon="6.90204">
        <ele>397.16</ele>
        <time>2019-07-09T10:33:44Z</time>
      </trkpt>
      <trkpt lat="48.47717" lon="6.90202">
        <ele>397.16</ele>
        <time>2019-07-09T10:33:45Z</time>
      </trkpt>
      <trkpt lat="48.47718" lon="6.90199">
        <ele>397.16</ele>
        <time>2019-07-09T10:33:46Z</time>
      </trkpt>
      <trkpt lat="48.4772" lon="6.90197">
        <ele>397.16</ele>
        <time>2019-07-09T10:33:47Z</time>
      </trkpt>
      <trkpt lat="48.47722" lon="6.90194">
        <ele>397.64</ele>
        <time>2019-07-09T10:33:48Z</time>
      </trkpt>
      <trkpt lat="48.47724" lon="6.90191">
        <ele>398.12</ele>
        <time>2019-07-09T10:33:49Z</time>
      </trkpt>
      <trkpt lat="48.47733" lon="6.90179">
        <ele>398.12</ele>
        <time>2019-07-09T10:33:54Z</time>
      </trkpt>
      <trkpt lat="48.47735" lon="6.90177">
        <ele>398.12</ele>
        <time>2019-07-09T10:33:55Z</time>
      </trkpt>
      <trkpt lat="48.47743" lon="6.90168">
        <ele>400.53</ele>
        <time>2019-07-09T10:34:00Z</time>
      </trkpt>
      <trkpt lat="48.47745" lon="6.90168">
        <ele>401.01</ele>
        <time>2019-07-09T10:34:01Z</time>
      </trkpt>
      <trkpt lat="48.47747" lon="6.90168">
        <ele>401.49</ele>
        <time>2019-07-09T10:34:02Z</time>
      </trkpt>
      <trkpt lat="48.47749" lon="6.9017">
        <ele>401.97</ele>
        <time>2019-07-09T10:34:03Z</time>
      </trkpt>
      <trkpt lat="48.47751" lon="6.9017">
        <ele>401.97</ele>
        <time>2019-07-09T10:34:04Z</time>
      </trkpt>
      <trkpt lat="48.47769" lon="6.90178">
        <ele>404.85</ele>
        <time>2019-07-09T10:34:12Z</time>
      </trkpt>
      <trkpt lat="48.47771" lon="6.90179">
        <ele>405.33</ele>
        <time>2019-07-09T10:34:13Z</time>
      </trkpt>
      <trkpt lat="48.47773" lon="6.90179">
        <ele>405.81</ele>
        <time>2019-07-09T10:34:14Z</time>
      </trkpt>
      <trkpt lat="48.47775" lon="6.9018">
        <ele>405.81</ele>
        <time>2019-07-09T10:34:15Z</time>
      </trkpt>
      <trkpt lat="48.47777" lon="6.90181">
        <ele>406.29</ele>
        <time>2019-07-09T10:34:16Z</time>
      </trkpt>
      <trkpt lat="48.47779" lon="6.90183">
        <ele>406.29</ele>
        <time>2019-07-09T10:34:17Z</time>
      </trkpt>
      <trkpt lat="48.47781" lon="6.90184">
        <ele>406.77</ele>
        <time>2019-07-09T10:34:18Z</time>
      </trkpt>
      <trkpt lat="48.4781" lon="6.90193">
        <ele>412.06</ele>
        <time>2019-07-09T10:34:30Z</time>
      </trkpt>
      <trkpt lat="48.4784" lon="6.9019">
        <ele>416.39</ele>
        <time>2019-07-09T10:34:43Z</time>
      </trkpt>
      <trkpt lat="48.47878" lon="6.9018">
        <ele>415.91</ele>
        <time>2019-07-09T10:34:54Z</time>
      </trkpt>
      <trkpt lat="48.47883" lon="6.90179">
        <ele>415.91</ele>
        <time>2019-07-09T10:34:55Z</time>
      </trkpt>
      <trkpt lat="48.47886" lon="6.90178">
        <ele>415.91</ele>
        <time>2019-07-09T10:34:56Z</time>
      </trkpt>
      <trkpt lat="48.47891" lon="6.90176">
        <ele>415.91</ele>
        <time>2019-07-09T10:34:57Z</time>
      </trkpt>
      <trkpt lat="48.47894" lon="6.90174">
        <ele>415.43</ele>
        <time>2019-07-09T10:34:58Z</time>
      </trkpt>
      <trkpt lat="48.47897" lon="6.90174">
        <ele>415.43</ele>
        <time>2019-07-09T10:34:59Z</time>
      </trkpt>
      <trkpt lat="48.479" lon="6.90174">
        <ele>415.43</ele>
        <time>2019-07-09T10:35:00Z</time>
      </trkpt>
      <trkpt lat="48.47942" lon="6.90175">
        <ele>413.98</ele>
        <time>2019-07-09T10:35:13Z</time>
      </trkpt>
      <trkpt lat="48.47974" lon="6.90199">
        <ele>413.5</ele>
        <time>2019-07-09T10:35:24Z</time>
      </trkpt>
      <trkpt lat="48.47994" lon="6.90228">
        <ele>413.98</ele>
        <time>2019-07-09T10:35:34Z</time>
      </trkpt>
      <trkpt lat="48.48008" lon="6.90273">
        <ele>416.39</ele>
        <time>2019-07-09T10:35:45Z</time>
      </trkpt>
      <trkpt lat="48.48024" lon="6.90319">
        <ele>418.31</ele>
        <time>2019-07-09T10:35:58Z</time>
      </trkpt>
      <trkpt lat="48.48025" lon="6.90322">
        <ele>418.31</ele>
        <time>2019-07-09T10:35:59Z</time>
      </trkpt>
      <trkpt lat="48.48026" lon="6.90324">
        <ele>418.31</ele>
        <time>2019-07-09T10:36:00Z</time>
      </trkpt>
      <trkpt lat="48.48046" lon="6.90376">
        <ele>418.79</ele>
        <time>2019-07-09T10:36:14Z</time>
      </trkpt>
      <trkpt lat="48.48068" lon="6.90413">
        <ele>420.23</ele>
        <time>2019-07-09T10:36:28Z</time>
      </trkpt>
      <trkpt lat="48.48089" lon="6.90434">
        <ele>418.79</ele>
        <time>2019-07-09T10:36:40Z</time>
      </trkpt>
      <trkpt lat="48.48114" lon="6.90451">
        <ele>422.64</ele>
        <time>2019-07-09T10:36:54Z</time>
      </trkpt>
      <trkpt lat="48.48124" lon="6.90453">
        <ele>425.04</ele>
        <time>2019-07-09T10:37:00Z</time>
      </trkpt>
      <trkpt lat="48.48126" lon="6.90454">
        <ele>425.52</ele>
        <time>2019-07-09T10:37:01Z</time>
      </trkpt>
      <trkpt lat="48.48128" lon="6.90455">
        <ele>425.52</ele>
        <time>2019-07-09T10:37:02Z</time>
      </trkpt>
      <trkpt lat="48.4813" lon="6.90455">
        <ele>425.04</ele>
        <time>2019-07-09T10:37:03Z</time>
      </trkpt>
      <trkpt lat="48.48131" lon="6.90455">
        <ele>425.04</ele>
        <time>2019-07-09T10:37:04Z</time>
      </trkpt>
      <trkpt lat="48.48133" lon="6.90456">
        <ele>424.56</ele>
        <time>2019-07-09T10:37:05Z</time>
      </trkpt>
      <trkpt lat="48.48137" lon="6.90463">
        <ele>423.6</ele>
        <time>2019-07-09T10:37:08Z</time>
      </trkpt>
      <trkpt lat="48.48141" lon="6.90481">
        <ele>423.12</ele>
        <time>2019-07-09T10:37:19Z</time>
      </trkpt>
      <trkpt lat="48.48148" lon="6.90512">
        <ele>420.71</ele>
        <time>2019-07-09T10:37:34Z</time>
      </trkpt>
      <trkpt lat="48.48148" lon="6.9054">
        <ele>418.31</ele>
        <time>2019-07-09T10:37:44Z</time>
      </trkpt>
      <trkpt lat="48.48144" lon="6.90605">
        <ele>417.83</ele>
        <time>2019-07-09T10:37:57Z</time>
      </trkpt>
      <trkpt lat="48.48147" lon="6.90647">
        <ele>419.27</ele>
        <time>2019-07-09T10:38:06Z</time>
      </trkpt>
      <trkpt lat="48.48151" lon="6.90673">
        <ele>418.31</ele>
        <time>2019-07-09T10:38:11Z</time>
      </trkpt>
      <trkpt lat="48.48164" lon="6.90699">
        <ele>416.39</ele>
        <time>2019-07-09T10:38:16Z</time>
      </trkpt>
      <trkpt lat="48.48172" lon="6.90707">
        <ele>415.43</ele>
        <time>2019-07-09T10:38:18Z</time>
      </trkpt>
      <trkpt lat="48.48193" lon="6.90696">
        <ele>410.14</ele>
        <time>2019-07-09T10:38:27Z</time>
      </trkpt>
      <trkpt lat="48.48205" lon="6.9068">
        <ele>407.74</ele>
        <time>2019-07-09T10:38:31Z</time>
      </trkpt>
      <trkpt lat="48.48206" lon="6.90675">
        <ele>407.74</ele>
        <time>2019-07-09T10:38:32Z</time>
      </trkpt>
      <trkpt lat="48.48206" lon="6.90669">
        <ele>407.26</ele>
        <time>2019-07-09T10:38:33Z</time>
      </trkpt>
      <trkpt lat="48.48207" lon="6.90662">
        <ele>406.77</ele>
        <time>2019-07-09T10:38:34Z</time>
      </trkpt>
      <trkpt lat="48.48208" lon="6.90656">
        <ele>405.81</ele>
        <time>2019-07-09T10:38:35Z</time>
      </trkpt>
      <trkpt lat="48.4821" lon="6.90649">
        <ele>405.33</ele>
        <time>2019-07-09T10:38:36Z</time>
      </trkpt>
      <trkpt lat="48.48213" lon="6.9064">
        <ele>404.85</ele>
        <time>2019-07-09T10:38:37Z</time>
      </trkpt>
      <trkpt lat="48.48221" lon="6.90613">
        <ele>403.89</ele>
        <time>2019-07-09T10:38:40Z</time>
      </trkpt>
      <trkpt lat="48.48224" lon="6.90594">
        <ele>403.41</ele>
        <time>2019-07-09T10:38:42Z</time>
      </trkpt>
      <trkpt lat="48.48225" lon="6.90578">
        <ele>402.45</ele>
        <time>2019-07-09T10:38:44Z</time>
      </trkpt>
      <trkpt lat="48.48226" lon="6.90573">
        <ele>402.45</ele>
        <time>2019-07-09T10:38:45Z</time>
      </trkpt>
      <trkpt lat="48.48227" lon="6.90569">
        <ele>402.45</ele>
        <time>2019-07-09T10:38:46Z</time>
      </trkpt>
      <trkpt lat="48.48229" lon="6.90566">
        <ele>402.45</ele>
        <time>2019-07-09T10:38:47Z</time>
      </trkpt>
      <trkpt lat="48.48229" lon="6.90563">
        <ele>402.45</ele>
        <time>2019-07-09T10:38:48Z</time>
      </trkpt>
      <trkpt lat="48.48231" lon="6.90564">
        <ele>404.37</ele>
        <time>2019-07-09T10:38:59Z</time>
      </trkpt>
      <trkpt lat="48.48228" lon="6.90577">
        <ele>408.7</ele>
        <time>2019-07-09T10:39:13Z</time>
      </trkpt>
      <trkpt lat="48.48228" lon="6.90588">
        <ele>409.18</ele>
        <time>2019-07-09T10:39:17Z</time>
      </trkpt>
      <trkpt lat="48.48227" lon="6.9059">
        <ele>409.18</ele>
        <time>2019-07-09T10:39:18Z</time>
      </trkpt>
      <trkpt lat="48.48227" lon="6.90593">
        <ele>409.18</ele>
        <time>2019-07-09T10:39:19Z</time>
      </trkpt>
      <trkpt lat="48.48229" lon="6.90593">
        <ele>409.66</ele>
        <time>2019-07-09T10:39:22Z</time>
      </trkpt>
      <trkpt lat="48.4823" lon="6.90592">
        <ele>410.14</ele>
        <time>2019-07-09T10:39:23Z</time>
      </trkpt>
      <trkpt lat="48.48232" lon="6.9059">
        <ele>410.14</ele>
        <time>2019-07-09T10:39:24Z</time>
      </trkpt>
      <trkpt lat="48.48233" lon="6.9059">
        <ele>409.66</ele>
        <time>2019-07-09T10:39:25Z</time>
      </trkpt>
      <trkpt lat="48.48235" lon="6.90592">
        <ele>409.18</ele>
        <time>2019-07-09T10:39:26Z</time>
      </trkpt>
      <trkpt lat="48.48241" lon="6.90593">
        <ele>404.37</ele>
        <time>2019-07-09T10:39:36Z</time>
      </trkpt>
      <trkpt lat="48.48242" lon="6.90593">
        <ele>403.89</ele>
        <time>2019-07-09T10:39:37Z</time>
      </trkpt>
      <trkpt lat="48.48248" lon="6.90596">
        <ele>402.93</ele>
        <time>2019-07-09T10:39:40Z</time>
      </trkpt>
      <trkpt lat="48.48251" lon="6.90596">
        <ele>402.45</ele>
        <time>2019-07-09T10:39:41Z</time>
      </trkpt>
      <trkpt lat="48.48254" lon="6.90595">
        <ele>401.97</ele>
        <time>2019-07-09T10:39:42Z</time>
      </trkpt>
      <trkpt lat="48.48256" lon="6.90594">
        <ele>401.97</ele>
        <time>2019-07-09T10:39:43Z</time>
      </trkpt>
      <trkpt lat="48.48258" lon="6.90593">
        <ele>401.97</ele>
        <time>2019-07-09T10:39:44Z</time>
      </trkpt>
      <trkpt lat="48.4826" lon="6.90592">
        <ele>401.97</ele>
        <time>2019-07-09T10:39:45Z</time>
      </trkpt>
      <trkpt lat="48.48262" lon="6.90591">
        <ele>402.45</ele>
        <time>2019-07-09T10:39:46Z</time>
      </trkpt>
      <trkpt lat="48.48263" lon="6.9059">
        <ele>402.45</ele>
        <time>2019-07-09T10:39:47Z</time>
      </trkpt>
      <trkpt lat="48.48265" lon="6.90589">
        <ele>402.45</ele>
        <time>2019-07-09T10:39:48Z</time>
      </trkpt>
      <trkpt lat="48.48266" lon="6.90587">
        <ele>402.93</ele>
        <time>2019-07-09T10:39:49Z</time>
      </trkpt>
      <trkpt lat="48.48268" lon="6.90585">
        <ele>402.93</ele>
        <time>2019-07-09T10:39:50Z</time>
      </trkpt>
      <trkpt lat="48.48269" lon="6.90584">
        <ele>403.41</ele>
        <time>2019-07-09T10:39:51Z</time>
      </trkpt>
      <trkpt lat="48.48271" lon="6.90581">
        <ele>403.41</ele>
        <time>2019-07-09T10:39:53Z</time>
      </trkpt>
      <trkpt lat="48.48272" lon="6.90579">
        <ele>403.41</ele>
        <time>2019-07-09T10:39:54Z</time>
      </trkpt>
      <trkpt lat="48.48274" lon="6.90578">
        <ele>403.41</ele>
        <time>2019-07-09T10:39:55Z</time>
      </trkpt>
      <trkpt lat="48.48283" lon="6.90568">
        <ele>403.41</ele>
        <time>2019-07-09T10:40:03Z</time>
      </trkpt>
      <trkpt lat="48.48286" lon="6.90569">
        <ele>403.41</ele>
        <time>2019-07-09T10:40:10Z</time>
      </trkpt>
      <trkpt lat="48.48287" lon="6.90569">
        <ele>403.89</ele>
        <time>2019-07-09T10:40:11Z</time>
      </trkpt>
      <trkpt lat="48.48309" lon="6.90589">
        <ele>402.45</ele>
        <time>2019-07-09T10:40:25Z</time>
      </trkpt>
      <trkpt lat="48.48319" lon="6.90603">
        <ele>402.45</ele>
        <time>2019-07-09T10:40:31Z</time>
      </trkpt>
      <trkpt lat="48.48321" lon="6.90605">
        <ele>402.45</ele>
        <time>2019-07-09T10:40:32Z</time>
      </trkpt>
      <trkpt lat="48.48323" lon="6.90607">
        <ele>402.45</ele>
        <time>2019-07-09T10:40:33Z</time>
      </trkpt>
      <trkpt lat="48.48325" lon="6.9061">
        <ele>402.93</ele>
        <time>2019-07-09T10:40:34Z</time>
      </trkpt>
      <trkpt lat="48.48327" lon="6.90613">
        <ele>402.93</ele>
        <time>2019-07-09T10:40:35Z</time>
      </trkpt>
      <trkpt lat="48.48344" lon="6.90636">
        <ele>405.81</ele>
        <time>2019-07-09T10:40:47Z</time>
      </trkpt>
      <trkpt lat="48.48371" lon="6.90676">
        <ele>410.14</ele>
        <time>2019-07-09T10:41:03Z</time>
      </trkpt>
      <trkpt lat="48.48392" lon="6.90711">
        <ele>409.18</ele>
        <time>2019-07-09T10:41:15Z</time>
      </trkpt>
      <trkpt lat="48.48411" lon="6.9075">
        <ele>406.29</ele>
        <time>2019-07-09T10:41:27Z</time>
      </trkpt>
      <trkpt lat="48.48431" lon="6.90798">
        <ele>401.49</ele>
        <time>2019-07-09T10:41:40Z</time>
      </trkpt>
      <trkpt lat="48.48441" lon="6.90816">
        <ele>400.53</ele>
        <time>2019-07-09T10:41:48Z</time>
      </trkpt>
      <trkpt lat="48.48442" lon="6.90816">
        <ele>400.53</ele>
        <time>2019-07-09T10:41:49Z</time>
      </trkpt>
      <trkpt lat="48.48444" lon="6.90816">
        <ele>401.01</ele>
        <time>2019-07-09T10:41:50Z</time>
      </trkpt>
      <trkpt lat="48.48446" lon="6.90816">
        <ele>401.49</ele>
        <time>2019-07-09T10:41:51Z</time>
      </trkpt>
      <trkpt lat="48.48448" lon="6.90816">
        <ele>401.97</ele>
        <time>2019-07-09T10:41:52Z</time>
      </trkpt>
      <trkpt lat="48.4845" lon="6.90817">
        <ele>401.97</ele>
        <time>2019-07-09T10:41:53Z</time>
      </trkpt>
      <trkpt lat="48.48452" lon="6.90818">
        <ele>402.45</ele>
        <time>2019-07-09T10:41:54Z</time>
      </trkpt>
      <trkpt lat="48.48453" lon="6.90818">
        <ele>402.45</ele>
        <time>2019-07-09T10:41:55Z</time>
      </trkpt>
      <trkpt lat="48.48455" lon="6.90819">
        <ele>402.93</ele>
        <time>2019-07-09T10:41:56Z</time>
      </trkpt>
      <trkpt lat="48.48455" lon="6.90821">
        <ele>403.41</ele>
        <time>2019-07-09T10:41:57Z</time>
      </trkpt>
      <trkpt lat="48.48456" lon="6.90824">
        <ele>403.41</ele>
        <time>2019-07-09T10:41:58Z</time>
      </trkpt>
      <trkpt lat="48.48457" lon="6.90828">
        <ele>403.89</ele>
        <time>2019-07-09T10:41:59Z</time>
      </trkpt>
      <trkpt lat="48.48458" lon="6.90832">
        <ele>403.89</ele>
        <time>2019-07-09T10:42:00Z</time>
      </trkpt>
      <trkpt lat="48.48459" lon="6.90837">
        <ele>404.37</ele>
        <time>2019-07-09T10:42:01Z</time>
      </trkpt>
      <trkpt lat="48.48461" lon="6.90848">
        <ele>404.37</ele>
        <time>2019-07-09T10:42:03Z</time>
      </trkpt>
      <trkpt lat="48.48472" lon="6.90904">
        <ele>407.26</ele>
        <time>2019-07-09T10:42:14Z</time>
      </trkpt>
      <trkpt lat="48.48473" lon="6.90911">
        <ele>406.77</ele>
        <time>2019-07-09T10:42:16Z</time>
      </trkpt>
      <trkpt lat="48.48473" lon="6.90914">
        <ele>406.77</ele>
        <time>2019-07-09T10:42:17Z</time>
      </trkpt>
      <trkpt lat="48.48473" lon="6.90916">
        <ele>406.29</ele>
        <time>2019-07-09T10:42:18Z</time>
      </trkpt>
      <trkpt lat="48.48472" lon="6.90919">
        <ele>406.29</ele>
        <time>2019-07-09T10:42:19Z</time>
      </trkpt>
      <trkpt lat="48.4847" lon="6.90921">
        <ele>405.81</ele>
        <time>2019-07-09T10:42:20Z</time>
      </trkpt>
      <trkpt lat="48.48468" lon="6.90922">
        <ele>405.81</ele>
        <time>2019-07-09T10:42:21Z</time>
      </trkpt>
      <trkpt lat="48.48465" lon="6.90922">
        <ele>405.81</ele>
        <time>2019-07-09T10:42:22Z</time>
      </trkpt>
      <trkpt lat="48.48463" lon="6.90921">
        <ele>405.81</ele>
        <time>2019-07-09T10:42:23Z</time>
      </trkpt>
      <trkpt lat="48.48444" lon="6.90907">
        <ele>404.85</ele>
        <time>2019-07-09T10:42:29Z</time>
      </trkpt>
      <trkpt lat="48.48436" lon="6.909">
        <ele>404.37</ele>
        <time>2019-07-09T10:42:31Z</time>
      </trkpt>
      <trkpt lat="48.48431" lon="6.90898">
        <ele>404.37</ele>
        <time>2019-07-09T10:42:32Z</time>
      </trkpt>
      <trkpt lat="48.48414" lon="6.90892">
        <ele>403.41</ele>
        <time>2019-07-09T10:42:35Z</time>
      </trkpt>
      <trkpt lat="48.48395" lon="6.9089">
        <ele>402.45</ele>
        <time>2019-07-09T10:42:38Z</time>
      </trkpt>
      <trkpt lat="48.4839" lon="6.90892">
        <ele>402.45</ele>
        <time>2019-07-09T10:42:39Z</time>
      </trkpt>
      <trkpt lat="48.48386" lon="6.90894">
        <ele>402.45</ele>
        <time>2019-07-09T10:42:40Z</time>
      </trkpt>
      <trkpt lat="48.48383" lon="6.90899">
        <ele>402.45</ele>
        <time>2019-07-09T10:42:41Z</time>
      </trkpt>
      <trkpt lat="48.48378" lon="6.90909">
        <ele>402.45</ele>
        <time>2019-07-09T10:42:43Z</time>
      </trkpt>
      <trkpt lat="48.48375" lon="6.90923">
        <ele>403.41</ele>
        <time>2019-07-09T10:42:48Z</time>
      </trkpt>
      <trkpt lat="48.48373" lon="6.90932">
        <ele>403.89</ele>
        <time>2019-07-09T10:42:52Z</time>
      </trkpt>
      <trkpt lat="48.48354" lon="6.90975">
        <ele>408.7</ele>
        <time>2019-07-09T10:43:06Z</time>
      </trkpt>
      <trkpt lat="48.48338" lon="6.91025">
        <ele>410.14</ele>
        <time>2019-07-09T10:43:18Z</time>
      </trkpt>
      <trkpt lat="48.48337" lon="6.91029">
        <ele>410.14</ele>
        <time>2019-07-09T10:43:19Z</time>
      </trkpt>
      <trkpt lat="48.48307" lon="6.91027">
        <ele>408.7</ele>
        <time>2019-07-09T10:43:28Z</time>
      </trkpt>
      <trkpt lat="48.48292" lon="6.91033">
        <ele>407.74</ele>
        <time>2019-07-09T10:43:31Z</time>
      </trkpt>
      <trkpt lat="48.48269" lon="6.91075">
        <ele>407.74</ele>
        <time>2019-07-09T10:43:42Z</time>
      </trkpt>
      <trkpt lat="48.48264" lon="6.91083">
        <ele>408.22</ele>
        <time>2019-07-09T10:43:45Z</time>
      </trkpt>
      <trkpt lat="48.48253" lon="6.91083">
        <ele>407.74</ele>
        <time>2019-07-09T10:43:51Z</time>
      </trkpt>
      <trkpt lat="48.4825" lon="6.91081">
        <ele>407.74</ele>
        <time>2019-07-09T10:43:52Z</time>
      </trkpt>
      <trkpt lat="48.48247" lon="6.9108">
        <ele>407.74</ele>
        <time>2019-07-09T10:43:53Z</time>
      </trkpt>
      <trkpt lat="48.48244" lon="6.91079">
        <ele>407.74</ele>
        <time>2019-07-09T10:43:54Z</time>
      </trkpt>
      <trkpt lat="48.4824" lon="6.91078">
        <ele>407.74</ele>
        <time>2019-07-09T10:43:55Z</time>
      </trkpt>
      <trkpt lat="48.48237" lon="6.91077">
        <ele>407.74</ele>
        <time>2019-07-09T10:43:56Z</time>
      </trkpt>
      <trkpt lat="48.48233" lon="6.91076">
        <ele>407.74</ele>
        <time>2019-07-09T10:43:57Z</time>
      </trkpt>
      <trkpt lat="48.48229" lon="6.91075">
        <ele>407.26</ele>
        <time>2019-07-09T10:43:58Z</time>
      </trkpt>
      <trkpt lat="48.48226" lon="6.91073">
        <ele>407.26</ele>
        <time>2019-07-09T10:43:59Z</time>
      </trkpt>
      <trkpt lat="48.48222" lon="6.91071">
        <ele>406.77</ele>
        <time>2019-07-09T10:44:00Z</time>
      </trkpt>
      <trkpt lat="48.4821" lon="6.91066">
        <ele>405.81</ele>
        <time>2019-07-09T10:44:02Z</time>
      </trkpt>
      <trkpt lat="48.48206" lon="6.91064">
        <ele>404.85</ele>
        <time>2019-07-09T10:44:03Z</time>
      </trkpt>
      <trkpt lat="48.48201" lon="6.91062">
        <ele>403.41</ele>
        <time>2019-07-09T10:44:04Z</time>
      </trkpt>
      <trkpt lat="48.48196" lon="6.91062">
        <ele>402.45</ele>
        <time>2019-07-09T10:44:05Z</time>
      </trkpt>
      <trkpt lat="48.48192" lon="6.91063">
        <ele>401.49</ele>
        <time>2019-07-09T10:44:06Z</time>
      </trkpt>
      <trkpt lat="48.48188" lon="6.91064">
        <ele>400.53</ele>
        <time>2019-07-09T10:44:07Z</time>
      </trkpt>
      <trkpt lat="48.48185" lon="6.91066">
        <ele>399.57</ele>
        <time>2019-07-09T10:44:08Z</time>
      </trkpt>
      <trkpt lat="48.48182" lon="6.91069">
        <ele>399.08</ele>
        <time>2019-07-09T10:44:09Z</time>
      </trkpt>
      <trkpt lat="48.48169" lon="6.91084">
        <ele>395.72</ele>
        <time>2019-07-09T10:44:20Z</time>
      </trkpt>
      <trkpt lat="48.48168" lon="6.91087">
        <ele>395.72</ele>
        <time>2019-07-09T10:44:22Z</time>
      </trkpt>
      <trkpt lat="48.48149" lon="6.91109">
        <ele>400.05</ele>
        <time>2019-07-09T10:44:37Z</time>
      </trkpt>
      <trkpt lat="48.48147" lon="6.91112">
        <ele>401.01</ele>
        <time>2019-07-09T10:44:39Z</time>
      </trkpt>
      <trkpt lat="48.48132" lon="6.91144">
        <ele>408.22</ele>
        <time>2019-07-09T10:44:53Z</time>
      </trkpt>
      <trkpt lat="48.48121" lon="6.91171">
        <ele>412.06</ele>
        <time>2019-07-09T10:45:04Z</time>
      </trkpt>
      <trkpt lat="48.48111" lon="6.91201">
        <ele>414.47</ele>
        <time>2019-07-09T10:45:17Z</time>
      </trkpt>
      <trkpt lat="48.48103" lon="6.91238">
        <ele>415.91</ele>
        <time>2019-07-09T10:45:30Z</time>
      </trkpt>
      <trkpt lat="48.48106" lon="6.91275">
        <ele>415.43</ele>
        <time>2019-07-09T10:45:42Z</time>
      </trkpt>
      <trkpt lat="48.48115" lon="6.91293">
        <ele>412.06</ele>
        <time>2019-07-09T10:45:47Z</time>
      </trkpt>
      <trkpt lat="48.48142" lon="6.91298">
        <ele>413.5</ele>
        <time>2019-07-09T10:46:00Z</time>
      </trkpt>
      <trkpt lat="48.48154" lon="6.91307">
        <ele>413.5</ele>
        <time>2019-07-09T10:46:06Z</time>
      </trkpt>
      <trkpt lat="48.48182" lon="6.9134">
        <ele>412.06</ele>
        <time>2019-07-09T10:46:20Z</time>
      </trkpt>
      <trkpt lat="48.48202" lon="6.91362">
        <ele>410.14</ele>
        <time>2019-07-09T10:46:32Z</time>
      </trkpt>
      <trkpt lat="48.48227" lon="6.91364">
        <ele>411.1</ele>
        <time>2019-07-09T10:46:43Z</time>
      </trkpt>
      <trkpt lat="48.48244" lon="6.91356">
        <ele>410.62</ele>
        <time>2019-07-09T10:46:51Z</time>
      </trkpt>
      <trkpt lat="48.48257" lon="6.91363">
        <ele>409.66</ele>
        <time>2019-07-09T10:46:57Z</time>
      </trkpt>
      <trkpt lat="48.4829" lon="6.91374">
        <ele>411.1</ele>
        <time>2019-07-09T10:47:09Z</time>
      </trkpt>
      <trkpt lat="48.48324" lon="6.91383">
        <ele>415.91</ele>
        <time>2019-07-09T10:47:22Z</time>
      </trkpt>
      <trkpt lat="48.4835" lon="6.91381">
        <ele>420.23</ele>
        <time>2019-07-09T10:47:35Z</time>
      </trkpt>
      <trkpt lat="48.48352" lon="6.91381">
        <ele>420.23</ele>
        <time>2019-07-09T10:47:36Z</time>
      </trkpt>
      <trkpt lat="48.48367" lon="6.91388">
        <ele>421.19</ele>
        <time>2019-07-09T10:47:42Z</time>
      </trkpt>
      <trkpt lat="48.48383" lon="6.91392">
        <ele>421.68</ele>
        <time>2019-07-09T10:47:49Z</time>
      </trkpt>
      <trkpt lat="48.48388" lon="6.91409">
        <ele>421.68</ele>
        <time>2019-07-09T10:47:56Z</time>
      </trkpt>
      <trkpt lat="48.48388" lon="6.91418">
        <ele>421.68</ele>
        <time>2019-07-09T10:47:58Z</time>
      </trkpt>
      <trkpt lat="48.48369" lon="6.91454">
        <ele>418.79</ele>
        <time>2019-07-09T10:48:06Z</time>
      </trkpt>
      <trkpt lat="48.4837" lon="6.91483">
        <ele>414.95</ele>
        <time>2019-07-09T10:48:12Z</time>
      </trkpt>
      <trkpt lat="48.48376" lon="6.91502">
        <ele>412.06</ele>
        <time>2019-07-09T10:48:18Z</time>
      </trkpt>
      <trkpt lat="48.48377" lon="6.91529">
        <ele>411.1</ele>
        <time>2019-07-09T10:48:23Z</time>
      </trkpt>
      <trkpt lat="48.48369" lon="6.9153">
        <ele>411.1</ele>
        <time>2019-07-09T10:48:27Z</time>
      </trkpt>
      <trkpt lat="48.48354" lon="6.91531">
        <ele>411.1</ele>
        <time>2019-07-09T10:48:31Z</time>
      </trkpt>
      <trkpt lat="48.48327" lon="6.91539">
        <ele>412.06</ele>
        <time>2019-07-09T10:48:41Z</time>
      </trkpt>
      <trkpt lat="48.48325" lon="6.9154">
        <ele>412.06</ele>
        <time>2019-07-09T10:48:42Z</time>
      </trkpt>
      <trkpt lat="48.48315" lon="6.91557">
        <ele>415.91</ele>
        <time>2019-07-09T10:48:50Z</time>
      </trkpt>
      <trkpt lat="48.48314" lon="6.91594">
        <ele>417.35</ele>
        <time>2019-07-09T10:49:03Z</time>
      </trkpt>
      <trkpt lat="48.48313" lon="6.91595">
        <ele>417.35</ele>
        <time>2019-07-09T10:49:04Z</time>
      </trkpt>
      <trkpt lat="48.48321" lon="6.91626">
        <ele>414.95</ele>
        <time>2019-07-09T10:49:19Z</time>
      </trkpt>
      <trkpt lat="48.48321" lon="6.9163">
        <ele>415.43</ele>
        <time>2019-07-09T10:49:22Z</time>
      </trkpt>
      <trkpt lat="48.48318" lon="6.91649">
        <ele>417.83</ele>
        <time>2019-07-09T10:49:32Z</time>
      </trkpt>
      <trkpt lat="48.4832" lon="6.91659">
        <ele>418.79</ele>
        <time>2019-07-09T10:49:38Z</time>
      </trkpt>
      <trkpt lat="48.48326" lon="6.91675">
        <ele>418.79</ele>
        <time>2019-07-09T10:49:45Z</time>
      </trkpt>
      <trkpt lat="48.4835" lon="6.91711">
        <ele>417.35</ele>
        <time>2019-07-09T10:50:00Z</time>
      </trkpt>
      <trkpt lat="48.48373" lon="6.91731">
        <ele>418.31</ele>
        <time>2019-07-09T10:50:12Z</time>
      </trkpt>
      <trkpt lat="48.48384" lon="6.91748">
        <ele>417.35</ele>
        <time>2019-07-09T10:50:20Z</time>
      </trkpt>
      <trkpt lat="48.48375" lon="6.91754">
        <ele>414.95</ele>
        <time>2019-07-09T10:50:25Z</time>
      </trkpt>
      <trkpt lat="48.48356" lon="6.91756">
        <ele>413.5</ele>
        <time>2019-07-09T10:50:31Z</time>
      </trkpt>
      <trkpt lat="48.48337" lon="6.91782">
        <ele>408.7</ele>
        <time>2019-07-09T10:50:41Z</time>
      </trkpt>
      <trkpt lat="48.48333" lon="6.9179">
        <ele>405.33</ele>
        <time>2019-07-09T10:50:51Z</time>
      </trkpt>
      <trkpt lat="48.48326" lon="6.91801">
        <ele>404.37</ele>
        <time>2019-07-09T10:51:08Z</time>
      </trkpt>
      <trkpt lat="48.48323" lon="6.91805">
        <ele>404.37</ele>
        <time>2019-07-09T10:51:11Z</time>
      </trkpt>
      <trkpt lat="48.48318" lon="6.91814">
        <ele>404.37</ele>
        <time>2019-07-09T10:51:15Z</time>
      </trkpt>
      <trkpt lat="48.48313" lon="6.91829">
        <ele>402.45</ele>
        <time>2019-07-09T10:51:21Z</time>
      </trkpt>
      <trkpt lat="48.48314" lon="6.91834">
        <ele>401.97</ele>
        <time>2019-07-09T10:51:22Z</time>
      </trkpt>
      <trkpt lat="48.48313" lon="6.9184">
        <ele>401.49</ele>
        <time>2019-07-09T10:51:23Z</time>
      </trkpt>
      <trkpt lat="48.48313" lon="6.91846">
        <ele>401.01</ele>
        <time>2019-07-09T10:51:24Z</time>
      </trkpt>
      <trkpt lat="48.48313" lon="6.91854">
        <ele>400.05</ele>
        <time>2019-07-09T10:51:25Z</time>
      </trkpt>
      <trkpt lat="48.48313" lon="6.91861">
        <ele>400.05</ele>
        <time>2019-07-09T10:51:26Z</time>
      </trkpt>
      <trkpt lat="48.48314" lon="6.91866">
        <ele>399.57</ele>
        <time>2019-07-09T10:51:27Z</time>
      </trkpt>
      <trkpt lat="48.48315" lon="6.9187">
        <ele>399.08</ele>
        <time>2019-07-09T10:51:28Z</time>
      </trkpt>
      <trkpt lat="48.48316" lon="6.91873">
        <ele>398.6</ele>
        <time>2019-07-09T10:51:29Z</time>
      </trkpt>
      <trkpt lat="48.48335" lon="6.919">
        <ele>395.24</ele>
        <time>2019-07-09T10:51:41Z</time>
      </trkpt>
      <trkpt lat="48.48349" lon="6.91926">
        <ele>391.87</ele>
        <time>2019-07-09T10:51:54Z</time>
      </trkpt>
      <trkpt lat="48.48369" lon="6.91954">
        <ele>392.36</ele>
        <time>2019-07-09T10:52:07Z</time>
      </trkpt>
      <trkpt lat="48.48389" lon="6.91982">
        <ele>395.24</ele>
        <time>2019-07-09T10:52:19Z</time>
      </trkpt>
      <trkpt lat="48.48406" lon="6.92009">
        <ele>395.24</ele>
        <time>2019-07-09T10:52:31Z</time>
      </trkpt>
      <trkpt lat="48.48417" lon="6.92026">
        <ele>396.68</ele>
        <time>2019-07-09T10:52:38Z</time>
      </trkpt>
      <trkpt lat="48.48435" lon="6.92052">
        <ele>400.53</ele>
        <time>2019-07-09T10:52:51Z</time>
      </trkpt>
      <trkpt lat="48.48442" lon="6.92064">
        <ele>401.01</ele>
        <time>2019-07-09T10:52:56Z</time>
      </trkpt>
      <trkpt lat="48.48458" lon="6.92091">
        <ele>404.37</ele>
        <time>2019-07-09T10:53:08Z</time>
      </trkpt>
      <trkpt lat="48.48474" lon="6.92121">
        <ele>406.29</ele>
        <time>2019-07-09T10:53:21Z</time>
      </trkpt>
      <trkpt lat="48.48488" lon="6.92153">
        <ele>404.85</ele>
        <time>2019-07-09T10:53:33Z</time>
      </trkpt>
      <trkpt lat="48.48503" lon="6.92173">
        <ele>404.37</ele>
        <time>2019-07-09T10:53:45Z</time>
      </trkpt>
      <trkpt lat="48.48508" lon="6.92175">
        <ele>405.33</ele>
        <time>2019-07-09T10:53:48Z</time>
      </trkpt>
      <trkpt lat="48.48533" lon="6.92175">
        <ele>410.14</ele>
        <time>2019-07-09T10:54:02Z</time>
      </trkpt>
      <trkpt lat="48.48535" lon="6.92176">
        <ele>410.62</ele>
        <time>2019-07-09T10:54:03Z</time>
      </trkpt>
      <trkpt lat="48.48543" lon="6.92184">
        <ele>411.58</ele>
        <time>2019-07-09T10:54:09Z</time>
      </trkpt>
      <trkpt lat="48.48542" lon="6.92193">
        <ele>411.58</ele>
        <time>2019-07-09T10:54:13Z</time>
      </trkpt>
      <trkpt lat="48.48528" lon="6.92215">
        <ele>416.39</ele>
        <time>2019-07-09T10:54:25Z</time>
      </trkpt>
      <trkpt lat="48.48524" lon="6.92233">
        <ele>421.68</ele>
        <time>2019-07-09T10:54:34Z</time>
      </trkpt>
      <trkpt lat="48.48524" lon="6.92245">
        <ele>422.16</ele>
        <time>2019-07-09T10:54:39Z</time>
      </trkpt>
      <trkpt lat="48.48527" lon="6.92283">
        <ele>421.19</ele>
        <time>2019-07-09T10:54:54Z</time>
      </trkpt>
      <trkpt lat="48.48527" lon="6.92324">
        <ele>421.68</ele>
        <time>2019-07-09T10:55:07Z</time>
      </trkpt>
      <trkpt lat="48.48524" lon="6.9236">
        <ele>419.75</ele>
        <time>2019-07-09T10:55:16Z</time>
      </trkpt>
      <trkpt lat="48.48512" lon="6.9239">
        <ele>422.64</ele>
        <time>2019-07-09T10:55:29Z</time>
      </trkpt>
      <trkpt lat="48.48511" lon="6.92393">
        <ele>423.6</ele>
        <time>2019-07-09T10:55:30Z</time>
      </trkpt>
      <trkpt lat="48.48511" lon="6.92396">
        <ele>423.6</ele>
        <time>2019-07-09T10:55:31Z</time>
      </trkpt>
      <trkpt lat="48.4851" lon="6.92399">
        <ele>424.08</ele>
        <time>2019-07-09T10:55:32Z</time>
      </trkpt>
      <trkpt lat="48.4851" lon="6.92402">
        <ele>424.56</ele>
        <time>2019-07-09T10:55:33Z</time>
      </trkpt>
      <trkpt lat="48.48509" lon="6.92405">
        <ele>425.04</ele>
        <time>2019-07-09T10:55:34Z</time>
      </trkpt>
      <trkpt lat="48.48508" lon="6.92407">
        <ele>425.52</ele>
        <time>2019-07-09T10:55:35Z</time>
      </trkpt>
      <trkpt lat="48.48507" lon="6.92408">
        <ele>426</ele>
        <time>2019-07-09T10:55:36Z</time>
      </trkpt>
      <trkpt lat="48.48506" lon="6.9241">
        <ele>426</ele>
        <time>2019-07-09T10:55:37Z</time>
      </trkpt>
      <trkpt lat="48.48502" lon="6.92415">
        <ele>427.92</ele>
        <time>2019-07-09T10:55:51Z</time>
      </trkpt>
      <trkpt lat="48.48502" lon="6.92416">
        <ele>427.44</ele>
        <time>2019-07-09T10:55:53Z</time>
      </trkpt>
      <trkpt lat="48.48493" lon="6.924">
        <ele>431.77</ele>
        <time>2019-07-09T10:56:03Z</time>
      </trkpt>
      <trkpt lat="48.48489" lon="6.92385">
        <ele>434.65</ele>
        <time>2019-07-09T10:56:10Z</time>
      </trkpt>
      <trkpt lat="48.4848" lon="6.92373">
        <ele>437.54</ele>
        <time>2019-07-09T10:56:17Z</time>
      </trkpt>
      <trkpt lat="48.48478" lon="6.9237">
        <ele>438.02</ele>
        <time>2019-07-09T10:56:20Z</time>
      </trkpt>
      <trkpt lat="48.48465" lon="6.92354">
        <ele>442.34</ele>
        <time>2019-07-09T10:56:35Z</time>
      </trkpt>
      <trkpt lat="48.48452" lon="6.92344">
        <ele>442.82</ele>
        <time>2019-07-09T10:56:48Z</time>
      </trkpt>
      <trkpt lat="48.48443" lon="6.92342">
        <ele>447.15</ele>
        <time>2019-07-09T10:57:03Z</time>
      </trkpt>
      <trkpt lat="48.48434" lon="6.92338">
        <ele>451</ele>
        <time>2019-07-09T10:57:17Z</time>
      </trkpt>
      <trkpt lat="48.48424" lon="6.92334">
        <ele>455.8</ele>
        <time>2019-07-09T10:57:31Z</time>
      </trkpt>
      <trkpt lat="48.48411" lon="6.92328">
        <ele>452.44</ele>
        <time>2019-07-09T10:57:43Z</time>
      </trkpt>
      <trkpt lat="48.48408" lon="6.92327">
        <ele>452.92</ele>
        <time>2019-07-09T10:57:45Z</time>
      </trkpt>
      <trkpt lat="48.48392" lon="6.92334">
        <ele>456.28</ele>
        <time>2019-07-09T10:57:56Z</time>
      </trkpt>
      <trkpt lat="48.48376" lon="6.92337">
        <ele>457.72</ele>
        <time>2019-07-09T10:58:11Z</time>
      </trkpt>
      <trkpt lat="48.48373" lon="6.92338">
        <ele>458.21</ele>
        <time>2019-07-09T10:58:14Z</time>
      </trkpt>
      <trkpt lat="48.48358" lon="6.92354">
        <ele>460.61</ele>
        <time>2019-07-09T10:58:26Z</time>
      </trkpt>
      <trkpt lat="48.4834" lon="6.92375">
        <ele>462.05</ele>
        <time>2019-07-09T10:58:41Z</time>
      </trkpt>
      <trkpt lat="48.4833" lon="6.92386">
        <ele>463.49</ele>
        <time>2019-07-09T10:58:51Z</time>
      </trkpt>
      <trkpt lat="48.48312" lon="6.92403">
        <ele>468.78</ele>
        <time>2019-07-09T10:59:06Z</time>
      </trkpt>
      <trkpt lat="48.48293" lon="6.92422">
        <ele>471.18</ele>
        <time>2019-07-09T10:59:20Z</time>
      </trkpt>
      <trkpt lat="48.48277" lon="6.92445">
        <ele>475.99</ele>
        <time>2019-07-09T10:59:34Z</time>
      </trkpt>
      <trkpt lat="48.48273" lon="6.92483">
        <ele>477.43</ele>
        <time>2019-07-09T10:59:47Z</time>
      </trkpt>
      <trkpt lat="48.48282" lon="6.92511">
        <ele>476.95</ele>
        <time>2019-07-09T10:59:57Z</time>
      </trkpt>
      <trkpt lat="48.48292" lon="6.92537">
        <ele>475.99</ele>
        <time>2019-07-09T11:00:05Z</time>
      </trkpt>
      <trkpt lat="48.48299" lon="6.92575">
        <ele>472.63</ele>
        <time>2019-07-09T11:00:17Z</time>
      </trkpt>
      <trkpt lat="48.48318" lon="6.92621">
        <ele>470.22</ele>
        <time>2019-07-09T11:00:30Z</time>
      </trkpt>
      <trkpt lat="48.48333" lon="6.92661">
        <ele>467.82</ele>
        <time>2019-07-09T11:00:41Z</time>
      </trkpt>
      <trkpt lat="48.48354" lon="6.92706">
        <ele>463.97</ele>
        <time>2019-07-09T11:00:53Z</time>
      </trkpt>
      <trkpt lat="48.48371" lon="6.92749">
        <ele>463.49</ele>
        <time>2019-07-09T11:01:06Z</time>
      </trkpt>
      <trkpt lat="48.48388" lon="6.92792">
        <ele>466.86</ele>
        <time>2019-07-09T11:01:18Z</time>
      </trkpt>
      <trkpt lat="48.48388" lon="6.92838">
        <ele>469.26</ele>
        <time>2019-07-09T11:01:29Z</time>
      </trkpt>
      <trkpt lat="48.48389" lon="6.92882">
        <ele>472.14</ele>
        <time>2019-07-09T11:01:40Z</time>
      </trkpt>
      <trkpt lat="48.48396" lon="6.92893">
        <ele>473.59</ele>
        <time>2019-07-09T11:01:46Z</time>
      </trkpt>
      <trkpt lat="48.48408" lon="6.92904">
        <ele>474.07</ele>
        <time>2019-07-09T11:01:53Z</time>
      </trkpt>
      <trkpt lat="48.48412" lon="6.92919">
        <ele>475.99</ele>
        <time>2019-07-09T11:02:00Z</time>
      </trkpt>
      <trkpt lat="48.48412" lon="6.92922">
        <ele>475.99</ele>
        <time>2019-07-09T11:02:01Z</time>
      </trkpt>
      <trkpt lat="48.48412" lon="6.92926">
        <ele>475.99</ele>
        <time>2019-07-09T11:02:02Z</time>
      </trkpt>
      <trkpt lat="48.48396" lon="6.92981">
        <ele>481.28</ele>
        <time>2019-07-09T11:02:17Z</time>
      </trkpt>
      <trkpt lat="48.48376" lon="6.93025">
        <ele>485.12</ele>
        <time>2019-07-09T11:02:31Z</time>
      </trkpt>
      <trkpt lat="48.4835" lon="6.93045">
        <ele>493.29</ele>
        <time>2019-07-09T11:02:45Z</time>
      </trkpt>
      <trkpt lat="48.48334" lon="6.93054">
        <ele>497.14</ele>
        <time>2019-07-09T11:02:55Z</time>
      </trkpt>
      <trkpt lat="48.48332" lon="6.93056">
        <ele>497.14</ele>
        <time>2019-07-09T11:02:56Z</time>
      </trkpt>
      <trkpt lat="48.48308" lon="6.93068">
        <ele>500.5</ele>
        <time>2019-07-09T11:03:11Z</time>
      </trkpt>
      <trkpt lat="48.48287" lon="6.9308">
        <ele>503.87</ele>
        <time>2019-07-09T11:03:24Z</time>
      </trkpt>
      <trkpt lat="48.48282" lon="6.93082">
        <ele>504.83</ele>
        <time>2019-07-09T11:03:27Z</time>
      </trkpt>
      <trkpt lat="48.48281" lon="6.93083">
        <ele>505.31</ele>
        <time>2019-07-09T11:03:28Z</time>
      </trkpt>
      <trkpt lat="48.48279" lon="6.93084">
        <ele>505.79</ele>
        <time>2019-07-09T11:03:29Z</time>
      </trkpt>
      <trkpt lat="48.48277" lon="6.93085">
        <ele>506.27</ele>
        <time>2019-07-09T11:03:30Z</time>
      </trkpt>
      <trkpt lat="48.48275" lon="6.93086">
        <ele>506.75</ele>
        <time>2019-07-09T11:03:31Z</time>
      </trkpt>
      <trkpt lat="48.48273" lon="6.93088">
        <ele>506.75</ele>
        <time>2019-07-09T11:03:32Z</time>
      </trkpt>
      <trkpt lat="48.48248" lon="6.93095">
        <ele>506.75</ele>
        <time>2019-07-09T11:03:44Z</time>
      </trkpt>
      <trkpt lat="48.48231" lon="6.93103">
        <ele>507.23</ele>
        <time>2019-07-09T11:03:54Z</time>
      </trkpt>
      <trkpt lat="48.48229" lon="6.93103">
        <ele>508.19</ele>
        <time>2019-07-09T11:03:55Z</time>
      </trkpt>
      <trkpt lat="48.48227" lon="6.93104">
        <ele>508.67</ele>
        <time>2019-07-09T11:03:56Z</time>
      </trkpt>
      <trkpt lat="48.48224" lon="6.93105">
        <ele>509.16</ele>
        <time>2019-07-09T11:03:57Z</time>
      </trkpt>
      <trkpt lat="48.48222" lon="6.93105">
        <ele>509.16</ele>
        <time>2019-07-09T11:03:58Z</time>
      </trkpt>
      <trkpt lat="48.48219" lon="6.93105">
        <ele>509.16</ele>
        <time>2019-07-09T11:03:59Z</time>
      </trkpt>
      <trkpt lat="48.48217" lon="6.93106">
        <ele>508.67</ele>
        <time>2019-07-09T11:04:00Z</time>
      </trkpt>
      <trkpt lat="48.48214" lon="6.93106">
        <ele>508.19</ele>
        <time>2019-07-09T11:04:01Z</time>
      </trkpt>
      <trkpt lat="48.48212" lon="6.93106">
        <ele>508.19</ele>
        <time>2019-07-09T11:04:02Z</time>
      </trkpt>
      <trkpt lat="48.4821" lon="6.93106">
        <ele>508.19</ele>
        <time>2019-07-09T11:04:03Z</time>
      </trkpt>
      <trkpt lat="48.48207" lon="6.93106">
        <ele>508.67</ele>
        <time>2019-07-09T11:04:04Z</time>
      </trkpt>
      <trkpt lat="48.48182" lon="6.931">
        <ele>510.6</ele>
        <time>2019-07-09T11:04:16Z</time>
      </trkpt>
      <trkpt lat="48.48171" lon="6.93101">
        <ele>500.02</ele>
        <time>2019-07-09T11:04:39Z</time>
      </trkpt>
      <trkpt lat="48.48173" lon="6.93103">
        <ele>499.06</ele>
        <time>2019-07-09T11:04:42Z</time>
      </trkpt>
      <trkpt lat="48.48174" lon="6.93103">
        <ele>499.06</ele>
        <time>2019-07-09T11:04:43Z</time>
      </trkpt>
      <trkpt lat="48.48176" lon="6.93104">
        <ele>499.54</ele>
        <time>2019-07-09T11:04:44Z</time>
      </trkpt>
      <trkpt lat="48.48178" lon="6.93104">
        <ele>499.54</ele>
        <time>2019-07-09T11:04:45Z</time>
      </trkpt>
      <trkpt lat="48.4818" lon="6.93104">
        <ele>499.06</ele>
        <time>2019-07-09T11:04:46Z</time>
      </trkpt>
      <trkpt lat="48.48182" lon="6.93104">
        <ele>499.06</ele>
        <time>2019-07-09T11:04:47Z</time>
      </trkpt>
      <trkpt lat="48.48219" lon="6.93102">
        <ele>492.33</ele>
        <time>2019-07-09T11:05:03Z</time>
      </trkpt>
      <trkpt lat="48.48241" lon="6.93097">
        <ele>490.89</ele>
        <time>2019-07-09T11:05:15Z</time>
      </trkpt>
      <trkpt lat="48.48244" lon="6.93097">
        <ele>491.37</ele>
        <time>2019-07-09T11:05:16Z</time>
      </trkpt>
      <trkpt lat="48.48247" lon="6.93098">
        <ele>491.37</ele>
        <time>2019-07-09T11:05:17Z</time>
      </trkpt>
      <trkpt lat="48.48249" lon="6.93099">
        <ele>491.85</ele>
        <time>2019-07-09T11:05:18Z</time>
      </trkpt>
      <trkpt lat="48.48255" lon="6.93104">
        <ele>492.33</ele>
        <time>2019-07-09T11:05:21Z</time>
      </trkpt>
      <trkpt lat="48.48278" lon="6.93133">
        <ele>494.74</ele>
        <time>2019-07-09T11:05:35Z</time>
      </trkpt>
      <trkpt lat="48.48282" lon="6.9314">
        <ele>495.7</ele>
        <time>2019-07-09T11:05:38Z</time>
      </trkpt>
      <trkpt lat="48.48283" lon="6.93142">
        <ele>495.7</ele>
        <time>2019-07-09T11:05:39Z</time>
      </trkpt>
      <trkpt lat="48.48284" lon="6.93145">
        <ele>495.7</ele>
        <time>2019-07-09T11:05:40Z</time>
      </trkpt>
      <trkpt lat="48.48295" lon="6.93178">
        <ele>498.1</ele>
        <time>2019-07-09T11:05:55Z</time>
      </trkpt>
      <trkpt lat="48.48315" lon="6.93228">
        <ele>499.06</ele>
        <time>2019-07-09T11:06:12Z</time>
      </trkpt>
      <trkpt lat="48.48338" lon="6.93287">
        <ele>494.26</ele>
        <time>2019-07-09T11:06:24Z</time>
      </trkpt>
      <trkpt lat="48.48342" lon="6.93292">
        <ele>493.77</ele>
        <time>2019-07-09T11:06:25Z</time>
      </trkpt>
      <trkpt lat="48.48383" lon="6.93333">
        <ele>488.01</ele>
        <time>2019-07-09T11:06:34Z</time>
      </trkpt>
      <trkpt lat="48.48387" lon="6.93336">
        <ele>487.53</ele>
        <time>2019-07-09T11:06:35Z</time>
      </trkpt>
      <trkpt lat="48.48402" lon="6.93341">
        <ele>486.08</ele>
        <time>2019-07-09T11:06:38Z</time>
      </trkpt>
      <trkpt lat="48.48407" lon="6.93344">
        <ele>485.6</ele>
        <time>2019-07-09T11:06:39Z</time>
      </trkpt>
      <trkpt lat="48.48413" lon="6.93349">
        <ele>485.12</ele>
        <time>2019-07-09T11:06:40Z</time>
      </trkpt>
      <trkpt lat="48.48419" lon="6.93355">
        <ele>484.64</ele>
        <time>2019-07-09T11:06:41Z</time>
      </trkpt>
      <trkpt lat="48.48424" lon="6.93363">
        <ele>484.16</ele>
        <time>2019-07-09T11:06:42Z</time>
      </trkpt>
      <trkpt lat="48.48428" lon="6.93371">
        <ele>483.68</ele>
        <time>2019-07-09T11:06:43Z</time>
      </trkpt>
      <trkpt lat="48.48432" lon="6.9338">
        <ele>483.68</ele>
        <time>2019-07-09T11:06:44Z</time>
      </trkpt>
      <trkpt lat="48.4845" lon="6.93429">
        <ele>482.72</ele>
        <time>2019-07-09T11:06:51Z</time>
      </trkpt>
      <trkpt lat="48.48458" lon="6.93446">
        <ele>481.76</ele>
        <time>2019-07-09T11:06:54Z</time>
      </trkpt>
      <trkpt lat="48.4846" lon="6.9345">
        <ele>481.28</ele>
        <time>2019-07-09T11:06:55Z</time>
      </trkpt>
      <trkpt lat="48.48473" lon="6.93485">
        <ele>480.8</ele>
        <time>2019-07-09T11:07:01Z</time>
      </trkpt>
      <trkpt lat="48.48478" lon="6.93518">
        <ele>478.87</ele>
        <time>2019-07-09T11:07:05Z</time>
      </trkpt>
      <trkpt lat="48.48478" lon="6.93527">
        <ele>478.39</ele>
        <time>2019-07-09T11:07:06Z</time>
      </trkpt>
      <trkpt lat="48.48477" lon="6.93571">
        <ele>476.95</ele>
        <time>2019-07-09T11:07:11Z</time>
      </trkpt>
      <trkpt lat="48.48482" lon="6.93603">
        <ele>477.43</ele>
        <time>2019-07-09T11:07:18Z</time>
      </trkpt>
      <trkpt lat="48.48482" lon="6.93605">
        <ele>477.43</ele>
        <time>2019-07-09T11:07:19Z</time>
      </trkpt>
      <trkpt lat="48.48482" lon="6.93607">
        <ele>477.91</ele>
        <time>2019-07-09T11:07:20Z</time>
      </trkpt>
      <trkpt lat="48.48482" lon="6.93609">
        <ele>477.91</ele>
        <time>2019-07-09T11:07:21Z</time>
      </trkpt>
      <trkpt lat="48.48483" lon="6.93611">
        <ele>477.91</ele>
        <time>2019-07-09T11:07:22Z</time>
      </trkpt>
      <trkpt lat="48.48484" lon="6.93614">
        <ele>477.91</ele>
        <time>2019-07-09T11:07:23Z</time>
      </trkpt>
      <trkpt lat="48.48485" lon="6.93616">
        <ele>477.91</ele>
        <time>2019-07-09T11:07:24Z</time>
      </trkpt>
      <trkpt lat="48.48486" lon="6.9362">
        <ele>477.91</ele>
        <time>2019-07-09T11:07:25Z</time>
      </trkpt>
      <trkpt lat="48.48487" lon="6.93623">
        <ele>477.91</ele>
        <time>2019-07-09T11:07:26Z</time>
      </trkpt>
      <trkpt lat="48.48488" lon="6.93626">
        <ele>477.91</ele>
        <time>2019-07-09T11:07:27Z</time>
      </trkpt>
      <trkpt lat="48.48489" lon="6.9363">
        <ele>477.91</ele>
        <time>2019-07-09T11:07:28Z</time>
      </trkpt>
      <trkpt lat="48.48489" lon="6.93633">
        <ele>477.91</ele>
        <time>2019-07-09T11:07:29Z</time>
      </trkpt>
      <trkpt lat="48.4849" lon="6.93636">
        <ele>478.39</ele>
        <time>2019-07-09T11:07:30Z</time>
      </trkpt>
      <trkpt lat="48.48491" lon="6.93638">
        <ele>478.87</ele>
        <time>2019-07-09T11:07:31Z</time>
      </trkpt>
      <trkpt lat="48.48491" lon="6.93641">
        <ele>479.35</ele>
        <time>2019-07-09T11:07:32Z</time>
      </trkpt>
      <trkpt lat="48.48508" lon="6.93682">
        <ele>482.24</ele>
        <time>2019-07-09T11:07:46Z</time>
      </trkpt>
      <trkpt lat="48.48515" lon="6.93705">
        <ele>481.76</ele>
        <time>2019-07-09T11:07:54Z</time>
      </trkpt>
      <trkpt lat="48.48516" lon="6.93708">
        <ele>481.76</ele>
        <time>2019-07-09T11:07:55Z</time>
      </trkpt>
      <trkpt lat="48.48516" lon="6.93711">
        <ele>481.76</ele>
        <time>2019-07-09T11:07:56Z</time>
      </trkpt>
      <trkpt lat="48.48513" lon="6.93728">
        <ele>484.16</ele>
        <time>2019-07-09T11:08:02Z</time>
      </trkpt>
      <trkpt lat="48.48511" lon="6.9373">
        <ele>484.64</ele>
        <time>2019-07-09T11:08:03Z</time>
      </trkpt>
      <trkpt lat="48.48509" lon="6.93732">
        <ele>485.12</ele>
        <time>2019-07-09T11:08:04Z</time>
      </trkpt>
      <trkpt lat="48.48479" lon="6.93752">
        <ele>489.45</ele>
        <time>2019-07-09T11:08:18Z</time>
      </trkpt>
      <trkpt lat="48.48446" lon="6.93773">
        <ele>488.49</ele>
        <time>2019-07-09T11:08:32Z</time>
      </trkpt>
      <trkpt lat="48.48408" lon="6.93796">
        <ele>488.49</ele>
        <time>2019-07-09T11:08:47Z</time>
      </trkpt>
      <trkpt lat="48.48374" lon="6.93811">
        <ele>495.22</ele>
        <time>2019-07-09T11:08:59Z</time>
      </trkpt>
      <trkpt lat="48.48363" lon="6.93844">
        <ele>500.98</ele>
        <time>2019-07-09T11:09:11Z</time>
      </trkpt>
      <trkpt lat="48.48364" lon="6.93846">
        <ele>501.46</ele>
        <time>2019-07-09T11:09:12Z</time>
      </trkpt>
      <trkpt lat="48.48368" lon="6.93853">
        <ele>501.46</ele>
        <time>2019-07-09T11:09:15Z</time>
      </trkpt>
      <trkpt lat="48.48369" lon="6.93855">
        <ele>501.46</ele>
        <time>2019-07-09T11:09:16Z</time>
      </trkpt>
      <trkpt lat="48.4838" lon="6.9389">
        <ele>502.91</ele>
        <time>2019-07-09T11:09:28Z</time>
      </trkpt>
      <trkpt lat="48.48381" lon="6.93939">
        <ele>502.91</ele>
        <time>2019-07-09T11:09:41Z</time>
      </trkpt>
      <trkpt lat="48.48377" lon="6.93998">
        <ele>504.83</ele>
        <time>2019-07-09T11:09:57Z</time>
      </trkpt>
      <trkpt lat="48.48382" lon="6.94054">
        <ele>498.1</ele>
        <time>2019-07-09T11:10:11Z</time>
      </trkpt>
      <trkpt lat="48.48384" lon="6.94102">
        <ele>499.06</ele>
        <time>2019-07-09T11:10:26Z</time>
      </trkpt>
      <trkpt lat="48.48384" lon="6.94119">
        <ele>500.5</ele>
        <time>2019-07-09T11:10:31Z</time>
      </trkpt>
      <trkpt lat="48.48383" lon="6.94122">
        <ele>500.5</ele>
        <time>2019-07-09T11:10:32Z</time>
      </trkpt>
      <trkpt lat="48.48376" lon="6.94179">
        <ele>505.79</ele>
        <time>2019-07-09T11:10:47Z</time>
      </trkpt>
      <trkpt lat="48.48372" lon="6.94227">
        <ele>507.23</ele>
        <time>2019-07-09T11:11:00Z</time>
      </trkpt>
      <trkpt lat="48.48362" lon="6.94284">
        <ele>513</ele>
        <time>2019-07-09T11:11:15Z</time>
      </trkpt>
      <trkpt lat="48.48349" lon="6.94327">
        <ele>516.85</ele>
        <time>2019-07-09T11:11:27Z</time>
      </trkpt>
      <trkpt lat="48.48327" lon="6.94346">
        <ele>519.73</ele>
        <time>2019-07-09T11:11:40Z</time>
      </trkpt>
      <trkpt lat="48.48305" lon="6.94361">
        <ele>521.17</ele>
        <time>2019-07-09T11:11:54Z</time>
      </trkpt>
      <trkpt lat="48.48295" lon="6.9437">
        <ele>521.17</ele>
        <time>2019-07-09T11:12:00Z</time>
      </trkpt>
      <trkpt lat="48.48268" lon="6.94365">
        <ele>521.65</ele>
        <time>2019-07-09T11:12:12Z</time>
      </trkpt>
      <trkpt lat="48.48242" lon="6.94345">
        <ele>521.17</ele>
        <time>2019-07-09T11:12:21Z</time>
      </trkpt>
      <trkpt lat="48.48203" lon="6.94311">
        <ele>513.48</ele>
        <time>2019-07-09T11:12:30Z</time>
      </trkpt>
      <trkpt lat="48.48194" lon="6.94316">
        <ele>511.08</ele>
        <time>2019-07-09T11:12:38Z</time>
      </trkpt>
      <trkpt lat="48.4819" lon="6.94319">
        <ele>506.75</ele>
        <time>2019-07-09T11:12:47Z</time>
      </trkpt>
      <trkpt lat="48.4819" lon="6.94324">
        <ele>503.39</ele>
        <time>2019-07-09T11:13:04Z</time>
      </trkpt>
      <trkpt lat="48.48191" lon="6.94321">
        <ele>505.79</ele>
        <time>2019-07-09T11:13:27Z</time>
      </trkpt>
      <trkpt lat="48.4819" lon="6.94325">
        <ele>502.91</ele>
        <time>2019-07-09T11:13:41Z</time>
      </trkpt>
      <trkpt lat="48.48187" lon="6.94329">
        <ele>500.02</ele>
        <time>2019-07-09T11:13:55Z</time>
      </trkpt>
      <trkpt lat="48.48188" lon="6.94334">
        <ele>498.58</ele>
        <time>2019-07-09T11:14:09Z</time>
      </trkpt>
      <trkpt lat="48.48184" lon="6.94342">
        <ele>494.26</ele>
        <time>2019-07-09T11:14:22Z</time>
      </trkpt>
      <trkpt lat="48.48183" lon="6.9435">
        <ele>492.33</ele>
        <time>2019-07-09T11:14:30Z</time>
      </trkpt>
      <trkpt lat="48.48185" lon="6.9436">
        <ele>488.97</ele>
        <time>2019-07-09T11:14:43Z</time>
      </trkpt>
      <trkpt lat="48.48186" lon="6.9437">
        <ele>488.97</ele>
        <time>2019-07-09T11:15:01Z</time>
      </trkpt>
      <trkpt lat="48.48186" lon="6.94376">
        <ele>492.33</ele>
        <time>2019-07-09T11:15:23Z</time>
      </trkpt>
      <trkpt lat="48.48188" lon="6.94384">
        <ele>494.74</ele>
        <time>2019-07-09T11:15:36Z</time>
      </trkpt>
      <trkpt lat="48.48191" lon="6.9439">
        <ele>494.74</ele>
        <time>2019-07-09T11:15:59Z</time>
      </trkpt>
      <trkpt lat="48.48193" lon="6.94394">
        <ele>494.74</ele>
        <time>2019-07-09T11:16:02Z</time>
      </trkpt>
      <trkpt lat="48.48197" lon="6.94411">
        <ele>492.33</ele>
        <time>2019-07-09T11:16:10Z</time>
      </trkpt>
      <trkpt lat="48.48202" lon="6.94416">
        <ele>491.37</ele>
        <time>2019-07-09T11:16:21Z</time>
      </trkpt>
      <trkpt lat="48.48206" lon="6.94427">
        <ele>493.77</ele>
        <time>2019-07-09T11:16:37Z</time>
      </trkpt>
      <trkpt lat="48.48211" lon="6.94435">
        <ele>496.18</ele>
        <time>2019-07-09T11:16:51Z</time>
      </trkpt>
      <trkpt lat="48.4821" lon="6.94434">
        <ele>497.62</ele>
        <time>2019-07-09T11:16:57Z</time>
      </trkpt>
      <trkpt lat="48.48208" lon="6.94432">
        <ele>498.58</ele>
        <time>2019-07-09T11:17:08Z</time>
      </trkpt>
      <trkpt lat="48.48209" lon="6.94436">
        <ele>497.62</ele>
        <time>2019-07-09T11:17:20Z</time>
      </trkpt>
      <trkpt lat="48.48209" lon="6.94442">
        <ele>488.97</ele>
        <time>2019-07-09T11:17:47Z</time>
      </trkpt>
      <trkpt lat="48.48212" lon="6.94444">
        <ele>479.35</ele>
        <time>2019-07-09T11:18:17Z</time>
      </trkpt>
      <trkpt lat="48.48216" lon="6.9445">
        <ele>493.29</ele>
        <time>2019-07-09T11:18:29Z</time>
      </trkpt>
      <trkpt lat="48.4822" lon="6.94459">
        <ele>498.1</ele>
        <time>2019-07-09T11:18:43Z</time>
      </trkpt>
      <trkpt lat="48.48219" lon="6.94463">
        <ele>499.06</ele>
        <time>2019-07-09T11:18:57Z</time>
      </trkpt>
      <trkpt lat="48.48223" lon="6.94472">
        <ele>500.98</ele>
        <time>2019-07-09T11:19:18Z</time>
      </trkpt>
      <trkpt lat="48.48226" lon="6.94481">
        <ele>501.46</ele>
        <time>2019-07-09T11:19:23Z</time>
      </trkpt>
      <trkpt lat="48.48231" lon="6.94502">
        <ele>501.46</ele>
        <time>2019-07-09T11:19:35Z</time>
      </trkpt>
      <trkpt lat="48.48232" lon="6.94512">
        <ele>501.46</ele>
        <time>2019-07-09T11:20:01Z</time>
      </trkpt>
      <trkpt lat="48.48238" lon="6.94532">
        <ele>499.54</ele>
        <time>2019-07-09T11:20:10Z</time>
      </trkpt>
      <trkpt lat="48.48238" lon="6.94533">
        <ele>498.58</ele>
        <time>2019-07-09T11:20:21Z</time>
      </trkpt>
      <trkpt lat="48.48236" lon="6.94538">
        <ele>501.46</ele>
        <time>2019-07-09T11:20:43Z</time>
      </trkpt>
      <trkpt lat="48.48236" lon="6.94538">
        <ele>506.75</ele>
        <time>2019-07-09T11:21:08Z</time>
      </trkpt>
      <trkpt lat="48.48236" lon="6.94542">
        <ele>506.27</ele>
        <time>2019-07-09T11:21:12Z</time>
      </trkpt>
      <trkpt lat="48.4824" lon="6.94563">
        <ele>502.91</ele>
        <time>2019-07-09T11:21:21Z</time>
      </trkpt>
      <trkpt lat="48.48243" lon="6.94578">
        <ele>502.43</ele>
        <time>2019-07-09T11:21:31Z</time>
      </trkpt>
      <trkpt lat="48.48244" lon="6.94582">
        <ele>500.98</ele>
        <time>2019-07-09T11:21:55Z</time>
      </trkpt>
      <trkpt lat="48.48248" lon="6.94588">
        <ele>500.5</ele>
        <time>2019-07-09T11:21:59Z</time>
      </trkpt>
      <trkpt lat="48.48248" lon="6.94597">
        <ele>500.02</ele>
        <time>2019-07-09T11:22:03Z</time>
      </trkpt>
      <trkpt lat="48.48255" lon="6.94623">
        <ele>497.14</ele>
        <time>2019-07-09T11:22:16Z</time>
      </trkpt>
      <trkpt lat="48.48257" lon="6.9463">
        <ele>496.18</ele>
        <time>2019-07-09T11:22:21Z</time>
      </trkpt>
      <trkpt lat="48.48256" lon="6.94643">
        <ele>495.22</ele>
        <time>2019-07-09T11:22:27Z</time>
      </trkpt>
      <trkpt lat="48.48261" lon="6.94668">
        <ele>495.7</ele>
        <time>2019-07-09T11:22:39Z</time>
      </trkpt>
      <trkpt lat="48.48265" lon="6.94685">
        <ele>496.66</ele>
        <time>2019-07-09T11:23:00Z</time>
      </trkpt>
      <trkpt lat="48.48272" lon="6.94718">
        <ele>494.74</ele>
        <time>2019-07-09T11:23:09Z</time>
      </trkpt>
      <trkpt lat="48.48276" lon="6.94728">
        <ele>492.33</ele>
        <time>2019-07-09T11:23:25Z</time>
      </trkpt>
      <trkpt lat="48.48285" lon="6.94738">
        <ele>495.7</ele>
        <time>2019-07-09T11:23:41Z</time>
      </trkpt>
      <trkpt lat="48.4829" lon="6.94748">
        <ele>497.14</ele>
        <time>2019-07-09T11:23:53Z</time>
      </trkpt>
      <trkpt lat="48.48295" lon="6.94757">
        <ele>502.43</ele>
        <time>2019-07-09T11:24:07Z</time>
      </trkpt>
      <trkpt lat="48.483" lon="6.94762">
        <ele>503.87</ele>
        <time>2019-07-09T11:24:16Z</time>
      </trkpt>
      <trkpt lat="48.48307" lon="6.94779">
        <ele>504.35</ele>
        <time>2019-07-09T11:24:25Z</time>
      </trkpt>
      <trkpt lat="48.48315" lon="6.94794">
        <ele>505.31</ele>
        <time>2019-07-09T11:24:38Z</time>
      </trkpt>
      <trkpt lat="48.48322" lon="6.94804">
        <ele>506.27</ele>
        <time>2019-07-09T11:24:52Z</time>
      </trkpt>
      <trkpt lat="48.48327" lon="6.94817">
        <ele>505.79</ele>
        <time>2019-07-09T11:25:07Z</time>
      </trkpt>
      <trkpt lat="48.48328" lon="6.94825">
        <ele>506.27</ele>
        <time>2019-07-09T11:25:14Z</time>
      </trkpt>
      <trkpt lat="48.48335" lon="6.9486">
        <ele>507.71</ele>
        <time>2019-07-09T11:25:24Z</time>
      </trkpt>
      <trkpt lat="48.48337" lon="6.94867">
        <ele>507.23</ele>
        <time>2019-07-09T11:25:26Z</time>
      </trkpt>
      <trkpt lat="48.48342" lon="6.94881">
        <ele>509.16</ele>
        <time>2019-07-09T11:25:39Z</time>
      </trkpt>
      <trkpt lat="48.48347" lon="6.94889">
        <ele>509.64</ele>
        <time>2019-07-09T11:25:53Z</time>
      </trkpt>
      <trkpt lat="48.4835" lon="6.94896">
        <ele>511.08</ele>
        <time>2019-07-09T11:26:05Z</time>
      </trkpt>
      <trkpt lat="48.48357" lon="6.94906">
        <ele>514.44</ele>
        <time>2019-07-09T11:26:19Z</time>
      </trkpt>
      <trkpt lat="48.48361" lon="6.94915">
        <ele>513</ele>
        <time>2019-07-09T11:26:31Z</time>
      </trkpt>
      <trkpt lat="48.48365" lon="6.94921">
        <ele>516.37</ele>
        <time>2019-07-09T11:26:43Z</time>
      </trkpt>
      <trkpt lat="48.48374" lon="6.94915">
        <ele>522.13</ele>
        <time>2019-07-09T11:27:00Z</time>
      </trkpt>
      <trkpt lat="48.48377" lon="6.94917">
        <ele>520.69</ele>
        <time>2019-07-09T11:27:13Z</time>
      </trkpt>
      <trkpt lat="48.48378" lon="6.94916">
        <ele>521.65</ele>
        <time>2019-07-09T11:27:25Z</time>
      </trkpt>
      <trkpt lat="48.48379" lon="6.94917">
        <ele>522.13</ele>
        <time>2019-07-09T11:27:39Z</time>
      </trkpt>
      <trkpt lat="48.48379" lon="6.94917">
        <ele>521.65</ele>
        <time>2019-07-09T11:27:51Z</time>
      </trkpt>
      <trkpt lat="48.48378" lon="6.94918">
        <ele>522.61</ele>
        <time>2019-07-09T11:28:07Z</time>
      </trkpt>
      <trkpt lat="48.48374" lon="6.9491">
        <ele>526.46</ele>
        <time>2019-07-09T11:28:44Z</time>
      </trkpt>
      <trkpt lat="48.48378" lon="6.94912">
        <ele>527.42</ele>
        <time>2019-07-09T11:29:05Z</time>
      </trkpt>
      <trkpt lat="48.48384" lon="6.94919">
        <ele>527.42</ele>
        <time>2019-07-09T11:29:17Z</time>
      </trkpt>
      <trkpt lat="48.48387" lon="6.94929">
        <ele>529.34</ele>
        <time>2019-07-09T11:29:33Z</time>
      </trkpt>
      <trkpt lat="48.48391" lon="6.94938">
        <ele>530.79</ele>
        <time>2019-07-09T11:29:52Z</time>
      </trkpt>
      <trkpt lat="48.48394" lon="6.94957">
        <ele>530.79</ele>
        <time>2019-07-09T11:30:09Z</time>
      </trkpt>
      <trkpt lat="48.48395" lon="6.94968">
        <ele>536.07</ele>
        <time>2019-07-09T11:30:26Z</time>
      </trkpt>
      <trkpt lat="48.48394" lon="6.94974">
        <ele>535.59</ele>
        <time>2019-07-09T11:30:31Z</time>
      </trkpt>
      <trkpt lat="48.48393" lon="6.94982">
        <ele>535.59</ele>
        <time>2019-07-09T11:30:35Z</time>
      </trkpt>
      <trkpt lat="48.48378" lon="6.95012">
        <ele>540.88</ele>
        <time>2019-07-09T11:30:52Z</time>
      </trkpt>
      <trkpt lat="48.48367" lon="6.95045">
        <ele>543.28</ele>
        <time>2019-07-09T11:31:07Z</time>
      </trkpt>
      <trkpt lat="48.48359" lon="6.95072">
        <ele>543.76</ele>
        <time>2019-07-09T11:31:21Z</time>
      </trkpt>
      <trkpt lat="48.48358" lon="6.95073">
        <ele>543.76</ele>
        <time>2019-07-09T11:31:22Z</time>
      </trkpt>
      <trkpt lat="48.48353" lon="6.95093">
        <ele>542.8</ele>
        <time>2019-07-09T11:31:31Z</time>
      </trkpt>
      <trkpt lat="48.48338" lon="6.95129">
        <ele>541.36</ele>
        <time>2019-07-09T11:31:49Z</time>
      </trkpt>
      <trkpt lat="48.48319" lon="6.95154">
        <ele>539.44</ele>
        <time>2019-07-09T11:32:03Z</time>
      </trkpt>
      <trkpt lat="48.4829" lon="6.95177">
        <ele>537.99</ele>
        <time>2019-07-09T11:32:18Z</time>
      </trkpt>
      <trkpt lat="48.48258" lon="6.95198">
        <ele>535.59</ele>
        <time>2019-07-09T11:32:34Z</time>
      </trkpt>
      <trkpt lat="48.48247" lon="6.95201">
        <ele>535.11</ele>
        <time>2019-07-09T11:32:37Z</time>
      </trkpt>
      <trkpt lat="48.48238" lon="6.95199">
        <ele>534.15</ele>
        <time>2019-07-09T11:32:39Z</time>
      </trkpt>
      <trkpt lat="48.4822" lon="6.95191">
        <ele>531.27</ele>
        <time>2019-07-09T11:32:48Z</time>
      </trkpt>
      <trkpt lat="48.48206" lon="6.95198">
        <ele>531.75</ele>
        <time>2019-07-09T11:32:59Z</time>
      </trkpt>
      <trkpt lat="48.48204" lon="6.952">
        <ele>532.23</ele>
        <time>2019-07-09T11:33:00Z</time>
      </trkpt>
      <trkpt lat="48.48203" lon="6.95202">
        <ele>531.75</ele>
        <time>2019-07-09T11:33:01Z</time>
      </trkpt>
      <trkpt lat="48.48201" lon="6.95205">
        <ele>531.75</ele>
        <time>2019-07-09T11:33:02Z</time>
      </trkpt>
      <trkpt lat="48.482" lon="6.95208">
        <ele>531.75</ele>
        <time>2019-07-09T11:33:03Z</time>
      </trkpt>
      <trkpt lat="48.48199" lon="6.95212">
        <ele>531.27</ele>
        <time>2019-07-09T11:33:04Z</time>
      </trkpt>
      <trkpt lat="48.48198" lon="6.95216">
        <ele>530.79</ele>
        <time>2019-07-09T11:33:05Z</time>
      </trkpt>
      <trkpt lat="48.48197" lon="6.9522">
        <ele>530.3</ele>
        <time>2019-07-09T11:33:06Z</time>
      </trkpt>
      <trkpt lat="48.48196" lon="6.95223">
        <ele>529.82</ele>
        <time>2019-07-09T11:33:07Z</time>
      </trkpt>
      <trkpt lat="48.48193" lon="6.95227">
        <ele>528.86</ele>
        <time>2019-07-09T11:33:08Z</time>
      </trkpt>
      <trkpt lat="48.48191" lon="6.9523">
        <ele>528.86</ele>
        <time>2019-07-09T11:33:09Z</time>
      </trkpt>
      <trkpt lat="48.48189" lon="6.95234">
        <ele>527.9</ele>
        <time>2019-07-09T11:33:10Z</time>
      </trkpt>
      <trkpt lat="48.48153" lon="6.95256">
        <ele>522.61</ele>
        <time>2019-07-09T11:33:21Z</time>
      </trkpt>
      <trkpt lat="48.48142" lon="6.95253">
        <ele>520.69</ele>
        <time>2019-07-09T11:33:29Z</time>
      </trkpt>
      <trkpt lat="48.48141" lon="6.95255">
        <ele>520.69</ele>
        <time>2019-07-09T11:33:35Z</time>
      </trkpt>
      <trkpt lat="48.48141" lon="6.95257">
        <ele>521.17</ele>
        <time>2019-07-09T11:33:36Z</time>
      </trkpt>
      <trkpt lat="48.48142" lon="6.95259">
        <ele>521.65</ele>
        <time>2019-07-09T11:33:37Z</time>
      </trkpt>
      <trkpt lat="48.48142" lon="6.95261">
        <ele>521.65</ele>
        <time>2019-07-09T11:33:38Z</time>
      </trkpt>
      <trkpt lat="48.48142" lon="6.95263">
        <ele>522.13</ele>
        <time>2019-07-09T11:33:39Z</time>
      </trkpt>
      <trkpt lat="48.48139" lon="6.95273">
        <ele>521.65</ele>
        <time>2019-07-09T11:33:54Z</time>
      </trkpt>
      <trkpt lat="48.48137" lon="6.95281">
        <ele>521.17</ele>
        <time>2019-07-09T11:33:58Z</time>
      </trkpt>
      <trkpt lat="48.48136" lon="6.95282">
        <ele>521.17</ele>
        <time>2019-07-09T11:33:59Z</time>
      </trkpt>
      <trkpt lat="48.48104" lon="6.95308">
        <ele>518.29</ele>
        <time>2019-07-09T11:34:11Z</time>
      </trkpt>
      <trkpt lat="48.48073" lon="6.95331">
        <ele>515.4</ele>
        <time>2019-07-09T11:34:18Z</time>
      </trkpt>
      <trkpt lat="48.48057" lon="6.95352">
        <ele>512.52</ele>
        <time>2019-07-09T11:34:22Z</time>
      </trkpt>
      <trkpt lat="48.48054" lon="6.95357">
        <ele>512.04</ele>
        <time>2019-07-09T11:34:23Z</time>
      </trkpt>
      <trkpt lat="48.48051" lon="6.95363">
        <ele>511.56</ele>
        <time>2019-07-09T11:34:24Z</time>
      </trkpt>
      <trkpt lat="48.48041" lon="6.95383">
        <ele>509.16</ele>
        <time>2019-07-09T11:34:27Z</time>
      </trkpt>
      <trkpt lat="48.48034" lon="6.95404">
        <ele>506.75</ele>
        <time>2019-07-09T11:34:30Z</time>
      </trkpt>
      <trkpt lat="48.48031" lon="6.95411">
        <ele>505.79</ele>
        <time>2019-07-09T11:34:31Z</time>
      </trkpt>
      <trkpt lat="48.48028" lon="6.95417">
        <ele>504.83</ele>
        <time>2019-07-09T11:34:32Z</time>
      </trkpt>
      <trkpt lat="48.48025" lon="6.95423">
        <ele>504.35</ele>
        <time>2019-07-09T11:34:33Z</time>
      </trkpt>
      <trkpt lat="48.48022" lon="6.9543">
        <ele>503.39</ele>
        <time>2019-07-09T11:34:34Z</time>
      </trkpt>
      <trkpt lat="48.48019" lon="6.95437">
        <ele>502.43</ele>
        <time>2019-07-09T11:34:35Z</time>
      </trkpt>
      <trkpt lat="48.48015" lon="6.95443">
        <ele>501.95</ele>
        <time>2019-07-09T11:34:36Z</time>
      </trkpt>
      <trkpt lat="48.48011" lon="6.9545">
        <ele>500.98</ele>
        <time>2019-07-09T11:34:37Z</time>
      </trkpt>
      <trkpt lat="48.48008" lon="6.95456">
        <ele>500.5</ele>
        <time>2019-07-09T11:34:38Z</time>
      </trkpt>
      <trkpt lat="48.48004" lon="6.95462">
        <ele>500.02</ele>
        <time>2019-07-09T11:34:39Z</time>
      </trkpt>
      <trkpt lat="48.48" lon="6.95468">
        <ele>499.54</ele>
        <time>2019-07-09T11:34:40Z</time>
      </trkpt>
      <trkpt lat="48.47988" lon="6.95484">
        <ele>498.1</ele>
        <time>2019-07-09T11:34:43Z</time>
      </trkpt>
      <trkpt lat="48.47985" lon="6.95487">
        <ele>497.62</ele>
        <time>2019-07-09T11:34:44Z</time>
      </trkpt>
      <trkpt lat="48.47985" lon="6.95489">
        <ele>499.54</ele>
        <time>2019-07-09T11:34:52Z</time>
      </trkpt>
      <trkpt lat="48.47969" lon="6.95507">
        <ele>503.87</ele>
        <time>2019-07-09T11:35:03Z</time>
      </trkpt>
      <trkpt lat="48.47943" lon="6.95538">
        <ele>504.35</ele>
        <time>2019-07-09T11:35:16Z</time>
      </trkpt>
      <trkpt lat="48.47911" lon="6.95564">
        <ele>508.67</ele>
        <time>2019-07-09T11:35:31Z</time>
      </trkpt>
      <trkpt lat="48.47884" lon="6.95565">
        <ele>513.96</ele>
        <time>2019-07-09T11:35:45Z</time>
      </trkpt>
      <trkpt lat="48.47868" lon="6.95578">
        <ele>516.85</ele>
        <time>2019-07-09T11:35:56Z</time>
      </trkpt>
      <trkpt lat="48.47867" lon="6.9558">
        <ele>516.85</ele>
        <time>2019-07-09T11:35:57Z</time>
      </trkpt>
      <trkpt lat="48.47868" lon="6.95581">
        <ele>516.85</ele>
        <time>2019-07-09T11:35:58Z</time>
      </trkpt>
      <trkpt lat="48.47869" lon="6.95582">
        <ele>516.85</ele>
        <time>2019-07-09T11:35:59Z</time>
      </trkpt>
      <trkpt lat="48.4787" lon="6.95583">
        <ele>516.37</ele>
        <time>2019-07-09T11:36:00Z</time>
      </trkpt>
      <trkpt lat="48.4791" lon="6.9559">
        <ele>514.44</ele>
        <time>2019-07-09T11:36:10Z</time>
      </trkpt>
      <trkpt lat="48.47936" lon="6.9559">
        <ele>512.04</ele>
        <time>2019-07-09T11:36:14Z</time>
      </trkpt>
      <trkpt lat="48.47944" lon="6.95587">
        <ele>511.08</ele>
        <time>2019-07-09T11:36:15Z</time>
      </trkpt>
      <trkpt lat="48.47952" lon="6.95584">
        <ele>510.12</ele>
        <time>2019-07-09T11:36:16Z</time>
      </trkpt>
      <trkpt lat="48.4796" lon="6.95579">
        <ele>509.16</ele>
        <time>2019-07-09T11:36:17Z</time>
      </trkpt>
      <trkpt lat="48.47969" lon="6.95573">
        <ele>508.19</ele>
        <time>2019-07-09T11:36:18Z</time>
      </trkpt>
      <trkpt lat="48.48047" lon="6.95494">
        <ele>497.14</ele>
        <time>2019-07-09T11:36:28Z</time>
      </trkpt>
      <trkpt lat="48.4806" lon="6.95474">
        <ele>494.74</ele>
        <time>2019-07-09T11:36:30Z</time>
      </trkpt>
      <trkpt lat="48.4809" lon="6.95421">
        <ele>488.49</ele>
        <time>2019-07-09T11:36:35Z</time>
      </trkpt>
      <trkpt lat="48.48097" lon="6.95413">
        <ele>487.05</ele>
        <time>2019-07-09T11:36:36Z</time>
      </trkpt>
      <trkpt lat="48.48105" lon="6.95407">
        <ele>486.08</ele>
        <time>2019-07-09T11:36:37Z</time>
      </trkpt>
      <trkpt lat="48.48113" lon="6.95404">
        <ele>485.6</ele>
        <time>2019-07-09T11:36:38Z</time>
      </trkpt>
      <trkpt lat="48.48121" lon="6.95402">
        <ele>485.12</ele>
        <time>2019-07-09T11:36:39Z</time>
      </trkpt>
      <trkpt lat="48.48129" lon="6.95402">
        <ele>484.64</ele>
        <time>2019-07-09T11:36:40Z</time>
      </trkpt>
      <trkpt lat="48.48136" lon="6.95404">
        <ele>484.16</ele>
        <time>2019-07-09T11:36:41Z</time>
      </trkpt>
      <trkpt lat="48.48143" lon="6.95407">
        <ele>483.68</ele>
        <time>2019-07-09T11:36:42Z</time>
      </trkpt>
      <trkpt lat="48.4815" lon="6.95411">
        <ele>483.68</ele>
        <time>2019-07-09T11:36:43Z</time>
      </trkpt>
      <trkpt lat="48.48184" lon="6.95434">
        <ele>482.24</ele>
        <time>2019-07-09T11:36:48Z</time>
      </trkpt>
      <trkpt lat="48.4819" lon="6.95441">
        <ele>481.76</ele>
        <time>2019-07-09T11:36:49Z</time>
      </trkpt>
      <trkpt lat="48.48197" lon="6.95449">
        <ele>481.28</ele>
        <time>2019-07-09T11:36:50Z</time>
      </trkpt>
      <trkpt lat="48.48203" lon="6.95458">
        <ele>481.28</ele>
        <time>2019-07-09T11:36:51Z</time>
      </trkpt>
      <trkpt lat="48.48208" lon="6.95469">
        <ele>481.28</ele>
        <time>2019-07-09T11:36:52Z</time>
      </trkpt>
      <trkpt lat="48.48213" lon="6.9548">
        <ele>480.8</ele>
        <time>2019-07-09T11:36:53Z</time>
      </trkpt>
      <trkpt lat="48.48218" lon="6.9549">
        <ele>480.32</ele>
        <time>2019-07-09T11:36:54Z</time>
      </trkpt>
      <trkpt lat="48.48224" lon="6.95499">
        <ele>479.84</ele>
        <time>2019-07-09T11:36:55Z</time>
      </trkpt>
      <trkpt lat="48.48229" lon="6.95508">
        <ele>478.87</ele>
        <time>2019-07-09T11:36:56Z</time>
      </trkpt>
      <trkpt lat="48.48247" lon="6.95529">
        <ele>475.99</ele>
        <time>2019-07-09T11:36:59Z</time>
      </trkpt>
      <trkpt lat="48.48252" lon="6.95535">
        <ele>475.03</ele>
        <time>2019-07-09T11:37:00Z</time>
      </trkpt>
      <trkpt lat="48.48314" lon="6.9557">
        <ele>464.93</ele>
        <time>2019-07-09T11:37:10Z</time>
      </trkpt>
      <trkpt lat="48.4833" lon="6.95579">
        <ele>461.57</ele>
        <time>2019-07-09T11:37:16Z</time>
      </trkpt>
      <trkpt lat="48.4833" lon="6.95576">
        <ele>463.97</ele>
        <time>2019-07-09T11:37:36Z</time>
      </trkpt>
      <trkpt lat="48.48332" lon="6.9558">
        <ele>474.07</ele>
        <time>2019-07-09T11:38:10Z</time>
      </trkpt>
      <trkpt lat="48.48332" lon="6.95578">
        <ele>474.07</ele>
        <time>2019-07-09T11:38:47Z</time>
      </trkpt>
      <trkpt lat="48.48337" lon="6.95577">
        <ele>472.14</ele>
        <time>2019-07-09T11:39:24Z</time>
      </trkpt>
      <trkpt lat="48.48336" lon="6.95576">
        <ele>470.7</ele>
        <time>2019-07-09T11:39:58Z</time>
      </trkpt>
      <trkpt lat="48.48336" lon="6.95575">
        <ele>471.18</ele>
        <time>2019-07-09T11:40:40Z</time>
      </trkpt>
      <trkpt lat="48.48331" lon="6.95578">
        <ele>467.82</ele>
        <time>2019-07-09T11:41:19Z</time>
      </trkpt>
      <trkpt lat="48.48334" lon="6.95579">
        <ele>465.9</ele>
        <time>2019-07-09T11:41:47Z</time>
      </trkpt>
      <trkpt lat="48.48337" lon="6.95577">
        <ele>464.45</ele>
        <time>2019-07-09T11:42:19Z</time>
      </trkpt>
      <trkpt lat="48.48339" lon="6.95577">
        <ele>466.38</ele>
        <time>2019-07-09T11:42:59Z</time>
      </trkpt>
      <trkpt lat="48.48338" lon="6.9558">
        <ele>463.49</ele>
        <time>2019-07-09T11:43:22Z</time>
      </trkpt>
      <trkpt lat="48.48339" lon="6.95581">
        <ele>463.49</ele>
        <time>2019-07-09T11:43:23Z</time>
      </trkpt>
      <trkpt lat="48.48341" lon="6.95583">
        <ele>463.49</ele>
        <time>2019-07-09T11:43:24Z</time>
      </trkpt>
      <trkpt lat="48.48343" lon="6.95584">
        <ele>463.97</ele>
        <time>2019-07-09T11:43:25Z</time>
      </trkpt>
      <trkpt lat="48.48344" lon="6.95586">
        <ele>463.97</ele>
        <time>2019-07-09T11:43:26Z</time>
      </trkpt>
      <trkpt lat="48.48346" lon="6.95587">
        <ele>463.97</ele>
        <time>2019-07-09T11:43:27Z</time>
      </trkpt>
      <trkpt lat="48.48347" lon="6.95589">
        <ele>463.49</ele>
        <time>2019-07-09T11:43:28Z</time>
      </trkpt>
      <trkpt lat="48.48349" lon="6.95591">
        <ele>463.49</ele>
        <time>2019-07-09T11:43:29Z</time>
      </trkpt>
      <trkpt lat="48.48376" lon="6.95622">
        <ele>463.01</ele>
        <time>2019-07-09T11:43:41Z</time>
      </trkpt>
      <trkpt lat="48.4839" lon="6.95638">
        <ele>463.49</ele>
        <time>2019-07-09T11:43:55Z</time>
      </trkpt>
      <trkpt lat="48.48394" lon="6.95643">
        <ele>463.97</ele>
        <time>2019-07-09T11:44:18Z</time>
      </trkpt>
      <trkpt lat="48.48414" lon="6.95665">
        <ele>466.38</ele>
        <time>2019-07-09T11:44:33Z</time>
      </trkpt>
      <trkpt lat="48.48426" lon="6.95678">
        <ele>468.78</ele>
        <time>2019-07-09T11:44:40Z</time>
      </trkpt>
      <trkpt lat="48.48428" lon="6.95679">
        <ele>469.26</ele>
        <time>2019-07-09T11:44:41Z</time>
      </trkpt>
      <trkpt lat="48.48451" lon="6.95699">
        <ele>470.22</ele>
        <time>2019-07-09T11:44:53Z</time>
      </trkpt>
      <trkpt lat="48.4846" lon="6.95703">
        <ele>469.26</ele>
        <time>2019-07-09T11:45:04Z</time>
      </trkpt>
      <trkpt lat="48.48461" lon="6.95705">
        <ele>469.26</ele>
        <time>2019-07-09T11:45:07Z</time>
      </trkpt>
      <trkpt lat="48.48462" lon="6.95706">
        <ele>469.26</ele>
        <time>2019-07-09T11:45:08Z</time>
      </trkpt>
      <trkpt lat="48.48463" lon="6.95707">
        <ele>469.26</ele>
        <time>2019-07-09T11:45:09Z</time>
      </trkpt>
      <trkpt lat="48.48465" lon="6.95707">
        <ele>469.26</ele>
        <time>2019-07-09T11:45:10Z</time>
      </trkpt>
      <trkpt lat="48.48466" lon="6.95708">
        <ele>469.74</ele>
        <time>2019-07-09T11:45:11Z</time>
      </trkpt>
      <trkpt lat="48.48468" lon="6.95708">
        <ele>469.74</ele>
        <time>2019-07-09T11:45:12Z</time>
      </trkpt>
      <trkpt lat="48.4847" lon="6.95709">
        <ele>469.74</ele>
        <time>2019-07-09T11:45:13Z</time>
      </trkpt>
      <trkpt lat="48.4848" lon="6.95715">
        <ele>470.22</ele>
        <time>2019-07-09T11:45:19Z</time>
      </trkpt>
      <trkpt lat="48.48481" lon="6.95716">
        <ele>470.7</ele>
        <time>2019-07-09T11:45:20Z</time>
      </trkpt>
      <trkpt lat="48.48498" lon="6.95724">
        <ele>469.74</ele>
        <time>2019-07-09T11:45:33Z</time>
      </trkpt>
      <trkpt lat="48.48499" lon="6.95724">
        <ele>470.22</ele>
        <time>2019-07-09T11:45:34Z</time>
      </trkpt>
      <trkpt lat="48.48501" lon="6.95725">
        <ele>470.22</ele>
        <time>2019-07-09T11:45:35Z</time>
      </trkpt>
      <trkpt lat="48.48502" lon="6.95725">
        <ele>470.22</ele>
        <time>2019-07-09T11:45:36Z</time>
      </trkpt>
      <trkpt lat="48.48504" lon="6.95726">
        <ele>470.7</ele>
        <time>2019-07-09T11:45:37Z</time>
      </trkpt>
      <trkpt lat="48.48505" lon="6.95726">
        <ele>471.18</ele>
        <time>2019-07-09T11:45:38Z</time>
      </trkpt>
      <trkpt lat="48.48507" lon="6.95726">
        <ele>471.18</ele>
        <time>2019-07-09T11:45:39Z</time>
      </trkpt>
      <trkpt lat="48.48526" lon="6.95738">
        <ele>479.35</ele>
        <time>2019-07-09T11:45:54Z</time>
      </trkpt>
      <trkpt lat="48.48543" lon="6.95754">
        <ele>483.68</ele>
        <time>2019-07-09T11:46:10Z</time>
      </trkpt>
      <trkpt lat="48.48557" lon="6.9577">
        <ele>486.08</ele>
        <time>2019-07-09T11:46:23Z</time>
      </trkpt>
      <trkpt lat="48.4857" lon="6.95783">
        <ele>486.08</ele>
        <time>2019-07-09T11:46:37Z</time>
      </trkpt>
      <trkpt lat="48.48571" lon="6.95784">
        <ele>486.08</ele>
        <time>2019-07-09T11:46:38Z</time>
      </trkpt>
      <trkpt lat="48.48573" lon="6.95785">
        <ele>486.08</ele>
        <time>2019-07-09T11:46:39Z</time>
      </trkpt>
      <trkpt lat="48.48574" lon="6.95786">
        <ele>486.08</ele>
        <time>2019-07-09T11:46:40Z</time>
      </trkpt>
      <trkpt lat="48.48575" lon="6.95787">
        <ele>486.56</ele>
        <time>2019-07-09T11:46:41Z</time>
      </trkpt>
      <trkpt lat="48.48576" lon="6.95789">
        <ele>486.56</ele>
        <time>2019-07-09T11:46:42Z</time>
      </trkpt>
      <trkpt lat="48.48577" lon="6.9579">
        <ele>487.05</ele>
        <time>2019-07-09T11:46:43Z</time>
      </trkpt>
      <trkpt lat="48.48579" lon="6.95791">
        <ele>487.05</ele>
        <time>2019-07-09T11:46:44Z</time>
      </trkpt>
      <trkpt lat="48.48598" lon="6.95803">
        <ele>488.01</ele>
        <time>2019-07-09T11:46:59Z</time>
      </trkpt>
      <trkpt lat="48.48615" lon="6.95816">
        <ele>489.93</ele>
        <time>2019-07-09T11:47:13Z</time>
      </trkpt>
      <trkpt lat="48.48637" lon="6.95826">
        <ele>488.97</ele>
        <time>2019-07-09T11:47:26Z</time>
      </trkpt>
      <trkpt lat="48.48653" lon="6.95835">
        <ele>490.41</ele>
        <time>2019-07-09T11:47:36Z</time>
      </trkpt>
      <trkpt lat="48.48655" lon="6.95836">
        <ele>490.41</ele>
        <time>2019-07-09T11:47:37Z</time>
      </trkpt>
      <trkpt lat="48.48657" lon="6.95837">
        <ele>490.89</ele>
        <time>2019-07-09T11:47:38Z</time>
      </trkpt>
      <trkpt lat="48.48658" lon="6.95839">
        <ele>490.89</ele>
        <time>2019-07-09T11:47:39Z</time>
      </trkpt>
      <trkpt lat="48.4866" lon="6.9584">
        <ele>491.37</ele>
        <time>2019-07-09T11:47:40Z</time>
      </trkpt>
      <trkpt lat="48.48662" lon="6.95841">
        <ele>491.85</ele>
        <time>2019-07-09T11:47:41Z</time>
      </trkpt>
      <trkpt lat="48.48663" lon="6.95841">
        <ele>492.33</ele>
        <time>2019-07-09T11:47:42Z</time>
      </trkpt>
      <trkpt lat="48.48665" lon="6.95842">
        <ele>492.81</ele>
        <time>2019-07-09T11:47:43Z</time>
      </trkpt>
      <trkpt lat="48.48693" lon="6.9585">
        <ele>494.26</ele>
        <time>2019-07-09T11:48:00Z</time>
      </trkpt>
      <trkpt lat="48.48711" lon="6.95859">
        <ele>497.14</ele>
        <time>2019-07-09T11:48:12Z</time>
      </trkpt>
      <trkpt lat="48.48716" lon="6.95862">
        <ele>497.62</ele>
        <time>2019-07-09T11:48:15Z</time>
      </trkpt>
      <trkpt lat="48.48744" lon="6.95873">
        <ele>497.14</ele>
        <time>2019-07-09T11:48:32Z</time>
      </trkpt>
      <trkpt lat="48.48761" lon="6.95875">
        <ele>497.14</ele>
        <time>2019-07-09T11:48:43Z</time>
      </trkpt>
      <trkpt lat="48.48762" lon="6.95875">
        <ele>497.14</ele>
        <time>2019-07-09T11:48:44Z</time>
      </trkpt>
      <trkpt lat="48.48785" lon="6.95889">
        <ele>501.46</ele>
        <time>2019-07-09T11:49:03Z</time>
      </trkpt>
      <trkpt lat="48.4879" lon="6.95892">
        <ele>502.91</ele>
        <time>2019-07-09T11:49:06Z</time>
      </trkpt>
      <trkpt lat="48.48816" lon="6.95917">
        <ele>501.46</ele>
        <time>2019-07-09T11:49:24Z</time>
      </trkpt>
      <trkpt lat="48.48818" lon="6.95918">
        <ele>501.95</ele>
        <time>2019-07-09T11:49:25Z</time>
      </trkpt>
      <trkpt lat="48.48829" lon="6.95933">
        <ele>503.87</ele>
        <time>2019-07-09T11:49:35Z</time>
      </trkpt>
      <trkpt lat="48.48829" lon="6.95935">
        <ele>504.35</ele>
        <time>2019-07-09T11:49:36Z</time>
      </trkpt>
      <trkpt lat="48.4883" lon="6.95936">
        <ele>504.35</ele>
        <time>2019-07-09T11:49:37Z</time>
      </trkpt>
      <trkpt lat="48.48831" lon="6.95938">
        <ele>504.35</ele>
        <time>2019-07-09T11:49:38Z</time>
      </trkpt>
      <trkpt lat="48.48832" lon="6.95939">
        <ele>504.83</ele>
        <time>2019-07-09T11:49:39Z</time>
      </trkpt>
      <trkpt lat="48.48833" lon="6.9594">
        <ele>504.83</ele>
        <time>2019-07-09T11:49:40Z</time>
      </trkpt>
      <trkpt lat="48.48834" lon="6.95942">
        <ele>505.31</ele>
        <time>2019-07-09T11:49:41Z</time>
      </trkpt>
      <trkpt lat="48.48835" lon="6.95944">
        <ele>505.31</ele>
        <time>2019-07-09T11:49:42Z</time>
      </trkpt>
      <trkpt lat="48.48836" lon="6.95945">
        <ele>505.79</ele>
        <time>2019-07-09T11:49:43Z</time>
      </trkpt>
      <trkpt lat="48.48837" lon="6.95947">
        <ele>505.79</ele>
        <time>2019-07-09T11:49:44Z</time>
      </trkpt>
      <trkpt lat="48.48838" lon="6.95949">
        <ele>506.27</ele>
        <time>2019-07-09T11:49:45Z</time>
      </trkpt>
      <trkpt lat="48.48839" lon="6.9595">
        <ele>506.27</ele>
        <time>2019-07-09T11:49:46Z</time>
      </trkpt>
      <trkpt lat="48.4884" lon="6.95952">
        <ele>506.27</ele>
        <time>2019-07-09T11:49:47Z</time>
      </trkpt>
      <trkpt lat="48.4884" lon="6.95953">
        <ele>506.75</ele>
        <time>2019-07-09T11:49:48Z</time>
      </trkpt>
      <trkpt lat="48.48841" lon="6.95955">
        <ele>506.75</ele>
        <time>2019-07-09T11:49:49Z</time>
      </trkpt>
      <trkpt lat="48.48842" lon="6.95956">
        <ele>506.75</ele>
        <time>2019-07-09T11:49:50Z</time>
      </trkpt>
      <trkpt lat="48.48854" lon="6.95985">
        <ele>508.67</ele>
        <time>2019-07-09T11:50:07Z</time>
      </trkpt>
      <trkpt lat="48.48855" lon="6.95986">
        <ele>508.67</ele>
        <time>2019-07-09T11:50:08Z</time>
      </trkpt>
      <trkpt lat="48.4886" lon="6.96008">
        <ele>511.08</ele>
        <time>2019-07-09T11:50:21Z</time>
      </trkpt>
      <trkpt lat="48.48862" lon="6.96036">
        <ele>514.44</ele>
        <time>2019-07-09T11:50:36Z</time>
      </trkpt>
      <trkpt lat="48.48862" lon="6.9604">
        <ele>514.92</ele>
        <time>2019-07-09T11:50:38Z</time>
      </trkpt>
      <trkpt lat="48.48862" lon="6.96042">
        <ele>514.92</ele>
        <time>2019-07-09T11:50:39Z</time>
      </trkpt>
      <trkpt lat="48.48861" lon="6.96044">
        <ele>515.4</ele>
        <time>2019-07-09T11:50:40Z</time>
      </trkpt>
      <trkpt lat="48.48861" lon="6.96046">
        <ele>515.88</ele>
        <time>2019-07-09T11:50:41Z</time>
      </trkpt>
      <trkpt lat="48.48861" lon="6.96049">
        <ele>515.88</ele>
        <time>2019-07-09T11:50:42Z</time>
      </trkpt>
      <trkpt lat="48.48861" lon="6.96051">
        <ele>515.88</ele>
        <time>2019-07-09T11:50:43Z</time>
      </trkpt>
      <trkpt lat="48.4886" lon="6.96053">
        <ele>515.88</ele>
        <time>2019-07-09T11:50:44Z</time>
      </trkpt>
      <trkpt lat="48.48855" lon="6.96089">
        <ele>520.21</ele>
        <time>2019-07-09T11:50:59Z</time>
      </trkpt>
      <trkpt lat="48.48854" lon="6.96097">
        <ele>521.17</ele>
        <time>2019-07-09T11:51:03Z</time>
      </trkpt>
      <trkpt lat="48.4885" lon="6.96124">
        <ele>524.54</ele>
        <time>2019-07-09T11:51:17Z</time>
      </trkpt>
      <trkpt lat="48.48849" lon="6.96145">
        <ele>526.94</ele>
        <time>2019-07-09T11:51:27Z</time>
      </trkpt>
      <trkpt lat="48.4885" lon="6.96146">
        <ele>526.94</ele>
        <time>2019-07-09T11:51:28Z</time>
      </trkpt>
      <trkpt lat="48.48852" lon="6.96154">
        <ele>527.9</ele>
        <time>2019-07-09T11:51:32Z</time>
      </trkpt>
      <trkpt lat="48.48852" lon="6.96156">
        <ele>528.38</ele>
        <time>2019-07-09T11:51:33Z</time>
      </trkpt>
      <trkpt lat="48.48852" lon="6.96158">
        <ele>528.38</ele>
        <time>2019-07-09T11:51:34Z</time>
      </trkpt>
      <trkpt lat="48.48852" lon="6.9616">
        <ele>528.86</ele>
        <time>2019-07-09T11:51:35Z</time>
      </trkpt>
      <trkpt lat="48.48852" lon="6.96162">
        <ele>528.86</ele>
        <time>2019-07-09T11:51:36Z</time>
      </trkpt>
      <trkpt lat="48.48853" lon="6.96178">
        <ele>529.82</ele>
        <time>2019-07-09T11:51:46Z</time>
      </trkpt>
      <trkpt lat="48.48852" lon="6.96187">
        <ele>530.3</ele>
        <time>2019-07-09T11:51:51Z</time>
      </trkpt>
      <trkpt lat="48.48851" lon="6.96188">
        <ele>530.3</ele>
        <time>2019-07-09T11:51:52Z</time>
      </trkpt>
      <trkpt lat="48.4885" lon="6.96191">
        <ele>530.3</ele>
        <time>2019-07-09T11:51:53Z</time>
      </trkpt>
      <trkpt lat="48.48835" lon="6.96222">
        <ele>526.94</ele>
        <time>2019-07-09T11:52:07Z</time>
      </trkpt>
      <trkpt lat="48.48823" lon="6.96256">
        <ele>525.5</ele>
        <time>2019-07-09T11:52:24Z</time>
      </trkpt>
      <trkpt lat="48.48811" lon="6.96277">
        <ele>525.98</ele>
        <time>2019-07-09T11:52:39Z</time>
      </trkpt>
      <trkpt lat="48.4881" lon="6.96279">
        <ele>525.5</ele>
        <time>2019-07-09T11:52:40Z</time>
      </trkpt>
      <trkpt lat="48.48809" lon="6.96281">
        <ele>525.5</ele>
        <time>2019-07-09T11:52:41Z</time>
      </trkpt>
      <trkpt lat="48.48808" lon="6.96284">
        <ele>525.02</ele>
        <time>2019-07-09T11:52:42Z</time>
      </trkpt>
      <trkpt lat="48.48807" lon="6.96285">
        <ele>525.02</ele>
        <time>2019-07-09T11:52:43Z</time>
      </trkpt>
      <trkpt lat="48.48805" lon="6.96287">
        <ele>524.54</ele>
        <time>2019-07-09T11:52:44Z</time>
      </trkpt>
      <trkpt lat="48.48785" lon="6.96316">
        <ele>522.61</ele>
        <time>2019-07-09T11:52:58Z</time>
      </trkpt>
      <trkpt lat="48.4877" lon="6.9636">
        <ele>526.46</ele>
        <time>2019-07-09T11:53:15Z</time>
      </trkpt>
      <trkpt lat="48.48763" lon="6.96388">
        <ele>526.94</ele>
        <time>2019-07-09T11:53:27Z</time>
      </trkpt>
      <trkpt lat="48.48762" lon="6.96394">
        <ele>526.46</ele>
        <time>2019-07-09T11:53:30Z</time>
      </trkpt>
      <trkpt lat="48.48759" lon="6.96405">
        <ele>525.98</ele>
        <time>2019-07-09T11:53:36Z</time>
      </trkpt>
      <trkpt lat="48.48751" lon="6.96428">
        <ele>526.94</ele>
        <time>2019-07-09T11:53:49Z</time>
      </trkpt>
      <trkpt lat="48.48746" lon="6.96462">
        <ele>529.34</ele>
        <time>2019-07-09T11:54:06Z</time>
      </trkpt>
      <trkpt lat="48.48746" lon="6.96472">
        <ele>530.3</ele>
        <time>2019-07-09T11:54:11Z</time>
      </trkpt>
      <trkpt lat="48.48744" lon="6.96488">
        <ele>530.79</ele>
        <time>2019-07-09T11:54:20Z</time>
      </trkpt>
      <trkpt lat="48.48738" lon="6.96515">
        <ele>533.19</ele>
        <time>2019-07-09T11:54:33Z</time>
      </trkpt>
      <trkpt lat="48.48728" lon="6.96549">
        <ele>536.07</ele>
        <time>2019-07-09T11:54:49Z</time>
      </trkpt>
      <trkpt lat="48.4872" lon="6.96581">
        <ele>536.07</ele>
        <time>2019-07-09T11:55:06Z</time>
      </trkpt>
      <trkpt lat="48.48716" lon="6.96594">
        <ele>536.55</ele>
        <time>2019-07-09T11:55:13Z</time>
      </trkpt>
      <trkpt lat="48.48706" lon="6.96619">
        <ele>536.07</ele>
        <time>2019-07-09T11:55:28Z</time>
      </trkpt>
      <trkpt lat="48.48694" lon="6.96645">
        <ele>537.51</ele>
        <time>2019-07-09T11:55:43Z</time>
      </trkpt>
      <trkpt lat="48.48693" lon="6.96647">
        <ele>537.51</ele>
        <time>2019-07-09T11:55:44Z</time>
      </trkpt>
      <trkpt lat="48.48691" lon="6.96651">
        <ele>538.48</ele>
        <time>2019-07-09T11:55:47Z</time>
      </trkpt>
      <trkpt lat="48.48687" lon="6.96658">
        <ele>539.44</ele>
        <time>2019-07-09T11:55:52Z</time>
      </trkpt>
      <trkpt lat="48.48687" lon="6.96661">
        <ele>539.44</ele>
        <time>2019-07-09T11:55:53Z</time>
      </trkpt>
      <trkpt lat="48.48678" lon="6.9668">
        <ele>540.4</ele>
        <time>2019-07-09T11:56:04Z</time>
      </trkpt>
      <trkpt lat="48.48676" lon="6.96681">
        <ele>540.4</ele>
        <time>2019-07-09T11:56:05Z</time>
      </trkpt>
      <trkpt lat="48.48668" lon="6.9671">
        <ele>544.72</ele>
        <time>2019-07-09T11:56:20Z</time>
      </trkpt>
      <trkpt lat="48.48661" lon="6.96739">
        <ele>547.61</ele>
        <time>2019-07-09T11:56:35Z</time>
      </trkpt>
      <trkpt lat="48.48661" lon="6.96748">
        <ele>549.05</ele>
        <time>2019-07-09T11:56:39Z</time>
      </trkpt>
      <trkpt lat="48.48661" lon="6.9675">
        <ele>549.05</ele>
        <time>2019-07-09T11:56:40Z</time>
      </trkpt>
      <trkpt lat="48.48663" lon="6.96774">
        <ele>552.41</ele>
        <time>2019-07-09T11:56:53Z</time>
      </trkpt>
      <trkpt lat="48.48663" lon="6.96776">
        <ele>552.9</ele>
        <time>2019-07-09T11:56:54Z</time>
      </trkpt>
      <trkpt lat="48.48663" lon="6.96778">
        <ele>553.38</ele>
        <time>2019-07-09T11:56:55Z</time>
      </trkpt>
      <trkpt lat="48.48663" lon="6.9678">
        <ele>553.38</ele>
        <time>2019-07-09T11:56:56Z</time>
      </trkpt>
      <trkpt lat="48.48663" lon="6.96781">
        <ele>553.86</ele>
        <time>2019-07-09T11:56:57Z</time>
      </trkpt>
      <trkpt lat="48.48665" lon="6.96797">
        <ele>556.74</ele>
        <time>2019-07-09T11:57:04Z</time>
      </trkpt>
      <trkpt lat="48.48665" lon="6.96799">
        <ele>556.74</ele>
        <time>2019-07-09T11:57:05Z</time>
      </trkpt>
      <trkpt lat="48.48665" lon="6.96801">
        <ele>557.22</ele>
        <time>2019-07-09T11:57:06Z</time>
      </trkpt>
      <trkpt lat="48.48665" lon="6.96802">
        <ele>557.22</ele>
        <time>2019-07-09T11:57:07Z</time>
      </trkpt>
      <trkpt lat="48.48672" lon="6.96823">
        <ele>561.07</ele>
        <time>2019-07-09T11:57:19Z</time>
      </trkpt>
      <trkpt lat="48.48672" lon="6.96824">
        <ele>561.55</ele>
        <time>2019-07-09T11:57:20Z</time>
      </trkpt>
      <trkpt lat="48.4868" lon="6.96847">
        <ele>565.87</ele>
        <time>2019-07-09T11:57:35Z</time>
      </trkpt>
      <trkpt lat="48.48686" lon="6.96875">
        <ele>567.32</ele>
        <time>2019-07-09T11:57:50Z</time>
      </trkpt>
      <trkpt lat="48.48699" lon="6.96908">
        <ele>567.32</ele>
        <time>2019-07-09T11:58:05Z</time>
      </trkpt>
      <trkpt lat="48.48714" lon="6.9695">
        <ele>568.28</ele>
        <time>2019-07-09T11:58:20Z</time>
      </trkpt>
      <trkpt lat="48.48727" lon="6.96982">
        <ele>571.64</ele>
        <time>2019-07-09T11:58:32Z</time>
      </trkpt>
      <trkpt lat="48.48743" lon="6.97015">
        <ele>574.53</ele>
        <time>2019-07-09T11:58:44Z</time>
      </trkpt>
      <trkpt lat="48.48763" lon="6.97052">
        <ele>576.45</ele>
        <time>2019-07-09T11:58:57Z</time>
      </trkpt>
      <trkpt lat="48.48784" lon="6.97088">
        <ele>578.85</ele>
        <time>2019-07-09T11:59:10Z</time>
      </trkpt>
      <trkpt lat="48.48801" lon="6.97121">
        <ele>580.77</ele>
        <time>2019-07-09T11:59:20Z</time>
      </trkpt>
      <trkpt lat="48.48811" lon="6.97157">
        <ele>579.81</ele>
        <time>2019-07-09T11:59:30Z</time>
      </trkpt>
      <trkpt lat="48.48833" lon="6.97204">
        <ele>584.62</ele>
        <time>2019-07-09T11:59:41Z</time>
      </trkpt>
      <trkpt lat="48.48855" lon="6.97245">
        <ele>583.66</ele>
        <time>2019-07-09T11:59:52Z</time>
      </trkpt>
      <trkpt lat="48.48884" lon="6.97286">
        <ele>582.22</ele>
        <time>2019-07-09T12:00:04Z</time>
      </trkpt>
      <trkpt lat="48.48923" lon="6.97345">
        <ele>583.66</ele>
        <time>2019-07-09T12:00:15Z</time>
      </trkpt>
      <trkpt lat="48.48927" lon="6.97349">
        <ele>584.14</ele>
        <time>2019-07-09T12:00:16Z</time>
      </trkpt>
      <trkpt lat="48.48932" lon="6.97352">
        <ele>584.62</ele>
        <time>2019-07-09T12:00:17Z</time>
      </trkpt>
      <trkpt lat="48.48936" lon="6.97356">
        <ele>584.62</ele>
        <time>2019-07-09T12:00:18Z</time>
      </trkpt>
      <trkpt lat="48.48939" lon="6.97359">
        <ele>584.14</ele>
        <time>2019-07-09T12:00:19Z</time>
      </trkpt>
      <trkpt lat="48.4895" lon="6.97367">
        <ele>584.14</ele>
        <time>2019-07-09T12:00:22Z</time>
      </trkpt>
      <trkpt lat="48.48954" lon="6.9737">
        <ele>583.66</ele>
        <time>2019-07-09T12:00:23Z</time>
      </trkpt>
      <trkpt lat="48.48958" lon="6.97371">
        <ele>583.18</ele>
        <time>2019-07-09T12:00:24Z</time>
      </trkpt>
      <trkpt lat="48.48961" lon="6.97372">
        <ele>583.18</ele>
        <time>2019-07-09T12:00:25Z</time>
      </trkpt>
      <trkpt lat="48.48964" lon="6.97374">
        <ele>582.7</ele>
        <time>2019-07-09T12:00:26Z</time>
      </trkpt>
      <trkpt lat="48.48991" lon="6.97389">
        <ele>580.29</ele>
        <time>2019-07-09T12:00:36Z</time>
      </trkpt>
      <trkpt lat="48.49025" lon="6.97406">
        <ele>577.89</ele>
        <time>2019-07-09T12:00:49Z</time>
      </trkpt>
      <trkpt lat="48.49052" lon="6.97432">
        <ele>575.49</ele>
        <time>2019-07-09T12:01:00Z</time>
      </trkpt>
      <trkpt lat="48.49077" lon="6.97451">
        <ele>570.68</ele>
        <time>2019-07-09T12:01:13Z</time>
      </trkpt>
      <trkpt lat="48.4908" lon="6.97446">
        <ele>561.55</ele>
        <time>2019-07-09T12:01:31Z</time>
      </trkpt>
      <trkpt lat="48.49079" lon="6.97448">
        <ele>557.22</ele>
        <time>2019-07-09T12:01:52Z</time>
      </trkpt>
      <trkpt lat="48.49079" lon="6.97449">
        <ele>554.82</ele>
        <time>2019-07-09T12:02:14Z</time>
      </trkpt>
      <trkpt lat="48.49078" lon="6.97449">
        <ele>554.82</ele>
        <time>2019-07-09T12:02:33Z</time>
      </trkpt>
      <trkpt lat="48.49077" lon="6.97451">
        <ele>552.9</ele>
        <time>2019-07-09T12:02:56Z</time>
      </trkpt>
      <trkpt lat="48.49079" lon="6.97453">
        <ele>552.9</ele>
        <time>2019-07-09T12:02:58Z</time>
      </trkpt>
      <trkpt lat="48.4908" lon="6.97455">
        <ele>553.38</ele>
        <time>2019-07-09T12:02:59Z</time>
      </trkpt>
      <trkpt lat="48.49081" lon="6.97457">
        <ele>552.9</ele>
        <time>2019-07-09T12:03:00Z</time>
      </trkpt>
      <trkpt lat="48.49082" lon="6.9746">
        <ele>552.9</ele>
        <time>2019-07-09T12:03:01Z</time>
      </trkpt>
      <trkpt lat="48.49082" lon="6.97463">
        <ele>552.9</ele>
        <time>2019-07-09T12:03:02Z</time>
      </trkpt>
      <trkpt lat="48.49082" lon="6.97466">
        <ele>552.41</ele>
        <time>2019-07-09T12:03:03Z</time>
      </trkpt>
      <trkpt lat="48.49082" lon="6.97468">
        <ele>552.41</ele>
        <time>2019-07-09T12:03:04Z</time>
      </trkpt>
      <trkpt lat="48.49083" lon="6.9747">
        <ele>552.41</ele>
        <time>2019-07-09T12:03:05Z</time>
      </trkpt>
      <trkpt lat="48.49083" lon="6.97472">
        <ele>552.41</ele>
        <time>2019-07-09T12:03:06Z</time>
      </trkpt>
      <trkpt lat="48.49083" lon="6.97474">
        <ele>552.41</ele>
        <time>2019-07-09T12:03:07Z</time>
      </trkpt>
      <trkpt lat="48.49084" lon="6.97476">
        <ele>552.41</ele>
        <time>2019-07-09T12:03:08Z</time>
      </trkpt>
      <trkpt lat="48.49094" lon="6.97499">
        <ele>556.74</ele>
        <time>2019-07-09T12:03:22Z</time>
      </trkpt>
      <trkpt lat="48.49109" lon="6.97518">
        <ele>562.51</ele>
        <time>2019-07-09T12:03:36Z</time>
      </trkpt>
      <trkpt lat="48.49128" lon="6.97549">
        <ele>569.24</ele>
        <time>2019-07-09T12:03:53Z</time>
      </trkpt>
      <trkpt lat="48.49146" lon="6.97579">
        <ele>573.56</ele>
        <time>2019-07-09T12:04:08Z</time>
      </trkpt>
      <trkpt lat="48.49162" lon="6.97604">
        <ele>576.45</ele>
        <time>2019-07-09T12:04:22Z</time>
      </trkpt>
      <trkpt lat="48.49179" lon="6.97632">
        <ele>579.33</ele>
        <time>2019-07-09T12:04:38Z</time>
      </trkpt>
      <trkpt lat="48.49194" lon="6.97659">
        <ele>581.25</ele>
        <time>2019-07-09T12:04:54Z</time>
      </trkpt>
      <trkpt lat="48.49206" lon="6.97684">
        <ele>583.18</ele>
        <time>2019-07-09T12:05:10Z</time>
      </trkpt>
      <trkpt lat="48.49216" lon="6.97711">
        <ele>582.7</ele>
        <time>2019-07-09T12:05:25Z</time>
      </trkpt>
      <trkpt lat="48.49222" lon="6.9774">
        <ele>585.58</ele>
        <time>2019-07-09T12:05:40Z</time>
      </trkpt>
      <trkpt lat="48.49219" lon="6.97769">
        <ele>585.1</ele>
        <time>2019-07-09T12:05:55Z</time>
      </trkpt>
      <trkpt lat="48.49216" lon="6.97799">
        <ele>587.5</ele>
        <time>2019-07-09T12:06:10Z</time>
      </trkpt>
      <trkpt lat="48.49219" lon="6.97836">
        <ele>588.95</ele>
        <time>2019-07-09T12:06:25Z</time>
      </trkpt>
      <trkpt lat="48.49229" lon="6.97872">
        <ele>590.39</ele>
        <time>2019-07-09T12:06:40Z</time>
      </trkpt>
      <trkpt lat="48.49242" lon="6.97904">
        <ele>590.39</ele>
        <time>2019-07-09T12:06:53Z</time>
      </trkpt>
      <trkpt lat="48.49257" lon="6.9793">
        <ele>593.27</ele>
        <time>2019-07-09T12:07:04Z</time>
      </trkpt>
      <trkpt lat="48.49261" lon="6.97935">
        <ele>593.75</ele>
        <time>2019-07-09T12:07:07Z</time>
      </trkpt>
      <trkpt lat="48.49274" lon="6.97964">
        <ele>596.64</ele>
        <time>2019-07-09T12:07:18Z</time>
      </trkpt>
      <trkpt lat="48.49283" lon="6.97977">
        <ele>598.56</ele>
        <time>2019-07-09T12:07:31Z</time>
      </trkpt>
      <trkpt lat="48.49282" lon="6.97976">
        <ele>598.56</ele>
        <time>2019-07-09T12:07:32Z</time>
      </trkpt>
      <trkpt lat="48.49281" lon="6.97975">
        <ele>598.56</ele>
        <time>2019-07-09T12:07:33Z</time>
      </trkpt>
      <trkpt lat="48.49282" lon="6.97975">
        <ele>597.6</ele>
        <time>2019-07-09T12:07:45Z</time>
      </trkpt>
      <trkpt lat="48.49278" lon="6.9797">
        <ele>598.08</ele>
        <time>2019-07-09T12:07:54Z</time>
      </trkpt>
      <trkpt lat="48.49274" lon="6.97964">
        <ele>598.08</ele>
        <time>2019-07-09T12:08:00Z</time>
      </trkpt>
      <trkpt lat="48.49272" lon="6.97961">
        <ele>597.6</ele>
        <time>2019-07-09T12:08:03Z</time>
      </trkpt>
      <trkpt lat="48.49275" lon="6.97968">
        <ele>597.12</ele>
        <time>2019-07-09T12:08:12Z</time>
      </trkpt>
      <trkpt lat="48.49271" lon="6.97977">
        <ele>594.71</ele>
        <time>2019-07-09T12:08:23Z</time>
      </trkpt>
      <trkpt lat="48.49273" lon="6.97987">
        <ele>593.75</ele>
        <time>2019-07-09T12:08:38Z</time>
      </trkpt>
      <trkpt lat="48.49274" lon="6.97988">
        <ele>593.27</ele>
        <time>2019-07-09T12:08:40Z</time>
      </trkpt>
      <trkpt lat="48.49279" lon="6.98012">
        <ele>592.31</ele>
        <time>2019-07-09T12:08:50Z</time>
      </trkpt>
      <trkpt lat="48.49278" lon="6.9805">
        <ele>592.31</ele>
        <time>2019-07-09T12:09:00Z</time>
      </trkpt>
      <trkpt lat="48.49278" lon="6.98088">
        <ele>592.31</ele>
        <time>2019-07-09T12:09:13Z</time>
      </trkpt>
      <trkpt lat="48.49279" lon="6.98094">
        <ele>592.79</ele>
        <time>2019-07-09T12:09:15Z</time>
      </trkpt>
      <trkpt lat="48.49279" lon="6.98097">
        <ele>592.79</ele>
        <time>2019-07-09T12:09:16Z</time>
      </trkpt>
      <trkpt lat="48.49279" lon="6.981">
        <ele>592.79</ele>
        <time>2019-07-09T12:09:17Z</time>
      </trkpt>
      <trkpt lat="48.49279" lon="6.98108">
        <ele>592.31</ele>
        <time>2019-07-09T12:09:21Z</time>
      </trkpt>
      <trkpt lat="48.49279" lon="6.98111">
        <ele>592.79</ele>
        <time>2019-07-09T12:09:22Z</time>
      </trkpt>
      <trkpt lat="48.49279" lon="6.98113">
        <ele>592.79</ele>
        <time>2019-07-09T12:09:23Z</time>
      </trkpt>
      <trkpt lat="48.49279" lon="6.98131">
        <ele>594.71</ele>
        <time>2019-07-09T12:09:31Z</time>
      </trkpt>
      <trkpt lat="48.49279" lon="6.98133">
        <ele>594.71</ele>
        <time>2019-07-09T12:09:32Z</time>
      </trkpt>
      <trkpt lat="48.49279" lon="6.98163">
        <ele>596.15</ele>
        <time>2019-07-09T12:09:44Z</time>
      </trkpt>
      <trkpt lat="48.4928" lon="6.98168">
        <ele>596.15</ele>
        <time>2019-07-09T12:09:46Z</time>
      </trkpt>
      <trkpt lat="48.49281" lon="6.98197">
        <ele>598.56</ele>
        <time>2019-07-09T12:09:59Z</time>
      </trkpt>
      <trkpt lat="48.49286" lon="6.98232">
        <ele>600.48</ele>
        <time>2019-07-09T12:10:12Z</time>
      </trkpt>
      <trkpt lat="48.49297" lon="6.98276">
        <ele>602.4</ele>
        <time>2019-07-09T12:10:27Z</time>
      </trkpt>
      <trkpt lat="48.49302" lon="6.98304">
        <ele>603.85</ele>
        <time>2019-07-09T12:10:42Z</time>
      </trkpt>
      <trkpt lat="48.49302" lon="6.98307">
        <ele>603.85</ele>
        <time>2019-07-09T12:10:44Z</time>
      </trkpt>
      <trkpt lat="48.493" lon="6.98315">
        <ele>603.85</ele>
        <time>2019-07-09T12:10:56Z</time>
      </trkpt>
      <trkpt lat="48.493" lon="6.98317">
        <ele>603.85</ele>
        <time>2019-07-09T12:10:57Z</time>
      </trkpt>
      <trkpt lat="48.493" lon="6.98319">
        <ele>603.85</ele>
        <time>2019-07-09T12:10:58Z</time>
      </trkpt>
      <trkpt lat="48.493" lon="6.98322">
        <ele>603.85</ele>
        <time>2019-07-09T12:10:59Z</time>
      </trkpt>
      <trkpt lat="48.49304" lon="6.98366">
        <ele>603.36</ele>
        <time>2019-07-09T12:11:15Z</time>
      </trkpt>
      <trkpt lat="48.49312" lon="6.98393">
        <ele>605.29</ele>
        <time>2019-07-09T12:11:26Z</time>
      </trkpt>
      <trkpt lat="48.49316" lon="6.98435">
        <ele>607.69</ele>
        <time>2019-07-09T12:11:40Z</time>
      </trkpt>
      <trkpt lat="48.49315" lon="6.9848">
        <ele>610.09</ele>
        <time>2019-07-09T12:11:53Z</time>
      </trkpt>
      <trkpt lat="48.49322" lon="6.98527">
        <ele>610.57</ele>
        <time>2019-07-09T12:12:05Z</time>
      </trkpt>
      <trkpt lat="48.4933" lon="6.98569">
        <ele>610.09</ele>
        <time>2019-07-09T12:12:17Z</time>
      </trkpt>
      <trkpt lat="48.49329" lon="6.9861">
        <ele>609.61</ele>
        <time>2019-07-09T12:12:31Z</time>
      </trkpt>
      <trkpt lat="48.49311" lon="6.98653">
        <ele>608.65</ele>
        <time>2019-07-09T12:12:48Z</time>
      </trkpt>
      <trkpt lat="48.493" lon="6.98694">
        <ele>608.65</ele>
        <time>2019-07-09T12:13:03Z</time>
      </trkpt>
      <trkpt lat="48.49297" lon="6.98711">
        <ele>609.13</ele>
        <time>2019-07-09T12:13:10Z</time>
      </trkpt>
      <trkpt lat="48.49298" lon="6.98714">
        <ele>609.13</ele>
        <time>2019-07-09T12:13:11Z</time>
      </trkpt>
      <trkpt lat="48.49302" lon="6.98751">
        <ele>611.54</ele>
        <time>2019-07-09T12:13:24Z</time>
      </trkpt>
      <trkpt lat="48.4931" lon="6.98788">
        <ele>612.02</ele>
        <time>2019-07-09T12:13:37Z</time>
      </trkpt>
      <trkpt lat="48.49319" lon="6.98837">
        <ele>614.42</ele>
        <time>2019-07-09T12:13:53Z</time>
      </trkpt>
      <trkpt lat="48.49325" lon="6.98879">
        <ele>617.78</ele>
        <time>2019-07-09T12:14:06Z</time>
      </trkpt>
      <trkpt lat="48.49325" lon="6.98915">
        <ele>620.67</ele>
        <time>2019-07-09T12:14:18Z</time>
      </trkpt>
      <trkpt lat="48.49326" lon="6.98959">
        <ele>624.03</ele>
        <time>2019-07-09T12:14:32Z</time>
      </trkpt>
      <trkpt lat="48.49327" lon="6.99005">
        <ele>625.47</ele>
        <time>2019-07-09T12:14:45Z</time>
      </trkpt>
      <trkpt lat="48.49339" lon="6.99058">
        <ele>628.36</ele>
        <time>2019-07-09T12:14:57Z</time>
      </trkpt>
      <trkpt lat="48.49342" lon="6.99071">
        <ele>628.84</ele>
        <time>2019-07-09T12:15:08Z</time>
      </trkpt>
      <trkpt lat="48.49342" lon="6.99073">
        <ele>628.36</ele>
        <time>2019-07-09T12:15:09Z</time>
      </trkpt>
      <trkpt lat="48.49342" lon="6.99077">
        <ele>628.36</ele>
        <time>2019-07-09T12:15:12Z</time>
      </trkpt>
      <trkpt lat="48.49348" lon="6.99093">
        <ele>628.36</ele>
        <time>2019-07-09T12:15:18Z</time>
      </trkpt>
      <trkpt lat="48.4935" lon="6.99095">
        <ele>628.36</ele>
        <time>2019-07-09T12:15:19Z</time>
      </trkpt>
      <trkpt lat="48.49352" lon="6.99098">
        <ele>628.84</ele>
        <time>2019-07-09T12:15:20Z</time>
      </trkpt>
      <trkpt lat="48.49375" lon="6.99148">
        <ele>627.4</ele>
        <time>2019-07-09T12:15:32Z</time>
      </trkpt>
      <trkpt lat="48.4938" lon="6.99159">
        <ele>627.88</ele>
        <time>2019-07-09T12:15:34Z</time>
      </trkpt>
      <trkpt lat="48.49383" lon="6.99163">
        <ele>628.36</ele>
        <time>2019-07-09T12:15:35Z</time>
      </trkpt>
      <trkpt lat="48.49401" lon="6.99195">
        <ele>629.32</ele>
        <time>2019-07-09T12:15:46Z</time>
      </trkpt>
      <trkpt lat="48.49422" lon="6.99235">
        <ele>629.32</ele>
        <time>2019-07-09T12:15:59Z</time>
      </trkpt>
      <trkpt lat="48.4944" lon="6.99283">
        <ele>626.44</ele>
        <time>2019-07-09T12:16:12Z</time>
      </trkpt>
      <trkpt lat="48.4946" lon="6.9934">
        <ele>624.99</ele>
        <time>2019-07-09T12:16:27Z</time>
      </trkpt>
      <trkpt lat="48.49468" lon="6.99382">
        <ele>625.96</ele>
        <time>2019-07-09T12:16:36Z</time>
      </trkpt>
      <trkpt lat="48.4947" lon="6.99396">
        <ele>625.47</ele>
        <time>2019-07-09T12:16:38Z</time>
      </trkpt>
      <trkpt lat="48.49473" lon="6.99435">
        <ele>623.55</ele>
        <time>2019-07-09T12:16:45Z</time>
      </trkpt>
      <trkpt lat="48.49474" lon="6.99449">
        <ele>622.59</ele>
        <time>2019-07-09T12:16:47Z</time>
      </trkpt>
      <trkpt lat="48.49481" lon="6.99502">
        <ele>619.71</ele>
        <time>2019-07-09T12:16:53Z</time>
      </trkpt>
      <trkpt lat="48.49492" lon="6.99556">
        <ele>616.34</ele>
        <time>2019-07-09T12:16:59Z</time>
      </trkpt>
      <trkpt lat="48.49506" lon="6.99633">
        <ele>610.57</ele>
        <time>2019-07-09T12:17:07Z</time>
      </trkpt>
      <trkpt lat="48.49507" lon="6.99643">
        <ele>610.09</ele>
        <time>2019-07-09T12:17:08Z</time>
      </trkpt>
      <trkpt lat="48.49508" lon="6.99659">
        <ele>609.13</ele>
        <time>2019-07-09T12:17:10Z</time>
      </trkpt>
      <trkpt lat="48.49508" lon="6.99665">
        <ele>608.17</ele>
        <time>2019-07-09T12:17:11Z</time>
      </trkpt>
      <trkpt lat="48.49508" lon="6.9967">
        <ele>608.17</ele>
        <time>2019-07-09T12:17:12Z</time>
      </trkpt>
      <trkpt lat="48.49508" lon="6.99674">
        <ele>607.69</ele>
        <time>2019-07-09T12:17:13Z</time>
      </trkpt>
      <trkpt lat="48.49508" lon="6.99677">
        <ele>607.21</ele>
        <time>2019-07-09T12:17:14Z</time>
      </trkpt>
      <trkpt lat="48.49508" lon="6.9968">
        <ele>606.73</ele>
        <time>2019-07-09T12:17:15Z</time>
      </trkpt>
      <trkpt lat="48.49508" lon="6.99684">
        <ele>606.25</ele>
        <time>2019-07-09T12:17:16Z</time>
      </trkpt>
      <trkpt lat="48.49508" lon="6.99687">
        <ele>606.25</ele>
        <time>2019-07-09T12:17:17Z</time>
      </trkpt>
      <trkpt lat="48.49507" lon="6.99738">
        <ele>601.92</ele>
        <time>2019-07-09T12:17:33Z</time>
      </trkpt>
      <trkpt lat="48.49508" lon="6.99749">
        <ele>600.96</ele>
        <time>2019-07-09T12:17:37Z</time>
      </trkpt>
      <trkpt lat="48.49508" lon="6.99751">
        <ele>600.48</ele>
        <time>2019-07-09T12:17:38Z</time>
      </trkpt>
      <trkpt lat="48.49507" lon="6.99753">
        <ele>600.48</ele>
        <time>2019-07-09T12:17:39Z</time>
      </trkpt>
      <trkpt lat="48.49506" lon="6.99755">
        <ele>600</ele>
        <time>2019-07-09T12:17:40Z</time>
      </trkpt>
      <trkpt lat="48.49505" lon="6.99757">
        <ele>599.52</ele>
        <time>2019-07-09T12:17:41Z</time>
      </trkpt>
      <trkpt lat="48.49504" lon="6.99759">
        <ele>597.12</ele>
        <time>2019-07-09T12:17:49Z</time>
      </trkpt>
      <trkpt lat="48.49503" lon="6.99756">
        <ele>597.12</ele>
        <time>2019-07-09T12:17:52Z</time>
      </trkpt>
      <trkpt lat="48.49501" lon="6.99754">
        <ele>597.6</ele>
        <time>2019-07-09T12:17:53Z</time>
      </trkpt>
      <trkpt lat="48.49498" lon="6.99748">
        <ele>598.56</ele>
        <time>2019-07-09T12:18:06Z</time>
      </trkpt>
      <trkpt lat="48.4949" lon="6.99734">
        <ele>598.08</ele>
        <time>2019-07-09T12:18:21Z</time>
      </trkpt>
      <trkpt lat="48.49487" lon="6.99717">
        <ele>600.96</ele>
        <time>2019-07-09T12:18:36Z</time>
      </trkpt>
      <trkpt lat="48.49485" lon="6.99701">
        <ele>603.85</ele>
        <time>2019-07-09T12:18:49Z</time>
      </trkpt>
      <trkpt lat="48.49484" lon="6.99703">
        <ele>604.81</ele>
        <time>2019-07-09T12:18:59Z</time>
      </trkpt>
      <trkpt lat="48.49484" lon="6.99696">
        <ele>605.77</ele>
        <time>2019-07-09T12:19:28Z</time>
      </trkpt>
      <trkpt lat="48.49485" lon="6.99698">
        <ele>605.77</ele>
        <time>2019-07-09T12:19:34Z</time>
      </trkpt>
      <trkpt lat="48.49485" lon="6.99708">
        <ele>604.33</ele>
        <time>2019-07-09T12:19:37Z</time>
      </trkpt>
      <trkpt lat="48.49486" lon="6.99711">
        <ele>603.85</ele>
        <time>2019-07-09T12:19:38Z</time>
      </trkpt>
      <trkpt lat="48.49486" lon="6.99714">
        <ele>602.4</ele>
        <time>2019-07-09T12:19:39Z</time>
      </trkpt>
      <trkpt lat="48.49487" lon="6.99718">
        <ele>601.92</ele>
        <time>2019-07-09T12:19:40Z</time>
      </trkpt>
      <trkpt lat="48.49488" lon="6.99722">
        <ele>600.96</ele>
        <time>2019-07-09T12:19:41Z</time>
      </trkpt>
      <trkpt lat="48.49489" lon="6.99727">
        <ele>600</ele>
        <time>2019-07-09T12:19:42Z</time>
      </trkpt>
      <trkpt lat="48.4949" lon="6.99733">
        <ele>599.52</ele>
        <time>2019-07-09T12:19:43Z</time>
      </trkpt>
      <trkpt lat="48.49492" lon="6.99737">
        <ele>599.04</ele>
        <time>2019-07-09T12:19:44Z</time>
      </trkpt>
      <trkpt lat="48.49495" lon="6.99743">
        <ele>598.56</ele>
        <time>2019-07-09T12:19:45Z</time>
      </trkpt>
      <trkpt lat="48.49497" lon="6.99747">
        <ele>598.08</ele>
        <time>2019-07-09T12:19:46Z</time>
      </trkpt>
      <trkpt lat="48.49499" lon="6.99754">
        <ele>597.6</ele>
        <time>2019-07-09T12:19:47Z</time>
      </trkpt>
      <trkpt lat="48.495" lon="6.9976">
        <ele>597.12</ele>
        <time>2019-07-09T12:19:48Z</time>
      </trkpt>
      <trkpt lat="48.495" lon="6.99767">
        <ele>596.64</ele>
        <time>2019-07-09T12:19:49Z</time>
      </trkpt>
      <trkpt lat="48.49499" lon="6.99775">
        <ele>595.67</ele>
        <time>2019-07-09T12:19:50Z</time>
      </trkpt>
      <trkpt lat="48.49498" lon="6.99785">
        <ele>594.71</ele>
        <time>2019-07-09T12:19:51Z</time>
      </trkpt>
      <trkpt lat="48.49498" lon="6.99793">
        <ele>594.23</ele>
        <time>2019-07-09T12:19:52Z</time>
      </trkpt>
      <trkpt lat="48.49498" lon="6.99803">
        <ele>593.75</ele>
        <time>2019-07-09T12:19:53Z</time>
      </trkpt>
      <trkpt lat="48.49492" lon="6.99914">
        <ele>586.06</ele>
        <time>2019-07-09T12:20:04Z</time>
      </trkpt>
      <trkpt lat="48.49492" lon="6.99934">
        <ele>585.1</ele>
        <time>2019-07-09T12:20:06Z</time>
      </trkpt>
      <trkpt lat="48.49493" lon="6.99945">
        <ele>584.14</ele>
        <time>2019-07-09T12:20:07Z</time>
      </trkpt>
      <trkpt lat="48.49494" lon="6.99983">
        <ele>584.14</ele>
        <time>2019-07-09T12:20:14Z</time>
      </trkpt>
      <trkpt lat="48.49487" lon="7.00006">
        <ele>588.95</ele>
        <time>2019-07-09T12:20:31Z</time>
      </trkpt>
      <trkpt lat="48.49487" lon="7.0001">
        <ele>590.87</ele>
        <time>2019-07-09T12:20:48Z</time>
      </trkpt>
      <trkpt lat="48.49486" lon="7.00011">
        <ele>593.75</ele>
        <time>2019-07-09T12:21:08Z</time>
      </trkpt>
      <trkpt lat="48.49484" lon="7.00011">
        <ele>587.5</ele>
        <time>2019-07-09T12:21:25Z</time>
      </trkpt>
      <trkpt lat="48.49482" lon="7.00013">
        <ele>583.66</ele>
        <time>2019-07-09T12:21:41Z</time>
      </trkpt>
      <trkpt lat="48.49485" lon="7.00015">
        <ele>583.18</ele>
        <time>2019-07-09T12:22:03Z</time>
      </trkpt>
      <trkpt lat="48.49484" lon="7.00012">
        <ele>585.58</ele>
        <time>2019-07-09T12:22:30Z</time>
      </trkpt>
      <trkpt lat="48.49484" lon="7.00015">
        <ele>587.02</ele>
        <time>2019-07-09T12:22:46Z</time>
      </trkpt>
      <trkpt lat="48.49488" lon="7.00019">
        <ele>589.43</ele>
        <time>2019-07-09T12:23:16Z</time>
      </trkpt>
      <trkpt lat="48.49487" lon="7.0002">
        <ele>590.87</ele>
        <time>2019-07-09T12:23:35Z</time>
      </trkpt>
      <trkpt lat="48.49484" lon="7.00016">
        <ele>589.43</ele>
        <time>2019-07-09T12:24:02Z</time>
      </trkpt>
      <trkpt lat="48.49484" lon="7.00013">
        <ele>592.79</ele>
        <time>2019-07-09T12:24:30Z</time>
      </trkpt>
      <trkpt lat="48.49485" lon="7.00013">
        <ele>594.23</ele>
        <time>2019-07-09T12:24:58Z</time>
      </trkpt>
      <trkpt lat="48.49485" lon="7.00013">
        <ele>593.75</ele>
        <time>2019-07-09T12:25:19Z</time>
      </trkpt>
      <trkpt lat="48.49484" lon="7.00008">
        <ele>593.75</ele>
        <time>2019-07-09T12:25:39Z</time>
      </trkpt>
      <trkpt lat="48.49484" lon="7.00008">
        <ele>595.67</ele>
        <time>2019-07-09T12:26:06Z</time>
      </trkpt>
      <trkpt lat="48.49482" lon="7.00011">
        <ele>595.19</ele>
        <time>2019-07-09T12:26:28Z</time>
      </trkpt>
      <trkpt lat="48.49483" lon="7.00011">
        <ele>592.79</ele>
        <time>2019-07-09T12:26:50Z</time>
      </trkpt>
      <trkpt lat="48.49483" lon="7.00007">
        <ele>591.35</ele>
        <time>2019-07-09T12:27:14Z</time>
      </trkpt>
      <trkpt lat="48.49485" lon="7.00008">
        <ele>593.75</ele>
        <time>2019-07-09T12:27:36Z</time>
      </trkpt>
      <trkpt lat="48.49483" lon="7.00016">
        <ele>593.27</ele>
        <time>2019-07-09T12:27:52Z</time>
      </trkpt>
      <trkpt lat="48.49484" lon="7.00017">
        <ele>595.19</ele>
        <time>2019-07-09T12:28:10Z</time>
      </trkpt>
      <trkpt lat="48.49483" lon="7.00018">
        <ele>599.52</ele>
        <time>2019-07-09T12:28:40Z</time>
      </trkpt>
      <trkpt lat="48.4948" lon="7.00029">
        <ele>600</ele>
        <time>2019-07-09T12:29:04Z</time>
      </trkpt>
      <trkpt lat="48.49473" lon="7.00054">
        <ele>598.56</ele>
        <time>2019-07-09T12:29:19Z</time>
      </trkpt>
      <trkpt lat="48.49469" lon="7.00065">
        <ele>598.08</ele>
        <time>2019-07-09T12:29:25Z</time>
      </trkpt>
      <trkpt lat="48.49468" lon="7.00067">
        <ele>598.08</ele>
        <time>2019-07-09T12:29:26Z</time>
      </trkpt>
      <trkpt lat="48.49462" lon="7.00087">
        <ele>600.48</ele>
        <time>2019-07-09T12:29:40Z</time>
      </trkpt>
      <trkpt lat="48.49457" lon="7.00101">
        <ele>601.44</ele>
        <time>2019-07-09T12:29:53Z</time>
      </trkpt>
      <trkpt lat="48.49456" lon="7.00108">
        <ele>600</ele>
        <time>2019-07-09T12:30:14Z</time>
      </trkpt>
      <trkpt lat="48.49455" lon="7.00113">
        <ele>600</ele>
        <time>2019-07-09T12:30:33Z</time>
      </trkpt>
      <trkpt lat="48.4945" lon="7.00119">
        <ele>605.29</ele>
        <time>2019-07-09T12:30:47Z</time>
      </trkpt>
      <trkpt lat="48.49443" lon="7.00133">
        <ele>606.73</ele>
        <time>2019-07-09T12:31:07Z</time>
      </trkpt>
      <trkpt lat="48.49437" lon="7.00147">
        <ele>606.73</ele>
        <time>2019-07-09T12:31:23Z</time>
      </trkpt>
      <trkpt lat="48.49429" lon="7.00162">
        <ele>608.65</ele>
        <time>2019-07-09T12:31:39Z</time>
      </trkpt>
      <trkpt lat="48.49425" lon="7.00174">
        <ele>609.61</ele>
        <time>2019-07-09T12:31:52Z</time>
      </trkpt>
      <trkpt lat="48.49418" lon="7.00194">
        <ele>612.5</ele>
        <time>2019-07-09T12:32:07Z</time>
      </trkpt>
      <trkpt lat="48.49412" lon="7.00212">
        <ele>615.38</ele>
        <time>2019-07-09T12:32:22Z</time>
      </trkpt>
      <trkpt lat="48.49411" lon="7.00215">
        <ele>615.38</ele>
        <time>2019-07-09T12:32:24Z</time>
      </trkpt>
      <trkpt lat="48.49411" lon="7.00216">
        <ele>615.38</ele>
        <time>2019-07-09T12:32:25Z</time>
      </trkpt>
      <trkpt lat="48.49405" lon="7.00238">
        <ele>617.3</ele>
        <time>2019-07-09T12:32:40Z</time>
      </trkpt>
      <trkpt lat="48.49401" lon="7.00256">
        <ele>619.23</ele>
        <time>2019-07-09T12:32:52Z</time>
      </trkpt>
      <trkpt lat="48.49396" lon="7.0027">
        <ele>620.19</ele>
        <time>2019-07-09T12:33:06Z</time>
      </trkpt>
      <trkpt lat="48.49391" lon="7.00281">
        <ele>620.19</ele>
        <time>2019-07-09T12:33:13Z</time>
      </trkpt>
      <trkpt lat="48.4939" lon="7.00281">
        <ele>620.19</ele>
        <time>2019-07-09T12:33:14Z</time>
      </trkpt>
      <trkpt lat="48.49373" lon="7.00286">
        <ele>623.07</ele>
        <time>2019-07-09T12:33:29Z</time>
      </trkpt>
      <trkpt lat="48.49365" lon="7.00285">
        <ele>625.47</ele>
        <time>2019-07-09T12:33:36Z</time>
      </trkpt>
      <trkpt lat="48.49344" lon="7.00282">
        <ele>629.32</ele>
        <time>2019-07-09T12:33:53Z</time>
      </trkpt>
      <trkpt lat="48.49321" lon="7.00276">
        <ele>634.61</ele>
        <time>2019-07-09T12:34:13Z</time>
      </trkpt>
      <trkpt lat="48.49303" lon="7.00269">
        <ele>638.93</ele>
        <time>2019-07-09T12:34:28Z</time>
      </trkpt>
      <trkpt lat="48.49286" lon="7.00265">
        <ele>639.89</ele>
        <time>2019-07-09T12:34:41Z</time>
      </trkpt>
      <trkpt lat="48.49285" lon="7.00264">
        <ele>639.41</ele>
        <time>2019-07-09T12:34:42Z</time>
      </trkpt>
      <trkpt lat="48.49283" lon="7.00264">
        <ele>639.41</ele>
        <time>2019-07-09T12:34:43Z</time>
      </trkpt>
      <trkpt lat="48.49282" lon="7.00264">
        <ele>639.41</ele>
        <time>2019-07-09T12:34:44Z</time>
      </trkpt>
      <trkpt lat="48.49281" lon="7.00263">
        <ele>639.41</ele>
        <time>2019-07-09T12:34:45Z</time>
      </trkpt>
      <trkpt lat="48.4928" lon="7.00263">
        <ele>639.41</ele>
        <time>2019-07-09T12:34:46Z</time>
      </trkpt>
      <trkpt lat="48.49257" lon="7.00258">
        <ele>642.3</ele>
        <time>2019-07-09T12:35:04Z</time>
      </trkpt>
      <trkpt lat="48.49255" lon="7.00258">
        <ele>642.78</ele>
        <time>2019-07-09T12:35:06Z</time>
      </trkpt>
      <trkpt lat="48.49253" lon="7.00258">
        <ele>642.78</ele>
        <time>2019-07-09T12:35:07Z</time>
      </trkpt>
      <trkpt lat="48.49244" lon="7.00261">
        <ele>642.78</ele>
        <time>2019-07-09T12:35:15Z</time>
      </trkpt>
      <trkpt lat="48.49243" lon="7.00262">
        <ele>643.26</ele>
        <time>2019-07-09T12:35:16Z</time>
      </trkpt>
      <trkpt lat="48.49241" lon="7.00266">
        <ele>643.26</ele>
        <time>2019-07-09T12:35:19Z</time>
      </trkpt>
      <trkpt lat="48.49241" lon="7.00268">
        <ele>643.74</ele>
        <time>2019-07-09T12:35:20Z</time>
      </trkpt>
      <trkpt lat="48.4924" lon="7.0027">
        <ele>643.74</ele>
        <time>2019-07-09T12:35:21Z</time>
      </trkpt>
      <trkpt lat="48.4924" lon="7.00271">
        <ele>644.22</ele>
        <time>2019-07-09T12:35:22Z</time>
      </trkpt>
      <trkpt lat="48.49239" lon="7.00273">
        <ele>644.22</ele>
        <time>2019-07-09T12:35:23Z</time>
      </trkpt>
      <trkpt lat="48.49238" lon="7.00275">
        <ele>644.22</ele>
        <time>2019-07-09T12:35:24Z</time>
      </trkpt>
      <trkpt lat="48.49238" lon="7.00277">
        <ele>644.7</ele>
        <time>2019-07-09T12:35:25Z</time>
      </trkpt>
      <trkpt lat="48.49238" lon="7.00279">
        <ele>644.7</ele>
        <time>2019-07-09T12:35:26Z</time>
      </trkpt>
      <trkpt lat="48.49238" lon="7.00281">
        <ele>645.18</ele>
        <time>2019-07-09T12:35:27Z</time>
      </trkpt>
      <trkpt lat="48.49238" lon="7.00283">
        <ele>645.18</ele>
        <time>2019-07-09T12:35:28Z</time>
      </trkpt>
      <trkpt lat="48.49239" lon="7.00285">
        <ele>645.18</ele>
        <time>2019-07-09T12:35:29Z</time>
      </trkpt>
      <trkpt lat="48.49239" lon="7.00288">
        <ele>645.18</ele>
        <time>2019-07-09T12:35:30Z</time>
      </trkpt>
      <trkpt lat="48.49239" lon="7.0029">
        <ele>645.18</ele>
        <time>2019-07-09T12:35:31Z</time>
      </trkpt>
      <trkpt lat="48.4924" lon="7.00292">
        <ele>645.18</ele>
        <time>2019-07-09T12:35:32Z</time>
      </trkpt>
      <trkpt lat="48.49243" lon="7.00318">
        <ele>644.7</ele>
        <time>2019-07-09T12:35:45Z</time>
      </trkpt>
      <trkpt lat="48.49243" lon="7.0032">
        <ele>644.7</ele>
        <time>2019-07-09T12:35:46Z</time>
      </trkpt>
      <trkpt lat="48.49243" lon="7.0033">
        <ele>643.74</ele>
        <time>2019-07-09T12:35:59Z</time>
      </trkpt>
      <trkpt lat="48.49243" lon="7.00336">
        <ele>645.66</ele>
        <time>2019-07-09T12:36:16Z</time>
      </trkpt>
      <trkpt lat="48.49242" lon="7.0036">
        <ele>648.07</ele>
        <time>2019-07-09T12:36:28Z</time>
      </trkpt>
      <trkpt lat="48.49241" lon="7.00362">
        <ele>647.59</ele>
        <time>2019-07-09T12:36:51Z</time>
      </trkpt>
      <trkpt lat="48.49245" lon="7.00367">
        <ele>652.87</ele>
        <time>2019-07-09T12:37:23Z</time>
      </trkpt>
      <trkpt lat="48.49243" lon="7.00366">
        <ele>652.87</ele>
        <time>2019-07-09T12:37:36Z</time>
      </trkpt>
      <trkpt lat="48.49241" lon="7.0037">
        <ele>652.87</ele>
        <time>2019-07-09T12:37:48Z</time>
      </trkpt>
      <trkpt lat="48.49242" lon="7.00372">
        <ele>652.87</ele>
        <time>2019-07-09T12:37:49Z</time>
      </trkpt>
      <trkpt lat="48.49245" lon="7.0041">
        <ele>654.8</ele>
        <time>2019-07-09T12:38:01Z</time>
      </trkpt>
      <trkpt lat="48.49246" lon="7.00463">
        <ele>658.16</ele>
        <time>2019-07-09T12:38:17Z</time>
      </trkpt>
      <trkpt lat="48.49238" lon="7.00513">
        <ele>658.64</ele>
        <time>2019-07-09T12:38:30Z</time>
      </trkpt>
      <trkpt lat="48.49243" lon="7.00544">
        <ele>658.16</ele>
        <time>2019-07-09T12:38:41Z</time>
      </trkpt>
      <trkpt lat="48.49259" lon="7.00563">
        <ele>658.64</ele>
        <time>2019-07-09T12:38:52Z</time>
      </trkpt>
      <trkpt lat="48.49271" lon="7.00571">
        <ele>659.12</ele>
        <time>2019-07-09T12:39:12Z</time>
      </trkpt>
      <trkpt lat="48.49297" lon="7.00597">
        <ele>660.08</ele>
        <time>2019-07-09T12:39:23Z</time>
      </trkpt>
      <trkpt lat="48.49326" lon="7.00622">
        <ele>662.01</ele>
        <time>2019-07-09T12:39:35Z</time>
      </trkpt>
      <trkpt lat="48.49339" lon="7.0063">
        <ele>662.49</ele>
        <time>2019-07-09T12:39:40Z</time>
      </trkpt>
      <trkpt lat="48.49353" lon="7.00642">
        <ele>661.52</ele>
        <time>2019-07-09T12:39:49Z</time>
      </trkpt>
      <trkpt lat="48.49355" lon="7.00643">
        <ele>661.04</ele>
        <time>2019-07-09T12:39:51Z</time>
      </trkpt>
      <trkpt lat="48.49358" lon="7.00645">
        <ele>661.04</ele>
        <time>2019-07-09T12:39:53Z</time>
      </trkpt>
      <trkpt lat="48.49366" lon="7.0065">
        <ele>660.08</ele>
        <time>2019-07-09T12:40:00Z</time>
      </trkpt>
      <trkpt lat="48.49371" lon="7.00657">
        <ele>660.56</ele>
        <time>2019-07-09T12:40:06Z</time>
      </trkpt>
      <trkpt lat="48.49386" lon="7.00664">
        <ele>659.6</ele>
        <time>2019-07-09T12:40:19Z</time>
      </trkpt>
      <trkpt lat="48.49388" lon="7.00665">
        <ele>659.6</ele>
        <time>2019-07-09T12:40:21Z</time>
      </trkpt>
      <trkpt lat="48.49392" lon="7.0067">
        <ele>659.6</ele>
        <time>2019-07-09T12:40:25Z</time>
      </trkpt>
      <trkpt lat="48.49401" lon="7.00675">
        <ele>659.12</ele>
        <time>2019-07-09T12:40:34Z</time>
      </trkpt>
      <trkpt lat="48.49413" lon="7.00686">
        <ele>657.68</ele>
        <time>2019-07-09T12:40:48Z</time>
      </trkpt>
      <trkpt lat="48.49419" lon="7.00694">
        <ele>656.72</ele>
        <time>2019-07-09T12:40:58Z</time>
      </trkpt>
      <trkpt lat="48.49429" lon="7.00704">
        <ele>651.43</ele>
        <time>2019-07-09T12:41:07Z</time>
      </trkpt>
      <trkpt lat="48.4943" lon="7.00706">
        <ele>650.47</ele>
        <time>2019-07-09T12:41:08Z</time>
      </trkpt>
      <trkpt lat="48.49438" lon="7.0072">
        <ele>648.55</ele>
        <time>2019-07-09T12:41:17Z</time>
      </trkpt>
      <trkpt lat="48.49446" lon="7.00733">
        <ele>641.82</ele>
        <time>2019-07-09T12:41:39Z</time>
      </trkpt>
      <trkpt lat="48.49459" lon="7.00756">
        <ele>640.86</ele>
        <time>2019-07-09T12:41:47Z</time>
      </trkpt>
      <trkpt lat="48.49468" lon="7.00774">
        <ele>642.3</ele>
        <time>2019-07-09T12:41:55Z</time>
      </trkpt>
      <trkpt lat="48.49474" lon="7.00776">
        <ele>642.78</ele>
        <time>2019-07-09T12:42:09Z</time>
      </trkpt>
      <trkpt lat="48.49479" lon="7.00768">
        <ele>638.93</ele>
        <time>2019-07-09T12:42:17Z</time>
      </trkpt>
      <trkpt lat="48.49488" lon="7.00755">
        <ele>633.65</ele>
        <time>2019-07-09T12:42:30Z</time>
      </trkpt>
      <trkpt lat="48.49489" lon="7.00755">
        <ele>633.17</ele>
        <time>2019-07-09T12:42:31Z</time>
      </trkpt>
      <trkpt lat="48.49494" lon="7.00765">
        <ele>631.24</ele>
        <time>2019-07-09T12:42:40Z</time>
      </trkpt>
      <trkpt lat="48.49501" lon="7.00794">
        <ele>631.24</ele>
        <time>2019-07-09T12:42:57Z</time>
      </trkpt>
      <trkpt lat="48.49506" lon="7.00808">
        <ele>630.76</ele>
        <time>2019-07-09T12:43:11Z</time>
      </trkpt>
      <trkpt lat="48.49511" lon="7.00819">
        <ele>631.72</ele>
        <time>2019-07-09T12:43:25Z</time>
      </trkpt>
      <trkpt lat="48.49525" lon="7.00843">
        <ele>633.17</ele>
        <time>2019-07-09T12:43:45Z</time>
      </trkpt>
      <trkpt lat="48.49531" lon="7.00851">
        <ele>635.09</ele>
        <time>2019-07-09T12:43:54Z</time>
      </trkpt>
      <trkpt lat="48.49541" lon="7.00861">
        <ele>638.45</ele>
        <time>2019-07-09T12:44:09Z</time>
      </trkpt>
      <trkpt lat="48.49548" lon="7.00872">
        <ele>641.34</ele>
        <time>2019-07-09T12:44:21Z</time>
      </trkpt>
      <trkpt lat="48.49564" lon="7.00893">
        <ele>644.7</ele>
        <time>2019-07-09T12:44:36Z</time>
      </trkpt>
      <trkpt lat="48.49576" lon="7.00905">
        <ele>648.07</ele>
        <time>2019-07-09T12:44:47Z</time>
      </trkpt>
      <trkpt lat="48.49593" lon="7.00928">
        <ele>651.91</ele>
        <time>2019-07-09T12:45:02Z</time>
      </trkpt>
      <trkpt lat="48.49607" lon="7.00959">
        <ele>652.87</ele>
        <time>2019-07-09T12:45:17Z</time>
      </trkpt>
      <trkpt lat="48.49618" lon="7.0099">
        <ele>653.35</ele>
        <time>2019-07-09T12:45:33Z</time>
      </trkpt>
      <trkpt lat="48.49624" lon="7.01001">
        <ele>653.83</ele>
        <time>2019-07-09T12:45:38Z</time>
      </trkpt>
      <trkpt lat="48.49644" lon="7.01034">
        <ele>653.83</ele>
        <time>2019-07-09T12:45:52Z</time>
      </trkpt>
      <trkpt lat="48.49658" lon="7.01068">
        <ele>656.72</ele>
        <time>2019-07-09T12:46:05Z</time>
      </trkpt>
      <trkpt lat="48.49671" lon="7.01112">
        <ele>657.2</ele>
        <time>2019-07-09T12:46:19Z</time>
      </trkpt>
      <trkpt lat="48.49676" lon="7.01152">
        <ele>656.72</ele>
        <time>2019-07-09T12:46:32Z</time>
      </trkpt>
      <trkpt lat="48.49683" lon="7.01174">
        <ele>656.24</ele>
        <time>2019-07-09T12:46:42Z</time>
      </trkpt>
      <trkpt lat="48.49684" lon="7.01176">
        <ele>656.72</ele>
        <time>2019-07-09T12:46:43Z</time>
      </trkpt>
      <trkpt lat="48.49685" lon="7.01178">
        <ele>656.72</ele>
        <time>2019-07-09T12:46:44Z</time>
      </trkpt>
      <trkpt lat="48.49698" lon="7.01199">
        <ele>658.64</ele>
        <time>2019-07-09T12:46:55Z</time>
      </trkpt>
      <trkpt lat="48.49699" lon="7.01201">
        <ele>659.12</ele>
        <time>2019-07-09T12:46:56Z</time>
      </trkpt>
      <trkpt lat="48.49701" lon="7.01203">
        <ele>659.12</ele>
        <time>2019-07-09T12:46:57Z</time>
      </trkpt>
      <trkpt lat="48.49702" lon="7.01205">
        <ele>658.64</ele>
        <time>2019-07-09T12:46:58Z</time>
      </trkpt>
      <trkpt lat="48.49704" lon="7.01208">
        <ele>658.64</ele>
        <time>2019-07-09T12:46:59Z</time>
      </trkpt>
      <trkpt lat="48.49705" lon="7.0121">
        <ele>659.12</ele>
        <time>2019-07-09T12:47:00Z</time>
      </trkpt>
      <trkpt lat="48.49707" lon="7.01212">
        <ele>659.12</ele>
        <time>2019-07-09T12:47:01Z</time>
      </trkpt>
      <trkpt lat="48.49708" lon="7.01215">
        <ele>659.12</ele>
        <time>2019-07-09T12:47:02Z</time>
      </trkpt>
      <trkpt lat="48.4971" lon="7.01217">
        <ele>659.6</ele>
        <time>2019-07-09T12:47:03Z</time>
      </trkpt>
      <trkpt lat="48.49713" lon="7.01221">
        <ele>660.08</ele>
        <time>2019-07-09T12:47:05Z</time>
      </trkpt>
      <trkpt lat="48.49714" lon="7.01224">
        <ele>660.08</ele>
        <time>2019-07-09T12:47:06Z</time>
      </trkpt>
      <trkpt lat="48.49716" lon="7.01226">
        <ele>660.56</ele>
        <time>2019-07-09T12:47:07Z</time>
      </trkpt>
      <trkpt lat="48.49717" lon="7.01229">
        <ele>661.04</ele>
        <time>2019-07-09T12:47:08Z</time>
      </trkpt>
      <trkpt lat="48.49719" lon="7.01231">
        <ele>661.52</ele>
        <time>2019-07-09T12:47:09Z</time>
      </trkpt>
      <trkpt lat="48.49742" lon="7.01267">
        <ele>663.93</ele>
        <time>2019-07-09T12:47:23Z</time>
      </trkpt>
      <trkpt lat="48.49766" lon="7.01312">
        <ele>667.29</ele>
        <time>2019-07-09T12:47:37Z</time>
      </trkpt>
      <trkpt lat="48.49782" lon="7.0137">
        <ele>669.7</ele>
        <time>2019-07-09T12:47:49Z</time>
      </trkpt>
      <trkpt lat="48.49798" lon="7.01448">
        <ele>671.14</ele>
        <time>2019-07-09T12:48:04Z</time>
      </trkpt>
      <trkpt lat="48.49806" lon="7.01498">
        <ele>673.06</ele>
        <time>2019-07-09T12:48:14Z</time>
      </trkpt>
      <trkpt lat="48.4982" lon="7.0155">
        <ele>672.58</ele>
        <time>2019-07-09T12:48:25Z</time>
      </trkpt>
      <trkpt lat="48.49846" lon="7.01601">
        <ele>669.22</ele>
        <time>2019-07-09T12:48:37Z</time>
      </trkpt>
      <trkpt lat="48.4985" lon="7.01613">
        <ele>669.7</ele>
        <time>2019-07-09T12:48:39Z</time>
      </trkpt>
      <trkpt lat="48.49852" lon="7.01618">
        <ele>669.7</ele>
        <time>2019-07-09T12:48:40Z</time>
      </trkpt>
      <trkpt lat="48.49861" lon="7.01636">
        <ele>670.66</ele>
        <time>2019-07-09T12:48:43Z</time>
      </trkpt>
      <trkpt lat="48.4988" lon="7.01661">
        <ele>669.7</ele>
        <time>2019-07-09T12:48:48Z</time>
      </trkpt>
      <trkpt lat="48.49889" lon="7.01676">
        <ele>669.22</ele>
        <time>2019-07-09T12:48:50Z</time>
      </trkpt>
      <trkpt lat="48.49892" lon="7.01684">
        <ele>668.73</ele>
        <time>2019-07-09T12:48:51Z</time>
      </trkpt>
      <trkpt lat="48.49902" lon="7.01708">
        <ele>667.77</ele>
        <time>2019-07-09T12:48:54Z</time>
      </trkpt>
      <trkpt lat="48.49914" lon="7.01733">
        <ele>667.29</ele>
        <time>2019-07-09T12:48:58Z</time>
      </trkpt>
      <trkpt lat="48.49917" lon="7.0174">
        <ele>667.29</ele>
        <time>2019-07-09T12:48:59Z</time>
      </trkpt>
      <trkpt lat="48.4992" lon="7.01746">
        <ele>666.81</ele>
        <time>2019-07-09T12:49:00Z</time>
      </trkpt>
      <trkpt lat="48.49945" lon="7.01795">
        <ele>665.37</ele>
        <time>2019-07-09T12:49:10Z</time>
      </trkpt>
      <trkpt lat="48.49972" lon="7.01862">
        <ele>663.93</ele>
        <time>2019-07-09T12:49:24Z</time>
      </trkpt>
      <trkpt lat="48.49983" lon="7.01886">
        <ele>663.45</ele>
        <time>2019-07-09T12:49:30Z</time>
      </trkpt>
      <trkpt lat="48.50007" lon="7.01944">
        <ele>660.56</ele>
        <time>2019-07-09T12:49:42Z</time>
      </trkpt>
      <trkpt lat="48.50011" lon="7.01969">
        <ele>658.64</ele>
        <time>2019-07-09T12:49:46Z</time>
      </trkpt>
      <trkpt lat="48.50011" lon="7.01975">
        <ele>658.16</ele>
        <time>2019-07-09T12:49:47Z</time>
      </trkpt>
      <trkpt lat="48.50011" lon="7.01981">
        <ele>657.68</ele>
        <time>2019-07-09T12:49:48Z</time>
      </trkpt>
      <trkpt lat="48.5001" lon="7.01995">
        <ele>656.72</ele>
        <time>2019-07-09T12:49:50Z</time>
      </trkpt>
      <trkpt lat="48.5001" lon="7.02003">
        <ele>656.24</ele>
        <time>2019-07-09T12:49:51Z</time>
      </trkpt>
      <trkpt lat="48.50014" lon="7.0206">
        <ele>651.43</ele>
        <time>2019-07-09T12:50:01Z</time>
      </trkpt>
      <trkpt lat="48.50018" lon="7.0207">
        <ele>652.39</ele>
        <time>2019-07-09T12:50:06Z</time>
      </trkpt>
      <trkpt lat="48.50019" lon="7.02072">
        <ele>652.39</ele>
        <time>2019-07-09T12:50:07Z</time>
      </trkpt>
      <trkpt lat="48.50019" lon="7.02074">
        <ele>652.39</ele>
        <time>2019-07-09T12:50:08Z</time>
      </trkpt>
      <trkpt lat="48.50019" lon="7.02076">
        <ele>652.87</ele>
        <time>2019-07-09T12:50:09Z</time>
      </trkpt>
      <trkpt lat="48.50019" lon="7.02078">
        <ele>652.87</ele>
        <time>2019-07-09T12:50:10Z</time>
      </trkpt>
      <trkpt lat="48.50019" lon="7.02081">
        <ele>652.87</ele>
        <time>2019-07-09T12:50:11Z</time>
      </trkpt>
      <trkpt lat="48.50019" lon="7.02083">
        <ele>652.87</ele>
        <time>2019-07-09T12:50:12Z</time>
      </trkpt>
      <trkpt lat="48.50017" lon="7.02114">
        <ele>652.87</ele>
        <time>2019-07-09T12:50:27Z</time>
      </trkpt>
      <trkpt lat="48.50017" lon="7.02116">
        <ele>652.39</ele>
        <time>2019-07-09T12:50:28Z</time>
      </trkpt>
      <trkpt lat="48.50018" lon="7.02141">
        <ele>655.28</ele>
        <time>2019-07-09T12:50:41Z</time>
      </trkpt>
      <trkpt lat="48.50019" lon="7.02143">
        <ele>655.28</ele>
        <time>2019-07-09T12:50:42Z</time>
      </trkpt>
      <trkpt lat="48.50019" lon="7.02144">
        <ele>655.28</ele>
        <time>2019-07-09T12:50:43Z</time>
      </trkpt>
      <trkpt lat="48.5002" lon="7.02146">
        <ele>655.76</ele>
        <time>2019-07-09T12:50:44Z</time>
      </trkpt>
      <trkpt lat="48.5002" lon="7.02148">
        <ele>655.76</ele>
        <time>2019-07-09T12:50:45Z</time>
      </trkpt>
      <trkpt lat="48.5002" lon="7.0215">
        <ele>656.24</ele>
        <time>2019-07-09T12:50:46Z</time>
      </trkpt>
      <trkpt lat="48.50018" lon="7.02163">
        <ele>656.72</ele>
        <time>2019-07-09T12:50:54Z</time>
      </trkpt>
      <trkpt lat="48.50017" lon="7.02165">
        <ele>656.72</ele>
        <time>2019-07-09T12:50:55Z</time>
      </trkpt>
      <trkpt lat="48.50018" lon="7.02199">
        <ele>658.16</ele>
        <time>2019-07-09T12:51:11Z</time>
      </trkpt>
      <trkpt lat="48.5002" lon="7.02215">
        <ele>661.04</ele>
        <time>2019-07-09T12:51:19Z</time>
      </trkpt>
      <trkpt lat="48.50021" lon="7.02217">
        <ele>661.52</ele>
        <time>2019-07-09T12:51:20Z</time>
      </trkpt>
      <trkpt lat="48.50021" lon="7.02219">
        <ele>661.52</ele>
        <time>2019-07-09T12:51:21Z</time>
      </trkpt>
      <trkpt lat="48.50026" lon="7.02247">
        <ele>665.85</ele>
        <time>2019-07-09T12:51:36Z</time>
      </trkpt>
      <trkpt lat="48.50027" lon="7.02262">
        <ele>666.81</ele>
        <time>2019-07-09T12:51:43Z</time>
      </trkpt>
      <trkpt lat="48.50028" lon="7.02264">
        <ele>667.29</ele>
        <time>2019-07-09T12:51:44Z</time>
      </trkpt>
      <trkpt lat="48.50028" lon="7.02266">
        <ele>667.29</ele>
        <time>2019-07-09T12:51:45Z</time>
      </trkpt>
      <trkpt lat="48.50029" lon="7.02268">
        <ele>667.29</ele>
        <time>2019-07-09T12:51:46Z</time>
      </trkpt>
      <trkpt lat="48.50029" lon="7.0227">
        <ele>667.77</ele>
        <time>2019-07-09T12:51:47Z</time>
      </trkpt>
      <trkpt lat="48.50029" lon="7.02272">
        <ele>667.77</ele>
        <time>2019-07-09T12:51:48Z</time>
      </trkpt>
      <trkpt lat="48.5003" lon="7.02274">
        <ele>668.25</ele>
        <time>2019-07-09T12:51:49Z</time>
      </trkpt>
      <trkpt lat="48.50035" lon="7.02311">
        <ele>670.66</ele>
        <time>2019-07-09T12:52:05Z</time>
      </trkpt>
      <trkpt lat="48.50045" lon="7.02346">
        <ele>671.14</ele>
        <time>2019-07-09T12:52:19Z</time>
      </trkpt>
      <trkpt lat="48.50058" lon="7.02384">
        <ele>672.58</ele>
        <time>2019-07-09T12:52:32Z</time>
      </trkpt>
      <trkpt lat="48.50072" lon="7.02423">
        <ele>673.54</ele>
        <time>2019-07-09T12:52:45Z</time>
      </trkpt>
      <trkpt lat="48.50086" lon="7.02461">
        <ele>674.5</ele>
        <time>2019-07-09T12:52:59Z</time>
      </trkpt>
      <trkpt lat="48.50094" lon="7.02478">
        <ele>678.83</ele>
        <time>2019-07-09T12:53:07Z</time>
      </trkpt>
      <trkpt lat="48.50095" lon="7.0248">
        <ele>679.31</ele>
        <time>2019-07-09T12:53:08Z</time>
      </trkpt>
      <trkpt lat="48.50096" lon="7.02483">
        <ele>679.31</ele>
        <time>2019-07-09T12:53:09Z</time>
      </trkpt>
      <trkpt lat="48.50096" lon="7.02486">
        <ele>679.31</ele>
        <time>2019-07-09T12:53:10Z</time>
      </trkpt>
      <trkpt lat="48.50096" lon="7.02488">
        <ele>679.31</ele>
        <time>2019-07-09T12:53:11Z</time>
      </trkpt>
      <trkpt lat="48.50097" lon="7.02491">
        <ele>679.31</ele>
        <time>2019-07-09T12:53:12Z</time>
      </trkpt>
      <trkpt lat="48.50097" lon="7.02495">
        <ele>679.31</ele>
        <time>2019-07-09T12:53:13Z</time>
      </trkpt>
      <trkpt lat="48.50097" lon="7.02498">
        <ele>678.83</ele>
        <time>2019-07-09T12:53:14Z</time>
      </trkpt>
      <trkpt lat="48.50097" lon="7.02502">
        <ele>678.35</ele>
        <time>2019-07-09T12:53:15Z</time>
      </trkpt>
      <trkpt lat="48.50096" lon="7.02505">
        <ele>677.87</ele>
        <time>2019-07-09T12:53:16Z</time>
      </trkpt>
      <trkpt lat="48.50097" lon="7.02508">
        <ele>677.87</ele>
        <time>2019-07-09T12:53:17Z</time>
      </trkpt>
      <trkpt lat="48.50097" lon="7.02511">
        <ele>677.39</ele>
        <time>2019-07-09T12:53:18Z</time>
      </trkpt>
      <trkpt lat="48.50097" lon="7.02515">
        <ele>677.39</ele>
        <time>2019-07-09T12:53:19Z</time>
      </trkpt>
      <trkpt lat="48.50104" lon="7.02563">
        <ele>674.98</ele>
        <time>2019-07-09T12:53:33Z</time>
      </trkpt>
      <trkpt lat="48.50111" lon="7.02611">
        <ele>676.91</ele>
        <time>2019-07-09T12:53:47Z</time>
      </trkpt>
      <trkpt lat="48.50121" lon="7.02645">
        <ele>678.35</ele>
        <time>2019-07-09T12:54:00Z</time>
      </trkpt>
      <trkpt lat="48.50128" lon="7.02677">
        <ele>680.75</ele>
        <time>2019-07-09T12:54:12Z</time>
      </trkpt>
      <trkpt lat="48.50134" lon="7.02718">
        <ele>683.63</ele>
        <time>2019-07-09T12:54:26Z</time>
      </trkpt>
      <trkpt lat="48.50144" lon="7.02757">
        <ele>684.6</ele>
        <time>2019-07-09T12:54:39Z</time>
      </trkpt>
      <trkpt lat="48.50158" lon="7.02797">
        <ele>685.56</ele>
        <time>2019-07-09T12:54:55Z</time>
      </trkpt>
      <trkpt lat="48.50165" lon="7.02825">
        <ele>687</ele>
        <time>2019-07-09T12:55:09Z</time>
      </trkpt>
      <trkpt lat="48.50163" lon="7.02835">
        <ele>688.44</ele>
        <time>2019-07-09T12:55:15Z</time>
      </trkpt>
      <trkpt lat="48.50171" lon="7.02866">
        <ele>691.33</ele>
        <time>2019-07-09T12:55:30Z</time>
      </trkpt>
      <trkpt lat="48.50173" lon="7.02886">
        <ele>692.77</ele>
        <time>2019-07-09T12:55:40Z</time>
      </trkpt>
      <trkpt lat="48.50173" lon="7.02887">
        <ele>692.77</ele>
        <time>2019-07-09T12:55:41Z</time>
      </trkpt>
      <trkpt lat="48.50183" lon="7.0292">
        <ele>694.21</ele>
        <time>2019-07-09T12:55:57Z</time>
      </trkpt>
      <trkpt lat="48.50199" lon="7.02945">
        <ele>696.13</ele>
        <time>2019-07-09T12:56:11Z</time>
      </trkpt>
      <trkpt lat="48.50204" lon="7.0298">
        <ele>698.05</ele>
        <time>2019-07-09T12:56:26Z</time>
      </trkpt>
      <trkpt lat="48.50226" lon="7.03012">
        <ele>699.98</ele>
        <time>2019-07-09T12:56:40Z</time>
      </trkpt>
      <trkpt lat="48.50243" lon="7.03037">
        <ele>699.02</ele>
        <time>2019-07-09T12:56:50Z</time>
      </trkpt>
      <trkpt lat="48.50243" lon="7.03043">
        <ele>699.02</ele>
        <time>2019-07-09T12:56:55Z</time>
      </trkpt>
      <trkpt lat="48.50243" lon="7.03048">
        <ele>699.02</ele>
        <time>2019-07-09T12:56:58Z</time>
      </trkpt>
      <trkpt lat="48.5025" lon="7.03064">
        <ele>698.53</ele>
        <time>2019-07-09T12:57:11Z</time>
      </trkpt>
      <trkpt lat="48.50256" lon="7.03079">
        <ele>698.53</ele>
        <time>2019-07-09T12:57:18Z</time>
      </trkpt>
      <trkpt lat="48.50258" lon="7.03081">
        <ele>698.53</ele>
        <time>2019-07-09T12:57:19Z</time>
      </trkpt>
      <trkpt lat="48.5026" lon="7.03083">
        <ele>698.05</ele>
        <time>2019-07-09T12:57:20Z</time>
      </trkpt>
      <trkpt lat="48.50261" lon="7.03086">
        <ele>697.57</ele>
        <time>2019-07-09T12:57:21Z</time>
      </trkpt>
      <trkpt lat="48.50261" lon="7.03089">
        <ele>697.57</ele>
        <time>2019-07-09T12:57:22Z</time>
      </trkpt>
      <trkpt lat="48.50262" lon="7.03091">
        <ele>697.09</ele>
        <time>2019-07-09T12:57:23Z</time>
      </trkpt>
      <trkpt lat="48.50265" lon="7.03102">
        <ele>697.57</ele>
        <time>2019-07-09T12:57:27Z</time>
      </trkpt>
      <trkpt lat="48.50266" lon="7.03104">
        <ele>697.57</ele>
        <time>2019-07-09T12:57:28Z</time>
      </trkpt>
      <trkpt lat="48.50267" lon="7.03106">
        <ele>697.57</ele>
        <time>2019-07-09T12:57:29Z</time>
      </trkpt>
      <trkpt lat="48.50268" lon="7.03108">
        <ele>697.57</ele>
        <time>2019-07-09T12:57:30Z</time>
      </trkpt>
      <trkpt lat="48.50269" lon="7.03111">
        <ele>697.09</ele>
        <time>2019-07-09T12:57:31Z</time>
      </trkpt>
      <trkpt lat="48.50269" lon="7.03113">
        <ele>697.09</ele>
        <time>2019-07-09T12:57:32Z</time>
      </trkpt>
      <trkpt lat="48.50271" lon="7.03115">
        <ele>696.61</ele>
        <time>2019-07-09T12:57:33Z</time>
      </trkpt>
      <trkpt lat="48.50272" lon="7.03117">
        <ele>696.13</ele>
        <time>2019-07-09T12:57:34Z</time>
      </trkpt>
      <trkpt lat="48.50273" lon="7.03119">
        <ele>696.13</ele>
        <time>2019-07-09T12:57:35Z</time>
      </trkpt>
      <trkpt lat="48.50274" lon="7.03121">
        <ele>696.13</ele>
        <time>2019-07-09T12:57:36Z</time>
      </trkpt>
      <trkpt lat="48.50278" lon="7.03133">
        <ele>696.13</ele>
        <time>2019-07-09T12:57:45Z</time>
      </trkpt>
      <trkpt lat="48.5028" lon="7.03136">
        <ele>695.65</ele>
        <time>2019-07-09T12:57:54Z</time>
      </trkpt>
      <trkpt lat="48.50283" lon="7.03143">
        <ele>695.17</ele>
        <time>2019-07-09T12:58:07Z</time>
      </trkpt>
      <trkpt lat="48.50285" lon="7.03133">
        <ele>693.25</ele>
        <time>2019-07-09T12:58:22Z</time>
      </trkpt>
      <trkpt lat="48.50289" lon="7.03148">
        <ele>692.29</ele>
        <time>2019-07-09T12:58:35Z</time>
      </trkpt>
      <trkpt lat="48.50293" lon="7.03163">
        <ele>690.84</ele>
        <time>2019-07-09T12:58:47Z</time>
      </trkpt>
      <trkpt lat="48.50293" lon="7.03167">
        <ele>689.88</ele>
        <time>2019-07-09T12:59:07Z</time>
      </trkpt>
      <trkpt lat="48.5029" lon="7.03173">
        <ele>686.52</ele>
        <time>2019-07-09T12:59:22Z</time>
      </trkpt>
      <trkpt lat="48.50293" lon="7.03172">
        <ele>687.48</ele>
        <time>2019-07-09T12:59:36Z</time>
      </trkpt>
      <trkpt lat="48.50294" lon="7.03172">
        <ele>687</ele>
        <time>2019-07-09T12:59:41Z</time>
      </trkpt>
      <trkpt lat="48.50298" lon="7.03173">
        <ele>686.04</ele>
        <time>2019-07-09T12:59:57Z</time>
      </trkpt>
      <trkpt lat="48.50305" lon="7.03168">
        <ele>685.08</ele>
        <time>2019-07-09T13:00:11Z</time>
      </trkpt>
      <trkpt lat="48.50308" lon="7.0317">
        <ele>684.6</ele>
        <time>2019-07-09T13:00:21Z</time>
      </trkpt>
      <trkpt lat="48.50309" lon="7.03171">
        <ele>684.6</ele>
        <time>2019-07-09T13:00:22Z</time>
      </trkpt>
      <trkpt lat="48.50309" lon="7.03174">
        <ele>684.12</ele>
        <time>2019-07-09T13:00:23Z</time>
      </trkpt>
      <trkpt lat="48.50309" lon="7.03176">
        <ele>684.12</ele>
        <time>2019-07-09T13:00:24Z</time>
      </trkpt>
      <trkpt lat="48.5031" lon="7.03178">
        <ele>684.12</ele>
        <time>2019-07-09T13:00:25Z</time>
      </trkpt>
      <trkpt lat="48.5031" lon="7.0318">
        <ele>684.12</ele>
        <time>2019-07-09T13:00:26Z</time>
      </trkpt>
      <trkpt lat="48.50312" lon="7.03189">
        <ele>683.15</ele>
        <time>2019-07-09T13:00:36Z</time>
      </trkpt>
      <trkpt lat="48.50315" lon="7.03199">
        <ele>682.19</ele>
        <time>2019-07-09T13:00:46Z</time>
      </trkpt>
      <trkpt lat="48.50316" lon="7.03202">
        <ele>681.71</ele>
        <time>2019-07-09T13:00:47Z</time>
      </trkpt>
      <trkpt lat="48.50317" lon="7.03205">
        <ele>681.23</ele>
        <time>2019-07-09T13:00:48Z</time>
      </trkpt>
      <trkpt lat="48.5032" lon="7.0323">
        <ele>678.35</ele>
        <time>2019-07-09T13:00:56Z</time>
      </trkpt>
      <trkpt lat="48.50321" lon="7.03232">
        <ele>678.35</ele>
        <time>2019-07-09T13:00:57Z</time>
      </trkpt>
      <trkpt lat="48.50322" lon="7.03235">
        <ele>677.87</ele>
        <time>2019-07-09T13:00:58Z</time>
      </trkpt>
      <trkpt lat="48.50322" lon="7.03239">
        <ele>677.39</ele>
        <time>2019-07-09T13:00:59Z</time>
      </trkpt>
      <trkpt lat="48.50323" lon="7.03242">
        <ele>676.91</ele>
        <time>2019-07-09T13:01:00Z</time>
      </trkpt>
      <trkpt lat="48.50323" lon="7.03247">
        <ele>676.42</ele>
        <time>2019-07-09T13:01:01Z</time>
      </trkpt>
      <trkpt lat="48.50324" lon="7.03251">
        <ele>675.94</ele>
        <time>2019-07-09T13:01:02Z</time>
      </trkpt>
      <trkpt lat="48.50324" lon="7.03255">
        <ele>675.94</ele>
        <time>2019-07-09T13:01:03Z</time>
      </trkpt>
      <trkpt lat="48.50324" lon="7.03258">
        <ele>675.94</ele>
        <time>2019-07-09T13:01:04Z</time>
      </trkpt>
      <trkpt lat="48.50324" lon="7.03261">
        <ele>675.46</ele>
        <time>2019-07-09T13:01:05Z</time>
      </trkpt>
      <trkpt lat="48.50323" lon="7.03264">
        <ele>675.46</ele>
        <time>2019-07-09T13:01:06Z</time>
      </trkpt>
      <trkpt lat="48.50319" lon="7.03272">
        <ele>674.98</ele>
        <time>2019-07-09T13:01:15Z</time>
      </trkpt>
      <trkpt lat="48.50318" lon="7.03296">
        <ele>673.06</ele>
        <time>2019-07-09T13:01:25Z</time>
      </trkpt>
      <trkpt lat="48.50318" lon="7.03309">
        <ele>671.14</ele>
        <time>2019-07-09T13:01:28Z</time>
      </trkpt>
      <trkpt lat="48.50319" lon="7.03314">
        <ele>670.66</ele>
        <time>2019-07-09T13:01:29Z</time>
      </trkpt>
      <trkpt lat="48.5032" lon="7.03318">
        <ele>670.18</ele>
        <time>2019-07-09T13:01:30Z</time>
      </trkpt>
      <trkpt lat="48.50321" lon="7.03322">
        <ele>670.18</ele>
        <time>2019-07-09T13:01:31Z</time>
      </trkpt>
      <trkpt lat="48.50322" lon="7.03327">
        <ele>669.7</ele>
        <time>2019-07-09T13:01:32Z</time>
      </trkpt>
      <trkpt lat="48.50323" lon="7.03331">
        <ele>669.22</ele>
        <time>2019-07-09T13:01:33Z</time>
      </trkpt>
      <trkpt lat="48.50332" lon="7.03371">
        <ele>666.81</ele>
        <time>2019-07-09T13:01:44Z</time>
      </trkpt>
      <trkpt lat="48.50354" lon="7.03413">
        <ele>662.97</ele>
        <time>2019-07-09T13:01:56Z</time>
      </trkpt>
      <trkpt lat="48.50356" lon="7.03433">
        <ele>661.52</ele>
        <time>2019-07-09T13:02:02Z</time>
      </trkpt>
      <trkpt lat="48.50356" lon="7.03435">
        <ele>661.52</ele>
        <time>2019-07-09T13:02:03Z</time>
      </trkpt>
      <trkpt lat="48.50356" lon="7.03438">
        <ele>661.52</ele>
        <time>2019-07-09T13:02:04Z</time>
      </trkpt>
      <trkpt lat="48.50356" lon="7.0344">
        <ele>661.52</ele>
        <time>2019-07-09T13:02:05Z</time>
      </trkpt>
      <trkpt lat="48.50356" lon="7.03443">
        <ele>661.52</ele>
        <time>2019-07-09T13:02:06Z</time>
      </trkpt>
      <trkpt lat="48.50357" lon="7.03483">
        <ele>662.97</ele>
        <time>2019-07-09T13:02:20Z</time>
      </trkpt>
      <trkpt lat="48.50357" lon="7.03486">
        <ele>662.97</ele>
        <time>2019-07-09T13:02:21Z</time>
      </trkpt>
      <trkpt lat="48.50357" lon="7.0349">
        <ele>662.97</ele>
        <time>2019-07-09T13:02:22Z</time>
      </trkpt>
      <trkpt lat="48.50357" lon="7.03493">
        <ele>662.97</ele>
        <time>2019-07-09T13:02:23Z</time>
      </trkpt>
      <trkpt lat="48.50356" lon="7.03496">
        <ele>662.49</ele>
        <time>2019-07-09T13:02:24Z</time>
      </trkpt>
      <trkpt lat="48.50356" lon="7.03499">
        <ele>662.49</ele>
        <time>2019-07-09T13:02:25Z</time>
      </trkpt>
      <trkpt lat="48.50361" lon="7.0355">
        <ele>662.01</ele>
        <time>2019-07-09T13:02:39Z</time>
      </trkpt>
      <trkpt lat="48.50369" lon="7.03602">
        <ele>661.52</ele>
        <time>2019-07-09T13:02:52Z</time>
      </trkpt>
      <trkpt lat="48.50388" lon="7.03663">
        <ele>662.97</ele>
        <time>2019-07-09T13:03:06Z</time>
      </trkpt>
      <trkpt lat="48.50421" lon="7.03708">
        <ele>662.49</ele>
        <time>2019-07-09T13:03:20Z</time>
      </trkpt>
      <trkpt lat="48.50459" lon="7.03751">
        <ele>661.52</ele>
        <time>2019-07-09T13:03:33Z</time>
      </trkpt>
      <trkpt lat="48.50464" lon="7.03759">
        <ele>661.52</ele>
        <time>2019-07-09T13:03:35Z</time>
      </trkpt>
      <trkpt lat="48.50467" lon="7.03764">
        <ele>661.52</ele>
        <time>2019-07-09T13:03:36Z</time>
      </trkpt>
      <trkpt lat="48.50469" lon="7.0377">
        <ele>661.52</ele>
        <time>2019-07-09T13:03:37Z</time>
      </trkpt>
      <trkpt lat="48.50476" lon="7.03787">
        <ele>661.52</ele>
        <time>2019-07-09T13:03:40Z</time>
      </trkpt>
      <trkpt lat="48.50485" lon="7.03814">
        <ele>660.56</ele>
        <time>2019-07-09T13:03:44Z</time>
      </trkpt>
      <trkpt lat="48.50487" lon="7.03821">
        <ele>660.56</ele>
        <time>2019-07-09T13:03:45Z</time>
      </trkpt>
      <trkpt lat="48.50493" lon="7.03832">
        <ele>660.56</ele>
        <time>2019-07-09T13:03:47Z</time>
      </trkpt>
      <trkpt lat="48.50505" lon="7.0385">
        <ele>661.04</ele>
        <time>2019-07-09T13:03:51Z</time>
      </trkpt>
      <trkpt lat="48.50514" lon="7.03865">
        <ele>660.56</ele>
        <time>2019-07-09T13:03:54Z</time>
      </trkpt>
      <trkpt lat="48.50516" lon="7.03871">
        <ele>660.08</ele>
        <time>2019-07-09T13:03:55Z</time>
      </trkpt>
      <trkpt lat="48.50518" lon="7.03877">
        <ele>660.08</ele>
        <time>2019-07-09T13:03:56Z</time>
      </trkpt>
      <trkpt lat="48.50521" lon="7.03885">
        <ele>659.6</ele>
        <time>2019-07-09T13:03:57Z</time>
      </trkpt>
      <trkpt lat="48.50521" lon="7.03889">
        <ele>659.6</ele>
        <time>2019-07-09T13:03:58Z</time>
      </trkpt>
      <trkpt lat="48.50524" lon="7.03893">
        <ele>659.6</ele>
        <time>2019-07-09T13:04:09Z</time>
      </trkpt>
      <trkpt lat="48.50523" lon="7.03895">
        <ele>659.12</ele>
        <time>2019-07-09T13:04:11Z</time>
      </trkpt>
      <trkpt lat="48.50523" lon="7.03897">
        <ele>659.12</ele>
        <time>2019-07-09T13:04:12Z</time>
      </trkpt>
      <trkpt lat="48.50523" lon="7.03898">
        <ele>659.12</ele>
        <time>2019-07-09T13:04:13Z</time>
      </trkpt>
      <trkpt lat="48.50524" lon="7.03901">
        <ele>659.12</ele>
        <time>2019-07-09T13:04:14Z</time>
      </trkpt>
      <trkpt lat="48.50525" lon="7.03904">
        <ele>659.12</ele>
        <time>2019-07-09T13:04:15Z</time>
      </trkpt>
      <trkpt lat="48.50526" lon="7.03907">
        <ele>658.64</ele>
        <time>2019-07-09T13:04:16Z</time>
      </trkpt>
      <trkpt lat="48.50527" lon="7.03917">
        <ele>657.2</ele>
        <time>2019-07-09T13:04:25Z</time>
      </trkpt>
      <trkpt lat="48.50525" lon="7.03918">
        <ele>657.2</ele>
        <time>2019-07-09T13:04:26Z</time>
      </trkpt>
      <trkpt lat="48.50523" lon="7.03919">
        <ele>657.2</ele>
        <time>2019-07-09T13:04:28Z</time>
      </trkpt>
      <trkpt lat="48.50514" lon="7.03927">
        <ele>656.72</ele>
        <time>2019-07-09T13:04:36Z</time>
      </trkpt>
      <trkpt lat="48.50514" lon="7.03929">
        <ele>656.72</ele>
        <time>2019-07-09T13:04:37Z</time>
      </trkpt>
      <trkpt lat="48.50513" lon="7.03931">
        <ele>656.72</ele>
        <time>2019-07-09T13:04:38Z</time>
      </trkpt>
      <trkpt lat="48.50511" lon="7.03977">
        <ele>654.8</ele>
        <time>2019-07-09T13:04:51Z</time>
      </trkpt>
      <trkpt lat="48.5051" lon="7.04004">
        <ele>653.83</ele>
        <time>2019-07-09T13:04:58Z</time>
      </trkpt>
      <trkpt lat="48.50509" lon="7.04006">
        <ele>653.35</ele>
        <time>2019-07-09T13:04:59Z</time>
      </trkpt>
      <trkpt lat="48.50507" lon="7.04006">
        <ele>653.35</ele>
        <time>2019-07-09T13:05:00Z</time>
      </trkpt>
      <trkpt lat="48.50506" lon="7.04004">
        <ele>653.35</ele>
        <time>2019-07-09T13:05:01Z</time>
      </trkpt>
      <trkpt lat="48.50505" lon="7.04002">
        <ele>653.35</ele>
        <time>2019-07-09T13:05:02Z</time>
      </trkpt>
      <trkpt lat="48.50505" lon="7.04">
        <ele>653.83</ele>
        <time>2019-07-09T13:05:03Z</time>
      </trkpt>
      <trkpt lat="48.50504" lon="7.03998">
        <ele>653.83</ele>
        <time>2019-07-09T13:05:04Z</time>
      </trkpt>
      <trkpt lat="48.50502" lon="7.03994">
        <ele>654.31</ele>
        <time>2019-07-09T13:05:15Z</time>
      </trkpt>
      <trkpt lat="48.50499" lon="7.0399">
        <ele>655.76</ele>
        <time>2019-07-09T13:05:27Z</time>
      </trkpt>
      <trkpt lat="48.50498" lon="7.03987">
        <ele>656.24</ele>
        <time>2019-07-09T13:05:30Z</time>
      </trkpt>
      <trkpt lat="48.50498" lon="7.03985">
        <ele>656.24</ele>
        <time>2019-07-09T13:05:31Z</time>
      </trkpt>
      <trkpt lat="48.50497" lon="7.03983">
        <ele>656.24</ele>
        <time>2019-07-09T13:05:32Z</time>
      </trkpt>
      <trkpt lat="48.50485" lon="7.03953">
        <ele>657.2</ele>
        <time>2019-07-09T13:05:41Z</time>
      </trkpt>
      <trkpt lat="48.5046" lon="7.03922">
        <ele>653.83</ele>
        <time>2019-07-09T13:05:52Z</time>
      </trkpt>
      <trkpt lat="48.50408" lon="7.03864">
        <ele>639.41</ele>
        <time>2019-07-09T13:06:07Z</time>
      </trkpt>
      <trkpt lat="48.5037" lon="7.03821">
        <ele>627.88</ele>
        <time>2019-07-09T13:06:16Z</time>
      </trkpt>
      <trkpt lat="48.50365" lon="7.03818">
        <ele>626.92</ele>
        <time>2019-07-09T13:06:17Z</time>
      </trkpt>
      <trkpt lat="48.50307" lon="7.03799">
        <ele>614.9</ele>
        <time>2019-07-09T13:06:29Z</time>
      </trkpt>
      <trkpt lat="48.50297" lon="7.03798">
        <ele>612.02</ele>
        <time>2019-07-09T13:06:31Z</time>
      </trkpt>
      <trkpt lat="48.50293" lon="7.03797">
        <ele>611.06</ele>
        <time>2019-07-09T13:06:32Z</time>
      </trkpt>
      <trkpt lat="48.50288" lon="7.03796">
        <ele>609.61</ele>
        <time>2019-07-09T13:06:33Z</time>
      </trkpt>
      <trkpt lat="48.50259" lon="7.03784">
        <ele>601.44</ele>
        <time>2019-07-09T13:06:40Z</time>
      </trkpt>
      <trkpt lat="48.50255" lon="7.03779">
        <ele>600</ele>
        <time>2019-07-09T13:06:41Z</time>
      </trkpt>
      <trkpt lat="48.50251" lon="7.03775">
        <ele>599.04</ele>
        <time>2019-07-09T13:06:42Z</time>
      </trkpt>
      <trkpt lat="48.50243" lon="7.03765">
        <ele>596.64</ele>
        <time>2019-07-09T13:06:44Z</time>
      </trkpt>
      <trkpt lat="48.50228" lon="7.03742">
        <ele>591.83</ele>
        <time>2019-07-09T13:06:48Z</time>
      </trkpt>
      <trkpt lat="48.50196" lon="7.03676">
        <ele>582.22</ele>
        <time>2019-07-09T13:06:59Z</time>
      </trkpt>
      <trkpt lat="48.50193" lon="7.03671">
        <ele>581.25</ele>
        <time>2019-07-09T13:07:00Z</time>
      </trkpt>
      <trkpt lat="48.50191" lon="7.03665">
        <ele>580.29</ele>
        <time>2019-07-09T13:07:01Z</time>
      </trkpt>
      <trkpt lat="48.50189" lon="7.0366">
        <ele>579.33</ele>
        <time>2019-07-09T13:07:02Z</time>
      </trkpt>
      <trkpt lat="48.50185" lon="7.03655">
        <ele>578.37</ele>
        <time>2019-07-09T13:07:03Z</time>
      </trkpt>
      <trkpt lat="48.50182" lon="7.0365">
        <ele>577.89</ele>
        <time>2019-07-09T13:07:04Z</time>
      </trkpt>
      <trkpt lat="48.50172" lon="7.0363">
        <ele>574.53</ele>
        <time>2019-07-09T13:07:08Z</time>
      </trkpt>
      <trkpt lat="48.50169" lon="7.03623">
        <ele>573.56</ele>
        <time>2019-07-09T13:07:09Z</time>
      </trkpt>
      <trkpt lat="48.50163" lon="7.03611">
        <ele>572.12</ele>
        <time>2019-07-09T13:07:11Z</time>
      </trkpt>
      <trkpt lat="48.50159" lon="7.03605">
        <ele>571.64</ele>
        <time>2019-07-09T13:07:12Z</time>
      </trkpt>
      <trkpt lat="48.50157" lon="7.03599">
        <ele>570.68</ele>
        <time>2019-07-09T13:07:13Z</time>
      </trkpt>
      <trkpt lat="48.50142" lon="7.03562">
        <ele>565.87</ele>
        <time>2019-07-09T13:07:19Z</time>
      </trkpt>
      <trkpt lat="48.5014" lon="7.03555">
        <ele>564.91</ele>
        <time>2019-07-09T13:07:20Z</time>
      </trkpt>
      <trkpt lat="48.50132" lon="7.03535">
        <ele>562.51</ele>
        <time>2019-07-09T13:07:23Z</time>
      </trkpt>
      <trkpt lat="48.50125" lon="7.03515">
        <ele>561.07</ele>
        <time>2019-07-09T13:07:26Z</time>
      </trkpt>
      <trkpt lat="48.50099" lon="7.03419">
        <ele>551.45</ele>
        <time>2019-07-09T13:07:39Z</time>
      </trkpt>
      <trkpt lat="48.5009" lon="7.03368">
        <ele>547.13</ele>
        <time>2019-07-09T13:07:45Z</time>
      </trkpt>
      <trkpt lat="48.5007" lon="7.03329">
        <ele>540.88</ele>
        <time>2019-07-09T13:07:54Z</time>
      </trkpt>
      <trkpt lat="48.50065" lon="7.03327">
        <ele>540.4</ele>
        <time>2019-07-09T13:07:55Z</time>
      </trkpt>
      <trkpt lat="48.50062" lon="7.03325">
        <ele>539.92</ele>
        <time>2019-07-09T13:07:56Z</time>
      </trkpt>
      <trkpt lat="48.50057" lon="7.03323">
        <ele>539.44</ele>
        <time>2019-07-09T13:07:57Z</time>
      </trkpt>
      <trkpt lat="48.50052" lon="7.03323">
        <ele>538.96</ele>
        <time>2019-07-09T13:07:58Z</time>
      </trkpt>
      <trkpt lat="48.49987" lon="7.03323">
        <ele>530.3</ele>
        <time>2019-07-09T13:08:09Z</time>
      </trkpt>
      <trkpt lat="48.4995" lon="7.03324">
        <ele>525.5</ele>
        <time>2019-07-09T13:08:15Z</time>
      </trkpt>
      <trkpt lat="48.49913" lon="7.03335">
        <ele>520.69</ele>
        <time>2019-07-09T13:08:21Z</time>
      </trkpt>
      <trkpt lat="48.49904" lon="7.03339">
        <ele>519.25</ele>
        <time>2019-07-09T13:08:23Z</time>
      </trkpt>
      <trkpt lat="48.49893" lon="7.03341">
        <ele>517.81</ele>
        <time>2019-07-09T13:08:25Z</time>
      </trkpt>
      <trkpt lat="48.49884" lon="7.03342">
        <ele>516.85</ele>
        <time>2019-07-09T13:08:27Z</time>
      </trkpt>
      <trkpt lat="48.4988" lon="7.03342">
        <ele>516.37</ele>
        <time>2019-07-09T13:08:28Z</time>
      </trkpt>
      <trkpt lat="48.49877" lon="7.03341">
        <ele>515.88</ele>
        <time>2019-07-09T13:08:29Z</time>
      </trkpt>
      <trkpt lat="48.49874" lon="7.03339">
        <ele>514.92</ele>
        <time>2019-07-09T13:08:30Z</time>
      </trkpt>
      <trkpt lat="48.49871" lon="7.03336">
        <ele>513.96</ele>
        <time>2019-07-09T13:08:31Z</time>
      </trkpt>
      <trkpt lat="48.49868" lon="7.03333">
        <ele>513.48</ele>
        <time>2019-07-09T13:08:32Z</time>
      </trkpt>
      <trkpt lat="48.49866" lon="7.03329">
        <ele>512.52</ele>
        <time>2019-07-09T13:08:33Z</time>
      </trkpt>
      <trkpt lat="48.49863" lon="7.03324">
        <ele>511.56</ele>
        <time>2019-07-09T13:08:34Z</time>
      </trkpt>
      <trkpt lat="48.4986" lon="7.03319">
        <ele>511.08</ele>
        <time>2019-07-09T13:08:35Z</time>
      </trkpt>
      <trkpt lat="48.49845" lon="7.03288">
        <ele>507.23</ele>
        <time>2019-07-09T13:08:40Z</time>
      </trkpt>
      <trkpt lat="48.49842" lon="7.03283">
        <ele>506.75</ele>
        <time>2019-07-09T13:08:41Z</time>
      </trkpt>
      <trkpt lat="48.49837" lon="7.03271">
        <ele>505.31</ele>
        <time>2019-07-09T13:08:43Z</time>
      </trkpt>
      <trkpt lat="48.49835" lon="7.03265">
        <ele>504.35</ele>
        <time>2019-07-09T13:08:44Z</time>
      </trkpt>
      <trkpt lat="48.49832" lon="7.03259">
        <ele>503.39</ele>
        <time>2019-07-09T13:08:45Z</time>
      </trkpt>
      <trkpt lat="48.49806" lon="7.03179">
        <ele>495.7</ele>
        <time>2019-07-09T13:08:56Z</time>
      </trkpt>
      <trkpt lat="48.49797" lon="7.03152">
        <ele>493.29</ele>
        <time>2019-07-09T13:09:00Z</time>
      </trkpt>
      <trkpt lat="48.49794" lon="7.03144">
        <ele>492.33</ele>
        <time>2019-07-09T13:09:01Z</time>
      </trkpt>
      <trkpt lat="48.49791" lon="7.03138">
        <ele>491.37</ele>
        <time>2019-07-09T13:09:02Z</time>
      </trkpt>
      <trkpt lat="48.49761" lon="7.03093">
        <ele>484.64</ele>
        <time>2019-07-09T13:09:11Z</time>
      </trkpt>
      <trkpt lat="48.49753" lon="7.03076">
        <ele>482.72</ele>
        <time>2019-07-09T13:09:14Z</time>
      </trkpt>
      <trkpt lat="48.49751" lon="7.0307">
        <ele>481.76</ele>
        <time>2019-07-09T13:09:15Z</time>
      </trkpt>
      <trkpt lat="48.49748" lon="7.03058">
        <ele>480.32</ele>
        <time>2019-07-09T13:09:17Z</time>
      </trkpt>
      <trkpt lat="48.49737" lon="7.03">
        <ele>474.07</ele>
        <time>2019-07-09T13:09:26Z</time>
      </trkpt>
      <trkpt lat="48.49735" lon="7.02995">
        <ele>473.59</ele>
        <time>2019-07-09T13:09:27Z</time>
      </trkpt>
      <trkpt lat="48.49726" lon="7.0298">
        <ele>473.59</ele>
        <time>2019-07-09T13:09:31Z</time>
      </trkpt>
      <trkpt lat="48.49726" lon="7.02977">
        <ele>473.59</ele>
        <time>2019-07-09T13:09:32Z</time>
      </trkpt>
      <trkpt lat="48.4972" lon="7.02976">
        <ele>476.95</ele>
        <time>2019-07-09T13:09:45Z</time>
      </trkpt>
      <trkpt lat="48.49718" lon="7.02977">
        <ele>477.91</ele>
        <time>2019-07-09T13:10:02Z</time>
      </trkpt>
      <trkpt lat="48.49717" lon="7.02982">
        <ele>478.87</ele>
        <time>2019-07-09T13:10:06Z</time>
      </trkpt>
      <trkpt lat="48.49718" lon="7.02977">
        <ele>479.84</ele>
        <time>2019-07-09T13:10:15Z</time>
      </trkpt>
      <trkpt lat="48.49716" lon="7.02963">
        <ele>479.35</ele>
        <time>2019-07-09T13:10:21Z</time>
      </trkpt>
      <trkpt lat="48.49716" lon="7.0296">
        <ele>479.35</ele>
        <time>2019-07-09T13:10:22Z</time>
      </trkpt>
      <trkpt lat="48.49716" lon="7.02957">
        <ele>478.87</ele>
        <time>2019-07-09T13:10:23Z</time>
      </trkpt>
      <trkpt lat="48.49716" lon="7.02954">
        <ele>478.39</ele>
        <time>2019-07-09T13:10:24Z</time>
      </trkpt>
      <trkpt lat="48.49715" lon="7.02951">
        <ele>477.91</ele>
        <time>2019-07-09T13:10:25Z</time>
      </trkpt>
      <trkpt lat="48.49715" lon="7.02923">
        <ele>473.59</ele>
        <time>2019-07-09T13:10:39Z</time>
      </trkpt>
      <trkpt lat="48.49717" lon="7.02912">
        <ele>474.07</ele>
        <time>2019-07-09T13:10:49Z</time>
      </trkpt>
      <trkpt lat="48.49719" lon="7.02898">
        <ele>472.63</ele>
        <time>2019-07-09T13:11:00Z</time>
      </trkpt>
      <trkpt lat="48.49721" lon="7.02889">
        <ele>471.66</ele>
        <time>2019-07-09T13:11:05Z</time>
      </trkpt>
      <trkpt lat="48.49735" lon="7.02858">
        <ele>468.3</ele>
        <time>2019-07-09T13:11:18Z</time>
      </trkpt>
      <trkpt lat="48.49751" lon="7.02826">
        <ele>471.18</ele>
        <time>2019-07-09T13:11:29Z</time>
      </trkpt>
      <trkpt lat="48.49754" lon="7.02817">
        <ele>472.63</ele>
        <time>2019-07-09T13:11:40Z</time>
      </trkpt>
      <trkpt lat="48.49756" lon="7.02815">
        <ele>472.63</ele>
        <time>2019-07-09T13:11:45Z</time>
      </trkpt>
      <trkpt lat="48.49757" lon="7.02809">
        <ele>473.59</ele>
        <time>2019-07-09T13:11:50Z</time>
      </trkpt>
      <trkpt lat="48.49755" lon="7.02808">
        <ele>473.59</ele>
        <time>2019-07-09T13:11:54Z</time>
      </trkpt>
      <trkpt lat="48.49752" lon="7.02809">
        <ele>473.11</ele>
        <time>2019-07-09T13:11:56Z</time>
      </trkpt>
      <trkpt lat="48.4975" lon="7.02812">
        <ele>472.63</ele>
        <time>2019-07-09T13:11:57Z</time>
      </trkpt>
      <trkpt lat="48.49749" lon="7.02814">
        <ele>472.14</ele>
        <time>2019-07-09T13:11:58Z</time>
      </trkpt>
      <trkpt lat="48.49748" lon="7.02815">
        <ele>471.66</ele>
        <time>2019-07-09T13:11:59Z</time>
      </trkpt>
      <trkpt lat="48.49746" lon="7.02816">
        <ele>470.7</ele>
        <time>2019-07-09T13:12:00Z</time>
      </trkpt>
      <trkpt lat="48.49743" lon="7.02818">
        <ele>468.78</ele>
        <time>2019-07-09T13:12:03Z</time>
      </trkpt>
      <trkpt lat="48.49742" lon="7.02819">
        <ele>468.3</ele>
        <time>2019-07-09T13:12:04Z</time>
      </trkpt>
      <trkpt lat="48.4974" lon="7.0282">
        <ele>467.82</ele>
        <time>2019-07-09T13:12:05Z</time>
      </trkpt>
      <trkpt lat="48.49724" lon="7.02835">
        <ele>463.01</ele>
        <time>2019-07-09T13:12:16Z</time>
      </trkpt>
      <trkpt lat="48.49698" lon="7.0286">
        <ele>457.24</ele>
        <time>2019-07-09T13:12:26Z</time>
      </trkpt>
      <trkpt lat="48.49689" lon="7.02869">
        <ele>454.36</ele>
        <time>2019-07-09T13:12:30Z</time>
      </trkpt>
      <trkpt lat="48.49688" lon="7.02871">
        <ele>453.88</ele>
        <time>2019-07-09T13:12:31Z</time>
      </trkpt>
      <trkpt lat="48.49687" lon="7.02873">
        <ele>453.88</ele>
        <time>2019-07-09T13:12:32Z</time>
      </trkpt>
      <trkpt lat="48.49686" lon="7.02876">
        <ele>452.92</ele>
        <time>2019-07-09T13:12:33Z</time>
      </trkpt>
      <trkpt lat="48.49685" lon="7.0288">
        <ele>452.44</ele>
        <time>2019-07-09T13:12:34Z</time>
      </trkpt>
      <trkpt lat="48.49684" lon="7.02884">
        <ele>452.44</ele>
        <time>2019-07-09T13:12:35Z</time>
      </trkpt>
      <trkpt lat="48.49682" lon="7.02887">
        <ele>451.96</ele>
        <time>2019-07-09T13:12:36Z</time>
      </trkpt>
      <trkpt lat="48.49667" lon="7.02945">
        <ele>449.55</ele>
        <time>2019-07-09T13:12:46Z</time>
      </trkpt>
      <trkpt lat="48.49665" lon="7.02958">
        <ele>449.55</ele>
        <time>2019-07-09T13:12:48Z</time>
      </trkpt>
      <trkpt lat="48.49664" lon="7.02965">
        <ele>449.55</ele>
        <time>2019-07-09T13:12:49Z</time>
      </trkpt>
      <trkpt lat="48.49659" lon="7.02988">
        <ele>449.07</ele>
        <time>2019-07-09T13:12:52Z</time>
      </trkpt>
      <trkpt lat="48.49658" lon="7.02995">
        <ele>448.59</ele>
        <time>2019-07-09T13:12:53Z</time>
      </trkpt>
      <trkpt lat="48.49656" lon="7.03003">
        <ele>448.11</ele>
        <time>2019-07-09T13:12:54Z</time>
      </trkpt>
      <trkpt lat="48.49656" lon="7.03011">
        <ele>448.11</ele>
        <time>2019-07-09T13:12:55Z</time>
      </trkpt>
      <trkpt lat="48.49656" lon="7.03019">
        <ele>447.63</ele>
        <time>2019-07-09T13:12:56Z</time>
      </trkpt>
      <trkpt lat="48.49656" lon="7.03033">
        <ele>445.71</ele>
        <time>2019-07-09T13:12:58Z</time>
      </trkpt>
      <trkpt lat="48.49662" lon="7.03098">
        <ele>437.54</ele>
        <time>2019-07-09T13:13:06Z</time>
      </trkpt>
      <trkpt lat="48.49662" lon="7.03104">
        <ele>437.06</ele>
        <time>2019-07-09T13:13:07Z</time>
      </trkpt>
      <trkpt lat="48.49663" lon="7.03144">
        <ele>435.13</ele>
        <time>2019-07-09T13:13:14Z</time>
      </trkpt>
      <trkpt lat="48.49665" lon="7.03159">
        <ele>434.17</ele>
        <time>2019-07-09T13:13:16Z</time>
      </trkpt>
      <trkpt lat="48.49666" lon="7.03167">
        <ele>433.69</ele>
        <time>2019-07-09T13:13:17Z</time>
      </trkpt>
      <trkpt lat="48.49667" lon="7.03173">
        <ele>433.21</ele>
        <time>2019-07-09T13:13:18Z</time>
      </trkpt>
      <trkpt lat="48.4967" lon="7.03243">
        <ele>431.77</ele>
        <time>2019-07-09T13:13:30Z</time>
      </trkpt>
      <trkpt lat="48.49672" lon="7.03275">
        <ele>430.81</ele>
        <time>2019-07-09T13:13:40Z</time>
      </trkpt>
      <trkpt lat="48.49674" lon="7.03295">
        <ele>429.37</ele>
        <time>2019-07-09T13:14:01Z</time>
      </trkpt>
      <trkpt lat="48.49682" lon="7.03359">
        <ele>429.85</ele>
        <time>2019-07-09T13:14:14Z</time>
      </trkpt>
      <trkpt lat="48.49688" lon="7.03391">
        <ele>428.89</ele>
        <time>2019-07-09T13:14:20Z</time>
      </trkpt>
      <trkpt lat="48.4969" lon="7.03398">
        <ele>428.89</ele>
        <time>2019-07-09T13:14:21Z</time>
      </trkpt>
      <trkpt lat="48.49693" lon="7.03412">
        <ele>428.89</ele>
        <time>2019-07-09T13:14:23Z</time>
      </trkpt>
      <trkpt lat="48.49694" lon="7.03419">
        <ele>428.89</ele>
        <time>2019-07-09T13:14:24Z</time>
      </trkpt>
      <trkpt lat="48.49694" lon="7.03426">
        <ele>428.4</ele>
        <time>2019-07-09T13:14:25Z</time>
      </trkpt>
      <trkpt lat="48.49695" lon="7.03432">
        <ele>428.4</ele>
        <time>2019-07-09T13:14:26Z</time>
      </trkpt>
      <trkpt lat="48.49696" lon="7.03438">
        <ele>428.4</ele>
        <time>2019-07-09T13:14:27Z</time>
      </trkpt>
      <trkpt lat="48.49707" lon="7.03501">
        <ele>425.04</ele>
        <time>2019-07-09T13:14:38Z</time>
      </trkpt>
      <trkpt lat="48.49718" lon="7.0355">
        <ele>420.23</ele>
        <time>2019-07-09T13:14:48Z</time>
      </trkpt>
      <trkpt lat="48.49728" lon="7.03583">
        <ele>417.35</ele>
        <time>2019-07-09T13:14:54Z</time>
      </trkpt>
      <trkpt lat="48.4973" lon="7.0359">
        <ele>416.87</ele>
        <time>2019-07-09T13:14:55Z</time>
      </trkpt>
      <trkpt lat="48.49741" lon="7.03628">
        <ele>413.02</ele>
        <time>2019-07-09T13:15:00Z</time>
      </trkpt>
      <trkpt lat="48.49742" lon="7.03634">
        <ele>412.54</ele>
        <time>2019-07-09T13:15:01Z</time>
      </trkpt>
      <trkpt lat="48.49745" lon="7.03648">
        <ele>411.1</ele>
        <time>2019-07-09T13:15:03Z</time>
      </trkpt>
      <trkpt lat="48.49746" lon="7.03655">
        <ele>410.14</ele>
        <time>2019-07-09T13:15:04Z</time>
      </trkpt>
      <trkpt lat="48.49748" lon="7.03671">
        <ele>408.7</ele>
        <time>2019-07-09T13:15:06Z</time>
      </trkpt>
      <trkpt lat="48.4975" lon="7.03714">
        <ele>403.41</ele>
        <time>2019-07-09T13:15:13Z</time>
      </trkpt>
      <trkpt lat="48.49749" lon="7.03717">
        <ele>402.93</ele>
        <time>2019-07-09T13:15:14Z</time>
      </trkpt>
      <trkpt lat="48.49747" lon="7.03721">
        <ele>401.97</ele>
        <time>2019-07-09T13:15:15Z</time>
      </trkpt>
      <trkpt lat="48.49746" lon="7.03725">
        <ele>401.01</ele>
        <time>2019-07-09T13:15:16Z</time>
      </trkpt>
      <trkpt lat="48.49745" lon="7.03728">
        <ele>400.05</ele>
        <time>2019-07-09T13:15:17Z</time>
      </trkpt>
      <trkpt lat="48.49743" lon="7.03732">
        <ele>399.08</ele>
        <time>2019-07-09T13:15:18Z</time>
      </trkpt>
      <trkpt lat="48.49731" lon="7.03766">
        <ele>392.36</ele>
        <time>2019-07-09T13:15:28Z</time>
      </trkpt>
      <trkpt lat="48.49718" lon="7.03789">
        <ele>388.03</ele>
        <time>2019-07-09T13:15:38Z</time>
      </trkpt>
      <trkpt lat="48.49705" lon="7.03808">
        <ele>387.07</ele>
        <time>2019-07-09T13:15:43Z</time>
      </trkpt>
      <trkpt lat="48.49702" lon="7.03811">
        <ele>386.59</ele>
        <time>2019-07-09T13:15:44Z</time>
      </trkpt>
      <trkpt lat="48.49698" lon="7.03815">
        <ele>386.11</ele>
        <time>2019-07-09T13:15:45Z</time>
      </trkpt>
      <trkpt lat="48.4969" lon="7.03831">
        <ele>386.11</ele>
        <time>2019-07-09T13:15:53Z</time>
      </trkpt>
      <trkpt lat="48.4969" lon="7.03837">
        <ele>386.11</ele>
        <time>2019-07-09T13:16:28Z</time>
      </trkpt>
      <trkpt lat="48.49692" lon="7.03838">
        <ele>384.66</ele>
        <time>2019-07-09T13:17:02Z</time>
      </trkpt>
      <trkpt lat="48.49692" lon="7.03838">
        <ele>381.78</ele>
        <time>2019-07-09T13:17:33Z</time>
      </trkpt>
      <trkpt lat="48.49685" lon="7.03871">
        <ele>380.82</ele>
        <time>2019-07-09T13:17:43Z</time>
      </trkpt>
      <trkpt lat="48.49679" lon="7.03927">
        <ele>380.34</ele>
        <time>2019-07-09T13:17:56Z</time>
      </trkpt>
      <trkpt lat="48.49654" lon="7.0398">
        <ele>380.34</ele>
        <time>2019-07-09T13:18:09Z</time>
      </trkpt>
      <trkpt lat="48.49623" lon="7.04046">
        <ele>380.34</ele>
        <time>2019-07-09T13:18:24Z</time>
      </trkpt>
      <trkpt lat="48.49614" lon="7.04098">
        <ele>381.3</ele>
        <time>2019-07-09T13:18:34Z</time>
      </trkpt>
      <trkpt lat="48.49616" lon="7.04134">
        <ele>381.3</ele>
        <time>2019-07-09T13:18:41Z</time>
      </trkpt>
      <trkpt lat="48.49617" lon="7.0414">
        <ele>381.3</ele>
        <time>2019-07-09T13:18:42Z</time>
      </trkpt>
      <trkpt lat="48.4964" lon="7.04212">
        <ele>381.3</ele>
        <time>2019-07-09T13:18:56Z</time>
      </trkpt>
      <trkpt lat="48.49637" lon="7.04219">
        <ele>380.82</ele>
        <time>2019-07-09T13:18:58Z</time>
      </trkpt>
      <trkpt lat="48.49632" lon="7.04224">
        <ele>380.34</ele>
        <time>2019-07-09T13:18:59Z</time>
      </trkpt>
      <trkpt lat="48.49628" lon="7.04226">
        <ele>380.34</ele>
        <time>2019-07-09T13:19:00Z</time>
      </trkpt>
      <trkpt lat="48.49613" lon="7.0424">
        <ele>377.94</ele>
        <time>2019-07-09T13:19:04Z</time>
      </trkpt>
      <trkpt lat="48.49596" lon="7.04253">
        <ele>376.49</ele>
        <time>2019-07-09T13:19:07Z</time>
      </trkpt>
      <trkpt lat="48.49576" lon="7.04265">
        <ele>375.05</ele>
        <time>2019-07-09T13:19:10Z</time>
      </trkpt>
      <trkpt lat="48.4957" lon="7.04271">
        <ele>374.57</ele>
        <time>2019-07-09T13:19:11Z</time>
      </trkpt>
      <trkpt lat="48.49564" lon="7.04278">
        <ele>374.57</ele>
        <time>2019-07-09T13:19:12Z</time>
      </trkpt>
      <trkpt lat="48.49539" lon="7.04309">
        <ele>373.61</ele>
        <time>2019-07-09T13:19:17Z</time>
      </trkpt>
      <trkpt lat="48.49522" lon="7.04333">
        <ele>373.13</ele>
        <time>2019-07-09T13:19:21Z</time>
      </trkpt>
      <trkpt lat="48.49518" lon="7.04338">
        <ele>373.13</ele>
        <time>2019-07-09T13:19:22Z</time>
      </trkpt>
      <trkpt lat="48.49513" lon="7.04341">
        <ele>373.13</ele>
        <time>2019-07-09T13:19:23Z</time>
      </trkpt>
      <trkpt lat="48.49471" lon="7.0436">
        <ele>372.65</ele>
        <time>2019-07-09T13:19:32Z</time>
      </trkpt>
      <trkpt lat="48.49459" lon="7.04366">
        <ele>372.65</ele>
        <time>2019-07-09T13:19:35Z</time>
      </trkpt>
      <trkpt lat="48.49402" lon="7.04408">
        <ele>373.13</ele>
        <time>2019-07-09T13:19:51Z</time>
      </trkpt>
      <trkpt lat="48.49369" lon="7.0441">
        <ele>373.13</ele>
        <time>2019-07-09T13:20:00Z</time>
      </trkpt>
      <trkpt lat="48.49366" lon="7.04413">
        <ele>373.61</ele>
        <time>2019-07-09T13:20:01Z</time>
      </trkpt>
      <trkpt lat="48.49363" lon="7.04417">
        <ele>373.13</ele>
        <time>2019-07-09T13:20:02Z</time>
      </trkpt>
      <trkpt lat="48.49361" lon="7.04422">
        <ele>373.13</ele>
        <time>2019-07-09T13:20:03Z</time>
      </trkpt>
      <trkpt lat="48.49359" lon="7.04427">
        <ele>373.13</ele>
        <time>2019-07-09T13:20:04Z</time>
      </trkpt>
      <trkpt lat="48.49358" lon="7.04432">
        <ele>373.13</ele>
        <time>2019-07-09T13:20:05Z</time>
      </trkpt>
      <trkpt lat="48.49356" lon="7.04437">
        <ele>373.13</ele>
        <time>2019-07-09T13:20:06Z</time>
      </trkpt>
      <trkpt lat="48.49355" lon="7.04442">
        <ele>373.13</ele>
        <time>2019-07-09T13:20:07Z</time>
      </trkpt>
      <trkpt lat="48.49354" lon="7.04446">
        <ele>372.65</ele>
        <time>2019-07-09T13:20:08Z</time>
      </trkpt>
      <trkpt lat="48.49354" lon="7.0445">
        <ele>372.65</ele>
        <time>2019-07-09T13:20:09Z</time>
      </trkpt>
      <trkpt lat="48.49338" lon="7.04511">
        <ele>374.09</ele>
        <time>2019-07-09T13:20:23Z</time>
      </trkpt>
      <trkpt lat="48.49327" lon="7.04521">
        <ele>374.57</ele>
        <time>2019-07-09T13:20:29Z</time>
      </trkpt>
      <trkpt lat="48.49325" lon="7.0452">
        <ele>374.57</ele>
        <time>2019-07-09T13:20:30Z</time>
      </trkpt>
      <trkpt lat="48.49323" lon="7.04518">
        <ele>374.57</ele>
        <time>2019-07-09T13:20:31Z</time>
      </trkpt>
      <trkpt lat="48.49321" lon="7.04516">
        <ele>375.05</ele>
        <time>2019-07-09T13:20:32Z</time>
      </trkpt>
      <trkpt lat="48.49319" lon="7.04514">
        <ele>375.05</ele>
        <time>2019-07-09T13:20:33Z</time>
      </trkpt>
      <trkpt lat="48.49302" lon="7.04507">
        <ele>376.01</ele>
        <time>2019-07-09T13:20:40Z</time>
      </trkpt>
      <trkpt lat="48.493" lon="7.0451">
        <ele>376.01</ele>
        <time>2019-07-09T13:20:41Z</time>
      </trkpt>
      <trkpt lat="48.49299" lon="7.04513">
        <ele>376.01</ele>
        <time>2019-07-09T13:20:42Z</time>
      </trkpt>
      <trkpt lat="48.49297" lon="7.04517">
        <ele>376.01</ele>
        <time>2019-07-09T13:20:43Z</time>
      </trkpt>
      <trkpt lat="48.49295" lon="7.04521">
        <ele>376.01</ele>
        <time>2019-07-09T13:20:44Z</time>
      </trkpt>
      <trkpt lat="48.49268" lon="7.04562">
        <ele>377.45</ele>
        <time>2019-07-09T13:20:57Z</time>
      </trkpt>
      <trkpt lat="48.49248" lon="7.04591">
        <ele>380.34</ele>
        <time>2019-07-09T13:21:11Z</time>
      </trkpt>
      <trkpt lat="48.49233" lon="7.04619">
        <ele>382.26</ele>
        <time>2019-07-09T13:21:27Z</time>
      </trkpt>
      <trkpt lat="48.49224" lon="7.04645">
        <ele>383.7</ele>
        <time>2019-07-09T13:21:41Z</time>
      </trkpt>
      <trkpt lat="48.49211" lon="7.04662">
        <ele>385.15</ele>
        <time>2019-07-09T13:21:54Z</time>
      </trkpt>
      <trkpt lat="48.49209" lon="7.04663">
        <ele>385.15</ele>
        <time>2019-07-09T13:21:55Z</time>
      </trkpt>
      <trkpt lat="48.49207" lon="7.04663">
        <ele>384.66</ele>
        <time>2019-07-09T13:21:56Z</time>
      </trkpt>
      <trkpt lat="48.49206" lon="7.04663">
        <ele>384.66</ele>
        <time>2019-07-09T13:21:57Z</time>
      </trkpt>
      <trkpt lat="48.49204" lon="7.04664">
        <ele>384.66</ele>
        <time>2019-07-09T13:21:58Z</time>
      </trkpt>
      <trkpt lat="48.49203" lon="7.04665">
        <ele>384.66</ele>
        <time>2019-07-09T13:21:59Z</time>
      </trkpt>
      <trkpt lat="48.49197" lon="7.04666">
        <ele>384.18</ele>
        <time>2019-07-09T13:22:03Z</time>
      </trkpt>
      <trkpt lat="48.49195" lon="7.04666">
        <ele>383.7</ele>
        <time>2019-07-09T13:22:04Z</time>
      </trkpt>
      <trkpt lat="48.49194" lon="7.04667">
        <ele>384.18</ele>
        <time>2019-07-09T13:22:05Z</time>
      </trkpt>
      <trkpt lat="48.49186" lon="7.04669">
        <ele>384.66</ele>
        <time>2019-07-09T13:22:10Z</time>
      </trkpt>
      <trkpt lat="48.49184" lon="7.04669">
        <ele>384.66</ele>
        <time>2019-07-09T13:22:11Z</time>
      </trkpt>
      <trkpt lat="48.49161" lon="7.04669">
        <ele>387.07</ele>
        <time>2019-07-09T13:22:26Z</time>
      </trkpt>
      <trkpt lat="48.49135" lon="7.04665">
        <ele>389.95</ele>
        <time>2019-07-09T13:22:42Z</time>
      </trkpt>
      <trkpt lat="48.49115" lon="7.04668">
        <ele>391.87</ele>
        <time>2019-07-09T13:22:58Z</time>
      </trkpt>
      <trkpt lat="48.49103" lon="7.04679">
        <ele>393.32</ele>
        <time>2019-07-09T13:23:08Z</time>
      </trkpt>
      <trkpt lat="48.49102" lon="7.04679">
        <ele>393.32</ele>
        <time>2019-07-09T13:23:09Z</time>
      </trkpt>
      <trkpt lat="48.49079" lon="7.047">
        <ele>398.12</ele>
        <time>2019-07-09T13:23:27Z</time>
      </trkpt>
      <trkpt lat="48.49078" lon="7.04701">
        <ele>398.12</ele>
        <time>2019-07-09T13:23:28Z</time>
      </trkpt>
      <trkpt lat="48.49077" lon="7.04701">
        <ele>398.6</ele>
        <time>2019-07-09T13:23:29Z</time>
      </trkpt>
      <trkpt lat="48.49076" lon="7.04702">
        <ele>398.6</ele>
        <time>2019-07-09T13:23:30Z</time>
      </trkpt>
      <trkpt lat="48.49068" lon="7.04709">
        <ele>400.53</ele>
        <time>2019-07-09T13:23:39Z</time>
      </trkpt>
      <trkpt lat="48.49055" lon="7.04717">
        <ele>403.41</ele>
        <time>2019-07-09T13:23:50Z</time>
      </trkpt>
      <trkpt lat="48.49053" lon="7.04718">
        <ele>403.89</ele>
        <time>2019-07-09T13:23:51Z</time>
      </trkpt>
      <trkpt lat="48.49052" lon="7.04719">
        <ele>404.37</ele>
        <time>2019-07-09T13:23:52Z</time>
      </trkpt>
      <trkpt lat="48.4905" lon="7.0472">
        <ele>404.37</ele>
        <time>2019-07-09T13:23:53Z</time>
      </trkpt>
      <trkpt lat="48.49049" lon="7.04721">
        <ele>404.37</ele>
        <time>2019-07-09T13:23:54Z</time>
      </trkpt>
      <trkpt lat="48.49049" lon="7.04722">
        <ele>404.37</ele>
        <time>2019-07-09T13:23:55Z</time>
      </trkpt>
      <trkpt lat="48.49047" lon="7.04723">
        <ele>404.37</ele>
        <time>2019-07-09T13:23:56Z</time>
      </trkpt>
      <trkpt lat="48.49046" lon="7.04724">
        <ele>404.37</ele>
        <time>2019-07-09T13:23:57Z</time>
      </trkpt>
      <trkpt lat="48.49045" lon="7.04725">
        <ele>404.85</ele>
        <time>2019-07-09T13:23:58Z</time>
      </trkpt>
      <trkpt lat="48.49044" lon="7.04726">
        <ele>404.37</ele>
        <time>2019-07-09T13:23:59Z</time>
      </trkpt>
      <trkpt lat="48.49031" lon="7.04749">
        <ele>405.81</ele>
        <time>2019-07-09T13:24:13Z</time>
      </trkpt>
      <trkpt lat="48.4902" lon="7.04779">
        <ele>409.66</ele>
        <time>2019-07-09T13:24:28Z</time>
      </trkpt>
      <trkpt lat="48.49015" lon="7.04795">
        <ele>410.62</ele>
        <time>2019-07-09T13:24:35Z</time>
      </trkpt>
      <trkpt lat="48.49004" lon="7.04822">
        <ele>412.54</ele>
        <time>2019-07-09T13:24:47Z</time>
      </trkpt>
      <trkpt lat="48.48992" lon="7.04857">
        <ele>412.06</ele>
        <time>2019-07-09T13:25:01Z</time>
      </trkpt>
      <trkpt lat="48.48979" lon="7.049">
        <ele>413.02</ele>
        <time>2019-07-09T13:25:15Z</time>
      </trkpt>
      <trkpt lat="48.48971" lon="7.04937">
        <ele>415.43</ele>
        <time>2019-07-09T13:25:29Z</time>
      </trkpt>
      <trkpt lat="48.48969" lon="7.04942">
        <ele>415.43</ele>
        <time>2019-07-09T13:25:31Z</time>
      </trkpt>
      <trkpt lat="48.48955" lon="7.0496">
        <ele>419.75</ele>
        <time>2019-07-09T13:25:46Z</time>
      </trkpt>
      <trkpt lat="48.48942" lon="7.04976">
        <ele>421.19</ele>
        <time>2019-07-09T13:25:59Z</time>
      </trkpt>
      <trkpt lat="48.48927" lon="7.04998">
        <ele>423.6</ele>
        <time>2019-07-09T13:26:14Z</time>
      </trkpt>
      <trkpt lat="48.48926" lon="7.05">
        <ele>423.6</ele>
        <time>2019-07-09T13:26:15Z</time>
      </trkpt>
      <trkpt lat="48.48925" lon="7.05001">
        <ele>423.6</ele>
        <time>2019-07-09T13:26:16Z</time>
      </trkpt>
      <trkpt lat="48.48912" lon="7.05022">
        <ele>423.12</ele>
        <time>2019-07-09T13:26:30Z</time>
      </trkpt>
      <trkpt lat="48.48902" lon="7.05045">
        <ele>425.04</ele>
        <time>2019-07-09T13:26:43Z</time>
      </trkpt>
      <trkpt lat="48.48887" lon="7.05064">
        <ele>428.4</ele>
        <time>2019-07-09T13:26:57Z</time>
      </trkpt>
      <trkpt lat="48.48883" lon="7.05072">
        <ele>429.85</ele>
        <time>2019-07-09T13:27:02Z</time>
      </trkpt>
      <trkpt lat="48.48877" lon="7.05079">
        <ele>430.33</ele>
        <time>2019-07-09T13:27:08Z</time>
      </trkpt>
      <trkpt lat="48.4887" lon="7.05087">
        <ele>431.29</ele>
        <time>2019-07-09T13:27:17Z</time>
      </trkpt>
      <trkpt lat="48.48857" lon="7.05102">
        <ele>435.61</ele>
        <time>2019-07-09T13:27:31Z</time>
      </trkpt>
      <trkpt lat="48.4885" lon="7.05115">
        <ele>437.06</ele>
        <time>2019-07-09T13:27:45Z</time>
      </trkpt>
      <trkpt lat="48.48843" lon="7.05125">
        <ele>442.34</ele>
        <time>2019-07-09T13:28:01Z</time>
      </trkpt>
      <trkpt lat="48.48839" lon="7.05131">
        <ele>446.19</ele>
        <time>2019-07-09T13:28:16Z</time>
      </trkpt>
      <trkpt lat="48.4883" lon="7.05142">
        <ele>453.4</ele>
        <time>2019-07-09T13:28:32Z</time>
      </trkpt>
      <trkpt lat="48.48824" lon="7.05149">
        <ele>456.76</ele>
        <time>2019-07-09T13:28:47Z</time>
      </trkpt>
      <trkpt lat="48.48817" lon="7.05162">
        <ele>461.09</ele>
        <time>2019-07-09T13:29:00Z</time>
      </trkpt>
      <trkpt lat="48.48816" lon="7.0517">
        <ele>459.65</ele>
        <time>2019-07-09T13:29:10Z</time>
      </trkpt>
      <trkpt lat="48.48815" lon="7.05171">
        <ele>459.65</ele>
        <time>2019-07-09T13:29:11Z</time>
      </trkpt>
      <trkpt lat="48.48808" lon="7.05184">
        <ele>460.13</ele>
        <time>2019-07-09T13:29:19Z</time>
      </trkpt>
      <trkpt lat="48.48808" lon="7.05186">
        <ele>460.61</ele>
        <time>2019-07-09T13:29:20Z</time>
      </trkpt>
      <trkpt lat="48.48805" lon="7.05191">
        <ele>460.61</ele>
        <time>2019-07-09T13:29:23Z</time>
      </trkpt>
      <trkpt lat="48.48803" lon="7.05193">
        <ele>460.61</ele>
        <time>2019-07-09T13:29:24Z</time>
      </trkpt>
      <trkpt lat="48.48801" lon="7.05195">
        <ele>460.61</ele>
        <time>2019-07-09T13:29:25Z</time>
      </trkpt>
      <trkpt lat="48.488" lon="7.05197">
        <ele>460.61</ele>
        <time>2019-07-09T13:29:26Z</time>
      </trkpt>
      <trkpt lat="48.48784" lon="7.05206">
        <ele>462.53</ele>
        <time>2019-07-09T13:29:39Z</time>
      </trkpt>
      <trkpt lat="48.48781" lon="7.0521">
        <ele>462.53</ele>
        <time>2019-07-09T13:29:42Z</time>
      </trkpt>
      <trkpt lat="48.48781" lon="7.05212">
        <ele>462.53</ele>
        <time>2019-07-09T13:29:43Z</time>
      </trkpt>
      <trkpt lat="48.4878" lon="7.05214">
        <ele>463.01</ele>
        <time>2019-07-09T13:29:44Z</time>
      </trkpt>
      <trkpt lat="48.48778" lon="7.05229">
        <ele>464.45</ele>
        <time>2019-07-09T13:29:52Z</time>
      </trkpt>
      <trkpt lat="48.48777" lon="7.05231">
        <ele>464.45</ele>
        <time>2019-07-09T13:29:53Z</time>
      </trkpt>
      <trkpt lat="48.48776" lon="7.05232">
        <ele>464.45</ele>
        <time>2019-07-09T13:29:54Z</time>
      </trkpt>
      <trkpt lat="48.48771" lon="7.05239">
        <ele>465.42</ele>
        <time>2019-07-09T13:29:58Z</time>
      </trkpt>
      <trkpt lat="48.4877" lon="7.05241">
        <ele>465.42</ele>
        <time>2019-07-09T13:29:59Z</time>
      </trkpt>
      <trkpt lat="48.48762" lon="7.05253">
        <ele>467.82</ele>
        <time>2019-07-09T13:30:12Z</time>
      </trkpt>
      <trkpt lat="48.48764" lon="7.05248">
        <ele>468.78</ele>
        <time>2019-07-09T13:30:23Z</time>
      </trkpt>
      <trkpt lat="48.48765" lon="7.05245">
        <ele>468.78</ele>
        <time>2019-07-09T13:30:26Z</time>
      </trkpt>
      <trkpt lat="48.48765" lon="7.05243">
        <ele>468.78</ele>
        <time>2019-07-09T13:30:27Z</time>
      </trkpt>
      <trkpt lat="48.48766" lon="7.05241">
        <ele>468.78</ele>
        <time>2019-07-09T13:30:28Z</time>
      </trkpt>
      <trkpt lat="48.48767" lon="7.0524">
        <ele>468.78</ele>
        <time>2019-07-09T13:30:29Z</time>
      </trkpt>
      <trkpt lat="48.48767" lon="7.05238">
        <ele>469.26</ele>
        <time>2019-07-09T13:30:30Z</time>
      </trkpt>
      <trkpt lat="48.48767" lon="7.05236">
        <ele>469.26</ele>
        <time>2019-07-09T13:30:31Z</time>
      </trkpt>
      <trkpt lat="48.48767" lon="7.05233">
        <ele>469.74</ele>
        <time>2019-07-09T13:30:33Z</time>
      </trkpt>
      <trkpt lat="48.48767" lon="7.05231">
        <ele>470.22</ele>
        <time>2019-07-09T13:30:34Z</time>
      </trkpt>
      <trkpt lat="48.48762" lon="7.0523">
        <ele>472.63</ele>
        <time>2019-07-09T13:30:50Z</time>
      </trkpt>
      <trkpt lat="48.48761" lon="7.05217">
        <ele>474.55</ele>
        <time>2019-07-09T13:31:03Z</time>
      </trkpt>
      <trkpt lat="48.48763" lon="7.05208">
        <ele>474.55</ele>
        <time>2019-07-09T13:31:10Z</time>
      </trkpt>
      <trkpt lat="48.48763" lon="7.05193">
        <ele>474.55</ele>
        <time>2019-07-09T13:31:24Z</time>
      </trkpt>
      <trkpt lat="48.48763" lon="7.05182">
        <ele>474.55</ele>
        <time>2019-07-09T13:31:37Z</time>
      </trkpt>
      <trkpt lat="48.48768" lon="7.0516">
        <ele>473.59</ele>
        <time>2019-07-09T13:31:52Z</time>
      </trkpt>
      <trkpt lat="48.48768" lon="7.05152">
        <ele>474.55</ele>
        <time>2019-07-09T13:32:07Z</time>
      </trkpt>
      <trkpt lat="48.48765" lon="7.05142">
        <ele>474.07</ele>
        <time>2019-07-09T13:32:21Z</time>
      </trkpt>
      <trkpt lat="48.48759" lon="7.05125">
        <ele>475.51</ele>
        <time>2019-07-09T13:32:36Z</time>
      </trkpt>
      <trkpt lat="48.48754" lon="7.05114">
        <ele>479.35</ele>
        <time>2019-07-09T13:32:48Z</time>
      </trkpt>
      <trkpt lat="48.48753" lon="7.05107">
        <ele>480.8</ele>
        <time>2019-07-09T13:32:53Z</time>
      </trkpt>
      <trkpt lat="48.48754" lon="7.05105">
        <ele>481.28</ele>
        <time>2019-07-09T13:32:54Z</time>
      </trkpt>
      <trkpt lat="48.48748" lon="7.05075">
        <ele>487.53</ele>
        <time>2019-07-09T13:33:09Z</time>
      </trkpt>
      <trkpt lat="48.48736" lon="7.05055">
        <ele>488.01</ele>
        <time>2019-07-09T13:33:20Z</time>
      </trkpt>
      <trkpt lat="48.4873" lon="7.05046">
        <ele>489.45</ele>
        <time>2019-07-09T13:33:36Z</time>
      </trkpt>
      <trkpt lat="48.48725" lon="7.05039">
        <ele>488.01</ele>
        <time>2019-07-09T13:33:42Z</time>
      </trkpt>
      <trkpt lat="48.48723" lon="7.05037">
        <ele>488.01</ele>
        <time>2019-07-09T13:33:43Z</time>
      </trkpt>
      <trkpt lat="48.4872" lon="7.05034">
        <ele>488.49</ele>
        <time>2019-07-09T13:33:45Z</time>
      </trkpt>
      <trkpt lat="48.4871" lon="7.05017">
        <ele>491.85</ele>
        <time>2019-07-09T13:33:58Z</time>
      </trkpt>
      <trkpt lat="48.48703" lon="7.05005">
        <ele>493.77</ele>
        <time>2019-07-09T13:34:10Z</time>
      </trkpt>
      <trkpt lat="48.48692" lon="7.04991">
        <ele>494.74</ele>
        <time>2019-07-09T13:34:21Z</time>
      </trkpt>
      <trkpt lat="48.4869" lon="7.04987">
        <ele>497.14</ele>
        <time>2019-07-09T13:34:35Z</time>
      </trkpt>
      <trkpt lat="48.48685" lon="7.04981">
        <ele>500.5</ele>
        <time>2019-07-09T13:34:47Z</time>
      </trkpt>
      <trkpt lat="48.48676" lon="7.0497">
        <ele>502.91</ele>
        <time>2019-07-09T13:35:01Z</time>
      </trkpt>
      <trkpt lat="48.48669" lon="7.04959">
        <ele>507.71</ele>
        <time>2019-07-09T13:35:14Z</time>
      </trkpt>
      <trkpt lat="48.48669" lon="7.04957">
        <ele>507.71</ele>
        <time>2019-07-09T13:35:15Z</time>
      </trkpt>
      <trkpt lat="48.48666" lon="7.04948">
        <ele>509.64</ele>
        <time>2019-07-09T13:35:22Z</time>
      </trkpt>
      <trkpt lat="48.48665" lon="7.04946">
        <ele>510.12</ele>
        <time>2019-07-09T13:35:24Z</time>
      </trkpt>
      <trkpt lat="48.48658" lon="7.04934">
        <ele>508.67</ele>
        <time>2019-07-09T13:35:37Z</time>
      </trkpt>
      <trkpt lat="48.48649" lon="7.04922">
        <ele>507.23</ele>
        <time>2019-07-09T13:35:50Z</time>
      </trkpt>
      <trkpt lat="48.48641" lon="7.0491">
        <ele>508.67</ele>
        <time>2019-07-09T13:36:03Z</time>
      </trkpt>
      <trkpt lat="48.48632" lon="7.04897">
        <ele>510.6</ele>
        <time>2019-07-09T13:36:17Z</time>
      </trkpt>
      <trkpt lat="48.48612" lon="7.04878">
        <ele>508.19</ele>
        <time>2019-07-09T13:36:29Z</time>
      </trkpt>
      <trkpt lat="48.48602" lon="7.04875">
        <ele>506.27</ele>
        <time>2019-07-09T13:36:40Z</time>
      </trkpt>
      <trkpt lat="48.48595" lon="7.04871">
        <ele>506.27</ele>
        <time>2019-07-09T13:36:51Z</time>
      </trkpt>
      <trkpt lat="48.48594" lon="7.0487">
        <ele>506.27</ele>
        <time>2019-07-09T13:36:52Z</time>
      </trkpt>
      <trkpt lat="48.48585" lon="7.04859">
        <ele>506.27</ele>
        <time>2019-07-09T13:37:04Z</time>
      </trkpt>
      <trkpt lat="48.48574" lon="7.04853">
        <ele>508.67</ele>
        <time>2019-07-09T13:37:16Z</time>
      </trkpt>
      <trkpt lat="48.48562" lon="7.04841">
        <ele>512.04</ele>
        <time>2019-07-09T13:37:31Z</time>
      </trkpt>
      <trkpt lat="48.48551" lon="7.04835">
        <ele>513</ele>
        <time>2019-07-09T13:37:45Z</time>
      </trkpt>
      <trkpt lat="48.48542" lon="7.04832">
        <ele>512.04</ele>
        <time>2019-07-09T13:37:58Z</time>
      </trkpt>
      <trkpt lat="48.48526" lon="7.04829">
        <ele>511.08</ele>
        <time>2019-07-09T13:38:13Z</time>
      </trkpt>
      <trkpt lat="48.4851" lon="7.04821">
        <ele>513.48</ele>
        <time>2019-07-09T13:38:28Z</time>
      </trkpt>
      <trkpt lat="48.485" lon="7.04816">
        <ele>514.92</ele>
        <time>2019-07-09T13:38:37Z</time>
      </trkpt>
      <trkpt lat="48.48497" lon="7.04812">
        <ele>515.88</ele>
        <time>2019-07-09T13:38:41Z</time>
      </trkpt>
      <trkpt lat="48.48483" lon="7.04812">
        <ele>516.85</ele>
        <time>2019-07-09T13:38:53Z</time>
      </trkpt>
      <trkpt lat="48.48474" lon="7.04811">
        <ele>518.29</ele>
        <time>2019-07-09T13:39:06Z</time>
      </trkpt>
      <trkpt lat="48.48465" lon="7.04812">
        <ele>519.25</ele>
        <time>2019-07-09T13:39:20Z</time>
      </trkpt>
      <trkpt lat="48.48448" lon="7.04807">
        <ele>521.17</ele>
        <time>2019-07-09T13:39:32Z</time>
      </trkpt>
      <trkpt lat="48.4844" lon="7.04805">
        <ele>522.13</ele>
        <time>2019-07-09T13:39:38Z</time>
      </trkpt>
      <trkpt lat="48.48438" lon="7.04805">
        <ele>522.13</ele>
        <time>2019-07-09T13:39:39Z</time>
      </trkpt>
      <trkpt lat="48.48437" lon="7.04805">
        <ele>522.61</ele>
        <time>2019-07-09T13:39:40Z</time>
      </trkpt>
      <trkpt lat="48.48435" lon="7.04805">
        <ele>522.61</ele>
        <time>2019-07-09T13:39:41Z</time>
      </trkpt>
      <trkpt lat="48.48434" lon="7.04805">
        <ele>522.61</ele>
        <time>2019-07-09T13:39:42Z</time>
      </trkpt>
      <trkpt lat="48.48418" lon="7.04803">
        <ele>525.02</ele>
        <time>2019-07-09T13:39:57Z</time>
      </trkpt>
      <trkpt lat="48.48413" lon="7.04804">
        <ele>525.5</ele>
        <time>2019-07-09T13:40:01Z</time>
      </trkpt>
      <trkpt lat="48.48412" lon="7.04805">
        <ele>525.5</ele>
        <time>2019-07-09T13:40:02Z</time>
      </trkpt>
      <trkpt lat="48.48411" lon="7.04806">
        <ele>525.5</ele>
        <time>2019-07-09T13:40:03Z</time>
      </trkpt>
      <trkpt lat="48.48401" lon="7.04808">
        <ele>525.5</ele>
        <time>2019-07-09T13:40:14Z</time>
      </trkpt>
      <trkpt lat="48.48392" lon="7.04806">
        <ele>527.42</ele>
        <time>2019-07-09T13:40:26Z</time>
      </trkpt>
      <trkpt lat="48.48382" lon="7.04805">
        <ele>529.82</ele>
        <time>2019-07-09T13:40:37Z</time>
      </trkpt>
      <trkpt lat="48.4837" lon="7.04805">
        <ele>530.79</ele>
        <time>2019-07-09T13:40:50Z</time>
      </trkpt>
      <trkpt lat="48.48361" lon="7.04804">
        <ele>532.23</ele>
        <time>2019-07-09T13:40:59Z</time>
      </trkpt>
      <trkpt lat="48.48349" lon="7.04802">
        <ele>533.67</ele>
        <time>2019-07-09T13:41:13Z</time>
      </trkpt>
      <trkpt lat="48.48335" lon="7.04804">
        <ele>536.55</ele>
        <time>2019-07-09T13:41:28Z</time>
      </trkpt>
      <trkpt lat="48.48324" lon="7.04809">
        <ele>538.96</ele>
        <time>2019-07-09T13:41:40Z</time>
      </trkpt>
      <trkpt lat="48.48302" lon="7.04813">
        <ele>542.8</ele>
        <time>2019-07-09T13:41:57Z</time>
      </trkpt>
      <trkpt lat="48.48292" lon="7.04817">
        <ele>542.8</ele>
        <time>2019-07-09T13:42:08Z</time>
      </trkpt>
      <trkpt lat="48.48278" lon="7.04824">
        <ele>547.13</ele>
        <time>2019-07-09T13:42:21Z</time>
      </trkpt>
      <trkpt lat="48.48259" lon="7.04834">
        <ele>550.97</ele>
        <time>2019-07-09T13:42:35Z</time>
      </trkpt>
      <trkpt lat="48.48258" lon="7.04835">
        <ele>550.97</ele>
        <time>2019-07-09T13:42:36Z</time>
      </trkpt>
      <trkpt lat="48.48239" lon="7.04852">
        <ele>552.41</ele>
        <time>2019-07-09T13:42:48Z</time>
      </trkpt>
      <trkpt lat="48.48235" lon="7.04853">
        <ele>552.9</ele>
        <time>2019-07-09T13:42:50Z</time>
      </trkpt>
      <trkpt lat="48.48233" lon="7.04853">
        <ele>552.41</ele>
        <time>2019-07-09T13:42:51Z</time>
      </trkpt>
      <trkpt lat="48.48231" lon="7.04854">
        <ele>552.41</ele>
        <time>2019-07-09T13:42:52Z</time>
      </trkpt>
      <trkpt lat="48.4823" lon="7.04854">
        <ele>552.41</ele>
        <time>2019-07-09T13:42:53Z</time>
      </trkpt>
      <trkpt lat="48.48228" lon="7.04854">
        <ele>552.41</ele>
        <time>2019-07-09T13:42:54Z</time>
      </trkpt>
      <trkpt lat="48.48226" lon="7.04854">
        <ele>551.93</ele>
        <time>2019-07-09T13:42:55Z</time>
      </trkpt>
      <trkpt lat="48.48225" lon="7.04854">
        <ele>551.93</ele>
        <time>2019-07-09T13:42:56Z</time>
      </trkpt>
      <trkpt lat="48.48216" lon="7.04856">
        <ele>552.41</ele>
        <time>2019-07-09T13:43:09Z</time>
      </trkpt>
      <trkpt lat="48.48209" lon="7.04862">
        <ele>551.93</ele>
        <time>2019-07-09T13:43:22Z</time>
      </trkpt>
      <trkpt lat="48.48193" lon="7.04874">
        <ele>552.9</ele>
        <time>2019-07-09T13:43:35Z</time>
      </trkpt>
      <trkpt lat="48.48188" lon="7.04879">
        <ele>553.86</ele>
        <time>2019-07-09T13:43:39Z</time>
      </trkpt>
      <trkpt lat="48.48174" lon="7.0489">
        <ele>558.18</ele>
        <time>2019-07-09T13:43:51Z</time>
      </trkpt>
      <trkpt lat="48.4817" lon="7.04893">
        <ele>558.18</ele>
        <time>2019-07-09T13:43:55Z</time>
      </trkpt>
      <trkpt lat="48.48169" lon="7.04894">
        <ele>558.66</ele>
        <time>2019-07-09T13:43:56Z</time>
      </trkpt>
      <trkpt lat="48.48155" lon="7.04903">
        <ele>560.11</ele>
        <time>2019-07-09T13:44:08Z</time>
      </trkpt>
      <trkpt lat="48.48147" lon="7.04908">
        <ele>561.07</ele>
        <time>2019-07-09T13:44:21Z</time>
      </trkpt>
      <trkpt lat="48.48133" lon="7.04918">
        <ele>562.51</ele>
        <time>2019-07-09T13:44:34Z</time>
      </trkpt>
      <trkpt lat="48.48125" lon="7.04927">
        <ele>562.03</ele>
        <time>2019-07-09T13:44:42Z</time>
      </trkpt>
      <trkpt lat="48.48111" lon="7.0494">
        <ele>564.91</ele>
        <time>2019-07-09T13:44:55Z</time>
      </trkpt>
      <trkpt lat="48.48096" lon="7.04956">
        <ele>570.2</ele>
        <time>2019-07-09T13:45:08Z</time>
      </trkpt>
      <trkpt lat="48.48085" lon="7.04969">
        <ele>571.16</ele>
        <time>2019-07-09T13:45:17Z</time>
      </trkpt>
      <trkpt lat="48.48082" lon="7.04973">
        <ele>571.64</ele>
        <time>2019-07-09T13:45:21Z</time>
      </trkpt>
      <trkpt lat="48.48081" lon="7.04975">
        <ele>571.64</ele>
        <time>2019-07-09T13:45:22Z</time>
      </trkpt>
      <trkpt lat="48.48077" lon="7.04982">
        <ele>573.56</ele>
        <time>2019-07-09T13:45:27Z</time>
      </trkpt>
      <trkpt lat="48.48066" lon="7.04997">
        <ele>575.01</ele>
        <time>2019-07-09T13:45:38Z</time>
      </trkpt>
      <trkpt lat="48.48065" lon="7.04998">
        <ele>575.01</ele>
        <time>2019-07-09T13:45:39Z</time>
      </trkpt>
      <trkpt lat="48.48056" lon="7.05016">
        <ele>578.85</ele>
        <time>2019-07-09T13:45:50Z</time>
      </trkpt>
      <trkpt lat="48.4805" lon="7.0503">
        <ele>582.22</ele>
        <time>2019-07-09T13:45:59Z</time>
      </trkpt>
      <trkpt lat="48.48047" lon="7.05033">
        <ele>582.7</ele>
        <time>2019-07-09T13:46:01Z</time>
      </trkpt>
      <trkpt lat="48.48046" lon="7.05033">
        <ele>583.18</ele>
        <time>2019-07-09T13:46:02Z</time>
      </trkpt>
      <trkpt lat="48.48035" lon="7.05044">
        <ele>587.5</ele>
        <time>2019-07-09T13:46:12Z</time>
      </trkpt>
      <trkpt lat="48.48031" lon="7.05052">
        <ele>589.43</ele>
        <time>2019-07-09T13:46:17Z</time>
      </trkpt>
      <trkpt lat="48.48028" lon="7.05057">
        <ele>591.35</ele>
        <time>2019-07-09T13:46:20Z</time>
      </trkpt>
      <trkpt lat="48.48027" lon="7.05058">
        <ele>591.83</ele>
        <time>2019-07-09T13:46:21Z</time>
      </trkpt>
      <trkpt lat="48.48025" lon="7.0506">
        <ele>592.31</ele>
        <time>2019-07-09T13:46:22Z</time>
      </trkpt>
      <trkpt lat="48.48024" lon="7.05062">
        <ele>593.27</ele>
        <time>2019-07-09T13:46:23Z</time>
      </trkpt>
      <trkpt lat="48.48023" lon="7.05063">
        <ele>593.75</ele>
        <time>2019-07-09T13:46:24Z</time>
      </trkpt>
      <trkpt lat="48.48019" lon="7.05065">
        <ele>594.71</ele>
        <time>2019-07-09T13:46:27Z</time>
      </trkpt>
      <trkpt lat="48.48012" lon="7.0507">
        <ele>595.67</ele>
        <time>2019-07-09T13:46:32Z</time>
      </trkpt>
      <trkpt lat="48.48011" lon="7.05071">
        <ele>595.67</ele>
        <time>2019-07-09T13:46:33Z</time>
      </trkpt>
      <trkpt lat="48.4801" lon="7.05072">
        <ele>596.15</ele>
        <time>2019-07-09T13:46:34Z</time>
      </trkpt>
      <trkpt lat="48.48009" lon="7.05073">
        <ele>596.15</ele>
        <time>2019-07-09T13:46:35Z</time>
      </trkpt>
      <trkpt lat="48.48007" lon="7.05074">
        <ele>596.15</ele>
        <time>2019-07-09T13:46:36Z</time>
      </trkpt>
      <trkpt lat="48.47996" lon="7.05085">
        <ele>600.48</ele>
        <time>2019-07-09T13:46:48Z</time>
      </trkpt>
      <trkpt lat="48.47979" lon="7.05096">
        <ele>600.96</ele>
        <time>2019-07-09T13:47:00Z</time>
      </trkpt>
      <trkpt lat="48.47977" lon="7.05098">
        <ele>600.96</ele>
        <time>2019-07-09T13:47:02Z</time>
      </trkpt>
      <trkpt lat="48.47975" lon="7.05099">
        <ele>600.96</ele>
        <time>2019-07-09T13:47:03Z</time>
      </trkpt>
      <trkpt lat="48.47974" lon="7.051">
        <ele>601.44</ele>
        <time>2019-07-09T13:47:04Z</time>
      </trkpt>
      <trkpt lat="48.47972" lon="7.05104">
        <ele>601.44</ele>
        <time>2019-07-09T13:47:07Z</time>
      </trkpt>
      <trkpt lat="48.4796" lon="7.05117">
        <ele>603.85</ele>
        <time>2019-07-09T13:47:18Z</time>
      </trkpt>
      <trkpt lat="48.47959" lon="7.05118">
        <ele>603.36</ele>
        <time>2019-07-09T13:47:19Z</time>
      </trkpt>
      <trkpt lat="48.47944" lon="7.05138">
        <ele>603.36</ele>
        <time>2019-07-09T13:47:32Z</time>
      </trkpt>
      <trkpt lat="48.47939" lon="7.05145">
        <ele>602.88</ele>
        <time>2019-07-09T13:47:37Z</time>
      </trkpt>
      <trkpt lat="48.47937" lon="7.05146">
        <ele>602.88</ele>
        <time>2019-07-09T13:47:38Z</time>
      </trkpt>
      <trkpt lat="48.47936" lon="7.05147">
        <ele>602.88</ele>
        <time>2019-07-09T13:47:39Z</time>
      </trkpt>
      <trkpt lat="48.47934" lon="7.05154">
        <ele>602.4</ele>
        <time>2019-07-09T13:47:43Z</time>
      </trkpt>
      <trkpt lat="48.47921" lon="7.05172">
        <ele>603.36</ele>
        <time>2019-07-09T13:47:57Z</time>
      </trkpt>
      <trkpt lat="48.4791" lon="7.05189">
        <ele>605.77</ele>
        <time>2019-07-09T13:48:08Z</time>
      </trkpt>
      <trkpt lat="48.47909" lon="7.05191">
        <ele>605.77</ele>
        <time>2019-07-09T13:48:09Z</time>
      </trkpt>
      <trkpt lat="48.47904" lon="7.05198">
        <ele>607.69</ele>
        <time>2019-07-09T13:48:14Z</time>
      </trkpt>
      <trkpt lat="48.47894" lon="7.05218">
        <ele>608.17</ele>
        <time>2019-07-09T13:48:26Z</time>
      </trkpt>
      <trkpt lat="48.47893" lon="7.0522">
        <ele>608.17</ele>
        <time>2019-07-09T13:48:27Z</time>
      </trkpt>
      <trkpt lat="48.47892" lon="7.05222">
        <ele>608.17</ele>
        <time>2019-07-09T13:48:28Z</time>
      </trkpt>
      <trkpt lat="48.47891" lon="7.05223">
        <ele>608.17</ele>
        <time>2019-07-09T13:48:29Z</time>
      </trkpt>
      <trkpt lat="48.47886" lon="7.05234">
        <ele>609.61</ele>
        <time>2019-07-09T13:48:37Z</time>
      </trkpt>
      <trkpt lat="48.47885" lon="7.05235">
        <ele>610.09</ele>
        <time>2019-07-09T13:48:38Z</time>
      </trkpt>
      <trkpt lat="48.47884" lon="7.05237">
        <ele>610.09</ele>
        <time>2019-07-09T13:48:39Z</time>
      </trkpt>
      <trkpt lat="48.47883" lon="7.05238">
        <ele>610.57</ele>
        <time>2019-07-09T13:48:40Z</time>
      </trkpt>
      <trkpt lat="48.47878" lon="7.05252">
        <ele>613.46</ele>
        <time>2019-07-09T13:48:53Z</time>
      </trkpt>
      <trkpt lat="48.47877" lon="7.0526">
        <ele>612.02</ele>
        <time>2019-07-09T13:49:12Z</time>
      </trkpt>
      <trkpt lat="48.47871" lon="7.0527">
        <ele>612.02</ele>
        <time>2019-07-09T13:49:25Z</time>
      </trkpt>
      <trkpt lat="48.47864" lon="7.05277">
        <ele>615.38</ele>
        <time>2019-07-09T13:49:37Z</time>
      </trkpt>
      <trkpt lat="48.47862" lon="7.05288">
        <ele>613.94</ele>
        <time>2019-07-09T13:49:50Z</time>
      </trkpt>
      <trkpt lat="48.47857" lon="7.053">
        <ele>616.34</ele>
        <time>2019-07-09T13:50:06Z</time>
      </trkpt>
      <trkpt lat="48.47853" lon="7.05306">
        <ele>618.75</ele>
        <time>2019-07-09T13:50:20Z</time>
      </trkpt>
      <trkpt lat="48.47849" lon="7.05316">
        <ele>622.59</ele>
        <time>2019-07-09T13:50:35Z</time>
      </trkpt>
      <trkpt lat="48.47846" lon="7.05324">
        <ele>623.07</ele>
        <time>2019-07-09T13:50:50Z</time>
      </trkpt>
      <trkpt lat="48.47844" lon="7.05326">
        <ele>622.11</ele>
        <time>2019-07-09T13:50:52Z</time>
      </trkpt>
      <trkpt lat="48.47841" lon="7.05335">
        <ele>620.67</ele>
        <time>2019-07-09T13:50:58Z</time>
      </trkpt>
      <trkpt lat="48.47837" lon="7.05345">
        <ele>620.67</ele>
        <time>2019-07-09T13:51:09Z</time>
      </trkpt>
      <trkpt lat="48.47832" lon="7.05361">
        <ele>622.11</ele>
        <time>2019-07-09T13:51:23Z</time>
      </trkpt>
      <trkpt lat="48.47826" lon="7.0538">
        <ele>624.51</ele>
        <time>2019-07-09T13:51:38Z</time>
      </trkpt>
      <trkpt lat="48.47824" lon="7.05392">
        <ele>624.99</ele>
        <time>2019-07-09T13:51:51Z</time>
      </trkpt>
      <trkpt lat="48.4782" lon="7.0541">
        <ele>626.92</ele>
        <time>2019-07-09T13:52:07Z</time>
      </trkpt>
      <trkpt lat="48.47818" lon="7.05431">
        <ele>627.4</ele>
        <time>2019-07-09T13:52:22Z</time>
      </trkpt>
      <trkpt lat="48.47814" lon="7.05451">
        <ele>626.92</ele>
        <time>2019-07-09T13:52:37Z</time>
      </trkpt>
      <trkpt lat="48.47813" lon="7.05458">
        <ele>627.4</ele>
        <time>2019-07-09T13:52:42Z</time>
      </trkpt>
      <trkpt lat="48.47811" lon="7.05467">
        <ele>629.8</ele>
        <time>2019-07-09T13:52:54Z</time>
      </trkpt>
      <trkpt lat="48.4781" lon="7.05482">
        <ele>630.28</ele>
        <time>2019-07-09T13:53:06Z</time>
      </trkpt>
      <trkpt lat="48.47805" lon="7.05497">
        <ele>633.17</ele>
        <time>2019-07-09T13:53:19Z</time>
      </trkpt>
      <trkpt lat="48.47801" lon="7.05517">
        <ele>633.65</ele>
        <time>2019-07-09T13:53:34Z</time>
      </trkpt>
      <trkpt lat="48.478" lon="7.05521">
        <ele>633.65</ele>
        <time>2019-07-09T13:53:37Z</time>
      </trkpt>
      <trkpt lat="48.47797" lon="7.05535">
        <ele>633.65</ele>
        <time>2019-07-09T13:53:49Z</time>
      </trkpt>
      <trkpt lat="48.47793" lon="7.05545">
        <ele>635.57</ele>
        <time>2019-07-09T13:54:02Z</time>
      </trkpt>
      <trkpt lat="48.4779" lon="7.0556">
        <ele>637.97</ele>
        <time>2019-07-09T13:54:17Z</time>
      </trkpt>
      <trkpt lat="48.47792" lon="7.05575">
        <ele>640.86</ele>
        <time>2019-07-09T13:54:33Z</time>
      </trkpt>
      <trkpt lat="48.4779" lon="7.05588">
        <ele>640.38</ele>
        <time>2019-07-09T13:54:47Z</time>
      </trkpt>
      <trkpt lat="48.47784" lon="7.05606">
        <ele>643.74</ele>
        <time>2019-07-09T13:55:02Z</time>
      </trkpt>
      <trkpt lat="48.47784" lon="7.05609">
        <ele>643.74</ele>
        <time>2019-07-09T13:55:04Z</time>
      </trkpt>
      <trkpt lat="48.47781" lon="7.05622">
        <ele>644.7</ele>
        <time>2019-07-09T13:55:17Z</time>
      </trkpt>
      <trkpt lat="48.47773" lon="7.05638">
        <ele>644.22</ele>
        <time>2019-07-09T13:55:33Z</time>
      </trkpt>
      <trkpt lat="48.47762" lon="7.0565">
        <ele>644.7</ele>
        <time>2019-07-09T13:55:47Z</time>
      </trkpt>
      <trkpt lat="48.47759" lon="7.05653">
        <ele>645.18</ele>
        <time>2019-07-09T13:55:51Z</time>
      </trkpt>
      <trkpt lat="48.47752" lon="7.05661">
        <ele>646.14</ele>
        <time>2019-07-09T13:56:03Z</time>
      </trkpt>
      <trkpt lat="48.47744" lon="7.05674">
        <ele>646.14</ele>
        <time>2019-07-09T13:56:17Z</time>
      </trkpt>
      <trkpt lat="48.47742" lon="7.05678">
        <ele>646.14</ele>
        <time>2019-07-09T13:56:20Z</time>
      </trkpt>
      <trkpt lat="48.47739" lon="7.05694">
        <ele>645.18</ele>
        <time>2019-07-09T13:56:34Z</time>
      </trkpt>
      <trkpt lat="48.47735" lon="7.05703">
        <ele>646.14</ele>
        <time>2019-07-09T13:56:47Z</time>
      </trkpt>
      <trkpt lat="48.4773" lon="7.05714">
        <ele>645.66</ele>
        <time>2019-07-09T13:56:59Z</time>
      </trkpt>
      <trkpt lat="48.47727" lon="7.05717">
        <ele>647.1</ele>
        <time>2019-07-09T13:57:19Z</time>
      </trkpt>
      <trkpt lat="48.47721" lon="7.05729">
        <ele>647.59</ele>
        <time>2019-07-09T13:57:31Z</time>
      </trkpt>
      <trkpt lat="48.47715" lon="7.05743">
        <ele>647.1</ele>
        <time>2019-07-09T13:57:43Z</time>
      </trkpt>
      <trkpt lat="48.47714" lon="7.05747">
        <ele>647.1</ele>
        <time>2019-07-09T13:57:46Z</time>
      </trkpt>
      <trkpt lat="48.47712" lon="7.05759">
        <ele>647.1</ele>
        <time>2019-07-09T13:57:59Z</time>
      </trkpt>
      <trkpt lat="48.47707" lon="7.05773">
        <ele>646.62</ele>
        <time>2019-07-09T13:58:12Z</time>
      </trkpt>
      <trkpt lat="48.47701" lon="7.05785">
        <ele>648.55</ele>
        <time>2019-07-09T13:58:27Z</time>
      </trkpt>
      <trkpt lat="48.47696" lon="7.05798">
        <ele>650.47</ele>
        <time>2019-07-09T13:58:46Z</time>
      </trkpt>
      <trkpt lat="48.4769" lon="7.05815">
        <ele>652.87</ele>
        <time>2019-07-09T13:59:02Z</time>
      </trkpt>
      <trkpt lat="48.47685" lon="7.05827">
        <ele>654.8</ele>
        <time>2019-07-09T13:59:16Z</time>
      </trkpt>
      <trkpt lat="48.47682" lon="7.05835">
        <ele>654.8</ele>
        <time>2019-07-09T13:59:31Z</time>
      </trkpt>
      <trkpt lat="48.47677" lon="7.05853">
        <ele>656.24</ele>
        <time>2019-07-09T13:59:46Z</time>
      </trkpt>
      <trkpt lat="48.47673" lon="7.05867">
        <ele>658.64</ele>
        <time>2019-07-09T13:59:59Z</time>
      </trkpt>
      <trkpt lat="48.47668" lon="7.05888">
        <ele>660.08</ele>
        <time>2019-07-09T14:00:14Z</time>
      </trkpt>
      <trkpt lat="48.47664" lon="7.05902">
        <ele>663.45</ele>
        <time>2019-07-09T14:00:29Z</time>
      </trkpt>
      <trkpt lat="48.47664" lon="7.05904">
        <ele>662.97</ele>
        <time>2019-07-09T14:00:32Z</time>
      </trkpt>
      <trkpt lat="48.47663" lon="7.05916">
        <ele>663.45</ele>
        <time>2019-07-09T14:00:44Z</time>
      </trkpt>
      <trkpt lat="48.47661" lon="7.0593">
        <ele>664.89</ele>
        <time>2019-07-09T14:00:57Z</time>
      </trkpt>
      <trkpt lat="48.47661" lon="7.05941">
        <ele>665.85</ele>
        <time>2019-07-09T14:01:11Z</time>
      </trkpt>
      <trkpt lat="48.47658" lon="7.05953">
        <ele>668.25</ele>
        <time>2019-07-09T14:01:25Z</time>
      </trkpt>
      <trkpt lat="48.47654" lon="7.05963">
        <ele>669.22</ele>
        <time>2019-07-09T14:01:41Z</time>
      </trkpt>
      <trkpt lat="48.47651" lon="7.05977">
        <ele>671.14</ele>
        <time>2019-07-09T14:01:56Z</time>
      </trkpt>
      <trkpt lat="48.47651" lon="7.05983">
        <ele>670.66</ele>
        <time>2019-07-09T14:02:09Z</time>
      </trkpt>
      <trkpt lat="48.47649" lon="7.05998">
        <ele>672.1</ele>
        <time>2019-07-09T14:02:24Z</time>
      </trkpt>
      <trkpt lat="48.47644" lon="7.06011">
        <ele>676.42</ele>
        <time>2019-07-09T14:02:39Z</time>
      </trkpt>
      <trkpt lat="48.47641" lon="7.06023">
        <ele>677.39</ele>
        <time>2019-07-09T14:02:49Z</time>
      </trkpt>
      <trkpt lat="48.47634" lon="7.06043">
        <ele>678.35</ele>
        <time>2019-07-09T14:03:05Z</time>
      </trkpt>
      <trkpt lat="48.4763" lon="7.06058">
        <ele>679.31</ele>
        <time>2019-07-09T14:03:20Z</time>
      </trkpt>
      <trkpt lat="48.47627" lon="7.06068">
        <ele>682.19</ele>
        <time>2019-07-09T14:03:36Z</time>
      </trkpt>
      <trkpt lat="48.47631" lon="7.06063">
        <ele>683.15</ele>
        <time>2019-07-09T14:03:47Z</time>
      </trkpt>
      <trkpt lat="48.47643" lon="7.06051">
        <ele>685.08</ele>
        <time>2019-07-09T14:04:03Z</time>
      </trkpt>
      <trkpt lat="48.47649" lon="7.06046">
        <ele>684.12</ele>
        <time>2019-07-09T14:04:15Z</time>
      </trkpt>
      <trkpt lat="48.47652" lon="7.06039">
        <ele>684.6</ele>
        <time>2019-07-09T14:04:28Z</time>
      </trkpt>
      <trkpt lat="48.47658" lon="7.06031">
        <ele>685.08</ele>
        <time>2019-07-09T14:04:33Z</time>
      </trkpt>
      <trkpt lat="48.47666" lon="7.06023">
        <ele>684.12</ele>
        <time>2019-07-09T14:04:39Z</time>
      </trkpt>
      <trkpt lat="48.47675" lon="7.06008">
        <ele>684.6</ele>
        <time>2019-07-09T14:04:49Z</time>
      </trkpt>
      <trkpt lat="48.47682" lon="7.05994">
        <ele>684.12</ele>
        <time>2019-07-09T14:04:56Z</time>
      </trkpt>
      <trkpt lat="48.47696" lon="7.05959">
        <ele>686.04</ele>
        <time>2019-07-09T14:05:13Z</time>
      </trkpt>
      <trkpt lat="48.47697" lon="7.05955">
        <ele>686.04</ele>
        <time>2019-07-09T14:05:15Z</time>
      </trkpt>
      <trkpt lat="48.47708" lon="7.05932">
        <ele>686.04</ele>
        <time>2019-07-09T14:05:29Z</time>
      </trkpt>
      <trkpt lat="48.47716" lon="7.05914">
        <ele>686.52</ele>
        <time>2019-07-09T14:05:40Z</time>
      </trkpt>
      <trkpt lat="48.47727" lon="7.05892">
        <ele>687.96</ele>
        <time>2019-07-09T14:05:53Z</time>
      </trkpt>
      <trkpt lat="48.4773" lon="7.05883">
        <ele>689.88</ele>
        <time>2019-07-09T14:06:03Z</time>
      </trkpt>
      <trkpt lat="48.47735" lon="7.05872">
        <ele>692.29</ele>
        <time>2019-07-09T14:06:17Z</time>
      </trkpt>
      <trkpt lat="48.47739" lon="7.05868">
        <ele>692.29</ele>
        <time>2019-07-09T14:06:32Z</time>
      </trkpt>
      <trkpt lat="48.47742" lon="7.05862">
        <ele>693.73</ele>
        <time>2019-07-09T14:06:45Z</time>
      </trkpt>
      <trkpt lat="48.47744" lon="7.05857">
        <ele>694.21</ele>
        <time>2019-07-09T14:06:56Z</time>
      </trkpt>
      <trkpt lat="48.47748" lon="7.05855">
        <ele>697.57</ele>
        <time>2019-07-09T14:07:10Z</time>
      </trkpt>
      <trkpt lat="48.47747" lon="7.05863">
        <ele>699.02</ele>
        <time>2019-07-09T14:07:23Z</time>
      </trkpt>
      <trkpt lat="48.47751" lon="7.05859">
        <ele>697.57</ele>
        <time>2019-07-09T14:07:43Z</time>
      </trkpt>
      <trkpt lat="48.4776" lon="7.05839">
        <ele>694.69</ele>
        <time>2019-07-09T14:07:54Z</time>
      </trkpt>
      <trkpt lat="48.47766" lon="7.05826">
        <ele>690.84</ele>
        <time>2019-07-09T14:08:06Z</time>
      </trkpt>
      <trkpt lat="48.47765" lon="7.05825">
        <ele>687</ele>
        <time>2019-07-09T14:08:37Z</time>
      </trkpt>
      <trkpt lat="48.47764" lon="7.05827">
        <ele>687.96</ele>
        <time>2019-07-09T14:08:47Z</time>
      </trkpt>
      <trkpt lat="48.47752" lon="7.05851">
        <ele>688.44</ele>
        <time>2019-07-09T14:09:01Z</time>
      </trkpt>
      <trkpt lat="48.4775" lon="7.05861">
        <ele>689.4</ele>
        <time>2019-07-09T14:09:06Z</time>
      </trkpt>
      <trkpt lat="48.47738" lon="7.05889">
        <ele>693.73</ele>
        <time>2019-07-09T14:09:21Z</time>
      </trkpt>
      <trkpt lat="48.4773" lon="7.05919">
        <ele>697.09</ele>
        <time>2019-07-09T14:09:35Z</time>
      </trkpt>
      <trkpt lat="48.47727" lon="7.05937">
        <ele>698.53</ele>
        <time>2019-07-09T14:09:43Z</time>
      </trkpt>
      <trkpt lat="48.47723" lon="7.0597">
        <ele>699.02</ele>
        <time>2019-07-09T14:09:58Z</time>
      </trkpt>
      <trkpt lat="48.47718" lon="7.06007">
        <ele>701.42</ele>
        <time>2019-07-09T14:10:12Z</time>
      </trkpt>
      <trkpt lat="48.47711" lon="7.06042">
        <ele>702.86</ele>
        <time>2019-07-09T14:10:26Z</time>
      </trkpt>
      <trkpt lat="48.47694" lon="7.06078">
        <ele>705.75</ele>
        <time>2019-07-09T14:10:41Z</time>
      </trkpt>
      <trkpt lat="48.47676" lon="7.06112">
        <ele>710.55</ele>
        <time>2019-07-09T14:10:56Z</time>
      </trkpt>
      <trkpt lat="48.47658" lon="7.06144">
        <ele>712.47</ele>
        <time>2019-07-09T14:11:11Z</time>
      </trkpt>
      <trkpt lat="48.47636" lon="7.06178">
        <ele>714.4</ele>
        <time>2019-07-09T14:11:28Z</time>
      </trkpt>
      <trkpt lat="48.47617" lon="7.06201">
        <ele>715.84</ele>
        <time>2019-07-09T14:11:42Z</time>
      </trkpt>
      <trkpt lat="48.47597" lon="7.06227">
        <ele>716.8</ele>
        <time>2019-07-09T14:11:58Z</time>
      </trkpt>
      <trkpt lat="48.47575" lon="7.0625">
        <ele>719.2</ele>
        <time>2019-07-09T14:12:14Z</time>
      </trkpt>
      <trkpt lat="48.47551" lon="7.06274">
        <ele>721.61</ele>
        <time>2019-07-09T14:12:30Z</time>
      </trkpt>
      <trkpt lat="48.47549" lon="7.06276">
        <ele>721.61</ele>
        <time>2019-07-09T14:12:31Z</time>
      </trkpt>
      <trkpt lat="48.47548" lon="7.06277">
        <ele>722.09</ele>
        <time>2019-07-09T14:12:32Z</time>
      </trkpt>
      <trkpt lat="48.47523" lon="7.06299">
        <ele>723.53</ele>
        <time>2019-07-09T14:12:48Z</time>
      </trkpt>
      <trkpt lat="48.47499" lon="7.0632">
        <ele>725.45</ele>
        <time>2019-07-09T14:13:04Z</time>
      </trkpt>
      <trkpt lat="48.47474" lon="7.06342">
        <ele>724.97</ele>
        <time>2019-07-09T14:13:21Z</time>
      </trkpt>
      <trkpt lat="48.47452" lon="7.06361">
        <ele>725.93</ele>
        <time>2019-07-09T14:13:36Z</time>
      </trkpt>
      <trkpt lat="48.47432" lon="7.06374">
        <ele>727.86</ele>
        <time>2019-07-09T14:13:49Z</time>
      </trkpt>
      <trkpt lat="48.47409" lon="7.06388">
        <ele>732.66</ele>
        <time>2019-07-09T14:14:04Z</time>
      </trkpt>
      <trkpt lat="48.47388" lon="7.06401">
        <ele>735.55</ele>
        <time>2019-07-09T14:14:17Z</time>
      </trkpt>
      <trkpt lat="48.47365" lon="7.06411">
        <ele>738.91</ele>
        <time>2019-07-09T14:14:31Z</time>
      </trkpt>
      <trkpt lat="48.47343" lon="7.06424">
        <ele>738.43</ele>
        <time>2019-07-09T14:14:44Z</time>
      </trkpt>
      <trkpt lat="48.47323" lon="7.06437">
        <ele>738.91</ele>
        <time>2019-07-09T14:14:57Z</time>
      </trkpt>
      <trkpt lat="48.47303" lon="7.06448">
        <ele>740.83</ele>
        <time>2019-07-09T14:15:09Z</time>
      </trkpt>
      <trkpt lat="48.47298" lon="7.06451">
        <ele>740.83</ele>
        <time>2019-07-09T14:15:12Z</time>
      </trkpt>
      <trkpt lat="48.47296" lon="7.06452">
        <ele>741.31</ele>
        <time>2019-07-09T14:15:13Z</time>
      </trkpt>
      <trkpt lat="48.47295" lon="7.06453">
        <ele>740.83</ele>
        <time>2019-07-09T14:15:14Z</time>
      </trkpt>
      <trkpt lat="48.47294" lon="7.06454">
        <ele>741.31</ele>
        <time>2019-07-09T14:15:15Z</time>
      </trkpt>
      <trkpt lat="48.47292" lon="7.06455">
        <ele>741.31</ele>
        <time>2019-07-09T14:15:16Z</time>
      </trkpt>
      <trkpt lat="48.47291" lon="7.06456">
        <ele>741.79</ele>
        <time>2019-07-09T14:15:17Z</time>
      </trkpt>
      <trkpt lat="48.4727" lon="7.0647">
        <ele>742.76</ele>
        <time>2019-07-09T14:15:29Z</time>
      </trkpt>
      <trkpt lat="48.4725" lon="7.06496">
        <ele>744.2</ele>
        <time>2019-07-09T14:15:45Z</time>
      </trkpt>
      <trkpt lat="48.47233" lon="7.0652">
        <ele>744.2</ele>
        <time>2019-07-09T14:15:59Z</time>
      </trkpt>
      <trkpt lat="48.47231" lon="7.06524">
        <ele>744.68</ele>
        <time>2019-07-09T14:16:02Z</time>
      </trkpt>
      <trkpt lat="48.47225" lon="7.0653">
        <ele>745.16</ele>
        <time>2019-07-09T14:16:08Z</time>
      </trkpt>
      <trkpt lat="48.47224" lon="7.0653">
        <ele>745.64</ele>
        <time>2019-07-09T14:16:09Z</time>
      </trkpt>
      <trkpt lat="48.47222" lon="7.06531">
        <ele>745.64</ele>
        <time>2019-07-09T14:16:10Z</time>
      </trkpt>
      <trkpt lat="48.47221" lon="7.06532">
        <ele>745.64</ele>
        <time>2019-07-09T14:16:11Z</time>
      </trkpt>
      <trkpt lat="48.47221" lon="7.06535">
        <ele>749.49</ele>
        <time>2019-07-09T14:16:24Z</time>
      </trkpt>
      <trkpt lat="48.47222" lon="7.06537">
        <ele>752.37</ele>
        <time>2019-07-09T14:16:51Z</time>
      </trkpt>
      <trkpt lat="48.4721" lon="7.06529">
        <ele>756.21</ele>
        <time>2019-07-09T14:17:04Z</time>
      </trkpt>
      <trkpt lat="48.4721" lon="7.06527">
        <ele>756.69</ele>
        <time>2019-07-09T14:17:05Z</time>
      </trkpt>
      <trkpt lat="48.47205" lon="7.06514">
        <ele>757.66</ele>
        <time>2019-07-09T14:17:11Z</time>
      </trkpt>
      <trkpt lat="48.47193" lon="7.06477">
        <ele>763.9</ele>
        <time>2019-07-09T14:17:27Z</time>
      </trkpt>
      <trkpt lat="48.47185" lon="7.06435">
        <ele>764.87</ele>
        <time>2019-07-09T14:17:42Z</time>
      </trkpt>
      <trkpt lat="48.47181" lon="7.06386">
        <ele>764.87</ele>
        <time>2019-07-09T14:17:58Z</time>
      </trkpt>
      <trkpt lat="48.47181" lon="7.0634">
        <ele>761.98</ele>
        <time>2019-07-09T14:18:13Z</time>
      </trkpt>
      <trkpt lat="48.47181" lon="7.06331">
        <ele>761.98</ele>
        <time>2019-07-09T14:18:21Z</time>
      </trkpt>
      <trkpt lat="48.47181" lon="7.06329">
        <ele>761.98</ele>
        <time>2019-07-09T14:18:22Z</time>
      </trkpt>
      <trkpt lat="48.47181" lon="7.06327">
        <ele>761.98</ele>
        <time>2019-07-09T14:18:23Z</time>
      </trkpt>
      <trkpt lat="48.47181" lon="7.06325">
        <ele>761.98</ele>
        <time>2019-07-09T14:18:24Z</time>
      </trkpt>
      <trkpt lat="48.47181" lon="7.06322">
        <ele>761.98</ele>
        <time>2019-07-09T14:18:25Z</time>
      </trkpt>
      <trkpt lat="48.47181" lon="7.0632">
        <ele>761.98</ele>
        <time>2019-07-09T14:18:26Z</time>
      </trkpt>
      <trkpt lat="48.47181" lon="7.06317">
        <ele>761.98</ele>
        <time>2019-07-09T14:18:27Z</time>
      </trkpt>
      <trkpt lat="48.47181" lon="7.06314">
        <ele>761.98</ele>
        <time>2019-07-09T14:18:28Z</time>
      </trkpt>
      <trkpt lat="48.47182" lon="7.06311">
        <ele>761.98</ele>
        <time>2019-07-09T14:18:29Z</time>
      </trkpt>
      <trkpt lat="48.47182" lon="7.06309">
        <ele>762.46</ele>
        <time>2019-07-09T14:18:30Z</time>
      </trkpt>
      <trkpt lat="48.47183" lon="7.06306">
        <ele>762.94</ele>
        <time>2019-07-09T14:18:31Z</time>
      </trkpt>
      <trkpt lat="48.47184" lon="7.06304">
        <ele>763.42</ele>
        <time>2019-07-09T14:18:32Z</time>
      </trkpt>
      <trkpt lat="48.47185" lon="7.06301">
        <ele>763.9</ele>
        <time>2019-07-09T14:18:33Z</time>
      </trkpt>
      <trkpt lat="48.47186" lon="7.06298">
        <ele>764.39</ele>
        <time>2019-07-09T14:18:34Z</time>
      </trkpt>
      <trkpt lat="48.47187" lon="7.06296">
        <ele>764.87</ele>
        <time>2019-07-09T14:18:35Z</time>
      </trkpt>
      <trkpt lat="48.47188" lon="7.06294">
        <ele>765.35</ele>
        <time>2019-07-09T14:18:36Z</time>
      </trkpt>
      <trkpt lat="48.4719" lon="7.06292">
        <ele>765.35</ele>
        <time>2019-07-09T14:18:37Z</time>
      </trkpt>
      <trkpt lat="48.47191" lon="7.0629">
        <ele>765.83</ele>
        <time>2019-07-09T14:18:38Z</time>
      </trkpt>
      <trkpt lat="48.47193" lon="7.06289">
        <ele>766.31</ele>
        <time>2019-07-09T14:18:39Z</time>
      </trkpt>
      <trkpt lat="48.47195" lon="7.06288">
        <ele>766.79</ele>
        <time>2019-07-09T14:18:40Z</time>
      </trkpt>
      <trkpt lat="48.47196" lon="7.06287">
        <ele>767.27</ele>
        <time>2019-07-09T14:18:41Z</time>
      </trkpt>
      <trkpt lat="48.47222" lon="7.06272">
        <ele>774</ele>
        <time>2019-07-09T14:18:55Z</time>
      </trkpt>
      <trkpt lat="48.47227" lon="7.06269">
        <ele>774.48</ele>
        <time>2019-07-09T14:18:58Z</time>
      </trkpt>
      <trkpt lat="48.47228" lon="7.06267">
        <ele>774.48</ele>
        <time>2019-07-09T14:18:59Z</time>
      </trkpt>
      <trkpt lat="48.47229" lon="7.06266">
        <ele>774.48</ele>
        <time>2019-07-09T14:19:00Z</time>
      </trkpt>
      <trkpt lat="48.4723" lon="7.06264">
        <ele>774.48</ele>
        <time>2019-07-09T14:19:01Z</time>
      </trkpt>
      <trkpt lat="48.47232" lon="7.06263">
        <ele>774.48</ele>
        <time>2019-07-09T14:19:02Z</time>
      </trkpt>
      <trkpt lat="48.47233" lon="7.06261">
        <ele>774.48</ele>
        <time>2019-07-09T14:19:03Z</time>
      </trkpt>
      <trkpt lat="48.47235" lon="7.06259">
        <ele>774.48</ele>
        <time>2019-07-09T14:19:04Z</time>
      </trkpt>
      <trkpt lat="48.47236" lon="7.06257">
        <ele>774.48</ele>
        <time>2019-07-09T14:19:05Z</time>
      </trkpt>
      <trkpt lat="48.47237" lon="7.06254">
        <ele>774.48</ele>
        <time>2019-07-09T14:19:06Z</time>
      </trkpt>
      <trkpt lat="48.47239" lon="7.06252">
        <ele>774.48</ele>
        <time>2019-07-09T14:19:07Z</time>
      </trkpt>
      <trkpt lat="48.47246" lon="7.06223">
        <ele>773.04</ele>
        <time>2019-07-09T14:19:18Z</time>
      </trkpt>
      <trkpt lat="48.47246" lon="7.0622">
        <ele>772.08</ele>
        <time>2019-07-09T14:19:19Z</time>
      </trkpt>
      <trkpt lat="48.47248" lon="7.06175">
        <ele>769.19</ele>
        <time>2019-07-09T14:19:36Z</time>
      </trkpt>
      <trkpt lat="48.47243" lon="7.06134">
        <ele>770.15</ele>
        <time>2019-07-09T14:19:53Z</time>
      </trkpt>
      <trkpt lat="48.47234" lon="7.0609">
        <ele>775.92</ele>
        <time>2019-07-09T14:20:10Z</time>
      </trkpt>
      <trkpt lat="48.47219" lon="7.06047">
        <ele>783.61</ele>
        <time>2019-07-09T14:20:28Z</time>
      </trkpt>
      <trkpt lat="48.472" lon="7.06016">
        <ele>791.78</ele>
        <time>2019-07-09T14:20:45Z</time>
      </trkpt>
      <trkpt lat="48.4718" lon="7.05989">
        <ele>797.55</ele>
        <time>2019-07-09T14:21:01Z</time>
      </trkpt>
      <trkpt lat="48.47158" lon="7.05966">
        <ele>800.44</ele>
        <time>2019-07-09T14:21:15Z</time>
      </trkpt>
      <trkpt lat="48.47129" lon="7.05972">
        <ele>797.55</ele>
        <time>2019-07-09T14:21:28Z</time>
      </trkpt>
      <trkpt lat="48.47105" lon="7.06018">
        <ele>791.3</ele>
        <time>2019-07-09T14:21:40Z</time>
      </trkpt>
      <trkpt lat="48.47076" lon="7.06077">
        <ele>786.5</ele>
        <time>2019-07-09T14:21:53Z</time>
      </trkpt>
      <trkpt lat="48.47046" lon="7.06143">
        <ele>784.09</ele>
        <time>2019-07-09T14:22:05Z</time>
      </trkpt>
      <trkpt lat="48.47043" lon="7.06148">
        <ele>783.61</ele>
        <time>2019-07-09T14:22:06Z</time>
      </trkpt>
      <trkpt lat="48.47027" lon="7.06173">
        <ele>782.65</ele>
        <time>2019-07-09T14:22:11Z</time>
      </trkpt>
      <trkpt lat="48.47023" lon="7.06177">
        <ele>782.65</ele>
        <time>2019-07-09T14:22:12Z</time>
      </trkpt>
      <trkpt lat="48.4702" lon="7.06181">
        <ele>782.17</ele>
        <time>2019-07-09T14:22:13Z</time>
      </trkpt>
      <trkpt lat="48.47016" lon="7.06186">
        <ele>781.69</ele>
        <time>2019-07-09T14:22:14Z</time>
      </trkpt>
      <trkpt lat="48.47012" lon="7.0619">
        <ele>781.69</ele>
        <time>2019-07-09T14:22:15Z</time>
      </trkpt>
      <trkpt lat="48.46991" lon="7.06215">
        <ele>781.21</ele>
        <time>2019-07-09T14:22:21Z</time>
      </trkpt>
      <trkpt lat="48.46949" lon="7.06255">
        <ele>776.88</ele>
        <time>2019-07-09T14:22:33Z</time>
      </trkpt>
      <trkpt lat="48.46933" lon="7.06271">
        <ele>775.92</ele>
        <time>2019-07-09T14:22:37Z</time>
      </trkpt>
      <trkpt lat="48.46929" lon="7.06275">
        <ele>775.92</ele>
        <time>2019-07-09T14:22:38Z</time>
      </trkpt>
      <trkpt lat="48.46875" lon="7.06325">
        <ele>775.44</ele>
        <time>2019-07-09T14:22:53Z</time>
      </trkpt>
      <trkpt lat="48.46843" lon="7.06357">
        <ele>775.92</ele>
        <time>2019-07-09T14:23:03Z</time>
      </trkpt>
      <trkpt lat="48.46836" lon="7.06362">
        <ele>775.92</ele>
        <time>2019-07-09T14:23:05Z</time>
      </trkpt>
      <trkpt lat="48.46833" lon="7.06364">
        <ele>776.4</ele>
        <time>2019-07-09T14:23:06Z</time>
      </trkpt>
      <trkpt lat="48.4679" lon="7.06366">
        <ele>779.29</ele>
        <time>2019-07-09T14:23:19Z</time>
      </trkpt>
      <trkpt lat="48.4676" lon="7.06356">
        <ele>785.53</ele>
        <time>2019-07-09T14:23:31Z</time>
      </trkpt>
      <trkpt lat="48.46738" lon="7.06334">
        <ele>790.82</ele>
        <time>2019-07-09T14:23:44Z</time>
      </trkpt>
      <trkpt lat="48.4672" lon="7.06306">
        <ele>799.95</ele>
        <time>2019-07-09T14:23:56Z</time>
      </trkpt>
      <trkpt lat="48.46698" lon="7.06272">
        <ele>806.2</ele>
        <time>2019-07-09T14:24:09Z</time>
      </trkpt>
      <trkpt lat="48.46661" lon="7.06235">
        <ele>809.57</ele>
        <time>2019-07-09T14:24:24Z</time>
      </trkpt>
      <trkpt lat="48.46657" lon="7.06232">
        <ele>807.16</ele>
        <time>2019-07-09T14:24:36Z</time>
      </trkpt>
      <trkpt lat="48.46649" lon="7.06233">
        <ele>790.82</ele>
        <time>2019-07-09T14:25:07Z</time>
      </trkpt>
      <trkpt lat="48.46651" lon="7.06231">
        <ele>782.65</ele>
        <time>2019-07-09T14:25:38Z</time>
      </trkpt>
      <trkpt lat="48.46649" lon="7.0623">
        <ele>780.73</ele>
        <time>2019-07-09T14:25:58Z</time>
      </trkpt>
      <trkpt lat="48.46651" lon="7.06228">
        <ele>776.88</ele>
        <time>2019-07-09T14:26:19Z</time>
      </trkpt>
      <trkpt lat="48.46651" lon="7.06229">
        <ele>774</ele>
        <time>2019-07-09T14:26:38Z</time>
      </trkpt>
      <trkpt lat="48.46647" lon="7.06231">
        <ele>774.48</ele>
        <time>2019-07-09T14:26:40Z</time>
      </trkpt>
      <trkpt lat="48.46647" lon="7.06232">
        <ele>774.48</ele>
        <time>2019-07-09T14:26:41Z</time>
      </trkpt>
      <trkpt lat="48.46646" lon="7.06235">
        <ele>774.96</ele>
        <time>2019-07-09T14:26:42Z</time>
      </trkpt>
      <trkpt lat="48.46647" lon="7.06239">
        <ele>775.44</ele>
        <time>2019-07-09T14:26:43Z</time>
      </trkpt>
      <trkpt lat="48.46647" lon="7.06243">
        <ele>775.44</ele>
        <time>2019-07-09T14:26:44Z</time>
      </trkpt>
      <trkpt lat="48.46639" lon="7.06302">
        <ele>776.88</ele>
        <time>2019-07-09T14:26:58Z</time>
      </trkpt>
      <trkpt lat="48.46624" lon="7.06351">
        <ele>774.96</ele>
        <time>2019-07-09T14:27:10Z</time>
      </trkpt>
      <trkpt lat="48.46612" lon="7.06424">
        <ele>775.44</ele>
        <time>2019-07-09T14:27:25Z</time>
      </trkpt>
      <trkpt lat="48.46614" lon="7.06487">
        <ele>778.81</ele>
        <time>2019-07-09T14:27:37Z</time>
      </trkpt>
      <trkpt lat="48.46634" lon="7.06551">
        <ele>778.32</ele>
        <time>2019-07-09T14:27:51Z</time>
      </trkpt>
      <trkpt lat="48.46662" lon="7.06609">
        <ele>778.81</ele>
        <time>2019-07-09T14:28:05Z</time>
      </trkpt>
      <trkpt lat="48.467" lon="7.0665">
        <ele>778.32</ele>
        <time>2019-07-09T14:28:19Z</time>
      </trkpt>
      <trkpt lat="48.46739" lon="7.06701">
        <ele>780.25</ele>
        <time>2019-07-09T14:28:34Z</time>
      </trkpt>
      <trkpt lat="48.46767" lon="7.06754">
        <ele>781.21</ele>
        <time>2019-07-09T14:28:47Z</time>
      </trkpt>
      <trkpt lat="48.46795" lon="7.06823">
        <ele>780.73</ele>
        <time>2019-07-09T14:29:02Z</time>
      </trkpt>
      <trkpt lat="48.46818" lon="7.06863">
        <ele>781.21</ele>
        <time>2019-07-09T14:29:11Z</time>
      </trkpt>
      <trkpt lat="48.46821" lon="7.06868">
        <ele>781.69</ele>
        <time>2019-07-09T14:29:12Z</time>
      </trkpt>
      <trkpt lat="48.46861" lon="7.06919">
        <ele>782.17</ele>
        <time>2019-07-09T14:29:26Z</time>
      </trkpt>
      <trkpt lat="48.46905" lon="7.0696">
        <ele>782.17</ele>
        <time>2019-07-09T14:29:40Z</time>
      </trkpt>
      <trkpt lat="48.46945" lon="7.07006">
        <ele>781.21</ele>
        <time>2019-07-09T14:29:53Z</time>
      </trkpt>
      <trkpt lat="48.4699" lon="7.07058">
        <ele>781.21</ele>
        <time>2019-07-09T14:30:07Z</time>
      </trkpt>
      <trkpt lat="48.47027" lon="7.07088">
        <ele>781.21</ele>
        <time>2019-07-09T14:30:18Z</time>
      </trkpt>
      <trkpt lat="48.47064" lon="7.07109">
        <ele>781.21</ele>
        <time>2019-07-09T14:30:28Z</time>
      </trkpt>
      <trkpt lat="48.47112" lon="7.07129">
        <ele>783.61</ele>
        <time>2019-07-09T14:30:42Z</time>
      </trkpt>
      <trkpt lat="48.4715" lon="7.07145">
        <ele>786.98</ele>
        <time>2019-07-09T14:30:53Z</time>
      </trkpt>
      <trkpt lat="48.47192" lon="7.07172">
        <ele>791.3</ele>
        <time>2019-07-09T14:31:05Z</time>
      </trkpt>
      <trkpt lat="48.472" lon="7.07181">
        <ele>791.3</ele>
        <time>2019-07-09T14:31:07Z</time>
      </trkpt>
      <trkpt lat="48.47203" lon="7.07185">
        <ele>791.3</ele>
        <time>2019-07-09T14:31:08Z</time>
      </trkpt>
      <trkpt lat="48.47207" lon="7.0719">
        <ele>791.3</ele>
        <time>2019-07-09T14:31:09Z</time>
      </trkpt>
      <trkpt lat="48.47262" lon="7.07262">
        <ele>785.53</ele>
        <time>2019-07-09T14:31:25Z</time>
      </trkpt>
      <trkpt lat="48.47312" lon="7.07339">
        <ele>782.17</ele>
        <time>2019-07-09T14:31:41Z</time>
      </trkpt>
      <trkpt lat="48.47317" lon="7.07348">
        <ele>782.17</ele>
        <time>2019-07-09T14:31:43Z</time>
      </trkpt>
      <trkpt lat="48.47356" lon="7.07412">
        <ele>779.77</ele>
        <time>2019-07-09T14:31:59Z</time>
      </trkpt>
      <trkpt lat="48.47357" lon="7.07413">
        <ele>779.77</ele>
        <time>2019-07-09T14:32:00Z</time>
      </trkpt>
      <trkpt lat="48.47359" lon="7.07413">
        <ele>779.77</ele>
        <time>2019-07-09T14:32:01Z</time>
      </trkpt>
      <trkpt lat="48.47361" lon="7.07412">
        <ele>779.77</ele>
        <time>2019-07-09T14:32:02Z</time>
      </trkpt>
      <trkpt lat="48.47374" lon="7.07405">
        <ele>778.81</ele>
        <time>2019-07-09T14:32:11Z</time>
      </trkpt>
      <trkpt lat="48.47375" lon="7.07403">
        <ele>778.81</ele>
        <time>2019-07-09T14:32:12Z</time>
      </trkpt>
      <trkpt lat="48.47376" lon="7.07401">
        <ele>778.81</ele>
        <time>2019-07-09T14:32:13Z</time>
      </trkpt>
      <trkpt lat="48.47376" lon="7.07398">
        <ele>778.81</ele>
        <time>2019-07-09T14:32:14Z</time>
      </trkpt>
      <trkpt lat="48.47377" lon="7.07396">
        <ele>779.29</ele>
        <time>2019-07-09T14:32:15Z</time>
      </trkpt>
      <trkpt lat="48.47378" lon="7.07395">
        <ele>779.29</ele>
        <time>2019-07-09T14:32:16Z</time>
      </trkpt>
      <trkpt lat="48.47379" lon="7.07393">
        <ele>779.29</ele>
        <time>2019-07-09T14:32:17Z</time>
      </trkpt>
      <trkpt lat="48.47384" lon="7.07387">
        <ele>780.25</ele>
        <time>2019-07-09T14:32:21Z</time>
      </trkpt>
      <trkpt lat="48.47385" lon="7.07385">
        <ele>780.25</ele>
        <time>2019-07-09T14:32:22Z</time>
      </trkpt>
      <trkpt lat="48.47387" lon="7.07378">
        <ele>780.73</ele>
        <time>2019-07-09T14:32:25Z</time>
      </trkpt>
      <trkpt lat="48.47387" lon="7.07376">
        <ele>780.73</ele>
        <time>2019-07-09T14:32:26Z</time>
      </trkpt>
      <trkpt lat="48.47386" lon="7.07371">
        <ele>780.73</ele>
        <time>2019-07-09T14:32:28Z</time>
      </trkpt>
      <trkpt lat="48.47387" lon="7.07369">
        <ele>780.73</ele>
        <time>2019-07-09T14:32:29Z</time>
      </trkpt>
      <trkpt lat="48.47387" lon="7.07365">
        <ele>779.77</ele>
        <time>2019-07-09T14:32:44Z</time>
      </trkpt>
      <trkpt lat="48.47396" lon="7.07338">
        <ele>778.81</ele>
        <time>2019-07-09T14:33:01Z</time>
      </trkpt>
      <trkpt lat="48.47404" lon="7.07316">
        <ele>777.36</ele>
        <time>2019-07-09T14:33:11Z</time>
      </trkpt>
      <trkpt lat="48.4741" lon="7.07295">
        <ele>777.84</ele>
        <time>2019-07-09T14:33:33Z</time>
      </trkpt>
      <trkpt lat="48.47438" lon="7.07255">
        <ele>775.44</ele>
        <time>2019-07-09T14:33:46Z</time>
      </trkpt>
      <trkpt lat="48.47443" lon="7.07252">
        <ele>773.04</ele>
        <time>2019-07-09T14:33:56Z</time>
      </trkpt>
      <trkpt lat="48.47442" lon="7.07256">
        <ele>771.6</ele>
        <time>2019-07-09T14:34:11Z</time>
      </trkpt>
      <trkpt lat="48.47439" lon="7.07261">
        <ele>770.63</ele>
        <time>2019-07-09T14:34:23Z</time>
      </trkpt>
      <trkpt lat="48.47438" lon="7.07271">
        <ele>770.63</ele>
        <time>2019-07-09T14:34:35Z</time>
      </trkpt>
      <trkpt lat="48.47433" lon="7.07281">
        <ele>768.71</ele>
        <time>2019-07-09T14:34:49Z</time>
      </trkpt>
      <trkpt lat="48.47433" lon="7.07284">
        <ele>768.23</ele>
        <time>2019-07-09T14:34:52Z</time>
      </trkpt>
      <trkpt lat="48.47433" lon="7.07288">
        <ele>768.23</ele>
        <time>2019-07-09T14:34:53Z</time>
      </trkpt>
      <trkpt lat="48.47432" lon="7.0729">
        <ele>768.23</ele>
        <time>2019-07-09T14:34:54Z</time>
      </trkpt>
      <trkpt lat="48.47431" lon="7.07293">
        <ele>768.23</ele>
        <time>2019-07-09T14:34:55Z</time>
      </trkpt>
      <trkpt lat="48.4743" lon="7.07296">
        <ele>768.23</ele>
        <time>2019-07-09T14:34:56Z</time>
      </trkpt>
      <trkpt lat="48.47422" lon="7.07321">
        <ele>763.42</ele>
        <time>2019-07-09T14:35:07Z</time>
      </trkpt>
      <trkpt lat="48.47421" lon="7.07326">
        <ele>761.98</ele>
        <time>2019-07-09T14:35:14Z</time>
      </trkpt>
      <trkpt lat="48.47418" lon="7.07339">
        <ele>759.58</ele>
        <time>2019-07-09T14:35:26Z</time>
      </trkpt>
      <trkpt lat="48.4742" lon="7.07341">
        <ele>760.06</ele>
        <time>2019-07-09T14:35:38Z</time>
      </trkpt>
      <trkpt lat="48.47421" lon="7.07339">
        <ele>760.06</ele>
        <time>2019-07-09T14:35:39Z</time>
      </trkpt>
      <trkpt lat="48.47421" lon="7.07337">
        <ele>760.06</ele>
        <time>2019-07-09T14:35:40Z</time>
      </trkpt>
      <trkpt lat="48.47422" lon="7.07335">
        <ele>759.58</ele>
        <time>2019-07-09T14:35:41Z</time>
      </trkpt>
      <trkpt lat="48.47423" lon="7.07332">
        <ele>759.58</ele>
        <time>2019-07-09T14:35:42Z</time>
      </trkpt>
      <trkpt lat="48.47424" lon="7.0733">
        <ele>759.58</ele>
        <time>2019-07-09T14:35:43Z</time>
      </trkpt>
      <trkpt lat="48.47425" lon="7.07328">
        <ele>759.58</ele>
        <time>2019-07-09T14:35:44Z</time>
      </trkpt>
      <trkpt lat="48.4743" lon="7.07318">
        <ele>757.18</ele>
        <time>2019-07-09T14:35:55Z</time>
      </trkpt>
      <trkpt lat="48.47435" lon="7.07315">
        <ele>757.18</ele>
        <time>2019-07-09T14:36:02Z</time>
      </trkpt>
      <trkpt lat="48.47435" lon="7.07319">
        <ele>755.73</ele>
        <time>2019-07-09T14:36:06Z</time>
      </trkpt>
      <trkpt lat="48.47435" lon="7.0732">
        <ele>755.25</ele>
        <time>2019-07-09T14:36:07Z</time>
      </trkpt>
      <trkpt lat="48.47435" lon="7.07322">
        <ele>754.77</ele>
        <time>2019-07-09T14:36:08Z</time>
      </trkpt>
      <trkpt lat="48.47435" lon="7.07323">
        <ele>754.77</ele>
        <time>2019-07-09T14:36:09Z</time>
      </trkpt>
      <trkpt lat="48.47434" lon="7.07325">
        <ele>754.29</ele>
        <time>2019-07-09T14:36:10Z</time>
      </trkpt>
      <trkpt lat="48.47434" lon="7.07327">
        <ele>753.81</ele>
        <time>2019-07-09T14:36:11Z</time>
      </trkpt>
      <trkpt lat="48.47434" lon="7.07329">
        <ele>753.33</ele>
        <time>2019-07-09T14:36:12Z</time>
      </trkpt>
      <trkpt lat="48.47434" lon="7.07331">
        <ele>752.85</ele>
        <time>2019-07-09T14:36:13Z</time>
      </trkpt>
      <trkpt lat="48.47428" lon="7.07356">
        <ele>750.45</ele>
        <time>2019-07-09T14:36:21Z</time>
      </trkpt>
      <trkpt lat="48.47427" lon="7.0736">
        <ele>749.97</ele>
        <time>2019-07-09T14:36:23Z</time>
      </trkpt>
      <trkpt lat="48.47426" lon="7.07366">
        <ele>749.49</ele>
        <time>2019-07-09T14:36:25Z</time>
      </trkpt>
      <trkpt lat="48.47426" lon="7.07368">
        <ele>749.49</ele>
        <time>2019-07-09T14:36:26Z</time>
      </trkpt>
      <trkpt lat="48.47424" lon="7.07407">
        <ele>749</ele>
        <time>2019-07-09T14:36:38Z</time>
      </trkpt>
      <trkpt lat="48.47424" lon="7.07411">
        <ele>749</ele>
        <time>2019-07-09T14:36:39Z</time>
      </trkpt>
      <trkpt lat="48.47422" lon="7.07421">
        <ele>748.52</ele>
        <time>2019-07-09T14:36:42Z</time>
      </trkpt>
      <trkpt lat="48.47419" lon="7.07434">
        <ele>746.6</ele>
        <time>2019-07-09T14:36:53Z</time>
      </trkpt>
      <trkpt lat="48.47423" lon="7.07478">
        <ele>746.12</ele>
        <time>2019-07-09T14:37:08Z</time>
      </trkpt>
      <trkpt lat="48.47426" lon="7.07502">
        <ele>746.12</ele>
        <time>2019-07-09T14:37:16Z</time>
      </trkpt>
      <trkpt lat="48.4743" lon="7.07512">
        <ele>748.04</ele>
        <time>2019-07-09T14:37:30Z</time>
      </trkpt>
      <trkpt lat="48.47431" lon="7.07518">
        <ele>749</ele>
        <time>2019-07-09T14:37:34Z</time>
      </trkpt>
      <trkpt lat="48.47434" lon="7.07531">
        <ele>749.49</ele>
        <time>2019-07-09T14:37:41Z</time>
      </trkpt>
      <trkpt lat="48.47433" lon="7.07537">
        <ele>749.97</ele>
        <time>2019-07-09T14:37:44Z</time>
      </trkpt>
      <trkpt lat="48.47438" lon="7.07548">
        <ele>751.41</ele>
        <time>2019-07-09T14:37:58Z</time>
      </trkpt>
      <trkpt lat="48.47438" lon="7.0755">
        <ele>750.93</ele>
        <time>2019-07-09T14:37:59Z</time>
      </trkpt>
      <trkpt lat="48.47438" lon="7.07573">
        <ele>744.2</ele>
        <time>2019-07-09T14:38:12Z</time>
      </trkpt>
      <trkpt lat="48.47441" lon="7.07576">
        <ele>743.72</ele>
        <time>2019-07-09T14:38:15Z</time>
      </trkpt>
      <trkpt lat="48.47444" lon="7.07583">
        <ele>742.76</ele>
        <time>2019-07-09T14:38:22Z</time>
      </trkpt>
      <trkpt lat="48.47449" lon="7.07591">
        <ele>741.79</ele>
        <time>2019-07-09T14:38:32Z</time>
      </trkpt>
      <trkpt lat="48.4745" lon="7.0759">
        <ele>742.76</ele>
        <time>2019-07-09T14:38:44Z</time>
      </trkpt>
      <trkpt lat="48.4745" lon="7.07589">
        <ele>742.76</ele>
        <time>2019-07-09T14:38:45Z</time>
      </trkpt>
      <trkpt lat="48.47444" lon="7.0757">
        <ele>738.43</ele>
        <time>2019-07-09T14:38:56Z</time>
      </trkpt>
      <trkpt lat="48.47441" lon="7.07552">
        <ele>737.47</ele>
        <time>2019-07-09T14:39:08Z</time>
      </trkpt>
      <trkpt lat="48.4744" lon="7.07548">
        <ele>737.47</ele>
        <time>2019-07-09T14:39:11Z</time>
      </trkpt>
      <trkpt lat="48.47441" lon="7.07543">
        <ele>736.99</ele>
        <time>2019-07-09T14:39:14Z</time>
      </trkpt>
      <trkpt lat="48.47442" lon="7.07539">
        <ele>736.51</ele>
        <time>2019-07-09T14:39:16Z</time>
      </trkpt>
      <trkpt lat="48.47442" lon="7.07537">
        <ele>736.51</ele>
        <time>2019-07-09T14:39:17Z</time>
      </trkpt>
      <trkpt lat="48.47444" lon="7.07526">
        <ele>733.62</ele>
        <time>2019-07-09T14:39:33Z</time>
      </trkpt>
      <trkpt lat="48.47444" lon="7.07523">
        <ele>734.1</ele>
        <time>2019-07-09T14:39:36Z</time>
      </trkpt>
      <trkpt lat="48.47444" lon="7.07521">
        <ele>734.1</ele>
        <time>2019-07-09T14:39:37Z</time>
      </trkpt>
      <trkpt lat="48.47445" lon="7.07516">
        <ele>733.62</ele>
        <time>2019-07-09T14:39:43Z</time>
      </trkpt>
      <trkpt lat="48.47446" lon="7.07509">
        <ele>733.62</ele>
        <time>2019-07-09T14:39:56Z</time>
      </trkpt>
      <trkpt lat="48.47444" lon="7.07494">
        <ele>734.1</ele>
        <time>2019-07-09T14:40:08Z</time>
      </trkpt>
      <trkpt lat="48.47446" lon="7.07477">
        <ele>735.07</ele>
        <time>2019-07-09T14:40:21Z</time>
      </trkpt>
      <trkpt lat="48.47446" lon="7.07475">
        <ele>735.07</ele>
        <time>2019-07-09T14:40:22Z</time>
      </trkpt>
      <trkpt lat="48.47447" lon="7.07472">
        <ele>735.07</ele>
        <time>2019-07-09T14:40:23Z</time>
      </trkpt>
      <trkpt lat="48.47449" lon="7.07458">
        <ele>736.03</ele>
        <time>2019-07-09T14:40:34Z</time>
      </trkpt>
      <trkpt lat="48.47454" lon="7.07439">
        <ele>736.03</ele>
        <time>2019-07-09T14:40:46Z</time>
      </trkpt>
      <trkpt lat="48.47458" lon="7.07427">
        <ele>736.03</ele>
        <time>2019-07-09T14:40:54Z</time>
      </trkpt>
      <trkpt lat="48.47459" lon="7.07418">
        <ele>735.55</ele>
        <time>2019-07-09T14:41:06Z</time>
      </trkpt>
      <trkpt lat="48.47459" lon="7.07417">
        <ele>735.55</ele>
        <time>2019-07-09T14:41:07Z</time>
      </trkpt>
      <trkpt lat="48.47461" lon="7.07412">
        <ele>736.03</ele>
        <time>2019-07-09T14:41:12Z</time>
      </trkpt>
      <trkpt lat="48.47462" lon="7.0741">
        <ele>735.55</ele>
        <time>2019-07-09T14:41:13Z</time>
      </trkpt>
      <trkpt lat="48.47463" lon="7.07408">
        <ele>735.55</ele>
        <time>2019-07-09T14:41:14Z</time>
      </trkpt>
      <trkpt lat="48.47464" lon="7.07405">
        <ele>736.03</ele>
        <time>2019-07-09T14:41:15Z</time>
      </trkpt>
      <trkpt lat="48.47465" lon="7.07401">
        <ele>736.03</ele>
        <time>2019-07-09T14:41:16Z</time>
      </trkpt>
      <trkpt lat="48.47466" lon="7.07398">
        <ele>736.03</ele>
        <time>2019-07-09T14:41:17Z</time>
      </trkpt>
      <trkpt lat="48.47467" lon="7.07391">
        <ele>735.55</ele>
        <time>2019-07-09T14:41:23Z</time>
      </trkpt>
      <trkpt lat="48.47476" lon="7.07368">
        <ele>734.1</ele>
        <time>2019-07-09T14:41:34Z</time>
      </trkpt>
      <trkpt lat="48.47492" lon="7.07335">
        <ele>732.66</ele>
        <time>2019-07-09T14:41:43Z</time>
      </trkpt>
      <trkpt lat="48.47507" lon="7.07312">
        <ele>730.74</ele>
        <time>2019-07-09T14:41:53Z</time>
      </trkpt>
      <trkpt lat="48.47517" lon="7.07302">
        <ele>729.78</ele>
        <time>2019-07-09T14:42:03Z</time>
      </trkpt>
      <trkpt lat="48.47518" lon="7.07301">
        <ele>729.78</ele>
        <time>2019-07-09T14:42:04Z</time>
      </trkpt>
      <trkpt lat="48.47521" lon="7.073">
        <ele>729.78</ele>
        <time>2019-07-09T14:42:07Z</time>
      </trkpt>
      <trkpt lat="48.47527" lon="7.073">
        <ele>730.74</ele>
        <time>2019-07-09T14:42:12Z</time>
      </trkpt>
      <trkpt lat="48.47532" lon="7.07299">
        <ele>731.22</ele>
        <time>2019-07-09T14:42:15Z</time>
      </trkpt>
      <trkpt lat="48.47535" lon="7.07299">
        <ele>731.7</ele>
        <time>2019-07-09T14:42:16Z</time>
      </trkpt>
      <trkpt lat="48.47538" lon="7.07299">
        <ele>731.7</ele>
        <time>2019-07-09T14:42:17Z</time>
      </trkpt>
      <trkpt lat="48.47568" lon="7.07299">
        <ele>731.22</ele>
        <time>2019-07-09T14:42:27Z</time>
      </trkpt>
      <trkpt lat="48.47578" lon="7.073">
        <ele>729.78</ele>
        <time>2019-07-09T14:42:30Z</time>
      </trkpt>
      <trkpt lat="48.47582" lon="7.07301">
        <ele>729.3</ele>
        <time>2019-07-09T14:42:31Z</time>
      </trkpt>
      <trkpt lat="48.47586" lon="7.07302">
        <ele>728.34</ele>
        <time>2019-07-09T14:42:32Z</time>
      </trkpt>
      <trkpt lat="48.47601" lon="7.07303">
        <ele>724.01</ele>
        <time>2019-07-09T14:42:40Z</time>
      </trkpt>
      <trkpt lat="48.47602" lon="7.07304">
        <ele>723.05</ele>
        <time>2019-07-09T14:42:41Z</time>
      </trkpt>
      <trkpt lat="48.47605" lon="7.07309">
        <ele>721.61</ele>
        <time>2019-07-09T14:42:43Z</time>
      </trkpt>
      <trkpt lat="48.47614" lon="7.07316">
        <ele>717.28</ele>
        <time>2019-07-09T14:42:53Z</time>
      </trkpt>
      <trkpt lat="48.47618" lon="7.07311">
        <ele>714.4</ele>
        <time>2019-07-09T14:43:08Z</time>
      </trkpt>
      <trkpt lat="48.47618" lon="7.0731">
        <ele>713.92</ele>
        <time>2019-07-09T14:43:09Z</time>
      </trkpt>
      <trkpt lat="48.47618" lon="7.07308">
        <ele>713.44</ele>
        <time>2019-07-09T14:43:10Z</time>
      </trkpt>
      <trkpt lat="48.4762" lon="7.07306">
        <ele>712.95</ele>
        <time>2019-07-09T14:43:11Z</time>
      </trkpt>
      <trkpt lat="48.47621" lon="7.07305">
        <ele>712.47</ele>
        <time>2019-07-09T14:43:12Z</time>
      </trkpt>
      <trkpt lat="48.47623" lon="7.07305">
        <ele>711.51</ele>
        <time>2019-07-09T14:43:13Z</time>
      </trkpt>
      <trkpt lat="48.47625" lon="7.07305">
        <ele>710.55</ele>
        <time>2019-07-09T14:43:14Z</time>
      </trkpt>
      <trkpt lat="48.47626" lon="7.07306">
        <ele>710.07</ele>
        <time>2019-07-09T14:43:15Z</time>
      </trkpt>
      <trkpt lat="48.47628" lon="7.07308">
        <ele>709.11</ele>
        <time>2019-07-09T14:43:16Z</time>
      </trkpt>
      <trkpt lat="48.47629" lon="7.0731">
        <ele>708.63</ele>
        <time>2019-07-09T14:43:17Z</time>
      </trkpt>
      <trkpt lat="48.47629" lon="7.07313">
        <ele>708.15</ele>
        <time>2019-07-09T14:43:18Z</time>
      </trkpt>
      <trkpt lat="48.4763" lon="7.07315">
        <ele>707.67</ele>
        <time>2019-07-09T14:43:19Z</time>
      </trkpt>
      <trkpt lat="48.4763" lon="7.07319">
        <ele>707.19</ele>
        <time>2019-07-09T14:43:20Z</time>
      </trkpt>
      <trkpt lat="48.47632" lon="7.07349">
        <ele>703.82</ele>
        <time>2019-07-09T14:43:25Z</time>
      </trkpt>
      <trkpt lat="48.47635" lon="7.07393">
        <ele>699.5</ele>
        <time>2019-07-09T14:43:30Z</time>
      </trkpt>
      <trkpt lat="48.47636" lon="7.07402">
        <ele>699.02</ele>
        <time>2019-07-09T14:43:31Z</time>
      </trkpt>
      <trkpt lat="48.47637" lon="7.0741">
        <ele>698.05</ele>
        <time>2019-07-09T14:43:32Z</time>
      </trkpt>
      <trkpt lat="48.4764" lon="7.07427">
        <ele>696.61</ele>
        <time>2019-07-09T14:43:34Z</time>
      </trkpt>
      <trkpt lat="48.47646" lon="7.07471">
        <ele>691.81</ele>
        <time>2019-07-09T14:43:43Z</time>
      </trkpt>
      <trkpt lat="48.47645" lon="7.07505">
        <ele>689.88</ele>
        <time>2019-07-09T14:43:50Z</time>
      </trkpt>
      <trkpt lat="48.47644" lon="7.07511">
        <ele>689.4</ele>
        <time>2019-07-09T14:43:51Z</time>
      </trkpt>
      <trkpt lat="48.47643" lon="7.07515">
        <ele>689.4</ele>
        <time>2019-07-09T14:43:52Z</time>
      </trkpt>
      <trkpt lat="48.47643" lon="7.07524">
        <ele>687</ele>
        <time>2019-07-09T14:44:00Z</time>
      </trkpt>
      <trkpt lat="48.47644" lon="7.07527">
        <ele>683.63</ele>
        <time>2019-07-09T14:44:42Z</time>
      </trkpt>
      <trkpt lat="48.47641" lon="7.07543">
        <ele>683.15</ele>
        <time>2019-07-09T14:44:56Z</time>
      </trkpt>
      <trkpt lat="48.4764" lon="7.07567">
        <ele>684.6</ele>
        <time>2019-07-09T14:45:06Z</time>
      </trkpt>
      <trkpt lat="48.47639" lon="7.07568">
        <ele>684.6</ele>
        <time>2019-07-09T14:45:07Z</time>
      </trkpt>
      <trkpt lat="48.47644" lon="7.0757">
        <ele>684.6</ele>
        <time>2019-07-09T14:45:24Z</time>
      </trkpt>
      <trkpt lat="48.47644" lon="7.07572">
        <ele>684.6</ele>
        <time>2019-07-09T14:45:28Z</time>
      </trkpt>
      <trkpt lat="48.47644" lon="7.07574">
        <ele>684.6</ele>
        <time>2019-07-09T14:45:29Z</time>
      </trkpt>
      <trkpt lat="48.47644" lon="7.07576">
        <ele>685.08</ele>
        <time>2019-07-09T14:45:30Z</time>
      </trkpt>
      <trkpt lat="48.47645" lon="7.07577">
        <ele>685.08</ele>
        <time>2019-07-09T14:45:31Z</time>
      </trkpt>
      <trkpt lat="48.47645" lon="7.07579">
        <ele>685.08</ele>
        <time>2019-07-09T14:45:32Z</time>
      </trkpt>
      <trkpt lat="48.47645" lon="7.07581">
        <ele>685.56</ele>
        <time>2019-07-09T14:45:33Z</time>
      </trkpt>
      <trkpt lat="48.47645" lon="7.07583">
        <ele>685.56</ele>
        <time>2019-07-09T14:45:34Z</time>
      </trkpt>
      <trkpt lat="48.47642" lon="7.0762">
        <ele>687.96</ele>
        <time>2019-07-09T14:45:47Z</time>
      </trkpt>
      <trkpt lat="48.4764" lon="7.07644">
        <ele>687.48</ele>
        <time>2019-07-09T14:45:52Z</time>
      </trkpt>
      <trkpt lat="48.47641" lon="7.07652">
        <ele>687.48</ele>
        <time>2019-07-09T14:45:53Z</time>
      </trkpt>
      <trkpt lat="48.47643" lon="7.0766">
        <ele>687</ele>
        <time>2019-07-09T14:45:54Z</time>
      </trkpt>
      <trkpt lat="48.47646" lon="7.07668">
        <ele>686.52</ele>
        <time>2019-07-09T14:45:55Z</time>
      </trkpt>
      <trkpt lat="48.47649" lon="7.07675">
        <ele>686.52</ele>
        <time>2019-07-09T14:45:56Z</time>
      </trkpt>
      <trkpt lat="48.47652" lon="7.07682">
        <ele>686.52</ele>
        <time>2019-07-09T14:45:57Z</time>
      </trkpt>
      <trkpt lat="48.47663" lon="7.07705">
        <ele>684.12</ele>
        <time>2019-07-09T14:46:02Z</time>
      </trkpt>
      <trkpt lat="48.47668" lon="7.07718">
        <ele>679.79</ele>
        <time>2019-07-09T14:46:14Z</time>
      </trkpt>
      <trkpt lat="48.47668" lon="7.07731">
        <ele>681.23</ele>
        <time>2019-07-09T14:46:27Z</time>
      </trkpt>
      <trkpt lat="48.47669" lon="7.07731">
        <ele>683.15</ele>
        <time>2019-07-09T14:46:43Z</time>
      </trkpt>
      <trkpt lat="48.47669" lon="7.07722">
        <ele>682.67</ele>
        <time>2019-07-09T14:47:18Z</time>
      </trkpt>
      <trkpt lat="48.47673" lon="7.07716">
        <ele>685.56</ele>
        <time>2019-07-09T14:47:52Z</time>
      </trkpt>
      <trkpt lat="48.47676" lon="7.0771">
        <ele>693.25</ele>
        <time>2019-07-09T14:48:18Z</time>
      </trkpt>
      <trkpt lat="48.47676" lon="7.07709">
        <ele>693.25</ele>
        <time>2019-07-09T14:48:19Z</time>
      </trkpt>
      <trkpt lat="48.47676" lon="7.07708">
        <ele>693.25</ele>
        <time>2019-07-09T14:48:20Z</time>
      </trkpt>
      <trkpt lat="48.47681" lon="7.07718">
        <ele>692.29</ele>
        <time>2019-07-09T14:48:28Z</time>
      </trkpt>
      <trkpt lat="48.47682" lon="7.07722">
        <ele>691.81</ele>
        <time>2019-07-09T14:48:29Z</time>
      </trkpt>
      <trkpt lat="48.47703" lon="7.07773">
        <ele>683.63</ele>
        <time>2019-07-09T14:48:43Z</time>
      </trkpt>
      <trkpt lat="48.47711" lon="7.07793">
        <ele>680.75</ele>
        <time>2019-07-09T14:48:47Z</time>
      </trkpt>
      <trkpt lat="48.47716" lon="7.07806">
        <ele>679.31</ele>
        <time>2019-07-09T14:48:49Z</time>
      </trkpt>
      <trkpt lat="48.4776" lon="7.07896">
        <ele>669.22</ele>
        <time>2019-07-09T14:49:01Z</time>
      </trkpt>
      <trkpt lat="48.47796" lon="7.07971">
        <ele>661.04</ele>
        <time>2019-07-09T14:49:09Z</time>
      </trkpt>
      <trkpt lat="48.478" lon="7.07979">
        <ele>660.08</ele>
        <time>2019-07-09T14:49:10Z</time>
      </trkpt>
      <trkpt lat="48.47821" lon="7.08031">
        <ele>655.28</ele>
        <time>2019-07-09T14:49:16Z</time>
      </trkpt>
      <trkpt lat="48.47864" lon="7.08169">
        <ele>644.7</ele>
        <time>2019-07-09T14:49:29Z</time>
      </trkpt>
      <trkpt lat="48.47868" lon="7.08178">
        <ele>643.74</ele>
        <time>2019-07-09T14:49:30Z</time>
      </trkpt>
      <trkpt lat="48.47873" lon="7.08188">
        <ele>642.78</ele>
        <time>2019-07-09T14:49:31Z</time>
      </trkpt>
      <trkpt lat="48.47923" lon="7.08262">
        <ele>636.53</ele>
        <time>2019-07-09T14:49:40Z</time>
      </trkpt>
      <trkpt lat="48.47948" lon="7.08287">
        <ele>638.93</ele>
        <time>2019-07-09T14:49:49Z</time>
      </trkpt>
      <trkpt lat="48.4797" lon="7.08313">
        <ele>645.66</ele>
        <time>2019-07-09T14:50:04Z</time>
      </trkpt>
      <trkpt lat="48.4799" lon="7.08335">
        <ele>647.59</ele>
        <time>2019-07-09T14:50:17Z</time>
      </trkpt>
      <trkpt lat="48.4801" lon="7.08357">
        <ele>651.43</ele>
        <time>2019-07-09T14:50:32Z</time>
      </trkpt>
      <trkpt lat="48.48032" lon="7.08385">
        <ele>652.39</ele>
        <time>2019-07-09T14:50:47Z</time>
      </trkpt>
      <trkpt lat="48.48051" lon="7.08416">
        <ele>649.51</ele>
        <time>2019-07-09T14:51:02Z</time>
      </trkpt>
      <trkpt lat="48.48063" lon="7.0844">
        <ele>649.51</ele>
        <time>2019-07-09T14:51:14Z</time>
      </trkpt>
      <trkpt lat="48.48064" lon="7.08442">
        <ele>649.51</ele>
        <time>2019-07-09T14:51:15Z</time>
      </trkpt>
      <trkpt lat="48.4808" lon="7.08477">
        <ele>649.99</ele>
        <time>2019-07-09T14:51:31Z</time>
      </trkpt>
      <trkpt lat="48.48095" lon="7.08506">
        <ele>651.43</ele>
        <time>2019-07-09T14:51:45Z</time>
      </trkpt>
      <trkpt lat="48.48116" lon="7.0854">
        <ele>652.39</ele>
        <time>2019-07-09T14:52:00Z</time>
      </trkpt>
      <trkpt lat="48.4814" lon="7.08587">
        <ele>653.83</ele>
        <time>2019-07-09T14:52:18Z</time>
      </trkpt>
      <trkpt lat="48.4816" lon="7.08627">
        <ele>657.2</ele>
        <time>2019-07-09T14:52:32Z</time>
      </trkpt>
      <trkpt lat="48.48175" lon="7.08674">
        <ele>656.72</ele>
        <time>2019-07-09T14:52:46Z</time>
      </trkpt>
      <trkpt lat="48.48184" lon="7.08718">
        <ele>659.12</ele>
        <time>2019-07-09T14:52:59Z</time>
      </trkpt>
      <trkpt lat="48.48187" lon="7.08766">
        <ele>661.52</ele>
        <time>2019-07-09T14:53:13Z</time>
      </trkpt>
      <trkpt lat="48.48181" lon="7.08818">
        <ele>661.04</ele>
        <time>2019-07-09T14:53:27Z</time>
      </trkpt>
      <trkpt lat="48.4817" lon="7.08856">
        <ele>661.04</ele>
        <time>2019-07-09T14:53:39Z</time>
      </trkpt>
      <trkpt lat="48.48157" lon="7.08892">
        <ele>665.37</ele>
        <time>2019-07-09T14:53:51Z</time>
      </trkpt>
      <trkpt lat="48.48129" lon="7.0894">
        <ele>666.33</ele>
        <time>2019-07-09T14:54:08Z</time>
      </trkpt>
      <trkpt lat="48.4811" lon="7.08981">
        <ele>668.73</ele>
        <time>2019-07-09T14:54:22Z</time>
      </trkpt>
      <trkpt lat="48.48096" lon="7.09026">
        <ele>670.66</ele>
        <time>2019-07-09T14:54:36Z</time>
      </trkpt>
      <trkpt lat="48.48092" lon="7.09052">
        <ele>671.62</ele>
        <time>2019-07-09T14:54:44Z</time>
      </trkpt>
      <trkpt lat="48.48091" lon="7.09055">
        <ele>671.62</ele>
        <time>2019-07-09T14:54:45Z</time>
      </trkpt>
      <trkpt lat="48.48089" lon="7.09076">
        <ele>672.58</ele>
        <time>2019-07-09T14:54:52Z</time>
      </trkpt>
      <trkpt lat="48.48088" lon="7.09078">
        <ele>673.06</ele>
        <time>2019-07-09T14:54:53Z</time>
      </trkpt>
      <trkpt lat="48.48085" lon="7.09126">
        <ele>680.75</ele>
        <time>2019-07-09T14:55:09Z</time>
      </trkpt>
      <trkpt lat="48.48084" lon="7.09171">
        <ele>685.56</ele>
        <time>2019-07-09T14:55:26Z</time>
      </trkpt>
      <trkpt lat="48.48081" lon="7.09211">
        <ele>689.4</ele>
        <time>2019-07-09T14:55:41Z</time>
      </trkpt>
      <trkpt lat="48.48078" lon="7.09246">
        <ele>690.36</ele>
        <time>2019-07-09T14:55:55Z</time>
      </trkpt>
      <trkpt lat="48.48078" lon="7.09249">
        <ele>690.36</ele>
        <time>2019-07-09T14:55:56Z</time>
      </trkpt>
      <trkpt lat="48.48077" lon="7.09251">
        <ele>690.36</ele>
        <time>2019-07-09T14:55:57Z</time>
      </trkpt>
      <trkpt lat="48.48076" lon="7.09253">
        <ele>690.36</ele>
        <time>2019-07-09T14:55:58Z</time>
      </trkpt>
      <trkpt lat="48.48076" lon="7.09256">
        <ele>690.36</ele>
        <time>2019-07-09T14:55:59Z</time>
      </trkpt>
      <trkpt lat="48.48076" lon="7.09258">
        <ele>690.36</ele>
        <time>2019-07-09T14:56:00Z</time>
      </trkpt>
      <trkpt lat="48.48075" lon="7.09261">
        <ele>690.84</ele>
        <time>2019-07-09T14:56:01Z</time>
      </trkpt>
      <trkpt lat="48.48075" lon="7.09263">
        <ele>690.84</ele>
        <time>2019-07-09T14:56:02Z</time>
      </trkpt>
      <trkpt lat="48.48075" lon="7.09265">
        <ele>690.84</ele>
        <time>2019-07-09T14:56:03Z</time>
      </trkpt>
      <trkpt lat="48.48074" lon="7.09267">
        <ele>690.84</ele>
        <time>2019-07-09T14:56:04Z</time>
      </trkpt>
      <trkpt lat="48.48074" lon="7.0927">
        <ele>690.84</ele>
        <time>2019-07-09T14:56:05Z</time>
      </trkpt>
      <trkpt lat="48.48073" lon="7.09272">
        <ele>690.84</ele>
        <time>2019-07-09T14:56:06Z</time>
      </trkpt>
      <trkpt lat="48.48073" lon="7.09274">
        <ele>690.84</ele>
        <time>2019-07-09T14:56:07Z</time>
      </trkpt>
      <trkpt lat="48.48073" lon="7.09277">
        <ele>690.84</ele>
        <time>2019-07-09T14:56:08Z</time>
      </trkpt>
      <trkpt lat="48.48072" lon="7.09279">
        <ele>690.84</ele>
        <time>2019-07-09T14:56:09Z</time>
      </trkpt>
      <trkpt lat="48.48072" lon="7.09281">
        <ele>691.33</ele>
        <time>2019-07-09T14:56:10Z</time>
      </trkpt>
      <trkpt lat="48.48071" lon="7.09283">
        <ele>691.33</ele>
        <time>2019-07-09T14:56:11Z</time>
      </trkpt>
      <trkpt lat="48.48071" lon="7.09285">
        <ele>691.33</ele>
        <time>2019-07-09T14:56:12Z</time>
      </trkpt>
      <trkpt lat="48.48071" lon="7.09287">
        <ele>691.33</ele>
        <time>2019-07-09T14:56:13Z</time>
      </trkpt>
      <trkpt lat="48.48071" lon="7.09289">
        <ele>691.33</ele>
        <time>2019-07-09T14:56:14Z</time>
      </trkpt>
      <trkpt lat="48.48071" lon="7.09292">
        <ele>691.81</ele>
        <time>2019-07-09T14:56:15Z</time>
      </trkpt>
      <trkpt lat="48.48066" lon="7.09327">
        <ele>691.33</ele>
        <time>2019-07-09T14:56:30Z</time>
      </trkpt>
      <trkpt lat="48.48063" lon="7.09347">
        <ele>691.81</ele>
        <time>2019-07-09T14:56:43Z</time>
      </trkpt>
      <trkpt lat="48.48064" lon="7.09351">
        <ele>694.69</ele>
        <time>2019-07-09T14:57:01Z</time>
      </trkpt>
      <trkpt lat="48.48063" lon="7.09354">
        <ele>695.17</ele>
        <time>2019-07-09T14:57:04Z</time>
      </trkpt>
      <trkpt lat="48.48063" lon="7.09356">
        <ele>695.65</ele>
        <time>2019-07-09T14:57:05Z</time>
      </trkpt>
      <trkpt lat="48.48062" lon="7.09358">
        <ele>695.65</ele>
        <time>2019-07-09T14:57:06Z</time>
      </trkpt>
      <trkpt lat="48.48061" lon="7.0936">
        <ele>695.65</ele>
        <time>2019-07-09T14:57:07Z</time>
      </trkpt>
      <trkpt lat="48.48061" lon="7.09361">
        <ele>695.65</ele>
        <time>2019-07-09T14:57:08Z</time>
      </trkpt>
      <trkpt lat="48.4806" lon="7.09364">
        <ele>695.65</ele>
        <time>2019-07-09T14:57:09Z</time>
      </trkpt>
      <trkpt lat="48.4806" lon="7.09366">
        <ele>695.17</ele>
        <time>2019-07-09T14:57:10Z</time>
      </trkpt>
      <trkpt lat="48.48057" lon="7.09405">
        <ele>697.57</ele>
        <time>2019-07-09T14:57:26Z</time>
      </trkpt>
      <trkpt lat="48.48057" lon="7.09445">
        <ele>700.46</ele>
        <time>2019-07-09T14:57:42Z</time>
      </trkpt>
      <trkpt lat="48.48057" lon="7.09482">
        <ele>701.9</ele>
        <time>2019-07-09T14:57:57Z</time>
      </trkpt>
      <trkpt lat="48.48058" lon="7.09497">
        <ele>702.86</ele>
        <time>2019-07-09T14:58:03Z</time>
      </trkpt>
      <trkpt lat="48.48058" lon="7.09499">
        <ele>703.34</ele>
        <time>2019-07-09T14:58:04Z</time>
      </trkpt>
      <trkpt lat="48.48058" lon="7.09502">
        <ele>703.82</ele>
        <time>2019-07-09T14:58:05Z</time>
      </trkpt>
      <trkpt lat="48.48057" lon="7.09538">
        <ele>706.71</ele>
        <time>2019-07-09T14:58:20Z</time>
      </trkpt>
      <trkpt lat="48.48057" lon="7.09573">
        <ele>705.75</ele>
        <time>2019-07-09T14:58:35Z</time>
      </trkpt>
      <trkpt lat="48.48058" lon="7.09593">
        <ele>705.75</ele>
        <time>2019-07-09T14:58:43Z</time>
      </trkpt>
      <trkpt lat="48.48059" lon="7.09596">
        <ele>705.75</ele>
        <time>2019-07-09T14:58:44Z</time>
      </trkpt>
      <trkpt lat="48.48059" lon="7.09598">
        <ele>705.75</ele>
        <time>2019-07-09T14:58:45Z</time>
      </trkpt>
      <trkpt lat="48.48062" lon="7.09638">
        <ele>709.59</ele>
        <time>2019-07-09T14:59:01Z</time>
      </trkpt>
      <trkpt lat="48.48068" lon="7.09677">
        <ele>713.44</ele>
        <time>2019-07-09T14:59:15Z</time>
      </trkpt>
      <trkpt lat="48.48071" lon="7.09712">
        <ele>714.4</ele>
        <time>2019-07-09T14:59:29Z</time>
      </trkpt>
      <trkpt lat="48.48075" lon="7.09751">
        <ele>715.84</ele>
        <time>2019-07-09T14:59:44Z</time>
      </trkpt>
      <trkpt lat="48.4808" lon="7.09794">
        <ele>716.32</ele>
        <time>2019-07-09T15:00:00Z</time>
      </trkpt>
      <trkpt lat="48.48084" lon="7.09832">
        <ele>717.76</ele>
        <time>2019-07-09T15:00:14Z</time>
      </trkpt>
      <trkpt lat="48.48093" lon="7.09876">
        <ele>720.65</ele>
        <time>2019-07-09T15:00:31Z</time>
      </trkpt>
      <trkpt lat="48.48101" lon="7.09914">
        <ele>725.93</ele>
        <time>2019-07-09T15:00:46Z</time>
      </trkpt>
      <trkpt lat="48.48107" lon="7.09951">
        <ele>724.97</ele>
        <time>2019-07-09T15:01:00Z</time>
      </trkpt>
      <trkpt lat="48.48113" lon="7.09982">
        <ele>725.93</ele>
        <time>2019-07-09T15:01:12Z</time>
      </trkpt>
      <trkpt lat="48.48113" lon="7.09984">
        <ele>725.93</ele>
        <time>2019-07-09T15:01:13Z</time>
      </trkpt>
      <trkpt lat="48.48113" lon="7.09986">
        <ele>725.93</ele>
        <time>2019-07-09T15:01:14Z</time>
      </trkpt>
      <trkpt lat="48.48122" lon="7.10023">
        <ele>727.37</ele>
        <time>2019-07-09T15:01:28Z</time>
      </trkpt>
      <trkpt lat="48.48131" lon="7.1006">
        <ele>726.41</ele>
        <time>2019-07-09T15:01:42Z</time>
      </trkpt>
      <trkpt lat="48.48141" lon="7.10091">
        <ele>727.37</ele>
        <time>2019-07-09T15:01:55Z</time>
      </trkpt>
      <trkpt lat="48.48147" lon="7.10112">
        <ele>728.82</ele>
        <time>2019-07-09T15:02:04Z</time>
      </trkpt>
      <trkpt lat="48.48148" lon="7.10114">
        <ele>729.3</ele>
        <time>2019-07-09T15:02:05Z</time>
      </trkpt>
      <trkpt lat="48.48148" lon="7.10116">
        <ele>729.3</ele>
        <time>2019-07-09T15:02:06Z</time>
      </trkpt>
      <trkpt lat="48.48149" lon="7.10118">
        <ele>729.3</ele>
        <time>2019-07-09T15:02:07Z</time>
      </trkpt>
      <trkpt lat="48.4815" lon="7.1012">
        <ele>729.78</ele>
        <time>2019-07-09T15:02:08Z</time>
      </trkpt>
      <trkpt lat="48.48161" lon="7.10153">
        <ele>733.14</ele>
        <time>2019-07-09T15:02:21Z</time>
      </trkpt>
      <trkpt lat="48.48176" lon="7.10192">
        <ele>735.07</ele>
        <time>2019-07-09T15:02:38Z</time>
      </trkpt>
      <trkpt lat="48.48188" lon="7.10223">
        <ele>737.95</ele>
        <time>2019-07-09T15:02:52Z</time>
      </trkpt>
      <trkpt lat="48.48192" lon="7.10232">
        <ele>739.39</ele>
        <time>2019-07-09T15:02:56Z</time>
      </trkpt>
      <trkpt lat="48.48194" lon="7.10235">
        <ele>740.35</ele>
        <time>2019-07-09T15:02:57Z</time>
      </trkpt>
      <trkpt lat="48.48195" lon="7.10237">
        <ele>741.31</ele>
        <time>2019-07-09T15:02:58Z</time>
      </trkpt>
      <trkpt lat="48.48196" lon="7.10239">
        <ele>742.28</ele>
        <time>2019-07-09T15:02:59Z</time>
      </trkpt>
      <trkpt lat="48.48197" lon="7.10241">
        <ele>742.76</ele>
        <time>2019-07-09T15:03:00Z</time>
      </trkpt>
      <trkpt lat="48.48209" lon="7.10276">
        <ele>742.76</ele>
        <time>2019-07-09T15:03:15Z</time>
      </trkpt>
      <trkpt lat="48.4821" lon="7.10278">
        <ele>742.76</ele>
        <time>2019-07-09T15:03:16Z</time>
      </trkpt>
      <trkpt lat="48.4821" lon="7.1028">
        <ele>742.76</ele>
        <time>2019-07-09T15:03:17Z</time>
      </trkpt>
      <trkpt lat="48.48211" lon="7.10282">
        <ele>742.28</ele>
        <time>2019-07-09T15:03:18Z</time>
      </trkpt>
      <trkpt lat="48.48212" lon="7.10284">
        <ele>742.28</ele>
        <time>2019-07-09T15:03:19Z</time>
      </trkpt>
      <trkpt lat="48.48212" lon="7.10286">
        <ele>742.28</ele>
        <time>2019-07-09T15:03:20Z</time>
      </trkpt>
      <trkpt lat="48.48213" lon="7.10289">
        <ele>742.28</ele>
        <time>2019-07-09T15:03:21Z</time>
      </trkpt>
      <trkpt lat="48.48214" lon="7.10291">
        <ele>741.79</ele>
        <time>2019-07-09T15:03:22Z</time>
      </trkpt>
      <trkpt lat="48.48215" lon="7.10294">
        <ele>741.79</ele>
        <time>2019-07-09T15:03:23Z</time>
      </trkpt>
      <trkpt lat="48.48216" lon="7.10296">
        <ele>741.79</ele>
        <time>2019-07-09T15:03:24Z</time>
      </trkpt>
      <trkpt lat="48.48228" lon="7.10327">
        <ele>743.72</ele>
        <time>2019-07-09T15:03:37Z</time>
      </trkpt>
      <trkpt lat="48.4824" lon="7.10367">
        <ele>744.68</ele>
        <time>2019-07-09T15:03:54Z</time>
      </trkpt>
      <trkpt lat="48.48252" lon="7.10399">
        <ele>747.56</ele>
        <time>2019-07-09T15:04:08Z</time>
      </trkpt>
      <trkpt lat="48.4826" lon="7.10418">
        <ele>747.08</ele>
        <time>2019-07-09T15:04:17Z</time>
      </trkpt>
      <trkpt lat="48.4826" lon="7.1042">
        <ele>747.08</ele>
        <time>2019-07-09T15:04:18Z</time>
      </trkpt>
      <trkpt lat="48.48267" lon="7.10442">
        <ele>748.04</ele>
        <time>2019-07-09T15:04:28Z</time>
      </trkpt>
      <trkpt lat="48.48268" lon="7.10444">
        <ele>748.04</ele>
        <time>2019-07-09T15:04:29Z</time>
      </trkpt>
      <trkpt lat="48.48269" lon="7.10446">
        <ele>748.52</ele>
        <time>2019-07-09T15:04:30Z</time>
      </trkpt>
      <trkpt lat="48.4827" lon="7.10449">
        <ele>749</ele>
        <time>2019-07-09T15:04:31Z</time>
      </trkpt>
      <trkpt lat="48.48271" lon="7.10451">
        <ele>749</ele>
        <time>2019-07-09T15:04:32Z</time>
      </trkpt>
      <trkpt lat="48.48272" lon="7.10453">
        <ele>749</ele>
        <time>2019-07-09T15:04:33Z</time>
      </trkpt>
      <trkpt lat="48.48273" lon="7.10456">
        <ele>749.49</ele>
        <time>2019-07-09T15:04:34Z</time>
      </trkpt>
      <trkpt lat="48.48274" lon="7.10458">
        <ele>749.49</ele>
        <time>2019-07-09T15:04:35Z</time>
      </trkpt>
      <trkpt lat="48.48275" lon="7.10461">
        <ele>749.49</ele>
        <time>2019-07-09T15:04:36Z</time>
      </trkpt>
      <trkpt lat="48.48275" lon="7.10463">
        <ele>749.49</ele>
        <time>2019-07-09T15:04:37Z</time>
      </trkpt>
      <trkpt lat="48.48289" lon="7.10497">
        <ele>752.85</ele>
        <time>2019-07-09T15:04:53Z</time>
      </trkpt>
      <trkpt lat="48.48297" lon="7.10529">
        <ele>757.66</ele>
        <time>2019-07-09T15:05:08Z</time>
      </trkpt>
      <trkpt lat="48.4831" lon="7.10567">
        <ele>761.02</ele>
        <time>2019-07-09T15:05:24Z</time>
      </trkpt>
      <trkpt lat="48.4832" lon="7.10604">
        <ele>762.46</ele>
        <time>2019-07-09T15:05:39Z</time>
      </trkpt>
      <trkpt lat="48.48328" lon="7.10645">
        <ele>764.39</ele>
        <time>2019-07-09T15:05:54Z</time>
      </trkpt>
      <trkpt lat="48.4833" lon="7.10651">
        <ele>763.9</ele>
        <time>2019-07-09T15:06:05Z</time>
      </trkpt>
      <trkpt lat="48.48335" lon="7.10672">
        <ele>765.83</ele>
        <time>2019-07-09T15:06:22Z</time>
      </trkpt>
      <trkpt lat="48.48347" lon="7.10731">
        <ele>761.98</ele>
        <time>2019-07-09T15:06:37Z</time>
      </trkpt>
      <trkpt lat="48.48354" lon="7.10793">
        <ele>759.58</ele>
        <time>2019-07-09T15:06:49Z</time>
      </trkpt>
      <trkpt lat="48.48357" lon="7.10818">
        <ele>758.14</ele>
        <time>2019-07-09T15:06:53Z</time>
      </trkpt>
      <trkpt lat="48.48358" lon="7.10825">
        <ele>757.66</ele>
        <time>2019-07-09T15:06:54Z</time>
      </trkpt>
      <trkpt lat="48.48363" lon="7.10889">
        <ele>752.85</ele>
        <time>2019-07-09T15:07:02Z</time>
      </trkpt>
      <trkpt lat="48.48363" lon="7.10897">
        <ele>752.37</ele>
        <time>2019-07-09T15:07:03Z</time>
      </trkpt>
      <trkpt lat="48.48371" lon="7.10958">
        <ele>749</ele>
        <time>2019-07-09T15:07:12Z</time>
      </trkpt>
      <trkpt lat="48.48375" lon="7.10965">
        <ele>748.52</ele>
        <time>2019-07-09T15:07:13Z</time>
      </trkpt>
      <trkpt lat="48.48379" lon="7.10971">
        <ele>748.52</ele>
        <time>2019-07-09T15:07:14Z</time>
      </trkpt>
      <trkpt lat="48.48384" lon="7.10977">
        <ele>748.04</ele>
        <time>2019-07-09T15:07:15Z</time>
      </trkpt>
      <trkpt lat="48.4839" lon="7.10982">
        <ele>747.56</ele>
        <time>2019-07-09T15:07:16Z</time>
      </trkpt>
      <trkpt lat="48.48441" lon="7.11043">
        <ele>744.68</ele>
        <time>2019-07-09T15:07:26Z</time>
      </trkpt>
      <trkpt lat="48.48508" lon="7.11115">
        <ele>737.95</ele>
        <time>2019-07-09T15:07:37Z</time>
      </trkpt>
      <trkpt lat="48.48558" lon="7.11178">
        <ele>732.66</ele>
        <time>2019-07-09T15:07:47Z</time>
      </trkpt>
      <trkpt lat="48.48563" lon="7.11181">
        <ele>732.66</ele>
        <time>2019-07-09T15:07:48Z</time>
      </trkpt>
      <trkpt lat="48.48567" lon="7.11183">
        <ele>732.18</ele>
        <time>2019-07-09T15:07:49Z</time>
      </trkpt>
      <trkpt lat="48.48573" lon="7.11182">
        <ele>732.18</ele>
        <time>2019-07-09T15:07:50Z</time>
      </trkpt>
      <trkpt lat="48.48578" lon="7.11179">
        <ele>732.18</ele>
        <time>2019-07-09T15:07:51Z</time>
      </trkpt>
      <trkpt lat="48.48582" lon="7.11175">
        <ele>732.18</ele>
        <time>2019-07-09T15:07:52Z</time>
      </trkpt>
      <trkpt lat="48.48584" lon="7.11168">
        <ele>731.7</ele>
        <time>2019-07-09T15:07:53Z</time>
      </trkpt>
      <trkpt lat="48.48586" lon="7.11162">
        <ele>731.7</ele>
        <time>2019-07-09T15:07:54Z</time>
      </trkpt>
      <trkpt lat="48.48587" lon="7.11154">
        <ele>731.7</ele>
        <time>2019-07-09T15:07:55Z</time>
      </trkpt>
      <trkpt lat="48.48587" lon="7.11147">
        <ele>731.7</ele>
        <time>2019-07-09T15:07:56Z</time>
      </trkpt>
      <trkpt lat="48.48588" lon="7.11141">
        <ele>731.22</ele>
        <time>2019-07-09T15:07:57Z</time>
      </trkpt>
      <trkpt lat="48.48589" lon="7.11084">
        <ele>728.82</ele>
        <time>2019-07-09T15:08:05Z</time>
      </trkpt>
      <trkpt lat="48.48589" lon="7.11077">
        <ele>728.34</ele>
        <time>2019-07-09T15:08:06Z</time>
      </trkpt>
      <trkpt lat="48.4859" lon="7.11049">
        <ele>726.89</ele>
        <time>2019-07-09T15:08:10Z</time>
      </trkpt>
      <trkpt lat="48.4859" lon="7.11042">
        <ele>726.41</ele>
        <time>2019-07-09T15:08:11Z</time>
      </trkpt>
      <trkpt lat="48.48595" lon="7.10952">
        <ele>723.53</ele>
        <time>2019-07-09T15:08:26Z</time>
      </trkpt>
      <trkpt lat="48.48614" lon="7.10875">
        <ele>720.65</ele>
        <time>2019-07-09T15:08:41Z</time>
      </trkpt>
      <trkpt lat="48.48619" lon="7.1086">
        <ele>720.16</ele>
        <time>2019-07-09T15:08:44Z</time>
      </trkpt>
      <trkpt lat="48.4862" lon="7.10854">
        <ele>719.68</ele>
        <time>2019-07-09T15:08:45Z</time>
      </trkpt>
      <trkpt lat="48.48636" lon="7.10793">
        <ele>718.24</ele>
        <time>2019-07-09T15:08:57Z</time>
      </trkpt>
      <trkpt lat="48.48656" lon="7.10735">
        <ele>719.2</ele>
        <time>2019-07-09T15:09:12Z</time>
      </trkpt>
      <trkpt lat="48.48677" lon="7.10684">
        <ele>721.13</ele>
        <time>2019-07-09T15:09:25Z</time>
      </trkpt>
      <trkpt lat="48.48691" lon="7.10622">
        <ele>723.05</ele>
        <time>2019-07-09T15:09:39Z</time>
      </trkpt>
      <trkpt lat="48.48706" lon="7.10572">
        <ele>722.09</ele>
        <time>2019-07-09T15:09:53Z</time>
      </trkpt>
      <trkpt lat="48.48717" lon="7.10568">
        <ele>723.05</ele>
        <time>2019-07-09T15:09:58Z</time>
      </trkpt>
      <trkpt lat="48.48719" lon="7.10569">
        <ele>723.05</ele>
        <time>2019-07-09T15:09:59Z</time>
      </trkpt>
      <trkpt lat="48.4872" lon="7.10571">
        <ele>723.53</ele>
        <time>2019-07-09T15:10:00Z</time>
      </trkpt>
      <trkpt lat="48.48721" lon="7.10573">
        <ele>724.01</ele>
        <time>2019-07-09T15:10:01Z</time>
      </trkpt>
      <trkpt lat="48.48722" lon="7.10576">
        <ele>724.01</ele>
        <time>2019-07-09T15:10:02Z</time>
      </trkpt>
      <trkpt lat="48.48723" lon="7.10579">
        <ele>724.49</ele>
        <time>2019-07-09T15:10:03Z</time>
      </trkpt>
      <trkpt lat="48.48732" lon="7.10632">
        <ele>728.82</ele>
        <time>2019-07-09T15:10:18Z</time>
      </trkpt>
      <trkpt lat="48.48741" lon="7.10674">
        <ele>733.14</ele>
        <time>2019-07-09T15:10:31Z</time>
      </trkpt>
      <trkpt lat="48.48749" lon="7.10721">
        <ele>735.07</ele>
        <time>2019-07-09T15:10:46Z</time>
      </trkpt>
      <trkpt lat="48.48761" lon="7.10775">
        <ele>737.95</ele>
        <time>2019-07-09T15:11:03Z</time>
      </trkpt>
      <trkpt lat="48.48776" lon="7.10817">
        <ele>740.83</ele>
        <time>2019-07-09T15:11:18Z</time>
      </trkpt>
      <trkpt lat="48.48794" lon="7.10866">
        <ele>742.28</ele>
        <time>2019-07-09T15:11:34Z</time>
      </trkpt>
      <trkpt lat="48.48812" lon="7.10921">
        <ele>745.16</ele>
        <time>2019-07-09T15:11:50Z</time>
      </trkpt>
      <trkpt lat="48.48822" lon="7.10973">
        <ele>746.6</ele>
        <time>2019-07-09T15:12:04Z</time>
      </trkpt>
      <trkpt lat="48.48832" lon="7.11037">
        <ele>749.49</ele>
        <time>2019-07-09T15:12:22Z</time>
      </trkpt>
      <trkpt lat="48.48835" lon="7.11083">
        <ele>750.93</ele>
        <time>2019-07-09T15:12:37Z</time>
      </trkpt>
      <trkpt lat="48.48839" lon="7.11136">
        <ele>752.37</ele>
        <time>2019-07-09T15:12:54Z</time>
      </trkpt>
      <trkpt lat="48.48843" lon="7.11184">
        <ele>753.81</ele>
        <time>2019-07-09T15:13:09Z</time>
      </trkpt>
      <trkpt lat="48.4885" lon="7.11237">
        <ele>753.81</ele>
        <time>2019-07-09T15:13:26Z</time>
      </trkpt>
      <trkpt lat="48.48865" lon="7.11285">
        <ele>755.25</ele>
        <time>2019-07-09T15:13:43Z</time>
      </trkpt>
      <trkpt lat="48.48878" lon="7.11326">
        <ele>758.62</ele>
        <time>2019-07-09T15:13:58Z</time>
      </trkpt>
      <trkpt lat="48.48891" lon="7.1137">
        <ele>761.5</ele>
        <time>2019-07-09T15:14:15Z</time>
      </trkpt>
      <trkpt lat="48.48903" lon="7.11404">
        <ele>762.94</ele>
        <time>2019-07-09T15:14:28Z</time>
      </trkpt>
      <trkpt lat="48.4892" lon="7.11455">
        <ele>767.75</ele>
        <time>2019-07-09T15:14:46Z</time>
      </trkpt>
      <trkpt lat="48.48934" lon="7.11493">
        <ele>769.67</ele>
        <time>2019-07-09T15:15:00Z</time>
      </trkpt>
      <trkpt lat="48.48947" lon="7.11538">
        <ele>769.67</ele>
        <time>2019-07-09T15:15:16Z</time>
      </trkpt>
      <trkpt lat="48.48954" lon="7.11573">
        <ele>772.56</ele>
        <time>2019-07-09T15:15:30Z</time>
      </trkpt>
      <trkpt lat="48.48964" lon="7.11615">
        <ele>775.44</ele>
        <time>2019-07-09T15:15:46Z</time>
      </trkpt>
      <trkpt lat="48.48975" lon="7.11649">
        <ele>776.4</ele>
        <time>2019-07-09T15:15:59Z</time>
      </trkpt>
      <trkpt lat="48.48987" lon="7.11701">
        <ele>776.4</ele>
        <time>2019-07-09T15:16:15Z</time>
      </trkpt>
      <trkpt lat="48.48998" lon="7.11749">
        <ele>778.32</ele>
        <time>2019-07-09T15:16:30Z</time>
      </trkpt>
      <trkpt lat="48.49007" lon="7.11794">
        <ele>781.21</ele>
        <time>2019-07-09T15:16:45Z</time>
      </trkpt>
      <trkpt lat="48.49014" lon="7.11844">
        <ele>782.65</ele>
        <time>2019-07-09T15:17:01Z</time>
      </trkpt>
      <trkpt lat="48.4902" lon="7.11894">
        <ele>782.17</ele>
        <time>2019-07-09T15:17:17Z</time>
      </trkpt>
      <trkpt lat="48.49022" lon="7.11957">
        <ele>782.65</ele>
        <time>2019-07-09T15:17:37Z</time>
      </trkpt>
      <trkpt lat="48.49019" lon="7.12007">
        <ele>783.13</ele>
        <time>2019-07-09T15:17:52Z</time>
      </trkpt>
      <trkpt lat="48.49013" lon="7.12056">
        <ele>784.09</ele>
        <time>2019-07-09T15:18:08Z</time>
      </trkpt>
      <trkpt lat="48.49009" lon="7.12116">
        <ele>785.53</ele>
        <time>2019-07-09T15:18:25Z</time>
      </trkpt>
      <trkpt lat="48.49003" lon="7.12166">
        <ele>786.5</ele>
        <time>2019-07-09T15:18:40Z</time>
      </trkpt>
      <trkpt lat="48.48997" lon="7.1222">
        <ele>787.46</ele>
        <time>2019-07-09T15:18:56Z</time>
      </trkpt>
      <trkpt lat="48.48999" lon="7.12275">
        <ele>789.86</ele>
        <time>2019-07-09T15:19:12Z</time>
      </trkpt>
      <trkpt lat="48.49005" lon="7.12326">
        <ele>791.3</ele>
        <time>2019-07-09T15:19:27Z</time>
      </trkpt>
      <trkpt lat="48.49009" lon="7.12376">
        <ele>790.34</ele>
        <time>2019-07-09T15:19:36Z</time>
      </trkpt>
      <trkpt lat="48.49017" lon="7.12505">
        <ele>786.98</ele>
        <time>2019-07-09T15:19:50Z</time>
      </trkpt>
      <trkpt lat="48.49025" lon="7.12641">
        <ele>781.69</ele>
        <time>2019-07-09T15:20:03Z</time>
      </trkpt>
      <trkpt lat="48.49032" lon="7.12662">
        <ele>781.21</ele>
        <time>2019-07-09T15:20:05Z</time>
      </trkpt>
      <trkpt lat="48.49036" lon="7.12672">
        <ele>780.73</ele>
        <time>2019-07-09T15:20:06Z</time>
      </trkpt>
      <trkpt lat="48.49112" lon="7.12793">
        <ele>774.48</ele>
        <time>2019-07-09T15:20:19Z</time>
      </trkpt>
      <trkpt lat="48.49171" lon="7.12885">
        <ele>769.67</ele>
        <time>2019-07-09T15:20:29Z</time>
      </trkpt>
      <trkpt lat="48.492" lon="7.12918">
        <ele>767.75</ele>
        <time>2019-07-09T15:20:34Z</time>
      </trkpt>
      <trkpt lat="48.49205" lon="7.12923">
        <ele>767.27</ele>
        <time>2019-07-09T15:20:35Z</time>
      </trkpt>
      <trkpt lat="48.49273" lon="7.12986">
        <ele>762.46</ele>
        <time>2019-07-09T15:20:46Z</time>
      </trkpt>
      <trkpt lat="48.4931" lon="7.13044">
        <ele>759.58</ele>
        <time>2019-07-09T15:20:55Z</time>
      </trkpt>
      <trkpt lat="48.49339" lon="7.13128">
        <ele>757.66</ele>
        <time>2019-07-09T15:21:11Z</time>
      </trkpt>
      <trkpt lat="48.49344" lon="7.13137">
        <ele>759.1</ele>
        <time>2019-07-09T15:21:20Z</time>
      </trkpt>
      <trkpt lat="48.49346" lon="7.13138">
        <ele>759.58</ele>
        <time>2019-07-09T15:21:27Z</time>
      </trkpt>
      <trkpt lat="48.49348" lon="7.1314">
        <ele>759.58</ele>
        <time>2019-07-09T15:21:28Z</time>
      </trkpt>
      <trkpt lat="48.4935" lon="7.13141">
        <ele>759.58</ele>
        <time>2019-07-09T15:21:29Z</time>
      </trkpt>
      <trkpt lat="48.49351" lon="7.13142">
        <ele>760.06</ele>
        <time>2019-07-09T15:21:30Z</time>
      </trkpt>
      <trkpt lat="48.49353" lon="7.13143">
        <ele>760.06</ele>
        <time>2019-07-09T15:21:31Z</time>
      </trkpt>
      <trkpt lat="48.49355" lon="7.13144">
        <ele>760.54</ele>
        <time>2019-07-09T15:21:32Z</time>
      </trkpt>
      <trkpt lat="48.49356" lon="7.13146">
        <ele>760.54</ele>
        <time>2019-07-09T15:21:33Z</time>
      </trkpt>
      <trkpt lat="48.49357" lon="7.13148">
        <ele>760.54</ele>
        <time>2019-07-09T15:21:34Z</time>
      </trkpt>
      <trkpt lat="48.49358" lon="7.1315">
        <ele>761.02</ele>
        <time>2019-07-09T15:21:35Z</time>
      </trkpt>
      <trkpt lat="48.49358" lon="7.13153">
        <ele>761.02</ele>
        <time>2019-07-09T15:21:36Z</time>
      </trkpt>
      <trkpt lat="48.49359" lon="7.13155">
        <ele>761.02</ele>
        <time>2019-07-09T15:21:37Z</time>
      </trkpt>
      <trkpt lat="48.4936" lon="7.13157">
        <ele>761.5</ele>
        <time>2019-07-09T15:21:38Z</time>
      </trkpt>
      <trkpt lat="48.49385" lon="7.13186">
        <ele>762.94</ele>
        <time>2019-07-09T15:21:50Z</time>
      </trkpt>
      <trkpt lat="48.49427" lon="7.1323">
        <ele>765.35</ele>
        <time>2019-07-09T15:22:04Z</time>
      </trkpt>
      <trkpt lat="48.49471" lon="7.13276">
        <ele>765.83</ele>
        <time>2019-07-09T15:22:17Z</time>
      </trkpt>
      <trkpt lat="48.49475" lon="7.1328">
        <ele>765.83</ele>
        <time>2019-07-09T15:22:18Z</time>
      </trkpt>
      <trkpt lat="48.49483" lon="7.13289">
        <ele>766.31</ele>
        <time>2019-07-09T15:22:20Z</time>
      </trkpt>
      <trkpt lat="48.49545" lon="7.13354">
        <ele>766.79</ele>
        <time>2019-07-09T15:22:35Z</time>
      </trkpt>
      <trkpt lat="48.49554" lon="7.13364">
        <ele>767.27</ele>
        <time>2019-07-09T15:22:37Z</time>
      </trkpt>
      <trkpt lat="48.49612" lon="7.13423">
        <ele>766.79</ele>
        <time>2019-07-09T15:22:50Z</time>
      </trkpt>
      <trkpt lat="48.49679" lon="7.13493">
        <ele>768.23</ele>
        <time>2019-07-09T15:23:05Z</time>
      </trkpt>
      <trkpt lat="48.49694" lon="7.13509">
        <ele>768.23</ele>
        <time>2019-07-09T15:23:08Z</time>
      </trkpt>
      <trkpt lat="48.49699" lon="7.13515">
        <ele>768.23</ele>
        <time>2019-07-09T15:23:09Z</time>
      </trkpt>
      <trkpt lat="48.4976" lon="7.1358">
        <ele>768.71</ele>
        <time>2019-07-09T15:23:22Z</time>
      </trkpt>
      <trkpt lat="48.49774" lon="7.13591">
        <ele>768.71</ele>
        <time>2019-07-09T15:23:25Z</time>
      </trkpt>
      <trkpt lat="48.49789" lon="7.13598">
        <ele>769.19</ele>
        <time>2019-07-09T15:23:28Z</time>
      </trkpt>
      <trkpt lat="48.49794" lon="7.13599">
        <ele>769.67</ele>
        <time>2019-07-09T15:23:29Z</time>
      </trkpt>
      <trkpt lat="48.49804" lon="7.136">
        <ele>769.67</ele>
        <time>2019-07-09T15:23:31Z</time>
      </trkpt>
      <trkpt lat="48.49814" lon="7.13599">
        <ele>770.15</ele>
        <time>2019-07-09T15:23:33Z</time>
      </trkpt>
      <trkpt lat="48.4984" lon="7.1359">
        <ele>770.15</ele>
        <time>2019-07-09T15:23:38Z</time>
      </trkpt>
      <trkpt lat="48.49845" lon="7.13589">
        <ele>770.15</ele>
        <time>2019-07-09T15:23:39Z</time>
      </trkpt>
      <trkpt lat="48.49854" lon="7.13586">
        <ele>770.15</ele>
        <time>2019-07-09T15:23:41Z</time>
      </trkpt>
      <trkpt lat="48.49859" lon="7.13584">
        <ele>770.15</ele>
        <time>2019-07-09T15:23:42Z</time>
      </trkpt>
      <trkpt lat="48.49887" lon="7.13571">
        <ele>769.19</ele>
        <time>2019-07-09T15:23:48Z</time>
      </trkpt>
      <trkpt lat="48.49892" lon="7.13569">
        <ele>768.71</ele>
        <time>2019-07-09T15:23:49Z</time>
      </trkpt>
      <trkpt lat="48.49963" lon="7.13535">
        <ele>764.39</ele>
        <time>2019-07-09T15:24:03Z</time>
      </trkpt>
      <trkpt lat="48.50013" lon="7.13513">
        <ele>761.98</ele>
        <time>2019-07-09T15:24:13Z</time>
      </trkpt>
      <trkpt lat="48.50086" lon="7.13505">
        <ele>759.58</ele>
        <time>2019-07-09T15:24:27Z</time>
      </trkpt>
      <trkpt lat="48.50118" lon="7.13505">
        <ele>760.54</ele>
        <time>2019-07-09T15:24:33Z</time>
      </trkpt>
      <trkpt lat="48.50145" lon="7.13503">
        <ele>760.54</ele>
        <time>2019-07-09T15:24:38Z</time>
      </trkpt>
      <trkpt lat="48.50202" lon="7.13497">
        <ele>761.02</ele>
        <time>2019-07-09T15:24:49Z</time>
      </trkpt>
      <trkpt lat="48.50232" lon="7.135">
        <ele>760.54</ele>
        <time>2019-07-09T15:24:55Z</time>
      </trkpt>
      <trkpt lat="48.50237" lon="7.13501">
        <ele>760.54</ele>
        <time>2019-07-09T15:24:56Z</time>
      </trkpt>
      <trkpt lat="48.50257" lon="7.13505">
        <ele>761.02</ele>
        <time>2019-07-09T15:25:00Z</time>
      </trkpt>
      <trkpt lat="48.50273" lon="7.13508">
        <ele>761.02</ele>
        <time>2019-07-09T15:25:03Z</time>
      </trkpt>
      <trkpt lat="48.50283" lon="7.1351">
        <ele>761.5</ele>
        <time>2019-07-09T15:25:05Z</time>
      </trkpt>
      <trkpt lat="48.50342" lon="7.13515">
        <ele>759.58</ele>
        <time>2019-07-09T15:25:16Z</time>
      </trkpt>
      <trkpt lat="48.50367" lon="7.13515">
        <ele>759.58</ele>
        <time>2019-07-09T15:25:21Z</time>
      </trkpt>
      <trkpt lat="48.50402" lon="7.13511">
        <ele>760.06</ele>
        <time>2019-07-09T15:25:28Z</time>
      </trkpt>
      <trkpt lat="48.50422" lon="7.13515">
        <ele>760.06</ele>
        <time>2019-07-09T15:25:32Z</time>
      </trkpt>
      <trkpt lat="48.50427" lon="7.13518">
        <ele>759.58</ele>
        <time>2019-07-09T15:25:33Z</time>
      </trkpt>
      <trkpt lat="48.50431" lon="7.13521">
        <ele>759.1</ele>
        <time>2019-07-09T15:25:34Z</time>
      </trkpt>
      <trkpt lat="48.50436" lon="7.13526">
        <ele>758.62</ele>
        <time>2019-07-09T15:25:35Z</time>
      </trkpt>
      <trkpt lat="48.5044" lon="7.13531">
        <ele>758.14</ele>
        <time>2019-07-09T15:25:36Z</time>
      </trkpt>
      <trkpt lat="48.50444" lon="7.13536">
        <ele>757.66</ele>
        <time>2019-07-09T15:25:37Z</time>
      </trkpt>
      <trkpt lat="48.50458" lon="7.13561">
        <ele>755.73</ele>
        <time>2019-07-09T15:25:41Z</time>
      </trkpt>
      <trkpt lat="48.5047" lon="7.13587">
        <ele>753.81</ele>
        <time>2019-07-09T15:25:45Z</time>
      </trkpt>
      <trkpt lat="48.50472" lon="7.13594">
        <ele>752.85</ele>
        <time>2019-07-09T15:25:46Z</time>
      </trkpt>
      <trkpt lat="48.5048" lon="7.13614">
        <ele>751.41</ele>
        <time>2019-07-09T15:25:49Z</time>
      </trkpt>
      <trkpt lat="48.50489" lon="7.1365">
        <ele>749.97</ele>
        <time>2019-07-09T15:25:54Z</time>
      </trkpt>
      <trkpt lat="48.50496" lon="7.13681">
        <ele>749.49</ele>
        <time>2019-07-09T15:25:58Z</time>
      </trkpt>
      <trkpt lat="48.50508" lon="7.13769">
        <ele>745.64</ele>
        <time>2019-07-09T15:26:09Z</time>
      </trkpt>
      <trkpt lat="48.50524" lon="7.13865">
        <ele>742.28</ele>
        <time>2019-07-09T15:26:22Z</time>
      </trkpt>
      <trkpt lat="48.50529" lon="7.1391">
        <ele>741.79</ele>
        <time>2019-07-09T15:26:28Z</time>
      </trkpt>
      <trkpt lat="48.50532" lon="7.13972">
        <ele>738.43</ele>
        <time>2019-07-09T15:26:39Z</time>
      </trkpt>
      <trkpt lat="48.50527" lon="7.13972">
        <ele>738.91</ele>
        <time>2019-07-09T15:26:51Z</time>
      </trkpt>
      <trkpt lat="48.50527" lon="7.13974">
        <ele>738.43</ele>
        <time>2019-07-09T15:26:56Z</time>
      </trkpt>
      <trkpt lat="48.50529" lon="7.14004">
        <ele>737.47</ele>
        <time>2019-07-09T15:27:03Z</time>
      </trkpt>
      <trkpt lat="48.50529" lon="7.14011">
        <ele>737.47</ele>
        <time>2019-07-09T15:27:04Z</time>
      </trkpt>
      <trkpt lat="48.50529" lon="7.14017">
        <ele>737.47</ele>
        <time>2019-07-09T15:27:05Z</time>
      </trkpt>
      <trkpt lat="48.50529" lon="7.1404">
        <ele>736.03</ele>
        <time>2019-07-09T15:27:08Z</time>
      </trkpt>
      <trkpt lat="48.5053" lon="7.14049">
        <ele>736.03</ele>
        <time>2019-07-09T15:27:09Z</time>
      </trkpt>
      <trkpt lat="48.5053" lon="7.14072">
        <ele>735.07</ele>
        <time>2019-07-09T15:27:12Z</time>
      </trkpt>
      <trkpt lat="48.50536" lon="7.14134">
        <ele>735.07</ele>
        <time>2019-07-09T15:27:23Z</time>
      </trkpt>
      <trkpt lat="48.50556" lon="7.14203">
        <ele>735.55</ele>
        <time>2019-07-09T15:27:37Z</time>
      </trkpt>
      <trkpt lat="48.50588" lon="7.14285">
        <ele>734.58</ele>
        <time>2019-07-09T15:27:55Z</time>
      </trkpt>
      <trkpt lat="48.50623" lon="7.14374">
        <ele>733.14</ele>
        <time>2019-07-09T15:28:14Z</time>
      </trkpt>
      <trkpt lat="48.5066" lon="7.14468">
        <ele>731.22</ele>
        <time>2019-07-09T15:28:31Z</time>
      </trkpt>
      <trkpt lat="48.50671" lon="7.14499">
        <ele>731.7</ele>
        <time>2019-07-09T15:28:36Z</time>
      </trkpt>
      <trkpt lat="48.50718" lon="7.14617">
        <ele>729.3</ele>
        <time>2019-07-09T15:28:53Z</time>
      </trkpt>
      <trkpt lat="48.50724" lon="7.14635">
        <ele>728.82</ele>
        <time>2019-07-09T15:28:55Z</time>
      </trkpt>
      <trkpt lat="48.50726" lon="7.14644">
        <ele>728.34</ele>
        <time>2019-07-09T15:28:56Z</time>
      </trkpt>
      <trkpt lat="48.50727" lon="7.14654">
        <ele>728.34</ele>
        <time>2019-07-09T15:28:57Z</time>
      </trkpt>
      <trkpt lat="48.50726" lon="7.14664">
        <ele>727.86</ele>
        <time>2019-07-09T15:28:58Z</time>
      </trkpt>
      <trkpt lat="48.50723" lon="7.14673">
        <ele>727.86</ele>
        <time>2019-07-09T15:28:59Z</time>
      </trkpt>
      <trkpt lat="48.50719" lon="7.1468">
        <ele>727.37</ele>
        <time>2019-07-09T15:29:00Z</time>
      </trkpt>
      <trkpt lat="48.50713" lon="7.14686">
        <ele>726.89</ele>
        <time>2019-07-09T15:29:01Z</time>
      </trkpt>
      <trkpt lat="48.50707" lon="7.14691">
        <ele>726.41</ele>
        <time>2019-07-09T15:29:02Z</time>
      </trkpt>
      <trkpt lat="48.507" lon="7.14696">
        <ele>725.93</ele>
        <time>2019-07-09T15:29:03Z</time>
      </trkpt>
      <trkpt lat="48.50694" lon="7.14701">
        <ele>725.45</ele>
        <time>2019-07-09T15:29:04Z</time>
      </trkpt>
      <trkpt lat="48.5064" lon="7.14743">
        <ele>718.24</ele>
        <time>2019-07-09T15:29:14Z</time>
      </trkpt>
      <trkpt lat="48.5063" lon="7.1475">
        <ele>716.8</ele>
        <time>2019-07-09T15:29:17Z</time>
      </trkpt>
      <trkpt lat="48.50626" lon="7.14753">
        <ele>716.32</ele>
        <time>2019-07-09T15:29:18Z</time>
      </trkpt>
      <trkpt lat="48.50604" lon="7.14775">
        <ele>713.92</ele>
        <time>2019-07-09T15:29:26Z</time>
      </trkpt>
      <trkpt lat="48.50565" lon="7.14806">
        <ele>710.07</ele>
        <time>2019-07-09T15:29:38Z</time>
      </trkpt>
      <trkpt lat="48.50563" lon="7.14806">
        <ele>709.59</ele>
        <time>2019-07-09T15:29:39Z</time>
      </trkpt>
      <trkpt lat="48.50561" lon="7.14805">
        <ele>709.59</ele>
        <time>2019-07-09T15:29:45Z</time>
      </trkpt>
      <trkpt lat="48.5056" lon="7.14804">
        <ele>709.59</ele>
        <time>2019-07-09T15:29:46Z</time>
      </trkpt>
      <trkpt lat="48.50559" lon="7.14803">
        <ele>709.11</ele>
        <time>2019-07-09T15:29:47Z</time>
      </trkpt>
      <trkpt lat="48.50557" lon="7.14802">
        <ele>708.15</ele>
        <time>2019-07-09T15:29:49Z</time>
      </trkpt>
      <trkpt lat="48.50556" lon="7.14802">
        <ele>707.67</ele>
        <time>2019-07-09T15:29:50Z</time>
      </trkpt>
      <trkpt lat="48.50544" lon="7.148">
        <ele>704.78</ele>
        <time>2019-07-09T15:30:01Z</time>
      </trkpt>
      <trkpt lat="48.5054" lon="7.148">
        <ele>703.82</ele>
        <time>2019-07-09T15:30:04Z</time>
      </trkpt>
      <trkpt lat="48.50539" lon="7.14799">
        <ele>703.34</ele>
        <time>2019-07-09T15:30:05Z</time>
      </trkpt>
      <trkpt lat="48.50538" lon="7.14799">
        <ele>703.34</ele>
        <time>2019-07-09T15:30:06Z</time>
      </trkpt>
      <trkpt lat="48.50529" lon="7.14802">
        <ele>701.9</ele>
        <time>2019-07-09T15:30:10Z</time>
      </trkpt>
      <trkpt lat="48.50525" lon="7.14804">
        <ele>701.42</ele>
        <time>2019-07-09T15:30:11Z</time>
      </trkpt>
      <trkpt lat="48.50522" lon="7.14805">
        <ele>701.42</ele>
        <time>2019-07-09T15:30:12Z</time>
      </trkpt>
      <trkpt lat="48.5052" lon="7.14806">
        <ele>700.94</ele>
        <time>2019-07-09T15:30:13Z</time>
      </trkpt>
      <trkpt lat="48.50517" lon="7.14807">
        <ele>700.94</ele>
        <time>2019-07-09T15:30:14Z</time>
      </trkpt>
      <trkpt lat="48.50478" lon="7.14813">
        <ele>698.53</ele>
        <time>2019-07-09T15:30:23Z</time>
      </trkpt>
      <trkpt lat="48.50462" lon="7.14818">
        <ele>696.13</ele>
        <time>2019-07-09T15:30:28Z</time>
      </trkpt>
      <trkpt lat="48.5046" lon="7.1482">
        <ele>696.13</ele>
        <time>2019-07-09T15:30:29Z</time>
      </trkpt>
      <trkpt lat="48.50457" lon="7.14821">
        <ele>695.65</ele>
        <time>2019-07-09T15:30:30Z</time>
      </trkpt>
      <trkpt lat="48.50447" lon="7.1483">
        <ele>691.33</ele>
        <time>2019-07-09T15:30:40Z</time>
      </trkpt>
      <trkpt lat="48.50444" lon="7.1483">
        <ele>691.81</ele>
        <time>2019-07-09T15:30:50Z</time>
      </trkpt>
      <trkpt lat="48.50443" lon="7.14829">
        <ele>691.81</ele>
        <time>2019-07-09T15:30:51Z</time>
      </trkpt>
      <trkpt lat="48.5044" lon="7.14832">
        <ele>691.81</ele>
        <time>2019-07-09T15:30:55Z</time>
      </trkpt>
      <trkpt lat="48.50438" lon="7.14833">
        <ele>691.81</ele>
        <time>2019-07-09T15:30:56Z</time>
      </trkpt>
      <trkpt lat="48.50435" lon="7.14834">
        <ele>691.81</ele>
        <time>2019-07-09T15:30:57Z</time>
      </trkpt>
      <trkpt lat="48.50432" lon="7.14836">
        <ele>690.84</ele>
        <time>2019-07-09T15:30:58Z</time>
      </trkpt>
      <trkpt lat="48.5043" lon="7.14838">
        <ele>690.36</ele>
        <time>2019-07-09T15:30:59Z</time>
      </trkpt>
      <trkpt lat="48.50428" lon="7.14839">
        <ele>689.88</ele>
        <time>2019-07-09T15:31:00Z</time>
      </trkpt>
      <trkpt lat="48.50425" lon="7.14842">
        <ele>689.4</ele>
        <time>2019-07-09T15:31:01Z</time>
      </trkpt>
      <trkpt lat="48.50421" lon="7.14845">
        <ele>688.92</ele>
        <time>2019-07-09T15:31:02Z</time>
      </trkpt>
      <trkpt lat="48.50416" lon="7.14849">
        <ele>687.96</ele>
        <time>2019-07-09T15:31:03Z</time>
      </trkpt>
      <trkpt lat="48.50413" lon="7.14853">
        <ele>687.48</ele>
        <time>2019-07-09T15:31:04Z</time>
      </trkpt>
      <trkpt lat="48.50393" lon="7.14874">
        <ele>682.67</ele>
        <time>2019-07-09T15:31:09Z</time>
      </trkpt>
      <trkpt lat="48.50389" lon="7.14878">
        <ele>681.23</ele>
        <time>2019-07-09T15:31:10Z</time>
      </trkpt>
      <trkpt lat="48.50386" lon="7.14882">
        <ele>680.27</ele>
        <time>2019-07-09T15:31:11Z</time>
      </trkpt>
      <trkpt lat="48.50383" lon="7.14886">
        <ele>679.31</ele>
        <time>2019-07-09T15:31:12Z</time>
      </trkpt>
      <trkpt lat="48.5038" lon="7.14891">
        <ele>678.35</ele>
        <time>2019-07-09T15:31:13Z</time>
      </trkpt>
      <trkpt lat="48.50377" lon="7.14896">
        <ele>677.87</ele>
        <time>2019-07-09T15:31:14Z</time>
      </trkpt>
      <trkpt lat="48.50373" lon="7.149">
        <ele>676.91</ele>
        <time>2019-07-09T15:31:15Z</time>
      </trkpt>
      <trkpt lat="48.5036" lon="7.14922">
        <ele>673.06</ele>
        <time>2019-07-09T15:31:19Z</time>
      </trkpt>
      <trkpt lat="48.50353" lon="7.14936">
        <ele>671.14</ele>
        <time>2019-07-09T15:31:21Z</time>
      </trkpt>
      <trkpt lat="48.50319" lon="7.15014">
        <ele>658.64</ele>
        <time>2019-07-09T15:31:32Z</time>
      </trkpt>
      <trkpt lat="48.50293" lon="7.15065">
        <ele>649.99</ele>
        <time>2019-07-09T15:31:40Z</time>
      </trkpt>
      <trkpt lat="48.50289" lon="7.15072">
        <ele>649.03</ele>
        <time>2019-07-09T15:31:41Z</time>
      </trkpt>
      <trkpt lat="48.50241" lon="7.15131">
        <ele>639.41</ele>
        <time>2019-07-09T15:31:51Z</time>
      </trkpt>
      <trkpt lat="48.50227" lon="7.15148">
        <ele>637.01</ele>
        <time>2019-07-09T15:31:54Z</time>
      </trkpt>
      <trkpt lat="48.50224" lon="7.15152">
        <ele>636.05</ele>
        <time>2019-07-09T15:31:55Z</time>
      </trkpt>
      <trkpt lat="48.50221" lon="7.15158">
        <ele>635.09</ele>
        <time>2019-07-09T15:31:56Z</time>
      </trkpt>
      <trkpt lat="48.50214" lon="7.1517">
        <ele>633.65</ele>
        <time>2019-07-09T15:31:58Z</time>
      </trkpt>
      <trkpt lat="48.50205" lon="7.1519">
        <ele>630.76</ele>
        <time>2019-07-09T15:32:01Z</time>
      </trkpt>
      <trkpt lat="48.50202" lon="7.15197">
        <ele>629.8</ele>
        <time>2019-07-09T15:32:02Z</time>
      </trkpt>
      <trkpt lat="48.50199" lon="7.15204">
        <ele>628.84</ele>
        <time>2019-07-09T15:32:03Z</time>
      </trkpt>
      <trkpt lat="48.50197" lon="7.1521">
        <ele>627.88</ele>
        <time>2019-07-09T15:32:04Z</time>
      </trkpt>
      <trkpt lat="48.50194" lon="7.15216">
        <ele>626.92</ele>
        <time>2019-07-09T15:32:05Z</time>
      </trkpt>
      <trkpt lat="48.50192" lon="7.15223">
        <ele>625.96</ele>
        <time>2019-07-09T15:32:06Z</time>
      </trkpt>
      <trkpt lat="48.5019" lon="7.15229">
        <ele>624.51</ele>
        <time>2019-07-09T15:32:07Z</time>
      </trkpt>
      <trkpt lat="48.50171" lon="7.15298">
        <ele>609.13</ele>
        <time>2019-07-09T15:32:18Z</time>
      </trkpt>
      <trkpt lat="48.50158" lon="7.15339">
        <ele>600.96</ele>
        <time>2019-07-09T15:32:24Z</time>
      </trkpt>
      <trkpt lat="48.50155" lon="7.15344">
        <ele>599.52</ele>
        <time>2019-07-09T15:32:25Z</time>
      </trkpt>
      <trkpt lat="48.50152" lon="7.1535">
        <ele>598.56</ele>
        <time>2019-07-09T15:32:26Z</time>
      </trkpt>
      <trkpt lat="48.5015" lon="7.15355">
        <ele>597.6</ele>
        <time>2019-07-09T15:32:27Z</time>
      </trkpt>
      <trkpt lat="48.50148" lon="7.15359">
        <ele>596.64</ele>
        <time>2019-07-09T15:32:28Z</time>
      </trkpt>
      <trkpt lat="48.50145" lon="7.15363">
        <ele>595.67</ele>
        <time>2019-07-09T15:32:29Z</time>
      </trkpt>
      <trkpt lat="48.50141" lon="7.15365">
        <ele>594.71</ele>
        <time>2019-07-09T15:32:30Z</time>
      </trkpt>
      <trkpt lat="48.50136" lon="7.15367">
        <ele>593.75</ele>
        <time>2019-07-09T15:32:31Z</time>
      </trkpt>
      <trkpt lat="48.50097" lon="7.15382">
        <ele>587.98</ele>
        <time>2019-07-09T15:32:42Z</time>
      </trkpt>
      <trkpt lat="48.5008" lon="7.15402">
        <ele>586.54</ele>
        <time>2019-07-09T15:32:51Z</time>
      </trkpt>
      <trkpt lat="48.50071" lon="7.15422">
        <ele>583.66</ele>
        <time>2019-07-09T15:32:58Z</time>
      </trkpt>
      <trkpt lat="48.5007" lon="7.15424">
        <ele>583.18</ele>
        <time>2019-07-09T15:32:59Z</time>
      </trkpt>
      <trkpt lat="48.50069" lon="7.15427">
        <ele>583.18</ele>
        <time>2019-07-09T15:33:00Z</time>
      </trkpt>
      <trkpt lat="48.50067" lon="7.15429">
        <ele>582.22</ele>
        <time>2019-07-09T15:33:01Z</time>
      </trkpt>
      <trkpt lat="48.50065" lon="7.15433">
        <ele>581.73</ele>
        <time>2019-07-09T15:33:02Z</time>
      </trkpt>
      <trkpt lat="48.50063" lon="7.15437">
        <ele>581.25</ele>
        <time>2019-07-09T15:33:03Z</time>
      </trkpt>
      <trkpt lat="48.50046" lon="7.15467">
        <ele>574.04</ele>
        <time>2019-07-09T15:33:12Z</time>
      </trkpt>
      <trkpt lat="48.50044" lon="7.1547">
        <ele>573.08</ele>
        <time>2019-07-09T15:33:13Z</time>
      </trkpt>
      <trkpt lat="48.5002" lon="7.15508">
        <ele>565.39</ele>
        <time>2019-07-09T15:33:23Z</time>
      </trkpt>
      <trkpt lat="48.49999" lon="7.15544">
        <ele>562.51</ele>
        <time>2019-07-09T15:33:32Z</time>
      </trkpt>
      <trkpt lat="48.49974" lon="7.15599">
        <ele>554.34</ele>
        <time>2019-07-09T15:33:41Z</time>
      </trkpt>
      <trkpt lat="48.49971" lon="7.15608">
        <ele>552.9</ele>
        <time>2019-07-09T15:33:42Z</time>
      </trkpt>
      <trkpt lat="48.49944" lon="7.15713">
        <ele>550.49</ele>
        <time>2019-07-09T15:33:55Z</time>
      </trkpt>
      <trkpt lat="48.4994" lon="7.1573">
        <ele>550.49</ele>
        <time>2019-07-09T15:33:57Z</time>
      </trkpt>
      <trkpt lat="48.49937" lon="7.15736">
        <ele>550.01</ele>
        <time>2019-07-09T15:33:58Z</time>
      </trkpt>
      <trkpt lat="48.49927" lon="7.15752">
        <ele>549.05</ele>
        <time>2019-07-09T15:34:01Z</time>
      </trkpt>
      <trkpt lat="48.49923" lon="7.15756">
        <ele>548.57</ele>
        <time>2019-07-09T15:34:02Z</time>
      </trkpt>
      <trkpt lat="48.49918" lon="7.15759">
        <ele>548.09</ele>
        <time>2019-07-09T15:34:03Z</time>
      </trkpt>
      <trkpt lat="48.49914" lon="7.15761">
        <ele>547.61</ele>
        <time>2019-07-09T15:34:04Z</time>
      </trkpt>
      <trkpt lat="48.49909" lon="7.15762">
        <ele>547.13</ele>
        <time>2019-07-09T15:34:05Z</time>
      </trkpt>
      <trkpt lat="48.49903" lon="7.15763">
        <ele>546.65</ele>
        <time>2019-07-09T15:34:06Z</time>
      </trkpt>
      <trkpt lat="48.49897" lon="7.15763">
        <ele>546.17</ele>
        <time>2019-07-09T15:34:07Z</time>
      </trkpt>
      <trkpt lat="48.49862" lon="7.15763">
        <ele>542.32</ele>
        <time>2019-07-09T15:34:12Z</time>
      </trkpt>
      <trkpt lat="48.49773" lon="7.15785">
        <ele>535.11</ele>
        <time>2019-07-09T15:34:24Z</time>
      </trkpt>
      <trkpt lat="48.49701" lon="7.15819">
        <ele>528.86</ele>
        <time>2019-07-09T15:34:35Z</time>
      </trkpt>
      <trkpt lat="48.49677" lon="7.15827">
        <ele>524.06</ele>
        <time>2019-07-09T15:34:41Z</time>
      </trkpt>
      <trkpt lat="48.4965" lon="7.1583">
        <ele>522.13</ele>
        <time>2019-07-09T15:34:46Z</time>
      </trkpt>
      <trkpt lat="48.49632" lon="7.15832">
        <ele>521.17</ele>
        <time>2019-07-09T15:34:49Z</time>
      </trkpt>
      <trkpt lat="48.4958" lon="7.15842">
        <ele>515.4</ele>
        <time>2019-07-09T15:34:59Z</time>
      </trkpt>
      <trkpt lat="48.49525" lon="7.15874">
        <ele>505.79</ele>
        <time>2019-07-09T15:35:07Z</time>
      </trkpt>
      <trkpt lat="48.49508" lon="7.15892">
        <ele>502.43</ele>
        <time>2019-07-09T15:35:09Z</time>
      </trkpt>
      <trkpt lat="48.49462" lon="7.15953">
        <ele>493.29</ele>
        <time>2019-07-09T15:35:15Z</time>
      </trkpt>
      <trkpt lat="48.49453" lon="7.15961">
        <ele>491.85</ele>
        <time>2019-07-09T15:35:16Z</time>
      </trkpt>
      <trkpt lat="48.49421" lon="7.1599">
        <ele>486.08</ele>
        <time>2019-07-09T15:35:20Z</time>
      </trkpt>
      <trkpt lat="48.49415" lon="7.15999">
        <ele>485.12</ele>
        <time>2019-07-09T15:35:21Z</time>
      </trkpt>
      <trkpt lat="48.4941" lon="7.1601">
        <ele>484.16</ele>
        <time>2019-07-09T15:35:22Z</time>
      </trkpt>
      <trkpt lat="48.49405" lon="7.16023">
        <ele>483.2</ele>
        <time>2019-07-09T15:35:23Z</time>
      </trkpt>
      <trkpt lat="48.49401" lon="7.16035">
        <ele>482.24</ele>
        <time>2019-07-09T15:35:24Z</time>
      </trkpt>
      <trkpt lat="48.49396" lon="7.16048">
        <ele>481.76</ele>
        <time>2019-07-09T15:35:25Z</time>
      </trkpt>
      <trkpt lat="48.49391" lon="7.1606">
        <ele>480.8</ele>
        <time>2019-07-09T15:35:26Z</time>
      </trkpt>
      <trkpt lat="48.49384" lon="7.16072">
        <ele>479.35</ele>
        <time>2019-07-09T15:35:27Z</time>
      </trkpt>
      <trkpt lat="48.49377" lon="7.16081">
        <ele>478.39</ele>
        <time>2019-07-09T15:35:28Z</time>
      </trkpt>
      <trkpt lat="48.4937" lon="7.16089">
        <ele>477.43</ele>
        <time>2019-07-09T15:35:29Z</time>
      </trkpt>
      <trkpt lat="48.49363" lon="7.16095">
        <ele>476.95</ele>
        <time>2019-07-09T15:35:30Z</time>
      </trkpt>
      <trkpt lat="48.49357" lon="7.16098">
        <ele>475.99</ele>
        <time>2019-07-09T15:35:31Z</time>
      </trkpt>
      <trkpt lat="48.49352" lon="7.16098">
        <ele>475.51</ele>
        <time>2019-07-09T15:35:32Z</time>
      </trkpt>
      <trkpt lat="48.49348" lon="7.16096">
        <ele>475.03</ele>
        <time>2019-07-09T15:35:33Z</time>
      </trkpt>
      <trkpt lat="48.49344" lon="7.16092">
        <ele>475.03</ele>
        <time>2019-07-09T15:35:34Z</time>
      </trkpt>
      <trkpt lat="48.4934" lon="7.16087">
        <ele>475.03</ele>
        <time>2019-07-09T15:35:35Z</time>
      </trkpt>
      <trkpt lat="48.49336" lon="7.16083">
        <ele>474.55</ele>
        <time>2019-07-09T15:35:36Z</time>
      </trkpt>
      <trkpt lat="48.4933" lon="7.16077">
        <ele>474.55</ele>
        <time>2019-07-09T15:35:38Z</time>
      </trkpt>
      <trkpt lat="48.4932" lon="7.16067">
        <ele>474.55</ele>
        <time>2019-07-09T15:35:41Z</time>
      </trkpt>
      <trkpt lat="48.49284" lon="7.16054">
        <ele>472.14</ele>
        <time>2019-07-09T15:35:52Z</time>
      </trkpt>
      <trkpt lat="48.4928" lon="7.16058">
        <ele>471.66</ele>
        <time>2019-07-09T15:35:53Z</time>
      </trkpt>
      <trkpt lat="48.49248" lon="7.16088">
        <ele>469.26</ele>
        <time>2019-07-09T15:36:00Z</time>
      </trkpt>
      <trkpt lat="48.49243" lon="7.16091">
        <ele>468.78</ele>
        <time>2019-07-09T15:36:01Z</time>
      </trkpt>
      <trkpt lat="48.49238" lon="7.16094">
        <ele>468.3</ele>
        <time>2019-07-09T15:36:02Z</time>
      </trkpt>
      <trkpt lat="48.49233" lon="7.16097">
        <ele>468.3</ele>
        <time>2019-07-09T15:36:03Z</time>
      </trkpt>
      <trkpt lat="48.49227" lon="7.161">
        <ele>467.82</ele>
        <time>2019-07-09T15:36:04Z</time>
      </trkpt>
      <trkpt lat="48.49221" lon="7.16103">
        <ele>467.82</ele>
        <time>2019-07-09T15:36:05Z</time>
      </trkpt>
      <trkpt lat="48.49215" lon="7.16105">
        <ele>467.34</ele>
        <time>2019-07-09T15:36:06Z</time>
      </trkpt>
      <trkpt lat="48.49209" lon="7.16106">
        <ele>467.34</ele>
        <time>2019-07-09T15:36:07Z</time>
      </trkpt>
      <trkpt lat="48.49112" lon="7.16119">
        <ele>463.49</ele>
        <time>2019-07-09T15:36:21Z</time>
      </trkpt>
      <trkpt lat="48.49005" lon="7.16131">
        <ele>453.88</ele>
        <time>2019-07-09T15:36:34Z</time>
      </trkpt>
      <trkpt lat="48.48932" lon="7.16146">
        <ele>449.07</ele>
        <time>2019-07-09T15:36:46Z</time>
      </trkpt>
      <trkpt lat="48.48927" lon="7.16148">
        <ele>449.07</ele>
        <time>2019-07-09T15:36:47Z</time>
      </trkpt>
      <trkpt lat="48.48921" lon="7.16151">
        <ele>449.55</ele>
        <time>2019-07-09T15:36:48Z</time>
      </trkpt>
      <trkpt lat="48.48906" lon="7.16164">
        <ele>449.55</ele>
        <time>2019-07-09T15:36:51Z</time>
      </trkpt>
      <trkpt lat="48.48901" lon="7.16168">
        <ele>449.55</ele>
        <time>2019-07-09T15:36:52Z</time>
      </trkpt>
      <trkpt lat="48.48895" lon="7.16173">
        <ele>449.55</ele>
        <time>2019-07-09T15:36:53Z</time>
      </trkpt>
      <trkpt lat="48.4889" lon="7.16179">
        <ele>449.07</ele>
        <time>2019-07-09T15:36:54Z</time>
      </trkpt>
      <trkpt lat="48.48885" lon="7.16184">
        <ele>449.07</ele>
        <time>2019-07-09T15:36:55Z</time>
      </trkpt>
      <trkpt lat="48.4888" lon="7.1619">
        <ele>448.59</ele>
        <time>2019-07-09T15:36:56Z</time>
      </trkpt>
      <trkpt lat="48.48874" lon="7.16198">
        <ele>448.11</ele>
        <time>2019-07-09T15:36:57Z</time>
      </trkpt>
      <trkpt lat="48.48845" lon="7.16243">
        <ele>443.79</ele>
        <time>2019-07-09T15:37:05Z</time>
      </trkpt>
      <trkpt lat="48.48844" lon="7.16248">
        <ele>443.31</ele>
        <time>2019-07-09T15:37:06Z</time>
      </trkpt>
      <trkpt lat="48.48845" lon="7.16254">
        <ele>442.82</ele>
        <time>2019-07-09T15:37:07Z</time>
      </trkpt>
      <trkpt lat="48.48848" lon="7.16267">
        <ele>441.86</ele>
        <time>2019-07-09T15:37:10Z</time>
      </trkpt>
      <trkpt lat="48.4885" lon="7.16268">
        <ele>440.9</ele>
        <time>2019-07-09T15:37:18Z</time>
      </trkpt>
      <trkpt lat="48.48849" lon="7.16269">
        <ele>443.31</ele>
        <time>2019-07-09T15:37:50Z</time>
      </trkpt>
      <trkpt lat="48.4885" lon="7.16273">
        <ele>445.23</ele>
        <time>2019-07-09T15:38:24Z</time>
      </trkpt>
      <trkpt lat="48.48851" lon="7.16271">
        <ele>445.23</ele>
        <time>2019-07-09T15:38:48Z</time>
      </trkpt>
      <trkpt lat="48.48851" lon="7.1627">
        <ele>446.67</ele>
        <time>2019-07-09T15:39:04Z</time>
      </trkpt>
    </trkseg>
  </trk>
</gpx>